<?xml version="1.0" encoding="UTF-8" standalone="no" ?>
<gpx xmlns="http://www.topografix.com/GPX/1/1" xmlns:xsi="http://www.w3.org/2001/XMLSchema-instance" xsi:schemaLocation="http://www.topografix.com/GPX/1/1 http://www.topografix.com/GPX/1/1/gpx.xsd" version="1.1" creator="VisuGPX - https://www.visugpx.com">
  <metadata>
    <name>Lorp - Voie verte puis retour via Le Mas d'Azil et les belles petites routes ariégeoises</name>
    <desc><![CDATA[Voie verte jusqu'à Baulou puis petites routes de campagne peu fréquentées.]]></desc>
  </metadata>
  <trk>
    <name><![CDATA[Lorp ⛅️🌬 - Voie verte puis retour via Le Mas d'Azil et les belles petites routes ariégeoises]]></name>
    <trkseg>
      <trkpt lat="43.01023" lon="1.12108">
        <ele>374.6</ele>
        <time>2024-06-23T05:54:39Z</time>
      </trkpt>
      <trkpt lat="43.01021" lon="1.1211">
        <ele>374.6</ele>
        <time>2024-06-23T05:55:03Z</time>
      </trkpt>
      <trkpt lat="43.0102" lon="1.12112">
        <ele>374.6</ele>
        <time>2024-06-23T05:55:04Z</time>
      </trkpt>
      <trkpt lat="43.01019" lon="1.12113">
        <ele>374.6</ele>
        <time>2024-06-23T05:55:05Z</time>
      </trkpt>
      <trkpt lat="43.01017" lon="1.12115">
        <ele>374.6</ele>
        <time>2024-06-23T05:55:06Z</time>
      </trkpt>
      <trkpt lat="43.01016" lon="1.12118">
        <ele>374.6</ele>
        <time>2024-06-23T05:55:07Z</time>
      </trkpt>
      <trkpt lat="43.01014" lon="1.12121">
        <ele>374.6</ele>
        <time>2024-06-23T05:55:08Z</time>
      </trkpt>
      <trkpt lat="43.01012" lon="1.12123">
        <ele>374.6</ele>
        <time>2024-06-23T05:55:09Z</time>
      </trkpt>
      <trkpt lat="43.0101" lon="1.12126">
        <ele>374.8</ele>
        <time>2024-06-23T05:55:10Z</time>
      </trkpt>
      <trkpt lat="43.01008" lon="1.12129">
        <ele>374.8</ele>
        <time>2024-06-23T05:55:11Z</time>
      </trkpt>
      <trkpt lat="43.01006" lon="1.12132">
        <ele>374.8</ele>
        <time>2024-06-23T05:55:12Z</time>
      </trkpt>
      <trkpt lat="43.01003" lon="1.12135">
        <ele>374.8</ele>
        <time>2024-06-23T05:55:13Z</time>
      </trkpt>
      <trkpt lat="43.01001" lon="1.12138">
        <ele>374.8</ele>
        <time>2024-06-23T05:55:14Z</time>
      </trkpt>
      <trkpt lat="43.00998" lon="1.12142">
        <ele>375.2</ele>
        <time>2024-06-23T05:55:15Z</time>
      </trkpt>
      <trkpt lat="43.00996" lon="1.12144">
        <ele>375.2</ele>
        <time>2024-06-23T05:55:16Z</time>
      </trkpt>
      <trkpt lat="43.00994" lon="1.12147">
        <ele>375.2</ele>
        <time>2024-06-23T05:55:17Z</time>
      </trkpt>
      <trkpt lat="43.00992" lon="1.1215">
        <ele>375.2</ele>
        <time>2024-06-23T05:55:18Z</time>
      </trkpt>
      <trkpt lat="43.0099" lon="1.12154">
        <ele>375.2</ele>
        <time>2024-06-23T05:55:19Z</time>
      </trkpt>
      <trkpt lat="43.00989" lon="1.12158">
        <ele>375.2</ele>
        <time>2024-06-23T05:55:20Z</time>
      </trkpt>
      <trkpt lat="43.00988" lon="1.12163">
        <ele>375.2</ele>
        <time>2024-06-23T05:55:21Z</time>
      </trkpt>
      <trkpt lat="43.00988" lon="1.12168">
        <ele>375.4</ele>
        <time>2024-06-23T05:55:22Z</time>
      </trkpt>
      <trkpt lat="43.00988" lon="1.12173">
        <ele>375.4</ele>
        <time>2024-06-23T05:55:23Z</time>
      </trkpt>
      <trkpt lat="43.00989" lon="1.12178">
        <ele>375.4</ele>
        <time>2024-06-23T05:55:24Z</time>
      </trkpt>
      <trkpt lat="43.00989" lon="1.12184">
        <ele>375.4</ele>
        <time>2024-06-23T05:55:25Z</time>
      </trkpt>
      <trkpt lat="43.00989" lon="1.12189">
        <ele>375.4</ele>
        <time>2024-06-23T05:55:26Z</time>
      </trkpt>
      <trkpt lat="43.00989" lon="1.12194">
        <ele>375.4</ele>
        <time>2024-06-23T05:55:27Z</time>
      </trkpt>
      <trkpt lat="43.00988" lon="1.122">
        <ele>375.4</ele>
        <time>2024-06-23T05:55:28Z</time>
      </trkpt>
      <trkpt lat="43.00988" lon="1.12205">
        <ele>375.4</ele>
        <time>2024-06-23T05:55:29Z</time>
      </trkpt>
      <trkpt lat="43.00988" lon="1.12211">
        <ele>375.4</ele>
        <time>2024-06-23T05:55:30Z</time>
      </trkpt>
      <trkpt lat="43.00988" lon="1.12216">
        <ele>375.4</ele>
        <time>2024-06-23T05:55:31Z</time>
      </trkpt>
      <trkpt lat="43.00988" lon="1.12221">
        <ele>375.4</ele>
        <time>2024-06-23T05:55:32Z</time>
      </trkpt>
      <trkpt lat="43.00988" lon="1.12226">
        <ele>375.4</ele>
        <time>2024-06-23T05:55:33Z</time>
      </trkpt>
      <trkpt lat="43.00987" lon="1.1223">
        <ele>375.4</ele>
        <time>2024-06-23T05:55:34Z</time>
      </trkpt>
      <trkpt lat="43.00986" lon="1.12235">
        <ele>375.4</ele>
        <time>2024-06-23T05:55:35Z</time>
      </trkpt>
      <trkpt lat="43.00986" lon="1.12239">
        <ele>375.4</ele>
        <time>2024-06-23T05:55:36Z</time>
      </trkpt>
      <trkpt lat="43.00985" lon="1.12241">
        <ele>375.6</ele>
        <time>2024-06-23T05:55:37Z</time>
      </trkpt>
      <trkpt lat="43.00985" lon="1.12243">
        <ele>375.6</ele>
        <time>2024-06-23T05:55:38Z</time>
      </trkpt>
      <trkpt lat="43.00985" lon="1.12243">
        <ele>375.6</ele>
        <time>2024-06-23T05:55:39Z</time>
      </trkpt>
      <trkpt lat="43.00985" lon="1.12244">
        <ele>375.6</ele>
        <time>2024-06-23T05:55:40Z</time>
      </trkpt>
      <trkpt lat="43.00987" lon="1.12243">
        <ele>375.6</ele>
        <time>2024-06-23T05:55:41Z</time>
      </trkpt>
      <trkpt lat="43.00988" lon="1.12241">
        <ele>375.6</ele>
        <time>2024-06-23T05:55:42Z</time>
      </trkpt>
      <trkpt lat="43.00988" lon="1.12239">
        <ele>375.6</ele>
        <time>2024-06-23T05:55:43Z</time>
      </trkpt>
      <trkpt lat="43.00988" lon="1.12236">
        <ele>375.6</ele>
        <time>2024-06-23T05:55:44Z</time>
      </trkpt>
      <trkpt lat="43.00989" lon="1.12233">
        <ele>375.6</ele>
        <time>2024-06-23T05:55:45Z</time>
      </trkpt>
      <trkpt lat="43.00989" lon="1.1223">
        <ele>375.6</ele>
        <time>2024-06-23T05:55:46Z</time>
      </trkpt>
      <trkpt lat="43.00989" lon="1.12226">
        <ele>375.6</ele>
        <time>2024-06-23T05:55:47Z</time>
      </trkpt>
      <trkpt lat="43.00989" lon="1.12222">
        <ele>375.4</ele>
        <time>2024-06-23T05:55:48Z</time>
      </trkpt>
      <trkpt lat="43.0099" lon="1.12218">
        <ele>375.4</ele>
        <time>2024-06-23T05:55:49Z</time>
      </trkpt>
      <trkpt lat="43.0099" lon="1.12213">
        <ele>375.4</ele>
        <time>2024-06-23T05:55:50Z</time>
      </trkpt>
      <trkpt lat="43.00991" lon="1.12208">
        <ele>375.4</ele>
        <time>2024-06-23T05:55:51Z</time>
      </trkpt>
      <trkpt lat="43.00991" lon="1.12203">
        <ele>375.4</ele>
        <time>2024-06-23T05:55:52Z</time>
      </trkpt>
      <trkpt lat="43.00991" lon="1.12198">
        <ele>375.4</ele>
        <time>2024-06-23T05:55:53Z</time>
      </trkpt>
      <trkpt lat="43.00991" lon="1.12193">
        <ele>375.4</ele>
        <time>2024-06-23T05:55:54Z</time>
      </trkpt>
      <trkpt lat="43.00991" lon="1.12188">
        <ele>375.4</ele>
        <time>2024-06-23T05:55:55Z</time>
      </trkpt>
      <trkpt lat="43.00991" lon="1.12183">
        <ele>375.4</ele>
        <time>2024-06-23T05:55:56Z</time>
      </trkpt>
      <trkpt lat="43.00991" lon="1.12177">
        <ele>375.4</ele>
        <time>2024-06-23T05:55:57Z</time>
      </trkpt>
      <trkpt lat="43.00991" lon="1.12172">
        <ele>375.4</ele>
        <time>2024-06-23T05:55:58Z</time>
      </trkpt>
      <trkpt lat="43.00991" lon="1.12166">
        <ele>375.4</ele>
        <time>2024-06-23T05:55:59Z</time>
      </trkpt>
      <trkpt lat="43.00992" lon="1.12161">
        <ele>375.2</ele>
        <time>2024-06-23T05:56:00Z</time>
      </trkpt>
      <trkpt lat="43.00992" lon="1.12156">
        <ele>375.2</ele>
        <time>2024-06-23T05:56:01Z</time>
      </trkpt>
      <trkpt lat="43.00992" lon="1.12152">
        <ele>375.2</ele>
        <time>2024-06-23T05:56:02Z</time>
      </trkpt>
      <trkpt lat="43.00995" lon="1.12144">
        <ele>375.2</ele>
        <time>2024-06-23T05:56:03Z</time>
      </trkpt>
      <trkpt lat="43.00997" lon="1.12141">
        <ele>375.2</ele>
        <time>2024-06-23T05:56:04Z</time>
      </trkpt>
      <trkpt lat="43.01" lon="1.12139">
        <ele>375.2</ele>
        <time>2024-06-23T05:56:05Z</time>
      </trkpt>
      <trkpt lat="43.01003" lon="1.12135">
        <ele>374.8</ele>
        <time>2024-06-23T05:56:06Z</time>
      </trkpt>
      <trkpt lat="43.01006" lon="1.12132">
        <ele>374.8</ele>
        <time>2024-06-23T05:56:07Z</time>
      </trkpt>
      <trkpt lat="43.01009" lon="1.12129">
        <ele>374.8</ele>
        <time>2024-06-23T05:56:08Z</time>
      </trkpt>
      <trkpt lat="43.01012" lon="1.12125">
        <ele>374.8</ele>
        <time>2024-06-23T05:56:09Z</time>
      </trkpt>
      <trkpt lat="43.01015" lon="1.12122">
        <ele>374.8</ele>
        <time>2024-06-23T05:56:10Z</time>
      </trkpt>
      <trkpt lat="43.01017" lon="1.12119">
        <ele>374.6</ele>
        <time>2024-06-23T05:56:11Z</time>
      </trkpt>
      <trkpt lat="43.0102" lon="1.12116">
        <ele>374.6</ele>
        <time>2024-06-23T05:56:12Z</time>
      </trkpt>
      <trkpt lat="43.01022" lon="1.12113">
        <ele>374.6</ele>
        <time>2024-06-23T05:56:13Z</time>
      </trkpt>
      <trkpt lat="43.01024" lon="1.1211">
        <ele>374.6</ele>
        <time>2024-06-23T05:56:14Z</time>
      </trkpt>
      <trkpt lat="43.01025" lon="1.12109">
        <ele>374.6</ele>
        <time>2024-06-23T05:56:15Z</time>
      </trkpt>
      <trkpt lat="43.01026" lon="1.12108">
        <ele>374.6</ele>
        <time>2024-06-23T05:56:16Z</time>
      </trkpt>
      <trkpt lat="43.01026" lon="1.12107">
        <ele>374.6</ele>
        <time>2024-06-23T05:56:17Z</time>
      </trkpt>
      <trkpt lat="43.01026" lon="1.12108">
        <ele>374.6</ele>
        <time>2024-06-23T05:56:18Z</time>
      </trkpt>
      <trkpt lat="43.01026" lon="1.12108">
        <ele>374.6</ele>
        <time>2024-06-23T05:56:19Z</time>
      </trkpt>
      <trkpt lat="43.01027" lon="1.12106">
        <ele>374.4</ele>
        <time>2024-06-23T05:56:23Z</time>
      </trkpt>
      <trkpt lat="43.01028" lon="1.12105">
        <ele>374.4</ele>
        <time>2024-06-23T05:56:24Z</time>
      </trkpt>
      <trkpt lat="43.0103" lon="1.12104">
        <ele>374.4</ele>
        <time>2024-06-23T05:56:25Z</time>
      </trkpt>
      <trkpt lat="43.01031" lon="1.12103">
        <ele>374.4</ele>
        <time>2024-06-23T05:56:26Z</time>
      </trkpt>
      <trkpt lat="43.01031" lon="1.12103">
        <ele>374.6</ele>
        <time>2024-06-23T05:56:27Z</time>
      </trkpt>
      <trkpt lat="43.01032" lon="1.12104">
        <ele>374.6</ele>
        <time>2024-06-23T05:56:28Z</time>
      </trkpt>
      <trkpt lat="43.01033" lon="1.12105">
        <ele>374.6</ele>
        <time>2024-06-23T05:56:29Z</time>
      </trkpt>
      <trkpt lat="43.01034" lon="1.12106">
        <ele>374.6</ele>
        <time>2024-06-23T05:56:30Z</time>
      </trkpt>
      <trkpt lat="43.01034" lon="1.12107">
        <ele>374.6</ele>
        <time>2024-06-23T05:56:31Z</time>
      </trkpt>
      <trkpt lat="43.01035" lon="1.12108">
        <ele>374.6</ele>
        <time>2024-06-23T05:56:32Z</time>
      </trkpt>
      <trkpt lat="43.01035" lon="1.12109">
        <ele>374.6</ele>
        <time>2024-06-23T05:56:33Z</time>
      </trkpt>
      <trkpt lat="43.01035" lon="1.1211">
        <ele>374.6</ele>
        <time>2024-06-23T05:56:34Z</time>
      </trkpt>
      <trkpt lat="43.01034" lon="1.1211">
        <ele>374.6</ele>
        <time>2024-06-23T05:56:35Z</time>
      </trkpt>
      <trkpt lat="43.01034" lon="1.1211">
        <ele>374.6</ele>
        <time>2024-06-23T05:56:36Z</time>
      </trkpt>
      <trkpt lat="43.01034" lon="1.1211">
        <ele>374</ele>
        <time>2024-06-23T05:56:37Z</time>
      </trkpt>
      <trkpt lat="43.01017" lon="1.12107">
        <ele>375.2</ele>
        <time>2024-06-23T07:50:45Z</time>
      </trkpt>
      <trkpt lat="43.01016" lon="1.12108">
        <ele>375.4</ele>
        <time>2024-06-23T07:50:52Z</time>
      </trkpt>
      <trkpt lat="43.01015" lon="1.1211">
        <ele>375.4</ele>
        <time>2024-06-23T07:50:53Z</time>
      </trkpt>
      <trkpt lat="43.01013" lon="1.12112">
        <ele>375.4</ele>
        <time>2024-06-23T07:50:54Z</time>
      </trkpt>
      <trkpt lat="43.01012" lon="1.12114">
        <ele>375.4</ele>
        <time>2024-06-23T07:50:55Z</time>
      </trkpt>
      <trkpt lat="43.0101" lon="1.12116">
        <ele>375.2</ele>
        <time>2024-06-23T07:50:56Z</time>
      </trkpt>
      <trkpt lat="43.01007" lon="1.12118">
        <ele>375.2</ele>
        <time>2024-06-23T07:50:57Z</time>
      </trkpt>
      <trkpt lat="43.01005" lon="1.12121">
        <ele>375.6</ele>
        <time>2024-06-23T07:50:58Z</time>
      </trkpt>
      <trkpt lat="43.01002" lon="1.12124">
        <ele>376.2</ele>
        <time>2024-06-23T07:50:59Z</time>
      </trkpt>
      <trkpt lat="43.01" lon="1.12128">
        <ele>376.2</ele>
        <time>2024-06-23T07:51:00Z</time>
      </trkpt>
      <trkpt lat="43.00998" lon="1.12131">
        <ele>376.6</ele>
        <time>2024-06-23T07:51:01Z</time>
      </trkpt>
      <trkpt lat="43.00995" lon="1.12133">
        <ele>376.4</ele>
        <time>2024-06-23T07:51:02Z</time>
      </trkpt>
      <trkpt lat="43.00993" lon="1.12137">
        <ele>376.4</ele>
        <time>2024-06-23T07:51:03Z</time>
      </trkpt>
      <trkpt lat="43.0099" lon="1.12139">
        <ele>376.4</ele>
        <time>2024-06-23T07:51:04Z</time>
      </trkpt>
      <trkpt lat="43.00988" lon="1.12142">
        <ele>376.4</ele>
        <time>2024-06-23T07:51:05Z</time>
      </trkpt>
      <trkpt lat="43.00987" lon="1.12144">
        <ele>376.6</ele>
        <time>2024-06-23T07:51:06Z</time>
      </trkpt>
      <trkpt lat="43.00985" lon="1.12146">
        <ele>376.6</ele>
        <time>2024-06-23T07:51:07Z</time>
      </trkpt>
      <trkpt lat="43.00983" lon="1.1215">
        <ele>376.4</ele>
        <time>2024-06-23T07:51:08Z</time>
      </trkpt>
      <trkpt lat="43.00982" lon="1.12154">
        <ele>376.4</ele>
        <time>2024-06-23T07:51:09Z</time>
      </trkpt>
      <trkpt lat="43.00981" lon="1.12159">
        <ele>376.4</ele>
        <time>2024-06-23T07:51:10Z</time>
      </trkpt>
      <trkpt lat="43.00981" lon="1.12165">
        <ele>376.4</ele>
        <time>2024-06-23T07:51:11Z</time>
      </trkpt>
      <trkpt lat="43.00982" lon="1.1217">
        <ele>376.4</ele>
        <time>2024-06-23T07:51:12Z</time>
      </trkpt>
      <trkpt lat="43.00982" lon="1.12175">
        <ele>376.4</ele>
        <time>2024-06-23T07:51:13Z</time>
      </trkpt>
      <trkpt lat="43.00982" lon="1.12181">
        <ele>376.4</ele>
        <time>2024-06-23T07:51:14Z</time>
      </trkpt>
      <trkpt lat="43.00982" lon="1.12186">
        <ele>376.4</ele>
        <time>2024-06-23T07:51:15Z</time>
      </trkpt>
      <trkpt lat="43.00981" lon="1.12191">
        <ele>376.6</ele>
        <time>2024-06-23T07:51:16Z</time>
      </trkpt>
      <trkpt lat="43.00981" lon="1.12196">
        <ele>376.6</ele>
        <time>2024-06-23T07:51:17Z</time>
      </trkpt>
      <trkpt lat="43.00981" lon="1.12201">
        <ele>376.6</ele>
        <time>2024-06-23T07:51:18Z</time>
      </trkpt>
      <trkpt lat="43.00981" lon="1.12206">
        <ele>376.6</ele>
        <time>2024-06-23T07:51:19Z</time>
      </trkpt>
      <trkpt lat="43.0098" lon="1.12212">
        <ele>376.6</ele>
        <time>2024-06-23T07:51:20Z</time>
      </trkpt>
      <trkpt lat="43.00979" lon="1.12218">
        <ele>376.6</ele>
        <time>2024-06-23T07:51:21Z</time>
      </trkpt>
      <trkpt lat="43.00979" lon="1.12224">
        <ele>376.8</ele>
        <time>2024-06-23T07:51:22Z</time>
      </trkpt>
      <trkpt lat="43.00978" lon="1.1223">
        <ele>376.8</ele>
        <time>2024-06-23T07:51:23Z</time>
      </trkpt>
      <trkpt lat="43.00977" lon="1.12236">
        <ele>376.8</ele>
        <time>2024-06-23T07:51:24Z</time>
      </trkpt>
      <trkpt lat="43.00977" lon="1.12242">
        <ele>376.8</ele>
        <time>2024-06-23T07:51:25Z</time>
      </trkpt>
      <trkpt lat="43.00976" lon="1.12247">
        <ele>376.8</ele>
        <time>2024-06-23T07:51:26Z</time>
      </trkpt>
      <trkpt lat="43.00976" lon="1.12252">
        <ele>376.6</ele>
        <time>2024-06-23T07:51:27Z</time>
      </trkpt>
      <trkpt lat="43.00975" lon="1.12258">
        <ele>376.6</ele>
        <time>2024-06-23T07:51:28Z</time>
      </trkpt>
      <trkpt lat="43.00975" lon="1.12263">
        <ele>376.6</ele>
        <time>2024-06-23T07:51:29Z</time>
      </trkpt>
      <trkpt lat="43.00975" lon="1.12268">
        <ele>376.6</ele>
        <time>2024-06-23T07:51:30Z</time>
      </trkpt>
      <trkpt lat="43.00974" lon="1.12273">
        <ele>376.6</ele>
        <time>2024-06-23T07:51:31Z</time>
      </trkpt>
      <trkpt lat="43.00973" lon="1.12278">
        <ele>376.6</ele>
        <time>2024-06-23T07:51:32Z</time>
      </trkpt>
      <trkpt lat="43.00972" lon="1.12284">
        <ele>376.8</ele>
        <time>2024-06-23T07:51:33Z</time>
      </trkpt>
      <trkpt lat="43.0097" lon="1.12289">
        <ele>376.8</ele>
        <time>2024-06-23T07:51:34Z</time>
      </trkpt>
      <trkpt lat="43.0097" lon="1.12295">
        <ele>377.2</ele>
        <time>2024-06-23T07:51:35Z</time>
      </trkpt>
      <trkpt lat="43.00968" lon="1.123">
        <ele>377.2</ele>
        <time>2024-06-23T07:51:36Z</time>
      </trkpt>
      <trkpt lat="43.00967" lon="1.12304">
        <ele>377.2</ele>
        <time>2024-06-23T07:51:37Z</time>
      </trkpt>
      <trkpt lat="43.00965" lon="1.12309">
        <ele>377.2</ele>
        <time>2024-06-23T07:51:38Z</time>
      </trkpt>
      <trkpt lat="43.00964" lon="1.12313">
        <ele>377.2</ele>
        <time>2024-06-23T07:51:39Z</time>
      </trkpt>
      <trkpt lat="43.00962" lon="1.12318">
        <ele>377.2</ele>
        <time>2024-06-23T07:51:40Z</time>
      </trkpt>
      <trkpt lat="43.0096" lon="1.12323">
        <ele>377.2</ele>
        <time>2024-06-23T07:51:41Z</time>
      </trkpt>
      <trkpt lat="43.00958" lon="1.12329">
        <ele>377.2</ele>
        <time>2024-06-23T07:51:42Z</time>
      </trkpt>
      <trkpt lat="43.00956" lon="1.12334">
        <ele>377.2</ele>
        <time>2024-06-23T07:51:43Z</time>
      </trkpt>
      <trkpt lat="43.00954" lon="1.12339">
        <ele>377.2</ele>
        <time>2024-06-23T07:51:44Z</time>
      </trkpt>
      <trkpt lat="43.00952" lon="1.12345">
        <ele>377.2</ele>
        <time>2024-06-23T07:51:45Z</time>
      </trkpt>
      <trkpt lat="43.00951" lon="1.1235">
        <ele>377.4</ele>
        <time>2024-06-23T07:51:46Z</time>
      </trkpt>
      <trkpt lat="43.00949" lon="1.12353">
        <ele>377.6</ele>
        <time>2024-06-23T07:51:47Z</time>
      </trkpt>
      <trkpt lat="43.00947" lon="1.12357">
        <ele>377.6</ele>
        <time>2024-06-23T07:51:48Z</time>
      </trkpt>
      <trkpt lat="43.00945" lon="1.12362">
        <ele>377.6</ele>
        <time>2024-06-23T07:51:49Z</time>
      </trkpt>
      <trkpt lat="43.00943" lon="1.12366">
        <ele>378</ele>
        <time>2024-06-23T07:51:50Z</time>
      </trkpt>
      <trkpt lat="43.0094" lon="1.1237">
        <ele>377.8</ele>
        <time>2024-06-23T07:51:51Z</time>
      </trkpt>
      <trkpt lat="43.00938" lon="1.12375">
        <ele>377.8</ele>
        <time>2024-06-23T07:51:52Z</time>
      </trkpt>
      <trkpt lat="43.00936" lon="1.12381">
        <ele>377.8</ele>
        <time>2024-06-23T07:51:53Z</time>
      </trkpt>
      <trkpt lat="43.00934" lon="1.12387">
        <ele>377.8</ele>
        <time>2024-06-23T07:51:54Z</time>
      </trkpt>
      <trkpt lat="43.00932" lon="1.12393">
        <ele>377.8</ele>
        <time>2024-06-23T07:51:55Z</time>
      </trkpt>
      <trkpt lat="43.0093" lon="1.124">
        <ele>378</ele>
        <time>2024-06-23T07:51:56Z</time>
      </trkpt>
      <trkpt lat="43.00928" lon="1.12406">
        <ele>378</ele>
        <time>2024-06-23T07:51:57Z</time>
      </trkpt>
      <trkpt lat="43.00925" lon="1.12412">
        <ele>378.4</ele>
        <time>2024-06-23T07:51:58Z</time>
      </trkpt>
      <trkpt lat="43.00923" lon="1.12418">
        <ele>378.4</ele>
        <time>2024-06-23T07:51:59Z</time>
      </trkpt>
      <trkpt lat="43.00921" lon="1.12424">
        <ele>378.6</ele>
        <time>2024-06-23T07:52:00Z</time>
      </trkpt>
      <trkpt lat="43.00918" lon="1.1243">
        <ele>378.6</ele>
        <time>2024-06-23T07:52:01Z</time>
      </trkpt>
      <trkpt lat="43.00915" lon="1.12436">
        <ele>378.4</ele>
        <time>2024-06-23T07:52:02Z</time>
      </trkpt>
      <trkpt lat="43.00913" lon="1.12442">
        <ele>378.4</ele>
        <time>2024-06-23T07:52:03Z</time>
      </trkpt>
      <trkpt lat="43.00911" lon="1.12449">
        <ele>378.4</ele>
        <time>2024-06-23T07:52:04Z</time>
      </trkpt>
      <trkpt lat="43.00909" lon="1.12455">
        <ele>378.6</ele>
        <time>2024-06-23T07:52:05Z</time>
      </trkpt>
      <trkpt lat="43.00906" lon="1.1246">
        <ele>378.8</ele>
        <time>2024-06-23T07:52:06Z</time>
      </trkpt>
      <trkpt lat="43.00904" lon="1.12467">
        <ele>378.8</ele>
        <time>2024-06-23T07:52:07Z</time>
      </trkpt>
      <trkpt lat="43.00902" lon="1.12473">
        <ele>378.8</ele>
        <time>2024-06-23T07:52:08Z</time>
      </trkpt>
      <trkpt lat="43.00899" lon="1.12478">
        <ele>378.8</ele>
        <time>2024-06-23T07:52:09Z</time>
      </trkpt>
      <trkpt lat="43.00897" lon="1.12484">
        <ele>378.8</ele>
        <time>2024-06-23T07:52:10Z</time>
      </trkpt>
      <trkpt lat="43.00895" lon="1.12491">
        <ele>378.8</ele>
        <time>2024-06-23T07:52:11Z</time>
      </trkpt>
      <trkpt lat="43.00892" lon="1.12497">
        <ele>378.8</ele>
        <time>2024-06-23T07:52:12Z</time>
      </trkpt>
      <trkpt lat="43.0089" lon="1.12503">
        <ele>378.8</ele>
        <time>2024-06-23T07:52:13Z</time>
      </trkpt>
      <trkpt lat="43.00887" lon="1.1251">
        <ele>378.8</ele>
        <time>2024-06-23T07:52:14Z</time>
      </trkpt>
      <trkpt lat="43.00884" lon="1.12516">
        <ele>378.8</ele>
        <time>2024-06-23T07:52:15Z</time>
      </trkpt>
      <trkpt lat="43.00881" lon="1.12521">
        <ele>379</ele>
        <time>2024-06-23T07:52:16Z</time>
      </trkpt>
      <trkpt lat="43.00878" lon="1.12527">
        <ele>379</ele>
        <time>2024-06-23T07:52:17Z</time>
      </trkpt>
      <trkpt lat="43.00876" lon="1.12533">
        <ele>379</ele>
        <time>2024-06-23T07:52:18Z</time>
      </trkpt>
      <trkpt lat="43.00873" lon="1.1254">
        <ele>379</ele>
        <time>2024-06-23T07:52:19Z</time>
      </trkpt>
      <trkpt lat="43.00869" lon="1.12545">
        <ele>379.4</ele>
        <time>2024-06-23T07:52:20Z</time>
      </trkpt>
      <trkpt lat="43.00867" lon="1.1255">
        <ele>379.4</ele>
        <time>2024-06-23T07:52:21Z</time>
      </trkpt>
      <trkpt lat="43.00864" lon="1.12555">
        <ele>379.4</ele>
        <time>2024-06-23T07:52:22Z</time>
      </trkpt>
      <trkpt lat="43.0086" lon="1.12559">
        <ele>379.4</ele>
        <time>2024-06-23T07:52:23Z</time>
      </trkpt>
      <trkpt lat="43.00856" lon="1.12566">
        <ele>379.4</ele>
        <time>2024-06-23T07:52:24Z</time>
      </trkpt>
      <trkpt lat="43.00854" lon="1.12571">
        <ele>379.8</ele>
        <time>2024-06-23T07:52:25Z</time>
      </trkpt>
      <trkpt lat="43.0085" lon="1.12577">
        <ele>379.8</ele>
        <time>2024-06-23T07:52:26Z</time>
      </trkpt>
      <trkpt lat="43.00847" lon="1.12584">
        <ele>379.8</ele>
        <time>2024-06-23T07:52:27Z</time>
      </trkpt>
      <trkpt lat="43.00844" lon="1.12591">
        <ele>379.8</ele>
        <time>2024-06-23T07:52:28Z</time>
      </trkpt>
      <trkpt lat="43.00841" lon="1.12596">
        <ele>379.8</ele>
        <time>2024-06-23T07:52:29Z</time>
      </trkpt>
      <trkpt lat="43.00837" lon="1.12602">
        <ele>379.8</ele>
        <time>2024-06-23T07:52:30Z</time>
      </trkpt>
      <trkpt lat="43.00834" lon="1.12608">
        <ele>379.8</ele>
        <time>2024-06-23T07:52:31Z</time>
      </trkpt>
      <trkpt lat="43.0083" lon="1.12614">
        <ele>379.8</ele>
        <time>2024-06-23T07:52:32Z</time>
      </trkpt>
      <trkpt lat="43.00828" lon="1.1262">
        <ele>379.8</ele>
        <time>2024-06-23T07:52:33Z</time>
      </trkpt>
      <trkpt lat="43.00824" lon="1.12625">
        <ele>380</ele>
        <time>2024-06-23T07:52:34Z</time>
      </trkpt>
      <trkpt lat="43.0082" lon="1.12631">
        <ele>380</ele>
        <time>2024-06-23T07:52:35Z</time>
      </trkpt>
      <trkpt lat="43.00817" lon="1.12636">
        <ele>380</ele>
        <time>2024-06-23T07:52:36Z</time>
      </trkpt>
      <trkpt lat="43.00813" lon="1.12642">
        <ele>380</ele>
        <time>2024-06-23T07:52:37Z</time>
      </trkpt>
      <trkpt lat="43.00809" lon="1.12646">
        <ele>380.4</ele>
        <time>2024-06-23T07:52:38Z</time>
      </trkpt>
      <trkpt lat="43.00805" lon="1.12652">
        <ele>380.4</ele>
        <time>2024-06-23T07:52:39Z</time>
      </trkpt>
      <trkpt lat="43.00802" lon="1.12657">
        <ele>380.4</ele>
        <time>2024-06-23T07:52:40Z</time>
      </trkpt>
      <trkpt lat="43.00798" lon="1.12662">
        <ele>380.4</ele>
        <time>2024-06-23T07:52:41Z</time>
      </trkpt>
      <trkpt lat="43.00794" lon="1.12668">
        <ele>380.4</ele>
        <time>2024-06-23T07:52:42Z</time>
      </trkpt>
      <trkpt lat="43.0079" lon="1.12673">
        <ele>380.4</ele>
        <time>2024-06-23T07:52:43Z</time>
      </trkpt>
      <trkpt lat="43.00786" lon="1.12678">
        <ele>380.6</ele>
        <time>2024-06-23T07:52:44Z</time>
      </trkpt>
      <trkpt lat="43.00783" lon="1.12684">
        <ele>380.6</ele>
        <time>2024-06-23T07:52:45Z</time>
      </trkpt>
      <trkpt lat="43.00779" lon="1.1269">
        <ele>380.8</ele>
        <time>2024-06-23T07:52:46Z</time>
      </trkpt>
      <trkpt lat="43.00775" lon="1.12695">
        <ele>380.8</ele>
        <time>2024-06-23T07:52:47Z</time>
      </trkpt>
      <trkpt lat="43.00771" lon="1.127">
        <ele>380.8</ele>
        <time>2024-06-23T07:52:48Z</time>
      </trkpt>
      <trkpt lat="43.00767" lon="1.12706">
        <ele>380.8</ele>
        <time>2024-06-23T07:52:49Z</time>
      </trkpt>
      <trkpt lat="43.00763" lon="1.12712">
        <ele>380.8</ele>
        <time>2024-06-23T07:52:50Z</time>
      </trkpt>
      <trkpt lat="43.00759" lon="1.12718">
        <ele>380.8</ele>
        <time>2024-06-23T07:52:51Z</time>
      </trkpt>
      <trkpt lat="43.00756" lon="1.12723">
        <ele>380.8</ele>
        <time>2024-06-23T07:52:52Z</time>
      </trkpt>
      <trkpt lat="43.00751" lon="1.12728">
        <ele>380.8</ele>
        <time>2024-06-23T07:52:53Z</time>
      </trkpt>
      <trkpt lat="43.00748" lon="1.12734">
        <ele>380.8</ele>
        <time>2024-06-23T07:52:54Z</time>
      </trkpt>
      <trkpt lat="43.00744" lon="1.12739">
        <ele>380.8</ele>
        <time>2024-06-23T07:52:55Z</time>
      </trkpt>
      <trkpt lat="43.0074" lon="1.12744">
        <ele>380.8</ele>
        <time>2024-06-23T07:52:56Z</time>
      </trkpt>
      <trkpt lat="43.00735" lon="1.12749">
        <ele>380.8</ele>
        <time>2024-06-23T07:52:57Z</time>
      </trkpt>
      <trkpt lat="43.00731" lon="1.12754">
        <ele>380.8</ele>
        <time>2024-06-23T07:52:58Z</time>
      </trkpt>
      <trkpt lat="43.00727" lon="1.12759">
        <ele>381</ele>
        <time>2024-06-23T07:52:59Z</time>
      </trkpt>
      <trkpt lat="43.00723" lon="1.12764">
        <ele>381</ele>
        <time>2024-06-23T07:53:00Z</time>
      </trkpt>
      <trkpt lat="43.00719" lon="1.12768">
        <ele>381</ele>
        <time>2024-06-23T07:53:01Z</time>
      </trkpt>
      <trkpt lat="43.00714" lon="1.12774">
        <ele>381.4</ele>
        <time>2024-06-23T07:53:02Z</time>
      </trkpt>
      <trkpt lat="43.0071" lon="1.12779">
        <ele>381.4</ele>
        <time>2024-06-23T07:53:03Z</time>
      </trkpt>
      <trkpt lat="43.00705" lon="1.12783">
        <ele>381.4</ele>
        <time>2024-06-23T07:53:04Z</time>
      </trkpt>
      <trkpt lat="43.00701" lon="1.12788">
        <ele>381.4</ele>
        <time>2024-06-23T07:53:05Z</time>
      </trkpt>
      <trkpt lat="43.00696" lon="1.12793">
        <ele>381.4</ele>
        <time>2024-06-23T07:53:06Z</time>
      </trkpt>
      <trkpt lat="43.00693" lon="1.12796">
        <ele>381.4</ele>
        <time>2024-06-23T07:53:07Z</time>
      </trkpt>
      <trkpt lat="43.00688" lon="1.128">
        <ele>381.4</ele>
        <time>2024-06-23T07:53:08Z</time>
      </trkpt>
      <trkpt lat="43.00684" lon="1.12805">
        <ele>381.6</ele>
        <time>2024-06-23T07:53:09Z</time>
      </trkpt>
      <trkpt lat="43.00676" lon="1.12813">
        <ele>381.6</ele>
        <time>2024-06-23T07:53:10Z</time>
      </trkpt>
      <trkpt lat="43.00671" lon="1.12817">
        <ele>381.6</ele>
        <time>2024-06-23T07:53:11Z</time>
      </trkpt>
      <trkpt lat="43.00668" lon="1.12821">
        <ele>381.6</ele>
        <time>2024-06-23T07:53:12Z</time>
      </trkpt>
      <trkpt lat="43.00664" lon="1.12826">
        <ele>381.6</ele>
        <time>2024-06-23T07:53:13Z</time>
      </trkpt>
      <trkpt lat="43.0066" lon="1.12831">
        <ele>382</ele>
        <time>2024-06-23T07:53:14Z</time>
      </trkpt>
      <trkpt lat="43.00656" lon="1.12834">
        <ele>382</ele>
        <time>2024-06-23T07:53:15Z</time>
      </trkpt>
      <trkpt lat="43.00652" lon="1.12837">
        <ele>382</ele>
        <time>2024-06-23T07:53:16Z</time>
      </trkpt>
      <trkpt lat="43.00648" lon="1.1284">
        <ele>382.4</ele>
        <time>2024-06-23T07:53:17Z</time>
      </trkpt>
      <trkpt lat="43.00644" lon="1.12842">
        <ele>382.4</ele>
        <time>2024-06-23T07:53:18Z</time>
      </trkpt>
      <trkpt lat="43.0064" lon="1.12842">
        <ele>382.4</ele>
        <time>2024-06-23T07:53:19Z</time>
      </trkpt>
      <trkpt lat="43.00637" lon="1.12841">
        <ele>382.4</ele>
        <time>2024-06-23T07:53:20Z</time>
      </trkpt>
      <trkpt lat="43.00634" lon="1.1284">
        <ele>382.4</ele>
        <time>2024-06-23T07:53:21Z</time>
      </trkpt>
      <trkpt lat="43.00631" lon="1.12837">
        <ele>382.6</ele>
        <time>2024-06-23T07:53:22Z</time>
      </trkpt>
      <trkpt lat="43.00629" lon="1.12835">
        <ele>383.2</ele>
        <time>2024-06-23T07:53:23Z</time>
      </trkpt>
      <trkpt lat="43.00627" lon="1.12833">
        <ele>383.4</ele>
        <time>2024-06-23T07:53:24Z</time>
      </trkpt>
      <trkpt lat="43.00624" lon="1.12831">
        <ele>383.4</ele>
        <time>2024-06-23T07:53:25Z</time>
      </trkpt>
      <trkpt lat="43.00621" lon="1.12832">
        <ele>383.6</ele>
        <time>2024-06-23T07:53:26Z</time>
      </trkpt>
      <trkpt lat="43.00619" lon="1.12835">
        <ele>383.6</ele>
        <time>2024-06-23T07:53:27Z</time>
      </trkpt>
      <trkpt lat="43.00616" lon="1.12838">
        <ele>384</ele>
        <time>2024-06-23T07:53:28Z</time>
      </trkpt>
      <trkpt lat="43.00616" lon="1.12842">
        <ele>384</ele>
        <time>2024-06-23T07:53:29Z</time>
      </trkpt>
      <trkpt lat="43.00616" lon="1.12848">
        <ele>384</ele>
        <time>2024-06-23T07:53:30Z</time>
      </trkpt>
      <trkpt lat="43.00619" lon="1.12853">
        <ele>384</ele>
        <time>2024-06-23T07:53:31Z</time>
      </trkpt>
      <trkpt lat="43.0062" lon="1.1286">
        <ele>383.8</ele>
        <time>2024-06-23T07:53:32Z</time>
      </trkpt>
      <trkpt lat="43.0062" lon="1.12867">
        <ele>383.2</ele>
        <time>2024-06-23T07:53:33Z</time>
      </trkpt>
      <trkpt lat="43.00618" lon="1.12875">
        <ele>382.8</ele>
        <time>2024-06-23T07:53:34Z</time>
      </trkpt>
      <trkpt lat="43.00614" lon="1.1288">
        <ele>382.8</ele>
        <time>2024-06-23T07:53:35Z</time>
      </trkpt>
      <trkpt lat="43.0061" lon="1.12884">
        <ele>382.8</ele>
        <time>2024-06-23T07:53:36Z</time>
      </trkpt>
      <trkpt lat="43.00605" lon="1.12888">
        <ele>382.8</ele>
        <time>2024-06-23T07:53:37Z</time>
      </trkpt>
      <trkpt lat="43.00601" lon="1.12893">
        <ele>382.4</ele>
        <time>2024-06-23T07:53:38Z</time>
      </trkpt>
      <trkpt lat="43.00596" lon="1.12897">
        <ele>382.4</ele>
        <time>2024-06-23T07:53:39Z</time>
      </trkpt>
      <trkpt lat="43.00592" lon="1.12901">
        <ele>382.4</ele>
        <time>2024-06-23T07:53:40Z</time>
      </trkpt>
      <trkpt lat="43.00588" lon="1.12905">
        <ele>382.4</ele>
        <time>2024-06-23T07:53:41Z</time>
      </trkpt>
      <trkpt lat="43.00584" lon="1.12908">
        <ele>382</ele>
        <time>2024-06-23T07:53:42Z</time>
      </trkpt>
      <trkpt lat="43.0058" lon="1.12913">
        <ele>382</ele>
        <time>2024-06-23T07:53:43Z</time>
      </trkpt>
      <trkpt lat="43.00575" lon="1.12917">
        <ele>382</ele>
        <time>2024-06-23T07:53:44Z</time>
      </trkpt>
      <trkpt lat="43.00571" lon="1.12922">
        <ele>382.4</ele>
        <time>2024-06-23T07:53:45Z</time>
      </trkpt>
      <trkpt lat="43.00566" lon="1.12925">
        <ele>382.4</ele>
        <time>2024-06-23T07:53:46Z</time>
      </trkpt>
      <trkpt lat="43.00562" lon="1.12929">
        <ele>382.4</ele>
        <time>2024-06-23T07:53:47Z</time>
      </trkpt>
      <trkpt lat="43.00557" lon="1.12933">
        <ele>382.4</ele>
        <time>2024-06-23T07:53:48Z</time>
      </trkpt>
      <trkpt lat="43.00553" lon="1.12937">
        <ele>382.4</ele>
        <time>2024-06-23T07:53:49Z</time>
      </trkpt>
      <trkpt lat="43.00549" lon="1.12941">
        <ele>382.2</ele>
        <time>2024-06-23T07:53:50Z</time>
      </trkpt>
      <trkpt lat="43.00545" lon="1.12945">
        <ele>382.4</ele>
        <time>2024-06-23T07:53:51Z</time>
      </trkpt>
      <trkpt lat="43.00541" lon="1.12949">
        <ele>382</ele>
        <time>2024-06-23T07:53:52Z</time>
      </trkpt>
      <trkpt lat="43.00537" lon="1.12954">
        <ele>382.4</ele>
        <time>2024-06-23T07:53:53Z</time>
      </trkpt>
      <trkpt lat="43.00532" lon="1.12958">
        <ele>382.4</ele>
        <time>2024-06-23T07:53:54Z</time>
      </trkpt>
      <trkpt lat="43.00528" lon="1.12962">
        <ele>382.2</ele>
        <time>2024-06-23T07:53:55Z</time>
      </trkpt>
      <trkpt lat="43.00524" lon="1.12967">
        <ele>382.6</ele>
        <time>2024-06-23T07:53:56Z</time>
      </trkpt>
      <trkpt lat="43.0052" lon="1.12971">
        <ele>382.6</ele>
        <time>2024-06-23T07:53:57Z</time>
      </trkpt>
      <trkpt lat="43.00515" lon="1.12976">
        <ele>382.6</ele>
        <time>2024-06-23T07:53:58Z</time>
      </trkpt>
      <trkpt lat="43.0051" lon="1.12979">
        <ele>383.2</ele>
        <time>2024-06-23T07:53:59Z</time>
      </trkpt>
      <trkpt lat="43.00506" lon="1.12984">
        <ele>383.6</ele>
        <time>2024-06-23T07:54:00Z</time>
      </trkpt>
      <trkpt lat="43.00502" lon="1.12987">
        <ele>383.2</ele>
        <time>2024-06-23T07:54:01Z</time>
      </trkpt>
      <trkpt lat="43.00498" lon="1.12992">
        <ele>383.2</ele>
        <time>2024-06-23T07:54:02Z</time>
      </trkpt>
      <trkpt lat="43.00494" lon="1.12996">
        <ele>383</ele>
        <time>2024-06-23T07:54:03Z</time>
      </trkpt>
      <trkpt lat="43.00489" lon="1.13">
        <ele>383</ele>
        <time>2024-06-23T07:54:04Z</time>
      </trkpt>
      <trkpt lat="43.00484" lon="1.13004">
        <ele>383</ele>
        <time>2024-06-23T07:54:05Z</time>
      </trkpt>
      <trkpt lat="43.0048" lon="1.13009">
        <ele>383.2</ele>
        <time>2024-06-23T07:54:06Z</time>
      </trkpt>
      <trkpt lat="43.00476" lon="1.13013">
        <ele>383.2</ele>
        <time>2024-06-23T07:54:07Z</time>
      </trkpt>
      <trkpt lat="43.00471" lon="1.13017">
        <ele>383.2</ele>
        <time>2024-06-23T07:54:08Z</time>
      </trkpt>
      <trkpt lat="43.00467" lon="1.13021">
        <ele>383.2</ele>
        <time>2024-06-23T07:54:09Z</time>
      </trkpt>
      <trkpt lat="43.00462" lon="1.13026">
        <ele>383.2</ele>
        <time>2024-06-23T07:54:10Z</time>
      </trkpt>
      <trkpt lat="43.00458" lon="1.13031">
        <ele>383.2</ele>
        <time>2024-06-23T07:54:11Z</time>
      </trkpt>
      <trkpt lat="43.00453" lon="1.13036">
        <ele>383.2</ele>
        <time>2024-06-23T07:54:12Z</time>
      </trkpt>
      <trkpt lat="43.00449" lon="1.1304">
        <ele>383.2</ele>
        <time>2024-06-23T07:54:13Z</time>
      </trkpt>
      <trkpt lat="43.00444" lon="1.13043">
        <ele>383.2</ele>
        <time>2024-06-23T07:54:14Z</time>
      </trkpt>
      <trkpt lat="43.0044" lon="1.13048">
        <ele>383.2</ele>
        <time>2024-06-23T07:54:15Z</time>
      </trkpt>
      <trkpt lat="43.00436" lon="1.13053">
        <ele>383.6</ele>
        <time>2024-06-23T07:54:16Z</time>
      </trkpt>
      <trkpt lat="43.00432" lon="1.13056">
        <ele>383.6</ele>
        <time>2024-06-23T07:54:17Z</time>
      </trkpt>
      <trkpt lat="43.00427" lon="1.1306">
        <ele>383.6</ele>
        <time>2024-06-23T07:54:18Z</time>
      </trkpt>
      <trkpt lat="43.00423" lon="1.13065">
        <ele>383.6</ele>
        <time>2024-06-23T07:54:19Z</time>
      </trkpt>
      <trkpt lat="43.00418" lon="1.13069">
        <ele>383.6</ele>
        <time>2024-06-23T07:54:20Z</time>
      </trkpt>
      <trkpt lat="43.00414" lon="1.13073">
        <ele>383.6</ele>
        <time>2024-06-23T07:54:21Z</time>
      </trkpt>
      <trkpt lat="43.00409" lon="1.13077">
        <ele>383.6</ele>
        <time>2024-06-23T07:54:22Z</time>
      </trkpt>
      <trkpt lat="43.00405" lon="1.13081">
        <ele>383.8</ele>
        <time>2024-06-23T07:54:23Z</time>
      </trkpt>
      <trkpt lat="43.004" lon="1.13083">
        <ele>383.8</ele>
        <time>2024-06-23T07:54:24Z</time>
      </trkpt>
      <trkpt lat="43.00396" lon="1.13088">
        <ele>384.2</ele>
        <time>2024-06-23T07:54:25Z</time>
      </trkpt>
      <trkpt lat="43.00391" lon="1.13091">
        <ele>383.8</ele>
        <time>2024-06-23T07:54:26Z</time>
      </trkpt>
      <trkpt lat="43.00387" lon="1.13096">
        <ele>383.8</ele>
        <time>2024-06-23T07:54:27Z</time>
      </trkpt>
      <trkpt lat="43.00383" lon="1.13101">
        <ele>384.2</ele>
        <time>2024-06-23T07:54:28Z</time>
      </trkpt>
      <trkpt lat="43.00379" lon="1.13106">
        <ele>384.2</ele>
        <time>2024-06-23T07:54:29Z</time>
      </trkpt>
      <trkpt lat="43.00375" lon="1.13111">
        <ele>383.6</ele>
        <time>2024-06-23T07:54:30Z</time>
      </trkpt>
      <trkpt lat="43.00371" lon="1.13115">
        <ele>383.6</ele>
        <time>2024-06-23T07:54:31Z</time>
      </trkpt>
      <trkpt lat="43.00367" lon="1.1312">
        <ele>383.6</ele>
        <time>2024-06-23T07:54:32Z</time>
      </trkpt>
      <trkpt lat="43.00363" lon="1.13126">
        <ele>383.6</ele>
        <time>2024-06-23T07:54:33Z</time>
      </trkpt>
      <trkpt lat="43.00359" lon="1.1313">
        <ele>383</ele>
        <time>2024-06-23T07:54:34Z</time>
      </trkpt>
      <trkpt lat="43.00355" lon="1.13136">
        <ele>382.6</ele>
        <time>2024-06-23T07:54:35Z</time>
      </trkpt>
      <trkpt lat="43.0035" lon="1.13141">
        <ele>382.6</ele>
        <time>2024-06-23T07:54:36Z</time>
      </trkpt>
      <trkpt lat="43.00346" lon="1.13146">
        <ele>382.6</ele>
        <time>2024-06-23T07:54:37Z</time>
      </trkpt>
      <trkpt lat="43.00341" lon="1.13152">
        <ele>382.4</ele>
        <time>2024-06-23T07:54:38Z</time>
      </trkpt>
      <trkpt lat="43.00336" lon="1.13157">
        <ele>382</ele>
        <time>2024-06-23T07:54:39Z</time>
      </trkpt>
      <trkpt lat="43.00332" lon="1.13162">
        <ele>381.8</ele>
        <time>2024-06-23T07:54:40Z</time>
      </trkpt>
      <trkpt lat="43.00327" lon="1.13169">
        <ele>381.8</ele>
        <time>2024-06-23T07:54:41Z</time>
      </trkpt>
      <trkpt lat="43.00321" lon="1.13174">
        <ele>381.8</ele>
        <time>2024-06-23T07:54:42Z</time>
      </trkpt>
      <trkpt lat="43.00316" lon="1.13179">
        <ele>381.4</ele>
        <time>2024-06-23T07:54:43Z</time>
      </trkpt>
      <trkpt lat="43.00312" lon="1.13185">
        <ele>381.4</ele>
        <time>2024-06-23T07:54:44Z</time>
      </trkpt>
      <trkpt lat="43.00308" lon="1.13192">
        <ele>381</ele>
        <time>2024-06-23T07:54:45Z</time>
      </trkpt>
      <trkpt lat="43.00304" lon="1.13198">
        <ele>380.4</ele>
        <time>2024-06-23T07:54:46Z</time>
      </trkpt>
      <trkpt lat="43.003" lon="1.13204">
        <ele>379.8</ele>
        <time>2024-06-23T07:54:47Z</time>
      </trkpt>
      <trkpt lat="43.00297" lon="1.1321">
        <ele>379.8</ele>
        <time>2024-06-23T07:54:48Z</time>
      </trkpt>
      <trkpt lat="43.00293" lon="1.13218">
        <ele>378.8</ele>
        <time>2024-06-23T07:54:49Z</time>
      </trkpt>
      <trkpt lat="43.0029" lon="1.13225">
        <ele>378.4</ele>
        <time>2024-06-23T07:54:50Z</time>
      </trkpt>
      <trkpt lat="43.00285" lon="1.1323">
        <ele>378.2</ele>
        <time>2024-06-23T07:54:51Z</time>
      </trkpt>
      <trkpt lat="43.0028" lon="1.13234">
        <ele>378.2</ele>
        <time>2024-06-23T07:54:52Z</time>
      </trkpt>
      <trkpt lat="43.00275" lon="1.13239">
        <ele>377.8</ele>
        <time>2024-06-23T07:54:53Z</time>
      </trkpt>
      <trkpt lat="43.0027" lon="1.13244">
        <ele>377.8</ele>
        <time>2024-06-23T07:54:54Z</time>
      </trkpt>
      <trkpt lat="43.00265" lon="1.1325">
        <ele>377.8</ele>
        <time>2024-06-23T07:54:55Z</time>
      </trkpt>
      <trkpt lat="43.00261" lon="1.13255">
        <ele>377.8</ele>
        <time>2024-06-23T07:54:56Z</time>
      </trkpt>
      <trkpt lat="43.00256" lon="1.1326">
        <ele>378</ele>
        <time>2024-06-23T07:54:57Z</time>
      </trkpt>
      <trkpt lat="43.00252" lon="1.13266">
        <ele>378</ele>
        <time>2024-06-23T07:54:58Z</time>
      </trkpt>
      <trkpt lat="43.00247" lon="1.1327">
        <ele>378</ele>
        <time>2024-06-23T07:54:59Z</time>
      </trkpt>
      <trkpt lat="43.00242" lon="1.13276">
        <ele>378</ele>
        <time>2024-06-23T07:55:00Z</time>
      </trkpt>
      <trkpt lat="43.00238" lon="1.1328">
        <ele>378</ele>
        <time>2024-06-23T07:55:01Z</time>
      </trkpt>
      <trkpt lat="43.00234" lon="1.13285">
        <ele>378.2</ele>
        <time>2024-06-23T07:55:02Z</time>
      </trkpt>
      <trkpt lat="43.0023" lon="1.1329">
        <ele>378.2</ele>
        <time>2024-06-23T07:55:03Z</time>
      </trkpt>
      <trkpt lat="43.00225" lon="1.13295">
        <ele>378.2</ele>
        <time>2024-06-23T07:55:04Z</time>
      </trkpt>
      <trkpt lat="43.00221" lon="1.133">
        <ele>378.2</ele>
        <time>2024-06-23T07:55:05Z</time>
      </trkpt>
      <trkpt lat="43.00217" lon="1.13305">
        <ele>378.6</ele>
        <time>2024-06-23T07:55:06Z</time>
      </trkpt>
      <trkpt lat="43.00213" lon="1.13309">
        <ele>378.6</ele>
        <time>2024-06-23T07:55:07Z</time>
      </trkpt>
      <trkpt lat="43.00209" lon="1.13313">
        <ele>378.8</ele>
        <time>2024-06-23T07:55:08Z</time>
      </trkpt>
      <trkpt lat="43.00205" lon="1.13318">
        <ele>378.8</ele>
        <time>2024-06-23T07:55:09Z</time>
      </trkpt>
      <trkpt lat="43.00201" lon="1.13324">
        <ele>378.8</ele>
        <time>2024-06-23T07:55:10Z</time>
      </trkpt>
      <trkpt lat="43.00198" lon="1.13329">
        <ele>379.2</ele>
        <time>2024-06-23T07:55:11Z</time>
      </trkpt>
      <trkpt lat="43.00194" lon="1.13335">
        <ele>379.4</ele>
        <time>2024-06-23T07:55:12Z</time>
      </trkpt>
      <trkpt lat="43.00191" lon="1.13341">
        <ele>379.6</ele>
        <time>2024-06-23T07:55:13Z</time>
      </trkpt>
      <trkpt lat="43.00188" lon="1.13346">
        <ele>379.6</ele>
        <time>2024-06-23T07:55:14Z</time>
      </trkpt>
      <trkpt lat="43.00184" lon="1.1335">
        <ele>379.6</ele>
        <time>2024-06-23T07:55:15Z</time>
      </trkpt>
      <trkpt lat="43.0018" lon="1.13355">
        <ele>379.8</ele>
        <time>2024-06-23T07:55:16Z</time>
      </trkpt>
      <trkpt lat="43.00176" lon="1.13359">
        <ele>379.8</ele>
        <time>2024-06-23T07:55:17Z</time>
      </trkpt>
      <trkpt lat="43.00172" lon="1.13364">
        <ele>380</ele>
        <time>2024-06-23T07:55:18Z</time>
      </trkpt>
      <trkpt lat="43.00168" lon="1.13367">
        <ele>380</ele>
        <time>2024-06-23T07:55:19Z</time>
      </trkpt>
      <trkpt lat="43.00164" lon="1.13371">
        <ele>380.4</ele>
        <time>2024-06-23T07:55:20Z</time>
      </trkpt>
      <trkpt lat="43.0016" lon="1.13375">
        <ele>380.4</ele>
        <time>2024-06-23T07:55:21Z</time>
      </trkpt>
      <trkpt lat="43.00155" lon="1.13378">
        <ele>380.6</ele>
        <time>2024-06-23T07:55:22Z</time>
      </trkpt>
      <trkpt lat="43.00151" lon="1.13381">
        <ele>380.6</ele>
        <time>2024-06-23T07:55:23Z</time>
      </trkpt>
      <trkpt lat="43.00147" lon="1.13384">
        <ele>380.6</ele>
        <time>2024-06-23T07:55:24Z</time>
      </trkpt>
      <trkpt lat="43.00147" lon="1.13384">
        <ele>381.2</ele>
        <time>2024-06-23T07:55:25Z</time>
      </trkpt>
      <trkpt lat="43.00142" lon="1.13387">
        <ele>381.4</ele>
        <time>2024-06-23T07:55:26Z</time>
      </trkpt>
      <trkpt lat="43.00138" lon="1.1339">
        <ele>381.8</ele>
        <time>2024-06-23T07:55:27Z</time>
      </trkpt>
      <trkpt lat="43.00134" lon="1.13393">
        <ele>382.2</ele>
        <time>2024-06-23T07:55:28Z</time>
      </trkpt>
      <trkpt lat="43.00129" lon="1.13396">
        <ele>382.2</ele>
        <time>2024-06-23T07:55:29Z</time>
      </trkpt>
      <trkpt lat="43.00125" lon="1.13399">
        <ele>382.4</ele>
        <time>2024-06-23T07:55:30Z</time>
      </trkpt>
      <trkpt lat="43.0012" lon="1.13402">
        <ele>382.4</ele>
        <time>2024-06-23T07:55:31Z</time>
      </trkpt>
      <trkpt lat="43.00116" lon="1.13405">
        <ele>382.6</ele>
        <time>2024-06-23T07:55:32Z</time>
      </trkpt>
      <trkpt lat="43.00111" lon="1.13407">
        <ele>382.6</ele>
        <time>2024-06-23T07:55:33Z</time>
      </trkpt>
      <trkpt lat="43.00107" lon="1.13409">
        <ele>383</ele>
        <time>2024-06-23T07:55:34Z</time>
      </trkpt>
      <trkpt lat="43.00103" lon="1.13412">
        <ele>383.2</ele>
        <time>2024-06-23T07:55:35Z</time>
      </trkpt>
      <trkpt lat="43.00098" lon="1.13414">
        <ele>383.2</ele>
        <time>2024-06-23T07:55:36Z</time>
      </trkpt>
      <trkpt lat="43.00094" lon="1.13416">
        <ele>383.6</ele>
        <time>2024-06-23T07:55:37Z</time>
      </trkpt>
      <trkpt lat="43.00089" lon="1.13419">
        <ele>383.6</ele>
        <time>2024-06-23T07:55:38Z</time>
      </trkpt>
      <trkpt lat="43.00085" lon="1.1342">
        <ele>384</ele>
        <time>2024-06-23T07:55:39Z</time>
      </trkpt>
      <trkpt lat="43.00081" lon="1.13423">
        <ele>384</ele>
        <time>2024-06-23T07:55:40Z</time>
      </trkpt>
      <trkpt lat="43.00077" lon="1.13423">
        <ele>384</ele>
        <time>2024-06-23T07:55:41Z</time>
      </trkpt>
      <trkpt lat="43.00073" lon="1.13424">
        <ele>384.2</ele>
        <time>2024-06-23T07:55:42Z</time>
      </trkpt>
      <trkpt lat="43.00069" lon="1.13425">
        <ele>384.6</ele>
        <time>2024-06-23T07:55:43Z</time>
      </trkpt>
      <trkpt lat="43.00066" lon="1.13426">
        <ele>384.6</ele>
        <time>2024-06-23T07:55:44Z</time>
      </trkpt>
      <trkpt lat="43.00062" lon="1.13428">
        <ele>384.8</ele>
        <time>2024-06-23T07:55:45Z</time>
      </trkpt>
      <trkpt lat="43.00058" lon="1.13429">
        <ele>384.8</ele>
        <time>2024-06-23T07:55:46Z</time>
      </trkpt>
      <trkpt lat="43.00054" lon="1.13431">
        <ele>384.8</ele>
        <time>2024-06-23T07:55:47Z</time>
      </trkpt>
      <trkpt lat="43.0005" lon="1.13432">
        <ele>384.8</ele>
        <time>2024-06-23T07:55:48Z</time>
      </trkpt>
      <trkpt lat="43.00047" lon="1.13433">
        <ele>384.8</ele>
        <time>2024-06-23T07:55:49Z</time>
      </trkpt>
      <trkpt lat="43.00044" lon="1.13434">
        <ele>384.8</ele>
        <time>2024-06-23T07:55:50Z</time>
      </trkpt>
      <trkpt lat="43.00041" lon="1.13435">
        <ele>384.8</ele>
        <time>2024-06-23T07:55:51Z</time>
      </trkpt>
      <trkpt lat="43.00038" lon="1.13437">
        <ele>384.8</ele>
        <time>2024-06-23T07:55:52Z</time>
      </trkpt>
      <trkpt lat="43.00035" lon="1.13438">
        <ele>384.8</ele>
        <time>2024-06-23T07:55:53Z</time>
      </trkpt>
      <trkpt lat="43.00033" lon="1.13439">
        <ele>384.8</ele>
        <time>2024-06-23T07:55:54Z</time>
      </trkpt>
      <trkpt lat="43.00031" lon="1.13441">
        <ele>384.8</ele>
        <time>2024-06-23T07:55:55Z</time>
      </trkpt>
      <trkpt lat="43.0003" lon="1.13445">
        <ele>385</ele>
        <time>2024-06-23T07:55:56Z</time>
      </trkpt>
      <trkpt lat="43.00029" lon="1.13448">
        <ele>385</ele>
        <time>2024-06-23T07:55:57Z</time>
      </trkpt>
      <trkpt lat="43.0003" lon="1.13452">
        <ele>385</ele>
        <time>2024-06-23T07:55:58Z</time>
      </trkpt>
      <trkpt lat="43.00032" lon="1.13456">
        <ele>385</ele>
        <time>2024-06-23T07:55:59Z</time>
      </trkpt>
      <trkpt lat="43.00033" lon="1.1346">
        <ele>385.4</ele>
        <time>2024-06-23T07:56:00Z</time>
      </trkpt>
      <trkpt lat="43.00035" lon="1.13464">
        <ele>385.6</ele>
        <time>2024-06-23T07:56:01Z</time>
      </trkpt>
      <trkpt lat="43.00036" lon="1.13468">
        <ele>385.6</ele>
        <time>2024-06-23T07:56:02Z</time>
      </trkpt>
      <trkpt lat="43.00037" lon="1.13471">
        <ele>385.6</ele>
        <time>2024-06-23T07:56:03Z</time>
      </trkpt>
      <trkpt lat="43.00038" lon="1.13475">
        <ele>386</ele>
        <time>2024-06-23T07:56:04Z</time>
      </trkpt>
      <trkpt lat="43.00039" lon="1.13478">
        <ele>386.2</ele>
        <time>2024-06-23T07:56:05Z</time>
      </trkpt>
      <trkpt lat="43.00041" lon="1.13483">
        <ele>386.2</ele>
        <time>2024-06-23T07:56:06Z</time>
      </trkpt>
      <trkpt lat="43.00042" lon="1.13487">
        <ele>386.2</ele>
        <time>2024-06-23T07:56:07Z</time>
      </trkpt>
      <trkpt lat="43.00043" lon="1.1349">
        <ele>386.2</ele>
        <time>2024-06-23T07:56:08Z</time>
      </trkpt>
      <trkpt lat="43.00044" lon="1.13492">
        <ele>386</ele>
        <time>2024-06-23T07:56:09Z</time>
      </trkpt>
      <trkpt lat="43.00045" lon="1.13493">
        <ele>386</ele>
        <time>2024-06-23T07:56:10Z</time>
      </trkpt>
      <trkpt lat="43.00046" lon="1.13494">
        <ele>386</ele>
        <time>2024-06-23T07:56:11Z</time>
      </trkpt>
      <trkpt lat="43.00047" lon="1.13495">
        <ele>385.8</ele>
        <time>2024-06-23T07:56:12Z</time>
      </trkpt>
      <trkpt lat="43.00047" lon="1.13496">
        <ele>385.8</ele>
        <time>2024-06-23T07:56:13Z</time>
      </trkpt>
      <trkpt lat="43.00048" lon="1.13496">
        <ele>385.8</ele>
        <time>2024-06-23T07:56:14Z</time>
      </trkpt>
      <trkpt lat="43.00047" lon="1.13498">
        <ele>385.6</ele>
        <time>2024-06-23T07:56:15Z</time>
      </trkpt>
      <trkpt lat="43.00047" lon="1.13501">
        <ele>385.6</ele>
        <time>2024-06-23T07:56:16Z</time>
      </trkpt>
      <trkpt lat="43.00046" lon="1.13504">
        <ele>385.6</ele>
        <time>2024-06-23T07:56:17Z</time>
      </trkpt>
      <trkpt lat="43.00044" lon="1.13507">
        <ele>385.6</ele>
        <time>2024-06-23T07:56:18Z</time>
      </trkpt>
      <trkpt lat="43.00042" lon="1.1351">
        <ele>385.6</ele>
        <time>2024-06-23T07:56:19Z</time>
      </trkpt>
      <trkpt lat="43.0004" lon="1.13514">
        <ele>385.6</ele>
        <time>2024-06-23T07:56:20Z</time>
      </trkpt>
      <trkpt lat="43.00038" lon="1.13518">
        <ele>385.6</ele>
        <time>2024-06-23T07:56:21Z</time>
      </trkpt>
      <trkpt lat="43.00036" lon="1.13522">
        <ele>385.6</ele>
        <time>2024-06-23T07:56:22Z</time>
      </trkpt>
      <trkpt lat="43.00035" lon="1.13526">
        <ele>385.6</ele>
        <time>2024-06-23T07:56:23Z</time>
      </trkpt>
      <trkpt lat="43.00033" lon="1.13531">
        <ele>385.6</ele>
        <time>2024-06-23T07:56:24Z</time>
      </trkpt>
      <trkpt lat="43.00032" lon="1.13535">
        <ele>385.6</ele>
        <time>2024-06-23T07:56:25Z</time>
      </trkpt>
      <trkpt lat="43.00031" lon="1.13539">
        <ele>386.2</ele>
        <time>2024-06-23T07:56:26Z</time>
      </trkpt>
      <trkpt lat="43.0003" lon="1.13542">
        <ele>386.4</ele>
        <time>2024-06-23T07:56:27Z</time>
      </trkpt>
      <trkpt lat="43.00028" lon="1.13546">
        <ele>386.6</ele>
        <time>2024-06-23T07:56:28Z</time>
      </trkpt>
      <trkpt lat="43.00026" lon="1.1355">
        <ele>386.8</ele>
        <time>2024-06-23T07:56:29Z</time>
      </trkpt>
      <trkpt lat="43.00025" lon="1.13554">
        <ele>387.2</ele>
        <time>2024-06-23T07:56:30Z</time>
      </trkpt>
      <trkpt lat="43.00024" lon="1.13557">
        <ele>387.6</ele>
        <time>2024-06-23T07:56:31Z</time>
      </trkpt>
      <trkpt lat="43.00023" lon="1.1356">
        <ele>388</ele>
        <time>2024-06-23T07:56:32Z</time>
      </trkpt>
      <trkpt lat="43.00022" lon="1.13564">
        <ele>388.2</ele>
        <time>2024-06-23T07:56:33Z</time>
      </trkpt>
      <trkpt lat="43.00021" lon="1.13568">
        <ele>388.2</ele>
        <time>2024-06-23T07:56:34Z</time>
      </trkpt>
      <trkpt lat="43.00019" lon="1.13572">
        <ele>388.6</ele>
        <time>2024-06-23T07:56:35Z</time>
      </trkpt>
      <trkpt lat="43.00018" lon="1.13576">
        <ele>388.6</ele>
        <time>2024-06-23T07:56:36Z</time>
      </trkpt>
      <trkpt lat="43.00017" lon="1.1358">
        <ele>389.4</ele>
        <time>2024-06-23T07:56:37Z</time>
      </trkpt>
      <trkpt lat="43.00016" lon="1.13584">
        <ele>389.8</ele>
        <time>2024-06-23T07:56:38Z</time>
      </trkpt>
      <trkpt lat="43.00015" lon="1.13588">
        <ele>390.2</ele>
        <time>2024-06-23T07:56:39Z</time>
      </trkpt>
      <trkpt lat="43.00014" lon="1.13591">
        <ele>390.6</ele>
        <time>2024-06-23T07:56:40Z</time>
      </trkpt>
      <trkpt lat="43.00014" lon="1.13595">
        <ele>391</ele>
        <time>2024-06-23T07:56:41Z</time>
      </trkpt>
      <trkpt lat="43.00013" lon="1.13599">
        <ele>391.2</ele>
        <time>2024-06-23T07:56:42Z</time>
      </trkpt>
      <trkpt lat="43.00013" lon="1.13603">
        <ele>391.6</ele>
        <time>2024-06-23T07:56:43Z</time>
      </trkpt>
      <trkpt lat="43.00013" lon="1.13606">
        <ele>392</ele>
        <time>2024-06-23T07:56:44Z</time>
      </trkpt>
      <trkpt lat="43.00013" lon="1.13609">
        <ele>392.2</ele>
        <time>2024-06-23T07:56:45Z</time>
      </trkpt>
      <trkpt lat="43.00013" lon="1.13612">
        <ele>392.6</ele>
        <time>2024-06-23T07:56:46Z</time>
      </trkpt>
      <trkpt lat="43.00012" lon="1.13614">
        <ele>393.2</ele>
        <time>2024-06-23T07:56:47Z</time>
      </trkpt>
      <trkpt lat="43.00011" lon="1.13617">
        <ele>393.4</ele>
        <time>2024-06-23T07:56:48Z</time>
      </trkpt>
      <trkpt lat="43.0001" lon="1.1362">
        <ele>393.6</ele>
        <time>2024-06-23T07:56:49Z</time>
      </trkpt>
      <trkpt lat="43.00009" lon="1.13622">
        <ele>393.8</ele>
        <time>2024-06-23T07:56:50Z</time>
      </trkpt>
      <trkpt lat="43.00008" lon="1.13624">
        <ele>393.8</ele>
        <time>2024-06-23T07:56:51Z</time>
      </trkpt>
      <trkpt lat="43.00006" lon="1.13627">
        <ele>393.8</ele>
        <time>2024-06-23T07:56:52Z</time>
      </trkpt>
      <trkpt lat="43.00004" lon="1.13633">
        <ele>394.4</ele>
        <time>2024-06-23T07:56:53Z</time>
      </trkpt>
      <trkpt lat="43.00003" lon="1.13635">
        <ele>394.4</ele>
        <time>2024-06-23T07:56:54Z</time>
      </trkpt>
      <trkpt lat="43.00002" lon="1.13639">
        <ele>394.8</ele>
        <time>2024-06-23T07:56:55Z</time>
      </trkpt>
      <trkpt lat="43.00001" lon="1.13642">
        <ele>395.4</ele>
        <time>2024-06-23T07:56:56Z</time>
      </trkpt>
      <trkpt lat="43" lon="1.13644">
        <ele>395.4</ele>
        <time>2024-06-23T07:56:57Z</time>
      </trkpt>
      <trkpt lat="42.99999" lon="1.13647">
        <ele>395.8</ele>
        <time>2024-06-23T07:56:58Z</time>
      </trkpt>
      <trkpt lat="42.99997" lon="1.1365">
        <ele>396.2</ele>
        <time>2024-06-23T07:56:59Z</time>
      </trkpt>
      <trkpt lat="42.99995" lon="1.13654">
        <ele>396.6</ele>
        <time>2024-06-23T07:57:00Z</time>
      </trkpt>
      <trkpt lat="42.99994" lon="1.13657">
        <ele>397</ele>
        <time>2024-06-23T07:57:01Z</time>
      </trkpt>
      <trkpt lat="42.99993" lon="1.1366">
        <ele>397.6</ele>
        <time>2024-06-23T07:57:02Z</time>
      </trkpt>
      <trkpt lat="42.99992" lon="1.13664">
        <ele>397.8</ele>
        <time>2024-06-23T07:57:03Z</time>
      </trkpt>
      <trkpt lat="42.99991" lon="1.13667">
        <ele>398</ele>
        <time>2024-06-23T07:57:04Z</time>
      </trkpt>
      <trkpt lat="42.9999" lon="1.13671">
        <ele>398.4</ele>
        <time>2024-06-23T07:57:05Z</time>
      </trkpt>
      <trkpt lat="42.99988" lon="1.13673">
        <ele>398.6</ele>
        <time>2024-06-23T07:57:06Z</time>
      </trkpt>
      <trkpt lat="42.99987" lon="1.13676">
        <ele>399</ele>
        <time>2024-06-23T07:57:07Z</time>
      </trkpt>
      <trkpt lat="42.99986" lon="1.13678">
        <ele>399.4</ele>
        <time>2024-06-23T07:57:08Z</time>
      </trkpt>
      <trkpt lat="42.99984" lon="1.13681">
        <ele>399.6</ele>
        <time>2024-06-23T07:57:09Z</time>
      </trkpt>
      <trkpt lat="42.99983" lon="1.13683">
        <ele>400</ele>
        <time>2024-06-23T07:57:10Z</time>
      </trkpt>
      <trkpt lat="42.99982" lon="1.13685">
        <ele>400.4</ele>
        <time>2024-06-23T07:57:11Z</time>
      </trkpt>
      <trkpt lat="42.9998" lon="1.13688">
        <ele>400.6</ele>
        <time>2024-06-23T07:57:12Z</time>
      </trkpt>
      <trkpt lat="42.99979" lon="1.13692">
        <ele>401</ele>
        <time>2024-06-23T07:57:13Z</time>
      </trkpt>
      <trkpt lat="42.99977" lon="1.13694">
        <ele>401.2</ele>
        <time>2024-06-23T07:57:14Z</time>
      </trkpt>
      <trkpt lat="42.99976" lon="1.13698">
        <ele>401.4</ele>
        <time>2024-06-23T07:57:15Z</time>
      </trkpt>
      <trkpt lat="42.99975" lon="1.13701">
        <ele>401.8</ele>
        <time>2024-06-23T07:57:16Z</time>
      </trkpt>
      <trkpt lat="42.99975" lon="1.13704">
        <ele>402</ele>
        <time>2024-06-23T07:57:17Z</time>
      </trkpt>
      <trkpt lat="42.99976" lon="1.13707">
        <ele>402.4</ele>
        <time>2024-06-23T07:57:18Z</time>
      </trkpt>
      <trkpt lat="42.99977" lon="1.13711">
        <ele>402.6</ele>
        <time>2024-06-23T07:57:19Z</time>
      </trkpt>
      <trkpt lat="42.99979" lon="1.13714">
        <ele>403</ele>
        <time>2024-06-23T07:57:20Z</time>
      </trkpt>
      <trkpt lat="42.9998" lon="1.13716">
        <ele>403.2</ele>
        <time>2024-06-23T07:57:21Z</time>
      </trkpt>
      <trkpt lat="42.99981" lon="1.13719">
        <ele>403.6</ele>
        <time>2024-06-23T07:57:22Z</time>
      </trkpt>
      <trkpt lat="42.99983" lon="1.13722">
        <ele>403.8</ele>
        <time>2024-06-23T07:57:23Z</time>
      </trkpt>
      <trkpt lat="42.99984" lon="1.13725">
        <ele>404</ele>
        <time>2024-06-23T07:57:24Z</time>
      </trkpt>
      <trkpt lat="42.99985" lon="1.13728">
        <ele>404.4</ele>
        <time>2024-06-23T07:57:25Z</time>
      </trkpt>
      <trkpt lat="42.99986" lon="1.13732">
        <ele>404.6</ele>
        <time>2024-06-23T07:57:26Z</time>
      </trkpt>
      <trkpt lat="42.99988" lon="1.13735">
        <ele>405</ele>
        <time>2024-06-23T07:57:27Z</time>
      </trkpt>
      <trkpt lat="42.99989" lon="1.13738">
        <ele>405.4</ele>
        <time>2024-06-23T07:57:28Z</time>
      </trkpt>
      <trkpt lat="42.9999" lon="1.13742">
        <ele>405.4</ele>
        <time>2024-06-23T07:57:29Z</time>
      </trkpt>
      <trkpt lat="42.9999" lon="1.13746">
        <ele>405.8</ele>
        <time>2024-06-23T07:57:30Z</time>
      </trkpt>
      <trkpt lat="42.99989" lon="1.13749">
        <ele>405.8</ele>
        <time>2024-06-23T07:57:31Z</time>
      </trkpt>
      <trkpt lat="42.99987" lon="1.13751">
        <ele>406.2</ele>
        <time>2024-06-23T07:57:32Z</time>
      </trkpt>
      <trkpt lat="42.99985" lon="1.13754">
        <ele>406.2</ele>
        <time>2024-06-23T07:57:33Z</time>
      </trkpt>
      <trkpt lat="42.99983" lon="1.13756">
        <ele>406.6</ele>
        <time>2024-06-23T07:57:34Z</time>
      </trkpt>
      <trkpt lat="42.9998" lon="1.13759">
        <ele>407</ele>
        <time>2024-06-23T07:57:35Z</time>
      </trkpt>
      <trkpt lat="42.99976" lon="1.13761">
        <ele>407</ele>
        <time>2024-06-23T07:57:36Z</time>
      </trkpt>
      <trkpt lat="42.99973" lon="1.13763">
        <ele>407.6</ele>
        <time>2024-06-23T07:57:37Z</time>
      </trkpt>
      <trkpt lat="42.9997" lon="1.13764">
        <ele>407.8</ele>
        <time>2024-06-23T07:57:38Z</time>
      </trkpt>
      <trkpt lat="42.99967" lon="1.13766">
        <ele>408</ele>
        <time>2024-06-23T07:57:39Z</time>
      </trkpt>
      <trkpt lat="42.99964" lon="1.13768">
        <ele>408.4</ele>
        <time>2024-06-23T07:57:40Z</time>
      </trkpt>
      <trkpt lat="42.99961" lon="1.13769">
        <ele>408.6</ele>
        <time>2024-06-23T07:57:41Z</time>
      </trkpt>
      <trkpt lat="42.99958" lon="1.13771">
        <ele>409</ele>
        <time>2024-06-23T07:57:42Z</time>
      </trkpt>
      <trkpt lat="42.99955" lon="1.13773">
        <ele>409.2</ele>
        <time>2024-06-23T07:57:43Z</time>
      </trkpt>
      <trkpt lat="42.99953" lon="1.13774">
        <ele>409.2</ele>
        <time>2024-06-23T07:57:44Z</time>
      </trkpt>
      <trkpt lat="42.9995" lon="1.13776">
        <ele>409.4</ele>
        <time>2024-06-23T07:57:45Z</time>
      </trkpt>
      <trkpt lat="42.99947" lon="1.13777">
        <ele>409.4</ele>
        <time>2024-06-23T07:57:46Z</time>
      </trkpt>
      <trkpt lat="42.99943" lon="1.13779">
        <ele>409.8</ele>
        <time>2024-06-23T07:57:47Z</time>
      </trkpt>
      <trkpt lat="42.9994" lon="1.13781">
        <ele>409.8</ele>
        <time>2024-06-23T07:57:48Z</time>
      </trkpt>
      <trkpt lat="42.99936" lon="1.13783">
        <ele>409.8</ele>
        <time>2024-06-23T07:57:49Z</time>
      </trkpt>
      <trkpt lat="42.99931" lon="1.13785">
        <ele>409.8</ele>
        <time>2024-06-23T07:57:50Z</time>
      </trkpt>
      <trkpt lat="42.99927" lon="1.13787">
        <ele>409.8</ele>
        <time>2024-06-23T07:57:51Z</time>
      </trkpt>
      <trkpt lat="42.99924" lon="1.1379">
        <ele>409.8</ele>
        <time>2024-06-23T07:57:52Z</time>
      </trkpt>
      <trkpt lat="42.9992" lon="1.13792">
        <ele>410</ele>
        <time>2024-06-23T07:57:53Z</time>
      </trkpt>
      <trkpt lat="42.99916" lon="1.13793">
        <ele>410</ele>
        <time>2024-06-23T07:57:54Z</time>
      </trkpt>
      <trkpt lat="42.99911" lon="1.13795">
        <ele>410</ele>
        <time>2024-06-23T07:57:55Z</time>
      </trkpt>
      <trkpt lat="42.99907" lon="1.13796">
        <ele>410</ele>
        <time>2024-06-23T07:57:56Z</time>
      </trkpt>
      <trkpt lat="42.99902" lon="1.13798">
        <ele>410</ele>
        <time>2024-06-23T07:57:57Z</time>
      </trkpt>
      <trkpt lat="42.99898" lon="1.138">
        <ele>410</ele>
        <time>2024-06-23T07:57:58Z</time>
      </trkpt>
      <trkpt lat="42.99893" lon="1.13802">
        <ele>410</ele>
        <time>2024-06-23T07:57:59Z</time>
      </trkpt>
      <trkpt lat="42.99888" lon="1.13804">
        <ele>410</ele>
        <time>2024-06-23T07:58:00Z</time>
      </trkpt>
      <trkpt lat="42.99883" lon="1.13806">
        <ele>410</ele>
        <time>2024-06-23T07:58:01Z</time>
      </trkpt>
      <trkpt lat="42.99878" lon="1.13808">
        <ele>410.4</ele>
        <time>2024-06-23T07:58:02Z</time>
      </trkpt>
      <trkpt lat="42.99874" lon="1.1381">
        <ele>410.4</ele>
        <time>2024-06-23T07:58:03Z</time>
      </trkpt>
      <trkpt lat="42.99869" lon="1.13812">
        <ele>410.4</ele>
        <time>2024-06-23T07:58:04Z</time>
      </trkpt>
      <trkpt lat="42.99865" lon="1.13815">
        <ele>410.4</ele>
        <time>2024-06-23T07:58:05Z</time>
      </trkpt>
      <trkpt lat="42.9986" lon="1.13817">
        <ele>410.4</ele>
        <time>2024-06-23T07:58:06Z</time>
      </trkpt>
      <trkpt lat="42.99855" lon="1.1382">
        <ele>410.4</ele>
        <time>2024-06-23T07:58:07Z</time>
      </trkpt>
      <trkpt lat="42.9985" lon="1.13822">
        <ele>410.4</ele>
        <time>2024-06-23T07:58:08Z</time>
      </trkpt>
      <trkpt lat="42.99846" lon="1.13823">
        <ele>410.4</ele>
        <time>2024-06-23T07:58:09Z</time>
      </trkpt>
      <trkpt lat="42.99841" lon="1.13826">
        <ele>410.6</ele>
        <time>2024-06-23T07:58:10Z</time>
      </trkpt>
      <trkpt lat="42.99837" lon="1.13828">
        <ele>410.6</ele>
        <time>2024-06-23T07:58:11Z</time>
      </trkpt>
      <trkpt lat="42.99832" lon="1.13831">
        <ele>410.6</ele>
        <time>2024-06-23T07:58:12Z</time>
      </trkpt>
      <trkpt lat="42.99828" lon="1.13833">
        <ele>410.6</ele>
        <time>2024-06-23T07:58:13Z</time>
      </trkpt>
      <trkpt lat="42.99823" lon="1.13835">
        <ele>410.6</ele>
        <time>2024-06-23T07:58:14Z</time>
      </trkpt>
      <trkpt lat="42.99819" lon="1.13838">
        <ele>410.8</ele>
        <time>2024-06-23T07:58:15Z</time>
      </trkpt>
      <trkpt lat="42.99815" lon="1.1384">
        <ele>410.8</ele>
        <time>2024-06-23T07:58:16Z</time>
      </trkpt>
      <trkpt lat="42.9981" lon="1.13842">
        <ele>410.8</ele>
        <time>2024-06-23T07:58:17Z</time>
      </trkpt>
      <trkpt lat="42.99806" lon="1.13844">
        <ele>410.8</ele>
        <time>2024-06-23T07:58:18Z</time>
      </trkpt>
      <trkpt lat="42.99801" lon="1.13846">
        <ele>411</ele>
        <time>2024-06-23T07:58:19Z</time>
      </trkpt>
      <trkpt lat="42.99797" lon="1.13848">
        <ele>411</ele>
        <time>2024-06-23T07:58:20Z</time>
      </trkpt>
      <trkpt lat="42.99792" lon="1.13851">
        <ele>411</ele>
        <time>2024-06-23T07:58:21Z</time>
      </trkpt>
      <trkpt lat="42.99788" lon="1.13853">
        <ele>411</ele>
        <time>2024-06-23T07:58:22Z</time>
      </trkpt>
      <trkpt lat="42.99783" lon="1.13856">
        <ele>411.4</ele>
        <time>2024-06-23T07:58:23Z</time>
      </trkpt>
      <trkpt lat="42.99779" lon="1.13858">
        <ele>411.4</ele>
        <time>2024-06-23T07:58:24Z</time>
      </trkpt>
      <trkpt lat="42.99774" lon="1.13859">
        <ele>411.4</ele>
        <time>2024-06-23T07:58:25Z</time>
      </trkpt>
      <trkpt lat="42.9977" lon="1.13861">
        <ele>411.4</ele>
        <time>2024-06-23T07:58:26Z</time>
      </trkpt>
      <trkpt lat="42.99765" lon="1.13864">
        <ele>411.4</ele>
        <time>2024-06-23T07:58:27Z</time>
      </trkpt>
      <trkpt lat="42.99761" lon="1.13866">
        <ele>411.6</ele>
        <time>2024-06-23T07:58:28Z</time>
      </trkpt>
      <trkpt lat="42.99756" lon="1.13868">
        <ele>411.6</ele>
        <time>2024-06-23T07:58:29Z</time>
      </trkpt>
      <trkpt lat="42.99751" lon="1.1387">
        <ele>411.6</ele>
        <time>2024-06-23T07:58:30Z</time>
      </trkpt>
      <trkpt lat="42.99746" lon="1.13873">
        <ele>411.6</ele>
        <time>2024-06-23T07:58:31Z</time>
      </trkpt>
      <trkpt lat="42.99741" lon="1.13875">
        <ele>411.6</ele>
        <time>2024-06-23T07:58:32Z</time>
      </trkpt>
      <trkpt lat="42.99736" lon="1.13876">
        <ele>411.6</ele>
        <time>2024-06-23T07:58:33Z</time>
      </trkpt>
      <trkpt lat="42.99731" lon="1.13878">
        <ele>411.6</ele>
        <time>2024-06-23T07:58:34Z</time>
      </trkpt>
      <trkpt lat="42.99726" lon="1.1388">
        <ele>411.6</ele>
        <time>2024-06-23T07:58:35Z</time>
      </trkpt>
      <trkpt lat="42.99721" lon="1.13882">
        <ele>411.6</ele>
        <time>2024-06-23T07:58:36Z</time>
      </trkpt>
      <trkpt lat="42.99716" lon="1.13884">
        <ele>411.6</ele>
        <time>2024-06-23T07:58:37Z</time>
      </trkpt>
      <trkpt lat="42.99711" lon="1.13885">
        <ele>411.6</ele>
        <time>2024-06-23T07:58:38Z</time>
      </trkpt>
      <trkpt lat="42.99706" lon="1.13886">
        <ele>411.6</ele>
        <time>2024-06-23T07:58:39Z</time>
      </trkpt>
      <trkpt lat="42.997" lon="1.13887">
        <ele>411.4</ele>
        <time>2024-06-23T07:58:40Z</time>
      </trkpt>
      <trkpt lat="42.99694" lon="1.13887">
        <ele>411.2</ele>
        <time>2024-06-23T07:58:41Z</time>
      </trkpt>
      <trkpt lat="42.99689" lon="1.13888">
        <ele>411.2</ele>
        <time>2024-06-23T07:58:42Z</time>
      </trkpt>
      <trkpt lat="42.99683" lon="1.13889">
        <ele>411</ele>
        <time>2024-06-23T07:58:43Z</time>
      </trkpt>
      <trkpt lat="42.99677" lon="1.1389">
        <ele>411</ele>
        <time>2024-06-23T07:58:44Z</time>
      </trkpt>
      <trkpt lat="42.99671" lon="1.13891">
        <ele>410.6</ele>
        <time>2024-06-23T07:58:45Z</time>
      </trkpt>
      <trkpt lat="42.99665" lon="1.13891">
        <ele>410.2</ele>
        <time>2024-06-23T07:58:46Z</time>
      </trkpt>
      <trkpt lat="42.99658" lon="1.13892">
        <ele>410</ele>
        <time>2024-06-23T07:58:47Z</time>
      </trkpt>
      <trkpt lat="42.99652" lon="1.13893">
        <ele>409.8</ele>
        <time>2024-06-23T07:58:48Z</time>
      </trkpt>
      <trkpt lat="42.99646" lon="1.13893">
        <ele>409.6</ele>
        <time>2024-06-23T07:58:49Z</time>
      </trkpt>
      <trkpt lat="42.99639" lon="1.13895">
        <ele>409.2</ele>
        <time>2024-06-23T07:58:50Z</time>
      </trkpt>
      <trkpt lat="42.99632" lon="1.13896">
        <ele>409</ele>
        <time>2024-06-23T07:58:51Z</time>
      </trkpt>
      <trkpt lat="42.99626" lon="1.13898">
        <ele>409</ele>
        <time>2024-06-23T07:58:52Z</time>
      </trkpt>
      <trkpt lat="42.99619" lon="1.13901">
        <ele>408.6</ele>
        <time>2024-06-23T07:58:53Z</time>
      </trkpt>
      <trkpt lat="42.99612" lon="1.13905">
        <ele>408.4</ele>
        <time>2024-06-23T07:58:54Z</time>
      </trkpt>
      <trkpt lat="42.99605" lon="1.13908">
        <ele>408</ele>
        <time>2024-06-23T07:58:55Z</time>
      </trkpt>
      <trkpt lat="42.99599" lon="1.1391">
        <ele>407.8</ele>
        <time>2024-06-23T07:58:56Z</time>
      </trkpt>
      <trkpt lat="42.99592" lon="1.13914">
        <ele>407.6</ele>
        <time>2024-06-23T07:58:57Z</time>
      </trkpt>
      <trkpt lat="42.99586" lon="1.13918">
        <ele>407.2</ele>
        <time>2024-06-23T07:58:58Z</time>
      </trkpt>
      <trkpt lat="42.99579" lon="1.13922">
        <ele>407</ele>
        <time>2024-06-23T07:58:59Z</time>
      </trkpt>
      <trkpt lat="42.99573" lon="1.13927">
        <ele>407</ele>
        <time>2024-06-23T07:59:00Z</time>
      </trkpt>
      <trkpt lat="42.99566" lon="1.13932">
        <ele>406.6</ele>
        <time>2024-06-23T07:59:01Z</time>
      </trkpt>
      <trkpt lat="42.99562" lon="1.13938">
        <ele>406.4</ele>
        <time>2024-06-23T07:59:02Z</time>
      </trkpt>
      <trkpt lat="42.99556" lon="1.13945">
        <ele>406</ele>
        <time>2024-06-23T07:59:03Z</time>
      </trkpt>
      <trkpt lat="42.99549" lon="1.13949">
        <ele>405.8</ele>
        <time>2024-06-23T07:59:04Z</time>
      </trkpt>
      <trkpt lat="42.99543" lon="1.13956">
        <ele>405.8</ele>
        <time>2024-06-23T07:59:05Z</time>
      </trkpt>
      <trkpt lat="42.99538" lon="1.13964">
        <ele>405.8</ele>
        <time>2024-06-23T07:59:06Z</time>
      </trkpt>
      <trkpt lat="42.99532" lon="1.1397">
        <ele>405.2</ele>
        <time>2024-06-23T07:59:07Z</time>
      </trkpt>
      <trkpt lat="42.99526" lon="1.13977">
        <ele>405</ele>
        <time>2024-06-23T07:59:08Z</time>
      </trkpt>
      <trkpt lat="42.99521" lon="1.13984">
        <ele>405</ele>
        <time>2024-06-23T07:59:09Z</time>
      </trkpt>
      <trkpt lat="42.99516" lon="1.13991">
        <ele>404.4</ele>
        <time>2024-06-23T07:59:10Z</time>
      </trkpt>
      <trkpt lat="42.99511" lon="1.13997">
        <ele>404</ele>
        <time>2024-06-23T07:59:11Z</time>
      </trkpt>
      <trkpt lat="42.99506" lon="1.14007">
        <ele>403.6</ele>
        <time>2024-06-23T07:59:12Z</time>
      </trkpt>
      <trkpt lat="42.995" lon="1.14015">
        <ele>403.2</ele>
        <time>2024-06-23T07:59:13Z</time>
      </trkpt>
      <trkpt lat="42.99494" lon="1.14021">
        <ele>402.8</ele>
        <time>2024-06-23T07:59:14Z</time>
      </trkpt>
      <trkpt lat="42.99487" lon="1.14028">
        <ele>402.6</ele>
        <time>2024-06-23T07:59:15Z</time>
      </trkpt>
      <trkpt lat="42.9948" lon="1.14032">
        <ele>402.2</ele>
        <time>2024-06-23T07:59:16Z</time>
      </trkpt>
      <trkpt lat="42.99472" lon="1.14036">
        <ele>401.8</ele>
        <time>2024-06-23T07:59:17Z</time>
      </trkpt>
      <trkpt lat="42.99464" lon="1.1404">
        <ele>401.4</ele>
        <time>2024-06-23T07:59:18Z</time>
      </trkpt>
      <trkpt lat="42.99456" lon="1.14042">
        <ele>400.8</ele>
        <time>2024-06-23T07:59:19Z</time>
      </trkpt>
      <trkpt lat="42.99447" lon="1.14044">
        <ele>400.4</ele>
        <time>2024-06-23T07:59:20Z</time>
      </trkpt>
      <trkpt lat="42.99438" lon="1.14043">
        <ele>400</ele>
        <time>2024-06-23T07:59:21Z</time>
      </trkpt>
      <trkpt lat="42.9943" lon="1.14039">
        <ele>400.2</ele>
        <time>2024-06-23T07:59:22Z</time>
      </trkpt>
      <trkpt lat="42.99422" lon="1.14035">
        <ele>399.8</ele>
        <time>2024-06-23T07:59:23Z</time>
      </trkpt>
      <trkpt lat="42.99413" lon="1.1403">
        <ele>399.2</ele>
        <time>2024-06-23T07:59:24Z</time>
      </trkpt>
      <trkpt lat="42.99405" lon="1.14025">
        <ele>398.8</ele>
        <time>2024-06-23T07:59:25Z</time>
      </trkpt>
      <trkpt lat="42.99397" lon="1.1402">
        <ele>398.2</ele>
        <time>2024-06-23T07:59:26Z</time>
      </trkpt>
      <trkpt lat="42.99397" lon="1.1402">
        <ele>398</ele>
        <time>2024-06-23T07:59:27Z</time>
      </trkpt>
      <trkpt lat="42.99388" lon="1.14016">
        <ele>397.2</ele>
        <time>2024-06-23T07:59:28Z</time>
      </trkpt>
      <trkpt lat="42.9938" lon="1.14012">
        <ele>396.8</ele>
        <time>2024-06-23T07:59:29Z</time>
      </trkpt>
      <trkpt lat="42.99371" lon="1.14011">
        <ele>396.4</ele>
        <time>2024-06-23T07:59:30Z</time>
      </trkpt>
      <trkpt lat="42.99362" lon="1.1401">
        <ele>396</ele>
        <time>2024-06-23T07:59:31Z</time>
      </trkpt>
      <trkpt lat="42.99353" lon="1.1401">
        <ele>395.4</ele>
        <time>2024-06-23T07:59:32Z</time>
      </trkpt>
      <trkpt lat="42.99344" lon="1.14013">
        <ele>395</ele>
        <time>2024-06-23T07:59:33Z</time>
      </trkpt>
      <trkpt lat="42.99336" lon="1.14018">
        <ele>395</ele>
        <time>2024-06-23T07:59:34Z</time>
      </trkpt>
      <trkpt lat="42.99328" lon="1.14024">
        <ele>394.4</ele>
        <time>2024-06-23T07:59:35Z</time>
      </trkpt>
      <trkpt lat="42.99321" lon="1.14032">
        <ele>393.8</ele>
        <time>2024-06-23T07:59:36Z</time>
      </trkpt>
      <trkpt lat="42.99315" lon="1.14041">
        <ele>393.8</ele>
        <time>2024-06-23T07:59:37Z</time>
      </trkpt>
      <trkpt lat="42.99308" lon="1.14049">
        <ele>393.4</ele>
        <time>2024-06-23T07:59:38Z</time>
      </trkpt>
      <trkpt lat="42.99302" lon="1.14058">
        <ele>393.4</ele>
        <time>2024-06-23T07:59:39Z</time>
      </trkpt>
      <trkpt lat="42.99296" lon="1.14066">
        <ele>393.2</ele>
        <time>2024-06-23T07:59:40Z</time>
      </trkpt>
      <trkpt lat="42.9929" lon="1.14074">
        <ele>392.6</ele>
        <time>2024-06-23T07:59:41Z</time>
      </trkpt>
      <trkpt lat="42.99285" lon="1.14083">
        <ele>392.6</ele>
        <time>2024-06-23T07:59:42Z</time>
      </trkpt>
      <trkpt lat="42.9928" lon="1.14091">
        <ele>392.4</ele>
        <time>2024-06-23T07:59:43Z</time>
      </trkpt>
      <trkpt lat="42.99275" lon="1.14099">
        <ele>392</ele>
        <time>2024-06-23T07:59:44Z</time>
      </trkpt>
      <trkpt lat="42.99271" lon="1.14107">
        <ele>391.8</ele>
        <time>2024-06-23T07:59:45Z</time>
      </trkpt>
      <trkpt lat="42.99265" lon="1.14115">
        <ele>391.6</ele>
        <time>2024-06-23T07:59:46Z</time>
      </trkpt>
      <trkpt lat="42.9926" lon="1.14122">
        <ele>391.6</ele>
        <time>2024-06-23T07:59:47Z</time>
      </trkpt>
      <trkpt lat="42.99256" lon="1.14129">
        <ele>391.4</ele>
        <time>2024-06-23T07:59:48Z</time>
      </trkpt>
      <trkpt lat="42.99251" lon="1.14136">
        <ele>391.4</ele>
        <time>2024-06-23T07:59:49Z</time>
      </trkpt>
      <trkpt lat="42.99246" lon="1.14144">
        <ele>391</ele>
        <time>2024-06-23T07:59:50Z</time>
      </trkpt>
      <trkpt lat="42.99242" lon="1.14151">
        <ele>391</ele>
        <time>2024-06-23T07:59:51Z</time>
      </trkpt>
      <trkpt lat="42.99237" lon="1.14157">
        <ele>391</ele>
        <time>2024-06-23T07:59:52Z</time>
      </trkpt>
      <trkpt lat="42.99233" lon="1.14165">
        <ele>391</ele>
        <time>2024-06-23T07:59:53Z</time>
      </trkpt>
      <trkpt lat="42.99228" lon="1.14171">
        <ele>391</ele>
        <time>2024-06-23T07:59:54Z</time>
      </trkpt>
      <trkpt lat="42.99223" lon="1.14178">
        <ele>391</ele>
        <time>2024-06-23T07:59:55Z</time>
      </trkpt>
      <trkpt lat="42.99219" lon="1.14185">
        <ele>390.8</ele>
        <time>2024-06-23T07:59:56Z</time>
      </trkpt>
      <trkpt lat="42.99215" lon="1.14191">
        <ele>390.8</ele>
        <time>2024-06-23T07:59:57Z</time>
      </trkpt>
      <trkpt lat="42.9921" lon="1.14197">
        <ele>390.8</ele>
        <time>2024-06-23T07:59:58Z</time>
      </trkpt>
      <trkpt lat="42.99206" lon="1.14204">
        <ele>390.8</ele>
        <time>2024-06-23T07:59:59Z</time>
      </trkpt>
      <trkpt lat="42.99202" lon="1.1421">
        <ele>390.8</ele>
        <time>2024-06-23T08:00:00Z</time>
      </trkpt>
      <trkpt lat="42.99197" lon="1.14216">
        <ele>390.4</ele>
        <time>2024-06-23T08:00:01Z</time>
      </trkpt>
      <trkpt lat="42.99193" lon="1.14223">
        <ele>390.4</ele>
        <time>2024-06-23T08:00:02Z</time>
      </trkpt>
      <trkpt lat="42.99188" lon="1.1423">
        <ele>390.4</ele>
        <time>2024-06-23T08:00:03Z</time>
      </trkpt>
      <trkpt lat="42.99183" lon="1.14236">
        <ele>390.4</ele>
        <time>2024-06-23T08:00:04Z</time>
      </trkpt>
      <trkpt lat="42.99178" lon="1.14244">
        <ele>390.2</ele>
        <time>2024-06-23T08:00:05Z</time>
      </trkpt>
      <trkpt lat="42.99174" lon="1.1425">
        <ele>390.2</ele>
        <time>2024-06-23T08:00:06Z</time>
      </trkpt>
      <trkpt lat="42.99169" lon="1.14257">
        <ele>390.2</ele>
        <time>2024-06-23T08:00:07Z</time>
      </trkpt>
      <trkpt lat="42.99165" lon="1.14263">
        <ele>390.2</ele>
        <time>2024-06-23T08:00:08Z</time>
      </trkpt>
      <trkpt lat="42.9916" lon="1.1427">
        <ele>390.2</ele>
        <time>2024-06-23T08:00:09Z</time>
      </trkpt>
      <trkpt lat="42.99156" lon="1.14277">
        <ele>390.6</ele>
        <time>2024-06-23T08:00:10Z</time>
      </trkpt>
      <trkpt lat="42.99152" lon="1.14284">
        <ele>390.6</ele>
        <time>2024-06-23T08:00:11Z</time>
      </trkpt>
      <trkpt lat="42.99148" lon="1.1429">
        <ele>389.8</ele>
        <time>2024-06-23T08:00:12Z</time>
      </trkpt>
      <trkpt lat="42.99144" lon="1.14297">
        <ele>389.8</ele>
        <time>2024-06-23T08:00:13Z</time>
      </trkpt>
      <trkpt lat="42.99139" lon="1.14303">
        <ele>389.8</ele>
        <time>2024-06-23T08:00:14Z</time>
      </trkpt>
      <trkpt lat="42.99138" lon="1.14309">
        <ele>389.8</ele>
        <time>2024-06-23T08:00:15Z</time>
      </trkpt>
      <trkpt lat="42.99131" lon="1.14315">
        <ele>389.8</ele>
        <time>2024-06-23T08:00:16Z</time>
      </trkpt>
      <trkpt lat="42.99127" lon="1.14321">
        <ele>389.6</ele>
        <time>2024-06-23T08:00:17Z</time>
      </trkpt>
      <trkpt lat="42.99121" lon="1.14328">
        <ele>389.6</ele>
        <time>2024-06-23T08:00:18Z</time>
      </trkpt>
      <trkpt lat="42.99115" lon="1.14332">
        <ele>389.6</ele>
        <time>2024-06-23T08:00:19Z</time>
      </trkpt>
      <trkpt lat="42.9911" lon="1.14336">
        <ele>389.6</ele>
        <time>2024-06-23T08:00:20Z</time>
      </trkpt>
      <trkpt lat="42.99103" lon="1.1434">
        <ele>389.8</ele>
        <time>2024-06-23T08:00:21Z</time>
      </trkpt>
      <trkpt lat="42.99097" lon="1.14343">
        <ele>389.8</ele>
        <time>2024-06-23T08:00:22Z</time>
      </trkpt>
      <trkpt lat="42.99092" lon="1.14347">
        <ele>389.8</ele>
        <time>2024-06-23T08:00:23Z</time>
      </trkpt>
      <trkpt lat="42.99086" lon="1.14351">
        <ele>389.8</ele>
        <time>2024-06-23T08:00:24Z</time>
      </trkpt>
      <trkpt lat="42.9908" lon="1.14355">
        <ele>389.8</ele>
        <time>2024-06-23T08:00:25Z</time>
      </trkpt>
      <trkpt lat="42.99075" lon="1.14357">
        <ele>389.4</ele>
        <time>2024-06-23T08:00:26Z</time>
      </trkpt>
      <trkpt lat="42.99069" lon="1.14361">
        <ele>389.4</ele>
        <time>2024-06-23T08:00:27Z</time>
      </trkpt>
      <trkpt lat="42.99063" lon="1.14361">
        <ele>389.2</ele>
        <time>2024-06-23T08:00:28Z</time>
      </trkpt>
      <trkpt lat="42.99058" lon="1.14362">
        <ele>389.2</ele>
        <time>2024-06-23T08:00:29Z</time>
      </trkpt>
      <trkpt lat="42.99053" lon="1.14363">
        <ele>389.2</ele>
        <time>2024-06-23T08:00:30Z</time>
      </trkpt>
      <trkpt lat="42.99048" lon="1.14364">
        <ele>389.2</ele>
        <time>2024-06-23T08:00:31Z</time>
      </trkpt>
      <trkpt lat="42.99043" lon="1.14366">
        <ele>389.2</ele>
        <time>2024-06-23T08:00:32Z</time>
      </trkpt>
      <trkpt lat="42.99039" lon="1.14368">
        <ele>389.6</ele>
        <time>2024-06-23T08:00:33Z</time>
      </trkpt>
      <trkpt lat="42.99035" lon="1.14371">
        <ele>389.2</ele>
        <time>2024-06-23T08:00:34Z</time>
      </trkpt>
      <trkpt lat="42.99034" lon="1.14378">
        <ele>389.2</ele>
        <time>2024-06-23T08:00:35Z</time>
      </trkpt>
      <trkpt lat="42.99034" lon="1.14385">
        <ele>389.2</ele>
        <time>2024-06-23T08:00:36Z</time>
      </trkpt>
      <trkpt lat="42.99035" lon="1.14391">
        <ele>389.2</ele>
        <time>2024-06-23T08:00:37Z</time>
      </trkpt>
      <trkpt lat="42.99036" lon="1.14397">
        <ele>388.8</ele>
        <time>2024-06-23T08:00:38Z</time>
      </trkpt>
      <trkpt lat="42.99037" lon="1.14404">
        <ele>388.8</ele>
        <time>2024-06-23T08:00:39Z</time>
      </trkpt>
      <trkpt lat="42.99039" lon="1.1441">
        <ele>388.8</ele>
        <time>2024-06-23T08:00:40Z</time>
      </trkpt>
      <trkpt lat="42.99042" lon="1.14416">
        <ele>388.8</ele>
        <time>2024-06-23T08:00:41Z</time>
      </trkpt>
      <trkpt lat="42.99045" lon="1.14422">
        <ele>389.2</ele>
        <time>2024-06-23T08:00:42Z</time>
      </trkpt>
      <trkpt lat="42.99048" lon="1.14428">
        <ele>389.2</ele>
        <time>2024-06-23T08:00:43Z</time>
      </trkpt>
      <trkpt lat="42.99051" lon="1.14433">
        <ele>389.2</ele>
        <time>2024-06-23T08:00:44Z</time>
      </trkpt>
      <trkpt lat="42.99054" lon="1.14438">
        <ele>389.2</ele>
        <time>2024-06-23T08:00:45Z</time>
      </trkpt>
      <trkpt lat="42.99058" lon="1.14444">
        <ele>389.2</ele>
        <time>2024-06-23T08:00:46Z</time>
      </trkpt>
      <trkpt lat="42.99062" lon="1.14448">
        <ele>389.2</ele>
        <time>2024-06-23T08:00:47Z</time>
      </trkpt>
      <trkpt lat="42.99067" lon="1.14452">
        <ele>389.4</ele>
        <time>2024-06-23T08:00:48Z</time>
      </trkpt>
      <trkpt lat="42.9907" lon="1.14457">
        <ele>389.2</ele>
        <time>2024-06-23T08:00:49Z</time>
      </trkpt>
      <trkpt lat="42.99074" lon="1.14462">
        <ele>389.6</ele>
        <time>2024-06-23T08:00:50Z</time>
      </trkpt>
      <trkpt lat="42.99076" lon="1.14468">
        <ele>389.8</ele>
        <time>2024-06-23T08:00:51Z</time>
      </trkpt>
      <trkpt lat="42.99078" lon="1.14473">
        <ele>390.2</ele>
        <time>2024-06-23T08:00:52Z</time>
      </trkpt>
      <trkpt lat="42.99079" lon="1.14479">
        <ele>390.6</ele>
        <time>2024-06-23T08:00:53Z</time>
      </trkpt>
      <trkpt lat="42.9908" lon="1.14484">
        <ele>390.6</ele>
        <time>2024-06-23T08:00:54Z</time>
      </trkpt>
      <trkpt lat="42.9908" lon="1.14489">
        <ele>391</ele>
        <time>2024-06-23T08:00:55Z</time>
      </trkpt>
      <trkpt lat="42.99079" lon="1.14495">
        <ele>391.2</ele>
        <time>2024-06-23T08:00:56Z</time>
      </trkpt>
      <trkpt lat="42.99078" lon="1.145">
        <ele>391.6</ele>
        <time>2024-06-23T08:00:57Z</time>
      </trkpt>
      <trkpt lat="42.99077" lon="1.14504">
        <ele>391.8</ele>
        <time>2024-06-23T08:00:58Z</time>
      </trkpt>
      <trkpt lat="42.9908" lon="1.14509">
        <ele>392.2</ele>
        <time>2024-06-23T08:00:59Z</time>
      </trkpt>
      <trkpt lat="42.9908" lon="1.14513">
        <ele>392.4</ele>
        <time>2024-06-23T08:01:00Z</time>
      </trkpt>
      <trkpt lat="42.99081" lon="1.14517">
        <ele>392.8</ele>
        <time>2024-06-23T08:01:01Z</time>
      </trkpt>
      <trkpt lat="42.99082" lon="1.14522">
        <ele>392.8</ele>
        <time>2024-06-23T08:01:02Z</time>
      </trkpt>
      <trkpt lat="42.99082" lon="1.14527">
        <ele>393</ele>
        <time>2024-06-23T08:01:03Z</time>
      </trkpt>
      <trkpt lat="42.99083" lon="1.14532">
        <ele>393</ele>
        <time>2024-06-23T08:01:04Z</time>
      </trkpt>
      <trkpt lat="42.99084" lon="1.14537">
        <ele>393.4</ele>
        <time>2024-06-23T08:01:05Z</time>
      </trkpt>
      <trkpt lat="42.99083" lon="1.14541">
        <ele>393.8</ele>
        <time>2024-06-23T08:01:06Z</time>
      </trkpt>
      <trkpt lat="42.99082" lon="1.14546">
        <ele>394.2</ele>
        <time>2024-06-23T08:01:07Z</time>
      </trkpt>
      <trkpt lat="42.99082" lon="1.1455">
        <ele>394.4</ele>
        <time>2024-06-23T08:01:08Z</time>
      </trkpt>
      <trkpt lat="42.99082" lon="1.1456">
        <ele>394.8</ele>
        <time>2024-06-23T08:01:09Z</time>
      </trkpt>
      <trkpt lat="42.99081" lon="1.14565">
        <ele>394.8</ele>
        <time>2024-06-23T08:01:10Z</time>
      </trkpt>
      <trkpt lat="42.99081" lon="1.1457">
        <ele>395.4</ele>
        <time>2024-06-23T08:01:11Z</time>
      </trkpt>
      <trkpt lat="42.9908" lon="1.14576">
        <ele>395.6</ele>
        <time>2024-06-23T08:01:12Z</time>
      </trkpt>
      <trkpt lat="42.9908" lon="1.14581">
        <ele>396</ele>
        <time>2024-06-23T08:01:13Z</time>
      </trkpt>
      <trkpt lat="42.9908" lon="1.14586">
        <ele>396.2</ele>
        <time>2024-06-23T08:01:14Z</time>
      </trkpt>
      <trkpt lat="42.9908" lon="1.14591">
        <ele>396.4</ele>
        <time>2024-06-23T08:01:15Z</time>
      </trkpt>
      <trkpt lat="42.99079" lon="1.14596">
        <ele>396.4</ele>
        <time>2024-06-23T08:01:16Z</time>
      </trkpt>
      <trkpt lat="42.99079" lon="1.146">
        <ele>396.8</ele>
        <time>2024-06-23T08:01:17Z</time>
      </trkpt>
      <trkpt lat="42.99079" lon="1.14605">
        <ele>396.8</ele>
        <time>2024-06-23T08:01:18Z</time>
      </trkpt>
      <trkpt lat="42.99079" lon="1.1461">
        <ele>397.2</ele>
        <time>2024-06-23T08:01:19Z</time>
      </trkpt>
      <trkpt lat="42.9908" lon="1.14615">
        <ele>397.4</ele>
        <time>2024-06-23T08:01:20Z</time>
      </trkpt>
      <trkpt lat="42.99082" lon="1.1462">
        <ele>397.4</ele>
        <time>2024-06-23T08:01:21Z</time>
      </trkpt>
      <trkpt lat="42.99084" lon="1.14625">
        <ele>397.4</ele>
        <time>2024-06-23T08:01:22Z</time>
      </trkpt>
      <trkpt lat="42.99086" lon="1.1463">
        <ele>397.4</ele>
        <time>2024-06-23T08:01:23Z</time>
      </trkpt>
      <trkpt lat="42.99088" lon="1.14634">
        <ele>397.4</ele>
        <time>2024-06-23T08:01:24Z</time>
      </trkpt>
      <trkpt lat="42.9909" lon="1.14639">
        <ele>397.6</ele>
        <time>2024-06-23T08:01:25Z</time>
      </trkpt>
      <trkpt lat="42.99092" lon="1.14644">
        <ele>397.6</ele>
        <time>2024-06-23T08:01:26Z</time>
      </trkpt>
      <trkpt lat="42.99095" lon="1.1465">
        <ele>397.6</ele>
        <time>2024-06-23T08:01:27Z</time>
      </trkpt>
      <trkpt lat="42.99096" lon="1.14655">
        <ele>397.6</ele>
        <time>2024-06-23T08:01:28Z</time>
      </trkpt>
      <trkpt lat="42.99098" lon="1.14659">
        <ele>398</ele>
        <time>2024-06-23T08:01:29Z</time>
      </trkpt>
      <trkpt lat="42.99101" lon="1.14665">
        <ele>398</ele>
        <time>2024-06-23T08:01:30Z</time>
      </trkpt>
      <trkpt lat="42.99103" lon="1.14671">
        <ele>398</ele>
        <time>2024-06-23T08:01:31Z</time>
      </trkpt>
      <trkpt lat="42.99105" lon="1.14676">
        <ele>398</ele>
        <time>2024-06-23T08:01:32Z</time>
      </trkpt>
      <trkpt lat="42.99108" lon="1.14682">
        <ele>398</ele>
        <time>2024-06-23T08:01:33Z</time>
      </trkpt>
      <trkpt lat="42.9911" lon="1.14688">
        <ele>398</ele>
        <time>2024-06-23T08:01:34Z</time>
      </trkpt>
      <trkpt lat="42.99113" lon="1.14694">
        <ele>398</ele>
        <time>2024-06-23T08:01:35Z</time>
      </trkpt>
      <trkpt lat="42.99116" lon="1.147">
        <ele>398</ele>
        <time>2024-06-23T08:01:36Z</time>
      </trkpt>
      <trkpt lat="42.9912" lon="1.14706">
        <ele>398</ele>
        <time>2024-06-23T08:01:37Z</time>
      </trkpt>
      <trkpt lat="42.99121" lon="1.14712">
        <ele>397.6</ele>
        <time>2024-06-23T08:01:38Z</time>
      </trkpt>
      <trkpt lat="42.99123" lon="1.14718">
        <ele>397.4</ele>
        <time>2024-06-23T08:01:39Z</time>
      </trkpt>
      <trkpt lat="42.99124" lon="1.14724">
        <ele>397.4</ele>
        <time>2024-06-23T08:01:40Z</time>
      </trkpt>
      <trkpt lat="42.99126" lon="1.1473">
        <ele>397.4</ele>
        <time>2024-06-23T08:01:41Z</time>
      </trkpt>
      <trkpt lat="42.99127" lon="1.14736">
        <ele>397.6</ele>
        <time>2024-06-23T08:01:42Z</time>
      </trkpt>
      <trkpt lat="42.99128" lon="1.14741">
        <ele>397.6</ele>
        <time>2024-06-23T08:01:43Z</time>
      </trkpt>
      <trkpt lat="42.99129" lon="1.14747">
        <ele>397.6</ele>
        <time>2024-06-23T08:01:44Z</time>
      </trkpt>
      <trkpt lat="42.9913" lon="1.14754">
        <ele>397.6</ele>
        <time>2024-06-23T08:01:45Z</time>
      </trkpt>
      <trkpt lat="42.99129" lon="1.1476">
        <ele>397.6</ele>
        <time>2024-06-23T08:01:46Z</time>
      </trkpt>
      <trkpt lat="42.99129" lon="1.14766">
        <ele>398</ele>
        <time>2024-06-23T08:01:47Z</time>
      </trkpt>
      <trkpt lat="42.99128" lon="1.14772">
        <ele>398</ele>
        <time>2024-06-23T08:01:48Z</time>
      </trkpt>
      <trkpt lat="42.99127" lon="1.14778">
        <ele>398.4</ele>
        <time>2024-06-23T08:01:49Z</time>
      </trkpt>
      <trkpt lat="42.99124" lon="1.14782">
        <ele>398.4</ele>
        <time>2024-06-23T08:01:50Z</time>
      </trkpt>
      <trkpt lat="42.99122" lon="1.14787">
        <ele>398.8</ele>
        <time>2024-06-23T08:01:51Z</time>
      </trkpt>
      <trkpt lat="42.99119" lon="1.14791">
        <ele>398.8</ele>
        <time>2024-06-23T08:01:52Z</time>
      </trkpt>
      <trkpt lat="42.99116" lon="1.14795">
        <ele>399.2</ele>
        <time>2024-06-23T08:01:53Z</time>
      </trkpt>
      <trkpt lat="42.99114" lon="1.14799">
        <ele>399.2</ele>
        <time>2024-06-23T08:01:54Z</time>
      </trkpt>
      <trkpt lat="42.99111" lon="1.14804">
        <ele>399.2</ele>
        <time>2024-06-23T08:01:55Z</time>
      </trkpt>
      <trkpt lat="42.99108" lon="1.14808">
        <ele>399.2</ele>
        <time>2024-06-23T08:01:56Z</time>
      </trkpt>
      <trkpt lat="42.99106" lon="1.14813">
        <ele>399.2</ele>
        <time>2024-06-23T08:01:57Z</time>
      </trkpt>
      <trkpt lat="42.99103" lon="1.14818">
        <ele>399.2</ele>
        <time>2024-06-23T08:01:58Z</time>
      </trkpt>
      <trkpt lat="42.99101" lon="1.14823">
        <ele>399.6</ele>
        <time>2024-06-23T08:01:59Z</time>
      </trkpt>
      <trkpt lat="42.99098" lon="1.14828">
        <ele>399.6</ele>
        <time>2024-06-23T08:02:00Z</time>
      </trkpt>
      <trkpt lat="42.99094" lon="1.14832">
        <ele>399.6</ele>
        <time>2024-06-23T08:02:01Z</time>
      </trkpt>
      <trkpt lat="42.99089" lon="1.14835">
        <ele>399.6</ele>
        <time>2024-06-23T08:02:02Z</time>
      </trkpt>
      <trkpt lat="42.99084" lon="1.14838">
        <ele>399.4</ele>
        <time>2024-06-23T08:02:03Z</time>
      </trkpt>
      <trkpt lat="42.9908" lon="1.14838">
        <ele>399.2</ele>
        <time>2024-06-23T08:02:04Z</time>
      </trkpt>
      <trkpt lat="42.99075" lon="1.14838">
        <ele>399.2</ele>
        <time>2024-06-23T08:02:05Z</time>
      </trkpt>
      <trkpt lat="42.9907" lon="1.14839">
        <ele>399.2</ele>
        <time>2024-06-23T08:02:06Z</time>
      </trkpt>
      <trkpt lat="42.99065" lon="1.14838">
        <ele>399.2</ele>
        <time>2024-06-23T08:02:07Z</time>
      </trkpt>
      <trkpt lat="42.99059" lon="1.14838">
        <ele>399.2</ele>
        <time>2024-06-23T08:02:08Z</time>
      </trkpt>
      <trkpt lat="42.99055" lon="1.14839">
        <ele>399.2</ele>
        <time>2024-06-23T08:02:09Z</time>
      </trkpt>
      <trkpt lat="42.9905" lon="1.14839">
        <ele>399.4</ele>
        <time>2024-06-23T08:02:10Z</time>
      </trkpt>
      <trkpt lat="42.99045" lon="1.14838">
        <ele>399.4</ele>
        <time>2024-06-23T08:02:11Z</time>
      </trkpt>
      <trkpt lat="42.99041" lon="1.14838">
        <ele>399.4</ele>
        <time>2024-06-23T08:02:12Z</time>
      </trkpt>
      <trkpt lat="42.99036" lon="1.14839">
        <ele>399.4</ele>
        <time>2024-06-23T08:02:13Z</time>
      </trkpt>
      <trkpt lat="42.99031" lon="1.14839">
        <ele>399.4</ele>
        <time>2024-06-23T08:02:14Z</time>
      </trkpt>
      <trkpt lat="42.99027" lon="1.1484">
        <ele>399.2</ele>
        <time>2024-06-23T08:02:15Z</time>
      </trkpt>
      <trkpt lat="42.99022" lon="1.1484">
        <ele>399.2</ele>
        <time>2024-06-23T08:02:16Z</time>
      </trkpt>
      <trkpt lat="42.99017" lon="1.14841">
        <ele>399.2</ele>
        <time>2024-06-23T08:02:17Z</time>
      </trkpt>
      <trkpt lat="42.99012" lon="1.14842">
        <ele>399.2</ele>
        <time>2024-06-23T08:02:18Z</time>
      </trkpt>
      <trkpt lat="42.99007" lon="1.14843">
        <ele>399</ele>
        <time>2024-06-23T08:02:19Z</time>
      </trkpt>
      <trkpt lat="42.99003" lon="1.14843">
        <ele>398.8</ele>
        <time>2024-06-23T08:02:20Z</time>
      </trkpt>
      <trkpt lat="42.98997" lon="1.14844">
        <ele>398.6</ele>
        <time>2024-06-23T08:02:21Z</time>
      </trkpt>
      <trkpt lat="42.98993" lon="1.14847">
        <ele>398.6</ele>
        <time>2024-06-23T08:02:22Z</time>
      </trkpt>
      <trkpt lat="42.98992" lon="1.14852">
        <ele>398.4</ele>
        <time>2024-06-23T08:02:23Z</time>
      </trkpt>
      <trkpt lat="42.98991" lon="1.14858">
        <ele>398.4</ele>
        <time>2024-06-23T08:02:24Z</time>
      </trkpt>
      <trkpt lat="42.98992" lon="1.14865">
        <ele>398</ele>
        <time>2024-06-23T08:02:25Z</time>
      </trkpt>
      <trkpt lat="42.98995" lon="1.14872">
        <ele>398</ele>
        <time>2024-06-23T08:02:26Z</time>
      </trkpt>
      <trkpt lat="42.98997" lon="1.14879">
        <ele>397.6</ele>
        <time>2024-06-23T08:02:27Z</time>
      </trkpt>
      <trkpt lat="42.99" lon="1.14887">
        <ele>397.4</ele>
        <time>2024-06-23T08:02:28Z</time>
      </trkpt>
      <trkpt lat="42.99003" lon="1.14895">
        <ele>397.4</ele>
        <time>2024-06-23T08:02:29Z</time>
      </trkpt>
      <trkpt lat="42.99005" lon="1.14904">
        <ele>396.4</ele>
        <time>2024-06-23T08:02:30Z</time>
      </trkpt>
      <trkpt lat="42.99008" lon="1.14911">
        <ele>396.2</ele>
        <time>2024-06-23T08:02:31Z</time>
      </trkpt>
      <trkpt lat="42.99011" lon="1.14919">
        <ele>396</ele>
        <time>2024-06-23T08:02:32Z</time>
      </trkpt>
      <trkpt lat="42.99014" lon="1.14927">
        <ele>395.6</ele>
        <time>2024-06-23T08:02:33Z</time>
      </trkpt>
      <trkpt lat="42.99017" lon="1.14936">
        <ele>395.6</ele>
        <time>2024-06-23T08:02:34Z</time>
      </trkpt>
      <trkpt lat="42.9902" lon="1.14945">
        <ele>395.2</ele>
        <time>2024-06-23T08:02:35Z</time>
      </trkpt>
      <trkpt lat="42.99023" lon="1.14953">
        <ele>395</ele>
        <time>2024-06-23T08:02:36Z</time>
      </trkpt>
      <trkpt lat="42.99025" lon="1.14961">
        <ele>394.2</ele>
        <time>2024-06-23T08:02:37Z</time>
      </trkpt>
      <trkpt lat="42.99025" lon="1.14967">
        <ele>393.6</ele>
        <time>2024-06-23T08:02:38Z</time>
      </trkpt>
      <trkpt lat="42.99025" lon="1.14975">
        <ele>393.4</ele>
        <time>2024-06-23T08:02:39Z</time>
      </trkpt>
      <trkpt lat="42.99021" lon="1.1498">
        <ele>393</ele>
        <time>2024-06-23T08:02:40Z</time>
      </trkpt>
      <trkpt lat="42.99018" lon="1.14982">
        <ele>392.8</ele>
        <time>2024-06-23T08:02:41Z</time>
      </trkpt>
      <trkpt lat="42.99014" lon="1.14986">
        <ele>392.8</ele>
        <time>2024-06-23T08:02:42Z</time>
      </trkpt>
      <trkpt lat="42.99011" lon="1.14991">
        <ele>392.6</ele>
        <time>2024-06-23T08:02:43Z</time>
      </trkpt>
      <trkpt lat="42.99008" lon="1.14996">
        <ele>392.6</ele>
        <time>2024-06-23T08:02:44Z</time>
      </trkpt>
      <trkpt lat="42.99007" lon="1.15003">
        <ele>392.6</ele>
        <time>2024-06-23T08:02:45Z</time>
      </trkpt>
      <trkpt lat="42.99006" lon="1.15009">
        <ele>392.6</ele>
        <time>2024-06-23T08:02:46Z</time>
      </trkpt>
      <trkpt lat="42.99005" lon="1.15016">
        <ele>392.6</ele>
        <time>2024-06-23T08:02:47Z</time>
      </trkpt>
      <trkpt lat="42.99005" lon="1.15023">
        <ele>392.6</ele>
        <time>2024-06-23T08:02:48Z</time>
      </trkpt>
      <trkpt lat="42.99003" lon="1.1503">
        <ele>392.2</ele>
        <time>2024-06-23T08:02:49Z</time>
      </trkpt>
      <trkpt lat="42.99003" lon="1.15037">
        <ele>392.2</ele>
        <time>2024-06-23T08:02:50Z</time>
      </trkpt>
      <trkpt lat="42.99001" lon="1.15044">
        <ele>392.2</ele>
        <time>2024-06-23T08:02:51Z</time>
      </trkpt>
      <trkpt lat="42.99" lon="1.15051">
        <ele>392.2</ele>
        <time>2024-06-23T08:02:52Z</time>
      </trkpt>
      <trkpt lat="42.98998" lon="1.15058">
        <ele>392.8</ele>
        <time>2024-06-23T08:02:53Z</time>
      </trkpt>
      <trkpt lat="42.98997" lon="1.15065">
        <ele>392.8</ele>
        <time>2024-06-23T08:02:54Z</time>
      </trkpt>
      <trkpt lat="42.98996" lon="1.15071">
        <ele>392.8</ele>
        <time>2024-06-23T08:02:55Z</time>
      </trkpt>
      <trkpt lat="42.98995" lon="1.15077">
        <ele>393</ele>
        <time>2024-06-23T08:02:56Z</time>
      </trkpt>
      <trkpt lat="42.98994" lon="1.15084">
        <ele>393.2</ele>
        <time>2024-06-23T08:02:57Z</time>
      </trkpt>
      <trkpt lat="42.98992" lon="1.1509">
        <ele>393.2</ele>
        <time>2024-06-23T08:02:58Z</time>
      </trkpt>
      <trkpt lat="42.9899" lon="1.15094">
        <ele>393.2</ele>
        <time>2024-06-23T08:02:59Z</time>
      </trkpt>
      <trkpt lat="42.98988" lon="1.15098">
        <ele>393.4</ele>
        <time>2024-06-23T08:03:00Z</time>
      </trkpt>
      <trkpt lat="42.98984" lon="1.15106">
        <ele>393.4</ele>
        <time>2024-06-23T08:03:01Z</time>
      </trkpt>
      <trkpt lat="42.98981" lon="1.15109">
        <ele>393.8</ele>
        <time>2024-06-23T08:03:02Z</time>
      </trkpt>
      <trkpt lat="42.98978" lon="1.15112">
        <ele>393.8</ele>
        <time>2024-06-23T08:03:03Z</time>
      </trkpt>
      <trkpt lat="42.98975" lon="1.15115">
        <ele>394</ele>
        <time>2024-06-23T08:03:04Z</time>
      </trkpt>
      <trkpt lat="42.98972" lon="1.15118">
        <ele>394.4</ele>
        <time>2024-06-23T08:03:05Z</time>
      </trkpt>
      <trkpt lat="42.9897" lon="1.15121">
        <ele>394.6</ele>
        <time>2024-06-23T08:03:06Z</time>
      </trkpt>
      <trkpt lat="42.98969" lon="1.15123">
        <ele>395</ele>
        <time>2024-06-23T08:03:07Z</time>
      </trkpt>
      <trkpt lat="42.98968" lon="1.15124">
        <ele>395</ele>
        <time>2024-06-23T08:03:08Z</time>
      </trkpt>
      <trkpt lat="42.98967" lon="1.15127">
        <ele>395.2</ele>
        <time>2024-06-23T08:03:09Z</time>
      </trkpt>
      <trkpt lat="42.98967" lon="1.15131">
        <ele>395.2</ele>
        <time>2024-06-23T08:03:10Z</time>
      </trkpt>
      <trkpt lat="42.98967" lon="1.15135">
        <ele>395.2</ele>
        <time>2024-06-23T08:03:11Z</time>
      </trkpt>
      <trkpt lat="42.98969" lon="1.1514">
        <ele>395.2</ele>
        <time>2024-06-23T08:03:12Z</time>
      </trkpt>
      <trkpt lat="42.98971" lon="1.15144">
        <ele>395.6</ele>
        <time>2024-06-23T08:03:13Z</time>
      </trkpt>
      <trkpt lat="42.98974" lon="1.15149">
        <ele>395.6</ele>
        <time>2024-06-23T08:03:14Z</time>
      </trkpt>
      <trkpt lat="42.98976" lon="1.15154">
        <ele>395.6</ele>
        <time>2024-06-23T08:03:15Z</time>
      </trkpt>
      <trkpt lat="42.98979" lon="1.15159">
        <ele>395.6</ele>
        <time>2024-06-23T08:03:16Z</time>
      </trkpt>
      <trkpt lat="42.98981" lon="1.15164">
        <ele>395.4</ele>
        <time>2024-06-23T08:03:17Z</time>
      </trkpt>
      <trkpt lat="42.98983" lon="1.1517">
        <ele>395.4</ele>
        <time>2024-06-23T08:03:18Z</time>
      </trkpt>
      <trkpt lat="42.98985" lon="1.15175">
        <ele>395.4</ele>
        <time>2024-06-23T08:03:19Z</time>
      </trkpt>
      <trkpt lat="42.98988" lon="1.15181">
        <ele>395.4</ele>
        <time>2024-06-23T08:03:20Z</time>
      </trkpt>
      <trkpt lat="42.9899" lon="1.15187">
        <ele>395.4</ele>
        <time>2024-06-23T08:03:21Z</time>
      </trkpt>
      <trkpt lat="42.98993" lon="1.15193">
        <ele>395.6</ele>
        <time>2024-06-23T08:03:22Z</time>
      </trkpt>
      <trkpt lat="42.98995" lon="1.152">
        <ele>395.6</ele>
        <time>2024-06-23T08:03:23Z</time>
      </trkpt>
      <trkpt lat="42.98998" lon="1.15207">
        <ele>395.6</ele>
        <time>2024-06-23T08:03:24Z</time>
      </trkpt>
      <trkpt lat="42.99001" lon="1.15213">
        <ele>395.6</ele>
        <time>2024-06-23T08:03:25Z</time>
      </trkpt>
      <trkpt lat="42.99003" lon="1.15219">
        <ele>395.6</ele>
        <time>2024-06-23T08:03:26Z</time>
      </trkpt>
      <trkpt lat="42.99005" lon="1.15226">
        <ele>395.6</ele>
        <time>2024-06-23T08:03:27Z</time>
      </trkpt>
      <trkpt lat="42.99008" lon="1.15232">
        <ele>395.6</ele>
        <time>2024-06-23T08:03:28Z</time>
      </trkpt>
      <trkpt lat="42.99012" lon="1.15238">
        <ele>395.6</ele>
        <time>2024-06-23T08:03:29Z</time>
      </trkpt>
      <trkpt lat="42.99013" lon="1.15243">
        <ele>395.8</ele>
        <time>2024-06-23T08:03:30Z</time>
      </trkpt>
      <trkpt lat="42.99015" lon="1.15249">
        <ele>395.8</ele>
        <time>2024-06-23T08:03:31Z</time>
      </trkpt>
      <trkpt lat="42.99019" lon="1.15255">
        <ele>395.8</ele>
        <time>2024-06-23T08:03:32Z</time>
      </trkpt>
      <trkpt lat="42.99023" lon="1.15261">
        <ele>395.8</ele>
        <time>2024-06-23T08:03:33Z</time>
      </trkpt>
      <trkpt lat="42.99026" lon="1.15267">
        <ele>395.8</ele>
        <time>2024-06-23T08:03:34Z</time>
      </trkpt>
      <trkpt lat="42.9903" lon="1.15272">
        <ele>395.8</ele>
        <time>2024-06-23T08:03:35Z</time>
      </trkpt>
      <trkpt lat="42.99034" lon="1.15279">
        <ele>396.2</ele>
        <time>2024-06-23T08:03:36Z</time>
      </trkpt>
      <trkpt lat="42.99037" lon="1.15284">
        <ele>396.2</ele>
        <time>2024-06-23T08:03:37Z</time>
      </trkpt>
      <trkpt lat="42.99039" lon="1.15288">
        <ele>396.2</ele>
        <time>2024-06-23T08:03:38Z</time>
      </trkpt>
      <trkpt lat="42.99043" lon="1.15293">
        <ele>396.2</ele>
        <time>2024-06-23T08:03:39Z</time>
      </trkpt>
      <trkpt lat="42.99046" lon="1.15298">
        <ele>396.2</ele>
        <time>2024-06-23T08:03:40Z</time>
      </trkpt>
      <trkpt lat="42.9905" lon="1.15303">
        <ele>396.2</ele>
        <time>2024-06-23T08:03:41Z</time>
      </trkpt>
      <trkpt lat="42.99053" lon="1.15307">
        <ele>396.2</ele>
        <time>2024-06-23T08:03:42Z</time>
      </trkpt>
      <trkpt lat="42.99058" lon="1.15314">
        <ele>396.2</ele>
        <time>2024-06-23T08:03:43Z</time>
      </trkpt>
      <trkpt lat="42.99062" lon="1.15319">
        <ele>396.2</ele>
        <time>2024-06-23T08:03:44Z</time>
      </trkpt>
      <trkpt lat="42.99066" lon="1.15324">
        <ele>396.2</ele>
        <time>2024-06-23T08:03:45Z</time>
      </trkpt>
      <trkpt lat="42.9907" lon="1.1533">
        <ele>396.4</ele>
        <time>2024-06-23T08:03:46Z</time>
      </trkpt>
      <trkpt lat="42.99074" lon="1.15335">
        <ele>396.4</ele>
        <time>2024-06-23T08:03:47Z</time>
      </trkpt>
      <trkpt lat="42.99077" lon="1.15339">
        <ele>396.2</ele>
        <time>2024-06-23T08:03:48Z</time>
      </trkpt>
      <trkpt lat="42.99082" lon="1.15346">
        <ele>396.2</ele>
        <time>2024-06-23T08:03:49Z</time>
      </trkpt>
      <trkpt lat="42.99087" lon="1.15354">
        <ele>396.2</ele>
        <time>2024-06-23T08:03:50Z</time>
      </trkpt>
      <trkpt lat="42.99091" lon="1.15359">
        <ele>396.4</ele>
        <time>2024-06-23T08:03:51Z</time>
      </trkpt>
      <trkpt lat="42.99095" lon="1.15365">
        <ele>396.4</ele>
        <time>2024-06-23T08:03:52Z</time>
      </trkpt>
      <trkpt lat="42.99099" lon="1.1537">
        <ele>396.4</ele>
        <time>2024-06-23T08:03:53Z</time>
      </trkpt>
      <trkpt lat="42.99103" lon="1.15376">
        <ele>396.4</ele>
        <time>2024-06-23T08:03:54Z</time>
      </trkpt>
      <trkpt lat="42.99108" lon="1.15381">
        <ele>396.4</ele>
        <time>2024-06-23T08:03:55Z</time>
      </trkpt>
      <trkpt lat="42.99113" lon="1.15387">
        <ele>396.2</ele>
        <time>2024-06-23T08:03:56Z</time>
      </trkpt>
      <trkpt lat="42.99117" lon="1.15393">
        <ele>396.2</ele>
        <time>2024-06-23T08:03:57Z</time>
      </trkpt>
      <trkpt lat="42.99121" lon="1.15397">
        <ele>396.2</ele>
        <time>2024-06-23T08:03:58Z</time>
      </trkpt>
      <trkpt lat="42.99125" lon="1.15403">
        <ele>396.2</ele>
        <time>2024-06-23T08:03:59Z</time>
      </trkpt>
      <trkpt lat="42.99129" lon="1.15407">
        <ele>396.4</ele>
        <time>2024-06-23T08:04:00Z</time>
      </trkpt>
      <trkpt lat="42.99132" lon="1.15412">
        <ele>396.4</ele>
        <time>2024-06-23T08:04:01Z</time>
      </trkpt>
      <trkpt lat="42.99136" lon="1.15418">
        <ele>396.4</ele>
        <time>2024-06-23T08:04:02Z</time>
      </trkpt>
      <trkpt lat="42.99142" lon="1.15424">
        <ele>396.4</ele>
        <time>2024-06-23T08:04:03Z</time>
      </trkpt>
      <trkpt lat="42.99146" lon="1.1543">
        <ele>396.8</ele>
        <time>2024-06-23T08:04:04Z</time>
      </trkpt>
      <trkpt lat="42.99149" lon="1.15435">
        <ele>396.8</ele>
        <time>2024-06-23T08:04:05Z</time>
      </trkpt>
      <trkpt lat="42.99153" lon="1.1544">
        <ele>396.8</ele>
        <time>2024-06-23T08:04:06Z</time>
      </trkpt>
      <trkpt lat="42.99157" lon="1.15444">
        <ele>397</ele>
        <time>2024-06-23T08:04:07Z</time>
      </trkpt>
      <trkpt lat="42.99161" lon="1.15449">
        <ele>397</ele>
        <time>2024-06-23T08:04:08Z</time>
      </trkpt>
      <trkpt lat="42.99164" lon="1.15454">
        <ele>397</ele>
        <time>2024-06-23T08:04:09Z</time>
      </trkpt>
      <trkpt lat="42.99167" lon="1.15458">
        <ele>397.2</ele>
        <time>2024-06-23T08:04:10Z</time>
      </trkpt>
      <trkpt lat="42.99171" lon="1.15463">
        <ele>397.2</ele>
        <time>2024-06-23T08:04:11Z</time>
      </trkpt>
      <trkpt lat="42.99176" lon="1.15469">
        <ele>397.2</ele>
        <time>2024-06-23T08:04:12Z</time>
      </trkpt>
      <trkpt lat="42.99181" lon="1.15475">
        <ele>397.2</ele>
        <time>2024-06-23T08:04:13Z</time>
      </trkpt>
      <trkpt lat="42.99184" lon="1.1548">
        <ele>397.2</ele>
        <time>2024-06-23T08:04:14Z</time>
      </trkpt>
      <trkpt lat="42.99188" lon="1.15484">
        <ele>397.2</ele>
        <time>2024-06-23T08:04:15Z</time>
      </trkpt>
      <trkpt lat="42.99189" lon="1.1549">
        <ele>397.4</ele>
        <time>2024-06-23T08:04:16Z</time>
      </trkpt>
      <trkpt lat="42.99189" lon="1.15495">
        <ele>397.6</ele>
        <time>2024-06-23T08:04:17Z</time>
      </trkpt>
      <trkpt lat="42.99189" lon="1.155">
        <ele>397.8</ele>
        <time>2024-06-23T08:04:18Z</time>
      </trkpt>
      <trkpt lat="42.99188" lon="1.15505">
        <ele>397.8</ele>
        <time>2024-06-23T08:04:19Z</time>
      </trkpt>
      <trkpt lat="42.99187" lon="1.1551">
        <ele>398.2</ele>
        <time>2024-06-23T08:04:20Z</time>
      </trkpt>
      <trkpt lat="42.99186" lon="1.15513">
        <ele>398.2</ele>
        <time>2024-06-23T08:04:21Z</time>
      </trkpt>
      <trkpt lat="42.99187" lon="1.15517">
        <ele>398.4</ele>
        <time>2024-06-23T08:04:22Z</time>
      </trkpt>
      <trkpt lat="42.99187" lon="1.15519">
        <ele>398.6</ele>
        <time>2024-06-23T08:04:23Z</time>
      </trkpt>
      <trkpt lat="42.99186" lon="1.15521">
        <ele>398.6</ele>
        <time>2024-06-23T08:04:24Z</time>
      </trkpt>
      <trkpt lat="42.99185" lon="1.15526">
        <ele>398.6</ele>
        <time>2024-06-23T08:04:25Z</time>
      </trkpt>
      <trkpt lat="42.99185" lon="1.1553">
        <ele>398.6</ele>
        <time>2024-06-23T08:04:26Z</time>
      </trkpt>
      <trkpt lat="42.99184" lon="1.15537">
        <ele>398.6</ele>
        <time>2024-06-23T08:04:27Z</time>
      </trkpt>
      <trkpt lat="42.99185" lon="1.15543">
        <ele>398.6</ele>
        <time>2024-06-23T08:04:28Z</time>
      </trkpt>
      <trkpt lat="42.99186" lon="1.15549">
        <ele>398.6</ele>
        <time>2024-06-23T08:04:29Z</time>
      </trkpt>
      <trkpt lat="42.99188" lon="1.15554">
        <ele>398.8</ele>
        <time>2024-06-23T08:04:30Z</time>
      </trkpt>
      <trkpt lat="42.99191" lon="1.15559">
        <ele>398.8</ele>
        <time>2024-06-23T08:04:31Z</time>
      </trkpt>
      <trkpt lat="42.99194" lon="1.15565">
        <ele>398.8</ele>
        <time>2024-06-23T08:04:32Z</time>
      </trkpt>
      <trkpt lat="42.99197" lon="1.1557">
        <ele>398.8</ele>
        <time>2024-06-23T08:04:33Z</time>
      </trkpt>
      <trkpt lat="42.992" lon="1.15576">
        <ele>398.8</ele>
        <time>2024-06-23T08:04:34Z</time>
      </trkpt>
      <trkpt lat="42.99202" lon="1.15582">
        <ele>398.8</ele>
        <time>2024-06-23T08:04:35Z</time>
      </trkpt>
      <trkpt lat="42.99205" lon="1.15587">
        <ele>398.8</ele>
        <time>2024-06-23T08:04:36Z</time>
      </trkpt>
      <trkpt lat="42.99208" lon="1.15594">
        <ele>398.8</ele>
        <time>2024-06-23T08:04:37Z</time>
      </trkpt>
      <trkpt lat="42.99212" lon="1.15599">
        <ele>398.8</ele>
        <time>2024-06-23T08:04:38Z</time>
      </trkpt>
      <trkpt lat="42.99214" lon="1.15605">
        <ele>398.8</ele>
        <time>2024-06-23T08:04:39Z</time>
      </trkpt>
      <trkpt lat="42.99217" lon="1.15611">
        <ele>398.8</ele>
        <time>2024-06-23T08:04:40Z</time>
      </trkpt>
      <trkpt lat="42.9922" lon="1.15617">
        <ele>398.8</ele>
        <time>2024-06-23T08:04:41Z</time>
      </trkpt>
      <trkpt lat="42.99223" lon="1.15623">
        <ele>398.8</ele>
        <time>2024-06-23T08:04:42Z</time>
      </trkpt>
      <trkpt lat="42.99224" lon="1.1563">
        <ele>398.8</ele>
        <time>2024-06-23T08:04:43Z</time>
      </trkpt>
      <trkpt lat="42.99225" lon="1.15638">
        <ele>398.4</ele>
        <time>2024-06-23T08:04:44Z</time>
      </trkpt>
      <trkpt lat="42.99225" lon="1.15645">
        <ele>398.4</ele>
        <time>2024-06-23T08:04:45Z</time>
      </trkpt>
      <trkpt lat="42.99224" lon="1.15653">
        <ele>398.2</ele>
        <time>2024-06-23T08:04:46Z</time>
      </trkpt>
      <trkpt lat="42.99223" lon="1.15661">
        <ele>398.2</ele>
        <time>2024-06-23T08:04:47Z</time>
      </trkpt>
      <trkpt lat="42.99223" lon="1.15669">
        <ele>398.2</ele>
        <time>2024-06-23T08:04:48Z</time>
      </trkpt>
      <trkpt lat="42.99222" lon="1.15676">
        <ele>398.2</ele>
        <time>2024-06-23T08:04:49Z</time>
      </trkpt>
      <trkpt lat="42.99221" lon="1.15684">
        <ele>398.2</ele>
        <time>2024-06-23T08:04:50Z</time>
      </trkpt>
      <trkpt lat="42.99218" lon="1.15692">
        <ele>397.8</ele>
        <time>2024-06-23T08:04:51Z</time>
      </trkpt>
      <trkpt lat="42.99215" lon="1.157">
        <ele>397.6</ele>
        <time>2024-06-23T08:04:52Z</time>
      </trkpt>
      <trkpt lat="42.99212" lon="1.15707">
        <ele>397.2</ele>
        <time>2024-06-23T08:04:53Z</time>
      </trkpt>
      <trkpt lat="42.99209" lon="1.15715">
        <ele>397.2</ele>
        <time>2024-06-23T08:04:54Z</time>
      </trkpt>
      <trkpt lat="42.99205" lon="1.15721">
        <ele>397.2</ele>
        <time>2024-06-23T08:04:55Z</time>
      </trkpt>
      <trkpt lat="42.99201" lon="1.15727">
        <ele>397.2</ele>
        <time>2024-06-23T08:04:56Z</time>
      </trkpt>
      <trkpt lat="42.99196" lon="1.15731">
        <ele>397.2</ele>
        <time>2024-06-23T08:04:57Z</time>
      </trkpt>
      <trkpt lat="42.99191" lon="1.15735">
        <ele>397.6</ele>
        <time>2024-06-23T08:04:58Z</time>
      </trkpt>
      <trkpt lat="42.99189" lon="1.15737">
        <ele>397.6</ele>
        <time>2024-06-23T08:04:59Z</time>
      </trkpt>
      <trkpt lat="42.99186" lon="1.15739">
        <ele>397.8</ele>
        <time>2024-06-23T08:05:00Z</time>
      </trkpt>
      <trkpt lat="42.99182" lon="1.15743">
        <ele>397.8</ele>
        <time>2024-06-23T08:05:01Z</time>
      </trkpt>
      <trkpt lat="42.99177" lon="1.15748">
        <ele>397.8</ele>
        <time>2024-06-23T08:05:02Z</time>
      </trkpt>
      <trkpt lat="42.99175" lon="1.15753">
        <ele>397.8</ele>
        <time>2024-06-23T08:05:03Z</time>
      </trkpt>
      <trkpt lat="42.9917" lon="1.15756">
        <ele>397.8</ele>
        <time>2024-06-23T08:05:04Z</time>
      </trkpt>
      <trkpt lat="42.99166" lon="1.15761">
        <ele>398.2</ele>
        <time>2024-06-23T08:05:05Z</time>
      </trkpt>
      <trkpt lat="42.99161" lon="1.15765">
        <ele>398.2</ele>
        <time>2024-06-23T08:05:06Z</time>
      </trkpt>
      <trkpt lat="42.99156" lon="1.15771">
        <ele>398.2</ele>
        <time>2024-06-23T08:05:07Z</time>
      </trkpt>
      <trkpt lat="42.99151" lon="1.15775">
        <ele>398.4</ele>
        <time>2024-06-23T08:05:08Z</time>
      </trkpt>
      <trkpt lat="42.99146" lon="1.15777">
        <ele>398.4</ele>
        <time>2024-06-23T08:05:09Z</time>
      </trkpt>
      <trkpt lat="42.99141" lon="1.15781">
        <ele>398.4</ele>
        <time>2024-06-23T08:05:10Z</time>
      </trkpt>
      <trkpt lat="42.99137" lon="1.15785">
        <ele>398.4</ele>
        <time>2024-06-23T08:05:11Z</time>
      </trkpt>
      <trkpt lat="42.99133" lon="1.15789">
        <ele>398.8</ele>
        <time>2024-06-23T08:05:12Z</time>
      </trkpt>
      <trkpt lat="42.99129" lon="1.15794">
        <ele>399.2</ele>
        <time>2024-06-23T08:05:13Z</time>
      </trkpt>
      <trkpt lat="42.99126" lon="1.15798">
        <ele>399.2</ele>
        <time>2024-06-23T08:05:14Z</time>
      </trkpt>
      <trkpt lat="42.99123" lon="1.15803">
        <ele>399.4</ele>
        <time>2024-06-23T08:05:15Z</time>
      </trkpt>
      <trkpt lat="42.99119" lon="1.15808">
        <ele>399.4</ele>
        <time>2024-06-23T08:05:16Z</time>
      </trkpt>
      <trkpt lat="42.99115" lon="1.15814">
        <ele>399.4</ele>
        <time>2024-06-23T08:05:17Z</time>
      </trkpt>
      <trkpt lat="42.99112" lon="1.1582">
        <ele>399.4</ele>
        <time>2024-06-23T08:05:18Z</time>
      </trkpt>
      <trkpt lat="42.99108" lon="1.15827">
        <ele>399.8</ele>
        <time>2024-06-23T08:05:19Z</time>
      </trkpt>
      <trkpt lat="42.99104" lon="1.15835">
        <ele>399.8</ele>
        <time>2024-06-23T08:05:20Z</time>
      </trkpt>
      <trkpt lat="42.99101" lon="1.15843">
        <ele>399.8</ele>
        <time>2024-06-23T08:05:21Z</time>
      </trkpt>
      <trkpt lat="42.99098" lon="1.15849">
        <ele>399.8</ele>
        <time>2024-06-23T08:05:22Z</time>
      </trkpt>
      <trkpt lat="42.99095" lon="1.15854">
        <ele>399.8</ele>
        <time>2024-06-23T08:05:23Z</time>
      </trkpt>
      <trkpt lat="42.9909" lon="1.15859">
        <ele>400</ele>
        <time>2024-06-23T08:05:24Z</time>
      </trkpt>
      <trkpt lat="42.99087" lon="1.15866">
        <ele>400</ele>
        <time>2024-06-23T08:05:25Z</time>
      </trkpt>
      <trkpt lat="42.99083" lon="1.15872">
        <ele>400</ele>
        <time>2024-06-23T08:05:26Z</time>
      </trkpt>
      <trkpt lat="42.9908" lon="1.15878">
        <ele>400</ele>
        <time>2024-06-23T08:05:27Z</time>
      </trkpt>
      <trkpt lat="42.99076" lon="1.15883">
        <ele>400</ele>
        <time>2024-06-23T08:05:28Z</time>
      </trkpt>
      <trkpt lat="42.99073" lon="1.15889">
        <ele>400</ele>
        <time>2024-06-23T08:05:29Z</time>
      </trkpt>
      <trkpt lat="42.99071" lon="1.15894">
        <ele>400</ele>
        <time>2024-06-23T08:05:30Z</time>
      </trkpt>
      <trkpt lat="42.99067" lon="1.159">
        <ele>400</ele>
        <time>2024-06-23T08:05:31Z</time>
      </trkpt>
      <trkpt lat="42.99064" lon="1.15904">
        <ele>400.2</ele>
        <time>2024-06-23T08:05:32Z</time>
      </trkpt>
      <trkpt lat="42.99062" lon="1.1591">
        <ele>400.2</ele>
        <time>2024-06-23T08:05:33Z</time>
      </trkpt>
      <trkpt lat="42.99061" lon="1.15915">
        <ele>400.2</ele>
        <time>2024-06-23T08:05:34Z</time>
      </trkpt>
      <trkpt lat="42.99058" lon="1.15921">
        <ele>400.8</ele>
        <time>2024-06-23T08:05:35Z</time>
      </trkpt>
      <trkpt lat="42.99056" lon="1.15925">
        <ele>401.2</ele>
        <time>2024-06-23T08:05:36Z</time>
      </trkpt>
      <trkpt lat="42.99053" lon="1.1593">
        <ele>401.6</ele>
        <time>2024-06-23T08:05:37Z</time>
      </trkpt>
      <trkpt lat="42.99051" lon="1.15935">
        <ele>402</ele>
        <time>2024-06-23T08:05:38Z</time>
      </trkpt>
      <trkpt lat="42.99048" lon="1.1594">
        <ele>402.2</ele>
        <time>2024-06-23T08:05:39Z</time>
      </trkpt>
      <trkpt lat="42.99046" lon="1.15945">
        <ele>402.6</ele>
        <time>2024-06-23T08:05:40Z</time>
      </trkpt>
      <trkpt lat="42.99044" lon="1.15949">
        <ele>402.8</ele>
        <time>2024-06-23T08:05:41Z</time>
      </trkpt>
      <trkpt lat="42.99042" lon="1.15954">
        <ele>402.8</ele>
        <time>2024-06-23T08:05:42Z</time>
      </trkpt>
      <trkpt lat="42.9904" lon="1.15959">
        <ele>403.4</ele>
        <time>2024-06-23T08:05:43Z</time>
      </trkpt>
      <trkpt lat="42.99039" lon="1.15964">
        <ele>403.6</ele>
        <time>2024-06-23T08:05:44Z</time>
      </trkpt>
      <trkpt lat="42.99041" lon="1.15968">
        <ele>403.6</ele>
        <time>2024-06-23T08:05:45Z</time>
      </trkpt>
      <trkpt lat="42.9904" lon="1.15975">
        <ele>404</ele>
        <time>2024-06-23T08:05:46Z</time>
      </trkpt>
      <trkpt lat="42.99039" lon="1.15981">
        <ele>404</ele>
        <time>2024-06-23T08:05:47Z</time>
      </trkpt>
      <trkpt lat="42.99038" lon="1.15987">
        <ele>404.2</ele>
        <time>2024-06-23T08:05:48Z</time>
      </trkpt>
      <trkpt lat="42.99039" lon="1.15993">
        <ele>404.4</ele>
        <time>2024-06-23T08:05:49Z</time>
      </trkpt>
      <trkpt lat="42.99039" lon="1.15999">
        <ele>404.4</ele>
        <time>2024-06-23T08:05:50Z</time>
      </trkpt>
      <trkpt lat="42.99038" lon="1.16004">
        <ele>404.4</ele>
        <time>2024-06-23T08:05:51Z</time>
      </trkpt>
      <trkpt lat="42.99037" lon="1.1601">
        <ele>404.4</ele>
        <time>2024-06-23T08:05:52Z</time>
      </trkpt>
      <trkpt lat="42.99036" lon="1.16016">
        <ele>404.4</ele>
        <time>2024-06-23T08:05:53Z</time>
      </trkpt>
      <trkpt lat="42.99036" lon="1.16024">
        <ele>404.4</ele>
        <time>2024-06-23T08:05:54Z</time>
      </trkpt>
      <trkpt lat="42.99035" lon="1.16031">
        <ele>404.4</ele>
        <time>2024-06-23T08:05:55Z</time>
      </trkpt>
      <trkpt lat="42.99035" lon="1.16039">
        <ele>404.8</ele>
        <time>2024-06-23T08:05:56Z</time>
      </trkpt>
      <trkpt lat="42.99035" lon="1.16045">
        <ele>404.8</ele>
        <time>2024-06-23T08:05:57Z</time>
      </trkpt>
      <trkpt lat="42.99034" lon="1.16053">
        <ele>404.8</ele>
        <time>2024-06-23T08:05:58Z</time>
      </trkpt>
      <trkpt lat="42.99033" lon="1.1606">
        <ele>405</ele>
        <time>2024-06-23T08:05:59Z</time>
      </trkpt>
      <trkpt lat="42.99033" lon="1.16067">
        <ele>405</ele>
        <time>2024-06-23T08:06:00Z</time>
      </trkpt>
      <trkpt lat="42.99032" lon="1.16072">
        <ele>405</ele>
        <time>2024-06-23T08:06:01Z</time>
      </trkpt>
      <trkpt lat="42.99034" lon="1.16078">
        <ele>405.4</ele>
        <time>2024-06-23T08:06:02Z</time>
      </trkpt>
      <trkpt lat="42.99033" lon="1.16083">
        <ele>405.4</ele>
        <time>2024-06-23T08:06:03Z</time>
      </trkpt>
      <trkpt lat="42.99034" lon="1.16089">
        <ele>405.6</ele>
        <time>2024-06-23T08:06:04Z</time>
      </trkpt>
      <trkpt lat="42.99034" lon="1.16095">
        <ele>406</ele>
        <time>2024-06-23T08:06:05Z</time>
      </trkpt>
      <trkpt lat="42.99034" lon="1.161">
        <ele>406.2</ele>
        <time>2024-06-23T08:06:06Z</time>
      </trkpt>
      <trkpt lat="42.99034" lon="1.16106">
        <ele>406.4</ele>
        <time>2024-06-23T08:06:07Z</time>
      </trkpt>
      <trkpt lat="42.99034" lon="1.16113">
        <ele>406.8</ele>
        <time>2024-06-23T08:06:08Z</time>
      </trkpt>
      <trkpt lat="42.99034" lon="1.1612">
        <ele>406.8</ele>
        <time>2024-06-23T08:06:09Z</time>
      </trkpt>
      <trkpt lat="42.99033" lon="1.16125">
        <ele>407.2</ele>
        <time>2024-06-23T08:06:10Z</time>
      </trkpt>
      <trkpt lat="42.99032" lon="1.16131">
        <ele>407.2</ele>
        <time>2024-06-23T08:06:11Z</time>
      </trkpt>
      <trkpt lat="42.99033" lon="1.16137">
        <ele>407.6</ele>
        <time>2024-06-23T08:06:12Z</time>
      </trkpt>
      <trkpt lat="42.99036" lon="1.16145">
        <ele>407.6</ele>
        <time>2024-06-23T08:06:13Z</time>
      </trkpt>
      <trkpt lat="42.99037" lon="1.1615">
        <ele>408</ele>
        <time>2024-06-23T08:06:14Z</time>
      </trkpt>
      <trkpt lat="42.99037" lon="1.16157">
        <ele>408</ele>
        <time>2024-06-23T08:06:15Z</time>
      </trkpt>
      <trkpt lat="42.99038" lon="1.16163">
        <ele>408</ele>
        <time>2024-06-23T08:06:16Z</time>
      </trkpt>
      <trkpt lat="42.9904" lon="1.1617">
        <ele>408</ele>
        <time>2024-06-23T08:06:17Z</time>
      </trkpt>
      <trkpt lat="42.99039" lon="1.16175">
        <ele>408</ele>
        <time>2024-06-23T08:06:18Z</time>
      </trkpt>
      <trkpt lat="42.99039" lon="1.16181">
        <ele>408.4</ele>
        <time>2024-06-23T08:06:19Z</time>
      </trkpt>
      <trkpt lat="42.99036" lon="1.16186">
        <ele>408.4</ele>
        <time>2024-06-23T08:06:20Z</time>
      </trkpt>
      <trkpt lat="42.99034" lon="1.16191">
        <ele>408.8</ele>
        <time>2024-06-23T08:06:21Z</time>
      </trkpt>
      <trkpt lat="42.99033" lon="1.16197">
        <ele>408.8</ele>
        <time>2024-06-23T08:06:22Z</time>
      </trkpt>
      <trkpt lat="42.9903" lon="1.16203">
        <ele>409.4</ele>
        <time>2024-06-23T08:06:23Z</time>
      </trkpt>
      <trkpt lat="42.99026" lon="1.16207">
        <ele>409.4</ele>
        <time>2024-06-23T08:06:24Z</time>
      </trkpt>
      <trkpt lat="42.99023" lon="1.16213">
        <ele>409.6</ele>
        <time>2024-06-23T08:06:25Z</time>
      </trkpt>
      <trkpt lat="42.99022" lon="1.16217">
        <ele>409.6</ele>
        <time>2024-06-23T08:06:26Z</time>
      </trkpt>
      <trkpt lat="42.99021" lon="1.16221">
        <ele>409.6</ele>
        <time>2024-06-23T08:06:27Z</time>
      </trkpt>
      <trkpt lat="42.99021" lon="1.16225">
        <ele>410</ele>
        <time>2024-06-23T08:06:28Z</time>
      </trkpt>
      <trkpt lat="42.99021" lon="1.16228">
        <ele>410</ele>
        <time>2024-06-23T08:06:29Z</time>
      </trkpt>
      <trkpt lat="42.99023" lon="1.16231">
        <ele>409.6</ele>
        <time>2024-06-23T08:06:30Z</time>
      </trkpt>
      <trkpt lat="42.99028" lon="1.16234">
        <ele>409.2</ele>
        <time>2024-06-23T08:06:31Z</time>
      </trkpt>
      <trkpt lat="42.99032" lon="1.16235">
        <ele>409.2</ele>
        <time>2024-06-23T08:06:32Z</time>
      </trkpt>
      <trkpt lat="42.99038" lon="1.16234">
        <ele>408.4</ele>
        <time>2024-06-23T08:06:33Z</time>
      </trkpt>
      <trkpt lat="42.99044" lon="1.16234">
        <ele>408</ele>
        <time>2024-06-23T08:06:34Z</time>
      </trkpt>
      <trkpt lat="42.99051" lon="1.16233">
        <ele>407.4</ele>
        <time>2024-06-23T08:06:35Z</time>
      </trkpt>
      <trkpt lat="42.99057" lon="1.16233">
        <ele>407</ele>
        <time>2024-06-23T08:06:36Z</time>
      </trkpt>
      <trkpt lat="42.99064" lon="1.16233">
        <ele>406.4</ele>
        <time>2024-06-23T08:06:37Z</time>
      </trkpt>
      <trkpt lat="42.99071" lon="1.16233">
        <ele>405.4</ele>
        <time>2024-06-23T08:06:38Z</time>
      </trkpt>
      <trkpt lat="42.99077" lon="1.16235">
        <ele>404.6</ele>
        <time>2024-06-23T08:06:39Z</time>
      </trkpt>
      <trkpt lat="42.99083" lon="1.16238">
        <ele>404.4</ele>
        <time>2024-06-23T08:06:40Z</time>
      </trkpt>
      <trkpt lat="42.99088" lon="1.16243">
        <ele>404</ele>
        <time>2024-06-23T08:06:41Z</time>
      </trkpt>
      <trkpt lat="42.9909" lon="1.16248">
        <ele>404</ele>
        <time>2024-06-23T08:06:42Z</time>
      </trkpt>
      <trkpt lat="42.99094" lon="1.16254">
        <ele>403.2</ele>
        <time>2024-06-23T08:06:43Z</time>
      </trkpt>
      <trkpt lat="42.99095" lon="1.16262">
        <ele>403.2</ele>
        <time>2024-06-23T08:06:44Z</time>
      </trkpt>
      <trkpt lat="42.99095" lon="1.16269">
        <ele>403.2</ele>
        <time>2024-06-23T08:06:45Z</time>
      </trkpt>
      <trkpt lat="42.99095" lon="1.16275">
        <ele>403.2</ele>
        <time>2024-06-23T08:06:46Z</time>
      </trkpt>
      <trkpt lat="42.99097" lon="1.16281">
        <ele>403.2</ele>
        <time>2024-06-23T08:06:47Z</time>
      </trkpt>
      <trkpt lat="42.99099" lon="1.16288">
        <ele>403.2</ele>
        <time>2024-06-23T08:06:48Z</time>
      </trkpt>
      <trkpt lat="42.99101" lon="1.16296">
        <ele>403.2</ele>
        <time>2024-06-23T08:06:49Z</time>
      </trkpt>
      <trkpt lat="42.99101" lon="1.16304">
        <ele>403.2</ele>
        <time>2024-06-23T08:06:50Z</time>
      </trkpt>
      <trkpt lat="42.99103" lon="1.16311">
        <ele>403.2</ele>
        <time>2024-06-23T08:06:51Z</time>
      </trkpt>
      <trkpt lat="42.99105" lon="1.16318">
        <ele>403.6</ele>
        <time>2024-06-23T08:06:52Z</time>
      </trkpt>
      <trkpt lat="42.99107" lon="1.16324">
        <ele>403.6</ele>
        <time>2024-06-23T08:06:53Z</time>
      </trkpt>
      <trkpt lat="42.99106" lon="1.16329">
        <ele>403.6</ele>
        <time>2024-06-23T08:06:54Z</time>
      </trkpt>
      <trkpt lat="42.99108" lon="1.16337">
        <ele>403.6</ele>
        <time>2024-06-23T08:06:55Z</time>
      </trkpt>
      <trkpt lat="42.9911" lon="1.16342">
        <ele>403.6</ele>
        <time>2024-06-23T08:06:56Z</time>
      </trkpt>
      <trkpt lat="42.99111" lon="1.16349">
        <ele>403.6</ele>
        <time>2024-06-23T08:06:57Z</time>
      </trkpt>
      <trkpt lat="42.99112" lon="1.16354">
        <ele>403.6</ele>
        <time>2024-06-23T08:06:58Z</time>
      </trkpt>
      <trkpt lat="42.99113" lon="1.16362">
        <ele>403.6</ele>
        <time>2024-06-23T08:06:59Z</time>
      </trkpt>
      <trkpt lat="42.99115" lon="1.16369">
        <ele>403.4</ele>
        <time>2024-06-23T08:07:00Z</time>
      </trkpt>
      <trkpt lat="42.99118" lon="1.16375">
        <ele>403.4</ele>
        <time>2024-06-23T08:07:01Z</time>
      </trkpt>
      <trkpt lat="42.99118" lon="1.16384">
        <ele>403.6</ele>
        <time>2024-06-23T08:07:02Z</time>
      </trkpt>
      <trkpt lat="42.9912" lon="1.16392">
        <ele>403.6</ele>
        <time>2024-06-23T08:07:03Z</time>
      </trkpt>
      <trkpt lat="42.99121" lon="1.164">
        <ele>403.2</ele>
        <time>2024-06-23T08:07:04Z</time>
      </trkpt>
      <trkpt lat="42.99122" lon="1.16407">
        <ele>403.2</ele>
        <time>2024-06-23T08:07:05Z</time>
      </trkpt>
      <trkpt lat="42.99124" lon="1.16415">
        <ele>403.4</ele>
        <time>2024-06-23T08:07:06Z</time>
      </trkpt>
      <trkpt lat="42.99125" lon="1.16422">
        <ele>403.8</ele>
        <time>2024-06-23T08:07:07Z</time>
      </trkpt>
      <trkpt lat="42.99126" lon="1.16429">
        <ele>403.8</ele>
        <time>2024-06-23T08:07:08Z</time>
      </trkpt>
      <trkpt lat="42.99129" lon="1.16437">
        <ele>403.4</ele>
        <time>2024-06-23T08:07:09Z</time>
      </trkpt>
      <trkpt lat="42.99131" lon="1.16443">
        <ele>403.4</ele>
        <time>2024-06-23T08:07:10Z</time>
      </trkpt>
      <trkpt lat="42.99133" lon="1.16451">
        <ele>403</ele>
        <time>2024-06-23T08:07:11Z</time>
      </trkpt>
      <trkpt lat="42.99136" lon="1.16457">
        <ele>403</ele>
        <time>2024-06-23T08:07:12Z</time>
      </trkpt>
      <trkpt lat="42.99138" lon="1.16465">
        <ele>403</ele>
        <time>2024-06-23T08:07:13Z</time>
      </trkpt>
      <trkpt lat="42.9914" lon="1.16472">
        <ele>403.8</ele>
        <time>2024-06-23T08:07:14Z</time>
      </trkpt>
      <trkpt lat="42.99142" lon="1.1648">
        <ele>403.4</ele>
        <time>2024-06-23T08:07:15Z</time>
      </trkpt>
      <trkpt lat="42.99143" lon="1.1649">
        <ele>403.4</ele>
        <time>2024-06-23T08:07:16Z</time>
      </trkpt>
      <trkpt lat="42.99143" lon="1.16497">
        <ele>403.6</ele>
        <time>2024-06-23T08:07:17Z</time>
      </trkpt>
      <trkpt lat="42.99144" lon="1.16505">
        <ele>403.4</ele>
        <time>2024-06-23T08:07:18Z</time>
      </trkpt>
      <trkpt lat="42.99145" lon="1.16513">
        <ele>403.2</ele>
        <time>2024-06-23T08:07:19Z</time>
      </trkpt>
      <trkpt lat="42.99148" lon="1.16519">
        <ele>403.2</ele>
        <time>2024-06-23T08:07:20Z</time>
      </trkpt>
      <trkpt lat="42.99152" lon="1.16527">
        <ele>402.8</ele>
        <time>2024-06-23T08:07:21Z</time>
      </trkpt>
      <trkpt lat="42.99154" lon="1.16533">
        <ele>402.8</ele>
        <time>2024-06-23T08:07:22Z</time>
      </trkpt>
      <trkpt lat="42.99156" lon="1.16541">
        <ele>402.8</ele>
        <time>2024-06-23T08:07:23Z</time>
      </trkpt>
      <trkpt lat="42.99158" lon="1.16548">
        <ele>403</ele>
        <time>2024-06-23T08:07:24Z</time>
      </trkpt>
      <trkpt lat="42.99159" lon="1.16556">
        <ele>403</ele>
        <time>2024-06-23T08:07:25Z</time>
      </trkpt>
      <trkpt lat="42.99162" lon="1.16563">
        <ele>403</ele>
        <time>2024-06-23T08:07:26Z</time>
      </trkpt>
      <trkpt lat="42.99164" lon="1.16569">
        <ele>403</ele>
        <time>2024-06-23T08:07:27Z</time>
      </trkpt>
      <trkpt lat="42.99165" lon="1.16575">
        <ele>402.8</ele>
        <time>2024-06-23T08:07:28Z</time>
      </trkpt>
      <trkpt lat="42.99165" lon="1.1658">
        <ele>403</ele>
        <time>2024-06-23T08:07:29Z</time>
      </trkpt>
      <trkpt lat="42.99168" lon="1.16586">
        <ele>403.2</ele>
        <time>2024-06-23T08:07:30Z</time>
      </trkpt>
      <trkpt lat="42.99169" lon="1.1659">
        <ele>403</ele>
        <time>2024-06-23T08:07:31Z</time>
      </trkpt>
      <trkpt lat="42.9917" lon="1.16598">
        <ele>403</ele>
        <time>2024-06-23T08:07:32Z</time>
      </trkpt>
      <trkpt lat="42.99172" lon="1.16602">
        <ele>402.8</ele>
        <time>2024-06-23T08:07:33Z</time>
      </trkpt>
      <trkpt lat="42.99175" lon="1.16609">
        <ele>402.8</ele>
        <time>2024-06-23T08:07:34Z</time>
      </trkpt>
      <trkpt lat="42.99178" lon="1.16619">
        <ele>403</ele>
        <time>2024-06-23T08:07:35Z</time>
      </trkpt>
      <trkpt lat="42.99182" lon="1.16625">
        <ele>402.8</ele>
        <time>2024-06-23T08:07:36Z</time>
      </trkpt>
      <trkpt lat="42.99184" lon="1.16631">
        <ele>402.8</ele>
        <time>2024-06-23T08:07:37Z</time>
      </trkpt>
      <trkpt lat="42.99188" lon="1.1664">
        <ele>402.8</ele>
        <time>2024-06-23T08:07:38Z</time>
      </trkpt>
      <trkpt lat="42.99192" lon="1.16644">
        <ele>402.8</ele>
        <time>2024-06-23T08:07:39Z</time>
      </trkpt>
      <trkpt lat="42.99195" lon="1.1665">
        <ele>402.8</ele>
        <time>2024-06-23T08:07:40Z</time>
      </trkpt>
      <trkpt lat="42.99195" lon="1.16658">
        <ele>403</ele>
        <time>2024-06-23T08:07:41Z</time>
      </trkpt>
      <trkpt lat="42.99199" lon="1.16668">
        <ele>403</ele>
        <time>2024-06-23T08:07:42Z</time>
      </trkpt>
      <trkpt lat="42.99203" lon="1.16674">
        <ele>403</ele>
        <time>2024-06-23T08:07:43Z</time>
      </trkpt>
      <trkpt lat="42.99207" lon="1.1668">
        <ele>403</ele>
        <time>2024-06-23T08:07:44Z</time>
      </trkpt>
      <trkpt lat="42.99209" lon="1.16684">
        <ele>402.8</ele>
        <time>2024-06-23T08:07:45Z</time>
      </trkpt>
      <trkpt lat="42.99212" lon="1.16691">
        <ele>402.8</ele>
        <time>2024-06-23T08:07:46Z</time>
      </trkpt>
      <trkpt lat="42.99215" lon="1.16699">
        <ele>402.8</ele>
        <time>2024-06-23T08:07:47Z</time>
      </trkpt>
      <trkpt lat="42.99216" lon="1.16706">
        <ele>402.8</ele>
        <time>2024-06-23T08:07:48Z</time>
      </trkpt>
      <trkpt lat="42.9922" lon="1.16712">
        <ele>402.8</ele>
        <time>2024-06-23T08:07:49Z</time>
      </trkpt>
      <trkpt lat="42.99223" lon="1.16718">
        <ele>403.6</ele>
        <time>2024-06-23T08:07:50Z</time>
      </trkpt>
      <trkpt lat="42.99226" lon="1.16724">
        <ele>403.6</ele>
        <time>2024-06-23T08:07:51Z</time>
      </trkpt>
      <trkpt lat="42.99228" lon="1.16727">
        <ele>403.6</ele>
        <time>2024-06-23T08:07:52Z</time>
      </trkpt>
      <trkpt lat="42.9923" lon="1.16734">
        <ele>403.6</ele>
        <time>2024-06-23T08:07:53Z</time>
      </trkpt>
      <trkpt lat="42.99233" lon="1.1674">
        <ele>403.6</ele>
        <time>2024-06-23T08:07:54Z</time>
      </trkpt>
      <trkpt lat="42.99235" lon="1.16747">
        <ele>403</ele>
        <time>2024-06-23T08:07:55Z</time>
      </trkpt>
      <trkpt lat="42.99238" lon="1.16756">
        <ele>403</ele>
        <time>2024-06-23T08:07:56Z</time>
      </trkpt>
      <trkpt lat="42.9924" lon="1.16763">
        <ele>403.4</ele>
        <time>2024-06-23T08:07:57Z</time>
      </trkpt>
      <trkpt lat="42.99241" lon="1.16769">
        <ele>403.4</ele>
        <time>2024-06-23T08:07:58Z</time>
      </trkpt>
      <trkpt lat="42.99245" lon="1.16776">
        <ele>403</ele>
        <time>2024-06-23T08:07:59Z</time>
      </trkpt>
      <trkpt lat="42.99248" lon="1.16785">
        <ele>403.2</ele>
        <time>2024-06-23T08:08:00Z</time>
      </trkpt>
      <trkpt lat="42.99252" lon="1.16791">
        <ele>403.2</ele>
        <time>2024-06-23T08:08:01Z</time>
      </trkpt>
      <trkpt lat="42.99255" lon="1.168">
        <ele>402.8</ele>
        <time>2024-06-23T08:08:02Z</time>
      </trkpt>
      <trkpt lat="42.99259" lon="1.16807">
        <ele>403.2</ele>
        <time>2024-06-23T08:08:03Z</time>
      </trkpt>
      <trkpt lat="42.99261" lon="1.16815">
        <ele>403.8</ele>
        <time>2024-06-23T08:08:04Z</time>
      </trkpt>
      <trkpt lat="42.99265" lon="1.16821">
        <ele>403.8</ele>
        <time>2024-06-23T08:08:05Z</time>
      </trkpt>
      <trkpt lat="42.99268" lon="1.16829">
        <ele>403.8</ele>
        <time>2024-06-23T08:08:06Z</time>
      </trkpt>
      <trkpt lat="42.9927" lon="1.16836">
        <ele>403.8</ele>
        <time>2024-06-23T08:08:07Z</time>
      </trkpt>
      <trkpt lat="42.99271" lon="1.1684">
        <ele>403.8</ele>
        <time>2024-06-23T08:08:08Z</time>
      </trkpt>
      <trkpt lat="42.99272" lon="1.16846">
        <ele>403.8</ele>
        <time>2024-06-23T08:08:09Z</time>
      </trkpt>
      <trkpt lat="42.99273" lon="1.16852">
        <ele>403.4</ele>
        <time>2024-06-23T08:08:10Z</time>
      </trkpt>
      <trkpt lat="42.99275" lon="1.16857">
        <ele>403.6</ele>
        <time>2024-06-23T08:08:11Z</time>
      </trkpt>
      <trkpt lat="42.99278" lon="1.16867">
        <ele>403.6</ele>
        <time>2024-06-23T08:08:12Z</time>
      </trkpt>
      <trkpt lat="42.99276" lon="1.16875">
        <ele>403.6</ele>
        <time>2024-06-23T08:08:13Z</time>
      </trkpt>
      <trkpt lat="42.99279" lon="1.16882">
        <ele>403.8</ele>
        <time>2024-06-23T08:08:14Z</time>
      </trkpt>
      <trkpt lat="42.99282" lon="1.16888">
        <ele>403.8</ele>
        <time>2024-06-23T08:08:15Z</time>
      </trkpt>
      <trkpt lat="42.99283" lon="1.16894">
        <ele>403.8</ele>
        <time>2024-06-23T08:08:16Z</time>
      </trkpt>
      <trkpt lat="42.99285" lon="1.16901">
        <ele>403.8</ele>
        <time>2024-06-23T08:08:17Z</time>
      </trkpt>
      <trkpt lat="42.99286" lon="1.16905">
        <ele>404.2</ele>
        <time>2024-06-23T08:08:18Z</time>
      </trkpt>
      <trkpt lat="42.99287" lon="1.16914">
        <ele>404.2</ele>
        <time>2024-06-23T08:08:19Z</time>
      </trkpt>
      <trkpt lat="42.99289" lon="1.16922">
        <ele>404.2</ele>
        <time>2024-06-23T08:08:20Z</time>
      </trkpt>
      <trkpt lat="42.99292" lon="1.16929">
        <ele>404.2</ele>
        <time>2024-06-23T08:08:21Z</time>
      </trkpt>
      <trkpt lat="42.99295" lon="1.16937">
        <ele>404.4</ele>
        <time>2024-06-23T08:08:22Z</time>
      </trkpt>
      <trkpt lat="42.99297" lon="1.1694">
        <ele>404.4</ele>
        <time>2024-06-23T08:08:23Z</time>
      </trkpt>
      <trkpt lat="42.99296" lon="1.16949">
        <ele>404</ele>
        <time>2024-06-23T08:08:24Z</time>
      </trkpt>
      <trkpt lat="42.99296" lon="1.16954">
        <ele>404.4</ele>
        <time>2024-06-23T08:08:25Z</time>
      </trkpt>
      <trkpt lat="42.99297" lon="1.16963">
        <ele>404.4</ele>
        <time>2024-06-23T08:08:26Z</time>
      </trkpt>
      <trkpt lat="42.99298" lon="1.16968">
        <ele>404.4</ele>
        <time>2024-06-23T08:08:27Z</time>
      </trkpt>
      <trkpt lat="42.99297" lon="1.16978">
        <ele>404.4</ele>
        <time>2024-06-23T08:08:28Z</time>
      </trkpt>
      <trkpt lat="42.99295" lon="1.16986">
        <ele>404.4</ele>
        <time>2024-06-23T08:08:29Z</time>
      </trkpt>
      <trkpt lat="42.99294" lon="1.16996">
        <ele>404.4</ele>
        <time>2024-06-23T08:08:30Z</time>
      </trkpt>
      <trkpt lat="42.99294" lon="1.17002">
        <ele>404.4</ele>
        <time>2024-06-23T08:08:31Z</time>
      </trkpt>
      <trkpt lat="42.99294" lon="1.17009">
        <ele>404.4</ele>
        <time>2024-06-23T08:08:32Z</time>
      </trkpt>
      <trkpt lat="42.99295" lon="1.17015">
        <ele>404.6</ele>
        <time>2024-06-23T08:08:33Z</time>
      </trkpt>
      <trkpt lat="42.99294" lon="1.17023">
        <ele>404.6</ele>
        <time>2024-06-23T08:08:34Z</time>
      </trkpt>
      <trkpt lat="42.99297" lon="1.17029">
        <ele>404.4</ele>
        <time>2024-06-23T08:08:35Z</time>
      </trkpt>
      <trkpt lat="42.99298" lon="1.17037">
        <ele>404.4</ele>
        <time>2024-06-23T08:08:36Z</time>
      </trkpt>
      <trkpt lat="42.99299" lon="1.17044">
        <ele>404.6</ele>
        <time>2024-06-23T08:08:37Z</time>
      </trkpt>
      <trkpt lat="42.99298" lon="1.17051">
        <ele>404.4</ele>
        <time>2024-06-23T08:08:38Z</time>
      </trkpt>
      <trkpt lat="42.99297" lon="1.1706">
        <ele>404.4</ele>
        <time>2024-06-23T08:08:39Z</time>
      </trkpt>
      <trkpt lat="42.99296" lon="1.17069">
        <ele>404.4</ele>
        <time>2024-06-23T08:08:40Z</time>
      </trkpt>
      <trkpt lat="42.99295" lon="1.17078">
        <ele>404.4</ele>
        <time>2024-06-23T08:08:41Z</time>
      </trkpt>
      <trkpt lat="42.99293" lon="1.17084">
        <ele>404.8</ele>
        <time>2024-06-23T08:08:42Z</time>
      </trkpt>
      <trkpt lat="42.99293" lon="1.17091">
        <ele>404.8</ele>
        <time>2024-06-23T08:08:43Z</time>
      </trkpt>
      <trkpt lat="42.99292" lon="1.17097">
        <ele>404.8</ele>
        <time>2024-06-23T08:08:44Z</time>
      </trkpt>
      <trkpt lat="42.99291" lon="1.17106">
        <ele>405</ele>
        <time>2024-06-23T08:08:45Z</time>
      </trkpt>
      <trkpt lat="42.99291" lon="1.17114">
        <ele>405</ele>
        <time>2024-06-23T08:08:46Z</time>
      </trkpt>
      <trkpt lat="42.99292" lon="1.17121">
        <ele>405.4</ele>
        <time>2024-06-23T08:08:47Z</time>
      </trkpt>
      <trkpt lat="42.99292" lon="1.17128">
        <ele>405.4</ele>
        <time>2024-06-23T08:08:48Z</time>
      </trkpt>
      <trkpt lat="42.99291" lon="1.17139">
        <ele>405.2</ele>
        <time>2024-06-23T08:08:49Z</time>
      </trkpt>
      <trkpt lat="42.99291" lon="1.17147">
        <ele>405.2</ele>
        <time>2024-06-23T08:08:50Z</time>
      </trkpt>
      <trkpt lat="42.9929" lon="1.17154">
        <ele>405.2</ele>
        <time>2024-06-23T08:08:51Z</time>
      </trkpt>
      <trkpt lat="42.99288" lon="1.17162">
        <ele>405.2</ele>
        <time>2024-06-23T08:08:52Z</time>
      </trkpt>
      <trkpt lat="42.99288" lon="1.17169">
        <ele>405.4</ele>
        <time>2024-06-23T08:08:53Z</time>
      </trkpt>
      <trkpt lat="42.99286" lon="1.17176">
        <ele>405.2</ele>
        <time>2024-06-23T08:08:54Z</time>
      </trkpt>
      <trkpt lat="42.99285" lon="1.17183">
        <ele>405.4</ele>
        <time>2024-06-23T08:08:55Z</time>
      </trkpt>
      <trkpt lat="42.99284" lon="1.1719">
        <ele>405.8</ele>
        <time>2024-06-23T08:08:56Z</time>
      </trkpt>
      <trkpt lat="42.99285" lon="1.17197">
        <ele>406</ele>
        <time>2024-06-23T08:08:57Z</time>
      </trkpt>
      <trkpt lat="42.99285" lon="1.17205">
        <ele>406</ele>
        <time>2024-06-23T08:08:58Z</time>
      </trkpt>
      <trkpt lat="42.99284" lon="1.17212">
        <ele>406</ele>
        <time>2024-06-23T08:08:59Z</time>
      </trkpt>
      <trkpt lat="42.99284" lon="1.1722">
        <ele>406</ele>
        <time>2024-06-23T08:09:00Z</time>
      </trkpt>
      <trkpt lat="42.99284" lon="1.17229">
        <ele>406</ele>
        <time>2024-06-23T08:09:01Z</time>
      </trkpt>
      <trkpt lat="42.99284" lon="1.17235">
        <ele>406</ele>
        <time>2024-06-23T08:09:02Z</time>
      </trkpt>
      <trkpt lat="42.99284" lon="1.17243">
        <ele>406</ele>
        <time>2024-06-23T08:09:03Z</time>
      </trkpt>
      <trkpt lat="42.99285" lon="1.17249">
        <ele>406</ele>
        <time>2024-06-23T08:09:04Z</time>
      </trkpt>
      <trkpt lat="42.99286" lon="1.17256">
        <ele>406.4</ele>
        <time>2024-06-23T08:09:05Z</time>
      </trkpt>
      <trkpt lat="42.99286" lon="1.17263">
        <ele>406.4</ele>
        <time>2024-06-23T08:09:06Z</time>
      </trkpt>
      <trkpt lat="42.99287" lon="1.17271">
        <ele>406.6</ele>
        <time>2024-06-23T08:09:07Z</time>
      </trkpt>
      <trkpt lat="42.99287" lon="1.17276">
        <ele>406.6</ele>
        <time>2024-06-23T08:09:08Z</time>
      </trkpt>
      <trkpt lat="42.99288" lon="1.17284">
        <ele>407</ele>
        <time>2024-06-23T08:09:09Z</time>
      </trkpt>
      <trkpt lat="42.99287" lon="1.17291">
        <ele>407.2</ele>
        <time>2024-06-23T08:09:10Z</time>
      </trkpt>
      <trkpt lat="42.99288" lon="1.17298">
        <ele>407.2</ele>
        <time>2024-06-23T08:09:11Z</time>
      </trkpt>
      <trkpt lat="42.99288" lon="1.17306">
        <ele>407.2</ele>
        <time>2024-06-23T08:09:12Z</time>
      </trkpt>
      <trkpt lat="42.99289" lon="1.17313">
        <ele>407.2</ele>
        <time>2024-06-23T08:09:13Z</time>
      </trkpt>
      <trkpt lat="42.99289" lon="1.17321">
        <ele>407.2</ele>
        <time>2024-06-23T08:09:14Z</time>
      </trkpt>
      <trkpt lat="42.99289" lon="1.17328">
        <ele>407.2</ele>
        <time>2024-06-23T08:09:15Z</time>
      </trkpt>
      <trkpt lat="42.9929" lon="1.17336">
        <ele>407.4</ele>
        <time>2024-06-23T08:09:16Z</time>
      </trkpt>
      <trkpt lat="42.99291" lon="1.17344">
        <ele>407.4</ele>
        <time>2024-06-23T08:09:17Z</time>
      </trkpt>
      <trkpt lat="42.99292" lon="1.17351">
        <ele>407.4</ele>
        <time>2024-06-23T08:09:18Z</time>
      </trkpt>
      <trkpt lat="42.99293" lon="1.17358">
        <ele>407.4</ele>
        <time>2024-06-23T08:09:19Z</time>
      </trkpt>
      <trkpt lat="42.99294" lon="1.17366">
        <ele>407.6</ele>
        <time>2024-06-23T08:09:20Z</time>
      </trkpt>
      <trkpt lat="42.99295" lon="1.17375">
        <ele>407.6</ele>
        <time>2024-06-23T08:09:21Z</time>
      </trkpt>
      <trkpt lat="42.99296" lon="1.17383">
        <ele>407.4</ele>
        <time>2024-06-23T08:09:22Z</time>
      </trkpt>
      <trkpt lat="42.99297" lon="1.17391">
        <ele>407.4</ele>
        <time>2024-06-23T08:09:23Z</time>
      </trkpt>
      <trkpt lat="42.99297" lon="1.17397">
        <ele>407.4</ele>
        <time>2024-06-23T08:09:24Z</time>
      </trkpt>
      <trkpt lat="42.99298" lon="1.17404">
        <ele>407.6</ele>
        <time>2024-06-23T08:09:25Z</time>
      </trkpt>
      <trkpt lat="42.99299" lon="1.17413">
        <ele>407.6</ele>
        <time>2024-06-23T08:09:26Z</time>
      </trkpt>
      <trkpt lat="42.99299" lon="1.17419">
        <ele>407.6</ele>
        <time>2024-06-23T08:09:27Z</time>
      </trkpt>
      <trkpt lat="42.993" lon="1.17428">
        <ele>407.8</ele>
        <time>2024-06-23T08:09:28Z</time>
      </trkpt>
      <trkpt lat="42.993" lon="1.17435">
        <ele>407.8</ele>
        <time>2024-06-23T08:09:29Z</time>
      </trkpt>
      <trkpt lat="42.99301" lon="1.17442">
        <ele>407.8</ele>
        <time>2024-06-23T08:09:30Z</time>
      </trkpt>
      <trkpt lat="42.99302" lon="1.17449">
        <ele>407.8</ele>
        <time>2024-06-23T08:09:31Z</time>
      </trkpt>
      <trkpt lat="42.99303" lon="1.17456">
        <ele>407.8</ele>
        <time>2024-06-23T08:09:32Z</time>
      </trkpt>
      <trkpt lat="42.99304" lon="1.17462">
        <ele>407.8</ele>
        <time>2024-06-23T08:09:33Z</time>
      </trkpt>
      <trkpt lat="42.99305" lon="1.1747">
        <ele>407.8</ele>
        <time>2024-06-23T08:09:34Z</time>
      </trkpt>
      <trkpt lat="42.99305" lon="1.17477">
        <ele>407.4</ele>
        <time>2024-06-23T08:09:35Z</time>
      </trkpt>
      <trkpt lat="42.99306" lon="1.17483">
        <ele>407.4</ele>
        <time>2024-06-23T08:09:36Z</time>
      </trkpt>
      <trkpt lat="42.99306" lon="1.17493">
        <ele>407.4</ele>
        <time>2024-06-23T08:09:37Z</time>
      </trkpt>
      <trkpt lat="42.99306" lon="1.17502">
        <ele>407.8</ele>
        <time>2024-06-23T08:09:38Z</time>
      </trkpt>
      <trkpt lat="42.99308" lon="1.17512">
        <ele>407.8</ele>
        <time>2024-06-23T08:09:39Z</time>
      </trkpt>
      <trkpt lat="42.99309" lon="1.17521">
        <ele>407.6</ele>
        <time>2024-06-23T08:09:40Z</time>
      </trkpt>
      <trkpt lat="42.99308" lon="1.1753">
        <ele>407.6</ele>
        <time>2024-06-23T08:09:41Z</time>
      </trkpt>
      <trkpt lat="42.99309" lon="1.17539">
        <ele>407.6</ele>
        <time>2024-06-23T08:09:42Z</time>
      </trkpt>
      <trkpt lat="42.9931" lon="1.17547">
        <ele>407.6</ele>
        <time>2024-06-23T08:09:43Z</time>
      </trkpt>
      <trkpt lat="42.99309" lon="1.17556">
        <ele>407.2</ele>
        <time>2024-06-23T08:09:44Z</time>
      </trkpt>
      <trkpt lat="42.9931" lon="1.17564">
        <ele>406.8</ele>
        <time>2024-06-23T08:09:45Z</time>
      </trkpt>
      <trkpt lat="42.9931" lon="1.17573">
        <ele>406.8</ele>
        <time>2024-06-23T08:09:46Z</time>
      </trkpt>
      <trkpt lat="42.99311" lon="1.17582">
        <ele>406.8</ele>
        <time>2024-06-23T08:09:47Z</time>
      </trkpt>
      <trkpt lat="42.99312" lon="1.1759">
        <ele>406.6</ele>
        <time>2024-06-23T08:09:48Z</time>
      </trkpt>
      <trkpt lat="42.99312" lon="1.17598">
        <ele>406.4</ele>
        <time>2024-06-23T08:09:49Z</time>
      </trkpt>
      <trkpt lat="42.99313" lon="1.17607">
        <ele>406.4</ele>
        <time>2024-06-23T08:09:50Z</time>
      </trkpt>
      <trkpt lat="42.99313" lon="1.17614">
        <ele>406.4</ele>
        <time>2024-06-23T08:09:51Z</time>
      </trkpt>
      <trkpt lat="42.99315" lon="1.17622">
        <ele>406.6</ele>
        <time>2024-06-23T08:09:52Z</time>
      </trkpt>
      <trkpt lat="42.99316" lon="1.17629">
        <ele>406.2</ele>
        <time>2024-06-23T08:09:53Z</time>
      </trkpt>
      <trkpt lat="42.99317" lon="1.17637">
        <ele>406.6</ele>
        <time>2024-06-23T08:09:54Z</time>
      </trkpt>
      <trkpt lat="42.99317" lon="1.17644">
        <ele>407</ele>
        <time>2024-06-23T08:09:55Z</time>
      </trkpt>
      <trkpt lat="42.99319" lon="1.17653">
        <ele>407</ele>
        <time>2024-06-23T08:09:56Z</time>
      </trkpt>
      <trkpt lat="42.99319" lon="1.1766">
        <ele>407.6</ele>
        <time>2024-06-23T08:09:57Z</time>
      </trkpt>
      <trkpt lat="42.9932" lon="1.17669">
        <ele>407.6</ele>
        <time>2024-06-23T08:09:58Z</time>
      </trkpt>
      <trkpt lat="42.99321" lon="1.17678">
        <ele>407.2</ele>
        <time>2024-06-23T08:09:59Z</time>
      </trkpt>
      <trkpt lat="42.99321" lon="1.17686">
        <ele>407.2</ele>
        <time>2024-06-23T08:10:00Z</time>
      </trkpt>
      <trkpt lat="42.99322" lon="1.17695">
        <ele>407.2</ele>
        <time>2024-06-23T08:10:01Z</time>
      </trkpt>
      <trkpt lat="42.99322" lon="1.17702">
        <ele>407.2</ele>
        <time>2024-06-23T08:10:02Z</time>
      </trkpt>
      <trkpt lat="42.99323" lon="1.1771">
        <ele>407</ele>
        <time>2024-06-23T08:10:03Z</time>
      </trkpt>
      <trkpt lat="42.99324" lon="1.17718">
        <ele>407</ele>
        <time>2024-06-23T08:10:04Z</time>
      </trkpt>
      <trkpt lat="42.99324" lon="1.17726">
        <ele>407</ele>
        <time>2024-06-23T08:10:05Z</time>
      </trkpt>
      <trkpt lat="42.99326" lon="1.17734">
        <ele>407</ele>
        <time>2024-06-23T08:10:06Z</time>
      </trkpt>
      <trkpt lat="42.99326" lon="1.17743">
        <ele>407</ele>
        <time>2024-06-23T08:10:07Z</time>
      </trkpt>
      <trkpt lat="42.99327" lon="1.1775">
        <ele>407.2</ele>
        <time>2024-06-23T08:10:08Z</time>
      </trkpt>
      <trkpt lat="42.99328" lon="1.17758">
        <ele>407.2</ele>
        <time>2024-06-23T08:10:09Z</time>
      </trkpt>
      <trkpt lat="42.99329" lon="1.17766">
        <ele>407.2</ele>
        <time>2024-06-23T08:10:10Z</time>
      </trkpt>
      <trkpt lat="42.9933" lon="1.17773">
        <ele>407.2</ele>
        <time>2024-06-23T08:10:11Z</time>
      </trkpt>
      <trkpt lat="42.9933" lon="1.17781">
        <ele>407.2</ele>
        <time>2024-06-23T08:10:12Z</time>
      </trkpt>
      <trkpt lat="42.99331" lon="1.17789">
        <ele>407.4</ele>
        <time>2024-06-23T08:10:13Z</time>
      </trkpt>
      <trkpt lat="42.99331" lon="1.17797">
        <ele>407.2</ele>
        <time>2024-06-23T08:10:14Z</time>
      </trkpt>
      <trkpt lat="42.99332" lon="1.17804">
        <ele>407.2</ele>
        <time>2024-06-23T08:10:15Z</time>
      </trkpt>
      <trkpt lat="42.99333" lon="1.17813">
        <ele>407.2</ele>
        <time>2024-06-23T08:10:16Z</time>
      </trkpt>
      <trkpt lat="42.99333" lon="1.17821">
        <ele>407.4</ele>
        <time>2024-06-23T08:10:17Z</time>
      </trkpt>
      <trkpt lat="42.99334" lon="1.17828">
        <ele>407.2</ele>
        <time>2024-06-23T08:10:18Z</time>
      </trkpt>
      <trkpt lat="42.99334" lon="1.17836">
        <ele>407</ele>
        <time>2024-06-23T08:10:19Z</time>
      </trkpt>
      <trkpt lat="42.99335" lon="1.17845">
        <ele>407</ele>
        <time>2024-06-23T08:10:20Z</time>
      </trkpt>
      <trkpt lat="42.99336" lon="1.17853">
        <ele>406.8</ele>
        <time>2024-06-23T08:10:21Z</time>
      </trkpt>
      <trkpt lat="42.99337" lon="1.17861">
        <ele>407.4</ele>
        <time>2024-06-23T08:10:22Z</time>
      </trkpt>
      <trkpt lat="42.99338" lon="1.17868">
        <ele>407.4</ele>
        <time>2024-06-23T08:10:23Z</time>
      </trkpt>
      <trkpt lat="42.99338" lon="1.17877">
        <ele>407.4</ele>
        <time>2024-06-23T08:10:24Z</time>
      </trkpt>
      <trkpt lat="42.99339" lon="1.17885">
        <ele>407.4</ele>
        <time>2024-06-23T08:10:25Z</time>
      </trkpt>
      <trkpt lat="42.9934" lon="1.17894">
        <ele>407.4</ele>
        <time>2024-06-23T08:10:26Z</time>
      </trkpt>
      <trkpt lat="42.99341" lon="1.17901">
        <ele>407.8</ele>
        <time>2024-06-23T08:10:27Z</time>
      </trkpt>
      <trkpt lat="42.99341" lon="1.17908">
        <ele>407.8</ele>
        <time>2024-06-23T08:10:28Z</time>
      </trkpt>
      <trkpt lat="42.99342" lon="1.17915">
        <ele>408.2</ele>
        <time>2024-06-23T08:10:29Z</time>
      </trkpt>
      <trkpt lat="42.99342" lon="1.17923">
        <ele>408.2</ele>
        <time>2024-06-23T08:10:30Z</time>
      </trkpt>
      <trkpt lat="42.99343" lon="1.1793">
        <ele>408.2</ele>
        <time>2024-06-23T08:10:31Z</time>
      </trkpt>
      <trkpt lat="42.99344" lon="1.17938">
        <ele>408.2</ele>
        <time>2024-06-23T08:10:32Z</time>
      </trkpt>
      <trkpt lat="42.99345" lon="1.17946">
        <ele>408.2</ele>
        <time>2024-06-23T08:10:33Z</time>
      </trkpt>
      <trkpt lat="42.99346" lon="1.17954">
        <ele>408.2</ele>
        <time>2024-06-23T08:10:34Z</time>
      </trkpt>
      <trkpt lat="42.99346" lon="1.17963">
        <ele>408.4</ele>
        <time>2024-06-23T08:10:35Z</time>
      </trkpt>
      <trkpt lat="42.99347" lon="1.1797">
        <ele>408</ele>
        <time>2024-06-23T08:10:36Z</time>
      </trkpt>
      <trkpt lat="42.99349" lon="1.17979">
        <ele>408</ele>
        <time>2024-06-23T08:10:37Z</time>
      </trkpt>
      <trkpt lat="42.99349" lon="1.17986">
        <ele>408</ele>
        <time>2024-06-23T08:10:38Z</time>
      </trkpt>
      <trkpt lat="42.9935" lon="1.17995">
        <ele>408</ele>
        <time>2024-06-23T08:10:39Z</time>
      </trkpt>
      <trkpt lat="42.99351" lon="1.18002">
        <ele>408.4</ele>
        <time>2024-06-23T08:10:40Z</time>
      </trkpt>
      <trkpt lat="42.99352" lon="1.1801">
        <ele>408.4</ele>
        <time>2024-06-23T08:10:41Z</time>
      </trkpt>
      <trkpt lat="42.99353" lon="1.18018">
        <ele>408.4</ele>
        <time>2024-06-23T08:10:42Z</time>
      </trkpt>
      <trkpt lat="42.99354" lon="1.18026">
        <ele>408.4</ele>
        <time>2024-06-23T08:10:43Z</time>
      </trkpt>
      <trkpt lat="42.99354" lon="1.18033">
        <ele>408.4</ele>
        <time>2024-06-23T08:10:44Z</time>
      </trkpt>
      <trkpt lat="42.99355" lon="1.18041">
        <ele>408.2</ele>
        <time>2024-06-23T08:10:45Z</time>
      </trkpt>
      <trkpt lat="42.99355" lon="1.18048">
        <ele>408.2</ele>
        <time>2024-06-23T08:10:46Z</time>
      </trkpt>
      <trkpt lat="42.9936" lon="1.18053">
        <ele>408.2</ele>
        <time>2024-06-23T08:10:47Z</time>
      </trkpt>
      <trkpt lat="42.9936" lon="1.1806">
        <ele>408.2</ele>
        <time>2024-06-23T08:10:48Z</time>
      </trkpt>
      <trkpt lat="42.9936" lon="1.18067">
        <ele>408.4</ele>
        <time>2024-06-23T08:10:49Z</time>
      </trkpt>
      <trkpt lat="42.99362" lon="1.18073">
        <ele>408.4</ele>
        <time>2024-06-23T08:10:50Z</time>
      </trkpt>
      <trkpt lat="42.99362" lon="1.1808">
        <ele>408.4</ele>
        <time>2024-06-23T08:10:51Z</time>
      </trkpt>
      <trkpt lat="42.99363" lon="1.18088">
        <ele>408.8</ele>
        <time>2024-06-23T08:10:52Z</time>
      </trkpt>
      <trkpt lat="42.99363" lon="1.18096">
        <ele>408.8</ele>
        <time>2024-06-23T08:10:53Z</time>
      </trkpt>
      <trkpt lat="42.99364" lon="1.18104">
        <ele>408.6</ele>
        <time>2024-06-23T08:10:54Z</time>
      </trkpt>
      <trkpt lat="42.99364" lon="1.18112">
        <ele>408.2</ele>
        <time>2024-06-23T08:10:55Z</time>
      </trkpt>
      <trkpt lat="42.99364" lon="1.1812">
        <ele>408.6</ele>
        <time>2024-06-23T08:10:56Z</time>
      </trkpt>
      <trkpt lat="42.99365" lon="1.18128">
        <ele>408.6</ele>
        <time>2024-06-23T08:10:57Z</time>
      </trkpt>
      <trkpt lat="42.99365" lon="1.18136">
        <ele>408.6</ele>
        <time>2024-06-23T08:10:58Z</time>
      </trkpt>
      <trkpt lat="42.99365" lon="1.18145">
        <ele>408.2</ele>
        <time>2024-06-23T08:10:59Z</time>
      </trkpt>
      <trkpt lat="42.99365" lon="1.18153">
        <ele>408.6</ele>
        <time>2024-06-23T08:11:00Z</time>
      </trkpt>
      <trkpt lat="42.99365" lon="1.1816">
        <ele>408.6</ele>
        <time>2024-06-23T08:11:01Z</time>
      </trkpt>
      <trkpt lat="42.99366" lon="1.18168">
        <ele>408.6</ele>
        <time>2024-06-23T08:11:02Z</time>
      </trkpt>
      <trkpt lat="42.99366" lon="1.18176">
        <ele>408.6</ele>
        <time>2024-06-23T08:11:03Z</time>
      </trkpt>
      <trkpt lat="42.99366" lon="1.18184">
        <ele>408.6</ele>
        <time>2024-06-23T08:11:04Z</time>
      </trkpt>
      <trkpt lat="42.99367" lon="1.18192">
        <ele>408.6</ele>
        <time>2024-06-23T08:11:05Z</time>
      </trkpt>
      <trkpt lat="42.99367" lon="1.18199">
        <ele>409.4</ele>
        <time>2024-06-23T08:11:06Z</time>
      </trkpt>
      <trkpt lat="42.99366" lon="1.18205">
        <ele>409</ele>
        <time>2024-06-23T08:11:07Z</time>
      </trkpt>
      <trkpt lat="42.99367" lon="1.18213">
        <ele>409.4</ele>
        <time>2024-06-23T08:11:08Z</time>
      </trkpt>
      <trkpt lat="42.99367" lon="1.18219">
        <ele>409.4</ele>
        <time>2024-06-23T08:11:09Z</time>
      </trkpt>
      <trkpt lat="42.99367" lon="1.18226">
        <ele>409.4</ele>
        <time>2024-06-23T08:11:10Z</time>
      </trkpt>
      <trkpt lat="42.99367" lon="1.18233">
        <ele>409.4</ele>
        <time>2024-06-23T08:11:11Z</time>
      </trkpt>
      <trkpt lat="42.99367" lon="1.18241">
        <ele>409.8</ele>
        <time>2024-06-23T08:11:12Z</time>
      </trkpt>
      <trkpt lat="42.99368" lon="1.18249">
        <ele>409.8</ele>
        <time>2024-06-23T08:11:13Z</time>
      </trkpt>
      <trkpt lat="42.99368" lon="1.18255">
        <ele>409.8</ele>
        <time>2024-06-23T08:11:14Z</time>
      </trkpt>
      <trkpt lat="42.99368" lon="1.18262">
        <ele>409.2</ele>
        <time>2024-06-23T08:11:15Z</time>
      </trkpt>
      <trkpt lat="42.99368" lon="1.18268">
        <ele>409.8</ele>
        <time>2024-06-23T08:11:16Z</time>
      </trkpt>
      <trkpt lat="42.99369" lon="1.18274">
        <ele>409.8</ele>
        <time>2024-06-23T08:11:17Z</time>
      </trkpt>
      <trkpt lat="42.99369" lon="1.18282">
        <ele>409.8</ele>
        <time>2024-06-23T08:11:18Z</time>
      </trkpt>
      <trkpt lat="42.99369" lon="1.18291">
        <ele>409.8</ele>
        <time>2024-06-23T08:11:19Z</time>
      </trkpt>
      <trkpt lat="42.9937" lon="1.18298">
        <ele>410</ele>
        <time>2024-06-23T08:11:20Z</time>
      </trkpt>
      <trkpt lat="42.9937" lon="1.18306">
        <ele>410</ele>
        <time>2024-06-23T08:11:21Z</time>
      </trkpt>
      <trkpt lat="42.99371" lon="1.18313">
        <ele>410</ele>
        <time>2024-06-23T08:11:22Z</time>
      </trkpt>
      <trkpt lat="42.9937" lon="1.18322">
        <ele>410</ele>
        <time>2024-06-23T08:11:23Z</time>
      </trkpt>
      <trkpt lat="42.9937" lon="1.18329">
        <ele>410.2</ele>
        <time>2024-06-23T08:11:24Z</time>
      </trkpt>
      <trkpt lat="42.99372" lon="1.18335">
        <ele>410.2</ele>
        <time>2024-06-23T08:11:25Z</time>
      </trkpt>
      <trkpt lat="42.99374" lon="1.18342">
        <ele>410</ele>
        <time>2024-06-23T08:11:26Z</time>
      </trkpt>
      <trkpt lat="42.99374" lon="1.18351">
        <ele>410</ele>
        <time>2024-06-23T08:11:27Z</time>
      </trkpt>
      <trkpt lat="42.99375" lon="1.18359">
        <ele>410</ele>
        <time>2024-06-23T08:11:28Z</time>
      </trkpt>
      <trkpt lat="42.99376" lon="1.18367">
        <ele>410</ele>
        <time>2024-06-23T08:11:29Z</time>
      </trkpt>
      <trkpt lat="42.99375" lon="1.18375">
        <ele>410</ele>
        <time>2024-06-23T08:11:30Z</time>
      </trkpt>
      <trkpt lat="42.99375" lon="1.18383">
        <ele>410</ele>
        <time>2024-06-23T08:11:31Z</time>
      </trkpt>
      <trkpt lat="42.99377" lon="1.18392">
        <ele>410</ele>
        <time>2024-06-23T08:11:32Z</time>
      </trkpt>
      <trkpt lat="42.99374" lon="1.18399">
        <ele>410</ele>
        <time>2024-06-23T08:11:33Z</time>
      </trkpt>
      <trkpt lat="42.99374" lon="1.18407">
        <ele>410</ele>
        <time>2024-06-23T08:11:34Z</time>
      </trkpt>
      <trkpt lat="42.99375" lon="1.18414">
        <ele>410</ele>
        <time>2024-06-23T08:11:35Z</time>
      </trkpt>
      <trkpt lat="42.99376" lon="1.18422">
        <ele>410.2</ele>
        <time>2024-06-23T08:11:36Z</time>
      </trkpt>
      <trkpt lat="42.99376" lon="1.1843">
        <ele>410.2</ele>
        <time>2024-06-23T08:11:37Z</time>
      </trkpt>
      <trkpt lat="42.99376" lon="1.1844">
        <ele>410.2</ele>
        <time>2024-06-23T08:11:38Z</time>
      </trkpt>
      <trkpt lat="42.99377" lon="1.18447">
        <ele>410.2</ele>
        <time>2024-06-23T08:11:39Z</time>
      </trkpt>
      <trkpt lat="42.99379" lon="1.18456">
        <ele>410.2</ele>
        <time>2024-06-23T08:11:40Z</time>
      </trkpt>
      <trkpt lat="42.9938" lon="1.18463">
        <ele>410.2</ele>
        <time>2024-06-23T08:11:41Z</time>
      </trkpt>
      <trkpt lat="42.99381" lon="1.18472">
        <ele>410.2</ele>
        <time>2024-06-23T08:11:42Z</time>
      </trkpt>
      <trkpt lat="42.99382" lon="1.18479">
        <ele>410.2</ele>
        <time>2024-06-23T08:11:43Z</time>
      </trkpt>
      <trkpt lat="42.99382" lon="1.18486">
        <ele>410.4</ele>
        <time>2024-06-23T08:11:44Z</time>
      </trkpt>
      <trkpt lat="42.99384" lon="1.18493">
        <ele>410.4</ele>
        <time>2024-06-23T08:11:45Z</time>
      </trkpt>
      <trkpt lat="42.99386" lon="1.18501">
        <ele>410.4</ele>
        <time>2024-06-23T08:11:46Z</time>
      </trkpt>
      <trkpt lat="42.99389" lon="1.18508">
        <ele>410.4</ele>
        <time>2024-06-23T08:11:47Z</time>
      </trkpt>
      <trkpt lat="42.99391" lon="1.18515">
        <ele>410.6</ele>
        <time>2024-06-23T08:11:48Z</time>
      </trkpt>
      <trkpt lat="42.99394" lon="1.18523">
        <ele>410.6</ele>
        <time>2024-06-23T08:11:49Z</time>
      </trkpt>
      <trkpt lat="42.99398" lon="1.18532">
        <ele>410.6</ele>
        <time>2024-06-23T08:11:50Z</time>
      </trkpt>
      <trkpt lat="42.99402" lon="1.1854">
        <ele>410.6</ele>
        <time>2024-06-23T08:11:51Z</time>
      </trkpt>
      <trkpt lat="42.99402" lon="1.18545">
        <ele>411</ele>
        <time>2024-06-23T08:11:52Z</time>
      </trkpt>
      <trkpt lat="42.99404" lon="1.18552">
        <ele>411</ele>
        <time>2024-06-23T08:11:53Z</time>
      </trkpt>
      <trkpt lat="42.99409" lon="1.18559">
        <ele>411</ele>
        <time>2024-06-23T08:11:54Z</time>
      </trkpt>
      <trkpt lat="42.99411" lon="1.18565">
        <ele>411</ele>
        <time>2024-06-23T08:11:55Z</time>
      </trkpt>
      <trkpt lat="42.99413" lon="1.18571">
        <ele>410.6</ele>
        <time>2024-06-23T08:11:56Z</time>
      </trkpt>
      <trkpt lat="42.99414" lon="1.18574">
        <ele>410.6</ele>
        <time>2024-06-23T08:11:57Z</time>
      </trkpt>
      <trkpt lat="42.99415" lon="1.18581">
        <ele>410.4</ele>
        <time>2024-06-23T08:11:58Z</time>
      </trkpt>
      <trkpt lat="42.99418" lon="1.18589">
        <ele>410.4</ele>
        <time>2024-06-23T08:11:59Z</time>
      </trkpt>
      <trkpt lat="42.99421" lon="1.18596">
        <ele>410.8</ele>
        <time>2024-06-23T08:12:00Z</time>
      </trkpt>
      <trkpt lat="42.99423" lon="1.18602">
        <ele>410.8</ele>
        <time>2024-06-23T08:12:01Z</time>
      </trkpt>
      <trkpt lat="42.99426" lon="1.18605">
        <ele>410.8</ele>
        <time>2024-06-23T08:12:02Z</time>
      </trkpt>
      <trkpt lat="42.99428" lon="1.18615">
        <ele>410.8</ele>
        <time>2024-06-23T08:12:03Z</time>
      </trkpt>
      <trkpt lat="42.99431" lon="1.18622">
        <ele>410.8</ele>
        <time>2024-06-23T08:12:04Z</time>
      </trkpt>
      <trkpt lat="42.99437" lon="1.18632">
        <ele>410.8</ele>
        <time>2024-06-23T08:12:05Z</time>
      </trkpt>
      <trkpt lat="42.99438" lon="1.18637">
        <ele>410.8</ele>
        <time>2024-06-23T08:12:06Z</time>
      </trkpt>
      <trkpt lat="42.9944" lon="1.18645">
        <ele>410.8</ele>
        <time>2024-06-23T08:12:07Z</time>
      </trkpt>
      <trkpt lat="42.99441" lon="1.18651">
        <ele>410.8</ele>
        <time>2024-06-23T08:12:08Z</time>
      </trkpt>
      <trkpt lat="42.99443" lon="1.18657">
        <ele>410.8</ele>
        <time>2024-06-23T08:12:09Z</time>
      </trkpt>
      <trkpt lat="42.99445" lon="1.18666">
        <ele>410.8</ele>
        <time>2024-06-23T08:12:10Z</time>
      </trkpt>
      <trkpt lat="42.99447" lon="1.18673">
        <ele>410.8</ele>
        <time>2024-06-23T08:12:11Z</time>
      </trkpt>
      <trkpt lat="42.99449" lon="1.1868">
        <ele>411.4</ele>
        <time>2024-06-23T08:12:12Z</time>
      </trkpt>
      <trkpt lat="42.9945" lon="1.18688">
        <ele>411.4</ele>
        <time>2024-06-23T08:12:13Z</time>
      </trkpt>
      <trkpt lat="42.99452" lon="1.18694">
        <ele>411.6</ele>
        <time>2024-06-23T08:12:14Z</time>
      </trkpt>
      <trkpt lat="42.99453" lon="1.18702">
        <ele>411.6</ele>
        <time>2024-06-23T08:12:15Z</time>
      </trkpt>
      <trkpt lat="42.99455" lon="1.18709">
        <ele>411.6</ele>
        <time>2024-06-23T08:12:16Z</time>
      </trkpt>
      <trkpt lat="42.99455" lon="1.18715">
        <ele>411.6</ele>
        <time>2024-06-23T08:12:17Z</time>
      </trkpt>
      <trkpt lat="42.99459" lon="1.18724">
        <ele>411.6</ele>
        <time>2024-06-23T08:12:18Z</time>
      </trkpt>
      <trkpt lat="42.99459" lon="1.18732">
        <ele>411.6</ele>
        <time>2024-06-23T08:12:19Z</time>
      </trkpt>
      <trkpt lat="42.99463" lon="1.18739">
        <ele>411.6</ele>
        <time>2024-06-23T08:12:20Z</time>
      </trkpt>
      <trkpt lat="42.99464" lon="1.18746">
        <ele>411.6</ele>
        <time>2024-06-23T08:12:21Z</time>
      </trkpt>
      <trkpt lat="42.99465" lon="1.18753">
        <ele>411.6</ele>
        <time>2024-06-23T08:12:22Z</time>
      </trkpt>
      <trkpt lat="42.99468" lon="1.1876">
        <ele>411.6</ele>
        <time>2024-06-23T08:12:23Z</time>
      </trkpt>
      <trkpt lat="42.99468" lon="1.18769">
        <ele>411.8</ele>
        <time>2024-06-23T08:12:24Z</time>
      </trkpt>
      <trkpt lat="42.99469" lon="1.18777">
        <ele>411.8</ele>
        <time>2024-06-23T08:12:25Z</time>
      </trkpt>
      <trkpt lat="42.99472" lon="1.18782">
        <ele>411.8</ele>
        <time>2024-06-23T08:12:26Z</time>
      </trkpt>
      <trkpt lat="42.99472" lon="1.18791">
        <ele>411.4</ele>
        <time>2024-06-23T08:12:27Z</time>
      </trkpt>
      <trkpt lat="42.99473" lon="1.18799">
        <ele>411</ele>
        <time>2024-06-23T08:12:28Z</time>
      </trkpt>
      <trkpt lat="42.99474" lon="1.18806">
        <ele>412</ele>
        <time>2024-06-23T08:12:29Z</time>
      </trkpt>
      <trkpt lat="42.99474" lon="1.18815">
        <ele>412</ele>
        <time>2024-06-23T08:12:30Z</time>
      </trkpt>
      <trkpt lat="42.99473" lon="1.18821">
        <ele>412.2</ele>
        <time>2024-06-23T08:12:31Z</time>
      </trkpt>
      <trkpt lat="42.99471" lon="1.18829">
        <ele>412.8</ele>
        <time>2024-06-23T08:12:32Z</time>
      </trkpt>
      <trkpt lat="42.99471" lon="1.18835">
        <ele>412.6</ele>
        <time>2024-06-23T08:12:33Z</time>
      </trkpt>
      <trkpt lat="42.99469" lon="1.18846">
        <ele>412.6</ele>
        <time>2024-06-23T08:12:34Z</time>
      </trkpt>
      <trkpt lat="42.99465" lon="1.18854">
        <ele>412.6</ele>
        <time>2024-06-23T08:12:35Z</time>
      </trkpt>
      <trkpt lat="42.99466" lon="1.18861">
        <ele>412.4</ele>
        <time>2024-06-23T08:12:36Z</time>
      </trkpt>
      <trkpt lat="42.99465" lon="1.18869">
        <ele>412</ele>
        <time>2024-06-23T08:12:37Z</time>
      </trkpt>
      <trkpt lat="42.99462" lon="1.18878">
        <ele>412</ele>
        <time>2024-06-23T08:12:38Z</time>
      </trkpt>
      <trkpt lat="42.99462" lon="1.18886">
        <ele>411.8</ele>
        <time>2024-06-23T08:12:39Z</time>
      </trkpt>
      <trkpt lat="42.9946" lon="1.18897">
        <ele>411.8</ele>
        <time>2024-06-23T08:12:40Z</time>
      </trkpt>
      <trkpt lat="42.99458" lon="1.18905">
        <ele>411.8</ele>
        <time>2024-06-23T08:12:41Z</time>
      </trkpt>
      <trkpt lat="42.99457" lon="1.18913">
        <ele>412</ele>
        <time>2024-06-23T08:12:42Z</time>
      </trkpt>
      <trkpt lat="42.99455" lon="1.1892">
        <ele>412</ele>
        <time>2024-06-23T08:12:43Z</time>
      </trkpt>
      <trkpt lat="42.99453" lon="1.18927">
        <ele>412</ele>
        <time>2024-06-23T08:12:44Z</time>
      </trkpt>
      <trkpt lat="42.99451" lon="1.18933">
        <ele>412</ele>
        <time>2024-06-23T08:12:45Z</time>
      </trkpt>
      <trkpt lat="42.99451" lon="1.18933">
        <ele>412</ele>
        <time>2024-06-23T08:12:46Z</time>
      </trkpt>
      <trkpt lat="42.99449" lon="1.18938">
        <ele>412.2</ele>
        <time>2024-06-23T08:12:47Z</time>
      </trkpt>
      <trkpt lat="42.99447" lon="1.18945">
        <ele>412.2</ele>
        <time>2024-06-23T08:12:48Z</time>
      </trkpt>
      <trkpt lat="42.99445" lon="1.1895">
        <ele>412.2</ele>
        <time>2024-06-23T08:12:49Z</time>
      </trkpt>
      <trkpt lat="42.99443" lon="1.18955">
        <ele>412.2</ele>
        <time>2024-06-23T08:12:50Z</time>
      </trkpt>
      <trkpt lat="42.99442" lon="1.18961">
        <ele>412.2</ele>
        <time>2024-06-23T08:12:51Z</time>
      </trkpt>
      <trkpt lat="42.99441" lon="1.18965">
        <ele>412.2</ele>
        <time>2024-06-23T08:12:52Z</time>
      </trkpt>
      <trkpt lat="42.99439" lon="1.18969">
        <ele>412.2</ele>
        <time>2024-06-23T08:12:53Z</time>
      </trkpt>
      <trkpt lat="42.99437" lon="1.18975">
        <ele>412.4</ele>
        <time>2024-06-23T08:12:54Z</time>
      </trkpt>
      <trkpt lat="42.99435" lon="1.18981">
        <ele>412.4</ele>
        <time>2024-06-23T08:12:55Z</time>
      </trkpt>
      <trkpt lat="42.99433" lon="1.18987">
        <ele>412.8</ele>
        <time>2024-06-23T08:12:56Z</time>
      </trkpt>
      <trkpt lat="42.9943" lon="1.18994">
        <ele>412.8</ele>
        <time>2024-06-23T08:12:57Z</time>
      </trkpt>
      <trkpt lat="42.99428" lon="1.19001">
        <ele>413</ele>
        <time>2024-06-23T08:12:58Z</time>
      </trkpt>
      <trkpt lat="42.99426" lon="1.19007">
        <ele>413</ele>
        <time>2024-06-23T08:12:59Z</time>
      </trkpt>
      <trkpt lat="42.99423" lon="1.19013">
        <ele>413</ele>
        <time>2024-06-23T08:13:00Z</time>
      </trkpt>
      <trkpt lat="42.9942" lon="1.1902">
        <ele>412.6</ele>
        <time>2024-06-23T08:13:01Z</time>
      </trkpt>
      <trkpt lat="42.99418" lon="1.19026">
        <ele>412.6</ele>
        <time>2024-06-23T08:13:02Z</time>
      </trkpt>
      <trkpt lat="42.99415" lon="1.19032">
        <ele>412.4</ele>
        <time>2024-06-23T08:13:03Z</time>
      </trkpt>
      <trkpt lat="42.99412" lon="1.19038">
        <ele>412.4</ele>
        <time>2024-06-23T08:13:04Z</time>
      </trkpt>
      <trkpt lat="42.99408" lon="1.19045">
        <ele>412.4</ele>
        <time>2024-06-23T08:13:05Z</time>
      </trkpt>
      <trkpt lat="42.99406" lon="1.19052">
        <ele>412.4</ele>
        <time>2024-06-23T08:13:06Z</time>
      </trkpt>
      <trkpt lat="42.99403" lon="1.19059">
        <ele>412.4</ele>
        <time>2024-06-23T08:13:07Z</time>
      </trkpt>
      <trkpt lat="42.99401" lon="1.19066">
        <ele>412.4</ele>
        <time>2024-06-23T08:13:08Z</time>
      </trkpt>
      <trkpt lat="42.99399" lon="1.19073">
        <ele>412.4</ele>
        <time>2024-06-23T08:13:09Z</time>
      </trkpt>
      <trkpt lat="42.99396" lon="1.1908">
        <ele>412.8</ele>
        <time>2024-06-23T08:13:10Z</time>
      </trkpt>
      <trkpt lat="42.99393" lon="1.19086">
        <ele>412.8</ele>
        <time>2024-06-23T08:13:11Z</time>
      </trkpt>
      <trkpt lat="42.99392" lon="1.19094">
        <ele>412.6</ele>
        <time>2024-06-23T08:13:12Z</time>
      </trkpt>
      <trkpt lat="42.99389" lon="1.19101">
        <ele>412.6</ele>
        <time>2024-06-23T08:13:13Z</time>
      </trkpt>
      <trkpt lat="42.99386" lon="1.19107">
        <ele>412.6</ele>
        <time>2024-06-23T08:13:14Z</time>
      </trkpt>
      <trkpt lat="42.99384" lon="1.19114">
        <ele>412.6</ele>
        <time>2024-06-23T08:13:15Z</time>
      </trkpt>
      <trkpt lat="42.99381" lon="1.19121">
        <ele>412.6</ele>
        <time>2024-06-23T08:13:16Z</time>
      </trkpt>
      <trkpt lat="42.99378" lon="1.19129">
        <ele>412.4</ele>
        <time>2024-06-23T08:13:17Z</time>
      </trkpt>
      <trkpt lat="42.99377" lon="1.19136">
        <ele>412.4</ele>
        <time>2024-06-23T08:13:18Z</time>
      </trkpt>
      <trkpt lat="42.99375" lon="1.19143">
        <ele>412.4</ele>
        <time>2024-06-23T08:13:19Z</time>
      </trkpt>
      <trkpt lat="42.99372" lon="1.19151">
        <ele>412.8</ele>
        <time>2024-06-23T08:13:20Z</time>
      </trkpt>
      <trkpt lat="42.9937" lon="1.19157">
        <ele>412.8</ele>
        <time>2024-06-23T08:13:21Z</time>
      </trkpt>
      <trkpt lat="42.99368" lon="1.19164">
        <ele>412.8</ele>
        <time>2024-06-23T08:13:22Z</time>
      </trkpt>
      <trkpt lat="42.99366" lon="1.19173">
        <ele>412.8</ele>
        <time>2024-06-23T08:13:23Z</time>
      </trkpt>
      <trkpt lat="42.99364" lon="1.19179">
        <ele>413</ele>
        <time>2024-06-23T08:13:24Z</time>
      </trkpt>
      <trkpt lat="42.99362" lon="1.19187">
        <ele>413</ele>
        <time>2024-06-23T08:13:25Z</time>
      </trkpt>
      <trkpt lat="42.99362" lon="1.19195">
        <ele>413.2</ele>
        <time>2024-06-23T08:13:26Z</time>
      </trkpt>
      <trkpt lat="42.9936" lon="1.19204">
        <ele>413.2</ele>
        <time>2024-06-23T08:13:27Z</time>
      </trkpt>
      <trkpt lat="42.9936" lon="1.19212">
        <ele>413.2</ele>
        <time>2024-06-23T08:13:28Z</time>
      </trkpt>
      <trkpt lat="42.99358" lon="1.1922">
        <ele>413.2</ele>
        <time>2024-06-23T08:13:29Z</time>
      </trkpt>
      <trkpt lat="42.99357" lon="1.19227">
        <ele>413.2</ele>
        <time>2024-06-23T08:13:30Z</time>
      </trkpt>
      <trkpt lat="42.99357" lon="1.19234">
        <ele>413.2</ele>
        <time>2024-06-23T08:13:31Z</time>
      </trkpt>
      <trkpt lat="42.99356" lon="1.19242">
        <ele>413</ele>
        <time>2024-06-23T08:13:32Z</time>
      </trkpt>
      <trkpt lat="42.99357" lon="1.19248">
        <ele>413</ele>
        <time>2024-06-23T08:13:33Z</time>
      </trkpt>
      <trkpt lat="42.99356" lon="1.19257">
        <ele>413.2</ele>
        <time>2024-06-23T08:13:34Z</time>
      </trkpt>
      <trkpt lat="42.99356" lon="1.19265">
        <ele>413.2</ele>
        <time>2024-06-23T08:13:35Z</time>
      </trkpt>
      <trkpt lat="42.99355" lon="1.19272">
        <ele>413.6</ele>
        <time>2024-06-23T08:13:36Z</time>
      </trkpt>
      <trkpt lat="42.99355" lon="1.19279">
        <ele>413.6</ele>
        <time>2024-06-23T08:13:37Z</time>
      </trkpt>
      <trkpt lat="42.99354" lon="1.19287">
        <ele>413.6</ele>
        <time>2024-06-23T08:13:38Z</time>
      </trkpt>
      <trkpt lat="42.99355" lon="1.19296">
        <ele>413.6</ele>
        <time>2024-06-23T08:13:39Z</time>
      </trkpt>
      <trkpt lat="42.99355" lon="1.19303">
        <ele>413.6</ele>
        <time>2024-06-23T08:13:40Z</time>
      </trkpt>
      <trkpt lat="42.99355" lon="1.1931">
        <ele>413.6</ele>
        <time>2024-06-23T08:13:41Z</time>
      </trkpt>
      <trkpt lat="42.99357" lon="1.19317">
        <ele>413.6</ele>
        <time>2024-06-23T08:13:42Z</time>
      </trkpt>
      <trkpt lat="42.99357" lon="1.19325">
        <ele>413.6</ele>
        <time>2024-06-23T08:13:43Z</time>
      </trkpt>
      <trkpt lat="42.99358" lon="1.19334">
        <ele>413.6</ele>
        <time>2024-06-23T08:13:44Z</time>
      </trkpt>
      <trkpt lat="42.9936" lon="1.19342">
        <ele>413.6</ele>
        <time>2024-06-23T08:13:45Z</time>
      </trkpt>
      <trkpt lat="42.9936" lon="1.19348">
        <ele>413.6</ele>
        <time>2024-06-23T08:13:46Z</time>
      </trkpt>
      <trkpt lat="42.99361" lon="1.19356">
        <ele>413.6</ele>
        <time>2024-06-23T08:13:47Z</time>
      </trkpt>
      <trkpt lat="42.99362" lon="1.19363">
        <ele>414</ele>
        <time>2024-06-23T08:13:48Z</time>
      </trkpt>
      <trkpt lat="42.99362" lon="1.19371">
        <ele>414</ele>
        <time>2024-06-23T08:13:49Z</time>
      </trkpt>
      <trkpt lat="42.99364" lon="1.19378">
        <ele>414</ele>
        <time>2024-06-23T08:13:50Z</time>
      </trkpt>
      <trkpt lat="42.99365" lon="1.19386">
        <ele>414</ele>
        <time>2024-06-23T08:13:51Z</time>
      </trkpt>
      <trkpt lat="42.99366" lon="1.19393">
        <ele>414</ele>
        <time>2024-06-23T08:13:52Z</time>
      </trkpt>
      <trkpt lat="42.99367" lon="1.194">
        <ele>414.4</ele>
        <time>2024-06-23T08:13:53Z</time>
      </trkpt>
      <trkpt lat="42.99369" lon="1.19408">
        <ele>414.2</ele>
        <time>2024-06-23T08:13:54Z</time>
      </trkpt>
      <trkpt lat="42.99371" lon="1.19416">
        <ele>414.6</ele>
        <time>2024-06-23T08:13:55Z</time>
      </trkpt>
      <trkpt lat="42.99373" lon="1.19425">
        <ele>414.6</ele>
        <time>2024-06-23T08:13:56Z</time>
      </trkpt>
      <trkpt lat="42.99375" lon="1.19431">
        <ele>414.4</ele>
        <time>2024-06-23T08:13:57Z</time>
      </trkpt>
      <trkpt lat="42.99377" lon="1.19439">
        <ele>414.8</ele>
        <time>2024-06-23T08:13:58Z</time>
      </trkpt>
      <trkpt lat="42.99379" lon="1.19446">
        <ele>414.8</ele>
        <time>2024-06-23T08:13:59Z</time>
      </trkpt>
      <trkpt lat="42.9938" lon="1.19454">
        <ele>414.8</ele>
        <time>2024-06-23T08:14:00Z</time>
      </trkpt>
      <trkpt lat="42.99383" lon="1.19461">
        <ele>414.4</ele>
        <time>2024-06-23T08:14:01Z</time>
      </trkpt>
      <trkpt lat="42.99384" lon="1.19467">
        <ele>414.4</ele>
        <time>2024-06-23T08:14:02Z</time>
      </trkpt>
      <trkpt lat="42.99386" lon="1.19472">
        <ele>414.4</ele>
        <time>2024-06-23T08:14:03Z</time>
      </trkpt>
      <trkpt lat="42.99387" lon="1.19479">
        <ele>414.6</ele>
        <time>2024-06-23T08:14:04Z</time>
      </trkpt>
      <trkpt lat="42.99388" lon="1.19485">
        <ele>414.6</ele>
        <time>2024-06-23T08:14:05Z</time>
      </trkpt>
      <trkpt lat="42.9939" lon="1.1949">
        <ele>414.6</ele>
        <time>2024-06-23T08:14:06Z</time>
      </trkpt>
      <trkpt lat="42.99391" lon="1.19495">
        <ele>414.6</ele>
        <time>2024-06-23T08:14:07Z</time>
      </trkpt>
      <trkpt lat="42.99392" lon="1.195">
        <ele>414.6</ele>
        <time>2024-06-23T08:14:08Z</time>
      </trkpt>
      <trkpt lat="42.99393" lon="1.19505">
        <ele>414.6</ele>
        <time>2024-06-23T08:14:09Z</time>
      </trkpt>
      <trkpt lat="42.99395" lon="1.1951">
        <ele>414.6</ele>
        <time>2024-06-23T08:14:10Z</time>
      </trkpt>
      <trkpt lat="42.99397" lon="1.19516">
        <ele>414.6</ele>
        <time>2024-06-23T08:14:11Z</time>
      </trkpt>
      <trkpt lat="42.99398" lon="1.19523">
        <ele>414.6</ele>
        <time>2024-06-23T08:14:12Z</time>
      </trkpt>
      <trkpt lat="42.994" lon="1.19529">
        <ele>414.4</ele>
        <time>2024-06-23T08:14:13Z</time>
      </trkpt>
      <trkpt lat="42.99401" lon="1.19536">
        <ele>414.4</ele>
        <time>2024-06-23T08:14:14Z</time>
      </trkpt>
      <trkpt lat="42.99403" lon="1.19543">
        <ele>414.4</ele>
        <time>2024-06-23T08:14:15Z</time>
      </trkpt>
      <trkpt lat="42.99404" lon="1.1955">
        <ele>414.4</ele>
        <time>2024-06-23T08:14:16Z</time>
      </trkpt>
      <trkpt lat="42.99407" lon="1.19558">
        <ele>414.8</ele>
        <time>2024-06-23T08:14:17Z</time>
      </trkpt>
      <trkpt lat="42.99409" lon="1.19565">
        <ele>414.8</ele>
        <time>2024-06-23T08:14:18Z</time>
      </trkpt>
      <trkpt lat="42.99411" lon="1.19573">
        <ele>414.8</ele>
        <time>2024-06-23T08:14:19Z</time>
      </trkpt>
      <trkpt lat="42.99413" lon="1.19581">
        <ele>414.8</ele>
        <time>2024-06-23T08:14:20Z</time>
      </trkpt>
      <trkpt lat="42.99414" lon="1.19589">
        <ele>415</ele>
        <time>2024-06-23T08:14:21Z</time>
      </trkpt>
      <trkpt lat="42.99415" lon="1.19596">
        <ele>415</ele>
        <time>2024-06-23T08:14:22Z</time>
      </trkpt>
      <trkpt lat="42.99417" lon="1.19605">
        <ele>415</ele>
        <time>2024-06-23T08:14:23Z</time>
      </trkpt>
      <trkpt lat="42.99418" lon="1.19613">
        <ele>415</ele>
        <time>2024-06-23T08:14:24Z</time>
      </trkpt>
      <trkpt lat="42.9942" lon="1.19621">
        <ele>415</ele>
        <time>2024-06-23T08:14:25Z</time>
      </trkpt>
      <trkpt lat="42.99424" lon="1.19627">
        <ele>415</ele>
        <time>2024-06-23T08:14:26Z</time>
      </trkpt>
      <trkpt lat="42.99426" lon="1.19633">
        <ele>414.8</ele>
        <time>2024-06-23T08:14:27Z</time>
      </trkpt>
      <trkpt lat="42.99427" lon="1.19641">
        <ele>414.8</ele>
        <time>2024-06-23T08:14:28Z</time>
      </trkpt>
      <trkpt lat="42.99427" lon="1.19649">
        <ele>414.8</ele>
        <time>2024-06-23T08:14:29Z</time>
      </trkpt>
      <trkpt lat="42.99428" lon="1.19657">
        <ele>414.8</ele>
        <time>2024-06-23T08:14:30Z</time>
      </trkpt>
      <trkpt lat="42.99428" lon="1.19663">
        <ele>414.8</ele>
        <time>2024-06-23T08:14:31Z</time>
      </trkpt>
      <trkpt lat="42.99429" lon="1.19668">
        <ele>415</ele>
        <time>2024-06-23T08:14:32Z</time>
      </trkpt>
      <trkpt lat="42.99429" lon="1.19674">
        <ele>415</ele>
        <time>2024-06-23T08:14:33Z</time>
      </trkpt>
      <trkpt lat="42.99429" lon="1.19682">
        <ele>415</ele>
        <time>2024-06-23T08:14:34Z</time>
      </trkpt>
      <trkpt lat="42.99429" lon="1.19696">
        <ele>415.4</ele>
        <time>2024-06-23T08:14:35Z</time>
      </trkpt>
      <trkpt lat="42.9943" lon="1.19706">
        <ele>415.4</ele>
        <time>2024-06-23T08:14:36Z</time>
      </trkpt>
      <trkpt lat="42.9943" lon="1.19713">
        <ele>415.4</ele>
        <time>2024-06-23T08:14:37Z</time>
      </trkpt>
      <trkpt lat="42.9943" lon="1.19721">
        <ele>415.4</ele>
        <time>2024-06-23T08:14:38Z</time>
      </trkpt>
      <trkpt lat="42.99428" lon="1.19731">
        <ele>415.4</ele>
        <time>2024-06-23T08:14:39Z</time>
      </trkpt>
      <trkpt lat="42.99427" lon="1.19738">
        <ele>415.2</ele>
        <time>2024-06-23T08:14:40Z</time>
      </trkpt>
      <trkpt lat="42.99426" lon="1.19749">
        <ele>415.2</ele>
        <time>2024-06-23T08:14:41Z</time>
      </trkpt>
      <trkpt lat="42.99424" lon="1.19758">
        <ele>415.8</ele>
        <time>2024-06-23T08:14:42Z</time>
      </trkpt>
      <trkpt lat="42.99424" lon="1.19763">
        <ele>415.8</ele>
        <time>2024-06-23T08:14:43Z</time>
      </trkpt>
      <trkpt lat="42.99425" lon="1.19773">
        <ele>415.8</ele>
        <time>2024-06-23T08:14:44Z</time>
      </trkpt>
      <trkpt lat="42.99422" lon="1.19783">
        <ele>415.8</ele>
        <time>2024-06-23T08:14:45Z</time>
      </trkpt>
      <trkpt lat="42.99422" lon="1.19792">
        <ele>415.8</ele>
        <time>2024-06-23T08:14:46Z</time>
      </trkpt>
      <trkpt lat="42.99421" lon="1.19799">
        <ele>415.8</ele>
        <time>2024-06-23T08:14:47Z</time>
      </trkpt>
      <trkpt lat="42.9942" lon="1.19807">
        <ele>415.8</ele>
        <time>2024-06-23T08:14:48Z</time>
      </trkpt>
      <trkpt lat="42.99418" lon="1.1981">
        <ele>415.8</ele>
        <time>2024-06-23T08:14:49Z</time>
      </trkpt>
      <trkpt lat="42.99418" lon="1.19821">
        <ele>415.8</ele>
        <time>2024-06-23T08:14:50Z</time>
      </trkpt>
      <trkpt lat="42.99417" lon="1.19827">
        <ele>415.8</ele>
        <time>2024-06-23T08:14:51Z</time>
      </trkpt>
      <trkpt lat="42.99415" lon="1.19833">
        <ele>415.8</ele>
        <time>2024-06-23T08:14:52Z</time>
      </trkpt>
      <trkpt lat="42.99414" lon="1.19843">
        <ele>416</ele>
        <time>2024-06-23T08:14:53Z</time>
      </trkpt>
      <trkpt lat="42.99413" lon="1.1985">
        <ele>416</ele>
        <time>2024-06-23T08:14:54Z</time>
      </trkpt>
      <trkpt lat="42.9941" lon="1.19857">
        <ele>416</ele>
        <time>2024-06-23T08:14:55Z</time>
      </trkpt>
      <trkpt lat="42.99407" lon="1.19865">
        <ele>416</ele>
        <time>2024-06-23T08:14:56Z</time>
      </trkpt>
      <trkpt lat="42.99405" lon="1.19872">
        <ele>416.2</ele>
        <time>2024-06-23T08:14:57Z</time>
      </trkpt>
      <trkpt lat="42.99403" lon="1.19878">
        <ele>416.2</ele>
        <time>2024-06-23T08:14:58Z</time>
      </trkpt>
      <trkpt lat="42.99402" lon="1.19886">
        <ele>416.6</ele>
        <time>2024-06-23T08:14:59Z</time>
      </trkpt>
      <trkpt lat="42.99401" lon="1.19896">
        <ele>416.6</ele>
        <time>2024-06-23T08:15:00Z</time>
      </trkpt>
      <trkpt lat="42.99398" lon="1.19902">
        <ele>416.6</ele>
        <time>2024-06-23T08:15:01Z</time>
      </trkpt>
      <trkpt lat="42.99394" lon="1.19912">
        <ele>416.2</ele>
        <time>2024-06-23T08:15:02Z</time>
      </trkpt>
      <trkpt lat="42.99392" lon="1.19918">
        <ele>416.2</ele>
        <time>2024-06-23T08:15:03Z</time>
      </trkpt>
      <trkpt lat="42.99388" lon="1.19925">
        <ele>416.4</ele>
        <time>2024-06-23T08:15:04Z</time>
      </trkpt>
      <trkpt lat="42.99385" lon="1.19931">
        <ele>416.4</ele>
        <time>2024-06-23T08:15:05Z</time>
      </trkpt>
      <trkpt lat="42.99383" lon="1.19938">
        <ele>416.8</ele>
        <time>2024-06-23T08:15:06Z</time>
      </trkpt>
      <trkpt lat="42.99379" lon="1.19945">
        <ele>416.6</ele>
        <time>2024-06-23T08:15:07Z</time>
      </trkpt>
      <trkpt lat="42.99377" lon="1.19955">
        <ele>416.6</ele>
        <time>2024-06-23T08:15:08Z</time>
      </trkpt>
      <trkpt lat="42.99374" lon="1.19962">
        <ele>416.6</ele>
        <time>2024-06-23T08:15:09Z</time>
      </trkpt>
      <trkpt lat="42.99371" lon="1.19969">
        <ele>416.6</ele>
        <time>2024-06-23T08:15:10Z</time>
      </trkpt>
      <trkpt lat="42.99367" lon="1.19976">
        <ele>417</ele>
        <time>2024-06-23T08:15:11Z</time>
      </trkpt>
      <trkpt lat="42.99364" lon="1.19982">
        <ele>416.6</ele>
        <time>2024-06-23T08:15:12Z</time>
      </trkpt>
      <trkpt lat="42.99361" lon="1.19988">
        <ele>416.6</ele>
        <time>2024-06-23T08:15:13Z</time>
      </trkpt>
      <trkpt lat="42.99357" lon="1.19994">
        <ele>416.4</ele>
        <time>2024-06-23T08:15:14Z</time>
      </trkpt>
      <trkpt lat="42.99354" lon="1.20002">
        <ele>416.8</ele>
        <time>2024-06-23T08:15:15Z</time>
      </trkpt>
      <trkpt lat="42.99352" lon="1.20007">
        <ele>417</ele>
        <time>2024-06-23T08:15:16Z</time>
      </trkpt>
      <trkpt lat="42.9935" lon="1.20012">
        <ele>416.6</ele>
        <time>2024-06-23T08:15:17Z</time>
      </trkpt>
      <trkpt lat="42.99345" lon="1.20021">
        <ele>416.6</ele>
        <time>2024-06-23T08:15:18Z</time>
      </trkpt>
      <trkpt lat="42.99341" lon="1.20026">
        <ele>416.4</ele>
        <time>2024-06-23T08:15:19Z</time>
      </trkpt>
      <trkpt lat="42.99337" lon="1.20033">
        <ele>416.4</ele>
        <time>2024-06-23T08:15:20Z</time>
      </trkpt>
      <trkpt lat="42.99335" lon="1.20041">
        <ele>416.6</ele>
        <time>2024-06-23T08:15:21Z</time>
      </trkpt>
      <trkpt lat="42.99331" lon="1.20048">
        <ele>416.8</ele>
        <time>2024-06-23T08:15:22Z</time>
      </trkpt>
      <trkpt lat="42.99329" lon="1.20055">
        <ele>416.8</ele>
        <time>2024-06-23T08:15:23Z</time>
      </trkpt>
      <trkpt lat="42.99327" lon="1.20061">
        <ele>416.8</ele>
        <time>2024-06-23T08:15:24Z</time>
      </trkpt>
      <trkpt lat="42.99323" lon="1.20068">
        <ele>416.8</ele>
        <time>2024-06-23T08:15:25Z</time>
      </trkpt>
      <trkpt lat="42.99319" lon="1.20073">
        <ele>416.8</ele>
        <time>2024-06-23T08:15:26Z</time>
      </trkpt>
      <trkpt lat="42.99316" lon="1.2008">
        <ele>417.2</ele>
        <time>2024-06-23T08:15:27Z</time>
      </trkpt>
      <trkpt lat="42.99312" lon="1.20086">
        <ele>417.2</ele>
        <time>2024-06-23T08:15:28Z</time>
      </trkpt>
      <trkpt lat="42.99309" lon="1.20093">
        <ele>416.8</ele>
        <time>2024-06-23T08:15:29Z</time>
      </trkpt>
      <trkpt lat="42.99306" lon="1.201">
        <ele>416.8</ele>
        <time>2024-06-23T08:15:30Z</time>
      </trkpt>
      <trkpt lat="42.99303" lon="1.20107">
        <ele>416.8</ele>
        <time>2024-06-23T08:15:31Z</time>
      </trkpt>
      <trkpt lat="42.99299" lon="1.20113">
        <ele>416.8</ele>
        <time>2024-06-23T08:15:32Z</time>
      </trkpt>
      <trkpt lat="42.99297" lon="1.20121">
        <ele>417.2</ele>
        <time>2024-06-23T08:15:33Z</time>
      </trkpt>
      <trkpt lat="42.99293" lon="1.20128">
        <ele>417.4</ele>
        <time>2024-06-23T08:15:34Z</time>
      </trkpt>
      <trkpt lat="42.99291" lon="1.20136">
        <ele>417.4</ele>
        <time>2024-06-23T08:15:35Z</time>
      </trkpt>
      <trkpt lat="42.99288" lon="1.20144">
        <ele>417.4</ele>
        <time>2024-06-23T08:15:36Z</time>
      </trkpt>
      <trkpt lat="42.99285" lon="1.20151">
        <ele>417</ele>
        <time>2024-06-23T08:15:37Z</time>
      </trkpt>
      <trkpt lat="42.99283" lon="1.20159">
        <ele>417</ele>
        <time>2024-06-23T08:15:38Z</time>
      </trkpt>
      <trkpt lat="42.99281" lon="1.20166">
        <ele>417.2</ele>
        <time>2024-06-23T08:15:39Z</time>
      </trkpt>
      <trkpt lat="42.99279" lon="1.20174">
        <ele>417</ele>
        <time>2024-06-23T08:15:40Z</time>
      </trkpt>
      <trkpt lat="42.99277" lon="1.20181">
        <ele>417</ele>
        <time>2024-06-23T08:15:41Z</time>
      </trkpt>
      <trkpt lat="42.99274" lon="1.20189">
        <ele>417.2</ele>
        <time>2024-06-23T08:15:42Z</time>
      </trkpt>
      <trkpt lat="42.99273" lon="1.20197">
        <ele>417.4</ele>
        <time>2024-06-23T08:15:43Z</time>
      </trkpt>
      <trkpt lat="42.99272" lon="1.20205">
        <ele>417.4</ele>
        <time>2024-06-23T08:15:44Z</time>
      </trkpt>
      <trkpt lat="42.9927" lon="1.20212">
        <ele>417.4</ele>
        <time>2024-06-23T08:15:45Z</time>
      </trkpt>
      <trkpt lat="42.99269" lon="1.20221">
        <ele>417.2</ele>
        <time>2024-06-23T08:15:46Z</time>
      </trkpt>
      <trkpt lat="42.99268" lon="1.20229">
        <ele>417.6</ele>
        <time>2024-06-23T08:15:47Z</time>
      </trkpt>
      <trkpt lat="42.99267" lon="1.20238">
        <ele>417.2</ele>
        <time>2024-06-23T08:15:48Z</time>
      </trkpt>
      <trkpt lat="42.99265" lon="1.20246">
        <ele>417.2</ele>
        <time>2024-06-23T08:15:49Z</time>
      </trkpt>
      <trkpt lat="42.99265" lon="1.20255">
        <ele>417.4</ele>
        <time>2024-06-23T08:15:50Z</time>
      </trkpt>
      <trkpt lat="42.99264" lon="1.20263">
        <ele>417.8</ele>
        <time>2024-06-23T08:15:51Z</time>
      </trkpt>
      <trkpt lat="42.99262" lon="1.20272">
        <ele>417.8</ele>
        <time>2024-06-23T08:15:52Z</time>
      </trkpt>
      <trkpt lat="42.99262" lon="1.2028">
        <ele>417.8</ele>
        <time>2024-06-23T08:15:53Z</time>
      </trkpt>
      <trkpt lat="42.99261" lon="1.20289">
        <ele>417.8</ele>
        <time>2024-06-23T08:15:54Z</time>
      </trkpt>
      <trkpt lat="42.9926" lon="1.20297">
        <ele>418.2</ele>
        <time>2024-06-23T08:15:55Z</time>
      </trkpt>
      <trkpt lat="42.99259" lon="1.20305">
        <ele>418.2</ele>
        <time>2024-06-23T08:15:56Z</time>
      </trkpt>
      <trkpt lat="42.99258" lon="1.20314">
        <ele>418.2</ele>
        <time>2024-06-23T08:15:57Z</time>
      </trkpt>
      <trkpt lat="42.99257" lon="1.20322">
        <ele>418</ele>
        <time>2024-06-23T08:15:58Z</time>
      </trkpt>
      <trkpt lat="42.99256" lon="1.2033">
        <ele>418</ele>
        <time>2024-06-23T08:15:59Z</time>
      </trkpt>
      <trkpt lat="42.99255" lon="1.20339">
        <ele>418</ele>
        <time>2024-06-23T08:16:00Z</time>
      </trkpt>
      <trkpt lat="42.99254" lon="1.20347">
        <ele>418</ele>
        <time>2024-06-23T08:16:01Z</time>
      </trkpt>
      <trkpt lat="42.99253" lon="1.20355">
        <ele>417.8</ele>
        <time>2024-06-23T08:16:02Z</time>
      </trkpt>
      <trkpt lat="42.99252" lon="1.20363">
        <ele>417.8</ele>
        <time>2024-06-23T08:16:03Z</time>
      </trkpt>
      <trkpt lat="42.99251" lon="1.20371">
        <ele>418</ele>
        <time>2024-06-23T08:16:04Z</time>
      </trkpt>
      <trkpt lat="42.9925" lon="1.20379">
        <ele>418.4</ele>
        <time>2024-06-23T08:16:05Z</time>
      </trkpt>
      <trkpt lat="42.99249" lon="1.20387">
        <ele>418.4</ele>
        <time>2024-06-23T08:16:06Z</time>
      </trkpt>
      <trkpt lat="42.99249" lon="1.20395">
        <ele>418.4</ele>
        <time>2024-06-23T08:16:07Z</time>
      </trkpt>
      <trkpt lat="42.99248" lon="1.20403">
        <ele>418.6</ele>
        <time>2024-06-23T08:16:08Z</time>
      </trkpt>
      <trkpt lat="42.99247" lon="1.20411">
        <ele>418.4</ele>
        <time>2024-06-23T08:16:09Z</time>
      </trkpt>
      <trkpt lat="42.99246" lon="1.20418">
        <ele>418.6</ele>
        <time>2024-06-23T08:16:10Z</time>
      </trkpt>
      <trkpt lat="42.99245" lon="1.20426">
        <ele>418.6</ele>
        <time>2024-06-23T08:16:11Z</time>
      </trkpt>
      <trkpt lat="42.99244" lon="1.20434">
        <ele>418.8</ele>
        <time>2024-06-23T08:16:12Z</time>
      </trkpt>
      <trkpt lat="42.99243" lon="1.20441">
        <ele>419.2</ele>
        <time>2024-06-23T08:16:13Z</time>
      </trkpt>
      <trkpt lat="42.99242" lon="1.2045">
        <ele>419.4</ele>
        <time>2024-06-23T08:16:14Z</time>
      </trkpt>
      <trkpt lat="42.99242" lon="1.20458">
        <ele>419.2</ele>
        <time>2024-06-23T08:16:15Z</time>
      </trkpt>
      <trkpt lat="42.99241" lon="1.20466">
        <ele>419.6</ele>
        <time>2024-06-23T08:16:16Z</time>
      </trkpt>
      <trkpt lat="42.9924" lon="1.20473">
        <ele>419.2</ele>
        <time>2024-06-23T08:16:17Z</time>
      </trkpt>
      <trkpt lat="42.99239" lon="1.20481">
        <ele>419.2</ele>
        <time>2024-06-23T08:16:18Z</time>
      </trkpt>
      <trkpt lat="42.99238" lon="1.20489">
        <ele>419.2</ele>
        <time>2024-06-23T08:16:19Z</time>
      </trkpt>
      <trkpt lat="42.99237" lon="1.20497">
        <ele>419.2</ele>
        <time>2024-06-23T08:16:20Z</time>
      </trkpt>
      <trkpt lat="42.99237" lon="1.20505">
        <ele>419.2</ele>
        <time>2024-06-23T08:16:21Z</time>
      </trkpt>
      <trkpt lat="42.99236" lon="1.20514">
        <ele>419.2</ele>
        <time>2024-06-23T08:16:22Z</time>
      </trkpt>
      <trkpt lat="42.99235" lon="1.20521">
        <ele>419.2</ele>
        <time>2024-06-23T08:16:23Z</time>
      </trkpt>
      <trkpt lat="42.99235" lon="1.20529">
        <ele>419.6</ele>
        <time>2024-06-23T08:16:24Z</time>
      </trkpt>
      <trkpt lat="42.99235" lon="1.20536">
        <ele>419.6</ele>
        <time>2024-06-23T08:16:25Z</time>
      </trkpt>
      <trkpt lat="42.99234" lon="1.20545">
        <ele>419.6</ele>
        <time>2024-06-23T08:16:26Z</time>
      </trkpt>
      <trkpt lat="42.99233" lon="1.20553">
        <ele>419.6</ele>
        <time>2024-06-23T08:16:27Z</time>
      </trkpt>
      <trkpt lat="42.99232" lon="1.20561">
        <ele>419.6</ele>
        <time>2024-06-23T08:16:28Z</time>
      </trkpt>
      <trkpt lat="42.99231" lon="1.2057">
        <ele>419.6</ele>
        <time>2024-06-23T08:16:29Z</time>
      </trkpt>
      <trkpt lat="42.9923" lon="1.20578">
        <ele>419.6</ele>
        <time>2024-06-23T08:16:30Z</time>
      </trkpt>
      <trkpt lat="42.99229" lon="1.20586">
        <ele>419.6</ele>
        <time>2024-06-23T08:16:31Z</time>
      </trkpt>
      <trkpt lat="42.99228" lon="1.20595">
        <ele>419.6</ele>
        <time>2024-06-23T08:16:32Z</time>
      </trkpt>
      <trkpt lat="42.99227" lon="1.20603">
        <ele>420</ele>
        <time>2024-06-23T08:16:33Z</time>
      </trkpt>
      <trkpt lat="42.99226" lon="1.20611">
        <ele>420</ele>
        <time>2024-06-23T08:16:34Z</time>
      </trkpt>
      <trkpt lat="42.99226" lon="1.20619">
        <ele>419.8</ele>
        <time>2024-06-23T08:16:35Z</time>
      </trkpt>
      <trkpt lat="42.99225" lon="1.20627">
        <ele>419.8</ele>
        <time>2024-06-23T08:16:36Z</time>
      </trkpt>
      <trkpt lat="42.99224" lon="1.20635">
        <ele>419.8</ele>
        <time>2024-06-23T08:16:37Z</time>
      </trkpt>
      <trkpt lat="42.99223" lon="1.20643">
        <ele>419.8</ele>
        <time>2024-06-23T08:16:38Z</time>
      </trkpt>
      <trkpt lat="42.99222" lon="1.20651">
        <ele>419.8</ele>
        <time>2024-06-23T08:16:39Z</time>
      </trkpt>
      <trkpt lat="42.99221" lon="1.20658">
        <ele>419.8</ele>
        <time>2024-06-23T08:16:40Z</time>
      </trkpt>
      <trkpt lat="42.99221" lon="1.20666">
        <ele>419.8</ele>
        <time>2024-06-23T08:16:41Z</time>
      </trkpt>
      <trkpt lat="42.99219" lon="1.20674">
        <ele>419.8</ele>
        <time>2024-06-23T08:16:42Z</time>
      </trkpt>
      <trkpt lat="42.99219" lon="1.20683">
        <ele>420.2</ele>
        <time>2024-06-23T08:16:43Z</time>
      </trkpt>
      <trkpt lat="42.99218" lon="1.2069">
        <ele>420.2</ele>
        <time>2024-06-23T08:16:44Z</time>
      </trkpt>
      <trkpt lat="42.99217" lon="1.20698">
        <ele>420.2</ele>
        <time>2024-06-23T08:16:45Z</time>
      </trkpt>
      <trkpt lat="42.99216" lon="1.20706">
        <ele>420.6</ele>
        <time>2024-06-23T08:16:46Z</time>
      </trkpt>
      <trkpt lat="42.99215" lon="1.20714">
        <ele>420.6</ele>
        <time>2024-06-23T08:16:47Z</time>
      </trkpt>
      <trkpt lat="42.99214" lon="1.20723">
        <ele>420.6</ele>
        <time>2024-06-23T08:16:48Z</time>
      </trkpt>
      <trkpt lat="42.99214" lon="1.20731">
        <ele>420.4</ele>
        <time>2024-06-23T08:16:49Z</time>
      </trkpt>
      <trkpt lat="42.99212" lon="1.20739">
        <ele>420.4</ele>
        <time>2024-06-23T08:16:50Z</time>
      </trkpt>
      <trkpt lat="42.99211" lon="1.20747">
        <ele>420.4</ele>
        <time>2024-06-23T08:16:51Z</time>
      </trkpt>
      <trkpt lat="42.9921" lon="1.20755">
        <ele>420.4</ele>
        <time>2024-06-23T08:16:52Z</time>
      </trkpt>
      <trkpt lat="42.9921" lon="1.20764">
        <ele>420.8</ele>
        <time>2024-06-23T08:16:53Z</time>
      </trkpt>
      <trkpt lat="42.99209" lon="1.20771">
        <ele>420.8</ele>
        <time>2024-06-23T08:16:54Z</time>
      </trkpt>
      <trkpt lat="42.99207" lon="1.20779">
        <ele>421</ele>
        <time>2024-06-23T08:16:55Z</time>
      </trkpt>
      <trkpt lat="42.99207" lon="1.20788">
        <ele>421.2</ele>
        <time>2024-06-23T08:16:56Z</time>
      </trkpt>
      <trkpt lat="42.99206" lon="1.20796">
        <ele>421.2</ele>
        <time>2024-06-23T08:16:57Z</time>
      </trkpt>
      <trkpt lat="42.99205" lon="1.20804">
        <ele>421.2</ele>
        <time>2024-06-23T08:16:58Z</time>
      </trkpt>
      <trkpt lat="42.99204" lon="1.20812">
        <ele>420.8</ele>
        <time>2024-06-23T08:16:59Z</time>
      </trkpt>
      <trkpt lat="42.99203" lon="1.2082">
        <ele>420.8</ele>
        <time>2024-06-23T08:17:00Z</time>
      </trkpt>
      <trkpt lat="42.99202" lon="1.20827">
        <ele>421.4</ele>
        <time>2024-06-23T08:17:01Z</time>
      </trkpt>
      <trkpt lat="42.99201" lon="1.20835">
        <ele>421.4</ele>
        <time>2024-06-23T08:17:02Z</time>
      </trkpt>
      <trkpt lat="42.992" lon="1.20843">
        <ele>421</ele>
        <time>2024-06-23T08:17:03Z</time>
      </trkpt>
      <trkpt lat="42.99199" lon="1.2085">
        <ele>421</ele>
        <time>2024-06-23T08:17:04Z</time>
      </trkpt>
      <trkpt lat="42.99198" lon="1.20859">
        <ele>421</ele>
        <time>2024-06-23T08:17:05Z</time>
      </trkpt>
      <trkpt lat="42.99197" lon="1.20867">
        <ele>421</ele>
        <time>2024-06-23T08:17:06Z</time>
      </trkpt>
      <trkpt lat="42.99197" lon="1.20874">
        <ele>421</ele>
        <time>2024-06-23T08:17:07Z</time>
      </trkpt>
      <trkpt lat="42.99196" lon="1.20882">
        <ele>420.6</ele>
        <time>2024-06-23T08:17:08Z</time>
      </trkpt>
      <trkpt lat="42.99195" lon="1.2089">
        <ele>421</ele>
        <time>2024-06-23T08:17:09Z</time>
      </trkpt>
      <trkpt lat="42.99195" lon="1.20898">
        <ele>421</ele>
        <time>2024-06-23T08:17:10Z</time>
      </trkpt>
      <trkpt lat="42.99193" lon="1.20906">
        <ele>421.2</ele>
        <time>2024-06-23T08:17:11Z</time>
      </trkpt>
      <trkpt lat="42.99192" lon="1.20914">
        <ele>421.6</ele>
        <time>2024-06-23T08:17:12Z</time>
      </trkpt>
      <trkpt lat="42.99192" lon="1.20922">
        <ele>422</ele>
        <time>2024-06-23T08:17:13Z</time>
      </trkpt>
      <trkpt lat="42.99191" lon="1.2093">
        <ele>421.8</ele>
        <time>2024-06-23T08:17:14Z</time>
      </trkpt>
      <trkpt lat="42.9919" lon="1.20938">
        <ele>422.2</ele>
        <time>2024-06-23T08:17:15Z</time>
      </trkpt>
      <trkpt lat="42.99189" lon="1.20946">
        <ele>421.6</ele>
        <time>2024-06-23T08:17:16Z</time>
      </trkpt>
      <trkpt lat="42.99188" lon="1.20954">
        <ele>421.2</ele>
        <time>2024-06-23T08:17:17Z</time>
      </trkpt>
      <trkpt lat="42.99187" lon="1.20962">
        <ele>421</ele>
        <time>2024-06-23T08:17:18Z</time>
      </trkpt>
      <trkpt lat="42.99186" lon="1.2097">
        <ele>421.4</ele>
        <time>2024-06-23T08:17:19Z</time>
      </trkpt>
      <trkpt lat="42.99186" lon="1.2097">
        <ele>421.4</ele>
        <time>2024-06-23T08:17:20Z</time>
      </trkpt>
      <trkpt lat="42.99186" lon="1.20978">
        <ele>421.8</ele>
        <time>2024-06-23T08:17:21Z</time>
      </trkpt>
      <trkpt lat="42.99185" lon="1.20987">
        <ele>422</ele>
        <time>2024-06-23T08:17:22Z</time>
      </trkpt>
      <trkpt lat="42.99184" lon="1.20995">
        <ele>422.2</ele>
        <time>2024-06-23T08:17:23Z</time>
      </trkpt>
      <trkpt lat="42.99184" lon="1.21003">
        <ele>422.2</ele>
        <time>2024-06-23T08:17:24Z</time>
      </trkpt>
      <trkpt lat="42.99184" lon="1.21011">
        <ele>422.2</ele>
        <time>2024-06-23T08:17:25Z</time>
      </trkpt>
      <trkpt lat="42.99183" lon="1.21019">
        <ele>422.2</ele>
        <time>2024-06-23T08:17:26Z</time>
      </trkpt>
      <trkpt lat="42.99182" lon="1.21028">
        <ele>422.2</ele>
        <time>2024-06-23T08:17:27Z</time>
      </trkpt>
      <trkpt lat="42.99182" lon="1.21035">
        <ele>422</ele>
        <time>2024-06-23T08:17:28Z</time>
      </trkpt>
      <trkpt lat="42.99182" lon="1.21043">
        <ele>422</ele>
        <time>2024-06-23T08:17:29Z</time>
      </trkpt>
      <trkpt lat="42.99182" lon="1.21052">
        <ele>422</ele>
        <time>2024-06-23T08:17:30Z</time>
      </trkpt>
      <trkpt lat="42.99182" lon="1.21059">
        <ele>422</ele>
        <time>2024-06-23T08:17:31Z</time>
      </trkpt>
      <trkpt lat="42.99181" lon="1.21067">
        <ele>422</ele>
        <time>2024-06-23T08:17:32Z</time>
      </trkpt>
      <trkpt lat="42.99181" lon="1.21075">
        <ele>422</ele>
        <time>2024-06-23T08:17:33Z</time>
      </trkpt>
      <trkpt lat="42.99181" lon="1.21083">
        <ele>421.8</ele>
        <time>2024-06-23T08:17:34Z</time>
      </trkpt>
      <trkpt lat="42.99181" lon="1.21091">
        <ele>422</ele>
        <time>2024-06-23T08:17:35Z</time>
      </trkpt>
      <trkpt lat="42.99181" lon="1.21099">
        <ele>422.4</ele>
        <time>2024-06-23T08:17:36Z</time>
      </trkpt>
      <trkpt lat="42.9918" lon="1.21107">
        <ele>422.4</ele>
        <time>2024-06-23T08:17:37Z</time>
      </trkpt>
      <trkpt lat="42.9918" lon="1.21115">
        <ele>422.8</ele>
        <time>2024-06-23T08:17:38Z</time>
      </trkpt>
      <trkpt lat="42.9918" lon="1.21123">
        <ele>422.8</ele>
        <time>2024-06-23T08:17:39Z</time>
      </trkpt>
      <trkpt lat="42.9918" lon="1.21131">
        <ele>422.8</ele>
        <time>2024-06-23T08:17:40Z</time>
      </trkpt>
      <trkpt lat="42.9918" lon="1.2114">
        <ele>422.8</ele>
        <time>2024-06-23T08:17:41Z</time>
      </trkpt>
      <trkpt lat="42.9918" lon="1.21148">
        <ele>422.8</ele>
        <time>2024-06-23T08:17:42Z</time>
      </trkpt>
      <trkpt lat="42.99181" lon="1.21156">
        <ele>422.8</ele>
        <time>2024-06-23T08:17:43Z</time>
      </trkpt>
      <trkpt lat="42.9918" lon="1.21164">
        <ele>423</ele>
        <time>2024-06-23T08:17:44Z</time>
      </trkpt>
      <trkpt lat="42.99181" lon="1.21173">
        <ele>423</ele>
        <time>2024-06-23T08:17:45Z</time>
      </trkpt>
      <trkpt lat="42.99181" lon="1.21181">
        <ele>423</ele>
        <time>2024-06-23T08:17:46Z</time>
      </trkpt>
      <trkpt lat="42.99182" lon="1.21189">
        <ele>423</ele>
        <time>2024-06-23T08:17:47Z</time>
      </trkpt>
      <trkpt lat="42.99182" lon="1.21197">
        <ele>423</ele>
        <time>2024-06-23T08:17:48Z</time>
      </trkpt>
      <trkpt lat="42.99183" lon="1.21205">
        <ele>423</ele>
        <time>2024-06-23T08:17:49Z</time>
      </trkpt>
      <trkpt lat="42.99183" lon="1.21213">
        <ele>423.2</ele>
        <time>2024-06-23T08:17:50Z</time>
      </trkpt>
      <trkpt lat="42.99183" lon="1.21221">
        <ele>423.2</ele>
        <time>2024-06-23T08:17:51Z</time>
      </trkpt>
      <trkpt lat="42.99184" lon="1.21229">
        <ele>423.4</ele>
        <time>2024-06-23T08:17:52Z</time>
      </trkpt>
      <trkpt lat="42.99185" lon="1.21237">
        <ele>423.4</ele>
        <time>2024-06-23T08:17:53Z</time>
      </trkpt>
      <trkpt lat="42.99185" lon="1.21245">
        <ele>423.4</ele>
        <time>2024-06-23T08:17:54Z</time>
      </trkpt>
      <trkpt lat="42.99185" lon="1.21253">
        <ele>423.4</ele>
        <time>2024-06-23T08:17:55Z</time>
      </trkpt>
      <trkpt lat="42.99186" lon="1.21262">
        <ele>423.4</ele>
        <time>2024-06-23T08:17:56Z</time>
      </trkpt>
      <trkpt lat="42.99187" lon="1.2127">
        <ele>423.4</ele>
        <time>2024-06-23T08:17:57Z</time>
      </trkpt>
      <trkpt lat="42.99187" lon="1.21279">
        <ele>423.4</ele>
        <time>2024-06-23T08:17:58Z</time>
      </trkpt>
      <trkpt lat="42.99188" lon="1.21291">
        <ele>424.2</ele>
        <time>2024-06-23T08:17:59Z</time>
      </trkpt>
      <trkpt lat="42.99189" lon="1.21295">
        <ele>424.2</ele>
        <time>2024-06-23T08:18:00Z</time>
      </trkpt>
      <trkpt lat="42.99189" lon="1.21303">
        <ele>424.2</ele>
        <time>2024-06-23T08:18:01Z</time>
      </trkpt>
      <trkpt lat="42.99192" lon="1.21318">
        <ele>424</ele>
        <time>2024-06-23T08:18:02Z</time>
      </trkpt>
      <trkpt lat="42.99194" lon="1.21326">
        <ele>424.2</ele>
        <time>2024-06-23T08:18:03Z</time>
      </trkpt>
      <trkpt lat="42.99192" lon="1.21335">
        <ele>423.8</ele>
        <time>2024-06-23T08:18:04Z</time>
      </trkpt>
      <trkpt lat="42.99194" lon="1.21342">
        <ele>423.8</ele>
        <time>2024-06-23T08:18:05Z</time>
      </trkpt>
      <trkpt lat="42.99194" lon="1.2135">
        <ele>423.8</ele>
        <time>2024-06-23T08:18:06Z</time>
      </trkpt>
      <trkpt lat="42.99196" lon="1.21357">
        <ele>424.2</ele>
        <time>2024-06-23T08:18:07Z</time>
      </trkpt>
      <trkpt lat="42.99197" lon="1.21364">
        <ele>424.2</ele>
        <time>2024-06-23T08:18:08Z</time>
      </trkpt>
      <trkpt lat="42.99197" lon="1.21371">
        <ele>424.2</ele>
        <time>2024-06-23T08:18:09Z</time>
      </trkpt>
      <trkpt lat="42.99195" lon="1.21377">
        <ele>424.2</ele>
        <time>2024-06-23T08:18:10Z</time>
      </trkpt>
      <trkpt lat="42.99195" lon="1.21385">
        <ele>424.2</ele>
        <time>2024-06-23T08:18:11Z</time>
      </trkpt>
      <trkpt lat="42.99195" lon="1.21392">
        <ele>424.2</ele>
        <time>2024-06-23T08:18:12Z</time>
      </trkpt>
      <trkpt lat="42.99196" lon="1.21399">
        <ele>424.8</ele>
        <time>2024-06-23T08:18:13Z</time>
      </trkpt>
      <trkpt lat="42.99199" lon="1.2141">
        <ele>424.8</ele>
        <time>2024-06-23T08:18:14Z</time>
      </trkpt>
      <trkpt lat="42.992" lon="1.21416">
        <ele>424.2</ele>
        <time>2024-06-23T08:18:15Z</time>
      </trkpt>
      <trkpt lat="42.992" lon="1.21423">
        <ele>424.2</ele>
        <time>2024-06-23T08:18:16Z</time>
      </trkpt>
      <trkpt lat="42.99202" lon="1.21434">
        <ele>424.6</ele>
        <time>2024-06-23T08:18:17Z</time>
      </trkpt>
      <trkpt lat="42.99203" lon="1.21444">
        <ele>424.6</ele>
        <time>2024-06-23T08:18:18Z</time>
      </trkpt>
      <trkpt lat="42.99203" lon="1.21452">
        <ele>424.6</ele>
        <time>2024-06-23T08:18:19Z</time>
      </trkpt>
      <trkpt lat="42.99204" lon="1.21463">
        <ele>424.6</ele>
        <time>2024-06-23T08:18:20Z</time>
      </trkpt>
      <trkpt lat="42.99204" lon="1.21472">
        <ele>424.8</ele>
        <time>2024-06-23T08:18:21Z</time>
      </trkpt>
      <trkpt lat="42.99204" lon="1.2148">
        <ele>425.2</ele>
        <time>2024-06-23T08:18:22Z</time>
      </trkpt>
      <trkpt lat="42.99205" lon="1.21488">
        <ele>425.2</ele>
        <time>2024-06-23T08:18:23Z</time>
      </trkpt>
      <trkpt lat="42.99205" lon="1.21496">
        <ele>425.2</ele>
        <time>2024-06-23T08:18:24Z</time>
      </trkpt>
      <trkpt lat="42.99205" lon="1.21504">
        <ele>424.8</ele>
        <time>2024-06-23T08:18:25Z</time>
      </trkpt>
      <trkpt lat="42.99205" lon="1.21512">
        <ele>424.8</ele>
        <time>2024-06-23T08:18:26Z</time>
      </trkpt>
      <trkpt lat="42.99206" lon="1.21521">
        <ele>424.8</ele>
        <time>2024-06-23T08:18:27Z</time>
      </trkpt>
      <trkpt lat="42.99206" lon="1.21529">
        <ele>424.8</ele>
        <time>2024-06-23T08:18:28Z</time>
      </trkpt>
      <trkpt lat="42.99206" lon="1.21538">
        <ele>424.8</ele>
        <time>2024-06-23T08:18:29Z</time>
      </trkpt>
      <trkpt lat="42.99206" lon="1.21546">
        <ele>425.2</ele>
        <time>2024-06-23T08:18:30Z</time>
      </trkpt>
      <trkpt lat="42.99207" lon="1.21554">
        <ele>425.2</ele>
        <time>2024-06-23T08:18:31Z</time>
      </trkpt>
      <trkpt lat="42.99207" lon="1.21563">
        <ele>425.2</ele>
        <time>2024-06-23T08:18:32Z</time>
      </trkpt>
      <trkpt lat="42.99206" lon="1.2157">
        <ele>425.2</ele>
        <time>2024-06-23T08:18:33Z</time>
      </trkpt>
      <trkpt lat="42.99205" lon="1.21579">
        <ele>425.2</ele>
        <time>2024-06-23T08:18:34Z</time>
      </trkpt>
      <trkpt lat="42.99205" lon="1.21587">
        <ele>425.2</ele>
        <time>2024-06-23T08:18:35Z</time>
      </trkpt>
      <trkpt lat="42.99205" lon="1.21595">
        <ele>425.2</ele>
        <time>2024-06-23T08:18:36Z</time>
      </trkpt>
      <trkpt lat="42.99205" lon="1.21604">
        <ele>425.2</ele>
        <time>2024-06-23T08:18:37Z</time>
      </trkpt>
      <trkpt lat="42.99205" lon="1.21613">
        <ele>425.2</ele>
        <time>2024-06-23T08:18:38Z</time>
      </trkpt>
      <trkpt lat="42.99205" lon="1.21621">
        <ele>425.2</ele>
        <time>2024-06-23T08:18:39Z</time>
      </trkpt>
      <trkpt lat="42.99204" lon="1.2163">
        <ele>425.2</ele>
        <time>2024-06-23T08:18:40Z</time>
      </trkpt>
      <trkpt lat="42.99203" lon="1.21638">
        <ele>425.6</ele>
        <time>2024-06-23T08:18:41Z</time>
      </trkpt>
      <trkpt lat="42.99203" lon="1.21647">
        <ele>425.6</ele>
        <time>2024-06-23T08:18:42Z</time>
      </trkpt>
      <trkpt lat="42.99203" lon="1.21655">
        <ele>425.6</ele>
        <time>2024-06-23T08:18:43Z</time>
      </trkpt>
      <trkpt lat="42.99202" lon="1.21664">
        <ele>425.6</ele>
        <time>2024-06-23T08:18:44Z</time>
      </trkpt>
      <trkpt lat="42.99201" lon="1.21672">
        <ele>425</ele>
        <time>2024-06-23T08:18:45Z</time>
      </trkpt>
      <trkpt lat="42.992" lon="1.21681">
        <ele>425.4</ele>
        <time>2024-06-23T08:18:46Z</time>
      </trkpt>
      <trkpt lat="42.99199" lon="1.2169">
        <ele>424.8</ele>
        <time>2024-06-23T08:18:47Z</time>
      </trkpt>
      <trkpt lat="42.99198" lon="1.21698">
        <ele>425.4</ele>
        <time>2024-06-23T08:18:48Z</time>
      </trkpt>
      <trkpt lat="42.99196" lon="1.21706">
        <ele>425.4</ele>
        <time>2024-06-23T08:18:49Z</time>
      </trkpt>
      <trkpt lat="42.99195" lon="1.21715">
        <ele>425.4</ele>
        <time>2024-06-23T08:18:50Z</time>
      </trkpt>
      <trkpt lat="42.99194" lon="1.21722">
        <ele>425.6</ele>
        <time>2024-06-23T08:18:51Z</time>
      </trkpt>
      <trkpt lat="42.99191" lon="1.21732">
        <ele>425.2</ele>
        <time>2024-06-23T08:18:52Z</time>
      </trkpt>
      <trkpt lat="42.99189" lon="1.21739">
        <ele>425.6</ele>
        <time>2024-06-23T08:18:53Z</time>
      </trkpt>
      <trkpt lat="42.99187" lon="1.21747">
        <ele>425.8</ele>
        <time>2024-06-23T08:18:54Z</time>
      </trkpt>
      <trkpt lat="42.99186" lon="1.21755">
        <ele>425.8</ele>
        <time>2024-06-23T08:18:55Z</time>
      </trkpt>
      <trkpt lat="42.99185" lon="1.21763">
        <ele>426.2</ele>
        <time>2024-06-23T08:18:56Z</time>
      </trkpt>
      <trkpt lat="42.99183" lon="1.21771">
        <ele>426.6</ele>
        <time>2024-06-23T08:18:57Z</time>
      </trkpt>
      <trkpt lat="42.99182" lon="1.21779">
        <ele>426.6</ele>
        <time>2024-06-23T08:18:58Z</time>
      </trkpt>
      <trkpt lat="42.99181" lon="1.21783">
        <ele>426.6</ele>
        <time>2024-06-23T08:18:59Z</time>
      </trkpt>
      <trkpt lat="42.9918" lon="1.21787">
        <ele>426.6</ele>
        <time>2024-06-23T08:19:00Z</time>
      </trkpt>
      <trkpt lat="42.99179" lon="1.21795">
        <ele>426.6</ele>
        <time>2024-06-23T08:19:01Z</time>
      </trkpt>
      <trkpt lat="42.99177" lon="1.21803">
        <ele>426.8</ele>
        <time>2024-06-23T08:19:02Z</time>
      </trkpt>
      <trkpt lat="42.99175" lon="1.21811">
        <ele>426.8</ele>
        <time>2024-06-23T08:19:03Z</time>
      </trkpt>
      <trkpt lat="42.99173" lon="1.21819">
        <ele>427</ele>
        <time>2024-06-23T08:19:04Z</time>
      </trkpt>
      <trkpt lat="42.99171" lon="1.21827">
        <ele>427</ele>
        <time>2024-06-23T08:19:05Z</time>
      </trkpt>
      <trkpt lat="42.99169" lon="1.21835">
        <ele>426.8</ele>
        <time>2024-06-23T08:19:06Z</time>
      </trkpt>
      <trkpt lat="42.99166" lon="1.21843">
        <ele>426.8</ele>
        <time>2024-06-23T08:19:07Z</time>
      </trkpt>
      <trkpt lat="42.99164" lon="1.2185">
        <ele>426.8</ele>
        <time>2024-06-23T08:19:08Z</time>
      </trkpt>
      <trkpt lat="42.99162" lon="1.21859">
        <ele>426.8</ele>
        <time>2024-06-23T08:19:09Z</time>
      </trkpt>
      <trkpt lat="42.99159" lon="1.21866">
        <ele>426.8</ele>
        <time>2024-06-23T08:19:10Z</time>
      </trkpt>
      <trkpt lat="42.99157" lon="1.21874">
        <ele>426.8</ele>
        <time>2024-06-23T08:19:11Z</time>
      </trkpt>
      <trkpt lat="42.99155" lon="1.21882">
        <ele>426.8</ele>
        <time>2024-06-23T08:19:12Z</time>
      </trkpt>
      <trkpt lat="42.99153" lon="1.2189">
        <ele>426.8</ele>
        <time>2024-06-23T08:19:13Z</time>
      </trkpt>
      <trkpt lat="42.99151" lon="1.21898">
        <ele>426.8</ele>
        <time>2024-06-23T08:19:14Z</time>
      </trkpt>
      <trkpt lat="42.99148" lon="1.21905">
        <ele>426.8</ele>
        <time>2024-06-23T08:19:15Z</time>
      </trkpt>
      <trkpt lat="42.99147" lon="1.21913">
        <ele>427</ele>
        <time>2024-06-23T08:19:16Z</time>
      </trkpt>
      <trkpt lat="42.99144" lon="1.21921">
        <ele>427</ele>
        <time>2024-06-23T08:19:17Z</time>
      </trkpt>
      <trkpt lat="42.99142" lon="1.21928">
        <ele>427</ele>
        <time>2024-06-23T08:19:18Z</time>
      </trkpt>
      <trkpt lat="42.9914" lon="1.21936">
        <ele>427.4</ele>
        <time>2024-06-23T08:19:19Z</time>
      </trkpt>
      <trkpt lat="42.99138" lon="1.21943">
        <ele>427.4</ele>
        <time>2024-06-23T08:19:20Z</time>
      </trkpt>
      <trkpt lat="42.99136" lon="1.21951">
        <ele>427</ele>
        <time>2024-06-23T08:19:21Z</time>
      </trkpt>
      <trkpt lat="42.99134" lon="1.21958">
        <ele>427</ele>
        <time>2024-06-23T08:19:22Z</time>
      </trkpt>
      <trkpt lat="42.99132" lon="1.21967">
        <ele>427</ele>
        <time>2024-06-23T08:19:23Z</time>
      </trkpt>
      <trkpt lat="42.9913" lon="1.21973">
        <ele>427</ele>
        <time>2024-06-23T08:19:24Z</time>
      </trkpt>
      <trkpt lat="42.9913" lon="1.21982">
        <ele>427.4</ele>
        <time>2024-06-23T08:19:25Z</time>
      </trkpt>
      <trkpt lat="42.99128" lon="1.2199">
        <ele>427.4</ele>
        <time>2024-06-23T08:19:26Z</time>
      </trkpt>
      <trkpt lat="42.99125" lon="1.21997">
        <ele>427.4</ele>
        <time>2024-06-23T08:19:27Z</time>
      </trkpt>
      <trkpt lat="42.99123" lon="1.22005">
        <ele>427.4</ele>
        <time>2024-06-23T08:19:28Z</time>
      </trkpt>
      <trkpt lat="42.99122" lon="1.22013">
        <ele>427.4</ele>
        <time>2024-06-23T08:19:29Z</time>
      </trkpt>
      <trkpt lat="42.99121" lon="1.22021">
        <ele>427.4</ele>
        <time>2024-06-23T08:19:30Z</time>
      </trkpt>
      <trkpt lat="42.9912" lon="1.22029">
        <ele>427.8</ele>
        <time>2024-06-23T08:19:31Z</time>
      </trkpt>
      <trkpt lat="42.99119" lon="1.22038">
        <ele>427.8</ele>
        <time>2024-06-23T08:19:32Z</time>
      </trkpt>
      <trkpt lat="42.99117" lon="1.22047">
        <ele>427.8</ele>
        <time>2024-06-23T08:19:33Z</time>
      </trkpt>
      <trkpt lat="42.99116" lon="1.22055">
        <ele>428</ele>
        <time>2024-06-23T08:19:34Z</time>
      </trkpt>
      <trkpt lat="42.99116" lon="1.22063">
        <ele>428</ele>
        <time>2024-06-23T08:19:35Z</time>
      </trkpt>
      <trkpt lat="42.99117" lon="1.22072">
        <ele>428</ele>
        <time>2024-06-23T08:19:36Z</time>
      </trkpt>
      <trkpt lat="42.99118" lon="1.2208">
        <ele>428</ele>
        <time>2024-06-23T08:19:37Z</time>
      </trkpt>
      <trkpt lat="42.99118" lon="1.22088">
        <ele>428</ele>
        <time>2024-06-23T08:19:38Z</time>
      </trkpt>
      <trkpt lat="42.99118" lon="1.22096">
        <ele>428</ele>
        <time>2024-06-23T08:19:39Z</time>
      </trkpt>
      <trkpt lat="42.99119" lon="1.22104">
        <ele>428</ele>
        <time>2024-06-23T08:19:40Z</time>
      </trkpt>
      <trkpt lat="42.99119" lon="1.22113">
        <ele>428</ele>
        <time>2024-06-23T08:19:41Z</time>
      </trkpt>
      <trkpt lat="42.99119" lon="1.22121">
        <ele>427.8</ele>
        <time>2024-06-23T08:19:42Z</time>
      </trkpt>
      <trkpt lat="42.9912" lon="1.22129">
        <ele>427.8</ele>
        <time>2024-06-23T08:19:43Z</time>
      </trkpt>
      <trkpt lat="42.9912" lon="1.22137">
        <ele>427.6</ele>
        <time>2024-06-23T08:19:44Z</time>
      </trkpt>
      <trkpt lat="42.99121" lon="1.22145">
        <ele>427.6</ele>
        <time>2024-06-23T08:19:45Z</time>
      </trkpt>
      <trkpt lat="42.99121" lon="1.22152">
        <ele>428</ele>
        <time>2024-06-23T08:19:46Z</time>
      </trkpt>
      <trkpt lat="42.99122" lon="1.2216">
        <ele>428</ele>
        <time>2024-06-23T08:19:47Z</time>
      </trkpt>
      <trkpt lat="42.99123" lon="1.22167">
        <ele>428</ele>
        <time>2024-06-23T08:19:48Z</time>
      </trkpt>
      <trkpt lat="42.99123" lon="1.22174">
        <ele>428</ele>
        <time>2024-06-23T08:19:49Z</time>
      </trkpt>
      <trkpt lat="42.99124" lon="1.22181">
        <ele>428</ele>
        <time>2024-06-23T08:19:50Z</time>
      </trkpt>
      <trkpt lat="42.99124" lon="1.22187">
        <ele>428.2</ele>
        <time>2024-06-23T08:19:51Z</time>
      </trkpt>
      <trkpt lat="42.99124" lon="1.22193">
        <ele>428.2</ele>
        <time>2024-06-23T08:19:52Z</time>
      </trkpt>
      <trkpt lat="42.99124" lon="1.22199">
        <ele>428.6</ele>
        <time>2024-06-23T08:19:53Z</time>
      </trkpt>
      <trkpt lat="42.99124" lon="1.22204">
        <ele>428.6</ele>
        <time>2024-06-23T08:19:54Z</time>
      </trkpt>
      <trkpt lat="42.99123" lon="1.22209">
        <ele>428.8</ele>
        <time>2024-06-23T08:19:55Z</time>
      </trkpt>
      <trkpt lat="42.99124" lon="1.22215">
        <ele>428.8</ele>
        <time>2024-06-23T08:19:56Z</time>
      </trkpt>
      <trkpt lat="42.99125" lon="1.2222">
        <ele>428.8</ele>
        <time>2024-06-23T08:19:57Z</time>
      </trkpt>
      <trkpt lat="42.99126" lon="1.22226">
        <ele>429</ele>
        <time>2024-06-23T08:19:58Z</time>
      </trkpt>
      <trkpt lat="42.99129" lon="1.22235">
        <ele>429</ele>
        <time>2024-06-23T08:19:59Z</time>
      </trkpt>
      <trkpt lat="42.9913" lon="1.22238">
        <ele>429</ele>
        <time>2024-06-23T08:20:00Z</time>
      </trkpt>
      <trkpt lat="42.99132" lon="1.22244">
        <ele>429</ele>
        <time>2024-06-23T08:20:01Z</time>
      </trkpt>
      <trkpt lat="42.99134" lon="1.22251">
        <ele>429</ele>
        <time>2024-06-23T08:20:02Z</time>
      </trkpt>
      <trkpt lat="42.99136" lon="1.22258">
        <ele>429</ele>
        <time>2024-06-23T08:20:03Z</time>
      </trkpt>
      <trkpt lat="42.99139" lon="1.22264">
        <ele>429</ele>
        <time>2024-06-23T08:20:04Z</time>
      </trkpt>
      <trkpt lat="42.9914" lon="1.2227">
        <ele>429</ele>
        <time>2024-06-23T08:20:05Z</time>
      </trkpt>
      <trkpt lat="42.99142" lon="1.22277">
        <ele>429</ele>
        <time>2024-06-23T08:20:06Z</time>
      </trkpt>
      <trkpt lat="42.99145" lon="1.22283">
        <ele>429</ele>
        <time>2024-06-23T08:20:07Z</time>
      </trkpt>
      <trkpt lat="42.99147" lon="1.2229">
        <ele>429.2</ele>
        <time>2024-06-23T08:20:08Z</time>
      </trkpt>
      <trkpt lat="42.9915" lon="1.22295">
        <ele>429.2</ele>
        <time>2024-06-23T08:20:09Z</time>
      </trkpt>
      <trkpt lat="42.99153" lon="1.22302">
        <ele>429.2</ele>
        <time>2024-06-23T08:20:10Z</time>
      </trkpt>
      <trkpt lat="42.99155" lon="1.22308">
        <ele>429.2</ele>
        <time>2024-06-23T08:20:11Z</time>
      </trkpt>
      <trkpt lat="42.99158" lon="1.22314">
        <ele>429.6</ele>
        <time>2024-06-23T08:20:12Z</time>
      </trkpt>
      <trkpt lat="42.99161" lon="1.2232">
        <ele>429.6</ele>
        <time>2024-06-23T08:20:13Z</time>
      </trkpt>
      <trkpt lat="42.99164" lon="1.22326">
        <ele>430</ele>
        <time>2024-06-23T08:20:14Z</time>
      </trkpt>
      <trkpt lat="42.99167" lon="1.22332">
        <ele>430</ele>
        <time>2024-06-23T08:20:15Z</time>
      </trkpt>
      <trkpt lat="42.99171" lon="1.22337">
        <ele>430</ele>
        <time>2024-06-23T08:20:16Z</time>
      </trkpt>
      <trkpt lat="42.99175" lon="1.22343">
        <ele>430</ele>
        <time>2024-06-23T08:20:17Z</time>
      </trkpt>
      <trkpt lat="42.99178" lon="1.22348">
        <ele>430.4</ele>
        <time>2024-06-23T08:20:18Z</time>
      </trkpt>
      <trkpt lat="42.99181" lon="1.22353">
        <ele>430.4</ele>
        <time>2024-06-23T08:20:19Z</time>
      </trkpt>
      <trkpt lat="42.99185" lon="1.22359">
        <ele>430.4</ele>
        <time>2024-06-23T08:20:20Z</time>
      </trkpt>
      <trkpt lat="42.99188" lon="1.22364">
        <ele>430.8</ele>
        <time>2024-06-23T08:20:21Z</time>
      </trkpt>
      <trkpt lat="42.99193" lon="1.2237">
        <ele>430.8</ele>
        <time>2024-06-23T08:20:22Z</time>
      </trkpt>
      <trkpt lat="42.99197" lon="1.22376">
        <ele>430.8</ele>
        <time>2024-06-23T08:20:23Z</time>
      </trkpt>
      <trkpt lat="42.99202" lon="1.22381">
        <ele>431</ele>
        <time>2024-06-23T08:20:24Z</time>
      </trkpt>
      <trkpt lat="42.99206" lon="1.22386">
        <ele>431.2</ele>
        <time>2024-06-23T08:20:25Z</time>
      </trkpt>
      <trkpt lat="42.9921" lon="1.22391">
        <ele>431.2</ele>
        <time>2024-06-23T08:20:26Z</time>
      </trkpt>
      <trkpt lat="42.99215" lon="1.22397">
        <ele>431.2</ele>
        <time>2024-06-23T08:20:27Z</time>
      </trkpt>
      <trkpt lat="42.9922" lon="1.22402">
        <ele>431.2</ele>
        <time>2024-06-23T08:20:28Z</time>
      </trkpt>
      <trkpt lat="42.99225" lon="1.22407">
        <ele>431.2</ele>
        <time>2024-06-23T08:20:29Z</time>
      </trkpt>
      <trkpt lat="42.9923" lon="1.22411">
        <ele>431.4</ele>
        <time>2024-06-23T08:20:30Z</time>
      </trkpt>
      <trkpt lat="42.99235" lon="1.22414">
        <ele>431.4</ele>
        <time>2024-06-23T08:20:31Z</time>
      </trkpt>
      <trkpt lat="42.9924" lon="1.22419">
        <ele>431.8</ele>
        <time>2024-06-23T08:20:32Z</time>
      </trkpt>
      <trkpt lat="42.99245" lon="1.22423">
        <ele>431.8</ele>
        <time>2024-06-23T08:20:33Z</time>
      </trkpt>
      <trkpt lat="42.9925" lon="1.22426">
        <ele>432</ele>
        <time>2024-06-23T08:20:34Z</time>
      </trkpt>
      <trkpt lat="42.99255" lon="1.22431">
        <ele>431.8</ele>
        <time>2024-06-23T08:20:35Z</time>
      </trkpt>
      <trkpt lat="42.9926" lon="1.22435">
        <ele>431.8</ele>
        <time>2024-06-23T08:20:36Z</time>
      </trkpt>
      <trkpt lat="42.99266" lon="1.22438">
        <ele>431.6</ele>
        <time>2024-06-23T08:20:37Z</time>
      </trkpt>
      <trkpt lat="42.99272" lon="1.22442">
        <ele>431.6</ele>
        <time>2024-06-23T08:20:38Z</time>
      </trkpt>
      <trkpt lat="42.99277" lon="1.22445">
        <ele>432</ele>
        <time>2024-06-23T08:20:39Z</time>
      </trkpt>
      <trkpt lat="42.99283" lon="1.22447">
        <ele>432</ele>
        <time>2024-06-23T08:20:40Z</time>
      </trkpt>
      <trkpt lat="42.99289" lon="1.22451">
        <ele>432</ele>
        <time>2024-06-23T08:20:41Z</time>
      </trkpt>
      <trkpt lat="42.99294" lon="1.22454">
        <ele>432.2</ele>
        <time>2024-06-23T08:20:42Z</time>
      </trkpt>
      <trkpt lat="42.99301" lon="1.22457">
        <ele>432.2</ele>
        <time>2024-06-23T08:20:43Z</time>
      </trkpt>
      <trkpt lat="42.99306" lon="1.2246">
        <ele>432.2</ele>
        <time>2024-06-23T08:20:44Z</time>
      </trkpt>
      <trkpt lat="42.99311" lon="1.22462">
        <ele>432.2</ele>
        <time>2024-06-23T08:20:45Z</time>
      </trkpt>
      <trkpt lat="42.99316" lon="1.22463">
        <ele>432.6</ele>
        <time>2024-06-23T08:20:46Z</time>
      </trkpt>
      <trkpt lat="42.99322" lon="1.22466">
        <ele>432.6</ele>
        <time>2024-06-23T08:20:47Z</time>
      </trkpt>
      <trkpt lat="42.99328" lon="1.22469">
        <ele>432.8</ele>
        <time>2024-06-23T08:20:48Z</time>
      </trkpt>
      <trkpt lat="42.99334" lon="1.2247">
        <ele>432.8</ele>
        <time>2024-06-23T08:20:49Z</time>
      </trkpt>
      <trkpt lat="42.99339" lon="1.22471">
        <ele>432.8</ele>
        <time>2024-06-23T08:20:50Z</time>
      </trkpt>
      <trkpt lat="42.99344" lon="1.22473">
        <ele>432.8</ele>
        <time>2024-06-23T08:20:51Z</time>
      </trkpt>
      <trkpt lat="42.99348" lon="1.22475">
        <ele>433.2</ele>
        <time>2024-06-23T08:20:52Z</time>
      </trkpt>
      <trkpt lat="42.99353" lon="1.22476">
        <ele>433.2</ele>
        <time>2024-06-23T08:20:53Z</time>
      </trkpt>
      <trkpt lat="42.99359" lon="1.22477">
        <ele>433.6</ele>
        <time>2024-06-23T08:20:54Z</time>
      </trkpt>
      <trkpt lat="42.99363" lon="1.22479">
        <ele>433.6</ele>
        <time>2024-06-23T08:20:55Z</time>
      </trkpt>
      <trkpt lat="42.99369" lon="1.22481">
        <ele>433.6</ele>
        <time>2024-06-23T08:20:56Z</time>
      </trkpt>
      <trkpt lat="42.99374" lon="1.22482">
        <ele>433.6</ele>
        <time>2024-06-23T08:20:57Z</time>
      </trkpt>
      <trkpt lat="42.99379" lon="1.22485">
        <ele>433.6</ele>
        <time>2024-06-23T08:20:58Z</time>
      </trkpt>
      <trkpt lat="42.99386" lon="1.22486">
        <ele>433.8</ele>
        <time>2024-06-23T08:20:59Z</time>
      </trkpt>
      <trkpt lat="42.99392" lon="1.22488">
        <ele>433.8</ele>
        <time>2024-06-23T08:21:00Z</time>
      </trkpt>
      <trkpt lat="42.99399" lon="1.2249">
        <ele>433.8</ele>
        <time>2024-06-23T08:21:01Z</time>
      </trkpt>
      <trkpt lat="42.99403" lon="1.2249">
        <ele>434.2</ele>
        <time>2024-06-23T08:21:02Z</time>
      </trkpt>
      <trkpt lat="42.99409" lon="1.22492">
        <ele>434.2</ele>
        <time>2024-06-23T08:21:03Z</time>
      </trkpt>
      <trkpt lat="42.99415" lon="1.22494">
        <ele>434.2</ele>
        <time>2024-06-23T08:21:04Z</time>
      </trkpt>
      <trkpt lat="42.9942" lon="1.22495">
        <ele>434.4</ele>
        <time>2024-06-23T08:21:05Z</time>
      </trkpt>
      <trkpt lat="42.99425" lon="1.22498">
        <ele>434.4</ele>
        <time>2024-06-23T08:21:06Z</time>
      </trkpt>
      <trkpt lat="42.99429" lon="1.225">
        <ele>434.4</ele>
        <time>2024-06-23T08:21:07Z</time>
      </trkpt>
      <trkpt lat="42.99434" lon="1.22501">
        <ele>434.4</ele>
        <time>2024-06-23T08:21:08Z</time>
      </trkpt>
      <trkpt lat="42.9944" lon="1.22503">
        <ele>434.4</ele>
        <time>2024-06-23T08:21:09Z</time>
      </trkpt>
      <trkpt lat="42.99445" lon="1.22507">
        <ele>434.4</ele>
        <time>2024-06-23T08:21:10Z</time>
      </trkpt>
      <trkpt lat="42.9945" lon="1.22508">
        <ele>434.4</ele>
        <time>2024-06-23T08:21:11Z</time>
      </trkpt>
      <trkpt lat="42.99455" lon="1.2251">
        <ele>434.8</ele>
        <time>2024-06-23T08:21:12Z</time>
      </trkpt>
      <trkpt lat="42.9946" lon="1.22512">
        <ele>434.8</ele>
        <time>2024-06-23T08:21:13Z</time>
      </trkpt>
      <trkpt lat="42.99465" lon="1.22514">
        <ele>434.6</ele>
        <time>2024-06-23T08:21:14Z</time>
      </trkpt>
      <trkpt lat="42.99472" lon="1.22518">
        <ele>434.6</ele>
        <time>2024-06-23T08:21:15Z</time>
      </trkpt>
      <trkpt lat="42.99478" lon="1.22523">
        <ele>435</ele>
        <time>2024-06-23T08:21:16Z</time>
      </trkpt>
      <trkpt lat="42.99484" lon="1.22528">
        <ele>435</ele>
        <time>2024-06-23T08:21:17Z</time>
      </trkpt>
      <trkpt lat="42.9949" lon="1.22532">
        <ele>435</ele>
        <time>2024-06-23T08:21:18Z</time>
      </trkpt>
      <trkpt lat="42.99495" lon="1.22535">
        <ele>435</ele>
        <time>2024-06-23T08:21:19Z</time>
      </trkpt>
      <trkpt lat="42.995" lon="1.22538">
        <ele>435</ele>
        <time>2024-06-23T08:21:20Z</time>
      </trkpt>
      <trkpt lat="42.99504" lon="1.22541">
        <ele>435.4</ele>
        <time>2024-06-23T08:21:21Z</time>
      </trkpt>
      <trkpt lat="42.99508" lon="1.22544">
        <ele>435.6</ele>
        <time>2024-06-23T08:21:22Z</time>
      </trkpt>
      <trkpt lat="42.99514" lon="1.22549">
        <ele>435.4</ele>
        <time>2024-06-23T08:21:23Z</time>
      </trkpt>
      <trkpt lat="42.99524" lon="1.22558">
        <ele>435.4</ele>
        <time>2024-06-23T08:21:24Z</time>
      </trkpt>
      <trkpt lat="42.99528" lon="1.22564">
        <ele>435.4</ele>
        <time>2024-06-23T08:21:25Z</time>
      </trkpt>
      <trkpt lat="42.99532" lon="1.22569">
        <ele>435.4</ele>
        <time>2024-06-23T08:21:26Z</time>
      </trkpt>
      <trkpt lat="42.99537" lon="1.22574">
        <ele>435.4</ele>
        <time>2024-06-23T08:21:27Z</time>
      </trkpt>
      <trkpt lat="42.99541" lon="1.2258">
        <ele>435.4</ele>
        <time>2024-06-23T08:21:28Z</time>
      </trkpt>
      <trkpt lat="42.99546" lon="1.22587">
        <ele>435.8</ele>
        <time>2024-06-23T08:21:29Z</time>
      </trkpt>
      <trkpt lat="42.99551" lon="1.22592">
        <ele>435.8</ele>
        <time>2024-06-23T08:21:30Z</time>
      </trkpt>
      <trkpt lat="42.99555" lon="1.22597">
        <ele>436</ele>
        <time>2024-06-23T08:21:31Z</time>
      </trkpt>
      <trkpt lat="42.9956" lon="1.22604">
        <ele>436.2</ele>
        <time>2024-06-23T08:21:32Z</time>
      </trkpt>
      <trkpt lat="42.99565" lon="1.22611">
        <ele>436.2</ele>
        <time>2024-06-23T08:21:33Z</time>
      </trkpt>
      <trkpt lat="42.99569" lon="1.22616">
        <ele>436.2</ele>
        <time>2024-06-23T08:21:34Z</time>
      </trkpt>
      <trkpt lat="42.99573" lon="1.22622">
        <ele>436.2</ele>
        <time>2024-06-23T08:21:35Z</time>
      </trkpt>
      <trkpt lat="42.99577" lon="1.22629">
        <ele>436.2</ele>
        <time>2024-06-23T08:21:36Z</time>
      </trkpt>
      <trkpt lat="42.99581" lon="1.22636">
        <ele>436.6</ele>
        <time>2024-06-23T08:21:37Z</time>
      </trkpt>
      <trkpt lat="42.99584" lon="1.22642">
        <ele>436.6</ele>
        <time>2024-06-23T08:21:38Z</time>
      </trkpt>
      <trkpt lat="42.99587" lon="1.22649">
        <ele>436.6</ele>
        <time>2024-06-23T08:21:39Z</time>
      </trkpt>
      <trkpt lat="42.99592" lon="1.22657">
        <ele>437</ele>
        <time>2024-06-23T08:21:40Z</time>
      </trkpt>
      <trkpt lat="42.99597" lon="1.22664">
        <ele>437</ele>
        <time>2024-06-23T08:21:41Z</time>
      </trkpt>
      <trkpt lat="42.99599" lon="1.2267">
        <ele>437</ele>
        <time>2024-06-23T08:21:42Z</time>
      </trkpt>
      <trkpt lat="42.99603" lon="1.22676">
        <ele>437.4</ele>
        <time>2024-06-23T08:21:43Z</time>
      </trkpt>
      <trkpt lat="42.99606" lon="1.22684">
        <ele>437.4</ele>
        <time>2024-06-23T08:21:44Z</time>
      </trkpt>
      <trkpt lat="42.9961" lon="1.2269">
        <ele>437.4</ele>
        <time>2024-06-23T08:21:45Z</time>
      </trkpt>
      <trkpt lat="42.99612" lon="1.22696">
        <ele>437.4</ele>
        <time>2024-06-23T08:21:46Z</time>
      </trkpt>
      <trkpt lat="42.99616" lon="1.22703">
        <ele>437.4</ele>
        <time>2024-06-23T08:21:47Z</time>
      </trkpt>
      <trkpt lat="42.99618" lon="1.22709">
        <ele>437.4</ele>
        <time>2024-06-23T08:21:48Z</time>
      </trkpt>
      <trkpt lat="42.99622" lon="1.22713">
        <ele>437</ele>
        <time>2024-06-23T08:21:49Z</time>
      </trkpt>
      <trkpt lat="42.99624" lon="1.22719">
        <ele>437.2</ele>
        <time>2024-06-23T08:21:50Z</time>
      </trkpt>
      <trkpt lat="42.99628" lon="1.22727">
        <ele>437.2</ele>
        <time>2024-06-23T08:21:51Z</time>
      </trkpt>
      <trkpt lat="42.99632" lon="1.22736">
        <ele>437.8</ele>
        <time>2024-06-23T08:21:52Z</time>
      </trkpt>
      <trkpt lat="42.99636" lon="1.22742">
        <ele>437.8</ele>
        <time>2024-06-23T08:21:53Z</time>
      </trkpt>
      <trkpt lat="42.9964" lon="1.22748">
        <ele>438</ele>
        <time>2024-06-23T08:21:54Z</time>
      </trkpt>
      <trkpt lat="42.99644" lon="1.22755">
        <ele>438</ele>
        <time>2024-06-23T08:21:55Z</time>
      </trkpt>
      <trkpt lat="42.99646" lon="1.2276">
        <ele>438.2</ele>
        <time>2024-06-23T08:21:56Z</time>
      </trkpt>
      <trkpt lat="42.99648" lon="1.22768">
        <ele>438.2</ele>
        <time>2024-06-23T08:21:57Z</time>
      </trkpt>
      <trkpt lat="42.99653" lon="1.22773">
        <ele>438.2</ele>
        <time>2024-06-23T08:21:58Z</time>
      </trkpt>
      <trkpt lat="42.99656" lon="1.2278">
        <ele>438.2</ele>
        <time>2024-06-23T08:21:59Z</time>
      </trkpt>
      <trkpt lat="42.99659" lon="1.22786">
        <ele>438.2</ele>
        <time>2024-06-23T08:22:00Z</time>
      </trkpt>
      <trkpt lat="42.99663" lon="1.22791">
        <ele>438.2</ele>
        <time>2024-06-23T08:22:01Z</time>
      </trkpt>
      <trkpt lat="42.99666" lon="1.22799">
        <ele>438.2</ele>
        <time>2024-06-23T08:22:02Z</time>
      </trkpt>
      <trkpt lat="42.9967" lon="1.22807">
        <ele>438.2</ele>
        <time>2024-06-23T08:22:03Z</time>
      </trkpt>
      <trkpt lat="42.99674" lon="1.22813">
        <ele>438.2</ele>
        <time>2024-06-23T08:22:04Z</time>
      </trkpt>
      <trkpt lat="42.9968" lon="1.22822">
        <ele>438.2</ele>
        <time>2024-06-23T08:22:05Z</time>
      </trkpt>
      <trkpt lat="42.99683" lon="1.22828">
        <ele>438.4</ele>
        <time>2024-06-23T08:22:06Z</time>
      </trkpt>
      <trkpt lat="42.99688" lon="1.22835">
        <ele>438.8</ele>
        <time>2024-06-23T08:22:07Z</time>
      </trkpt>
      <trkpt lat="42.99692" lon="1.22842">
        <ele>438.8</ele>
        <time>2024-06-23T08:22:08Z</time>
      </trkpt>
      <trkpt lat="42.99695" lon="1.22849">
        <ele>438.8</ele>
        <time>2024-06-23T08:22:09Z</time>
      </trkpt>
      <trkpt lat="42.99699" lon="1.22855">
        <ele>438.8</ele>
        <time>2024-06-23T08:22:10Z</time>
      </trkpt>
      <trkpt lat="42.99702" lon="1.22862">
        <ele>439.2</ele>
        <time>2024-06-23T08:22:11Z</time>
      </trkpt>
      <trkpt lat="42.99706" lon="1.2287">
        <ele>439.4</ele>
        <time>2024-06-23T08:22:12Z</time>
      </trkpt>
      <trkpt lat="42.9971" lon="1.22878">
        <ele>439.4</ele>
        <time>2024-06-23T08:22:13Z</time>
      </trkpt>
      <trkpt lat="42.99714" lon="1.22884">
        <ele>439.4</ele>
        <time>2024-06-23T08:22:14Z</time>
      </trkpt>
      <trkpt lat="42.99717" lon="1.22892">
        <ele>439.4</ele>
        <time>2024-06-23T08:22:15Z</time>
      </trkpt>
      <trkpt lat="42.99721" lon="1.22899">
        <ele>439.2</ele>
        <time>2024-06-23T08:22:16Z</time>
      </trkpt>
      <trkpt lat="42.99724" lon="1.22906">
        <ele>439.6</ele>
        <time>2024-06-23T08:22:17Z</time>
      </trkpt>
      <trkpt lat="42.99727" lon="1.22913">
        <ele>439.6</ele>
        <time>2024-06-23T08:22:18Z</time>
      </trkpt>
      <trkpt lat="42.99729" lon="1.22919">
        <ele>439.8</ele>
        <time>2024-06-23T08:22:19Z</time>
      </trkpt>
      <trkpt lat="42.99733" lon="1.22925">
        <ele>439.8</ele>
        <time>2024-06-23T08:22:20Z</time>
      </trkpt>
      <trkpt lat="42.99736" lon="1.22932">
        <ele>439.8</ele>
        <time>2024-06-23T08:22:21Z</time>
      </trkpt>
      <trkpt lat="42.99739" lon="1.22939">
        <ele>440</ele>
        <time>2024-06-23T08:22:22Z</time>
      </trkpt>
      <trkpt lat="42.99741" lon="1.22946">
        <ele>440</ele>
        <time>2024-06-23T08:22:23Z</time>
      </trkpt>
      <trkpt lat="42.99743" lon="1.22954">
        <ele>440</ele>
        <time>2024-06-23T08:22:24Z</time>
      </trkpt>
      <trkpt lat="42.99745" lon="1.22961">
        <ele>440</ele>
        <time>2024-06-23T08:22:25Z</time>
      </trkpt>
      <trkpt lat="42.99748" lon="1.22969">
        <ele>440</ele>
        <time>2024-06-23T08:22:26Z</time>
      </trkpt>
      <trkpt lat="42.9975" lon="1.22975">
        <ele>440</ele>
        <time>2024-06-23T08:22:27Z</time>
      </trkpt>
      <trkpt lat="42.99752" lon="1.22982">
        <ele>440</ele>
        <time>2024-06-23T08:22:28Z</time>
      </trkpt>
      <trkpt lat="42.99754" lon="1.2299">
        <ele>440</ele>
        <time>2024-06-23T08:22:29Z</time>
      </trkpt>
      <trkpt lat="42.99755" lon="1.22997">
        <ele>440.4</ele>
        <time>2024-06-23T08:22:30Z</time>
      </trkpt>
      <trkpt lat="42.99757" lon="1.23005">
        <ele>440.6</ele>
        <time>2024-06-23T08:22:31Z</time>
      </trkpt>
      <trkpt lat="42.99757" lon="1.23012">
        <ele>440.6</ele>
        <time>2024-06-23T08:22:32Z</time>
      </trkpt>
      <trkpt lat="42.99758" lon="1.23019">
        <ele>440.8</ele>
        <time>2024-06-23T08:22:33Z</time>
      </trkpt>
      <trkpt lat="42.99759" lon="1.23026">
        <ele>440.8</ele>
        <time>2024-06-23T08:22:34Z</time>
      </trkpt>
      <trkpt lat="42.99761" lon="1.23034">
        <ele>440.8</ele>
        <time>2024-06-23T08:22:35Z</time>
      </trkpt>
      <trkpt lat="42.99762" lon="1.23043">
        <ele>440.8</ele>
        <time>2024-06-23T08:22:36Z</time>
      </trkpt>
      <trkpt lat="42.99762" lon="1.2305">
        <ele>441.2</ele>
        <time>2024-06-23T08:22:37Z</time>
      </trkpt>
      <trkpt lat="42.99764" lon="1.23058">
        <ele>441.2</ele>
        <time>2024-06-23T08:22:38Z</time>
      </trkpt>
      <trkpt lat="42.99764" lon="1.23066">
        <ele>441.2</ele>
        <time>2024-06-23T08:22:39Z</time>
      </trkpt>
      <trkpt lat="42.99764" lon="1.23074">
        <ele>441.2</ele>
        <time>2024-06-23T08:22:40Z</time>
      </trkpt>
      <trkpt lat="42.99765" lon="1.23082">
        <ele>441.2</ele>
        <time>2024-06-23T08:22:41Z</time>
      </trkpt>
      <trkpt lat="42.99765" lon="1.2309">
        <ele>441.2</ele>
        <time>2024-06-23T08:22:42Z</time>
      </trkpt>
      <trkpt lat="42.99765" lon="1.23099">
        <ele>441.4</ele>
        <time>2024-06-23T08:22:43Z</time>
      </trkpt>
      <trkpt lat="42.99765" lon="1.23108">
        <ele>441.4</ele>
        <time>2024-06-23T08:22:44Z</time>
      </trkpt>
      <trkpt lat="42.99765" lon="1.23116">
        <ele>441.4</ele>
        <time>2024-06-23T08:22:45Z</time>
      </trkpt>
      <trkpt lat="42.99764" lon="1.23124">
        <ele>441.6</ele>
        <time>2024-06-23T08:22:46Z</time>
      </trkpt>
      <trkpt lat="42.99764" lon="1.23132">
        <ele>441.6</ele>
        <time>2024-06-23T08:22:47Z</time>
      </trkpt>
      <trkpt lat="42.99764" lon="1.23141">
        <ele>441.6</ele>
        <time>2024-06-23T08:22:48Z</time>
      </trkpt>
      <trkpt lat="42.99764" lon="1.23149">
        <ele>441.6</ele>
        <time>2024-06-23T08:22:49Z</time>
      </trkpt>
      <trkpt lat="42.99763" lon="1.23157">
        <ele>441.6</ele>
        <time>2024-06-23T08:22:50Z</time>
      </trkpt>
      <trkpt lat="42.99762" lon="1.23165">
        <ele>441.6</ele>
        <time>2024-06-23T08:22:51Z</time>
      </trkpt>
      <trkpt lat="42.99761" lon="1.23173">
        <ele>441.6</ele>
        <time>2024-06-23T08:22:52Z</time>
      </trkpt>
      <trkpt lat="42.9976" lon="1.2318">
        <ele>441.6</ele>
        <time>2024-06-23T08:22:53Z</time>
      </trkpt>
      <trkpt lat="42.99759" lon="1.23188">
        <ele>441.8</ele>
        <time>2024-06-23T08:22:54Z</time>
      </trkpt>
      <trkpt lat="42.99757" lon="1.23195">
        <ele>441.8</ele>
        <time>2024-06-23T08:22:55Z</time>
      </trkpt>
      <trkpt lat="42.99756" lon="1.23203">
        <ele>441.8</ele>
        <time>2024-06-23T08:22:56Z</time>
      </trkpt>
      <trkpt lat="42.99755" lon="1.2321">
        <ele>442.2</ele>
        <time>2024-06-23T08:22:57Z</time>
      </trkpt>
      <trkpt lat="42.99754" lon="1.23218">
        <ele>442.2</ele>
        <time>2024-06-23T08:22:58Z</time>
      </trkpt>
      <trkpt lat="42.99752" lon="1.23225">
        <ele>442.2</ele>
        <time>2024-06-23T08:22:59Z</time>
      </trkpt>
      <trkpt lat="42.99751" lon="1.23232">
        <ele>442.2</ele>
        <time>2024-06-23T08:23:00Z</time>
      </trkpt>
      <trkpt lat="42.99749" lon="1.23239">
        <ele>442.2</ele>
        <time>2024-06-23T08:23:01Z</time>
      </trkpt>
      <trkpt lat="42.99747" lon="1.23247">
        <ele>442.2</ele>
        <time>2024-06-23T08:23:02Z</time>
      </trkpt>
      <trkpt lat="42.99746" lon="1.23253">
        <ele>442.4</ele>
        <time>2024-06-23T08:23:03Z</time>
      </trkpt>
      <trkpt lat="42.99744" lon="1.2326">
        <ele>442.8</ele>
        <time>2024-06-23T08:23:04Z</time>
      </trkpt>
      <trkpt lat="42.99742" lon="1.23267">
        <ele>443.2</ele>
        <time>2024-06-23T08:23:05Z</time>
      </trkpt>
      <trkpt lat="42.99741" lon="1.23274">
        <ele>443.2</ele>
        <time>2024-06-23T08:23:06Z</time>
      </trkpt>
      <trkpt lat="42.99739" lon="1.23282">
        <ele>443.2</ele>
        <time>2024-06-23T08:23:07Z</time>
      </trkpt>
      <trkpt lat="42.99738" lon="1.23289">
        <ele>443</ele>
        <time>2024-06-23T08:23:08Z</time>
      </trkpt>
      <trkpt lat="42.99736" lon="1.23296">
        <ele>443.2</ele>
        <time>2024-06-23T08:23:09Z</time>
      </trkpt>
      <trkpt lat="42.99734" lon="1.23303">
        <ele>443.2</ele>
        <time>2024-06-23T08:23:10Z</time>
      </trkpt>
      <trkpt lat="42.99733" lon="1.2331">
        <ele>443.2</ele>
        <time>2024-06-23T08:23:11Z</time>
      </trkpt>
      <trkpt lat="42.9973" lon="1.23317">
        <ele>443.2</ele>
        <time>2024-06-23T08:23:12Z</time>
      </trkpt>
      <trkpt lat="42.99728" lon="1.23323">
        <ele>443.2</ele>
        <time>2024-06-23T08:23:13Z</time>
      </trkpt>
      <trkpt lat="42.99727" lon="1.23329">
        <ele>443.2</ele>
        <time>2024-06-23T08:23:14Z</time>
      </trkpt>
      <trkpt lat="42.99727" lon="1.23336">
        <ele>443.2</ele>
        <time>2024-06-23T08:23:15Z</time>
      </trkpt>
      <trkpt lat="42.99729" lon="1.23342">
        <ele>443.2</ele>
        <time>2024-06-23T08:23:16Z</time>
      </trkpt>
      <trkpt lat="42.99733" lon="1.23347">
        <ele>443.4</ele>
        <time>2024-06-23T08:23:17Z</time>
      </trkpt>
      <trkpt lat="42.99736" lon="1.23352">
        <ele>443.4</ele>
        <time>2024-06-23T08:23:18Z</time>
      </trkpt>
      <trkpt lat="42.99737" lon="1.2336">
        <ele>443.4</ele>
        <time>2024-06-23T08:23:19Z</time>
      </trkpt>
      <trkpt lat="42.99736" lon="1.23369">
        <ele>443.4</ele>
        <time>2024-06-23T08:23:20Z</time>
      </trkpt>
      <trkpt lat="42.99734" lon="1.23377">
        <ele>443</ele>
        <time>2024-06-23T08:23:21Z</time>
      </trkpt>
      <trkpt lat="42.99732" lon="1.23385">
        <ele>442.8</ele>
        <time>2024-06-23T08:23:22Z</time>
      </trkpt>
      <trkpt lat="42.9973" lon="1.23394">
        <ele>442.6</ele>
        <time>2024-06-23T08:23:23Z</time>
      </trkpt>
      <trkpt lat="42.9973" lon="1.23403">
        <ele>442.6</ele>
        <time>2024-06-23T08:23:24Z</time>
      </trkpt>
      <trkpt lat="42.99732" lon="1.2341">
        <ele>442.4</ele>
        <time>2024-06-23T08:23:25Z</time>
      </trkpt>
      <trkpt lat="42.99737" lon="1.23416">
        <ele>442.2</ele>
        <time>2024-06-23T08:23:26Z</time>
      </trkpt>
      <trkpt lat="42.99742" lon="1.23422">
        <ele>441.6</ele>
        <time>2024-06-23T08:23:27Z</time>
      </trkpt>
      <trkpt lat="42.99744" lon="1.23431">
        <ele>441.2</ele>
        <time>2024-06-23T08:23:28Z</time>
      </trkpt>
      <trkpt lat="42.99743" lon="1.23439">
        <ele>441</ele>
        <time>2024-06-23T08:23:29Z</time>
      </trkpt>
      <trkpt lat="42.9974" lon="1.23447">
        <ele>441</ele>
        <time>2024-06-23T08:23:30Z</time>
      </trkpt>
      <trkpt lat="42.99739" lon="1.23454">
        <ele>440.4</ele>
        <time>2024-06-23T08:23:31Z</time>
      </trkpt>
      <trkpt lat="42.99737" lon="1.23462">
        <ele>440.2</ele>
        <time>2024-06-23T08:23:32Z</time>
      </trkpt>
      <trkpt lat="42.99735" lon="1.2347">
        <ele>440.2</ele>
        <time>2024-06-23T08:23:33Z</time>
      </trkpt>
      <trkpt lat="42.99733" lon="1.23478">
        <ele>439.8</ele>
        <time>2024-06-23T08:23:34Z</time>
      </trkpt>
      <trkpt lat="42.99731" lon="1.23487">
        <ele>439.6</ele>
        <time>2024-06-23T08:23:35Z</time>
      </trkpt>
      <trkpt lat="42.99729" lon="1.23495">
        <ele>439.8</ele>
        <time>2024-06-23T08:23:36Z</time>
      </trkpt>
      <trkpt lat="42.99726" lon="1.23504">
        <ele>439.8</ele>
        <time>2024-06-23T08:23:37Z</time>
      </trkpt>
      <trkpt lat="42.99725" lon="1.23511">
        <ele>439.8</ele>
        <time>2024-06-23T08:23:38Z</time>
      </trkpt>
      <trkpt lat="42.99723" lon="1.23519">
        <ele>439.8</ele>
        <time>2024-06-23T08:23:39Z</time>
      </trkpt>
      <trkpt lat="42.99721" lon="1.23526">
        <ele>440</ele>
        <time>2024-06-23T08:23:40Z</time>
      </trkpt>
      <trkpt lat="42.99719" lon="1.23533">
        <ele>440</ele>
        <time>2024-06-23T08:23:41Z</time>
      </trkpt>
      <trkpt lat="42.99717" lon="1.2354">
        <ele>440</ele>
        <time>2024-06-23T08:23:42Z</time>
      </trkpt>
      <trkpt lat="42.99715" lon="1.23547">
        <ele>440.4</ele>
        <time>2024-06-23T08:23:43Z</time>
      </trkpt>
      <trkpt lat="42.99714" lon="1.23554">
        <ele>440.6</ele>
        <time>2024-06-23T08:23:44Z</time>
      </trkpt>
      <trkpt lat="42.99713" lon="1.2356">
        <ele>440.8</ele>
        <time>2024-06-23T08:23:45Z</time>
      </trkpt>
      <trkpt lat="42.99711" lon="1.23565">
        <ele>440.8</ele>
        <time>2024-06-23T08:23:46Z</time>
      </trkpt>
      <trkpt lat="42.99709" lon="1.2357">
        <ele>440.8</ele>
        <time>2024-06-23T08:23:47Z</time>
      </trkpt>
      <trkpt lat="42.99708" lon="1.23576">
        <ele>441.4</ele>
        <time>2024-06-23T08:23:48Z</time>
      </trkpt>
      <trkpt lat="42.99706" lon="1.23582">
        <ele>441.8</ele>
        <time>2024-06-23T08:23:49Z</time>
      </trkpt>
      <trkpt lat="42.99705" lon="1.23588">
        <ele>442</ele>
        <time>2024-06-23T08:23:50Z</time>
      </trkpt>
      <trkpt lat="42.99704" lon="1.23594">
        <ele>442</ele>
        <time>2024-06-23T08:23:51Z</time>
      </trkpt>
      <trkpt lat="42.99702" lon="1.23601">
        <ele>442.4</ele>
        <time>2024-06-23T08:23:52Z</time>
      </trkpt>
      <trkpt lat="42.99701" lon="1.23607">
        <ele>442.4</ele>
        <time>2024-06-23T08:23:53Z</time>
      </trkpt>
      <trkpt lat="42.997" lon="1.23614">
        <ele>442.8</ele>
        <time>2024-06-23T08:23:54Z</time>
      </trkpt>
      <trkpt lat="42.99699" lon="1.23621">
        <ele>442.8</ele>
        <time>2024-06-23T08:23:55Z</time>
      </trkpt>
      <trkpt lat="42.99697" lon="1.23627">
        <ele>443</ele>
        <time>2024-06-23T08:23:56Z</time>
      </trkpt>
      <trkpt lat="42.99696" lon="1.23633">
        <ele>443</ele>
        <time>2024-06-23T08:23:57Z</time>
      </trkpt>
      <trkpt lat="42.99694" lon="1.23639">
        <ele>443</ele>
        <time>2024-06-23T08:23:58Z</time>
      </trkpt>
      <trkpt lat="42.99693" lon="1.23645">
        <ele>443</ele>
        <time>2024-06-23T08:23:59Z</time>
      </trkpt>
      <trkpt lat="42.9969" lon="1.2365">
        <ele>443</ele>
        <time>2024-06-23T08:24:00Z</time>
      </trkpt>
      <trkpt lat="42.99687" lon="1.23656">
        <ele>443</ele>
        <time>2024-06-23T08:24:01Z</time>
      </trkpt>
      <trkpt lat="42.99684" lon="1.23661">
        <ele>443</ele>
        <time>2024-06-23T08:24:02Z</time>
      </trkpt>
      <trkpt lat="42.99682" lon="1.23666">
        <ele>443</ele>
        <time>2024-06-23T08:24:03Z</time>
      </trkpt>
      <trkpt lat="42.99679" lon="1.23672">
        <ele>443.4</ele>
        <time>2024-06-23T08:24:04Z</time>
      </trkpt>
      <trkpt lat="42.99675" lon="1.23678">
        <ele>443.4</ele>
        <time>2024-06-23T08:24:05Z</time>
      </trkpt>
      <trkpt lat="42.99671" lon="1.23683">
        <ele>443.4</ele>
        <time>2024-06-23T08:24:06Z</time>
      </trkpt>
      <trkpt lat="42.99668" lon="1.23689">
        <ele>443.4</ele>
        <time>2024-06-23T08:24:07Z</time>
      </trkpt>
      <trkpt lat="42.99665" lon="1.23692">
        <ele>443.8</ele>
        <time>2024-06-23T08:24:08Z</time>
      </trkpt>
      <trkpt lat="42.99661" lon="1.23697">
        <ele>443.8</ele>
        <time>2024-06-23T08:24:09Z</time>
      </trkpt>
      <trkpt lat="42.99657" lon="1.23701">
        <ele>444.2</ele>
        <time>2024-06-23T08:24:10Z</time>
      </trkpt>
      <trkpt lat="42.99652" lon="1.23705">
        <ele>444.2</ele>
        <time>2024-06-23T08:24:11Z</time>
      </trkpt>
      <trkpt lat="42.99648" lon="1.2371">
        <ele>444.2</ele>
        <time>2024-06-23T08:24:12Z</time>
      </trkpt>
      <trkpt lat="42.99643" lon="1.23714">
        <ele>444.2</ele>
        <time>2024-06-23T08:24:13Z</time>
      </trkpt>
      <trkpt lat="42.99639" lon="1.2372">
        <ele>444.4</ele>
        <time>2024-06-23T08:24:14Z</time>
      </trkpt>
      <trkpt lat="42.99635" lon="1.23725">
        <ele>444.4</ele>
        <time>2024-06-23T08:24:15Z</time>
      </trkpt>
      <trkpt lat="42.99631" lon="1.23731">
        <ele>444.2</ele>
        <time>2024-06-23T08:24:16Z</time>
      </trkpt>
      <trkpt lat="42.99628" lon="1.23738">
        <ele>444.2</ele>
        <time>2024-06-23T08:24:17Z</time>
      </trkpt>
      <trkpt lat="42.99627" lon="1.23745">
        <ele>444.2</ele>
        <time>2024-06-23T08:24:18Z</time>
      </trkpt>
      <trkpt lat="42.99624" lon="1.23752">
        <ele>444.2</ele>
        <time>2024-06-23T08:24:19Z</time>
      </trkpt>
      <trkpt lat="42.99622" lon="1.23758">
        <ele>444.2</ele>
        <time>2024-06-23T08:24:20Z</time>
      </trkpt>
      <trkpt lat="42.9962" lon="1.23766">
        <ele>443.8</ele>
        <time>2024-06-23T08:24:21Z</time>
      </trkpt>
      <trkpt lat="42.99619" lon="1.23774">
        <ele>443.6</ele>
        <time>2024-06-23T08:24:22Z</time>
      </trkpt>
      <trkpt lat="42.99617" lon="1.23781">
        <ele>443.6</ele>
        <time>2024-06-23T08:24:23Z</time>
      </trkpt>
      <trkpt lat="42.99615" lon="1.23789">
        <ele>443.8</ele>
        <time>2024-06-23T08:24:24Z</time>
      </trkpt>
      <trkpt lat="42.99613" lon="1.23796">
        <ele>443.8</ele>
        <time>2024-06-23T08:24:25Z</time>
      </trkpt>
      <trkpt lat="42.99611" lon="1.23804">
        <ele>443.8</ele>
        <time>2024-06-23T08:24:26Z</time>
      </trkpt>
      <trkpt lat="42.9961" lon="1.23812">
        <ele>443.8</ele>
        <time>2024-06-23T08:24:27Z</time>
      </trkpt>
      <trkpt lat="42.99608" lon="1.2382">
        <ele>443.8</ele>
        <time>2024-06-23T08:24:28Z</time>
      </trkpt>
      <trkpt lat="42.99606" lon="1.23827">
        <ele>443.8</ele>
        <time>2024-06-23T08:24:29Z</time>
      </trkpt>
      <trkpt lat="42.99604" lon="1.23835">
        <ele>443.8</ele>
        <time>2024-06-23T08:24:30Z</time>
      </trkpt>
      <trkpt lat="42.99602" lon="1.23843">
        <ele>443.8</ele>
        <time>2024-06-23T08:24:31Z</time>
      </trkpt>
      <trkpt lat="42.99601" lon="1.2385">
        <ele>444</ele>
        <time>2024-06-23T08:24:32Z</time>
      </trkpt>
      <trkpt lat="42.99599" lon="1.23858">
        <ele>444</ele>
        <time>2024-06-23T08:24:33Z</time>
      </trkpt>
      <trkpt lat="42.99597" lon="1.23866">
        <ele>444</ele>
        <time>2024-06-23T08:24:34Z</time>
      </trkpt>
      <trkpt lat="42.99595" lon="1.23874">
        <ele>443.8</ele>
        <time>2024-06-23T08:24:35Z</time>
      </trkpt>
      <trkpt lat="42.99593" lon="1.23881">
        <ele>443.8</ele>
        <time>2024-06-23T08:24:36Z</time>
      </trkpt>
      <trkpt lat="42.9959" lon="1.23888">
        <ele>443.8</ele>
        <time>2024-06-23T08:24:37Z</time>
      </trkpt>
      <trkpt lat="42.99588" lon="1.23896">
        <ele>443.4</ele>
        <time>2024-06-23T08:24:38Z</time>
      </trkpt>
      <trkpt lat="42.99586" lon="1.23903">
        <ele>443.6</ele>
        <time>2024-06-23T08:24:39Z</time>
      </trkpt>
      <trkpt lat="42.99584" lon="1.23911">
        <ele>443.4</ele>
        <time>2024-06-23T08:24:40Z</time>
      </trkpt>
      <trkpt lat="42.99582" lon="1.23918">
        <ele>443.4</ele>
        <time>2024-06-23T08:24:41Z</time>
      </trkpt>
      <trkpt lat="42.99579" lon="1.23926">
        <ele>443.4</ele>
        <time>2024-06-23T08:24:42Z</time>
      </trkpt>
      <trkpt lat="42.99577" lon="1.23933">
        <ele>443.4</ele>
        <time>2024-06-23T08:24:43Z</time>
      </trkpt>
      <trkpt lat="42.99575" lon="1.23939">
        <ele>443.6</ele>
        <time>2024-06-23T08:24:44Z</time>
      </trkpt>
      <trkpt lat="42.99572" lon="1.23946">
        <ele>443.6</ele>
        <time>2024-06-23T08:24:45Z</time>
      </trkpt>
      <trkpt lat="42.9957" lon="1.23953">
        <ele>443.6</ele>
        <time>2024-06-23T08:24:46Z</time>
      </trkpt>
      <trkpt lat="42.99567" lon="1.2396">
        <ele>443.6</ele>
        <time>2024-06-23T08:24:47Z</time>
      </trkpt>
      <trkpt lat="42.99565" lon="1.23967">
        <ele>444.2</ele>
        <time>2024-06-23T08:24:48Z</time>
      </trkpt>
      <trkpt lat="42.99563" lon="1.23974">
        <ele>444.2</ele>
        <time>2024-06-23T08:24:49Z</time>
      </trkpt>
      <trkpt lat="42.99559" lon="1.2398">
        <ele>444.2</ele>
        <time>2024-06-23T08:24:50Z</time>
      </trkpt>
      <trkpt lat="42.99557" lon="1.23987">
        <ele>444.2</ele>
        <time>2024-06-23T08:24:51Z</time>
      </trkpt>
      <trkpt lat="42.99554" lon="1.23994">
        <ele>444.4</ele>
        <time>2024-06-23T08:24:52Z</time>
      </trkpt>
      <trkpt lat="42.99552" lon="1.24001">
        <ele>444.8</ele>
        <time>2024-06-23T08:24:53Z</time>
      </trkpt>
      <trkpt lat="42.99549" lon="1.24008">
        <ele>445.2</ele>
        <time>2024-06-23T08:24:54Z</time>
      </trkpt>
      <trkpt lat="42.99547" lon="1.24014">
        <ele>445.2</ele>
        <time>2024-06-23T08:24:55Z</time>
      </trkpt>
      <trkpt lat="42.99544" lon="1.24021">
        <ele>445.2</ele>
        <time>2024-06-23T08:24:56Z</time>
      </trkpt>
      <trkpt lat="42.99542" lon="1.24026">
        <ele>445.2</ele>
        <time>2024-06-23T08:24:57Z</time>
      </trkpt>
      <trkpt lat="42.99539" lon="1.24033">
        <ele>445.2</ele>
        <time>2024-06-23T08:24:58Z</time>
      </trkpt>
      <trkpt lat="42.99537" lon="1.2404">
        <ele>445</ele>
        <time>2024-06-23T08:24:59Z</time>
      </trkpt>
      <trkpt lat="42.99534" lon="1.24046">
        <ele>445</ele>
        <time>2024-06-23T08:25:00Z</time>
      </trkpt>
      <trkpt lat="42.99531" lon="1.24053">
        <ele>445</ele>
        <time>2024-06-23T08:25:01Z</time>
      </trkpt>
      <trkpt lat="42.99529" lon="1.24059">
        <ele>445.2</ele>
        <time>2024-06-23T08:25:02Z</time>
      </trkpt>
      <trkpt lat="42.99526" lon="1.24066">
        <ele>445.2</ele>
        <time>2024-06-23T08:25:03Z</time>
      </trkpt>
      <trkpt lat="42.99523" lon="1.24072">
        <ele>445.2</ele>
        <time>2024-06-23T08:25:04Z</time>
      </trkpt>
      <trkpt lat="42.9952" lon="1.24078">
        <ele>445.2</ele>
        <time>2024-06-23T08:25:05Z</time>
      </trkpt>
      <trkpt lat="42.99518" lon="1.24085">
        <ele>445.2</ele>
        <time>2024-06-23T08:25:06Z</time>
      </trkpt>
      <trkpt lat="42.99515" lon="1.24092">
        <ele>445.2</ele>
        <time>2024-06-23T08:25:07Z</time>
      </trkpt>
      <trkpt lat="42.99513" lon="1.24098">
        <ele>445.6</ele>
        <time>2024-06-23T08:25:08Z</time>
      </trkpt>
      <trkpt lat="42.9951" lon="1.24105">
        <ele>445.6</ele>
        <time>2024-06-23T08:25:09Z</time>
      </trkpt>
      <trkpt lat="42.99507" lon="1.24112">
        <ele>445.6</ele>
        <time>2024-06-23T08:25:10Z</time>
      </trkpt>
      <trkpt lat="42.99505" lon="1.24119">
        <ele>445.6</ele>
        <time>2024-06-23T08:25:11Z</time>
      </trkpt>
      <trkpt lat="42.99502" lon="1.24125">
        <ele>445.6</ele>
        <time>2024-06-23T08:25:12Z</time>
      </trkpt>
      <trkpt lat="42.99499" lon="1.24132">
        <ele>445.6</ele>
        <time>2024-06-23T08:25:13Z</time>
      </trkpt>
      <trkpt lat="42.99497" lon="1.24139">
        <ele>446</ele>
        <time>2024-06-23T08:25:14Z</time>
      </trkpt>
      <trkpt lat="42.99494" lon="1.24146">
        <ele>446</ele>
        <time>2024-06-23T08:25:15Z</time>
      </trkpt>
      <trkpt lat="42.99491" lon="1.24152">
        <ele>446.4</ele>
        <time>2024-06-23T08:25:16Z</time>
      </trkpt>
      <trkpt lat="42.99488" lon="1.24159">
        <ele>446.4</ele>
        <time>2024-06-23T08:25:17Z</time>
      </trkpt>
      <trkpt lat="42.99486" lon="1.24165">
        <ele>446.4</ele>
        <time>2024-06-23T08:25:18Z</time>
      </trkpt>
      <trkpt lat="42.99482" lon="1.24172">
        <ele>446.4</ele>
        <time>2024-06-23T08:25:19Z</time>
      </trkpt>
      <trkpt lat="42.9948" lon="1.24179">
        <ele>446.4</ele>
        <time>2024-06-23T08:25:20Z</time>
      </trkpt>
      <trkpt lat="42.99477" lon="1.24185">
        <ele>447</ele>
        <time>2024-06-23T08:25:21Z</time>
      </trkpt>
      <trkpt lat="42.99474" lon="1.24191">
        <ele>446.6</ele>
        <time>2024-06-23T08:25:22Z</time>
      </trkpt>
      <trkpt lat="42.99472" lon="1.24198">
        <ele>446.6</ele>
        <time>2024-06-23T08:25:23Z</time>
      </trkpt>
      <trkpt lat="42.99469" lon="1.24204">
        <ele>446.8</ele>
        <time>2024-06-23T08:25:24Z</time>
      </trkpt>
      <trkpt lat="42.99466" lon="1.2421">
        <ele>446.8</ele>
        <time>2024-06-23T08:25:25Z</time>
      </trkpt>
      <trkpt lat="42.99464" lon="1.24217">
        <ele>447.2</ele>
        <time>2024-06-23T08:25:26Z</time>
      </trkpt>
      <trkpt lat="42.99461" lon="1.24223">
        <ele>447.6</ele>
        <time>2024-06-23T08:25:27Z</time>
      </trkpt>
      <trkpt lat="42.99459" lon="1.24229">
        <ele>447.6</ele>
        <time>2024-06-23T08:25:28Z</time>
      </trkpt>
      <trkpt lat="42.99456" lon="1.24236">
        <ele>447.8</ele>
        <time>2024-06-23T08:25:29Z</time>
      </trkpt>
      <trkpt lat="42.99454" lon="1.24243">
        <ele>447.8</ele>
        <time>2024-06-23T08:25:30Z</time>
      </trkpt>
      <trkpt lat="42.99452" lon="1.24248">
        <ele>447.8</ele>
        <time>2024-06-23T08:25:31Z</time>
      </trkpt>
      <trkpt lat="42.9945" lon="1.24253">
        <ele>447.8</ele>
        <time>2024-06-23T08:25:32Z</time>
      </trkpt>
      <trkpt lat="42.99446" lon="1.24259">
        <ele>448.2</ele>
        <time>2024-06-23T08:25:33Z</time>
      </trkpt>
      <trkpt lat="42.99444" lon="1.24265">
        <ele>448.4</ele>
        <time>2024-06-23T08:25:34Z</time>
      </trkpt>
      <trkpt lat="42.99441" lon="1.24272">
        <ele>448.4</ele>
        <time>2024-06-23T08:25:35Z</time>
      </trkpt>
      <trkpt lat="42.99439" lon="1.24278">
        <ele>448.4</ele>
        <time>2024-06-23T08:25:36Z</time>
      </trkpt>
      <trkpt lat="42.99436" lon="1.24285">
        <ele>448.4</ele>
        <time>2024-06-23T08:25:37Z</time>
      </trkpt>
      <trkpt lat="42.99434" lon="1.24291">
        <ele>448.4</ele>
        <time>2024-06-23T08:25:38Z</time>
      </trkpt>
      <trkpt lat="42.99431" lon="1.24298">
        <ele>448.8</ele>
        <time>2024-06-23T08:25:39Z</time>
      </trkpt>
      <trkpt lat="42.99428" lon="1.24304">
        <ele>448.8</ele>
        <time>2024-06-23T08:25:40Z</time>
      </trkpt>
      <trkpt lat="42.99426" lon="1.2431">
        <ele>449</ele>
        <time>2024-06-23T08:25:41Z</time>
      </trkpt>
      <trkpt lat="42.99423" lon="1.24317">
        <ele>449</ele>
        <time>2024-06-23T08:25:42Z</time>
      </trkpt>
      <trkpt lat="42.99421" lon="1.24324">
        <ele>448.4</ele>
        <time>2024-06-23T08:25:43Z</time>
      </trkpt>
      <trkpt lat="42.99418" lon="1.24331">
        <ele>448.6</ele>
        <time>2024-06-23T08:25:44Z</time>
      </trkpt>
      <trkpt lat="42.99415" lon="1.24337">
        <ele>448.6</ele>
        <time>2024-06-23T08:25:45Z</time>
      </trkpt>
      <trkpt lat="42.99413" lon="1.24344">
        <ele>448.8</ele>
        <time>2024-06-23T08:25:46Z</time>
      </trkpt>
      <trkpt lat="42.99411" lon="1.2435">
        <ele>448.8</ele>
        <time>2024-06-23T08:25:47Z</time>
      </trkpt>
      <trkpt lat="42.99408" lon="1.24357">
        <ele>448.8</ele>
        <time>2024-06-23T08:25:48Z</time>
      </trkpt>
      <trkpt lat="42.99406" lon="1.24364">
        <ele>448.8</ele>
        <time>2024-06-23T08:25:49Z</time>
      </trkpt>
      <trkpt lat="42.99403" lon="1.24371">
        <ele>449.4</ele>
        <time>2024-06-23T08:25:50Z</time>
      </trkpt>
      <trkpt lat="42.994" lon="1.24378">
        <ele>449.4</ele>
        <time>2024-06-23T08:25:51Z</time>
      </trkpt>
      <trkpt lat="42.99398" lon="1.24385">
        <ele>450.4</ele>
        <time>2024-06-23T08:25:52Z</time>
      </trkpt>
      <trkpt lat="42.99397" lon="1.24392">
        <ele>450.6</ele>
        <time>2024-06-23T08:25:53Z</time>
      </trkpt>
      <trkpt lat="42.99394" lon="1.24399">
        <ele>450</ele>
        <time>2024-06-23T08:25:54Z</time>
      </trkpt>
      <trkpt lat="42.99392" lon="1.24406">
        <ele>450</ele>
        <time>2024-06-23T08:25:55Z</time>
      </trkpt>
      <trkpt lat="42.99391" lon="1.24413">
        <ele>450</ele>
        <time>2024-06-23T08:25:56Z</time>
      </trkpt>
      <trkpt lat="42.99389" lon="1.2442">
        <ele>450</ele>
        <time>2024-06-23T08:25:57Z</time>
      </trkpt>
      <trkpt lat="42.99387" lon="1.24427">
        <ele>450.4</ele>
        <time>2024-06-23T08:25:58Z</time>
      </trkpt>
      <trkpt lat="42.99386" lon="1.24434">
        <ele>450.2</ele>
        <time>2024-06-23T08:25:59Z</time>
      </trkpt>
      <trkpt lat="42.99384" lon="1.24441">
        <ele>450.2</ele>
        <time>2024-06-23T08:26:00Z</time>
      </trkpt>
      <trkpt lat="42.99383" lon="1.24448">
        <ele>450.2</ele>
        <time>2024-06-23T08:26:01Z</time>
      </trkpt>
      <trkpt lat="42.99382" lon="1.24454">
        <ele>450.2</ele>
        <time>2024-06-23T08:26:02Z</time>
      </trkpt>
      <trkpt lat="42.99381" lon="1.24463">
        <ele>450.6</ele>
        <time>2024-06-23T08:26:03Z</time>
      </trkpt>
      <trkpt lat="42.99381" lon="1.2447">
        <ele>450.4</ele>
        <time>2024-06-23T08:26:04Z</time>
      </trkpt>
      <trkpt lat="42.99379" lon="1.24477">
        <ele>450.4</ele>
        <time>2024-06-23T08:26:05Z</time>
      </trkpt>
      <trkpt lat="42.99379" lon="1.24484">
        <ele>450.4</ele>
        <time>2024-06-23T08:26:06Z</time>
      </trkpt>
      <trkpt lat="42.99377" lon="1.24491">
        <ele>450.4</ele>
        <time>2024-06-23T08:26:07Z</time>
      </trkpt>
      <trkpt lat="42.99377" lon="1.24499">
        <ele>450.6</ele>
        <time>2024-06-23T08:26:08Z</time>
      </trkpt>
      <trkpt lat="42.99376" lon="1.24506">
        <ele>451</ele>
        <time>2024-06-23T08:26:09Z</time>
      </trkpt>
      <trkpt lat="42.99376" lon="1.24513">
        <ele>451</ele>
        <time>2024-06-23T08:26:10Z</time>
      </trkpt>
      <trkpt lat="42.99376" lon="1.2452">
        <ele>451</ele>
        <time>2024-06-23T08:26:11Z</time>
      </trkpt>
      <trkpt lat="42.99374" lon="1.24527">
        <ele>450.8</ele>
        <time>2024-06-23T08:26:12Z</time>
      </trkpt>
      <trkpt lat="42.99373" lon="1.24533">
        <ele>450.8</ele>
        <time>2024-06-23T08:26:13Z</time>
      </trkpt>
      <trkpt lat="42.99372" lon="1.24541">
        <ele>451.2</ele>
        <time>2024-06-23T08:26:14Z</time>
      </trkpt>
      <trkpt lat="42.99372" lon="1.24548">
        <ele>451.2</ele>
        <time>2024-06-23T08:26:15Z</time>
      </trkpt>
      <trkpt lat="42.99371" lon="1.24555">
        <ele>451.6</ele>
        <time>2024-06-23T08:26:16Z</time>
      </trkpt>
      <trkpt lat="42.9937" lon="1.24563">
        <ele>451.6</ele>
        <time>2024-06-23T08:26:17Z</time>
      </trkpt>
      <trkpt lat="42.9937" lon="1.2457">
        <ele>451.6</ele>
        <time>2024-06-23T08:26:18Z</time>
      </trkpt>
      <trkpt lat="42.99368" lon="1.24579">
        <ele>451.8</ele>
        <time>2024-06-23T08:26:19Z</time>
      </trkpt>
      <trkpt lat="42.99367" lon="1.24586">
        <ele>451.8</ele>
        <time>2024-06-23T08:26:20Z</time>
      </trkpt>
      <trkpt lat="42.99366" lon="1.24594">
        <ele>451.8</ele>
        <time>2024-06-23T08:26:21Z</time>
      </trkpt>
      <trkpt lat="42.99365" lon="1.24601">
        <ele>452</ele>
        <time>2024-06-23T08:26:22Z</time>
      </trkpt>
      <trkpt lat="42.99365" lon="1.24608">
        <ele>452.4</ele>
        <time>2024-06-23T08:26:23Z</time>
      </trkpt>
      <trkpt lat="42.99365" lon="1.24608">
        <ele>452.4</ele>
        <time>2024-06-23T08:26:24Z</time>
      </trkpt>
      <trkpt lat="42.99363" lon="1.24616">
        <ele>452.8</ele>
        <time>2024-06-23T08:26:25Z</time>
      </trkpt>
      <trkpt lat="42.99363" lon="1.24624">
        <ele>452.6</ele>
        <time>2024-06-23T08:26:26Z</time>
      </trkpt>
      <trkpt lat="42.99362" lon="1.24631">
        <ele>452.6</ele>
        <time>2024-06-23T08:26:27Z</time>
      </trkpt>
      <trkpt lat="42.99362" lon="1.24638">
        <ele>452.6</ele>
        <time>2024-06-23T08:26:28Z</time>
      </trkpt>
      <trkpt lat="42.99361" lon="1.24645">
        <ele>452.6</ele>
        <time>2024-06-23T08:26:29Z</time>
      </trkpt>
      <trkpt lat="42.99361" lon="1.24652">
        <ele>452.6</ele>
        <time>2024-06-23T08:26:30Z</time>
      </trkpt>
      <trkpt lat="42.9936" lon="1.2466">
        <ele>452.6</ele>
        <time>2024-06-23T08:26:31Z</time>
      </trkpt>
      <trkpt lat="42.99359" lon="1.24668">
        <ele>452.8</ele>
        <time>2024-06-23T08:26:32Z</time>
      </trkpt>
      <trkpt lat="42.99357" lon="1.24675">
        <ele>452.8</ele>
        <time>2024-06-23T08:26:33Z</time>
      </trkpt>
      <trkpt lat="42.99357" lon="1.24682">
        <ele>452.8</ele>
        <time>2024-06-23T08:26:34Z</time>
      </trkpt>
      <trkpt lat="42.99355" lon="1.2469">
        <ele>453</ele>
        <time>2024-06-23T08:26:35Z</time>
      </trkpt>
      <trkpt lat="42.99355" lon="1.24697">
        <ele>453</ele>
        <time>2024-06-23T08:26:36Z</time>
      </trkpt>
      <trkpt lat="42.99353" lon="1.24705">
        <ele>453</ele>
        <time>2024-06-23T08:26:37Z</time>
      </trkpt>
      <trkpt lat="42.99351" lon="1.24712">
        <ele>453</ele>
        <time>2024-06-23T08:26:38Z</time>
      </trkpt>
      <trkpt lat="42.9935" lon="1.24719">
        <ele>453.4</ele>
        <time>2024-06-23T08:26:39Z</time>
      </trkpt>
      <trkpt lat="42.99349" lon="1.24726">
        <ele>453.4</ele>
        <time>2024-06-23T08:26:40Z</time>
      </trkpt>
      <trkpt lat="42.99348" lon="1.24734">
        <ele>453.4</ele>
        <time>2024-06-23T08:26:41Z</time>
      </trkpt>
      <trkpt lat="42.99346" lon="1.24741">
        <ele>453.4</ele>
        <time>2024-06-23T08:26:42Z</time>
      </trkpt>
      <trkpt lat="42.99344" lon="1.24748">
        <ele>453.4</ele>
        <time>2024-06-23T08:26:43Z</time>
      </trkpt>
      <trkpt lat="42.99343" lon="1.24755">
        <ele>453.4</ele>
        <time>2024-06-23T08:26:44Z</time>
      </trkpt>
      <trkpt lat="42.99341" lon="1.24763">
        <ele>453.6</ele>
        <time>2024-06-23T08:26:45Z</time>
      </trkpt>
      <trkpt lat="42.99338" lon="1.2477">
        <ele>454</ele>
        <time>2024-06-23T08:26:46Z</time>
      </trkpt>
      <trkpt lat="42.99337" lon="1.24777">
        <ele>454.4</ele>
        <time>2024-06-23T08:26:47Z</time>
      </trkpt>
      <trkpt lat="42.99335" lon="1.24785">
        <ele>454.4</ele>
        <time>2024-06-23T08:26:48Z</time>
      </trkpt>
      <trkpt lat="42.99334" lon="1.24793">
        <ele>454.4</ele>
        <time>2024-06-23T08:26:49Z</time>
      </trkpt>
      <trkpt lat="42.99331" lon="1.248">
        <ele>454.4</ele>
        <time>2024-06-23T08:26:50Z</time>
      </trkpt>
      <trkpt lat="42.99329" lon="1.24807">
        <ele>454.4</ele>
        <time>2024-06-23T08:26:51Z</time>
      </trkpt>
      <trkpt lat="42.99327" lon="1.24814">
        <ele>454.4</ele>
        <time>2024-06-23T08:26:52Z</time>
      </trkpt>
      <trkpt lat="42.99324" lon="1.2482">
        <ele>454.4</ele>
        <time>2024-06-23T08:26:53Z</time>
      </trkpt>
      <trkpt lat="42.99322" lon="1.24826">
        <ele>454.6</ele>
        <time>2024-06-23T08:26:54Z</time>
      </trkpt>
      <trkpt lat="42.9932" lon="1.24833">
        <ele>455</ele>
        <time>2024-06-23T08:26:55Z</time>
      </trkpt>
      <trkpt lat="42.99317" lon="1.2484">
        <ele>455</ele>
        <time>2024-06-23T08:26:56Z</time>
      </trkpt>
      <trkpt lat="42.99314" lon="1.24846">
        <ele>455</ele>
        <time>2024-06-23T08:26:57Z</time>
      </trkpt>
      <trkpt lat="42.99312" lon="1.24852">
        <ele>455</ele>
        <time>2024-06-23T08:26:58Z</time>
      </trkpt>
      <trkpt lat="42.99308" lon="1.24857">
        <ele>455</ele>
        <time>2024-06-23T08:26:59Z</time>
      </trkpt>
      <trkpt lat="42.99306" lon="1.24864">
        <ele>455</ele>
        <time>2024-06-23T08:27:00Z</time>
      </trkpt>
      <trkpt lat="42.99303" lon="1.24872">
        <ele>455</ele>
        <time>2024-06-23T08:27:01Z</time>
      </trkpt>
      <trkpt lat="42.993" lon="1.24879">
        <ele>455.2</ele>
        <time>2024-06-23T08:27:02Z</time>
      </trkpt>
      <trkpt lat="42.99297" lon="1.24885">
        <ele>455.2</ele>
        <time>2024-06-23T08:27:03Z</time>
      </trkpt>
      <trkpt lat="42.99294" lon="1.24892">
        <ele>455.2</ele>
        <time>2024-06-23T08:27:04Z</time>
      </trkpt>
      <trkpt lat="42.99291" lon="1.24899">
        <ele>455.6</ele>
        <time>2024-06-23T08:27:05Z</time>
      </trkpt>
      <trkpt lat="42.99287" lon="1.24905">
        <ele>455.6</ele>
        <time>2024-06-23T08:27:06Z</time>
      </trkpt>
      <trkpt lat="42.99284" lon="1.2491">
        <ele>455.6</ele>
        <time>2024-06-23T08:27:07Z</time>
      </trkpt>
      <trkpt lat="42.99281" lon="1.24916">
        <ele>455.8</ele>
        <time>2024-06-23T08:27:08Z</time>
      </trkpt>
      <trkpt lat="42.99277" lon="1.24922">
        <ele>455.8</ele>
        <time>2024-06-23T08:27:09Z</time>
      </trkpt>
      <trkpt lat="42.99273" lon="1.24927">
        <ele>455.8</ele>
        <time>2024-06-23T08:27:10Z</time>
      </trkpt>
      <trkpt lat="42.99269" lon="1.24934">
        <ele>455.8</ele>
        <time>2024-06-23T08:27:11Z</time>
      </trkpt>
      <trkpt lat="42.99265" lon="1.24939">
        <ele>455.8</ele>
        <time>2024-06-23T08:27:12Z</time>
      </trkpt>
      <trkpt lat="42.99261" lon="1.24945">
        <ele>455.8</ele>
        <time>2024-06-23T08:27:13Z</time>
      </trkpt>
      <trkpt lat="42.99258" lon="1.24951">
        <ele>455.8</ele>
        <time>2024-06-23T08:27:14Z</time>
      </trkpt>
      <trkpt lat="42.99253" lon="1.24957">
        <ele>455.2</ele>
        <time>2024-06-23T08:27:15Z</time>
      </trkpt>
      <trkpt lat="42.99249" lon="1.24963">
        <ele>455.2</ele>
        <time>2024-06-23T08:27:16Z</time>
      </trkpt>
      <trkpt lat="42.99245" lon="1.24969">
        <ele>455.2</ele>
        <time>2024-06-23T08:27:17Z</time>
      </trkpt>
      <trkpt lat="42.99241" lon="1.24975">
        <ele>455.2</ele>
        <time>2024-06-23T08:27:18Z</time>
      </trkpt>
      <trkpt lat="42.99237" lon="1.2498">
        <ele>455.6</ele>
        <time>2024-06-23T08:27:19Z</time>
      </trkpt>
      <trkpt lat="42.99234" lon="1.24985">
        <ele>456</ele>
        <time>2024-06-23T08:27:20Z</time>
      </trkpt>
      <trkpt lat="42.9923" lon="1.2499">
        <ele>456.4</ele>
        <time>2024-06-23T08:27:21Z</time>
      </trkpt>
      <trkpt lat="42.99226" lon="1.24996">
        <ele>456.4</ele>
        <time>2024-06-23T08:27:22Z</time>
      </trkpt>
      <trkpt lat="42.99224" lon="1.25001">
        <ele>456.6</ele>
        <time>2024-06-23T08:27:23Z</time>
      </trkpt>
      <trkpt lat="42.9922" lon="1.25006">
        <ele>456.6</ele>
        <time>2024-06-23T08:27:24Z</time>
      </trkpt>
      <trkpt lat="42.99216" lon="1.25012">
        <ele>456.6</ele>
        <time>2024-06-23T08:27:25Z</time>
      </trkpt>
      <trkpt lat="42.99212" lon="1.25018">
        <ele>456.6</ele>
        <time>2024-06-23T08:27:26Z</time>
      </trkpt>
      <trkpt lat="42.99208" lon="1.25023">
        <ele>457</ele>
        <time>2024-06-23T08:27:27Z</time>
      </trkpt>
      <trkpt lat="42.99205" lon="1.25029">
        <ele>457</ele>
        <time>2024-06-23T08:27:28Z</time>
      </trkpt>
      <trkpt lat="42.99201" lon="1.25035">
        <ele>457</ele>
        <time>2024-06-23T08:27:29Z</time>
      </trkpt>
      <trkpt lat="42.99197" lon="1.25041">
        <ele>457</ele>
        <time>2024-06-23T08:27:30Z</time>
      </trkpt>
      <trkpt lat="42.99193" lon="1.25046">
        <ele>457</ele>
        <time>2024-06-23T08:27:31Z</time>
      </trkpt>
      <trkpt lat="42.99189" lon="1.25052">
        <ele>457</ele>
        <time>2024-06-23T08:27:32Z</time>
      </trkpt>
      <trkpt lat="42.99186" lon="1.25057">
        <ele>457.2</ele>
        <time>2024-06-23T08:27:33Z</time>
      </trkpt>
      <trkpt lat="42.99182" lon="1.25063">
        <ele>457.4</ele>
        <time>2024-06-23T08:27:34Z</time>
      </trkpt>
      <trkpt lat="42.99178" lon="1.25068">
        <ele>457.4</ele>
        <time>2024-06-23T08:27:35Z</time>
      </trkpt>
      <trkpt lat="42.99175" lon="1.25073">
        <ele>458</ele>
        <time>2024-06-23T08:27:36Z</time>
      </trkpt>
      <trkpt lat="42.99172" lon="1.25079">
        <ele>458</ele>
        <time>2024-06-23T08:27:37Z</time>
      </trkpt>
      <trkpt lat="42.99168" lon="1.25084">
        <ele>458.2</ele>
        <time>2024-06-23T08:27:38Z</time>
      </trkpt>
      <trkpt lat="42.99163" lon="1.2509">
        <ele>458.2</ele>
        <time>2024-06-23T08:27:39Z</time>
      </trkpt>
      <trkpt lat="42.9916" lon="1.25096">
        <ele>458.2</ele>
        <time>2024-06-23T08:27:40Z</time>
      </trkpt>
      <trkpt lat="42.99157" lon="1.25102">
        <ele>458.2</ele>
        <time>2024-06-23T08:27:41Z</time>
      </trkpt>
      <trkpt lat="42.99153" lon="1.25108">
        <ele>458.2</ele>
        <time>2024-06-23T08:27:42Z</time>
      </trkpt>
      <trkpt lat="42.9915" lon="1.25114">
        <ele>458.6</ele>
        <time>2024-06-23T08:27:43Z</time>
      </trkpt>
      <trkpt lat="42.99146" lon="1.2512">
        <ele>458.6</ele>
        <time>2024-06-23T08:27:44Z</time>
      </trkpt>
      <trkpt lat="42.99143" lon="1.25126">
        <ele>458.6</ele>
        <time>2024-06-23T08:27:45Z</time>
      </trkpt>
      <trkpt lat="42.9914" lon="1.25133">
        <ele>458.4</ele>
        <time>2024-06-23T08:27:46Z</time>
      </trkpt>
      <trkpt lat="42.99137" lon="1.25139">
        <ele>458.4</ele>
        <time>2024-06-23T08:27:47Z</time>
      </trkpt>
      <trkpt lat="42.99134" lon="1.25145">
        <ele>458.6</ele>
        <time>2024-06-23T08:27:48Z</time>
      </trkpt>
      <trkpt lat="42.9913" lon="1.25152">
        <ele>458.6</ele>
        <time>2024-06-23T08:27:49Z</time>
      </trkpt>
      <trkpt lat="42.99127" lon="1.25159">
        <ele>458.6</ele>
        <time>2024-06-23T08:27:50Z</time>
      </trkpt>
      <trkpt lat="42.99124" lon="1.25166">
        <ele>458.6</ele>
        <time>2024-06-23T08:27:51Z</time>
      </trkpt>
      <trkpt lat="42.99121" lon="1.25173">
        <ele>459</ele>
        <time>2024-06-23T08:27:52Z</time>
      </trkpt>
      <trkpt lat="42.99118" lon="1.2518">
        <ele>459</ele>
        <time>2024-06-23T08:27:53Z</time>
      </trkpt>
      <trkpt lat="42.99116" lon="1.25187">
        <ele>459</ele>
        <time>2024-06-23T08:27:54Z</time>
      </trkpt>
      <trkpt lat="42.99113" lon="1.25194">
        <ele>459</ele>
        <time>2024-06-23T08:27:55Z</time>
      </trkpt>
      <trkpt lat="42.99111" lon="1.25201">
        <ele>459.2</ele>
        <time>2024-06-23T08:27:56Z</time>
      </trkpt>
      <trkpt lat="42.99108" lon="1.25207">
        <ele>459.2</ele>
        <time>2024-06-23T08:27:57Z</time>
      </trkpt>
      <trkpt lat="42.99106" lon="1.25215">
        <ele>459.6</ele>
        <time>2024-06-23T08:27:58Z</time>
      </trkpt>
      <trkpt lat="42.99105" lon="1.25222">
        <ele>459.6</ele>
        <time>2024-06-23T08:27:59Z</time>
      </trkpt>
      <trkpt lat="42.99102" lon="1.25229">
        <ele>459.6</ele>
        <time>2024-06-23T08:28:00Z</time>
      </trkpt>
      <trkpt lat="42.991" lon="1.25236">
        <ele>459.6</ele>
        <time>2024-06-23T08:28:01Z</time>
      </trkpt>
      <trkpt lat="42.99097" lon="1.25243">
        <ele>459.6</ele>
        <time>2024-06-23T08:28:02Z</time>
      </trkpt>
      <trkpt lat="42.99096" lon="1.2525">
        <ele>459.6</ele>
        <time>2024-06-23T08:28:03Z</time>
      </trkpt>
      <trkpt lat="42.99094" lon="1.25257">
        <ele>459.8</ele>
        <time>2024-06-23T08:28:04Z</time>
      </trkpt>
      <trkpt lat="42.99092" lon="1.25265">
        <ele>459.8</ele>
        <time>2024-06-23T08:28:05Z</time>
      </trkpt>
      <trkpt lat="42.99091" lon="1.25273">
        <ele>460</ele>
        <time>2024-06-23T08:28:06Z</time>
      </trkpt>
      <trkpt lat="42.99089" lon="1.25281">
        <ele>460</ele>
        <time>2024-06-23T08:28:07Z</time>
      </trkpt>
      <trkpt lat="42.99087" lon="1.25289">
        <ele>460</ele>
        <time>2024-06-23T08:28:08Z</time>
      </trkpt>
      <trkpt lat="42.99083" lon="1.25305">
        <ele>460</ele>
        <time>2024-06-23T08:28:09Z</time>
      </trkpt>
      <trkpt lat="42.99082" lon="1.25313">
        <ele>460</ele>
        <time>2024-06-23T08:28:10Z</time>
      </trkpt>
      <trkpt lat="42.99081" lon="1.25321">
        <ele>460</ele>
        <time>2024-06-23T08:28:11Z</time>
      </trkpt>
      <trkpt lat="42.99079" lon="1.25328">
        <ele>460.8</ele>
        <time>2024-06-23T08:28:12Z</time>
      </trkpt>
      <trkpt lat="42.99077" lon="1.25336">
        <ele>460.8</ele>
        <time>2024-06-23T08:28:13Z</time>
      </trkpt>
      <trkpt lat="42.99076" lon="1.25343">
        <ele>460.8</ele>
        <time>2024-06-23T08:28:14Z</time>
      </trkpt>
      <trkpt lat="42.99074" lon="1.25351">
        <ele>460.4</ele>
        <time>2024-06-23T08:28:15Z</time>
      </trkpt>
      <trkpt lat="42.99073" lon="1.25358">
        <ele>460.4</ele>
        <time>2024-06-23T08:28:16Z</time>
      </trkpt>
      <trkpt lat="42.99072" lon="1.25366">
        <ele>460.4</ele>
        <time>2024-06-23T08:28:17Z</time>
      </trkpt>
      <trkpt lat="42.9907" lon="1.25374">
        <ele>460.8</ele>
        <time>2024-06-23T08:28:18Z</time>
      </trkpt>
      <trkpt lat="42.99069" lon="1.25382">
        <ele>460.8</ele>
        <time>2024-06-23T08:28:19Z</time>
      </trkpt>
      <trkpt lat="42.99067" lon="1.25389">
        <ele>461</ele>
        <time>2024-06-23T08:28:20Z</time>
      </trkpt>
      <trkpt lat="42.99066" lon="1.25397">
        <ele>461</ele>
        <time>2024-06-23T08:28:21Z</time>
      </trkpt>
      <trkpt lat="42.99064" lon="1.25405">
        <ele>461</ele>
        <time>2024-06-23T08:28:22Z</time>
      </trkpt>
      <trkpt lat="42.99062" lon="1.25412">
        <ele>461</ele>
        <time>2024-06-23T08:28:23Z</time>
      </trkpt>
      <trkpt lat="42.9906" lon="1.25419">
        <ele>460.6</ele>
        <time>2024-06-23T08:28:24Z</time>
      </trkpt>
      <trkpt lat="42.99059" lon="1.25427">
        <ele>461</ele>
        <time>2024-06-23T08:28:25Z</time>
      </trkpt>
      <trkpt lat="42.99056" lon="1.25434">
        <ele>461.4</ele>
        <time>2024-06-23T08:28:26Z</time>
      </trkpt>
      <trkpt lat="42.99054" lon="1.25442">
        <ele>461.8</ele>
        <time>2024-06-23T08:28:27Z</time>
      </trkpt>
      <trkpt lat="42.99052" lon="1.2545">
        <ele>461.8</ele>
        <time>2024-06-23T08:28:28Z</time>
      </trkpt>
      <trkpt lat="42.99051" lon="1.25457">
        <ele>461.8</ele>
        <time>2024-06-23T08:28:29Z</time>
      </trkpt>
      <trkpt lat="42.9905" lon="1.25465">
        <ele>461.8</ele>
        <time>2024-06-23T08:28:30Z</time>
      </trkpt>
      <trkpt lat="42.99049" lon="1.25473">
        <ele>461.8</ele>
        <time>2024-06-23T08:28:31Z</time>
      </trkpt>
      <trkpt lat="42.99048" lon="1.25482">
        <ele>462</ele>
        <time>2024-06-23T08:28:32Z</time>
      </trkpt>
      <trkpt lat="42.99047" lon="1.25488">
        <ele>462</ele>
        <time>2024-06-23T08:28:33Z</time>
      </trkpt>
      <trkpt lat="42.99046" lon="1.25495">
        <ele>462.2</ele>
        <time>2024-06-23T08:28:34Z</time>
      </trkpt>
      <trkpt lat="42.99044" lon="1.25503">
        <ele>462.2</ele>
        <time>2024-06-23T08:28:35Z</time>
      </trkpt>
      <trkpt lat="42.99041" lon="1.25508">
        <ele>462.2</ele>
        <time>2024-06-23T08:28:36Z</time>
      </trkpt>
      <trkpt lat="42.9904" lon="1.25517">
        <ele>462.2</ele>
        <time>2024-06-23T08:28:37Z</time>
      </trkpt>
      <trkpt lat="42.99039" lon="1.25526">
        <ele>462.6</ele>
        <time>2024-06-23T08:28:38Z</time>
      </trkpt>
      <trkpt lat="42.99037" lon="1.25534">
        <ele>462.6</ele>
        <time>2024-06-23T08:28:39Z</time>
      </trkpt>
      <trkpt lat="42.99035" lon="1.25542">
        <ele>462.6</ele>
        <time>2024-06-23T08:28:40Z</time>
      </trkpt>
      <trkpt lat="42.99033" lon="1.2555">
        <ele>462.8</ele>
        <time>2024-06-23T08:28:41Z</time>
      </trkpt>
      <trkpt lat="42.99032" lon="1.25557">
        <ele>462.8</ele>
        <time>2024-06-23T08:28:42Z</time>
      </trkpt>
      <trkpt lat="42.9903" lon="1.25565">
        <ele>462.8</ele>
        <time>2024-06-23T08:28:43Z</time>
      </trkpt>
      <trkpt lat="42.99028" lon="1.25572">
        <ele>463.2</ele>
        <time>2024-06-23T08:28:44Z</time>
      </trkpt>
      <trkpt lat="42.99027" lon="1.2558">
        <ele>463.6</ele>
        <time>2024-06-23T08:28:45Z</time>
      </trkpt>
      <trkpt lat="42.99024" lon="1.25588">
        <ele>463.6</ele>
        <time>2024-06-23T08:28:46Z</time>
      </trkpt>
      <trkpt lat="42.99022" lon="1.25596">
        <ele>463.6</ele>
        <time>2024-06-23T08:28:47Z</time>
      </trkpt>
      <trkpt lat="42.99021" lon="1.25604">
        <ele>463.8</ele>
        <time>2024-06-23T08:28:48Z</time>
      </trkpt>
      <trkpt lat="42.99019" lon="1.25611">
        <ele>463.8</ele>
        <time>2024-06-23T08:28:49Z</time>
      </trkpt>
      <trkpt lat="42.99017" lon="1.25618">
        <ele>463.8</ele>
        <time>2024-06-23T08:28:50Z</time>
      </trkpt>
      <trkpt lat="42.99016" lon="1.25627">
        <ele>463.8</ele>
        <time>2024-06-23T08:28:51Z</time>
      </trkpt>
      <trkpt lat="42.99014" lon="1.25634">
        <ele>464</ele>
        <time>2024-06-23T08:28:52Z</time>
      </trkpt>
      <trkpt lat="42.99012" lon="1.25642">
        <ele>464</ele>
        <time>2024-06-23T08:28:53Z</time>
      </trkpt>
      <trkpt lat="42.9901" lon="1.25649">
        <ele>463.8</ele>
        <time>2024-06-23T08:28:54Z</time>
      </trkpt>
      <trkpt lat="42.99009" lon="1.25658">
        <ele>463.6</ele>
        <time>2024-06-23T08:28:55Z</time>
      </trkpt>
      <trkpt lat="42.99007" lon="1.25665">
        <ele>464</ele>
        <time>2024-06-23T08:28:56Z</time>
      </trkpt>
      <trkpt lat="42.99005" lon="1.25673">
        <ele>464</ele>
        <time>2024-06-23T08:28:57Z</time>
      </trkpt>
      <trkpt lat="42.99003" lon="1.2568">
        <ele>464.2</ele>
        <time>2024-06-23T08:28:58Z</time>
      </trkpt>
      <trkpt lat="42.99002" lon="1.25688">
        <ele>464.2</ele>
        <time>2024-06-23T08:28:59Z</time>
      </trkpt>
      <trkpt lat="42.99" lon="1.25696">
        <ele>464.2</ele>
        <time>2024-06-23T08:29:00Z</time>
      </trkpt>
      <trkpt lat="42.98998" lon="1.25704">
        <ele>464.2</ele>
        <time>2024-06-23T08:29:01Z</time>
      </trkpt>
      <trkpt lat="42.98996" lon="1.25712">
        <ele>464.4</ele>
        <time>2024-06-23T08:29:02Z</time>
      </trkpt>
      <trkpt lat="42.98995" lon="1.2572">
        <ele>464.4</ele>
        <time>2024-06-23T08:29:03Z</time>
      </trkpt>
      <trkpt lat="42.98994" lon="1.25728">
        <ele>464.8</ele>
        <time>2024-06-23T08:29:04Z</time>
      </trkpt>
      <trkpt lat="42.98993" lon="1.25736">
        <ele>464.8</ele>
        <time>2024-06-23T08:29:05Z</time>
      </trkpt>
      <trkpt lat="42.98991" lon="1.25744">
        <ele>464.8</ele>
        <time>2024-06-23T08:29:06Z</time>
      </trkpt>
      <trkpt lat="42.9899" lon="1.25751">
        <ele>465.2</ele>
        <time>2024-06-23T08:29:07Z</time>
      </trkpt>
      <trkpt lat="42.98988" lon="1.25759">
        <ele>465.2</ele>
        <time>2024-06-23T08:29:08Z</time>
      </trkpt>
      <trkpt lat="42.98986" lon="1.25766">
        <ele>465.2</ele>
        <time>2024-06-23T08:29:09Z</time>
      </trkpt>
      <trkpt lat="42.98985" lon="1.25774">
        <ele>464.8</ele>
        <time>2024-06-23T08:29:10Z</time>
      </trkpt>
      <trkpt lat="42.98983" lon="1.25782">
        <ele>464.8</ele>
        <time>2024-06-23T08:29:11Z</time>
      </trkpt>
      <trkpt lat="42.98981" lon="1.25789">
        <ele>465.2</ele>
        <time>2024-06-23T08:29:12Z</time>
      </trkpt>
      <trkpt lat="42.9898" lon="1.25797">
        <ele>465.2</ele>
        <time>2024-06-23T08:29:13Z</time>
      </trkpt>
      <trkpt lat="42.98979" lon="1.25805">
        <ele>465.2</ele>
        <time>2024-06-23T08:29:14Z</time>
      </trkpt>
      <trkpt lat="42.98977" lon="1.25812">
        <ele>465.6</ele>
        <time>2024-06-23T08:29:15Z</time>
      </trkpt>
      <trkpt lat="42.98976" lon="1.2582">
        <ele>465.6</ele>
        <time>2024-06-23T08:29:16Z</time>
      </trkpt>
      <trkpt lat="42.98974" lon="1.25828">
        <ele>466</ele>
        <time>2024-06-23T08:29:17Z</time>
      </trkpt>
      <trkpt lat="42.98972" lon="1.25835">
        <ele>466</ele>
        <time>2024-06-23T08:29:18Z</time>
      </trkpt>
      <trkpt lat="42.9897" lon="1.25841">
        <ele>466.2</ele>
        <time>2024-06-23T08:29:19Z</time>
      </trkpt>
      <trkpt lat="42.98968" lon="1.2585">
        <ele>466.2</ele>
        <time>2024-06-23T08:29:20Z</time>
      </trkpt>
      <trkpt lat="42.98967" lon="1.25857">
        <ele>466.2</ele>
        <time>2024-06-23T08:29:21Z</time>
      </trkpt>
      <trkpt lat="42.98966" lon="1.25866">
        <ele>466.2</ele>
        <time>2024-06-23T08:29:22Z</time>
      </trkpt>
      <trkpt lat="42.98964" lon="1.25873">
        <ele>466.2</ele>
        <time>2024-06-23T08:29:23Z</time>
      </trkpt>
      <trkpt lat="42.98963" lon="1.2588">
        <ele>466.2</ele>
        <time>2024-06-23T08:29:24Z</time>
      </trkpt>
      <trkpt lat="42.98961" lon="1.25887">
        <ele>466.6</ele>
        <time>2024-06-23T08:29:25Z</time>
      </trkpt>
      <trkpt lat="42.98959" lon="1.25895">
        <ele>466.4</ele>
        <time>2024-06-23T08:29:26Z</time>
      </trkpt>
      <trkpt lat="42.98958" lon="1.25902">
        <ele>466.4</ele>
        <time>2024-06-23T08:29:27Z</time>
      </trkpt>
      <trkpt lat="42.98954" lon="1.25911">
        <ele>466.6</ele>
        <time>2024-06-23T08:29:28Z</time>
      </trkpt>
      <trkpt lat="42.98953" lon="1.25918">
        <ele>466.8</ele>
        <time>2024-06-23T08:29:29Z</time>
      </trkpt>
      <trkpt lat="42.98952" lon="1.25927">
        <ele>466.8</ele>
        <time>2024-06-23T08:29:30Z</time>
      </trkpt>
      <trkpt lat="42.98952" lon="1.25933">
        <ele>466.8</ele>
        <time>2024-06-23T08:29:31Z</time>
      </trkpt>
      <trkpt lat="42.9895" lon="1.2594">
        <ele>466.8</ele>
        <time>2024-06-23T08:29:32Z</time>
      </trkpt>
      <trkpt lat="42.98949" lon="1.25946">
        <ele>466.8</ele>
        <time>2024-06-23T08:29:33Z</time>
      </trkpt>
      <trkpt lat="42.98948" lon="1.25953">
        <ele>467</ele>
        <time>2024-06-23T08:29:34Z</time>
      </trkpt>
      <trkpt lat="42.98946" lon="1.2596">
        <ele>467</ele>
        <time>2024-06-23T08:29:35Z</time>
      </trkpt>
      <trkpt lat="42.98944" lon="1.25967">
        <ele>467.4</ele>
        <time>2024-06-23T08:29:36Z</time>
      </trkpt>
      <trkpt lat="42.98944" lon="1.25974">
        <ele>467.4</ele>
        <time>2024-06-23T08:29:37Z</time>
      </trkpt>
      <trkpt lat="42.98942" lon="1.25983">
        <ele>467.4</ele>
        <time>2024-06-23T08:29:38Z</time>
      </trkpt>
      <trkpt lat="42.98941" lon="1.2599">
        <ele>467.4</ele>
        <time>2024-06-23T08:29:39Z</time>
      </trkpt>
      <trkpt lat="42.98939" lon="1.25998">
        <ele>467.6</ele>
        <time>2024-06-23T08:29:40Z</time>
      </trkpt>
      <trkpt lat="42.98938" lon="1.26005">
        <ele>467.6</ele>
        <time>2024-06-23T08:29:41Z</time>
      </trkpt>
      <trkpt lat="42.98937" lon="1.26013">
        <ele>468</ele>
        <time>2024-06-23T08:29:42Z</time>
      </trkpt>
      <trkpt lat="42.98936" lon="1.26021">
        <ele>468</ele>
        <time>2024-06-23T08:29:43Z</time>
      </trkpt>
      <trkpt lat="42.98935" lon="1.26028">
        <ele>468</ele>
        <time>2024-06-23T08:29:44Z</time>
      </trkpt>
      <trkpt lat="42.98934" lon="1.26036">
        <ele>468</ele>
        <time>2024-06-23T08:29:45Z</time>
      </trkpt>
      <trkpt lat="42.98932" lon="1.26042">
        <ele>468</ele>
        <time>2024-06-23T08:29:46Z</time>
      </trkpt>
      <trkpt lat="42.98932" lon="1.26051">
        <ele>468.2</ele>
        <time>2024-06-23T08:29:47Z</time>
      </trkpt>
      <trkpt lat="42.98931" lon="1.26059">
        <ele>468.2</ele>
        <time>2024-06-23T08:29:48Z</time>
      </trkpt>
      <trkpt lat="42.9893" lon="1.26068">
        <ele>468.6</ele>
        <time>2024-06-23T08:29:49Z</time>
      </trkpt>
      <trkpt lat="42.98929" lon="1.26075">
        <ele>468.6</ele>
        <time>2024-06-23T08:29:50Z</time>
      </trkpt>
      <trkpt lat="42.98928" lon="1.26083">
        <ele>468.8</ele>
        <time>2024-06-23T08:29:51Z</time>
      </trkpt>
      <trkpt lat="42.98927" lon="1.2609">
        <ele>468.8</ele>
        <time>2024-06-23T08:29:52Z</time>
      </trkpt>
      <trkpt lat="42.98927" lon="1.26098">
        <ele>468.8</ele>
        <time>2024-06-23T08:29:53Z</time>
      </trkpt>
      <trkpt lat="42.98927" lon="1.26106">
        <ele>468.8</ele>
        <time>2024-06-23T08:29:54Z</time>
      </trkpt>
      <trkpt lat="42.98927" lon="1.26114">
        <ele>468.8</ele>
        <time>2024-06-23T08:29:55Z</time>
      </trkpt>
      <trkpt lat="42.98926" lon="1.26123">
        <ele>468.8</ele>
        <time>2024-06-23T08:29:56Z</time>
      </trkpt>
      <trkpt lat="42.98925" lon="1.2613">
        <ele>468.8</ele>
        <time>2024-06-23T08:29:57Z</time>
      </trkpt>
      <trkpt lat="42.98925" lon="1.26138">
        <ele>468.8</ele>
        <time>2024-06-23T08:29:58Z</time>
      </trkpt>
      <trkpt lat="42.98924" lon="1.26146">
        <ele>468.8</ele>
        <time>2024-06-23T08:29:59Z</time>
      </trkpt>
      <trkpt lat="42.98924" lon="1.26153">
        <ele>468.8</ele>
        <time>2024-06-23T08:30:00Z</time>
      </trkpt>
      <trkpt lat="42.98924" lon="1.26162">
        <ele>469.2</ele>
        <time>2024-06-23T08:30:01Z</time>
      </trkpt>
      <trkpt lat="42.98923" lon="1.26169">
        <ele>469.2</ele>
        <time>2024-06-23T08:30:02Z</time>
      </trkpt>
      <trkpt lat="42.98923" lon="1.26176">
        <ele>469.4</ele>
        <time>2024-06-23T08:30:03Z</time>
      </trkpt>
      <trkpt lat="42.98923" lon="1.26184">
        <ele>469.4</ele>
        <time>2024-06-23T08:30:04Z</time>
      </trkpt>
      <trkpt lat="42.98922" lon="1.2619">
        <ele>469.4</ele>
        <time>2024-06-23T08:30:05Z</time>
      </trkpt>
      <trkpt lat="42.98922" lon="1.26198">
        <ele>469.6</ele>
        <time>2024-06-23T08:30:06Z</time>
      </trkpt>
      <trkpt lat="42.98921" lon="1.26206">
        <ele>469.6</ele>
        <time>2024-06-23T08:30:07Z</time>
      </trkpt>
      <trkpt lat="42.98922" lon="1.26213">
        <ele>470</ele>
        <time>2024-06-23T08:30:08Z</time>
      </trkpt>
      <trkpt lat="42.98923" lon="1.2622">
        <ele>470</ele>
        <time>2024-06-23T08:30:09Z</time>
      </trkpt>
      <trkpt lat="42.98922" lon="1.26228">
        <ele>469.8</ele>
        <time>2024-06-23T08:30:10Z</time>
      </trkpt>
      <trkpt lat="42.98923" lon="1.26235">
        <ele>470</ele>
        <time>2024-06-23T08:30:11Z</time>
      </trkpt>
      <trkpt lat="42.98922" lon="1.26242">
        <ele>470</ele>
        <time>2024-06-23T08:30:12Z</time>
      </trkpt>
      <trkpt lat="42.98923" lon="1.26249">
        <ele>470</ele>
        <time>2024-06-23T08:30:13Z</time>
      </trkpt>
      <trkpt lat="42.98924" lon="1.26256">
        <ele>470.4</ele>
        <time>2024-06-23T08:30:14Z</time>
      </trkpt>
      <trkpt lat="42.98924" lon="1.26263">
        <ele>470.4</ele>
        <time>2024-06-23T08:30:15Z</time>
      </trkpt>
      <trkpt lat="42.98925" lon="1.26271">
        <ele>470.4</ele>
        <time>2024-06-23T08:30:16Z</time>
      </trkpt>
      <trkpt lat="42.98925" lon="1.26278">
        <ele>470.6</ele>
        <time>2024-06-23T08:30:17Z</time>
      </trkpt>
      <trkpt lat="42.98925" lon="1.26286">
        <ele>470.6</ele>
        <time>2024-06-23T08:30:18Z</time>
      </trkpt>
      <trkpt lat="42.98925" lon="1.26293">
        <ele>470.6</ele>
        <time>2024-06-23T08:30:19Z</time>
      </trkpt>
      <trkpt lat="42.98925" lon="1.263">
        <ele>470.6</ele>
        <time>2024-06-23T08:30:20Z</time>
      </trkpt>
      <trkpt lat="42.98926" lon="1.26308">
        <ele>470.6</ele>
        <time>2024-06-23T08:30:21Z</time>
      </trkpt>
      <trkpt lat="42.98926" lon="1.26315">
        <ele>471</ele>
        <time>2024-06-23T08:30:22Z</time>
      </trkpt>
      <trkpt lat="42.98926" lon="1.26323">
        <ele>471</ele>
        <time>2024-06-23T08:30:23Z</time>
      </trkpt>
      <trkpt lat="42.98926" lon="1.2633">
        <ele>471</ele>
        <time>2024-06-23T08:30:24Z</time>
      </trkpt>
      <trkpt lat="42.98926" lon="1.26338">
        <ele>471.4</ele>
        <time>2024-06-23T08:30:25Z</time>
      </trkpt>
      <trkpt lat="42.98927" lon="1.26345">
        <ele>471.8</ele>
        <time>2024-06-23T08:30:26Z</time>
      </trkpt>
      <trkpt lat="42.98927" lon="1.26353">
        <ele>471.8</ele>
        <time>2024-06-23T08:30:27Z</time>
      </trkpt>
      <trkpt lat="42.98928" lon="1.2636">
        <ele>471.8</ele>
        <time>2024-06-23T08:30:28Z</time>
      </trkpt>
      <trkpt lat="42.98927" lon="1.26368">
        <ele>471.6</ele>
        <time>2024-06-23T08:30:29Z</time>
      </trkpt>
      <trkpt lat="42.98928" lon="1.26375">
        <ele>471.6</ele>
        <time>2024-06-23T08:30:30Z</time>
      </trkpt>
      <trkpt lat="42.98928" lon="1.26382">
        <ele>471.6</ele>
        <time>2024-06-23T08:30:31Z</time>
      </trkpt>
      <trkpt lat="42.98928" lon="1.2639">
        <ele>471.8</ele>
        <time>2024-06-23T08:30:32Z</time>
      </trkpt>
      <trkpt lat="42.98929" lon="1.26397">
        <ele>471.8</ele>
        <time>2024-06-23T08:30:33Z</time>
      </trkpt>
      <trkpt lat="42.98929" lon="1.26405">
        <ele>472</ele>
        <time>2024-06-23T08:30:34Z</time>
      </trkpt>
      <trkpt lat="42.98929" lon="1.26412">
        <ele>472</ele>
        <time>2024-06-23T08:30:35Z</time>
      </trkpt>
      <trkpt lat="42.98929" lon="1.26421">
        <ele>472</ele>
        <time>2024-06-23T08:30:36Z</time>
      </trkpt>
      <trkpt lat="42.98929" lon="1.26427">
        <ele>471.8</ele>
        <time>2024-06-23T08:30:37Z</time>
      </trkpt>
      <trkpt lat="42.98929" lon="1.26427">
        <ele>471.8</ele>
        <time>2024-06-23T08:30:38Z</time>
      </trkpt>
      <trkpt lat="42.98929" lon="1.26435">
        <ele>471.8</ele>
        <time>2024-06-23T08:30:39Z</time>
      </trkpt>
      <trkpt lat="42.98929" lon="1.26443">
        <ele>471.8</ele>
        <time>2024-06-23T08:30:40Z</time>
      </trkpt>
      <trkpt lat="42.9893" lon="1.2645">
        <ele>471.8</ele>
        <time>2024-06-23T08:30:41Z</time>
      </trkpt>
      <trkpt lat="42.9893" lon="1.26457">
        <ele>471.8</ele>
        <time>2024-06-23T08:30:42Z</time>
      </trkpt>
      <trkpt lat="42.9893" lon="1.26465">
        <ele>471.8</ele>
        <time>2024-06-23T08:30:43Z</time>
      </trkpt>
      <trkpt lat="42.98929" lon="1.26471">
        <ele>472.6</ele>
        <time>2024-06-23T08:30:44Z</time>
      </trkpt>
      <trkpt lat="42.98929" lon="1.26478">
        <ele>472.6</ele>
        <time>2024-06-23T08:30:45Z</time>
      </trkpt>
      <trkpt lat="42.98929" lon="1.26486">
        <ele>473</ele>
        <time>2024-06-23T08:30:46Z</time>
      </trkpt>
      <trkpt lat="42.98928" lon="1.26492">
        <ele>473</ele>
        <time>2024-06-23T08:30:47Z</time>
      </trkpt>
      <trkpt lat="42.98929" lon="1.26499">
        <ele>473</ele>
        <time>2024-06-23T08:30:48Z</time>
      </trkpt>
      <trkpt lat="42.98928" lon="1.26506">
        <ele>473</ele>
        <time>2024-06-23T08:30:49Z</time>
      </trkpt>
      <trkpt lat="42.98927" lon="1.26513">
        <ele>473</ele>
        <time>2024-06-23T08:30:50Z</time>
      </trkpt>
      <trkpt lat="42.98927" lon="1.2652">
        <ele>473</ele>
        <time>2024-06-23T08:30:51Z</time>
      </trkpt>
      <trkpt lat="42.98928" lon="1.26527">
        <ele>473</ele>
        <time>2024-06-23T08:30:52Z</time>
      </trkpt>
      <trkpt lat="42.98928" lon="1.26535">
        <ele>472.6</ele>
        <time>2024-06-23T08:30:53Z</time>
      </trkpt>
      <trkpt lat="42.98928" lon="1.26543">
        <ele>473</ele>
        <time>2024-06-23T08:30:54Z</time>
      </trkpt>
      <trkpt lat="42.98927" lon="1.2655">
        <ele>473.2</ele>
        <time>2024-06-23T08:30:55Z</time>
      </trkpt>
      <trkpt lat="42.98927" lon="1.26557">
        <ele>473.6</ele>
        <time>2024-06-23T08:30:56Z</time>
      </trkpt>
      <trkpt lat="42.98927" lon="1.26564">
        <ele>473.6</ele>
        <time>2024-06-23T08:30:57Z</time>
      </trkpt>
      <trkpt lat="42.98928" lon="1.26572">
        <ele>473.2</ele>
        <time>2024-06-23T08:30:58Z</time>
      </trkpt>
      <trkpt lat="42.98927" lon="1.26579">
        <ele>473.4</ele>
        <time>2024-06-23T08:30:59Z</time>
      </trkpt>
      <trkpt lat="42.98926" lon="1.26587">
        <ele>473.4</ele>
        <time>2024-06-23T08:31:00Z</time>
      </trkpt>
      <trkpt lat="42.98927" lon="1.26593">
        <ele>473.4</ele>
        <time>2024-06-23T08:31:01Z</time>
      </trkpt>
      <trkpt lat="42.98926" lon="1.26601">
        <ele>473.4</ele>
        <time>2024-06-23T08:31:02Z</time>
      </trkpt>
      <trkpt lat="42.98927" lon="1.26608">
        <ele>473.6</ele>
        <time>2024-06-23T08:31:03Z</time>
      </trkpt>
      <trkpt lat="42.98926" lon="1.26615">
        <ele>473.6</ele>
        <time>2024-06-23T08:31:04Z</time>
      </trkpt>
      <trkpt lat="42.98926" lon="1.26624">
        <ele>474</ele>
        <time>2024-06-23T08:31:05Z</time>
      </trkpt>
      <trkpt lat="42.98926" lon="1.26631">
        <ele>474</ele>
        <time>2024-06-23T08:31:06Z</time>
      </trkpt>
      <trkpt lat="42.98926" lon="1.26638">
        <ele>474</ele>
        <time>2024-06-23T08:31:07Z</time>
      </trkpt>
      <trkpt lat="42.98926" lon="1.26646">
        <ele>473.8</ele>
        <time>2024-06-23T08:31:08Z</time>
      </trkpt>
      <trkpt lat="42.98927" lon="1.26653">
        <ele>474.2</ele>
        <time>2024-06-23T08:31:09Z</time>
      </trkpt>
      <trkpt lat="42.98926" lon="1.26661">
        <ele>474</ele>
        <time>2024-06-23T08:31:10Z</time>
      </trkpt>
      <trkpt lat="42.98926" lon="1.2667">
        <ele>474.4</ele>
        <time>2024-06-23T08:31:11Z</time>
      </trkpt>
      <trkpt lat="42.98926" lon="1.26678">
        <ele>474.4</ele>
        <time>2024-06-23T08:31:12Z</time>
      </trkpt>
      <trkpt lat="42.98925" lon="1.26685">
        <ele>474.4</ele>
        <time>2024-06-23T08:31:13Z</time>
      </trkpt>
      <trkpt lat="42.98925" lon="1.26693">
        <ele>474.4</ele>
        <time>2024-06-23T08:31:14Z</time>
      </trkpt>
      <trkpt lat="42.98925" lon="1.26702">
        <ele>474.4</ele>
        <time>2024-06-23T08:31:15Z</time>
      </trkpt>
      <trkpt lat="42.98925" lon="1.26709">
        <ele>474.8</ele>
        <time>2024-06-23T08:31:16Z</time>
      </trkpt>
      <trkpt lat="42.98926" lon="1.26717">
        <ele>474.8</ele>
        <time>2024-06-23T08:31:17Z</time>
      </trkpt>
      <trkpt lat="42.98925" lon="1.26726">
        <ele>475.4</ele>
        <time>2024-06-23T08:31:18Z</time>
      </trkpt>
      <trkpt lat="42.98925" lon="1.26734">
        <ele>475.4</ele>
        <time>2024-06-23T08:31:19Z</time>
      </trkpt>
      <trkpt lat="42.98926" lon="1.26742">
        <ele>474.8</ele>
        <time>2024-06-23T08:31:20Z</time>
      </trkpt>
      <trkpt lat="42.98926" lon="1.26748">
        <ele>474.8</ele>
        <time>2024-06-23T08:31:21Z</time>
      </trkpt>
      <trkpt lat="42.98926" lon="1.26755">
        <ele>474.8</ele>
        <time>2024-06-23T08:31:22Z</time>
      </trkpt>
      <trkpt lat="42.98926" lon="1.26762">
        <ele>474.8</ele>
        <time>2024-06-23T08:31:23Z</time>
      </trkpt>
      <trkpt lat="42.98925" lon="1.26768">
        <ele>475.2</ele>
        <time>2024-06-23T08:31:24Z</time>
      </trkpt>
      <trkpt lat="42.98925" lon="1.26775">
        <ele>475.6</ele>
        <time>2024-06-23T08:31:25Z</time>
      </trkpt>
      <trkpt lat="42.98925" lon="1.26784">
        <ele>476</ele>
        <time>2024-06-23T08:31:26Z</time>
      </trkpt>
      <trkpt lat="42.98927" lon="1.26794">
        <ele>476</ele>
        <time>2024-06-23T08:31:27Z</time>
      </trkpt>
      <trkpt lat="42.98927" lon="1.26801">
        <ele>476.4</ele>
        <time>2024-06-23T08:31:28Z</time>
      </trkpt>
      <trkpt lat="42.98927" lon="1.26809">
        <ele>476.4</ele>
        <time>2024-06-23T08:31:29Z</time>
      </trkpt>
      <trkpt lat="42.98927" lon="1.26816">
        <ele>476.4</ele>
        <time>2024-06-23T08:31:30Z</time>
      </trkpt>
      <trkpt lat="42.98927" lon="1.26823">
        <ele>477</ele>
        <time>2024-06-23T08:31:31Z</time>
      </trkpt>
      <trkpt lat="42.98925" lon="1.26831">
        <ele>477</ele>
        <time>2024-06-23T08:31:32Z</time>
      </trkpt>
      <trkpt lat="42.98925" lon="1.26839">
        <ele>477</ele>
        <time>2024-06-23T08:31:33Z</time>
      </trkpt>
      <trkpt lat="42.98925" lon="1.26848">
        <ele>477</ele>
        <time>2024-06-23T08:31:34Z</time>
      </trkpt>
      <trkpt lat="42.98924" lon="1.26855">
        <ele>477</ele>
        <time>2024-06-23T08:31:35Z</time>
      </trkpt>
      <trkpt lat="42.98924" lon="1.26862">
        <ele>477.4</ele>
        <time>2024-06-23T08:31:36Z</time>
      </trkpt>
      <trkpt lat="42.98922" lon="1.26869">
        <ele>477.4</ele>
        <time>2024-06-23T08:31:37Z</time>
      </trkpt>
      <trkpt lat="42.98923" lon="1.26875">
        <ele>477.4</ele>
        <time>2024-06-23T08:31:38Z</time>
      </trkpt>
      <trkpt lat="42.98924" lon="1.26883">
        <ele>477</ele>
        <time>2024-06-23T08:31:39Z</time>
      </trkpt>
      <trkpt lat="42.98924" lon="1.2689">
        <ele>477</ele>
        <time>2024-06-23T08:31:40Z</time>
      </trkpt>
      <trkpt lat="42.98925" lon="1.26899">
        <ele>477.4</ele>
        <time>2024-06-23T08:31:41Z</time>
      </trkpt>
      <trkpt lat="42.98923" lon="1.26907">
        <ele>477.6</ele>
        <time>2024-06-23T08:31:42Z</time>
      </trkpt>
      <trkpt lat="42.98924" lon="1.26912">
        <ele>477.6</ele>
        <time>2024-06-23T08:31:43Z</time>
      </trkpt>
      <trkpt lat="42.98923" lon="1.26919">
        <ele>477.8</ele>
        <time>2024-06-23T08:31:44Z</time>
      </trkpt>
      <trkpt lat="42.98923" lon="1.26927">
        <ele>477.8</ele>
        <time>2024-06-23T08:31:45Z</time>
      </trkpt>
      <trkpt lat="42.98923" lon="1.26936">
        <ele>477.8</ele>
        <time>2024-06-23T08:31:46Z</time>
      </trkpt>
      <trkpt lat="42.98922" lon="1.26941">
        <ele>477.8</ele>
        <time>2024-06-23T08:31:47Z</time>
      </trkpt>
      <trkpt lat="42.98923" lon="1.26949">
        <ele>478.2</ele>
        <time>2024-06-23T08:31:48Z</time>
      </trkpt>
      <trkpt lat="42.98925" lon="1.26959">
        <ele>478.2</ele>
        <time>2024-06-23T08:31:49Z</time>
      </trkpt>
      <trkpt lat="42.98926" lon="1.26966">
        <ele>478.2</ele>
        <time>2024-06-23T08:31:50Z</time>
      </trkpt>
      <trkpt lat="42.98925" lon="1.26973">
        <ele>478.2</ele>
        <time>2024-06-23T08:31:51Z</time>
      </trkpt>
      <trkpt lat="42.98925" lon="1.26981">
        <ele>478.2</ele>
        <time>2024-06-23T08:31:52Z</time>
      </trkpt>
      <trkpt lat="42.98924" lon="1.26988">
        <ele>478.2</ele>
        <time>2024-06-23T08:31:53Z</time>
      </trkpt>
      <trkpt lat="42.98923" lon="1.26995">
        <ele>478.4</ele>
        <time>2024-06-23T08:31:54Z</time>
      </trkpt>
      <trkpt lat="42.98922" lon="1.27004">
        <ele>478.4</ele>
        <time>2024-06-23T08:31:55Z</time>
      </trkpt>
      <trkpt lat="42.98922" lon="1.27011">
        <ele>478.4</ele>
        <time>2024-06-23T08:31:56Z</time>
      </trkpt>
      <trkpt lat="42.98922" lon="1.27019">
        <ele>478.4</ele>
        <time>2024-06-23T08:31:57Z</time>
      </trkpt>
      <trkpt lat="42.98922" lon="1.27026">
        <ele>478.6</ele>
        <time>2024-06-23T08:31:58Z</time>
      </trkpt>
      <trkpt lat="42.98921" lon="1.27032">
        <ele>478.6</ele>
        <time>2024-06-23T08:31:59Z</time>
      </trkpt>
      <trkpt lat="42.98921" lon="1.2704">
        <ele>478.6</ele>
        <time>2024-06-23T08:32:00Z</time>
      </trkpt>
      <trkpt lat="42.98921" lon="1.27048">
        <ele>478.6</ele>
        <time>2024-06-23T08:32:01Z</time>
      </trkpt>
      <trkpt lat="42.98921" lon="1.27058">
        <ele>478.6</ele>
        <time>2024-06-23T08:32:02Z</time>
      </trkpt>
      <trkpt lat="42.98922" lon="1.27066">
        <ele>478.6</ele>
        <time>2024-06-23T08:32:03Z</time>
      </trkpt>
      <trkpt lat="42.98921" lon="1.27072">
        <ele>478.6</ele>
        <time>2024-06-23T08:32:04Z</time>
      </trkpt>
      <trkpt lat="42.9892" lon="1.27077">
        <ele>478.6</ele>
        <time>2024-06-23T08:32:05Z</time>
      </trkpt>
      <trkpt lat="42.9892" lon="1.27086">
        <ele>478.6</ele>
        <time>2024-06-23T08:32:06Z</time>
      </trkpt>
      <trkpt lat="42.9892" lon="1.27094">
        <ele>479</ele>
        <time>2024-06-23T08:32:07Z</time>
      </trkpt>
      <trkpt lat="42.98921" lon="1.27101">
        <ele>479</ele>
        <time>2024-06-23T08:32:08Z</time>
      </trkpt>
      <trkpt lat="42.9892" lon="1.27111">
        <ele>479</ele>
        <time>2024-06-23T08:32:09Z</time>
      </trkpt>
      <trkpt lat="42.9892" lon="1.27119">
        <ele>479</ele>
        <time>2024-06-23T08:32:10Z</time>
      </trkpt>
      <trkpt lat="42.98922" lon="1.27129">
        <ele>479</ele>
        <time>2024-06-23T08:32:11Z</time>
      </trkpt>
      <trkpt lat="42.98921" lon="1.27135">
        <ele>479</ele>
        <time>2024-06-23T08:32:12Z</time>
      </trkpt>
      <trkpt lat="42.98922" lon="1.27142">
        <ele>479.2</ele>
        <time>2024-06-23T08:32:13Z</time>
      </trkpt>
      <trkpt lat="42.98923" lon="1.27148">
        <ele>479.2</ele>
        <time>2024-06-23T08:32:14Z</time>
      </trkpt>
      <trkpt lat="42.98923" lon="1.27157">
        <ele>479.2</ele>
        <time>2024-06-23T08:32:15Z</time>
      </trkpt>
      <trkpt lat="42.98924" lon="1.27163">
        <ele>479.6</ele>
        <time>2024-06-23T08:32:16Z</time>
      </trkpt>
      <trkpt lat="42.98926" lon="1.2717">
        <ele>479.6</ele>
        <time>2024-06-23T08:32:17Z</time>
      </trkpt>
      <trkpt lat="42.98927" lon="1.27178">
        <ele>479.6</ele>
        <time>2024-06-23T08:32:18Z</time>
      </trkpt>
      <trkpt lat="42.98928" lon="1.27184">
        <ele>479.6</ele>
        <time>2024-06-23T08:32:19Z</time>
      </trkpt>
      <trkpt lat="42.98929" lon="1.2719">
        <ele>479.6</ele>
        <time>2024-06-23T08:32:20Z</time>
      </trkpt>
      <trkpt lat="42.9893" lon="1.27199">
        <ele>479.6</ele>
        <time>2024-06-23T08:32:21Z</time>
      </trkpt>
      <trkpt lat="42.98932" lon="1.27206">
        <ele>479.6</ele>
        <time>2024-06-23T08:32:22Z</time>
      </trkpt>
      <trkpt lat="42.98934" lon="1.27215">
        <ele>479.6</ele>
        <time>2024-06-23T08:32:23Z</time>
      </trkpt>
      <trkpt lat="42.98938" lon="1.27228">
        <ele>479.6</ele>
        <time>2024-06-23T08:32:24Z</time>
      </trkpt>
      <trkpt lat="42.98939" lon="1.27235">
        <ele>479.8</ele>
        <time>2024-06-23T08:32:25Z</time>
      </trkpt>
      <trkpt lat="42.98941" lon="1.27242">
        <ele>480</ele>
        <time>2024-06-23T08:32:26Z</time>
      </trkpt>
      <trkpt lat="42.98942" lon="1.2725">
        <ele>480</ele>
        <time>2024-06-23T08:32:27Z</time>
      </trkpt>
      <trkpt lat="42.98944" lon="1.27257">
        <ele>480.4</ele>
        <time>2024-06-23T08:32:28Z</time>
      </trkpt>
      <trkpt lat="42.98945" lon="1.27263">
        <ele>480.4</ele>
        <time>2024-06-23T08:32:29Z</time>
      </trkpt>
      <trkpt lat="42.98946" lon="1.27269">
        <ele>481</ele>
        <time>2024-06-23T08:32:30Z</time>
      </trkpt>
      <trkpt lat="42.98947" lon="1.27276">
        <ele>481</ele>
        <time>2024-06-23T08:32:31Z</time>
      </trkpt>
      <trkpt lat="42.98949" lon="1.27283">
        <ele>481</ele>
        <time>2024-06-23T08:32:32Z</time>
      </trkpt>
      <trkpt lat="42.9895" lon="1.2729">
        <ele>481.2</ele>
        <time>2024-06-23T08:32:33Z</time>
      </trkpt>
      <trkpt lat="42.98951" lon="1.27297">
        <ele>481.2</ele>
        <time>2024-06-23T08:32:34Z</time>
      </trkpt>
      <trkpt lat="42.98953" lon="1.27303">
        <ele>480.8</ele>
        <time>2024-06-23T08:32:35Z</time>
      </trkpt>
      <trkpt lat="42.98954" lon="1.2731">
        <ele>480.8</ele>
        <time>2024-06-23T08:32:36Z</time>
      </trkpt>
      <trkpt lat="42.98956" lon="1.27317">
        <ele>480.8</ele>
        <time>2024-06-23T08:32:37Z</time>
      </trkpt>
      <trkpt lat="42.98958" lon="1.27324">
        <ele>480.8</ele>
        <time>2024-06-23T08:32:38Z</time>
      </trkpt>
      <trkpt lat="42.9896" lon="1.27331">
        <ele>480.8</ele>
        <time>2024-06-23T08:32:39Z</time>
      </trkpt>
      <trkpt lat="42.98962" lon="1.27338">
        <ele>480.8</ele>
        <time>2024-06-23T08:32:40Z</time>
      </trkpt>
      <trkpt lat="42.98964" lon="1.27345">
        <ele>480.8</ele>
        <time>2024-06-23T08:32:41Z</time>
      </trkpt>
      <trkpt lat="42.98966" lon="1.27352">
        <ele>481.2</ele>
        <time>2024-06-23T08:32:42Z</time>
      </trkpt>
      <trkpt lat="42.98966" lon="1.27359">
        <ele>481.2</ele>
        <time>2024-06-23T08:32:43Z</time>
      </trkpt>
      <trkpt lat="42.98968" lon="1.27367">
        <ele>481.4</ele>
        <time>2024-06-23T08:32:44Z</time>
      </trkpt>
      <trkpt lat="42.9897" lon="1.27374">
        <ele>481.6</ele>
        <time>2024-06-23T08:32:45Z</time>
      </trkpt>
      <trkpt lat="42.98972" lon="1.27383">
        <ele>481.6</ele>
        <time>2024-06-23T08:32:46Z</time>
      </trkpt>
      <trkpt lat="42.98973" lon="1.27388">
        <ele>481.6</ele>
        <time>2024-06-23T08:32:47Z</time>
      </trkpt>
      <trkpt lat="42.98974" lon="1.27395">
        <ele>481.6</ele>
        <time>2024-06-23T08:32:48Z</time>
      </trkpt>
      <trkpt lat="42.98975" lon="1.27401">
        <ele>481.6</ele>
        <time>2024-06-23T08:32:49Z</time>
      </trkpt>
      <trkpt lat="42.98976" lon="1.2741">
        <ele>481.6</ele>
        <time>2024-06-23T08:32:50Z</time>
      </trkpt>
      <trkpt lat="42.98977" lon="1.27416">
        <ele>481.4</ele>
        <time>2024-06-23T08:32:51Z</time>
      </trkpt>
      <trkpt lat="42.9898" lon="1.27423">
        <ele>481.8</ele>
        <time>2024-06-23T08:32:52Z</time>
      </trkpt>
      <trkpt lat="42.98982" lon="1.27431">
        <ele>482</ele>
        <time>2024-06-23T08:32:53Z</time>
      </trkpt>
      <trkpt lat="42.98982" lon="1.27437">
        <ele>482</ele>
        <time>2024-06-23T08:32:54Z</time>
      </trkpt>
      <trkpt lat="42.98984" lon="1.27444">
        <ele>481.6</ele>
        <time>2024-06-23T08:32:55Z</time>
      </trkpt>
      <trkpt lat="42.98984" lon="1.27451">
        <ele>481.6</ele>
        <time>2024-06-23T08:32:56Z</time>
      </trkpt>
      <trkpt lat="42.98986" lon="1.27458">
        <ele>481.6</ele>
        <time>2024-06-23T08:32:57Z</time>
      </trkpt>
      <trkpt lat="42.98986" lon="1.27465">
        <ele>482.2</ele>
        <time>2024-06-23T08:32:58Z</time>
      </trkpt>
      <trkpt lat="42.98986" lon="1.27469">
        <ele>482.2</ele>
        <time>2024-06-23T08:32:59Z</time>
      </trkpt>
      <trkpt lat="42.98987" lon="1.27472">
        <ele>482.4</ele>
        <time>2024-06-23T08:33:00Z</time>
      </trkpt>
      <trkpt lat="42.98988" lon="1.2748">
        <ele>482.4</ele>
        <time>2024-06-23T08:33:01Z</time>
      </trkpt>
      <trkpt lat="42.98989" lon="1.27488">
        <ele>483</ele>
        <time>2024-06-23T08:33:02Z</time>
      </trkpt>
      <trkpt lat="42.9899" lon="1.27503">
        <ele>483</ele>
        <time>2024-06-23T08:33:03Z</time>
      </trkpt>
      <trkpt lat="42.9899" lon="1.27511">
        <ele>483</ele>
        <time>2024-06-23T08:33:04Z</time>
      </trkpt>
      <trkpt lat="42.98991" lon="1.27518">
        <ele>483</ele>
        <time>2024-06-23T08:33:05Z</time>
      </trkpt>
      <trkpt lat="42.9899" lon="1.27525">
        <ele>483.2</ele>
        <time>2024-06-23T08:33:06Z</time>
      </trkpt>
      <trkpt lat="42.9899" lon="1.27533">
        <ele>483.2</ele>
        <time>2024-06-23T08:33:07Z</time>
      </trkpt>
      <trkpt lat="42.9899" lon="1.27541">
        <ele>483.6</ele>
        <time>2024-06-23T08:33:08Z</time>
      </trkpt>
      <trkpt lat="42.98989" lon="1.27547">
        <ele>483.6</ele>
        <time>2024-06-23T08:33:09Z</time>
      </trkpt>
      <trkpt lat="42.98989" lon="1.27554">
        <ele>483.6</ele>
        <time>2024-06-23T08:33:10Z</time>
      </trkpt>
      <trkpt lat="42.9899" lon="1.2756">
        <ele>484</ele>
        <time>2024-06-23T08:33:11Z</time>
      </trkpt>
      <trkpt lat="42.9899" lon="1.27568">
        <ele>484</ele>
        <time>2024-06-23T08:33:12Z</time>
      </trkpt>
      <trkpt lat="42.9899" lon="1.27575">
        <ele>484</ele>
        <time>2024-06-23T08:33:13Z</time>
      </trkpt>
      <trkpt lat="42.98991" lon="1.27583">
        <ele>484.2</ele>
        <time>2024-06-23T08:33:14Z</time>
      </trkpt>
      <trkpt lat="42.98989" lon="1.2759">
        <ele>484.2</ele>
        <time>2024-06-23T08:33:15Z</time>
      </trkpt>
      <trkpt lat="42.98987" lon="1.27597">
        <ele>484.2</ele>
        <time>2024-06-23T08:33:16Z</time>
      </trkpt>
      <trkpt lat="42.98987" lon="1.27606">
        <ele>484.2</ele>
        <time>2024-06-23T08:33:17Z</time>
      </trkpt>
      <trkpt lat="42.98987" lon="1.27614">
        <ele>484.2</ele>
        <time>2024-06-23T08:33:18Z</time>
      </trkpt>
      <trkpt lat="42.98985" lon="1.27622">
        <ele>484.2</ele>
        <time>2024-06-23T08:33:19Z</time>
      </trkpt>
      <trkpt lat="42.98984" lon="1.2763">
        <ele>484.2</ele>
        <time>2024-06-23T08:33:20Z</time>
      </trkpt>
      <trkpt lat="42.98984" lon="1.27639">
        <ele>484.2</ele>
        <time>2024-06-23T08:33:21Z</time>
      </trkpt>
      <trkpt lat="42.98983" lon="1.27647">
        <ele>484.2</ele>
        <time>2024-06-23T08:33:22Z</time>
      </trkpt>
      <trkpt lat="42.98982" lon="1.27655">
        <ele>484.2</ele>
        <time>2024-06-23T08:33:23Z</time>
      </trkpt>
      <trkpt lat="42.98981" lon="1.27662">
        <ele>484.2</ele>
        <time>2024-06-23T08:33:24Z</time>
      </trkpt>
      <trkpt lat="42.98981" lon="1.27669">
        <ele>484.2</ele>
        <time>2024-06-23T08:33:25Z</time>
      </trkpt>
      <trkpt lat="42.9898" lon="1.27679">
        <ele>484.4</ele>
        <time>2024-06-23T08:33:26Z</time>
      </trkpt>
      <trkpt lat="42.98977" lon="1.27686">
        <ele>484.4</ele>
        <time>2024-06-23T08:33:27Z</time>
      </trkpt>
      <trkpt lat="42.98976" lon="1.27693">
        <ele>484.4</ele>
        <time>2024-06-23T08:33:28Z</time>
      </trkpt>
      <trkpt lat="42.98975" lon="1.277">
        <ele>484.8</ele>
        <time>2024-06-23T08:33:29Z</time>
      </trkpt>
      <trkpt lat="42.98974" lon="1.27707">
        <ele>484.8</ele>
        <time>2024-06-23T08:33:30Z</time>
      </trkpt>
      <trkpt lat="42.98973" lon="1.27714">
        <ele>485</ele>
        <time>2024-06-23T08:33:31Z</time>
      </trkpt>
      <trkpt lat="42.98973" lon="1.27722">
        <ele>485</ele>
        <time>2024-06-23T08:33:32Z</time>
      </trkpt>
      <trkpt lat="42.98971" lon="1.2773">
        <ele>485</ele>
        <time>2024-06-23T08:33:33Z</time>
      </trkpt>
      <trkpt lat="42.9897" lon="1.27737">
        <ele>485</ele>
        <time>2024-06-23T08:33:34Z</time>
      </trkpt>
      <trkpt lat="42.98967" lon="1.27746">
        <ele>485.4</ele>
        <time>2024-06-23T08:33:35Z</time>
      </trkpt>
      <trkpt lat="42.98968" lon="1.27751">
        <ele>485.4</ele>
        <time>2024-06-23T08:33:36Z</time>
      </trkpt>
      <trkpt lat="42.98967" lon="1.27757">
        <ele>485.4</ele>
        <time>2024-06-23T08:33:37Z</time>
      </trkpt>
      <trkpt lat="42.98965" lon="1.27765">
        <ele>485.6</ele>
        <time>2024-06-23T08:33:38Z</time>
      </trkpt>
      <trkpt lat="42.98963" lon="1.27772">
        <ele>485.8</ele>
        <time>2024-06-23T08:33:39Z</time>
      </trkpt>
      <trkpt lat="42.98961" lon="1.2778">
        <ele>485.8</ele>
        <time>2024-06-23T08:33:40Z</time>
      </trkpt>
      <trkpt lat="42.9896" lon="1.27788">
        <ele>485.8</ele>
        <time>2024-06-23T08:33:41Z</time>
      </trkpt>
      <trkpt lat="42.98959" lon="1.27796">
        <ele>485.8</ele>
        <time>2024-06-23T08:33:42Z</time>
      </trkpt>
      <trkpt lat="42.98957" lon="1.27805">
        <ele>485.8</ele>
        <time>2024-06-23T08:33:43Z</time>
      </trkpt>
      <trkpt lat="42.98955" lon="1.27812">
        <ele>485.6</ele>
        <time>2024-06-23T08:33:44Z</time>
      </trkpt>
      <trkpt lat="42.98954" lon="1.2782">
        <ele>485.6</ele>
        <time>2024-06-23T08:33:45Z</time>
      </trkpt>
      <trkpt lat="42.98953" lon="1.27828">
        <ele>485.6</ele>
        <time>2024-06-23T08:33:46Z</time>
      </trkpt>
      <trkpt lat="42.98952" lon="1.27836">
        <ele>485.6</ele>
        <time>2024-06-23T08:33:47Z</time>
      </trkpt>
      <trkpt lat="42.9895" lon="1.27844">
        <ele>485.8</ele>
        <time>2024-06-23T08:33:48Z</time>
      </trkpt>
      <trkpt lat="42.98949" lon="1.27852">
        <ele>485.8</ele>
        <time>2024-06-23T08:33:49Z</time>
      </trkpt>
      <trkpt lat="42.98947" lon="1.2786">
        <ele>485.8</ele>
        <time>2024-06-23T08:33:50Z</time>
      </trkpt>
      <trkpt lat="42.98946" lon="1.27868">
        <ele>485.8</ele>
        <time>2024-06-23T08:33:51Z</time>
      </trkpt>
      <trkpt lat="42.98944" lon="1.27876">
        <ele>485.8</ele>
        <time>2024-06-23T08:33:52Z</time>
      </trkpt>
      <trkpt lat="42.98943" lon="1.27885">
        <ele>485.8</ele>
        <time>2024-06-23T08:33:53Z</time>
      </trkpt>
      <trkpt lat="42.98942" lon="1.27893">
        <ele>485.8</ele>
        <time>2024-06-23T08:33:54Z</time>
      </trkpt>
      <trkpt lat="42.98941" lon="1.27901">
        <ele>485.8</ele>
        <time>2024-06-23T08:33:55Z</time>
      </trkpt>
      <trkpt lat="42.98939" lon="1.27909">
        <ele>485.8</ele>
        <time>2024-06-23T08:33:56Z</time>
      </trkpt>
      <trkpt lat="42.98938" lon="1.27917">
        <ele>485.8</ele>
        <time>2024-06-23T08:33:57Z</time>
      </trkpt>
      <trkpt lat="42.98936" lon="1.27925">
        <ele>485.8</ele>
        <time>2024-06-23T08:33:58Z</time>
      </trkpt>
      <trkpt lat="42.98934" lon="1.27931">
        <ele>485.8</ele>
        <time>2024-06-23T08:33:59Z</time>
      </trkpt>
      <trkpt lat="42.98933" lon="1.27939">
        <ele>486.2</ele>
        <time>2024-06-23T08:34:00Z</time>
      </trkpt>
      <trkpt lat="42.98932" lon="1.27947">
        <ele>486.2</ele>
        <time>2024-06-23T08:34:01Z</time>
      </trkpt>
      <trkpt lat="42.9893" lon="1.27956">
        <ele>486.2</ele>
        <time>2024-06-23T08:34:02Z</time>
      </trkpt>
      <trkpt lat="42.98928" lon="1.27963">
        <ele>486.2</ele>
        <time>2024-06-23T08:34:03Z</time>
      </trkpt>
      <trkpt lat="42.98926" lon="1.2797">
        <ele>485.8</ele>
        <time>2024-06-23T08:34:04Z</time>
      </trkpt>
      <trkpt lat="42.98924" lon="1.27978">
        <ele>485.4</ele>
        <time>2024-06-23T08:34:05Z</time>
      </trkpt>
      <trkpt lat="42.98923" lon="1.27986">
        <ele>485.4</ele>
        <time>2024-06-23T08:34:06Z</time>
      </trkpt>
      <trkpt lat="42.98921" lon="1.27993">
        <ele>485.4</ele>
        <time>2024-06-23T08:34:07Z</time>
      </trkpt>
      <trkpt lat="42.98919" lon="1.28002">
        <ele>486</ele>
        <time>2024-06-23T08:34:08Z</time>
      </trkpt>
      <trkpt lat="42.98917" lon="1.28009">
        <ele>486</ele>
        <time>2024-06-23T08:34:09Z</time>
      </trkpt>
      <trkpt lat="42.98916" lon="1.28018">
        <ele>486</ele>
        <time>2024-06-23T08:34:10Z</time>
      </trkpt>
      <trkpt lat="42.98915" lon="1.28026">
        <ele>486</ele>
        <time>2024-06-23T08:34:11Z</time>
      </trkpt>
      <trkpt lat="42.98913" lon="1.28034">
        <ele>486</ele>
        <time>2024-06-23T08:34:12Z</time>
      </trkpt>
      <trkpt lat="42.98912" lon="1.28042">
        <ele>486</ele>
        <time>2024-06-23T08:34:13Z</time>
      </trkpt>
      <trkpt lat="42.98911" lon="1.2805">
        <ele>486.2</ele>
        <time>2024-06-23T08:34:14Z</time>
      </trkpt>
      <trkpt lat="42.98909" lon="1.28058">
        <ele>486.2</ele>
        <time>2024-06-23T08:34:15Z</time>
      </trkpt>
      <trkpt lat="42.98907" lon="1.28066">
        <ele>486.2</ele>
        <time>2024-06-23T08:34:16Z</time>
      </trkpt>
      <trkpt lat="42.98906" lon="1.28074">
        <ele>486.2</ele>
        <time>2024-06-23T08:34:17Z</time>
      </trkpt>
      <trkpt lat="42.98905" lon="1.28082">
        <ele>486.2</ele>
        <time>2024-06-23T08:34:18Z</time>
      </trkpt>
      <trkpt lat="42.98905" lon="1.2809">
        <ele>486.2</ele>
        <time>2024-06-23T08:34:19Z</time>
      </trkpt>
      <trkpt lat="42.98904" lon="1.28099">
        <ele>486.2</ele>
        <time>2024-06-23T08:34:20Z</time>
      </trkpt>
      <trkpt lat="42.98904" lon="1.28107">
        <ele>486</ele>
        <time>2024-06-23T08:34:21Z</time>
      </trkpt>
      <trkpt lat="42.98904" lon="1.28115">
        <ele>486.2</ele>
        <time>2024-06-23T08:34:22Z</time>
      </trkpt>
      <trkpt lat="42.98904" lon="1.28124">
        <ele>486.2</ele>
        <time>2024-06-23T08:34:23Z</time>
      </trkpt>
      <trkpt lat="42.98904" lon="1.28132">
        <ele>486.2</ele>
        <time>2024-06-23T08:34:24Z</time>
      </trkpt>
      <trkpt lat="42.98905" lon="1.28141">
        <ele>486.2</ele>
        <time>2024-06-23T08:34:25Z</time>
      </trkpt>
      <trkpt lat="42.98906" lon="1.28149">
        <ele>486.2</ele>
        <time>2024-06-23T08:34:26Z</time>
      </trkpt>
      <trkpt lat="42.98906" lon="1.28157">
        <ele>486.2</ele>
        <time>2024-06-23T08:34:27Z</time>
      </trkpt>
      <trkpt lat="42.98906" lon="1.28165">
        <ele>486.2</ele>
        <time>2024-06-23T08:34:28Z</time>
      </trkpt>
      <trkpt lat="42.98907" lon="1.28174">
        <ele>486.2</ele>
        <time>2024-06-23T08:34:29Z</time>
      </trkpt>
      <trkpt lat="42.98907" lon="1.28183">
        <ele>486.2</ele>
        <time>2024-06-23T08:34:30Z</time>
      </trkpt>
      <trkpt lat="42.98907" lon="1.28191">
        <ele>486.2</ele>
        <time>2024-06-23T08:34:31Z</time>
      </trkpt>
      <trkpt lat="42.98907" lon="1.28199">
        <ele>486.2</ele>
        <time>2024-06-23T08:34:32Z</time>
      </trkpt>
      <trkpt lat="42.98908" lon="1.28208">
        <ele>486.2</ele>
        <time>2024-06-23T08:34:33Z</time>
      </trkpt>
      <trkpt lat="42.98909" lon="1.28216">
        <ele>486.2</ele>
        <time>2024-06-23T08:34:34Z</time>
      </trkpt>
      <trkpt lat="42.9891" lon="1.28224">
        <ele>486.2</ele>
        <time>2024-06-23T08:34:35Z</time>
      </trkpt>
      <trkpt lat="42.98913" lon="1.2823">
        <ele>486.2</ele>
        <time>2024-06-23T08:34:36Z</time>
      </trkpt>
      <trkpt lat="42.98915" lon="1.28238">
        <ele>486.2</ele>
        <time>2024-06-23T08:34:37Z</time>
      </trkpt>
      <trkpt lat="42.98916" lon="1.28245">
        <ele>486.2</ele>
        <time>2024-06-23T08:34:38Z</time>
      </trkpt>
      <trkpt lat="42.98916" lon="1.28253">
        <ele>486.2</ele>
        <time>2024-06-23T08:34:39Z</time>
      </trkpt>
      <trkpt lat="42.98917" lon="1.2826">
        <ele>486.2</ele>
        <time>2024-06-23T08:34:40Z</time>
      </trkpt>
      <trkpt lat="42.98917" lon="1.28269">
        <ele>486.2</ele>
        <time>2024-06-23T08:34:41Z</time>
      </trkpt>
      <trkpt lat="42.98916" lon="1.28276">
        <ele>486.2</ele>
        <time>2024-06-23T08:34:42Z</time>
      </trkpt>
      <trkpt lat="42.98916" lon="1.28284">
        <ele>486.4</ele>
        <time>2024-06-23T08:34:43Z</time>
      </trkpt>
      <trkpt lat="42.98917" lon="1.28291">
        <ele>486.4</ele>
        <time>2024-06-23T08:34:44Z</time>
      </trkpt>
      <trkpt lat="42.98918" lon="1.28298">
        <ele>486.4</ele>
        <time>2024-06-23T08:34:45Z</time>
      </trkpt>
      <trkpt lat="42.98917" lon="1.28307">
        <ele>486.4</ele>
        <time>2024-06-23T08:34:46Z</time>
      </trkpt>
      <trkpt lat="42.98918" lon="1.28316">
        <ele>486.4</ele>
        <time>2024-06-23T08:34:47Z</time>
      </trkpt>
      <trkpt lat="42.98918" lon="1.28324">
        <ele>486.8</ele>
        <time>2024-06-23T08:34:48Z</time>
      </trkpt>
      <trkpt lat="42.98917" lon="1.28332">
        <ele>486.8</ele>
        <time>2024-06-23T08:34:49Z</time>
      </trkpt>
      <trkpt lat="42.98917" lon="1.2834">
        <ele>486.4</ele>
        <time>2024-06-23T08:34:50Z</time>
      </trkpt>
      <trkpt lat="42.98918" lon="1.28348">
        <ele>486.4</ele>
        <time>2024-06-23T08:34:51Z</time>
      </trkpt>
      <trkpt lat="42.98918" lon="1.28356">
        <ele>486.4</ele>
        <time>2024-06-23T08:34:52Z</time>
      </trkpt>
      <trkpt lat="42.98919" lon="1.28365">
        <ele>486.4</ele>
        <time>2024-06-23T08:34:53Z</time>
      </trkpt>
      <trkpt lat="42.98919" lon="1.28374">
        <ele>486.4</ele>
        <time>2024-06-23T08:34:54Z</time>
      </trkpt>
      <trkpt lat="42.9892" lon="1.28382">
        <ele>486.2</ele>
        <time>2024-06-23T08:34:55Z</time>
      </trkpt>
      <trkpt lat="42.9892" lon="1.2839">
        <ele>486.2</ele>
        <time>2024-06-23T08:34:56Z</time>
      </trkpt>
      <trkpt lat="42.9892" lon="1.28397">
        <ele>486.2</ele>
        <time>2024-06-23T08:34:57Z</time>
      </trkpt>
      <trkpt lat="42.98921" lon="1.28405">
        <ele>486.2</ele>
        <time>2024-06-23T08:34:58Z</time>
      </trkpt>
      <trkpt lat="42.98921" lon="1.28409">
        <ele>486.2</ele>
        <time>2024-06-23T08:34:59Z</time>
      </trkpt>
      <trkpt lat="42.98921" lon="1.28413">
        <ele>486.6</ele>
        <time>2024-06-23T08:35:00Z</time>
      </trkpt>
      <trkpt lat="42.98921" lon="1.28421">
        <ele>486.6</ele>
        <time>2024-06-23T08:35:01Z</time>
      </trkpt>
      <trkpt lat="42.98922" lon="1.28429">
        <ele>486.6</ele>
        <time>2024-06-23T08:35:02Z</time>
      </trkpt>
      <trkpt lat="42.98923" lon="1.28438">
        <ele>486.6</ele>
        <time>2024-06-23T08:35:03Z</time>
      </trkpt>
      <trkpt lat="42.98924" lon="1.28446">
        <ele>486.6</ele>
        <time>2024-06-23T08:35:04Z</time>
      </trkpt>
      <trkpt lat="42.98925" lon="1.28453">
        <ele>486.8</ele>
        <time>2024-06-23T08:35:05Z</time>
      </trkpt>
      <trkpt lat="42.98926" lon="1.28461">
        <ele>486.8</ele>
        <time>2024-06-23T08:35:06Z</time>
      </trkpt>
      <trkpt lat="42.98928" lon="1.2847">
        <ele>486.8</ele>
        <time>2024-06-23T08:35:07Z</time>
      </trkpt>
      <trkpt lat="42.98928" lon="1.28478">
        <ele>486.8</ele>
        <time>2024-06-23T08:35:08Z</time>
      </trkpt>
      <trkpt lat="42.9893" lon="1.28484">
        <ele>486.8</ele>
        <time>2024-06-23T08:35:09Z</time>
      </trkpt>
      <trkpt lat="42.98931" lon="1.28492">
        <ele>486.8</ele>
        <time>2024-06-23T08:35:10Z</time>
      </trkpt>
      <trkpt lat="42.98934" lon="1.28498">
        <ele>486.4</ele>
        <time>2024-06-23T08:35:11Z</time>
      </trkpt>
      <trkpt lat="42.98937" lon="1.28505">
        <ele>486.4</ele>
        <time>2024-06-23T08:35:12Z</time>
      </trkpt>
      <trkpt lat="42.98938" lon="1.28511">
        <ele>486.6</ele>
        <time>2024-06-23T08:35:13Z</time>
      </trkpt>
      <trkpt lat="42.9894" lon="1.28519">
        <ele>486.6</ele>
        <time>2024-06-23T08:35:14Z</time>
      </trkpt>
      <trkpt lat="42.98943" lon="1.28526">
        <ele>486.8</ele>
        <time>2024-06-23T08:35:15Z</time>
      </trkpt>
      <trkpt lat="42.98944" lon="1.28532">
        <ele>486.6</ele>
        <time>2024-06-23T08:35:16Z</time>
      </trkpt>
      <trkpt lat="42.98946" lon="1.28539">
        <ele>486.6</ele>
        <time>2024-06-23T08:35:17Z</time>
      </trkpt>
      <trkpt lat="42.98947" lon="1.28546">
        <ele>486.6</ele>
        <time>2024-06-23T08:35:18Z</time>
      </trkpt>
      <trkpt lat="42.98951" lon="1.28552">
        <ele>486.6</ele>
        <time>2024-06-23T08:35:19Z</time>
      </trkpt>
      <trkpt lat="42.98953" lon="1.28559">
        <ele>486.6</ele>
        <time>2024-06-23T08:35:20Z</time>
      </trkpt>
      <trkpt lat="42.98957" lon="1.28566">
        <ele>486.6</ele>
        <time>2024-06-23T08:35:21Z</time>
      </trkpt>
      <trkpt lat="42.98958" lon="1.28574">
        <ele>486.8</ele>
        <time>2024-06-23T08:35:22Z</time>
      </trkpt>
      <trkpt lat="42.9896" lon="1.28581">
        <ele>486.8</ele>
        <time>2024-06-23T08:35:23Z</time>
      </trkpt>
      <trkpt lat="42.98963" lon="1.28587">
        <ele>486.8</ele>
        <time>2024-06-23T08:35:24Z</time>
      </trkpt>
      <trkpt lat="42.98965" lon="1.28594">
        <ele>486.8</ele>
        <time>2024-06-23T08:35:25Z</time>
      </trkpt>
      <trkpt lat="42.98966" lon="1.28599">
        <ele>487.2</ele>
        <time>2024-06-23T08:35:26Z</time>
      </trkpt>
      <trkpt lat="42.98967" lon="1.28605">
        <ele>487.2</ele>
        <time>2024-06-23T08:35:27Z</time>
      </trkpt>
      <trkpt lat="42.98968" lon="1.2861">
        <ele>487.4</ele>
        <time>2024-06-23T08:35:28Z</time>
      </trkpt>
      <trkpt lat="42.98968" lon="1.2861">
        <ele>487.4</ele>
        <time>2024-06-23T08:35:29Z</time>
      </trkpt>
      <trkpt lat="42.98968" lon="1.2861">
        <ele>487.4</ele>
        <time>2024-06-23T08:35:30Z</time>
      </trkpt>
      <trkpt lat="42.98968" lon="1.2861">
        <ele>487.8</ele>
        <time>2024-06-23T08:35:31Z</time>
      </trkpt>
      <trkpt lat="42.98968" lon="1.2861">
        <ele>487.8</ele>
        <time>2024-06-23T08:35:32Z</time>
      </trkpt>
      <trkpt lat="42.98968" lon="1.2861">
        <ele>487.4</ele>
        <time>2024-06-23T08:35:33Z</time>
      </trkpt>
      <trkpt lat="42.98968" lon="1.2861">
        <ele>487.4</ele>
        <time>2024-06-23T08:35:34Z</time>
      </trkpt>
      <trkpt lat="42.98968" lon="1.2861">
        <ele>487.4</ele>
        <time>2024-06-23T08:35:35Z</time>
      </trkpt>
      <trkpt lat="42.98968" lon="1.2861">
        <ele>487.4</ele>
        <time>2024-06-23T08:35:36Z</time>
      </trkpt>
      <trkpt lat="42.98968" lon="1.2861">
        <ele>487.4</ele>
        <time>2024-06-23T08:35:37Z</time>
      </trkpt>
      <trkpt lat="42.98968" lon="1.2861">
        <ele>487.4</ele>
        <time>2024-06-23T08:35:38Z</time>
      </trkpt>
      <trkpt lat="42.98968" lon="1.2861">
        <ele>487.4</ele>
        <time>2024-06-23T08:35:39Z</time>
      </trkpt>
      <trkpt lat="42.98968" lon="1.2861">
        <ele>487.4</ele>
        <time>2024-06-23T08:35:40Z</time>
      </trkpt>
      <trkpt lat="42.98968" lon="1.2861">
        <ele>487.6</ele>
        <time>2024-06-23T08:35:41Z</time>
      </trkpt>
      <trkpt lat="42.98968" lon="1.2861">
        <ele>487.6</ele>
        <time>2024-06-23T08:35:42Z</time>
      </trkpt>
      <trkpt lat="42.98968" lon="1.2861">
        <ele>487.6</ele>
        <time>2024-06-23T08:35:43Z</time>
      </trkpt>
      <trkpt lat="42.98968" lon="1.2861">
        <ele>487</ele>
        <time>2024-06-23T08:35:44Z</time>
      </trkpt>
      <trkpt lat="42.98968" lon="1.2861">
        <ele>487.2</ele>
        <time>2024-06-23T08:35:45Z</time>
      </trkpt>
      <trkpt lat="42.98968" lon="1.2861">
        <ele>487.2</ele>
        <time>2024-06-23T08:35:46Z</time>
      </trkpt>
      <trkpt lat="42.98968" lon="1.2861">
        <ele>487.2</ele>
        <time>2024-06-23T08:35:47Z</time>
      </trkpt>
      <trkpt lat="42.98968" lon="1.2861">
        <ele>487.2</ele>
        <time>2024-06-23T08:35:48Z</time>
      </trkpt>
      <trkpt lat="42.98968" lon="1.2861">
        <ele>487.4</ele>
        <time>2024-06-23T08:35:49Z</time>
      </trkpt>
      <trkpt lat="42.98968" lon="1.2861">
        <ele>487.2</ele>
        <time>2024-06-23T08:35:50Z</time>
      </trkpt>
      <trkpt lat="42.98968" lon="1.2861">
        <ele>487.2</ele>
        <time>2024-06-23T08:35:51Z</time>
      </trkpt>
      <trkpt lat="42.98968" lon="1.2861">
        <ele>487.2</ele>
        <time>2024-06-23T08:35:52Z</time>
      </trkpt>
      <trkpt lat="42.98968" lon="1.2861">
        <ele>487.2</ele>
        <time>2024-06-23T08:35:53Z</time>
      </trkpt>
      <trkpt lat="42.98968" lon="1.2861">
        <ele>486.8</ele>
        <time>2024-06-23T08:35:54Z</time>
      </trkpt>
      <trkpt lat="42.98968" lon="1.2861">
        <ele>487.2</ele>
        <time>2024-06-23T08:35:55Z</time>
      </trkpt>
      <trkpt lat="42.98968" lon="1.2861">
        <ele>487.2</ele>
        <time>2024-06-23T08:35:56Z</time>
      </trkpt>
      <trkpt lat="42.98968" lon="1.2861">
        <ele>487.2</ele>
        <time>2024-06-23T08:35:57Z</time>
      </trkpt>
      <trkpt lat="42.98968" lon="1.2861">
        <ele>487.2</ele>
        <time>2024-06-23T08:35:58Z</time>
      </trkpt>
      <trkpt lat="42.98968" lon="1.2861">
        <ele>487.2</ele>
        <time>2024-06-23T08:35:59Z</time>
      </trkpt>
      <trkpt lat="42.98968" lon="1.2861">
        <ele>487.2</ele>
        <time>2024-06-23T08:36:00Z</time>
      </trkpt>
      <trkpt lat="42.98968" lon="1.2861">
        <ele>487.2</ele>
        <time>2024-06-23T08:36:01Z</time>
      </trkpt>
      <trkpt lat="42.98968" lon="1.2861">
        <ele>487.2</ele>
        <time>2024-06-23T08:36:02Z</time>
      </trkpt>
      <trkpt lat="42.98968" lon="1.2861">
        <ele>487.2</ele>
        <time>2024-06-23T08:36:03Z</time>
      </trkpt>
      <trkpt lat="42.98968" lon="1.2861">
        <ele>487</ele>
        <time>2024-06-23T08:36:04Z</time>
      </trkpt>
      <trkpt lat="42.98968" lon="1.2861">
        <ele>487</ele>
        <time>2024-06-23T08:36:05Z</time>
      </trkpt>
      <trkpt lat="42.98968" lon="1.2861">
        <ele>487</ele>
        <time>2024-06-23T08:36:06Z</time>
      </trkpt>
      <trkpt lat="42.98968" lon="1.2861">
        <ele>487</ele>
        <time>2024-06-23T08:36:07Z</time>
      </trkpt>
      <trkpt lat="42.98968" lon="1.2861">
        <ele>486.8</ele>
        <time>2024-06-23T08:36:08Z</time>
      </trkpt>
      <trkpt lat="42.98968" lon="1.2861">
        <ele>486.8</ele>
        <time>2024-06-23T08:36:09Z</time>
      </trkpt>
      <trkpt lat="42.98968" lon="1.2861">
        <ele>486.6</ele>
        <time>2024-06-23T08:36:10Z</time>
      </trkpt>
      <trkpt lat="42.98968" lon="1.2861">
        <ele>486.6</ele>
        <time>2024-06-23T08:36:11Z</time>
      </trkpt>
      <trkpt lat="42.98968" lon="1.2861">
        <ele>486.6</ele>
        <time>2024-06-23T08:36:12Z</time>
      </trkpt>
      <trkpt lat="42.98968" lon="1.2861">
        <ele>486.6</ele>
        <time>2024-06-23T08:36:13Z</time>
      </trkpt>
      <trkpt lat="42.98968" lon="1.2861">
        <ele>486.6</ele>
        <time>2024-06-23T08:36:14Z</time>
      </trkpt>
      <trkpt lat="42.98968" lon="1.2861">
        <ele>486</ele>
        <time>2024-06-23T08:36:15Z</time>
      </trkpt>
      <trkpt lat="42.98968" lon="1.2861">
        <ele>485.8</ele>
        <time>2024-06-23T08:36:16Z</time>
      </trkpt>
      <trkpt lat="42.98968" lon="1.2861">
        <ele>486.6</ele>
        <time>2024-06-23T08:36:17Z</time>
      </trkpt>
      <trkpt lat="42.98968" lon="1.2861">
        <ele>486.4</ele>
        <time>2024-06-23T08:36:18Z</time>
      </trkpt>
      <trkpt lat="42.98968" lon="1.2861">
        <ele>486.4</ele>
        <time>2024-06-23T08:36:19Z</time>
      </trkpt>
      <trkpt lat="42.98968" lon="1.2861">
        <ele>486.4</ele>
        <time>2024-06-23T08:36:20Z</time>
      </trkpt>
      <trkpt lat="42.98968" lon="1.2861">
        <ele>485.6</ele>
        <time>2024-06-23T08:36:21Z</time>
      </trkpt>
      <trkpt lat="42.98968" lon="1.2861">
        <ele>485.2</ele>
        <time>2024-06-23T08:36:22Z</time>
      </trkpt>
      <trkpt lat="42.98968" lon="1.2861">
        <ele>485.2</ele>
        <time>2024-06-23T08:36:23Z</time>
      </trkpt>
      <trkpt lat="42.98968" lon="1.2861">
        <ele>485</ele>
        <time>2024-06-23T08:36:24Z</time>
      </trkpt>
      <trkpt lat="42.98968" lon="1.2861">
        <ele>485</ele>
        <time>2024-06-23T08:36:25Z</time>
      </trkpt>
      <trkpt lat="42.98968" lon="1.2861">
        <ele>485</ele>
        <time>2024-06-23T08:36:26Z</time>
      </trkpt>
      <trkpt lat="42.98968" lon="1.2861">
        <ele>485</ele>
        <time>2024-06-23T08:36:27Z</time>
      </trkpt>
      <trkpt lat="42.98968" lon="1.2861">
        <ele>485</ele>
        <time>2024-06-23T08:36:28Z</time>
      </trkpt>
      <trkpt lat="42.98968" lon="1.2861">
        <ele>484.6</ele>
        <time>2024-06-23T08:36:29Z</time>
      </trkpt>
      <trkpt lat="42.98968" lon="1.2861">
        <ele>484.6</ele>
        <time>2024-06-23T08:36:30Z</time>
      </trkpt>
      <trkpt lat="42.98968" lon="1.2861">
        <ele>484.6</ele>
        <time>2024-06-23T08:36:31Z</time>
      </trkpt>
      <trkpt lat="42.98968" lon="1.2861">
        <ele>484.4</ele>
        <time>2024-06-23T08:36:32Z</time>
      </trkpt>
      <trkpt lat="42.98968" lon="1.2861">
        <ele>484.4</ele>
        <time>2024-06-23T08:36:33Z</time>
      </trkpt>
      <trkpt lat="42.98968" lon="1.2861">
        <ele>484.4</ele>
        <time>2024-06-23T08:36:34Z</time>
      </trkpt>
      <trkpt lat="42.98968" lon="1.2861">
        <ele>484.4</ele>
        <time>2024-06-23T08:36:35Z</time>
      </trkpt>
      <trkpt lat="42.98968" lon="1.2861">
        <ele>484</ele>
        <time>2024-06-23T08:36:36Z</time>
      </trkpt>
      <trkpt lat="42.98968" lon="1.2861">
        <ele>484</ele>
        <time>2024-06-23T08:36:37Z</time>
      </trkpt>
      <trkpt lat="42.98968" lon="1.2861">
        <ele>484</ele>
        <time>2024-06-23T08:36:38Z</time>
      </trkpt>
      <trkpt lat="42.98968" lon="1.2861">
        <ele>483.8</ele>
        <time>2024-06-23T08:36:39Z</time>
      </trkpt>
      <trkpt lat="42.98968" lon="1.2861">
        <ele>483.4</ele>
        <time>2024-06-23T08:36:40Z</time>
      </trkpt>
      <trkpt lat="42.98968" lon="1.2861">
        <ele>483.4</ele>
        <time>2024-06-23T08:36:41Z</time>
      </trkpt>
      <trkpt lat="42.98968" lon="1.2861">
        <ele>483.2</ele>
        <time>2024-06-23T08:36:42Z</time>
      </trkpt>
      <trkpt lat="42.98968" lon="1.2861">
        <ele>483.2</ele>
        <time>2024-06-23T08:36:43Z</time>
      </trkpt>
      <trkpt lat="42.98968" lon="1.2861">
        <ele>483.2</ele>
        <time>2024-06-23T08:36:44Z</time>
      </trkpt>
      <trkpt lat="42.98968" lon="1.2861">
        <ele>483.2</ele>
        <time>2024-06-23T08:36:45Z</time>
      </trkpt>
      <trkpt lat="42.98968" lon="1.2861">
        <ele>483.2</ele>
        <time>2024-06-23T08:36:46Z</time>
      </trkpt>
      <trkpt lat="42.98968" lon="1.2861">
        <ele>483.2</ele>
        <time>2024-06-23T08:36:47Z</time>
      </trkpt>
      <trkpt lat="42.98968" lon="1.2861">
        <ele>483.2</ele>
        <time>2024-06-23T08:36:48Z</time>
      </trkpt>
      <trkpt lat="42.98968" lon="1.2861">
        <ele>482.8</ele>
        <time>2024-06-23T08:36:49Z</time>
      </trkpt>
      <trkpt lat="42.98968" lon="1.2861">
        <ele>482.8</ele>
        <time>2024-06-23T08:36:50Z</time>
      </trkpt>
      <trkpt lat="42.98968" lon="1.2861">
        <ele>482.4</ele>
        <time>2024-06-23T08:36:51Z</time>
      </trkpt>
      <trkpt lat="42.98968" lon="1.2861">
        <ele>482.4</ele>
        <time>2024-06-23T08:36:52Z</time>
      </trkpt>
      <trkpt lat="42.98968" lon="1.2861">
        <ele>482.4</ele>
        <time>2024-06-23T08:36:53Z</time>
      </trkpt>
      <trkpt lat="42.98968" lon="1.2861">
        <ele>482.4</ele>
        <time>2024-06-23T08:36:54Z</time>
      </trkpt>
      <trkpt lat="42.98968" lon="1.2861">
        <ele>482.2</ele>
        <time>2024-06-23T08:36:55Z</time>
      </trkpt>
      <trkpt lat="42.98968" lon="1.2861">
        <ele>482.2</ele>
        <time>2024-06-23T08:36:56Z</time>
      </trkpt>
      <trkpt lat="42.98968" lon="1.2861">
        <ele>482.2</ele>
        <time>2024-06-23T08:36:57Z</time>
      </trkpt>
      <trkpt lat="42.98968" lon="1.2861">
        <ele>482.2</ele>
        <time>2024-06-23T08:36:58Z</time>
      </trkpt>
      <trkpt lat="42.98968" lon="1.2861">
        <ele>482.2</ele>
        <time>2024-06-23T08:36:59Z</time>
      </trkpt>
      <trkpt lat="42.98968" lon="1.2861">
        <ele>482.2</ele>
        <time>2024-06-23T08:37:00Z</time>
      </trkpt>
      <trkpt lat="42.98968" lon="1.2861">
        <ele>481.8</ele>
        <time>2024-06-23T08:37:01Z</time>
      </trkpt>
      <trkpt lat="42.98968" lon="1.2861">
        <ele>482</ele>
        <time>2024-06-23T08:37:02Z</time>
      </trkpt>
      <trkpt lat="42.98968" lon="1.2861">
        <ele>482</ele>
        <time>2024-06-23T08:37:03Z</time>
      </trkpt>
      <trkpt lat="42.98968" lon="1.2861">
        <ele>481.4</ele>
        <time>2024-06-23T08:37:04Z</time>
      </trkpt>
      <trkpt lat="42.98968" lon="1.2861">
        <ele>481.2</ele>
        <time>2024-06-23T08:37:05Z</time>
      </trkpt>
      <trkpt lat="42.98968" lon="1.2861">
        <ele>481.2</ele>
        <time>2024-06-23T08:37:06Z</time>
      </trkpt>
      <trkpt lat="42.98968" lon="1.2861">
        <ele>481.2</ele>
        <time>2024-06-23T08:37:07Z</time>
      </trkpt>
      <trkpt lat="42.98968" lon="1.2861">
        <ele>481</ele>
        <time>2024-06-23T08:37:08Z</time>
      </trkpt>
      <trkpt lat="42.98968" lon="1.2861">
        <ele>480.6</ele>
        <time>2024-06-23T08:37:09Z</time>
      </trkpt>
      <trkpt lat="42.98968" lon="1.2861">
        <ele>480.6</ele>
        <time>2024-06-23T08:37:10Z</time>
      </trkpt>
      <trkpt lat="42.98968" lon="1.2861">
        <ele>480.4</ele>
        <time>2024-06-23T08:37:11Z</time>
      </trkpt>
      <trkpt lat="42.98968" lon="1.2861">
        <ele>480.4</ele>
        <time>2024-06-23T08:37:12Z</time>
      </trkpt>
      <trkpt lat="42.98968" lon="1.2861">
        <ele>480.4</ele>
        <time>2024-06-23T08:37:13Z</time>
      </trkpt>
      <trkpt lat="42.98968" lon="1.2861">
        <ele>480.4</ele>
        <time>2024-06-23T08:37:14Z</time>
      </trkpt>
      <trkpt lat="42.98968" lon="1.2861">
        <ele>480</ele>
        <time>2024-06-23T08:37:15Z</time>
      </trkpt>
      <trkpt lat="42.98968" lon="1.2861">
        <ele>480</ele>
        <time>2024-06-23T08:37:16Z</time>
      </trkpt>
      <trkpt lat="42.98968" lon="1.2861">
        <ele>480</ele>
        <time>2024-06-23T08:37:17Z</time>
      </trkpt>
      <trkpt lat="42.98968" lon="1.2861">
        <ele>480</ele>
        <time>2024-06-23T08:37:18Z</time>
      </trkpt>
      <trkpt lat="42.98968" lon="1.2861">
        <ele>480</ele>
        <time>2024-06-23T08:37:19Z</time>
      </trkpt>
      <trkpt lat="42.98968" lon="1.2861">
        <ele>479.8</ele>
        <time>2024-06-23T08:37:20Z</time>
      </trkpt>
      <trkpt lat="42.98968" lon="1.2861">
        <ele>479.6</ele>
        <time>2024-06-23T08:37:21Z</time>
      </trkpt>
      <trkpt lat="42.98968" lon="1.2861">
        <ele>479.6</ele>
        <time>2024-06-23T08:37:22Z</time>
      </trkpt>
      <trkpt lat="42.98968" lon="1.2861">
        <ele>479.4</ele>
        <time>2024-06-23T08:37:23Z</time>
      </trkpt>
      <trkpt lat="42.98968" lon="1.2861">
        <ele>479.4</ele>
        <time>2024-06-23T08:37:24Z</time>
      </trkpt>
      <trkpt lat="42.98968" lon="1.2861">
        <ele>479.2</ele>
        <time>2024-06-23T08:37:25Z</time>
      </trkpt>
      <trkpt lat="42.98968" lon="1.2861">
        <ele>478.8</ele>
        <time>2024-06-23T08:37:26Z</time>
      </trkpt>
      <trkpt lat="42.98968" lon="1.2861">
        <ele>478.8</ele>
        <time>2024-06-23T08:37:27Z</time>
      </trkpt>
      <trkpt lat="42.98968" lon="1.2861">
        <ele>478.8</ele>
        <time>2024-06-23T08:37:28Z</time>
      </trkpt>
      <trkpt lat="42.98968" lon="1.2861">
        <ele>478.8</ele>
        <time>2024-06-23T08:37:29Z</time>
      </trkpt>
      <trkpt lat="42.98968" lon="1.2861">
        <ele>478.4</ele>
        <time>2024-06-23T08:37:30Z</time>
      </trkpt>
      <trkpt lat="42.99334" lon="1.29528">
        <ele>478.4</ele>
        <time>2024-06-23T08:37:31Z</time>
      </trkpt>
      <trkpt lat="42.99337" lon="1.29538">
        <ele>478.4</ele>
        <time>2024-06-23T08:37:32Z</time>
      </trkpt>
      <trkpt lat="42.9934" lon="1.29545">
        <ele>478</ele>
        <time>2024-06-23T08:37:33Z</time>
      </trkpt>
      <trkpt lat="42.9934" lon="1.29557">
        <ele>478</ele>
        <time>2024-06-23T08:37:34Z</time>
      </trkpt>
      <trkpt lat="42.99342" lon="1.29561">
        <ele>477.6</ele>
        <time>2024-06-23T08:37:35Z</time>
      </trkpt>
      <trkpt lat="42.99344" lon="1.29571">
        <ele>477.6</ele>
        <time>2024-06-23T08:37:36Z</time>
      </trkpt>
      <trkpt lat="42.99346" lon="1.29579">
        <ele>477.6</ele>
        <time>2024-06-23T08:37:37Z</time>
      </trkpt>
      <trkpt lat="42.99346" lon="1.29586">
        <ele>477.6</ele>
        <time>2024-06-23T08:37:38Z</time>
      </trkpt>
      <trkpt lat="42.99348" lon="1.29595">
        <ele>477.4</ele>
        <time>2024-06-23T08:37:39Z</time>
      </trkpt>
      <trkpt lat="42.99351" lon="1.29603">
        <ele>477.4</ele>
        <time>2024-06-23T08:37:40Z</time>
      </trkpt>
      <trkpt lat="42.99353" lon="1.29611">
        <ele>477.4</ele>
        <time>2024-06-23T08:37:41Z</time>
      </trkpt>
      <trkpt lat="42.99354" lon="1.29619">
        <ele>476.8</ele>
        <time>2024-06-23T08:37:42Z</time>
      </trkpt>
      <trkpt lat="42.99355" lon="1.29627">
        <ele>476.8</ele>
        <time>2024-06-23T08:37:43Z</time>
      </trkpt>
      <trkpt lat="42.99357" lon="1.29637">
        <ele>476.4</ele>
        <time>2024-06-23T08:37:44Z</time>
      </trkpt>
      <trkpt lat="42.99359" lon="1.29647">
        <ele>476.4</ele>
        <time>2024-06-23T08:37:45Z</time>
      </trkpt>
      <trkpt lat="42.99361" lon="1.29656">
        <ele>476.2</ele>
        <time>2024-06-23T08:37:46Z</time>
      </trkpt>
      <trkpt lat="42.99363" lon="1.29664">
        <ele>475.8</ele>
        <time>2024-06-23T08:37:47Z</time>
      </trkpt>
      <trkpt lat="42.99365" lon="1.29672">
        <ele>475.8</ele>
        <time>2024-06-23T08:37:48Z</time>
      </trkpt>
      <trkpt lat="42.99366" lon="1.29681">
        <ele>476</ele>
        <time>2024-06-23T08:37:49Z</time>
      </trkpt>
      <trkpt lat="42.99368" lon="1.29689">
        <ele>476</ele>
        <time>2024-06-23T08:37:50Z</time>
      </trkpt>
      <trkpt lat="42.99369" lon="1.29698">
        <ele>476</ele>
        <time>2024-06-23T08:37:51Z</time>
      </trkpt>
      <trkpt lat="42.99371" lon="1.29706">
        <ele>475.6</ele>
        <time>2024-06-23T08:37:52Z</time>
      </trkpt>
      <trkpt lat="42.99374" lon="1.29714">
        <ele>475.6</ele>
        <time>2024-06-23T08:37:53Z</time>
      </trkpt>
      <trkpt lat="42.99375" lon="1.29721">
        <ele>475.4</ele>
        <time>2024-06-23T08:37:54Z</time>
      </trkpt>
      <trkpt lat="42.99377" lon="1.29729">
        <ele>475.4</ele>
        <time>2024-06-23T08:37:55Z</time>
      </trkpt>
      <trkpt lat="42.99379" lon="1.29738">
        <ele>475.2</ele>
        <time>2024-06-23T08:37:56Z</time>
      </trkpt>
      <trkpt lat="42.99381" lon="1.29748">
        <ele>475</ele>
        <time>2024-06-23T08:37:57Z</time>
      </trkpt>
      <trkpt lat="42.99383" lon="1.29757">
        <ele>475</ele>
        <time>2024-06-23T08:37:58Z</time>
      </trkpt>
      <trkpt lat="42.99385" lon="1.29766">
        <ele>475</ele>
        <time>2024-06-23T08:37:59Z</time>
      </trkpt>
      <trkpt lat="42.99386" lon="1.29775">
        <ele>474.8</ele>
        <time>2024-06-23T08:38:00Z</time>
      </trkpt>
      <trkpt lat="42.99388" lon="1.29784">
        <ele>474.8</ele>
        <time>2024-06-23T08:38:01Z</time>
      </trkpt>
      <trkpt lat="42.99389" lon="1.29795">
        <ele>474.8</ele>
        <time>2024-06-23T08:38:02Z</time>
      </trkpt>
      <trkpt lat="42.99391" lon="1.29804">
        <ele>474.6</ele>
        <time>2024-06-23T08:38:03Z</time>
      </trkpt>
      <trkpt lat="42.99393" lon="1.29812">
        <ele>474.2</ele>
        <time>2024-06-23T08:38:04Z</time>
      </trkpt>
      <trkpt lat="42.99395" lon="1.29821">
        <ele>474.2</ele>
        <time>2024-06-23T08:38:05Z</time>
      </trkpt>
      <trkpt lat="42.99397" lon="1.29829">
        <ele>474.2</ele>
        <time>2024-06-23T08:38:06Z</time>
      </trkpt>
      <trkpt lat="42.99399" lon="1.29838">
        <ele>473.8</ele>
        <time>2024-06-23T08:38:07Z</time>
      </trkpt>
      <trkpt lat="42.99401" lon="1.29846">
        <ele>473.6</ele>
        <time>2024-06-23T08:38:08Z</time>
      </trkpt>
      <trkpt lat="42.99402" lon="1.29855">
        <ele>473.6</ele>
        <time>2024-06-23T08:38:09Z</time>
      </trkpt>
      <trkpt lat="42.99404" lon="1.29864">
        <ele>473.2</ele>
        <time>2024-06-23T08:38:10Z</time>
      </trkpt>
      <trkpt lat="42.99406" lon="1.29873">
        <ele>473.2</ele>
        <time>2024-06-23T08:38:11Z</time>
      </trkpt>
      <trkpt lat="42.99408" lon="1.29882">
        <ele>473</ele>
        <time>2024-06-23T08:38:12Z</time>
      </trkpt>
      <trkpt lat="42.99409" lon="1.29891">
        <ele>472.6</ele>
        <time>2024-06-23T08:38:13Z</time>
      </trkpt>
      <trkpt lat="42.99411" lon="1.299">
        <ele>472.6</ele>
        <time>2024-06-23T08:38:14Z</time>
      </trkpt>
      <trkpt lat="42.99413" lon="1.2991">
        <ele>472.4</ele>
        <time>2024-06-23T08:38:15Z</time>
      </trkpt>
      <trkpt lat="42.99415" lon="1.29919">
        <ele>472.4</ele>
        <time>2024-06-23T08:38:16Z</time>
      </trkpt>
      <trkpt lat="42.99417" lon="1.29928">
        <ele>472.2</ele>
        <time>2024-06-23T08:38:17Z</time>
      </trkpt>
      <trkpt lat="42.99421" lon="1.29937">
        <ele>472.2</ele>
        <time>2024-06-23T08:38:18Z</time>
      </trkpt>
      <trkpt lat="42.99422" lon="1.29946">
        <ele>472</ele>
        <time>2024-06-23T08:38:19Z</time>
      </trkpt>
      <trkpt lat="42.99424" lon="1.29954">
        <ele>472</ele>
        <time>2024-06-23T08:38:20Z</time>
      </trkpt>
      <trkpt lat="42.99425" lon="1.29963">
        <ele>471.6</ele>
        <time>2024-06-23T08:38:21Z</time>
      </trkpt>
      <trkpt lat="42.99427" lon="1.29972">
        <ele>471</ele>
        <time>2024-06-23T08:38:22Z</time>
      </trkpt>
      <trkpt lat="42.99429" lon="1.29982">
        <ele>471</ele>
        <time>2024-06-23T08:38:23Z</time>
      </trkpt>
      <trkpt lat="42.99432" lon="1.2999">
        <ele>470.8</ele>
        <time>2024-06-23T08:38:24Z</time>
      </trkpt>
      <trkpt lat="42.99434" lon="1.3">
        <ele>470.8</ele>
        <time>2024-06-23T08:38:25Z</time>
      </trkpt>
      <trkpt lat="42.99436" lon="1.3001">
        <ele>470.8</ele>
        <time>2024-06-23T08:38:26Z</time>
      </trkpt>
      <trkpt lat="42.99438" lon="1.30019">
        <ele>470.8</ele>
        <time>2024-06-23T08:38:27Z</time>
      </trkpt>
      <trkpt lat="42.9944" lon="1.30027">
        <ele>470.8</ele>
        <time>2024-06-23T08:38:28Z</time>
      </trkpt>
      <trkpt lat="42.99441" lon="1.30036">
        <ele>470.8</ele>
        <time>2024-06-23T08:38:29Z</time>
      </trkpt>
      <trkpt lat="42.99443" lon="1.30044">
        <ele>470.4</ele>
        <time>2024-06-23T08:38:30Z</time>
      </trkpt>
      <trkpt lat="42.99443" lon="1.30051">
        <ele>470.2</ele>
        <time>2024-06-23T08:38:31Z</time>
      </trkpt>
      <trkpt lat="42.99444" lon="1.30061">
        <ele>470</ele>
        <time>2024-06-23T08:38:32Z</time>
      </trkpt>
      <trkpt lat="42.99446" lon="1.3007">
        <ele>469.8</ele>
        <time>2024-06-23T08:38:33Z</time>
      </trkpt>
      <trkpt lat="42.99446" lon="1.30078">
        <ele>469.8</ele>
        <time>2024-06-23T08:38:34Z</time>
      </trkpt>
      <trkpt lat="42.99449" lon="1.30089">
        <ele>469.6</ele>
        <time>2024-06-23T08:38:35Z</time>
      </trkpt>
      <trkpt lat="42.9945" lon="1.30098">
        <ele>469.6</ele>
        <time>2024-06-23T08:38:36Z</time>
      </trkpt>
      <trkpt lat="42.99451" lon="1.30107">
        <ele>469.6</ele>
        <time>2024-06-23T08:38:37Z</time>
      </trkpt>
      <trkpt lat="42.99455" lon="1.30116">
        <ele>469.8</ele>
        <time>2024-06-23T08:38:38Z</time>
      </trkpt>
      <trkpt lat="42.99456" lon="1.30124">
        <ele>469.8</ele>
        <time>2024-06-23T08:38:39Z</time>
      </trkpt>
      <trkpt lat="42.99459" lon="1.30134">
        <ele>469.6</ele>
        <time>2024-06-23T08:38:40Z</time>
      </trkpt>
      <trkpt lat="42.99459" lon="1.30141">
        <ele>469.6</ele>
        <time>2024-06-23T08:38:41Z</time>
      </trkpt>
      <trkpt lat="42.9946" lon="1.30148">
        <ele>469.6</ele>
        <time>2024-06-23T08:38:42Z</time>
      </trkpt>
      <trkpt lat="42.99461" lon="1.30156">
        <ele>469.2</ele>
        <time>2024-06-23T08:38:43Z</time>
      </trkpt>
      <trkpt lat="42.99463" lon="1.30165">
        <ele>469.2</ele>
        <time>2024-06-23T08:38:44Z</time>
      </trkpt>
      <trkpt lat="42.99465" lon="1.30173">
        <ele>468.8</ele>
        <time>2024-06-23T08:38:45Z</time>
      </trkpt>
      <trkpt lat="42.99466" lon="1.30182">
        <ele>468.6</ele>
        <time>2024-06-23T08:38:46Z</time>
      </trkpt>
      <trkpt lat="42.99467" lon="1.30192">
        <ele>468.4</ele>
        <time>2024-06-23T08:38:47Z</time>
      </trkpt>
      <trkpt lat="42.99468" lon="1.30201">
        <ele>468.4</ele>
        <time>2024-06-23T08:38:48Z</time>
      </trkpt>
      <trkpt lat="42.99469" lon="1.3021">
        <ele>468</ele>
        <time>2024-06-23T08:38:49Z</time>
      </trkpt>
      <trkpt lat="42.9947" lon="1.30219">
        <ele>468</ele>
        <time>2024-06-23T08:38:50Z</time>
      </trkpt>
      <trkpt lat="42.9947" lon="1.30228">
        <ele>468</ele>
        <time>2024-06-23T08:38:51Z</time>
      </trkpt>
      <trkpt lat="42.9947" lon="1.30238">
        <ele>468</ele>
        <time>2024-06-23T08:38:52Z</time>
      </trkpt>
      <trkpt lat="42.99471" lon="1.30248">
        <ele>468</ele>
        <time>2024-06-23T08:38:53Z</time>
      </trkpt>
      <trkpt lat="42.9947" lon="1.30257">
        <ele>467.4</ele>
        <time>2024-06-23T08:38:54Z</time>
      </trkpt>
      <trkpt lat="42.9947" lon="1.30267">
        <ele>467.2</ele>
        <time>2024-06-23T08:38:55Z</time>
      </trkpt>
      <trkpt lat="42.99469" lon="1.30275">
        <ele>466.8</ele>
        <time>2024-06-23T08:38:56Z</time>
      </trkpt>
      <trkpt lat="42.9947" lon="1.30285">
        <ele>466.6</ele>
        <time>2024-06-23T08:38:57Z</time>
      </trkpt>
      <trkpt lat="42.99472" lon="1.30294">
        <ele>466.6</ele>
        <time>2024-06-23T08:38:58Z</time>
      </trkpt>
      <trkpt lat="42.99472" lon="1.30304">
        <ele>466.2</ele>
        <time>2024-06-23T08:38:59Z</time>
      </trkpt>
      <trkpt lat="42.99471" lon="1.30313">
        <ele>466.2</ele>
        <time>2024-06-23T08:39:00Z</time>
      </trkpt>
      <trkpt lat="42.99471" lon="1.30323">
        <ele>465.6</ele>
        <time>2024-06-23T08:39:01Z</time>
      </trkpt>
      <trkpt lat="42.99471" lon="1.30332">
        <ele>466.2</ele>
        <time>2024-06-23T08:39:02Z</time>
      </trkpt>
      <trkpt lat="42.9947" lon="1.30342">
        <ele>466.2</ele>
        <time>2024-06-23T08:39:03Z</time>
      </trkpt>
      <trkpt lat="42.9947" lon="1.30351">
        <ele>465.8</ele>
        <time>2024-06-23T08:39:04Z</time>
      </trkpt>
      <trkpt lat="42.99469" lon="1.30361">
        <ele>465.6</ele>
        <time>2024-06-23T08:39:05Z</time>
      </trkpt>
      <trkpt lat="42.99468" lon="1.30371">
        <ele>465.6</ele>
        <time>2024-06-23T08:39:06Z</time>
      </trkpt>
      <trkpt lat="42.99466" lon="1.30381">
        <ele>465.2</ele>
        <time>2024-06-23T08:39:07Z</time>
      </trkpt>
      <trkpt lat="42.99465" lon="1.3039">
        <ele>465.2</ele>
        <time>2024-06-23T08:39:08Z</time>
      </trkpt>
      <trkpt lat="42.99463" lon="1.304">
        <ele>465.2</ele>
        <time>2024-06-23T08:39:09Z</time>
      </trkpt>
      <trkpt lat="42.99462" lon="1.3041">
        <ele>465.2</ele>
        <time>2024-06-23T08:39:10Z</time>
      </trkpt>
      <trkpt lat="42.9946" lon="1.30419">
        <ele>465.2</ele>
        <time>2024-06-23T08:39:11Z</time>
      </trkpt>
      <trkpt lat="42.99459" lon="1.30429">
        <ele>465.2</ele>
        <time>2024-06-23T08:39:12Z</time>
      </trkpt>
      <trkpt lat="42.99457" lon="1.30439">
        <ele>464.6</ele>
        <time>2024-06-23T08:39:13Z</time>
      </trkpt>
      <trkpt lat="42.99455" lon="1.30448">
        <ele>464.6</ele>
        <time>2024-06-23T08:39:14Z</time>
      </trkpt>
      <trkpt lat="42.99454" lon="1.30457">
        <ele>464.4</ele>
        <time>2024-06-23T08:39:15Z</time>
      </trkpt>
      <trkpt lat="42.99452" lon="1.30466">
        <ele>464.4</ele>
        <time>2024-06-23T08:39:16Z</time>
      </trkpt>
      <trkpt lat="42.99451" lon="1.30474">
        <ele>464.4</ele>
        <time>2024-06-23T08:39:17Z</time>
      </trkpt>
      <trkpt lat="42.99448" lon="1.30483">
        <ele>464.4</ele>
        <time>2024-06-23T08:39:18Z</time>
      </trkpt>
      <trkpt lat="42.99445" lon="1.30492">
        <ele>464.4</ele>
        <time>2024-06-23T08:39:19Z</time>
      </trkpt>
      <trkpt lat="42.99442" lon="1.30499">
        <ele>464.4</ele>
        <time>2024-06-23T08:39:20Z</time>
      </trkpt>
      <trkpt lat="42.9944" lon="1.30507">
        <ele>464.4</ele>
        <time>2024-06-23T08:39:21Z</time>
      </trkpt>
      <trkpt lat="42.99439" lon="1.30516">
        <ele>464.4</ele>
        <time>2024-06-23T08:39:22Z</time>
      </trkpt>
      <trkpt lat="42.99437" lon="1.30525">
        <ele>464</ele>
        <time>2024-06-23T08:39:23Z</time>
      </trkpt>
      <trkpt lat="42.99436" lon="1.3053">
        <ele>463.6</ele>
        <time>2024-06-23T08:39:24Z</time>
      </trkpt>
      <trkpt lat="42.99435" lon="1.30537">
        <ele>463.6</ele>
        <time>2024-06-23T08:39:25Z</time>
      </trkpt>
      <trkpt lat="42.99434" lon="1.30546">
        <ele>463.2</ele>
        <time>2024-06-23T08:39:26Z</time>
      </trkpt>
      <trkpt lat="42.99432" lon="1.30554">
        <ele>463.2</ele>
        <time>2024-06-23T08:39:27Z</time>
      </trkpt>
      <trkpt lat="42.9943" lon="1.30567">
        <ele>463.2</ele>
        <time>2024-06-23T08:39:28Z</time>
      </trkpt>
      <trkpt lat="42.99427" lon="1.30577">
        <ele>463.2</ele>
        <time>2024-06-23T08:39:29Z</time>
      </trkpt>
      <trkpt lat="42.99426" lon="1.30587">
        <ele>463</ele>
        <time>2024-06-23T08:39:30Z</time>
      </trkpt>
      <trkpt lat="42.99423" lon="1.30595">
        <ele>463</ele>
        <time>2024-06-23T08:39:31Z</time>
      </trkpt>
      <trkpt lat="42.99424" lon="1.30603">
        <ele>462.6</ele>
        <time>2024-06-23T08:39:32Z</time>
      </trkpt>
      <trkpt lat="42.99423" lon="1.3061">
        <ele>462.6</ele>
        <time>2024-06-23T08:39:33Z</time>
      </trkpt>
      <trkpt lat="42.99423" lon="1.30618">
        <ele>462.4</ele>
        <time>2024-06-23T08:39:34Z</time>
      </trkpt>
      <trkpt lat="42.9942" lon="1.30631">
        <ele>462.4</ele>
        <time>2024-06-23T08:39:35Z</time>
      </trkpt>
      <trkpt lat="42.99419" lon="1.30638">
        <ele>462</ele>
        <time>2024-06-23T08:39:36Z</time>
      </trkpt>
      <trkpt lat="42.99416" lon="1.30647">
        <ele>462</ele>
        <time>2024-06-23T08:39:37Z</time>
      </trkpt>
      <trkpt lat="42.99415" lon="1.30657">
        <ele>462</ele>
        <time>2024-06-23T08:39:38Z</time>
      </trkpt>
      <trkpt lat="42.99413" lon="1.30666">
        <ele>461.2</ele>
        <time>2024-06-23T08:39:39Z</time>
      </trkpt>
      <trkpt lat="42.9941" lon="1.30674">
        <ele>461.2</ele>
        <time>2024-06-23T08:39:40Z</time>
      </trkpt>
      <trkpt lat="42.99408" lon="1.30683">
        <ele>461.2</ele>
        <time>2024-06-23T08:39:41Z</time>
      </trkpt>
      <trkpt lat="42.99406" lon="1.30693">
        <ele>461.2</ele>
        <time>2024-06-23T08:39:42Z</time>
      </trkpt>
      <trkpt lat="42.99404" lon="1.30701">
        <ele>461.2</ele>
        <time>2024-06-23T08:39:43Z</time>
      </trkpt>
      <trkpt lat="42.99402" lon="1.30709">
        <ele>461.6</ele>
        <time>2024-06-23T08:39:44Z</time>
      </trkpt>
      <trkpt lat="42.99401" lon="1.30719">
        <ele>461.6</ele>
        <time>2024-06-23T08:39:45Z</time>
      </trkpt>
      <trkpt lat="42.994" lon="1.30728">
        <ele>461.6</ele>
        <time>2024-06-23T08:39:46Z</time>
      </trkpt>
      <trkpt lat="42.99398" lon="1.30737">
        <ele>461.2</ele>
        <time>2024-06-23T08:39:47Z</time>
      </trkpt>
      <trkpt lat="42.99397" lon="1.30746">
        <ele>461.2</ele>
        <time>2024-06-23T08:39:48Z</time>
      </trkpt>
      <trkpt lat="42.99397" lon="1.30746">
        <ele>461.2</ele>
        <time>2024-06-23T08:39:49Z</time>
      </trkpt>
      <trkpt lat="42.99397" lon="1.30746">
        <ele>461.2</ele>
        <time>2024-06-23T08:39:50Z</time>
      </trkpt>
      <trkpt lat="42.99397" lon="1.30746">
        <ele>460.8</ele>
        <time>2024-06-23T08:39:51Z</time>
      </trkpt>
      <trkpt lat="42.99397" lon="1.30746">
        <ele>460.8</ele>
        <time>2024-06-23T08:39:52Z</time>
      </trkpt>
      <trkpt lat="42.99397" lon="1.30746">
        <ele>460.8</ele>
        <time>2024-06-23T08:39:53Z</time>
      </trkpt>
      <trkpt lat="42.99397" lon="1.30746">
        <ele>460.8</ele>
        <time>2024-06-23T08:39:54Z</time>
      </trkpt>
      <trkpt lat="42.99397" lon="1.30746">
        <ele>460.4</ele>
        <time>2024-06-23T08:39:55Z</time>
      </trkpt>
      <trkpt lat="42.99397" lon="1.30746">
        <ele>460.4</ele>
        <time>2024-06-23T08:39:56Z</time>
      </trkpt>
      <trkpt lat="42.99397" lon="1.30746">
        <ele>460.8</ele>
        <time>2024-06-23T08:39:57Z</time>
      </trkpt>
      <trkpt lat="42.99397" lon="1.30746">
        <ele>460.4</ele>
        <time>2024-06-23T08:39:58Z</time>
      </trkpt>
      <trkpt lat="42.99397" lon="1.30746">
        <ele>460.4</ele>
        <time>2024-06-23T08:39:59Z</time>
      </trkpt>
      <trkpt lat="42.99397" lon="1.30746">
        <ele>460.4</ele>
        <time>2024-06-23T08:40:00Z</time>
      </trkpt>
      <trkpt lat="42.99397" lon="1.30746">
        <ele>460.4</ele>
        <time>2024-06-23T08:40:01Z</time>
      </trkpt>
      <trkpt lat="42.99397" lon="1.30746">
        <ele>460.4</ele>
        <time>2024-06-23T08:40:02Z</time>
      </trkpt>
      <trkpt lat="42.99397" lon="1.30746">
        <ele>460.4</ele>
        <time>2024-06-23T08:40:03Z</time>
      </trkpt>
      <trkpt lat="42.99397" lon="1.30746">
        <ele>460.2</ele>
        <time>2024-06-23T08:40:04Z</time>
      </trkpt>
      <trkpt lat="42.99397" lon="1.30746">
        <ele>460</ele>
        <time>2024-06-23T08:40:05Z</time>
      </trkpt>
      <trkpt lat="42.99397" lon="1.30746">
        <ele>460</ele>
        <time>2024-06-23T08:40:06Z</time>
      </trkpt>
      <trkpt lat="42.99397" lon="1.30746">
        <ele>460</ele>
        <time>2024-06-23T08:40:07Z</time>
      </trkpt>
      <trkpt lat="42.99397" lon="1.30746">
        <ele>459.6</ele>
        <time>2024-06-23T08:40:08Z</time>
      </trkpt>
      <trkpt lat="42.99397" lon="1.30746">
        <ele>459.6</ele>
        <time>2024-06-23T08:40:09Z</time>
      </trkpt>
      <trkpt lat="42.99397" lon="1.30746">
        <ele>459.6</ele>
        <time>2024-06-23T08:40:10Z</time>
      </trkpt>
      <trkpt lat="42.99397" lon="1.30746">
        <ele>459.6</ele>
        <time>2024-06-23T08:40:11Z</time>
      </trkpt>
      <trkpt lat="42.99397" lon="1.30746">
        <ele>459.4</ele>
        <time>2024-06-23T08:40:12Z</time>
      </trkpt>
      <trkpt lat="42.99397" lon="1.30746">
        <ele>459.4</ele>
        <time>2024-06-23T08:40:13Z</time>
      </trkpt>
      <trkpt lat="42.99397" lon="1.30746">
        <ele>459.4</ele>
        <time>2024-06-23T08:40:14Z</time>
      </trkpt>
      <trkpt lat="42.99397" lon="1.30746">
        <ele>459.2</ele>
        <time>2024-06-23T08:40:15Z</time>
      </trkpt>
      <trkpt lat="42.99397" lon="1.30746">
        <ele>458.8</ele>
        <time>2024-06-23T08:40:16Z</time>
      </trkpt>
      <trkpt lat="42.99397" lon="1.30746">
        <ele>458.8</ele>
        <time>2024-06-23T08:40:17Z</time>
      </trkpt>
      <trkpt lat="42.99397" lon="1.30746">
        <ele>458.8</ele>
        <time>2024-06-23T08:40:18Z</time>
      </trkpt>
      <trkpt lat="42.99397" lon="1.30746">
        <ele>458.4</ele>
        <time>2024-06-23T08:40:19Z</time>
      </trkpt>
      <trkpt lat="42.99397" lon="1.30746">
        <ele>458.4</ele>
        <time>2024-06-23T08:40:20Z</time>
      </trkpt>
      <trkpt lat="42.99397" lon="1.30746">
        <ele>458.4</ele>
        <time>2024-06-23T08:40:21Z</time>
      </trkpt>
      <trkpt lat="42.99397" lon="1.30746">
        <ele>458.4</ele>
        <time>2024-06-23T08:40:22Z</time>
      </trkpt>
      <trkpt lat="42.99397" lon="1.30746">
        <ele>458.4</ele>
        <time>2024-06-23T08:40:23Z</time>
      </trkpt>
      <trkpt lat="42.99397" lon="1.30746">
        <ele>458.2</ele>
        <time>2024-06-23T08:40:24Z</time>
      </trkpt>
      <trkpt lat="42.99343" lon="1.31061">
        <ele>458.2</ele>
        <time>2024-06-23T08:40:25Z</time>
      </trkpt>
      <trkpt lat="42.99339" lon="1.31067">
        <ele>457.8</ele>
        <time>2024-06-23T08:40:26Z</time>
      </trkpt>
      <trkpt lat="42.99338" lon="1.31078">
        <ele>457.8</ele>
        <time>2024-06-23T08:40:27Z</time>
      </trkpt>
      <trkpt lat="42.99337" lon="1.31086">
        <ele>457.2</ele>
        <time>2024-06-23T08:40:28Z</time>
      </trkpt>
      <trkpt lat="42.99336" lon="1.31095">
        <ele>457.2</ele>
        <time>2024-06-23T08:40:29Z</time>
      </trkpt>
      <trkpt lat="42.99334" lon="1.31103">
        <ele>457.2</ele>
        <time>2024-06-23T08:40:30Z</time>
      </trkpt>
      <trkpt lat="42.99333" lon="1.31111">
        <ele>457.2</ele>
        <time>2024-06-23T08:40:31Z</time>
      </trkpt>
      <trkpt lat="42.99332" lon="1.31119">
        <ele>457.2</ele>
        <time>2024-06-23T08:40:32Z</time>
      </trkpt>
      <trkpt lat="42.99331" lon="1.31129">
        <ele>457.2</ele>
        <time>2024-06-23T08:40:33Z</time>
      </trkpt>
      <trkpt lat="42.99331" lon="1.31137">
        <ele>457</ele>
        <time>2024-06-23T08:40:34Z</time>
      </trkpt>
      <trkpt lat="42.99329" lon="1.31147">
        <ele>456.8</ele>
        <time>2024-06-23T08:40:35Z</time>
      </trkpt>
      <trkpt lat="42.99328" lon="1.31156">
        <ele>456.8</ele>
        <time>2024-06-23T08:40:36Z</time>
      </trkpt>
      <trkpt lat="42.99327" lon="1.31165">
        <ele>456.4</ele>
        <time>2024-06-23T08:40:37Z</time>
      </trkpt>
      <trkpt lat="42.99327" lon="1.31174">
        <ele>456</ele>
        <time>2024-06-23T08:40:38Z</time>
      </trkpt>
      <trkpt lat="42.99327" lon="1.31183">
        <ele>456</ele>
        <time>2024-06-23T08:40:39Z</time>
      </trkpt>
      <trkpt lat="42.99326" lon="1.31193">
        <ele>456</ele>
        <time>2024-06-23T08:40:40Z</time>
      </trkpt>
      <trkpt lat="42.99326" lon="1.31202">
        <ele>455.6</ele>
        <time>2024-06-23T08:40:41Z</time>
      </trkpt>
      <trkpt lat="42.99326" lon="1.31211">
        <ele>455.6</ele>
        <time>2024-06-23T08:40:42Z</time>
      </trkpt>
      <trkpt lat="42.99327" lon="1.31221">
        <ele>456</ele>
        <time>2024-06-23T08:40:43Z</time>
      </trkpt>
      <trkpt lat="42.99326" lon="1.3123">
        <ele>455.6</ele>
        <time>2024-06-23T08:40:44Z</time>
      </trkpt>
      <trkpt lat="42.99326" lon="1.31239">
        <ele>455.6</ele>
        <time>2024-06-23T08:40:45Z</time>
      </trkpt>
      <trkpt lat="42.99326" lon="1.31249">
        <ele>455.2</ele>
        <time>2024-06-23T08:40:46Z</time>
      </trkpt>
      <trkpt lat="42.99326" lon="1.31258">
        <ele>455.2</ele>
        <time>2024-06-23T08:40:47Z</time>
      </trkpt>
      <trkpt lat="42.99326" lon="1.31267">
        <ele>455.2</ele>
        <time>2024-06-23T08:40:48Z</time>
      </trkpt>
      <trkpt lat="42.99326" lon="1.31276">
        <ele>454.8</ele>
        <time>2024-06-23T08:40:49Z</time>
      </trkpt>
      <trkpt lat="42.99327" lon="1.31285">
        <ele>454.4</ele>
        <time>2024-06-23T08:40:50Z</time>
      </trkpt>
      <trkpt lat="42.99328" lon="1.31294">
        <ele>454.4</ele>
        <time>2024-06-23T08:40:51Z</time>
      </trkpt>
      <trkpt lat="42.99329" lon="1.31303">
        <ele>454.4</ele>
        <time>2024-06-23T08:40:52Z</time>
      </trkpt>
      <trkpt lat="42.9933" lon="1.31312">
        <ele>454.4</ele>
        <time>2024-06-23T08:40:53Z</time>
      </trkpt>
      <trkpt lat="42.99332" lon="1.31322">
        <ele>454.4</ele>
        <time>2024-06-23T08:40:54Z</time>
      </trkpt>
      <trkpt lat="42.99333" lon="1.31331">
        <ele>454</ele>
        <time>2024-06-23T08:40:55Z</time>
      </trkpt>
      <trkpt lat="42.99335" lon="1.3134">
        <ele>454</ele>
        <time>2024-06-23T08:40:56Z</time>
      </trkpt>
      <trkpt lat="42.99336" lon="1.31349">
        <ele>453.6</ele>
        <time>2024-06-23T08:40:57Z</time>
      </trkpt>
      <trkpt lat="42.99338" lon="1.31358">
        <ele>453.6</ele>
        <time>2024-06-23T08:40:58Z</time>
      </trkpt>
      <trkpt lat="42.9934" lon="1.31367">
        <ele>453.6</ele>
        <time>2024-06-23T08:40:59Z</time>
      </trkpt>
      <trkpt lat="42.99342" lon="1.31377">
        <ele>453.4</ele>
        <time>2024-06-23T08:41:00Z</time>
      </trkpt>
      <trkpt lat="42.99343" lon="1.31386">
        <ele>453</ele>
        <time>2024-06-23T08:41:01Z</time>
      </trkpt>
      <trkpt lat="42.99345" lon="1.31395">
        <ele>453</ele>
        <time>2024-06-23T08:41:02Z</time>
      </trkpt>
      <trkpt lat="42.99347" lon="1.31405">
        <ele>453</ele>
        <time>2024-06-23T08:41:03Z</time>
      </trkpt>
      <trkpt lat="42.99349" lon="1.31414">
        <ele>452.8</ele>
        <time>2024-06-23T08:41:04Z</time>
      </trkpt>
      <trkpt lat="42.99351" lon="1.31423">
        <ele>452.4</ele>
        <time>2024-06-23T08:41:05Z</time>
      </trkpt>
      <trkpt lat="42.99353" lon="1.31432">
        <ele>452.4</ele>
        <time>2024-06-23T08:41:06Z</time>
      </trkpt>
      <trkpt lat="42.99353" lon="1.31441">
        <ele>452.4</ele>
        <time>2024-06-23T08:41:07Z</time>
      </trkpt>
      <trkpt lat="42.99356" lon="1.31449">
        <ele>452.2</ele>
        <time>2024-06-23T08:41:08Z</time>
      </trkpt>
      <trkpt lat="42.99359" lon="1.31458">
        <ele>452</ele>
        <time>2024-06-23T08:41:09Z</time>
      </trkpt>
      <trkpt lat="42.99362" lon="1.31466">
        <ele>452</ele>
        <time>2024-06-23T08:41:10Z</time>
      </trkpt>
      <trkpt lat="42.99365" lon="1.31475">
        <ele>452</ele>
        <time>2024-06-23T08:41:11Z</time>
      </trkpt>
      <trkpt lat="42.99368" lon="1.31484">
        <ele>452</ele>
        <time>2024-06-23T08:41:12Z</time>
      </trkpt>
      <trkpt lat="42.99371" lon="1.31493">
        <ele>451.6</ele>
        <time>2024-06-23T08:41:13Z</time>
      </trkpt>
      <trkpt lat="42.99375" lon="1.31501">
        <ele>451.6</ele>
        <time>2024-06-23T08:41:14Z</time>
      </trkpt>
      <trkpt lat="42.99376" lon="1.31508">
        <ele>451.4</ele>
        <time>2024-06-23T08:41:15Z</time>
      </trkpt>
      <trkpt lat="42.9938" lon="1.31517">
        <ele>451</ele>
        <time>2024-06-23T08:41:16Z</time>
      </trkpt>
      <trkpt lat="42.99381" lon="1.31523">
        <ele>451.2</ele>
        <time>2024-06-23T08:41:17Z</time>
      </trkpt>
      <trkpt lat="42.99385" lon="1.31532">
        <ele>451.2</ele>
        <time>2024-06-23T08:41:18Z</time>
      </trkpt>
      <trkpt lat="42.99389" lon="1.31539">
        <ele>450.8</ele>
        <time>2024-06-23T08:41:19Z</time>
      </trkpt>
      <trkpt lat="42.99392" lon="1.31548">
        <ele>450.8</ele>
        <time>2024-06-23T08:41:20Z</time>
      </trkpt>
      <trkpt lat="42.99395" lon="1.31556">
        <ele>450.4</ele>
        <time>2024-06-23T08:41:21Z</time>
      </trkpt>
      <trkpt lat="42.99403" lon="1.31566">
        <ele>450</ele>
        <time>2024-06-23T08:41:22Z</time>
      </trkpt>
      <trkpt lat="42.99406" lon="1.31574">
        <ele>450</ele>
        <time>2024-06-23T08:41:23Z</time>
      </trkpt>
      <trkpt lat="42.99412" lon="1.31584">
        <ele>450</ele>
        <time>2024-06-23T08:41:24Z</time>
      </trkpt>
      <trkpt lat="42.99415" lon="1.31592">
        <ele>449.8</ele>
        <time>2024-06-23T08:41:25Z</time>
      </trkpt>
      <trkpt lat="42.99419" lon="1.316">
        <ele>449.8</ele>
        <time>2024-06-23T08:41:26Z</time>
      </trkpt>
      <trkpt lat="42.99423" lon="1.31607">
        <ele>449.6</ele>
        <time>2024-06-23T08:41:27Z</time>
      </trkpt>
      <trkpt lat="42.99427" lon="1.31615">
        <ele>449.6</ele>
        <time>2024-06-23T08:41:28Z</time>
      </trkpt>
      <trkpt lat="42.9943" lon="1.31621">
        <ele>449.6</ele>
        <time>2024-06-23T08:41:29Z</time>
      </trkpt>
      <trkpt lat="42.99434" lon="1.31629">
        <ele>449.6</ele>
        <time>2024-06-23T08:41:30Z</time>
      </trkpt>
      <trkpt lat="42.99436" lon="1.31636">
        <ele>449.6</ele>
        <time>2024-06-23T08:41:31Z</time>
      </trkpt>
      <trkpt lat="42.99441" lon="1.31644">
        <ele>449.6</ele>
        <time>2024-06-23T08:41:32Z</time>
      </trkpt>
      <trkpt lat="42.99444" lon="1.31651">
        <ele>449.6</ele>
        <time>2024-06-23T08:41:33Z</time>
      </trkpt>
      <trkpt lat="42.99447" lon="1.31659">
        <ele>449.2</ele>
        <time>2024-06-23T08:41:34Z</time>
      </trkpt>
      <trkpt lat="42.9945" lon="1.31665">
        <ele>449.2</ele>
        <time>2024-06-23T08:41:35Z</time>
      </trkpt>
      <trkpt lat="42.99453" lon="1.31671">
        <ele>449.2</ele>
        <time>2024-06-23T08:41:36Z</time>
      </trkpt>
      <trkpt lat="42.99456" lon="1.31678">
        <ele>449.2</ele>
        <time>2024-06-23T08:41:37Z</time>
      </trkpt>
      <trkpt lat="42.9946" lon="1.31686">
        <ele>449.2</ele>
        <time>2024-06-23T08:41:38Z</time>
      </trkpt>
      <trkpt lat="42.99462" lon="1.31694">
        <ele>449.4</ele>
        <time>2024-06-23T08:41:39Z</time>
      </trkpt>
      <trkpt lat="42.99466" lon="1.31702">
        <ele>449</ele>
        <time>2024-06-23T08:41:40Z</time>
      </trkpt>
      <trkpt lat="42.99469" lon="1.3171">
        <ele>449</ele>
        <time>2024-06-23T08:41:41Z</time>
      </trkpt>
      <trkpt lat="42.99471" lon="1.31718">
        <ele>448.4</ele>
        <time>2024-06-23T08:41:42Z</time>
      </trkpt>
      <trkpt lat="42.99474" lon="1.31725">
        <ele>448.4</ele>
        <time>2024-06-23T08:41:43Z</time>
      </trkpt>
      <trkpt lat="42.99478" lon="1.31731">
        <ele>448.4</ele>
        <time>2024-06-23T08:41:44Z</time>
      </trkpt>
      <trkpt lat="42.99482" lon="1.31737">
        <ele>448.4</ele>
        <time>2024-06-23T08:41:45Z</time>
      </trkpt>
      <trkpt lat="42.99487" lon="1.31742">
        <ele>448.4</ele>
        <time>2024-06-23T08:41:46Z</time>
      </trkpt>
      <trkpt lat="42.99492" lon="1.31747">
        <ele>448.8</ele>
        <time>2024-06-23T08:41:47Z</time>
      </trkpt>
      <trkpt lat="42.99496" lon="1.31751">
        <ele>448.8</ele>
        <time>2024-06-23T08:41:48Z</time>
      </trkpt>
      <trkpt lat="42.99503" lon="1.31758">
        <ele>448.4</ele>
        <time>2024-06-23T08:41:49Z</time>
      </trkpt>
      <trkpt lat="42.99505" lon="1.31764">
        <ele>448.4</ele>
        <time>2024-06-23T08:41:50Z</time>
      </trkpt>
      <trkpt lat="42.99509" lon="1.31772">
        <ele>448.4</ele>
        <time>2024-06-23T08:41:51Z</time>
      </trkpt>
      <trkpt lat="42.99514" lon="1.31779">
        <ele>448</ele>
        <time>2024-06-23T08:41:52Z</time>
      </trkpt>
      <trkpt lat="42.99515" lon="1.31785">
        <ele>448.2</ele>
        <time>2024-06-23T08:41:53Z</time>
      </trkpt>
      <trkpt lat="42.99519" lon="1.31793">
        <ele>447.8</ele>
        <time>2024-06-23T08:41:54Z</time>
      </trkpt>
      <trkpt lat="42.99522" lon="1.31801">
        <ele>447.6</ele>
        <time>2024-06-23T08:41:55Z</time>
      </trkpt>
      <trkpt lat="42.99526" lon="1.31808">
        <ele>447.2</ele>
        <time>2024-06-23T08:41:56Z</time>
      </trkpt>
      <trkpt lat="42.99528" lon="1.31818">
        <ele>447.2</ele>
        <time>2024-06-23T08:41:57Z</time>
      </trkpt>
      <trkpt lat="42.99532" lon="1.31827">
        <ele>446.8</ele>
        <time>2024-06-23T08:41:58Z</time>
      </trkpt>
      <trkpt lat="42.99535" lon="1.31837">
        <ele>446.8</ele>
        <time>2024-06-23T08:41:59Z</time>
      </trkpt>
      <trkpt lat="42.99538" lon="1.31843">
        <ele>446.4</ele>
        <time>2024-06-23T08:42:00Z</time>
      </trkpt>
      <trkpt lat="42.99542" lon="1.31851">
        <ele>446.4</ele>
        <time>2024-06-23T08:42:01Z</time>
      </trkpt>
      <trkpt lat="42.99546" lon="1.31859">
        <ele>446.2</ele>
        <time>2024-06-23T08:42:02Z</time>
      </trkpt>
      <trkpt lat="42.99551" lon="1.31867">
        <ele>446</ele>
        <time>2024-06-23T08:42:03Z</time>
      </trkpt>
      <trkpt lat="42.99554" lon="1.31874">
        <ele>446</ele>
        <time>2024-06-23T08:42:04Z</time>
      </trkpt>
      <trkpt lat="42.99556" lon="1.31882">
        <ele>445.6</ele>
        <time>2024-06-23T08:42:05Z</time>
      </trkpt>
      <trkpt lat="42.99559" lon="1.3189">
        <ele>445.6</ele>
        <time>2024-06-23T08:42:06Z</time>
      </trkpt>
      <trkpt lat="42.99563" lon="1.31899">
        <ele>445.2</ele>
        <time>2024-06-23T08:42:07Z</time>
      </trkpt>
      <trkpt lat="42.99567" lon="1.31905">
        <ele>445.2</ele>
        <time>2024-06-23T08:42:08Z</time>
      </trkpt>
      <trkpt lat="42.99573" lon="1.31913">
        <ele>445.2</ele>
        <time>2024-06-23T08:42:09Z</time>
      </trkpt>
      <trkpt lat="42.99576" lon="1.31921">
        <ele>445.2</ele>
        <time>2024-06-23T08:42:10Z</time>
      </trkpt>
      <trkpt lat="42.9958" lon="1.3193">
        <ele>445</ele>
        <time>2024-06-23T08:42:11Z</time>
      </trkpt>
      <trkpt lat="42.99585" lon="1.31938">
        <ele>445</ele>
        <time>2024-06-23T08:42:12Z</time>
      </trkpt>
      <trkpt lat="42.99589" lon="1.31947">
        <ele>444.8</ele>
        <time>2024-06-23T08:42:13Z</time>
      </trkpt>
      <trkpt lat="42.99592" lon="1.31955">
        <ele>444.4</ele>
        <time>2024-06-23T08:42:14Z</time>
      </trkpt>
      <trkpt lat="42.99598" lon="1.31965">
        <ele>444.2</ele>
        <time>2024-06-23T08:42:15Z</time>
      </trkpt>
      <trkpt lat="42.99602" lon="1.31974">
        <ele>444</ele>
        <time>2024-06-23T08:42:16Z</time>
      </trkpt>
      <trkpt lat="42.99606" lon="1.31982">
        <ele>444</ele>
        <time>2024-06-23T08:42:17Z</time>
      </trkpt>
      <trkpt lat="42.9961" lon="1.31991">
        <ele>443.6</ele>
        <time>2024-06-23T08:42:18Z</time>
      </trkpt>
      <trkpt lat="42.99615" lon="1.31997">
        <ele>443.6</ele>
        <time>2024-06-23T08:42:19Z</time>
      </trkpt>
      <trkpt lat="42.99619" lon="1.32006">
        <ele>443.4</ele>
        <time>2024-06-23T08:42:20Z</time>
      </trkpt>
      <trkpt lat="42.99623" lon="1.32015">
        <ele>443.4</ele>
        <time>2024-06-23T08:42:21Z</time>
      </trkpt>
      <trkpt lat="42.99627" lon="1.32024">
        <ele>443.4</ele>
        <time>2024-06-23T08:42:22Z</time>
      </trkpt>
      <trkpt lat="42.9963" lon="1.32032">
        <ele>443.4</ele>
        <time>2024-06-23T08:42:23Z</time>
      </trkpt>
      <trkpt lat="42.99634" lon="1.3204">
        <ele>442.8</ele>
        <time>2024-06-23T08:42:24Z</time>
      </trkpt>
      <trkpt lat="42.99638" lon="1.32048">
        <ele>442.8</ele>
        <time>2024-06-23T08:42:25Z</time>
      </trkpt>
      <trkpt lat="42.99642" lon="1.32058">
        <ele>442.8</ele>
        <time>2024-06-23T08:42:26Z</time>
      </trkpt>
      <trkpt lat="42.99646" lon="1.32066">
        <ele>442.6</ele>
        <time>2024-06-23T08:42:27Z</time>
      </trkpt>
      <trkpt lat="42.9965" lon="1.32075">
        <ele>442.6</ele>
        <time>2024-06-23T08:42:28Z</time>
      </trkpt>
      <trkpt lat="42.99654" lon="1.32082">
        <ele>442.6</ele>
        <time>2024-06-23T08:42:29Z</time>
      </trkpt>
      <trkpt lat="42.99659" lon="1.3209">
        <ele>442.4</ele>
        <time>2024-06-23T08:42:30Z</time>
      </trkpt>
      <trkpt lat="42.99663" lon="1.32099">
        <ele>442.4</ele>
        <time>2024-06-23T08:42:31Z</time>
      </trkpt>
      <trkpt lat="42.99665" lon="1.32107">
        <ele>442.4</ele>
        <time>2024-06-23T08:42:32Z</time>
      </trkpt>
      <trkpt lat="42.99669" lon="1.32115">
        <ele>442</ele>
        <time>2024-06-23T08:42:33Z</time>
      </trkpt>
      <trkpt lat="42.99672" lon="1.32124">
        <ele>442</ele>
        <time>2024-06-23T08:42:34Z</time>
      </trkpt>
      <trkpt lat="42.99675" lon="1.32133">
        <ele>442</ele>
        <time>2024-06-23T08:42:35Z</time>
      </trkpt>
      <trkpt lat="42.99678" lon="1.32142">
        <ele>442</ele>
        <time>2024-06-23T08:42:36Z</time>
      </trkpt>
      <trkpt lat="42.99681" lon="1.32151">
        <ele>441.6</ele>
        <time>2024-06-23T08:42:37Z</time>
      </trkpt>
      <trkpt lat="42.99682" lon="1.32157">
        <ele>441.6</ele>
        <time>2024-06-23T08:42:38Z</time>
      </trkpt>
      <trkpt lat="42.99686" lon="1.32168">
        <ele>441.6</ele>
        <time>2024-06-23T08:42:39Z</time>
      </trkpt>
      <trkpt lat="42.99688" lon="1.32176">
        <ele>441.6</ele>
        <time>2024-06-23T08:42:40Z</time>
      </trkpt>
      <trkpt lat="42.9969" lon="1.32184">
        <ele>441.6</ele>
        <time>2024-06-23T08:42:41Z</time>
      </trkpt>
      <trkpt lat="42.9969" lon="1.3219">
        <ele>441.4</ele>
        <time>2024-06-23T08:42:42Z</time>
      </trkpt>
      <trkpt lat="42.99692" lon="1.32197">
        <ele>441.2</ele>
        <time>2024-06-23T08:42:43Z</time>
      </trkpt>
      <trkpt lat="42.99695" lon="1.32207">
        <ele>441</ele>
        <time>2024-06-23T08:42:44Z</time>
      </trkpt>
      <trkpt lat="42.99698" lon="1.32214">
        <ele>440.8</ele>
        <time>2024-06-23T08:42:45Z</time>
      </trkpt>
      <trkpt lat="42.99701" lon="1.32222">
        <ele>440.8</ele>
        <time>2024-06-23T08:42:46Z</time>
      </trkpt>
      <trkpt lat="42.99704" lon="1.32231">
        <ele>441</ele>
        <time>2024-06-23T08:42:47Z</time>
      </trkpt>
      <trkpt lat="42.99705" lon="1.32238">
        <ele>441</ele>
        <time>2024-06-23T08:42:48Z</time>
      </trkpt>
      <trkpt lat="42.99708" lon="1.3225">
        <ele>440.2</ele>
        <time>2024-06-23T08:42:49Z</time>
      </trkpt>
      <trkpt lat="42.9971" lon="1.3226">
        <ele>440.2</ele>
        <time>2024-06-23T08:42:50Z</time>
      </trkpt>
      <trkpt lat="42.99712" lon="1.32271">
        <ele>440</ele>
        <time>2024-06-23T08:42:51Z</time>
      </trkpt>
      <trkpt lat="42.99714" lon="1.3228">
        <ele>440</ele>
        <time>2024-06-23T08:42:52Z</time>
      </trkpt>
      <trkpt lat="42.99717" lon="1.32291">
        <ele>440</ele>
        <time>2024-06-23T08:42:53Z</time>
      </trkpt>
      <trkpt lat="42.99719" lon="1.323">
        <ele>439.4</ele>
        <time>2024-06-23T08:42:54Z</time>
      </trkpt>
      <trkpt lat="42.99721" lon="1.32309">
        <ele>439.2</ele>
        <time>2024-06-23T08:42:55Z</time>
      </trkpt>
      <trkpt lat="42.99723" lon="1.32318">
        <ele>439.2</ele>
        <time>2024-06-23T08:42:56Z</time>
      </trkpt>
      <trkpt lat="42.99726" lon="1.32326">
        <ele>439.2</ele>
        <time>2024-06-23T08:42:57Z</time>
      </trkpt>
      <trkpt lat="42.99728" lon="1.32337">
        <ele>438.8</ele>
        <time>2024-06-23T08:42:58Z</time>
      </trkpt>
      <trkpt lat="42.9973" lon="1.32346">
        <ele>438.6</ele>
        <time>2024-06-23T08:42:59Z</time>
      </trkpt>
      <trkpt lat="42.99733" lon="1.32355">
        <ele>438.6</ele>
        <time>2024-06-23T08:43:00Z</time>
      </trkpt>
      <trkpt lat="42.99734" lon="1.32364">
        <ele>438.6</ele>
        <time>2024-06-23T08:43:01Z</time>
      </trkpt>
      <trkpt lat="42.99736" lon="1.32373">
        <ele>438</ele>
        <time>2024-06-23T08:43:02Z</time>
      </trkpt>
      <trkpt lat="42.99737" lon="1.32382">
        <ele>437.8</ele>
        <time>2024-06-23T08:43:03Z</time>
      </trkpt>
      <trkpt lat="42.99739" lon="1.32392">
        <ele>437.8</ele>
        <time>2024-06-23T08:43:04Z</time>
      </trkpt>
      <trkpt lat="42.99741" lon="1.32401">
        <ele>437.8</ele>
        <time>2024-06-23T08:43:05Z</time>
      </trkpt>
      <trkpt lat="42.99743" lon="1.32409">
        <ele>437.8</ele>
        <time>2024-06-23T08:43:06Z</time>
      </trkpt>
      <trkpt lat="42.99746" lon="1.32417">
        <ele>437.8</ele>
        <time>2024-06-23T08:43:07Z</time>
      </trkpt>
      <trkpt lat="42.99748" lon="1.32428">
        <ele>437.8</ele>
        <time>2024-06-23T08:43:08Z</time>
      </trkpt>
      <trkpt lat="42.9975" lon="1.32436">
        <ele>437.4</ele>
        <time>2024-06-23T08:43:09Z</time>
      </trkpt>
      <trkpt lat="42.99752" lon="1.32445">
        <ele>437.4</ele>
        <time>2024-06-23T08:43:10Z</time>
      </trkpt>
      <trkpt lat="42.99754" lon="1.32453">
        <ele>437.2</ele>
        <time>2024-06-23T08:43:11Z</time>
      </trkpt>
      <trkpt lat="42.99755" lon="1.32462">
        <ele>437.2</ele>
        <time>2024-06-23T08:43:12Z</time>
      </trkpt>
      <trkpt lat="42.99756" lon="1.3247">
        <ele>436.8</ele>
        <time>2024-06-23T08:43:13Z</time>
      </trkpt>
      <trkpt lat="42.99757" lon="1.3248">
        <ele>436.8</ele>
        <time>2024-06-23T08:43:14Z</time>
      </trkpt>
      <trkpt lat="42.9976" lon="1.3249">
        <ele>436.8</ele>
        <time>2024-06-23T08:43:15Z</time>
      </trkpt>
      <trkpt lat="42.99763" lon="1.32498">
        <ele>436.4</ele>
        <time>2024-06-23T08:43:16Z</time>
      </trkpt>
      <trkpt lat="42.99764" lon="1.32508">
        <ele>436.4</ele>
        <time>2024-06-23T08:43:17Z</time>
      </trkpt>
      <trkpt lat="42.99766" lon="1.32517">
        <ele>436.4</ele>
        <time>2024-06-23T08:43:18Z</time>
      </trkpt>
      <trkpt lat="42.99768" lon="1.32526">
        <ele>436.4</ele>
        <time>2024-06-23T08:43:19Z</time>
      </trkpt>
      <trkpt lat="42.99771" lon="1.32536">
        <ele>436.4</ele>
        <time>2024-06-23T08:43:20Z</time>
      </trkpt>
      <trkpt lat="42.99774" lon="1.32546">
        <ele>436.4</ele>
        <time>2024-06-23T08:43:21Z</time>
      </trkpt>
      <trkpt lat="42.99777" lon="1.32555">
        <ele>436.2</ele>
        <time>2024-06-23T08:43:22Z</time>
      </trkpt>
      <trkpt lat="42.99778" lon="1.32564">
        <ele>436</ele>
        <time>2024-06-23T08:43:23Z</time>
      </trkpt>
      <trkpt lat="42.99781" lon="1.32573">
        <ele>436</ele>
        <time>2024-06-23T08:43:24Z</time>
      </trkpt>
      <trkpt lat="42.99783" lon="1.32582">
        <ele>435.4</ele>
        <time>2024-06-23T08:43:25Z</time>
      </trkpt>
      <trkpt lat="42.99786" lon="1.32589">
        <ele>435.4</ele>
        <time>2024-06-23T08:43:26Z</time>
      </trkpt>
      <trkpt lat="42.99788" lon="1.32598">
        <ele>435.4</ele>
        <time>2024-06-23T08:43:27Z</time>
      </trkpt>
      <trkpt lat="42.9979" lon="1.32607">
        <ele>435.2</ele>
        <time>2024-06-23T08:43:28Z</time>
      </trkpt>
      <trkpt lat="42.99792" lon="1.32616">
        <ele>435.2</ele>
        <time>2024-06-23T08:43:29Z</time>
      </trkpt>
      <trkpt lat="42.99795" lon="1.32625">
        <ele>435.2</ele>
        <time>2024-06-23T08:43:30Z</time>
      </trkpt>
      <trkpt lat="42.99797" lon="1.32633">
        <ele>435.2</ele>
        <time>2024-06-23T08:43:31Z</time>
      </trkpt>
      <trkpt lat="42.99802" lon="1.32644">
        <ele>434.8</ele>
        <time>2024-06-23T08:43:32Z</time>
      </trkpt>
      <trkpt lat="42.99805" lon="1.32652">
        <ele>434.8</ele>
        <time>2024-06-23T08:43:33Z</time>
      </trkpt>
      <trkpt lat="42.99808" lon="1.32661">
        <ele>434.6</ele>
        <time>2024-06-23T08:43:34Z</time>
      </trkpt>
      <trkpt lat="42.99811" lon="1.32671">
        <ele>434.6</ele>
        <time>2024-06-23T08:43:35Z</time>
      </trkpt>
      <trkpt lat="42.99815" lon="1.3268">
        <ele>434.2</ele>
        <time>2024-06-23T08:43:36Z</time>
      </trkpt>
      <trkpt lat="42.99818" lon="1.32688">
        <ele>434.2</ele>
        <time>2024-06-23T08:43:37Z</time>
      </trkpt>
      <trkpt lat="42.99821" lon="1.32698">
        <ele>434.2</ele>
        <time>2024-06-23T08:43:38Z</time>
      </trkpt>
      <trkpt lat="42.99824" lon="1.32706">
        <ele>434.2</ele>
        <time>2024-06-23T08:43:39Z</time>
      </trkpt>
      <trkpt lat="42.99827" lon="1.32714">
        <ele>434</ele>
        <time>2024-06-23T08:43:40Z</time>
      </trkpt>
      <trkpt lat="42.9983" lon="1.32722">
        <ele>433.6</ele>
        <time>2024-06-23T08:43:41Z</time>
      </trkpt>
      <trkpt lat="42.99833" lon="1.32731">
        <ele>433.6</ele>
        <time>2024-06-23T08:43:42Z</time>
      </trkpt>
      <trkpt lat="42.99836" lon="1.32739">
        <ele>433.6</ele>
        <time>2024-06-23T08:43:43Z</time>
      </trkpt>
      <trkpt lat="42.99839" lon="1.32749">
        <ele>433.6</ele>
        <time>2024-06-23T08:43:44Z</time>
      </trkpt>
      <trkpt lat="42.99841" lon="1.32757">
        <ele>433.6</ele>
        <time>2024-06-23T08:43:45Z</time>
      </trkpt>
      <trkpt lat="42.99847" lon="1.32765">
        <ele>433.6</ele>
        <time>2024-06-23T08:43:46Z</time>
      </trkpt>
      <trkpt lat="42.99852" lon="1.32774">
        <ele>433</ele>
        <time>2024-06-23T08:43:47Z</time>
      </trkpt>
      <trkpt lat="42.99857" lon="1.32782">
        <ele>432.6</ele>
        <time>2024-06-23T08:43:48Z</time>
      </trkpt>
      <trkpt lat="42.99861" lon="1.32792">
        <ele>432.6</ele>
        <time>2024-06-23T08:43:49Z</time>
      </trkpt>
      <trkpt lat="42.99865" lon="1.32801">
        <ele>432.6</ele>
        <time>2024-06-23T08:43:50Z</time>
      </trkpt>
      <trkpt lat="42.99869" lon="1.32808">
        <ele>432.4</ele>
        <time>2024-06-23T08:43:51Z</time>
      </trkpt>
      <trkpt lat="42.99873" lon="1.32818">
        <ele>432.2</ele>
        <time>2024-06-23T08:43:52Z</time>
      </trkpt>
      <trkpt lat="42.99875" lon="1.32825">
        <ele>432.2</ele>
        <time>2024-06-23T08:43:53Z</time>
      </trkpt>
      <trkpt lat="42.99879" lon="1.32833">
        <ele>432.2</ele>
        <time>2024-06-23T08:43:54Z</time>
      </trkpt>
      <trkpt lat="42.99882" lon="1.3284">
        <ele>432</ele>
        <time>2024-06-23T08:43:55Z</time>
      </trkpt>
      <trkpt lat="42.99883" lon="1.32846">
        <ele>432</ele>
        <time>2024-06-23T08:43:56Z</time>
      </trkpt>
      <trkpt lat="42.99887" lon="1.32857">
        <ele>432</ele>
        <time>2024-06-23T08:43:57Z</time>
      </trkpt>
      <trkpt lat="42.99891" lon="1.32865">
        <ele>431.6</ele>
        <time>2024-06-23T08:43:58Z</time>
      </trkpt>
      <trkpt lat="42.99895" lon="1.32874">
        <ele>431.6</ele>
        <time>2024-06-23T08:43:59Z</time>
      </trkpt>
      <trkpt lat="42.99899" lon="1.32881">
        <ele>431.6</ele>
        <time>2024-06-23T08:44:00Z</time>
      </trkpt>
      <trkpt lat="42.99905" lon="1.32888">
        <ele>431.4</ele>
        <time>2024-06-23T08:44:01Z</time>
      </trkpt>
      <trkpt lat="42.99905" lon="1.32888">
        <ele>431.4</ele>
        <time>2024-06-23T08:44:02Z</time>
      </trkpt>
      <trkpt lat="42.9991" lon="1.32897">
        <ele>431</ele>
        <time>2024-06-23T08:44:03Z</time>
      </trkpt>
      <trkpt lat="42.99914" lon="1.32905">
        <ele>431.4</ele>
        <time>2024-06-23T08:44:04Z</time>
      </trkpt>
      <trkpt lat="42.99918" lon="1.32913">
        <ele>431</ele>
        <time>2024-06-23T08:44:05Z</time>
      </trkpt>
      <trkpt lat="42.99923" lon="1.32921">
        <ele>430.6</ele>
        <time>2024-06-23T08:44:06Z</time>
      </trkpt>
      <trkpt lat="42.99928" lon="1.32929">
        <ele>430.4</ele>
        <time>2024-06-23T08:44:07Z</time>
      </trkpt>
      <trkpt lat="42.99932" lon="1.32936">
        <ele>429.8</ele>
        <time>2024-06-23T08:44:08Z</time>
      </trkpt>
      <trkpt lat="42.99937" lon="1.32944">
        <ele>429.6</ele>
        <time>2024-06-23T08:44:09Z</time>
      </trkpt>
      <trkpt lat="42.99941" lon="1.32952">
        <ele>429.6</ele>
        <time>2024-06-23T08:44:10Z</time>
      </trkpt>
      <trkpt lat="42.99947" lon="1.32959">
        <ele>429.6</ele>
        <time>2024-06-23T08:44:11Z</time>
      </trkpt>
      <trkpt lat="42.99952" lon="1.32965">
        <ele>429.8</ele>
        <time>2024-06-23T08:44:12Z</time>
      </trkpt>
      <trkpt lat="42.99957" lon="1.32973">
        <ele>429.8</ele>
        <time>2024-06-23T08:44:13Z</time>
      </trkpt>
      <trkpt lat="42.99961" lon="1.32979">
        <ele>429.4</ele>
        <time>2024-06-23T08:44:14Z</time>
      </trkpt>
      <trkpt lat="42.99965" lon="1.32986">
        <ele>429.4</ele>
        <time>2024-06-23T08:44:15Z</time>
      </trkpt>
      <trkpt lat="42.99971" lon="1.32994">
        <ele>429.2</ele>
        <time>2024-06-23T08:44:16Z</time>
      </trkpt>
      <trkpt lat="42.99974" lon="1.33002">
        <ele>429</ele>
        <time>2024-06-23T08:44:17Z</time>
      </trkpt>
      <trkpt lat="42.9998" lon="1.33007">
        <ele>429</ele>
        <time>2024-06-23T08:44:18Z</time>
      </trkpt>
      <trkpt lat="42.99985" lon="1.33014">
        <ele>429</ele>
        <time>2024-06-23T08:44:19Z</time>
      </trkpt>
      <trkpt lat="42.9999" lon="1.3302">
        <ele>428.6</ele>
        <time>2024-06-23T08:44:20Z</time>
      </trkpt>
      <trkpt lat="42.99995" lon="1.33028">
        <ele>428.4</ele>
        <time>2024-06-23T08:44:21Z</time>
      </trkpt>
      <trkpt lat="43.00001" lon="1.33033">
        <ele>428.4</ele>
        <time>2024-06-23T08:44:22Z</time>
      </trkpt>
      <trkpt lat="43.00002" lon="1.33036">
        <ele>428.4</ele>
        <time>2024-06-23T08:44:23Z</time>
      </trkpt>
      <trkpt lat="43.00004" lon="1.33042">
        <ele>428.4</ele>
        <time>2024-06-23T08:44:24Z</time>
      </trkpt>
      <trkpt lat="43.00006" lon="1.33046">
        <ele>428</ele>
        <time>2024-06-23T08:44:25Z</time>
      </trkpt>
      <trkpt lat="43.00009" lon="1.33048">
        <ele>427.8</ele>
        <time>2024-06-23T08:44:26Z</time>
      </trkpt>
      <trkpt lat="43.00011" lon="1.33054">
        <ele>427.8</ele>
        <time>2024-06-23T08:44:27Z</time>
      </trkpt>
      <trkpt lat="43.00015" lon="1.33059">
        <ele>427.8</ele>
        <time>2024-06-23T08:44:28Z</time>
      </trkpt>
      <trkpt lat="43.00019" lon="1.33065">
        <ele>427.8</ele>
        <time>2024-06-23T08:44:29Z</time>
      </trkpt>
      <trkpt lat="43.00022" lon="1.33072">
        <ele>427.8</ele>
        <time>2024-06-23T08:44:30Z</time>
      </trkpt>
      <trkpt lat="43.00026" lon="1.33077">
        <ele>427.4</ele>
        <time>2024-06-23T08:44:31Z</time>
      </trkpt>
      <trkpt lat="43.00032" lon="1.33083">
        <ele>427.2</ele>
        <time>2024-06-23T08:44:32Z</time>
      </trkpt>
      <trkpt lat="43.00037" lon="1.3309">
        <ele>427</ele>
        <time>2024-06-23T08:44:33Z</time>
      </trkpt>
      <trkpt lat="43.00042" lon="1.33097">
        <ele>427</ele>
        <time>2024-06-23T08:44:34Z</time>
      </trkpt>
      <trkpt lat="43.00046" lon="1.33103">
        <ele>427</ele>
        <time>2024-06-23T08:44:35Z</time>
      </trkpt>
      <trkpt lat="43.00051" lon="1.3311">
        <ele>426.6</ele>
        <time>2024-06-23T08:44:36Z</time>
      </trkpt>
      <trkpt lat="43.00056" lon="1.33116">
        <ele>426.6</ele>
        <time>2024-06-23T08:44:37Z</time>
      </trkpt>
      <trkpt lat="43.0006" lon="1.33123">
        <ele>427</ele>
        <time>2024-06-23T08:44:38Z</time>
      </trkpt>
      <trkpt lat="43.00065" lon="1.33129">
        <ele>426.4</ele>
        <time>2024-06-23T08:44:39Z</time>
      </trkpt>
      <trkpt lat="43.0007" lon="1.33136">
        <ele>426.4</ele>
        <time>2024-06-23T08:44:40Z</time>
      </trkpt>
      <trkpt lat="43.00075" lon="1.33143">
        <ele>426.6</ele>
        <time>2024-06-23T08:44:41Z</time>
      </trkpt>
      <trkpt lat="43.00079" lon="1.33149">
        <ele>426.6</ele>
        <time>2024-06-23T08:44:42Z</time>
      </trkpt>
      <trkpt lat="43.00085" lon="1.33156">
        <ele>426.6</ele>
        <time>2024-06-23T08:44:43Z</time>
      </trkpt>
      <trkpt lat="43.00089" lon="1.33163">
        <ele>426.6</ele>
        <time>2024-06-23T08:44:44Z</time>
      </trkpt>
      <trkpt lat="43.00094" lon="1.33171">
        <ele>426.4</ele>
        <time>2024-06-23T08:44:45Z</time>
      </trkpt>
      <trkpt lat="43.00098" lon="1.33179">
        <ele>426</ele>
        <time>2024-06-23T08:44:46Z</time>
      </trkpt>
      <trkpt lat="43.00102" lon="1.33186">
        <ele>426</ele>
        <time>2024-06-23T08:44:47Z</time>
      </trkpt>
      <trkpt lat="43.00107" lon="1.33193">
        <ele>425.6</ele>
        <time>2024-06-23T08:44:48Z</time>
      </trkpt>
      <trkpt lat="43.00111" lon="1.332">
        <ele>425.6</ele>
        <time>2024-06-23T08:44:49Z</time>
      </trkpt>
      <trkpt lat="43.00116" lon="1.33208">
        <ele>425.6</ele>
        <time>2024-06-23T08:44:50Z</time>
      </trkpt>
      <trkpt lat="43.00121" lon="1.33215">
        <ele>425.6</ele>
        <time>2024-06-23T08:44:51Z</time>
      </trkpt>
      <trkpt lat="43.00125" lon="1.33223">
        <ele>425.2</ele>
        <time>2024-06-23T08:44:52Z</time>
      </trkpt>
      <trkpt lat="43.00129" lon="1.33231">
        <ele>425.2</ele>
        <time>2024-06-23T08:44:53Z</time>
      </trkpt>
      <trkpt lat="43.00133" lon="1.33239">
        <ele>425.2</ele>
        <time>2024-06-23T08:44:54Z</time>
      </trkpt>
      <trkpt lat="43.00137" lon="1.33246">
        <ele>425</ele>
        <time>2024-06-23T08:44:55Z</time>
      </trkpt>
      <trkpt lat="43.00141" lon="1.33255">
        <ele>424.6</ele>
        <time>2024-06-23T08:44:56Z</time>
      </trkpt>
      <trkpt lat="43.00145" lon="1.33263">
        <ele>424.4</ele>
        <time>2024-06-23T08:44:57Z</time>
      </trkpt>
      <trkpt lat="43.00149" lon="1.33272">
        <ele>424.4</ele>
        <time>2024-06-23T08:44:58Z</time>
      </trkpt>
      <trkpt lat="43.00152" lon="1.3328">
        <ele>423.8</ele>
        <time>2024-06-23T08:44:59Z</time>
      </trkpt>
      <trkpt lat="43.00157" lon="1.33288">
        <ele>423.8</ele>
        <time>2024-06-23T08:45:00Z</time>
      </trkpt>
      <trkpt lat="43.0016" lon="1.33297">
        <ele>423.8</ele>
        <time>2024-06-23T08:45:01Z</time>
      </trkpt>
      <trkpt lat="43.00164" lon="1.33306">
        <ele>423.4</ele>
        <time>2024-06-23T08:45:02Z</time>
      </trkpt>
      <trkpt lat="43.00167" lon="1.33315">
        <ele>423.2</ele>
        <time>2024-06-23T08:45:03Z</time>
      </trkpt>
      <trkpt lat="43.00171" lon="1.33323">
        <ele>423.4</ele>
        <time>2024-06-23T08:45:04Z</time>
      </trkpt>
      <trkpt lat="43.00175" lon="1.33332">
        <ele>423.2</ele>
        <time>2024-06-23T08:45:05Z</time>
      </trkpt>
      <trkpt lat="43.00178" lon="1.33341">
        <ele>423.2</ele>
        <time>2024-06-23T08:45:06Z</time>
      </trkpt>
      <trkpt lat="43.00182" lon="1.3335">
        <ele>423.2</ele>
        <time>2024-06-23T08:45:07Z</time>
      </trkpt>
      <trkpt lat="43.00186" lon="1.33359">
        <ele>423</ele>
        <time>2024-06-23T08:45:08Z</time>
      </trkpt>
      <trkpt lat="43.00189" lon="1.33368">
        <ele>423</ele>
        <time>2024-06-23T08:45:09Z</time>
      </trkpt>
      <trkpt lat="43.00194" lon="1.33377">
        <ele>422.8</ele>
        <time>2024-06-23T08:45:10Z</time>
      </trkpt>
      <trkpt lat="43.00197" lon="1.33385">
        <ele>422.8</ele>
        <time>2024-06-23T08:45:11Z</time>
      </trkpt>
      <trkpt lat="43.00201" lon="1.33395">
        <ele>422.8</ele>
        <time>2024-06-23T08:45:12Z</time>
      </trkpt>
      <trkpt lat="43.00205" lon="1.33404">
        <ele>422.6</ele>
        <time>2024-06-23T08:45:13Z</time>
      </trkpt>
      <trkpt lat="43.00207" lon="1.33412">
        <ele>422.6</ele>
        <time>2024-06-23T08:45:14Z</time>
      </trkpt>
      <trkpt lat="43.0021" lon="1.33421">
        <ele>423</ele>
        <time>2024-06-23T08:45:15Z</time>
      </trkpt>
      <trkpt lat="43.00213" lon="1.3343">
        <ele>423</ele>
        <time>2024-06-23T08:45:16Z</time>
      </trkpt>
      <trkpt lat="43.00216" lon="1.3344">
        <ele>422.4</ele>
        <time>2024-06-23T08:45:17Z</time>
      </trkpt>
      <trkpt lat="43.00221" lon="1.33449">
        <ele>422.4</ele>
        <time>2024-06-23T08:45:18Z</time>
      </trkpt>
      <trkpt lat="43.00223" lon="1.33458">
        <ele>422</ele>
        <time>2024-06-23T08:45:19Z</time>
      </trkpt>
      <trkpt lat="43.00226" lon="1.33467">
        <ele>422</ele>
        <time>2024-06-23T08:45:20Z</time>
      </trkpt>
      <trkpt lat="43.00229" lon="1.33477">
        <ele>422</ele>
        <time>2024-06-23T08:45:21Z</time>
      </trkpt>
      <trkpt lat="43.00232" lon="1.33485">
        <ele>421.4</ele>
        <time>2024-06-23T08:45:22Z</time>
      </trkpt>
      <trkpt lat="43.00235" lon="1.33494">
        <ele>421.4</ele>
        <time>2024-06-23T08:45:23Z</time>
      </trkpt>
      <trkpt lat="43.00238" lon="1.33505">
        <ele>421.2</ele>
        <time>2024-06-23T08:45:24Z</time>
      </trkpt>
      <trkpt lat="43.00241" lon="1.33514">
        <ele>421.2</ele>
        <time>2024-06-23T08:45:25Z</time>
      </trkpt>
      <trkpt lat="43.00243" lon="1.33523">
        <ele>420.8</ele>
        <time>2024-06-23T08:45:26Z</time>
      </trkpt>
      <trkpt lat="43.00246" lon="1.33532">
        <ele>420.8</ele>
        <time>2024-06-23T08:45:27Z</time>
      </trkpt>
      <trkpt lat="43.00248" lon="1.33541">
        <ele>420.6</ele>
        <time>2024-06-23T08:45:28Z</time>
      </trkpt>
      <trkpt lat="43.0025" lon="1.3355">
        <ele>420.4</ele>
        <time>2024-06-23T08:45:29Z</time>
      </trkpt>
      <trkpt lat="43.00251" lon="1.33559">
        <ele>420.2</ele>
        <time>2024-06-23T08:45:30Z</time>
      </trkpt>
      <trkpt lat="43.00253" lon="1.33567">
        <ele>420.2</ele>
        <time>2024-06-23T08:45:31Z</time>
      </trkpt>
      <trkpt lat="43.00255" lon="1.33575">
        <ele>420.2</ele>
        <time>2024-06-23T08:45:32Z</time>
      </trkpt>
      <trkpt lat="43.00256" lon="1.33584">
        <ele>420.2</ele>
        <time>2024-06-23T08:45:33Z</time>
      </trkpt>
      <trkpt lat="43.00257" lon="1.33592">
        <ele>419.8</ele>
        <time>2024-06-23T08:45:34Z</time>
      </trkpt>
      <trkpt lat="43.00258" lon="1.336">
        <ele>419.8</ele>
        <time>2024-06-23T08:45:35Z</time>
      </trkpt>
      <trkpt lat="43.00259" lon="1.33608">
        <ele>419.8</ele>
        <time>2024-06-23T08:45:36Z</time>
      </trkpt>
      <trkpt lat="43.00261" lon="1.33616">
        <ele>419.8</ele>
        <time>2024-06-23T08:45:37Z</time>
      </trkpt>
      <trkpt lat="43.00261" lon="1.33625">
        <ele>419.8</ele>
        <time>2024-06-23T08:45:38Z</time>
      </trkpt>
      <trkpt lat="43.00264" lon="1.33641">
        <ele>419.4</ele>
        <time>2024-06-23T08:45:39Z</time>
      </trkpt>
      <trkpt lat="43.00266" lon="1.3365">
        <ele>419.4</ele>
        <time>2024-06-23T08:45:40Z</time>
      </trkpt>
      <trkpt lat="43.00268" lon="1.33658">
        <ele>419.4</ele>
        <time>2024-06-23T08:45:41Z</time>
      </trkpt>
      <trkpt lat="43.00269" lon="1.33667">
        <ele>419.2</ele>
        <time>2024-06-23T08:45:42Z</time>
      </trkpt>
      <trkpt lat="43.00271" lon="1.33675">
        <ele>419.2</ele>
        <time>2024-06-23T08:45:43Z</time>
      </trkpt>
      <trkpt lat="43.00273" lon="1.33684">
        <ele>419.2</ele>
        <time>2024-06-23T08:45:44Z</time>
      </trkpt>
      <trkpt lat="43.00274" lon="1.33693">
        <ele>418.8</ele>
        <time>2024-06-23T08:45:45Z</time>
      </trkpt>
      <trkpt lat="43.00276" lon="1.33702">
        <ele>418.8</ele>
        <time>2024-06-23T08:45:46Z</time>
      </trkpt>
      <trkpt lat="43.00277" lon="1.33711">
        <ele>418.8</ele>
        <time>2024-06-23T08:45:47Z</time>
      </trkpt>
      <trkpt lat="43.00278" lon="1.33721">
        <ele>418.8</ele>
        <time>2024-06-23T08:45:48Z</time>
      </trkpt>
      <trkpt lat="43.0028" lon="1.3373">
        <ele>418.4</ele>
        <time>2024-06-23T08:45:49Z</time>
      </trkpt>
      <trkpt lat="43.00281" lon="1.33739">
        <ele>418.4</ele>
        <time>2024-06-23T08:45:50Z</time>
      </trkpt>
      <trkpt lat="43.00282" lon="1.33748">
        <ele>418.4</ele>
        <time>2024-06-23T08:45:51Z</time>
      </trkpt>
      <trkpt lat="43.00283" lon="1.33755">
        <ele>418.2</ele>
        <time>2024-06-23T08:45:52Z</time>
      </trkpt>
      <trkpt lat="43.00285" lon="1.33765">
        <ele>418.2</ele>
        <time>2024-06-23T08:45:53Z</time>
      </trkpt>
      <trkpt lat="43.00286" lon="1.33774">
        <ele>417.8</ele>
        <time>2024-06-23T08:45:54Z</time>
      </trkpt>
      <trkpt lat="43.00287" lon="1.33783">
        <ele>417.8</ele>
        <time>2024-06-23T08:45:55Z</time>
      </trkpt>
      <trkpt lat="43.00288" lon="1.33793">
        <ele>417.8</ele>
        <time>2024-06-23T08:45:56Z</time>
      </trkpt>
      <trkpt lat="43.00289" lon="1.33802">
        <ele>417.8</ele>
        <time>2024-06-23T08:45:57Z</time>
      </trkpt>
      <trkpt lat="43.00291" lon="1.33812">
        <ele>417.2</ele>
        <time>2024-06-23T08:45:58Z</time>
      </trkpt>
      <trkpt lat="43.00292" lon="1.33822">
        <ele>417.2</ele>
        <time>2024-06-23T08:45:59Z</time>
      </trkpt>
      <trkpt lat="43.00294" lon="1.33832">
        <ele>417</ele>
        <time>2024-06-23T08:46:00Z</time>
      </trkpt>
      <trkpt lat="43.00296" lon="1.33842">
        <ele>417</ele>
        <time>2024-06-23T08:46:01Z</time>
      </trkpt>
      <trkpt lat="43.00298" lon="1.33852">
        <ele>417.2</ele>
        <time>2024-06-23T08:46:02Z</time>
      </trkpt>
      <trkpt lat="43.003" lon="1.33862">
        <ele>416.8</ele>
        <time>2024-06-23T08:46:03Z</time>
      </trkpt>
      <trkpt lat="43.00301" lon="1.33871">
        <ele>416.6</ele>
        <time>2024-06-23T08:46:04Z</time>
      </trkpt>
      <trkpt lat="43.00303" lon="1.33881">
        <ele>416.6</ele>
        <time>2024-06-23T08:46:05Z</time>
      </trkpt>
      <trkpt lat="43.00305" lon="1.3389">
        <ele>416.2</ele>
        <time>2024-06-23T08:46:06Z</time>
      </trkpt>
      <trkpt lat="43.00307" lon="1.33899">
        <ele>416</ele>
        <time>2024-06-23T08:46:07Z</time>
      </trkpt>
      <trkpt lat="43.00309" lon="1.33909">
        <ele>415.4</ele>
        <time>2024-06-23T08:46:08Z</time>
      </trkpt>
      <trkpt lat="43.00311" lon="1.33918">
        <ele>415.4</ele>
        <time>2024-06-23T08:46:09Z</time>
      </trkpt>
      <trkpt lat="43.00312" lon="1.33927">
        <ele>415.4</ele>
        <time>2024-06-23T08:46:10Z</time>
      </trkpt>
      <trkpt lat="43.00314" lon="1.33937">
        <ele>415.4</ele>
        <time>2024-06-23T08:46:11Z</time>
      </trkpt>
      <trkpt lat="43.00316" lon="1.33946">
        <ele>414.6</ele>
        <time>2024-06-23T08:46:12Z</time>
      </trkpt>
      <trkpt lat="43.00317" lon="1.33955">
        <ele>414.6</ele>
        <time>2024-06-23T08:46:13Z</time>
      </trkpt>
      <trkpt lat="43.00318" lon="1.33965">
        <ele>415</ele>
        <time>2024-06-23T08:46:14Z</time>
      </trkpt>
      <trkpt lat="43.00321" lon="1.33974">
        <ele>415</ele>
        <time>2024-06-23T08:46:15Z</time>
      </trkpt>
      <trkpt lat="43.00322" lon="1.33984">
        <ele>415</ele>
        <time>2024-06-23T08:46:16Z</time>
      </trkpt>
      <trkpt lat="43.00324" lon="1.33993">
        <ele>414.4</ele>
        <time>2024-06-23T08:46:17Z</time>
      </trkpt>
      <trkpt lat="43.00326" lon="1.34002">
        <ele>414.6</ele>
        <time>2024-06-23T08:46:18Z</time>
      </trkpt>
      <trkpt lat="43.00327" lon="1.34012">
        <ele>414.4</ele>
        <time>2024-06-23T08:46:19Z</time>
      </trkpt>
      <trkpt lat="43.00329" lon="1.34021">
        <ele>414.4</ele>
        <time>2024-06-23T08:46:20Z</time>
      </trkpt>
      <trkpt lat="43.0033" lon="1.34031">
        <ele>414.8</ele>
        <time>2024-06-23T08:46:21Z</time>
      </trkpt>
      <trkpt lat="43.00333" lon="1.3404">
        <ele>414.4</ele>
        <time>2024-06-23T08:46:22Z</time>
      </trkpt>
      <trkpt lat="43.00334" lon="1.3405">
        <ele>414.8</ele>
        <time>2024-06-23T08:46:23Z</time>
      </trkpt>
      <trkpt lat="43.00336" lon="1.34059">
        <ele>414.6</ele>
        <time>2024-06-23T08:46:24Z</time>
      </trkpt>
      <trkpt lat="43.00337" lon="1.34068">
        <ele>413.8</ele>
        <time>2024-06-23T08:46:25Z</time>
      </trkpt>
      <trkpt lat="43.00338" lon="1.34078">
        <ele>413.8</ele>
        <time>2024-06-23T08:46:26Z</time>
      </trkpt>
      <trkpt lat="43.0034" lon="1.34087">
        <ele>413.8</ele>
        <time>2024-06-23T08:46:27Z</time>
      </trkpt>
      <trkpt lat="43.0034" lon="1.34095">
        <ele>413.8</ele>
        <time>2024-06-23T08:46:28Z</time>
      </trkpt>
      <trkpt lat="43.00342" lon="1.34105">
        <ele>413.2</ele>
        <time>2024-06-23T08:46:29Z</time>
      </trkpt>
      <trkpt lat="43.00342" lon="1.34113">
        <ele>413.2</ele>
        <time>2024-06-23T08:46:30Z</time>
      </trkpt>
      <trkpt lat="43.00343" lon="1.3412">
        <ele>413.2</ele>
        <time>2024-06-23T08:46:31Z</time>
      </trkpt>
      <trkpt lat="43.00345" lon="1.34131">
        <ele>413.2</ele>
        <time>2024-06-23T08:46:32Z</time>
      </trkpt>
      <trkpt lat="43.00347" lon="1.3414">
        <ele>413.2</ele>
        <time>2024-06-23T08:46:33Z</time>
      </trkpt>
      <trkpt lat="43.00348" lon="1.3415">
        <ele>413</ele>
        <time>2024-06-23T08:46:34Z</time>
      </trkpt>
      <trkpt lat="43.0035" lon="1.34161">
        <ele>412.6</ele>
        <time>2024-06-23T08:46:35Z</time>
      </trkpt>
      <trkpt lat="43.00351" lon="1.3417">
        <ele>411</ele>
        <time>2024-06-23T08:46:36Z</time>
      </trkpt>
      <trkpt lat="43.00352" lon="1.3418">
        <ele>411.4</ele>
        <time>2024-06-23T08:46:37Z</time>
      </trkpt>
      <trkpt lat="43.00354" lon="1.34189">
        <ele>411.4</ele>
        <time>2024-06-23T08:46:38Z</time>
      </trkpt>
      <trkpt lat="43.00355" lon="1.34199">
        <ele>411.4</ele>
        <time>2024-06-23T08:46:39Z</time>
      </trkpt>
      <trkpt lat="43.00357" lon="1.34209">
        <ele>411.6</ele>
        <time>2024-06-23T08:46:40Z</time>
      </trkpt>
      <trkpt lat="43.00358" lon="1.34218">
        <ele>411.6</ele>
        <time>2024-06-23T08:46:41Z</time>
      </trkpt>
      <trkpt lat="43.0036" lon="1.34227">
        <ele>411.8</ele>
        <time>2024-06-23T08:46:42Z</time>
      </trkpt>
      <trkpt lat="43.00362" lon="1.34237">
        <ele>411.6</ele>
        <time>2024-06-23T08:46:43Z</time>
      </trkpt>
      <trkpt lat="43.00364" lon="1.34246">
        <ele>411.6</ele>
        <time>2024-06-23T08:46:44Z</time>
      </trkpt>
      <trkpt lat="43.00365" lon="1.34255">
        <ele>412</ele>
        <time>2024-06-23T08:46:45Z</time>
      </trkpt>
      <trkpt lat="43.00366" lon="1.34264">
        <ele>411.6</ele>
        <time>2024-06-23T08:46:46Z</time>
      </trkpt>
      <trkpt lat="43.00367" lon="1.34273">
        <ele>411.6</ele>
        <time>2024-06-23T08:46:47Z</time>
      </trkpt>
      <trkpt lat="43.00369" lon="1.34281">
        <ele>411.6</ele>
        <time>2024-06-23T08:46:48Z</time>
      </trkpt>
      <trkpt lat="43.00371" lon="1.34291">
        <ele>412.6</ele>
        <time>2024-06-23T08:46:49Z</time>
      </trkpt>
      <trkpt lat="43.00372" lon="1.343">
        <ele>412.2</ele>
        <time>2024-06-23T08:46:50Z</time>
      </trkpt>
      <trkpt lat="43.00374" lon="1.34309">
        <ele>412.2</ele>
        <time>2024-06-23T08:46:51Z</time>
      </trkpt>
      <trkpt lat="43.00375" lon="1.34318">
        <ele>412.2</ele>
        <time>2024-06-23T08:46:52Z</time>
      </trkpt>
      <trkpt lat="43.00376" lon="1.34327">
        <ele>412.6</ele>
        <time>2024-06-23T08:46:53Z</time>
      </trkpt>
      <trkpt lat="43.00377" lon="1.34336">
        <ele>412.2</ele>
        <time>2024-06-23T08:46:54Z</time>
      </trkpt>
      <trkpt lat="43.00377" lon="1.34343">
        <ele>411.8</ele>
        <time>2024-06-23T08:46:55Z</time>
      </trkpt>
      <trkpt lat="43.00377" lon="1.34352">
        <ele>411.6</ele>
        <time>2024-06-23T08:46:56Z</time>
      </trkpt>
      <trkpt lat="43.00379" lon="1.3436">
        <ele>410.8</ele>
        <time>2024-06-23T08:46:57Z</time>
      </trkpt>
      <trkpt lat="43.00378" lon="1.34369">
        <ele>411.4</ele>
        <time>2024-06-23T08:46:58Z</time>
      </trkpt>
      <trkpt lat="43.00378" lon="1.34376">
        <ele>411.4</ele>
        <time>2024-06-23T08:46:59Z</time>
      </trkpt>
      <trkpt lat="43.00379" lon="1.34384">
        <ele>411.4</ele>
        <time>2024-06-23T08:47:00Z</time>
      </trkpt>
      <trkpt lat="43.00381" lon="1.34393">
        <ele>411.4</ele>
        <time>2024-06-23T08:47:01Z</time>
      </trkpt>
      <trkpt lat="43.00382" lon="1.34401">
        <ele>411.4</ele>
        <time>2024-06-23T08:47:02Z</time>
      </trkpt>
      <trkpt lat="43.00383" lon="1.34409">
        <ele>411.2</ele>
        <time>2024-06-23T08:47:03Z</time>
      </trkpt>
      <trkpt lat="43.00385" lon="1.34417">
        <ele>411.2</ele>
        <time>2024-06-23T08:47:04Z</time>
      </trkpt>
      <trkpt lat="43.00387" lon="1.34425">
        <ele>411.2</ele>
        <time>2024-06-23T08:47:05Z</time>
      </trkpt>
      <trkpt lat="43.00389" lon="1.34434">
        <ele>411.2</ele>
        <time>2024-06-23T08:47:06Z</time>
      </trkpt>
      <trkpt lat="43.00391" lon="1.34442">
        <ele>411.2</ele>
        <time>2024-06-23T08:47:07Z</time>
      </trkpt>
      <trkpt lat="43.00391" lon="1.34449">
        <ele>410.8</ele>
        <time>2024-06-23T08:47:08Z</time>
      </trkpt>
      <trkpt lat="43.00392" lon="1.34456">
        <ele>410.8</ele>
        <time>2024-06-23T08:47:09Z</time>
      </trkpt>
      <trkpt lat="43.00393" lon="1.34465">
        <ele>410.8</ele>
        <time>2024-06-23T08:47:10Z</time>
      </trkpt>
      <trkpt lat="43.00395" lon="1.34472">
        <ele>411.2</ele>
        <time>2024-06-23T08:47:11Z</time>
      </trkpt>
      <trkpt lat="43.00397" lon="1.34481">
        <ele>411.2</ele>
        <time>2024-06-23T08:47:12Z</time>
      </trkpt>
      <trkpt lat="43.00398" lon="1.34489">
        <ele>411.2</ele>
        <time>2024-06-23T08:47:13Z</time>
      </trkpt>
      <trkpt lat="43.00399" lon="1.34497">
        <ele>411.2</ele>
        <time>2024-06-23T08:47:14Z</time>
      </trkpt>
      <trkpt lat="43.00401" lon="1.34506">
        <ele>411.2</ele>
        <time>2024-06-23T08:47:15Z</time>
      </trkpt>
      <trkpt lat="43.00402" lon="1.34514">
        <ele>411.8</ele>
        <time>2024-06-23T08:47:16Z</time>
      </trkpt>
      <trkpt lat="43.00404" lon="1.34523">
        <ele>411.8</ele>
        <time>2024-06-23T08:47:17Z</time>
      </trkpt>
      <trkpt lat="43.00405" lon="1.34532">
        <ele>411.4</ele>
        <time>2024-06-23T08:47:18Z</time>
      </trkpt>
      <trkpt lat="43.00406" lon="1.34539">
        <ele>411.4</ele>
        <time>2024-06-23T08:47:19Z</time>
      </trkpt>
      <trkpt lat="43.00407" lon="1.34549">
        <ele>411.2</ele>
        <time>2024-06-23T08:47:20Z</time>
      </trkpt>
      <trkpt lat="43.00408" lon="1.34558">
        <ele>411.2</ele>
        <time>2024-06-23T08:47:21Z</time>
      </trkpt>
      <trkpt lat="43.0041" lon="1.34566">
        <ele>411.2</ele>
        <time>2024-06-23T08:47:22Z</time>
      </trkpt>
      <trkpt lat="43.00411" lon="1.34575">
        <ele>411.6</ele>
        <time>2024-06-23T08:47:23Z</time>
      </trkpt>
      <trkpt lat="43.00413" lon="1.34584">
        <ele>411</ele>
        <time>2024-06-23T08:47:24Z</time>
      </trkpt>
      <trkpt lat="43.00414" lon="1.34591">
        <ele>411</ele>
        <time>2024-06-23T08:47:25Z</time>
      </trkpt>
      <trkpt lat="43.00415" lon="1.346">
        <ele>411</ele>
        <time>2024-06-23T08:47:26Z</time>
      </trkpt>
      <trkpt lat="43.00418" lon="1.34607">
        <ele>411</ele>
        <time>2024-06-23T08:47:27Z</time>
      </trkpt>
      <trkpt lat="43.00418" lon="1.34614">
        <ele>410.8</ele>
        <time>2024-06-23T08:47:28Z</time>
      </trkpt>
      <trkpt lat="43.00421" lon="1.34624">
        <ele>410.8</ele>
        <time>2024-06-23T08:47:29Z</time>
      </trkpt>
      <trkpt lat="43.00421" lon="1.34632">
        <ele>410.8</ele>
        <time>2024-06-23T08:47:30Z</time>
      </trkpt>
      <trkpt lat="43.00423" lon="1.3464">
        <ele>410.8</ele>
        <time>2024-06-23T08:47:31Z</time>
      </trkpt>
      <trkpt lat="43.00425" lon="1.34649">
        <ele>410.4</ele>
        <time>2024-06-23T08:47:32Z</time>
      </trkpt>
      <trkpt lat="43.00426" lon="1.34658">
        <ele>410.4</ele>
        <time>2024-06-23T08:47:33Z</time>
      </trkpt>
      <trkpt lat="43.00426" lon="1.34666">
        <ele>410.6</ele>
        <time>2024-06-23T08:47:34Z</time>
      </trkpt>
      <trkpt lat="43.00426" lon="1.34673">
        <ele>410.6</ele>
        <time>2024-06-23T08:47:35Z</time>
      </trkpt>
      <trkpt lat="43.00426" lon="1.34679">
        <ele>410.6</ele>
        <time>2024-06-23T08:47:36Z</time>
      </trkpt>
      <trkpt lat="43.00426" lon="1.34687">
        <ele>410.6</ele>
        <time>2024-06-23T08:47:37Z</time>
      </trkpt>
      <trkpt lat="43.00428" lon="1.34696">
        <ele>410.6</ele>
        <time>2024-06-23T08:47:38Z</time>
      </trkpt>
      <trkpt lat="43.0043" lon="1.34705">
        <ele>410.4</ele>
        <time>2024-06-23T08:47:39Z</time>
      </trkpt>
      <trkpt lat="43.00431" lon="1.34714">
        <ele>410.2</ele>
        <time>2024-06-23T08:47:40Z</time>
      </trkpt>
      <trkpt lat="43.00431" lon="1.34724">
        <ele>411.8</ele>
        <time>2024-06-23T08:47:41Z</time>
      </trkpt>
      <trkpt lat="43.00431" lon="1.34733">
        <ele>411.4</ele>
        <time>2024-06-23T08:47:42Z</time>
      </trkpt>
      <trkpt lat="43.00432" lon="1.3474">
        <ele>411</ele>
        <time>2024-06-23T08:47:43Z</time>
      </trkpt>
      <trkpt lat="43.00432" lon="1.34746">
        <ele>411.2</ele>
        <time>2024-06-23T08:47:44Z</time>
      </trkpt>
      <trkpt lat="43.00431" lon="1.34757">
        <ele>411.2</ele>
        <time>2024-06-23T08:47:45Z</time>
      </trkpt>
      <trkpt lat="43.00431" lon="1.34764">
        <ele>411.6</ele>
        <time>2024-06-23T08:47:46Z</time>
      </trkpt>
      <trkpt lat="43.00432" lon="1.34773">
        <ele>411.4</ele>
        <time>2024-06-23T08:47:47Z</time>
      </trkpt>
      <trkpt lat="43.0043" lon="1.3478">
        <ele>410.8</ele>
        <time>2024-06-23T08:47:48Z</time>
      </trkpt>
      <trkpt lat="43.0043" lon="1.34785">
        <ele>410.8</ele>
        <time>2024-06-23T08:47:49Z</time>
      </trkpt>
      <trkpt lat="43.0043" lon="1.34793">
        <ele>410.2</ele>
        <time>2024-06-23T08:47:50Z</time>
      </trkpt>
      <trkpt lat="43.00431" lon="1.34801">
        <ele>410.2</ele>
        <time>2024-06-23T08:47:51Z</time>
      </trkpt>
      <trkpt lat="43.00431" lon="1.34809">
        <ele>410</ele>
        <time>2024-06-23T08:47:52Z</time>
      </trkpt>
      <trkpt lat="43.00432" lon="1.34817">
        <ele>410</ele>
        <time>2024-06-23T08:47:53Z</time>
      </trkpt>
      <trkpt lat="43.00431" lon="1.34827">
        <ele>410</ele>
        <time>2024-06-23T08:47:54Z</time>
      </trkpt>
      <trkpt lat="43.00433" lon="1.34832">
        <ele>410</ele>
        <time>2024-06-23T08:47:55Z</time>
      </trkpt>
      <trkpt lat="43.00431" lon="1.34837">
        <ele>410</ele>
        <time>2024-06-23T08:47:56Z</time>
      </trkpt>
      <trkpt lat="43.0043" lon="1.3484">
        <ele>410</ele>
        <time>2024-06-23T08:47:57Z</time>
      </trkpt>
      <trkpt lat="43.0043" lon="1.3484">
        <ele>410</ele>
        <time>2024-06-23T08:47:58Z</time>
      </trkpt>
      <trkpt lat="43.0043" lon="1.34841">
        <ele>410</ele>
        <time>2024-06-23T08:47:59Z</time>
      </trkpt>
      <trkpt lat="43.00429" lon="1.34841">
        <ele>410</ele>
        <time>2024-06-23T08:48:00Z</time>
      </trkpt>
      <trkpt lat="43.00428" lon="1.34844">
        <ele>409.8</ele>
        <time>2024-06-23T08:48:04Z</time>
      </trkpt>
      <trkpt lat="43.0043" lon="1.34844">
        <ele>409.8</ele>
        <time>2024-06-23T08:48:05Z</time>
      </trkpt>
      <trkpt lat="43.00429" lon="1.34847">
        <ele>409.8</ele>
        <time>2024-06-23T08:48:06Z</time>
      </trkpt>
      <trkpt lat="43.00428" lon="1.3485">
        <ele>409.8</ele>
        <time>2024-06-23T08:48:07Z</time>
      </trkpt>
      <trkpt lat="43.00429" lon="1.34852">
        <ele>409.8</ele>
        <time>2024-06-23T08:48:08Z</time>
      </trkpt>
      <trkpt lat="43.0043" lon="1.34853">
        <ele>409.8</ele>
        <time>2024-06-23T08:48:09Z</time>
      </trkpt>
      <trkpt lat="43.0043" lon="1.34853">
        <ele>409.8</ele>
        <time>2024-06-23T08:48:10Z</time>
      </trkpt>
      <trkpt lat="43.00429" lon="1.34855">
        <ele>409.8</ele>
        <time>2024-06-23T08:48:11Z</time>
      </trkpt>
      <trkpt lat="43.00429" lon="1.34857">
        <ele>409.8</ele>
        <time>2024-06-23T08:48:12Z</time>
      </trkpt>
      <trkpt lat="43.00428" lon="1.34859">
        <ele>409.8</ele>
        <time>2024-06-23T08:48:13Z</time>
      </trkpt>
      <trkpt lat="43.00427" lon="1.34861">
        <ele>409.6</ele>
        <time>2024-06-23T08:48:14Z</time>
      </trkpt>
      <trkpt lat="43.00426" lon="1.34865">
        <ele>409.6</ele>
        <time>2024-06-23T08:48:15Z</time>
      </trkpt>
      <trkpt lat="43.00426" lon="1.34869">
        <ele>409.6</ele>
        <time>2024-06-23T08:48:16Z</time>
      </trkpt>
      <trkpt lat="43.00426" lon="1.34874">
        <ele>409.6</ele>
        <time>2024-06-23T08:48:17Z</time>
      </trkpt>
      <trkpt lat="43.00426" lon="1.34879">
        <ele>409.6</ele>
        <time>2024-06-23T08:48:18Z</time>
      </trkpt>
      <trkpt lat="43.00426" lon="1.34884">
        <ele>409.4</ele>
        <time>2024-06-23T08:48:19Z</time>
      </trkpt>
      <trkpt lat="43.00426" lon="1.3489">
        <ele>409.4</ele>
        <time>2024-06-23T08:48:20Z</time>
      </trkpt>
      <trkpt lat="43.00426" lon="1.34895">
        <ele>409.4</ele>
        <time>2024-06-23T08:48:21Z</time>
      </trkpt>
      <trkpt lat="43.00426" lon="1.349">
        <ele>409.4</ele>
        <time>2024-06-23T08:48:22Z</time>
      </trkpt>
      <trkpt lat="43.00426" lon="1.34909">
        <ele>409.4</ele>
        <time>2024-06-23T08:48:23Z</time>
      </trkpt>
      <trkpt lat="43.00425" lon="1.34915">
        <ele>409.4</ele>
        <time>2024-06-23T08:48:24Z</time>
      </trkpt>
      <trkpt lat="43.00425" lon="1.34922">
        <ele>409.4</ele>
        <time>2024-06-23T08:48:25Z</time>
      </trkpt>
      <trkpt lat="43.00427" lon="1.34932">
        <ele>409</ele>
        <time>2024-06-23T08:48:26Z</time>
      </trkpt>
      <trkpt lat="43.00428" lon="1.34939">
        <ele>408.8</ele>
        <time>2024-06-23T08:48:27Z</time>
      </trkpt>
      <trkpt lat="43.00428" lon="1.34947">
        <ele>408.8</ele>
        <time>2024-06-23T08:48:28Z</time>
      </trkpt>
      <trkpt lat="43.00429" lon="1.34953">
        <ele>408.8</ele>
        <time>2024-06-23T08:48:29Z</time>
      </trkpt>
      <trkpt lat="43.00429" lon="1.34957">
        <ele>408.8</ele>
        <time>2024-06-23T08:48:30Z</time>
      </trkpt>
      <trkpt lat="43.0043" lon="1.34964">
        <ele>408.8</ele>
        <time>2024-06-23T08:48:31Z</time>
      </trkpt>
      <trkpt lat="43.00429" lon="1.34968">
        <ele>408.8</ele>
        <time>2024-06-23T08:48:32Z</time>
      </trkpt>
      <trkpt lat="43.0043" lon="1.34976">
        <ele>408.8</ele>
        <time>2024-06-23T08:48:33Z</time>
      </trkpt>
      <trkpt lat="43.00431" lon="1.34983">
        <ele>408.4</ele>
        <time>2024-06-23T08:48:34Z</time>
      </trkpt>
      <trkpt lat="43.00431" lon="1.34991">
        <ele>408.4</ele>
        <time>2024-06-23T08:48:35Z</time>
      </trkpt>
      <trkpt lat="43.00432" lon="1.34999">
        <ele>408.4</ele>
        <time>2024-06-23T08:48:36Z</time>
      </trkpt>
      <trkpt lat="43.00433" lon="1.35007">
        <ele>408.2</ele>
        <time>2024-06-23T08:48:37Z</time>
      </trkpt>
      <trkpt lat="43.00433" lon="1.35015">
        <ele>408.2</ele>
        <time>2024-06-23T08:48:38Z</time>
      </trkpt>
      <trkpt lat="43.00433" lon="1.35022">
        <ele>408.2</ele>
        <time>2024-06-23T08:48:39Z</time>
      </trkpt>
      <trkpt lat="43.00435" lon="1.35031">
        <ele>407.8</ele>
        <time>2024-06-23T08:48:40Z</time>
      </trkpt>
      <trkpt lat="43.00436" lon="1.3504">
        <ele>407.8</ele>
        <time>2024-06-23T08:48:41Z</time>
      </trkpt>
      <trkpt lat="43.00438" lon="1.35048">
        <ele>407.6</ele>
        <time>2024-06-23T08:48:42Z</time>
      </trkpt>
      <trkpt lat="43.0044" lon="1.35057">
        <ele>407.6</ele>
        <time>2024-06-23T08:48:43Z</time>
      </trkpt>
      <trkpt lat="43.00441" lon="1.35065">
        <ele>407.2</ele>
        <time>2024-06-23T08:48:44Z</time>
      </trkpt>
      <trkpt lat="43.00442" lon="1.35074">
        <ele>407.2</ele>
        <time>2024-06-23T08:48:45Z</time>
      </trkpt>
      <trkpt lat="43.00443" lon="1.35082">
        <ele>407.2</ele>
        <time>2024-06-23T08:48:46Z</time>
      </trkpt>
      <trkpt lat="43.00444" lon="1.3509">
        <ele>407.2</ele>
        <time>2024-06-23T08:48:47Z</time>
      </trkpt>
      <trkpt lat="43.00445" lon="1.35099">
        <ele>407.2</ele>
        <time>2024-06-23T08:48:48Z</time>
      </trkpt>
      <trkpt lat="43.00446" lon="1.35107">
        <ele>407.2</ele>
        <time>2024-06-23T08:48:49Z</time>
      </trkpt>
      <trkpt lat="43.00447" lon="1.35115">
        <ele>407.2</ele>
        <time>2024-06-23T08:48:50Z</time>
      </trkpt>
      <trkpt lat="43.00449" lon="1.35123">
        <ele>406.6</ele>
        <time>2024-06-23T08:48:51Z</time>
      </trkpt>
      <trkpt lat="43.0045" lon="1.35133">
        <ele>406.4</ele>
        <time>2024-06-23T08:48:52Z</time>
      </trkpt>
      <trkpt lat="43.00452" lon="1.35141">
        <ele>406.4</ele>
        <time>2024-06-23T08:48:53Z</time>
      </trkpt>
      <trkpt lat="43.00453" lon="1.3515">
        <ele>406.4</ele>
        <time>2024-06-23T08:48:54Z</time>
      </trkpt>
      <trkpt lat="43.00455" lon="1.35159">
        <ele>406.4</ele>
        <time>2024-06-23T08:48:55Z</time>
      </trkpt>
      <trkpt lat="43.00457" lon="1.35168">
        <ele>405.8</ele>
        <time>2024-06-23T08:48:56Z</time>
      </trkpt>
      <trkpt lat="43.00459" lon="1.35177">
        <ele>405.8</ele>
        <time>2024-06-23T08:48:57Z</time>
      </trkpt>
      <trkpt lat="43.00462" lon="1.35187">
        <ele>405.6</ele>
        <time>2024-06-23T08:48:58Z</time>
      </trkpt>
      <trkpt lat="43.00466" lon="1.35201">
        <ele>405.6</ele>
        <time>2024-06-23T08:48:59Z</time>
      </trkpt>
      <trkpt lat="43.00468" lon="1.35206">
        <ele>405.6</ele>
        <time>2024-06-23T08:49:00Z</time>
      </trkpt>
      <trkpt lat="43.0047" lon="1.35215">
        <ele>405.2</ele>
        <time>2024-06-23T08:49:01Z</time>
      </trkpt>
      <trkpt lat="43.00473" lon="1.35224">
        <ele>405.4</ele>
        <time>2024-06-23T08:49:02Z</time>
      </trkpt>
      <trkpt lat="43.00475" lon="1.35233">
        <ele>405.4</ele>
        <time>2024-06-23T08:49:03Z</time>
      </trkpt>
      <trkpt lat="43.00478" lon="1.35242">
        <ele>405.4</ele>
        <time>2024-06-23T08:49:04Z</time>
      </trkpt>
      <trkpt lat="43.00481" lon="1.3525">
        <ele>405.2</ele>
        <time>2024-06-23T08:49:05Z</time>
      </trkpt>
      <trkpt lat="43.00484" lon="1.3526">
        <ele>405.2</ele>
        <time>2024-06-23T08:49:06Z</time>
      </trkpt>
      <trkpt lat="43.00487" lon="1.35268">
        <ele>405.2</ele>
        <time>2024-06-23T08:49:07Z</time>
      </trkpt>
      <trkpt lat="43.00489" lon="1.35276">
        <ele>404.8</ele>
        <time>2024-06-23T08:49:08Z</time>
      </trkpt>
      <trkpt lat="43.00491" lon="1.35285">
        <ele>404.8</ele>
        <time>2024-06-23T08:49:09Z</time>
      </trkpt>
      <trkpt lat="43.00494" lon="1.35295">
        <ele>404.8</ele>
        <time>2024-06-23T08:49:10Z</time>
      </trkpt>
      <trkpt lat="43.00497" lon="1.35303">
        <ele>404.2</ele>
        <time>2024-06-23T08:49:11Z</time>
      </trkpt>
      <trkpt lat="43.00499" lon="1.35313">
        <ele>404.2</ele>
        <time>2024-06-23T08:49:12Z</time>
      </trkpt>
      <trkpt lat="43.00503" lon="1.35323">
        <ele>403.8</ele>
        <time>2024-06-23T08:49:13Z</time>
      </trkpt>
      <trkpt lat="43.00506" lon="1.35332">
        <ele>403.8</ele>
        <time>2024-06-23T08:49:14Z</time>
      </trkpt>
      <trkpt lat="43.00509" lon="1.35341">
        <ele>403.8</ele>
        <time>2024-06-23T08:49:15Z</time>
      </trkpt>
      <trkpt lat="43.00511" lon="1.3535">
        <ele>403.8</ele>
        <time>2024-06-23T08:49:16Z</time>
      </trkpt>
      <trkpt lat="43.00514" lon="1.35358">
        <ele>403.2</ele>
        <time>2024-06-23T08:49:17Z</time>
      </trkpt>
      <trkpt lat="43.00516" lon="1.35367">
        <ele>403.2</ele>
        <time>2024-06-23T08:49:18Z</time>
      </trkpt>
      <trkpt lat="43.00519" lon="1.35375">
        <ele>403.2</ele>
        <time>2024-06-23T08:49:19Z</time>
      </trkpt>
      <trkpt lat="43.00522" lon="1.35384">
        <ele>403</ele>
        <time>2024-06-23T08:49:20Z</time>
      </trkpt>
      <trkpt lat="43.00524" lon="1.35393">
        <ele>402.8</ele>
        <time>2024-06-23T08:49:21Z</time>
      </trkpt>
      <trkpt lat="43.00527" lon="1.35402">
        <ele>402.6</ele>
        <time>2024-06-23T08:49:22Z</time>
      </trkpt>
      <trkpt lat="43.0053" lon="1.35411">
        <ele>402.6</ele>
        <time>2024-06-23T08:49:23Z</time>
      </trkpt>
      <trkpt lat="43.00532" lon="1.3542">
        <ele>402.6</ele>
        <time>2024-06-23T08:49:24Z</time>
      </trkpt>
      <trkpt lat="43.00535" lon="1.35429">
        <ele>402.2</ele>
        <time>2024-06-23T08:49:25Z</time>
      </trkpt>
      <trkpt lat="43.00538" lon="1.35438">
        <ele>402.2</ele>
        <time>2024-06-23T08:49:26Z</time>
      </trkpt>
      <trkpt lat="43.0054" lon="1.35447">
        <ele>402.2</ele>
        <time>2024-06-23T08:49:27Z</time>
      </trkpt>
      <trkpt lat="43.00543" lon="1.35456">
        <ele>402.2</ele>
        <time>2024-06-23T08:49:28Z</time>
      </trkpt>
      <trkpt lat="43.00546" lon="1.35465">
        <ele>402.2</ele>
        <time>2024-06-23T08:49:29Z</time>
      </trkpt>
      <trkpt lat="43.00548" lon="1.35474">
        <ele>402.2</ele>
        <time>2024-06-23T08:49:30Z</time>
      </trkpt>
      <trkpt lat="43.00551" lon="1.35483">
        <ele>402.2</ele>
        <time>2024-06-23T08:49:31Z</time>
      </trkpt>
      <trkpt lat="43.00554" lon="1.35492">
        <ele>401.8</ele>
        <time>2024-06-23T08:49:32Z</time>
      </trkpt>
      <trkpt lat="43.00556" lon="1.35501">
        <ele>401.6</ele>
        <time>2024-06-23T08:49:33Z</time>
      </trkpt>
      <trkpt lat="43.00558" lon="1.35511">
        <ele>401.6</ele>
        <time>2024-06-23T08:49:34Z</time>
      </trkpt>
      <trkpt lat="43.00562" lon="1.35521">
        <ele>401.2</ele>
        <time>2024-06-23T08:49:35Z</time>
      </trkpt>
      <trkpt lat="43.00564" lon="1.35529">
        <ele>401.2</ele>
        <time>2024-06-23T08:49:36Z</time>
      </trkpt>
      <trkpt lat="43.00566" lon="1.35539">
        <ele>401.2</ele>
        <time>2024-06-23T08:49:37Z</time>
      </trkpt>
      <trkpt lat="43.00569" lon="1.35546">
        <ele>401.2</ele>
        <time>2024-06-23T08:49:38Z</time>
      </trkpt>
      <trkpt lat="43.00571" lon="1.35553">
        <ele>401.2</ele>
        <time>2024-06-23T08:49:39Z</time>
      </trkpt>
      <trkpt lat="43.00577" lon="1.3557">
        <ele>401</ele>
        <time>2024-06-23T08:49:40Z</time>
      </trkpt>
      <trkpt lat="43.0058" lon="1.3558">
        <ele>401</ele>
        <time>2024-06-23T08:49:41Z</time>
      </trkpt>
      <trkpt lat="43.00582" lon="1.35589">
        <ele>400.6</ele>
        <time>2024-06-23T08:49:42Z</time>
      </trkpt>
      <trkpt lat="43.00583" lon="1.35597">
        <ele>400.6</ele>
        <time>2024-06-23T08:49:43Z</time>
      </trkpt>
      <trkpt lat="43.00586" lon="1.35607">
        <ele>400.6</ele>
        <time>2024-06-23T08:49:44Z</time>
      </trkpt>
      <trkpt lat="43.00589" lon="1.35617">
        <ele>400.6</ele>
        <time>2024-06-23T08:49:45Z</time>
      </trkpt>
      <trkpt lat="43.00593" lon="1.35629">
        <ele>400.6</ele>
        <time>2024-06-23T08:49:46Z</time>
      </trkpt>
      <trkpt lat="43.00595" lon="1.35638">
        <ele>400.4</ele>
        <time>2024-06-23T08:49:47Z</time>
      </trkpt>
      <trkpt lat="43.00597" lon="1.35647">
        <ele>400.4</ele>
        <time>2024-06-23T08:49:48Z</time>
      </trkpt>
      <trkpt lat="43.00599" lon="1.35657">
        <ele>400</ele>
        <time>2024-06-23T08:49:49Z</time>
      </trkpt>
      <trkpt lat="43.00601" lon="1.35667">
        <ele>400</ele>
        <time>2024-06-23T08:49:50Z</time>
      </trkpt>
      <trkpt lat="43.00604" lon="1.35676">
        <ele>399.8</ele>
        <time>2024-06-23T08:49:51Z</time>
      </trkpt>
      <trkpt lat="43.00606" lon="1.35686">
        <ele>399.4</ele>
        <time>2024-06-23T08:49:52Z</time>
      </trkpt>
      <trkpt lat="43.00608" lon="1.35695">
        <ele>399.4</ele>
        <time>2024-06-23T08:49:53Z</time>
      </trkpt>
      <trkpt lat="43.0061" lon="1.35705">
        <ele>399.4</ele>
        <time>2024-06-23T08:49:54Z</time>
      </trkpt>
      <trkpt lat="43.00612" lon="1.35714">
        <ele>399.4</ele>
        <time>2024-06-23T08:49:55Z</time>
      </trkpt>
      <trkpt lat="43.00614" lon="1.35723">
        <ele>399.2</ele>
        <time>2024-06-23T08:49:56Z</time>
      </trkpt>
      <trkpt lat="43.00616" lon="1.35733">
        <ele>399</ele>
        <time>2024-06-23T08:49:57Z</time>
      </trkpt>
      <trkpt lat="43.00618" lon="1.35743">
        <ele>398.6</ele>
        <time>2024-06-23T08:49:58Z</time>
      </trkpt>
      <trkpt lat="43.00619" lon="1.35747">
        <ele>398.6</ele>
        <time>2024-06-23T08:49:59Z</time>
      </trkpt>
      <trkpt lat="43.0062" lon="1.35752">
        <ele>398.4</ele>
        <time>2024-06-23T08:50:00Z</time>
      </trkpt>
      <trkpt lat="43.00622" lon="1.35762">
        <ele>398</ele>
        <time>2024-06-23T08:50:01Z</time>
      </trkpt>
      <trkpt lat="43.00624" lon="1.35771">
        <ele>397.8</ele>
        <time>2024-06-23T08:50:02Z</time>
      </trkpt>
      <trkpt lat="43.00627" lon="1.35781">
        <ele>397.8</ele>
        <time>2024-06-23T08:50:03Z</time>
      </trkpt>
      <trkpt lat="43.00628" lon="1.35791">
        <ele>397.6</ele>
        <time>2024-06-23T08:50:04Z</time>
      </trkpt>
      <trkpt lat="43.0063" lon="1.35801">
        <ele>397.6</ele>
        <time>2024-06-23T08:50:05Z</time>
      </trkpt>
      <trkpt lat="43.00632" lon="1.3581">
        <ele>397.6</ele>
        <time>2024-06-23T08:50:06Z</time>
      </trkpt>
      <trkpt lat="43.00635" lon="1.35821">
        <ele>397.6</ele>
        <time>2024-06-23T08:50:07Z</time>
      </trkpt>
      <trkpt lat="43.00638" lon="1.35831">
        <ele>397.2</ele>
        <time>2024-06-23T08:50:08Z</time>
      </trkpt>
      <trkpt lat="43.0064" lon="1.35841">
        <ele>397</ele>
        <time>2024-06-23T08:50:09Z</time>
      </trkpt>
      <trkpt lat="43.00642" lon="1.3585">
        <ele>397</ele>
        <time>2024-06-23T08:50:10Z</time>
      </trkpt>
      <trkpt lat="43.00643" lon="1.3586">
        <ele>396.4</ele>
        <time>2024-06-23T08:50:11Z</time>
      </trkpt>
      <trkpt lat="43.00646" lon="1.3587">
        <ele>396.4</ele>
        <time>2024-06-23T08:50:12Z</time>
      </trkpt>
      <trkpt lat="43.00648" lon="1.3588">
        <ele>396</ele>
        <time>2024-06-23T08:50:13Z</time>
      </trkpt>
      <trkpt lat="43.0065" lon="1.35889">
        <ele>396</ele>
        <time>2024-06-23T08:50:14Z</time>
      </trkpt>
      <trkpt lat="43.00652" lon="1.35899">
        <ele>395.8</ele>
        <time>2024-06-23T08:50:15Z</time>
      </trkpt>
      <trkpt lat="43.00654" lon="1.35908">
        <ele>395.8</ele>
        <time>2024-06-23T08:50:16Z</time>
      </trkpt>
      <trkpt lat="43.00657" lon="1.35918">
        <ele>395.8</ele>
        <time>2024-06-23T08:50:17Z</time>
      </trkpt>
      <trkpt lat="43.00659" lon="1.35928">
        <ele>395.4</ele>
        <time>2024-06-23T08:50:18Z</time>
      </trkpt>
      <trkpt lat="43.00661" lon="1.35938">
        <ele>395.4</ele>
        <time>2024-06-23T08:50:19Z</time>
      </trkpt>
      <trkpt lat="43.00663" lon="1.35946">
        <ele>395.2</ele>
        <time>2024-06-23T08:50:20Z</time>
      </trkpt>
      <trkpt lat="43.00665" lon="1.35955">
        <ele>395.2</ele>
        <time>2024-06-23T08:50:21Z</time>
      </trkpt>
      <trkpt lat="43.00667" lon="1.35964">
        <ele>395.2</ele>
        <time>2024-06-23T08:50:22Z</time>
      </trkpt>
      <trkpt lat="43.00669" lon="1.35973">
        <ele>395.2</ele>
        <time>2024-06-23T08:50:23Z</time>
      </trkpt>
      <trkpt lat="43.00672" lon="1.35981">
        <ele>394.4</ele>
        <time>2024-06-23T08:50:24Z</time>
      </trkpt>
      <trkpt lat="43.00675" lon="1.35989">
        <ele>394.6</ele>
        <time>2024-06-23T08:50:25Z</time>
      </trkpt>
      <trkpt lat="43.00676" lon="1.35999">
        <ele>394.6</ele>
        <time>2024-06-23T08:50:26Z</time>
      </trkpt>
      <trkpt lat="43.00679" lon="1.36007">
        <ele>394.2</ele>
        <time>2024-06-23T08:50:27Z</time>
      </trkpt>
      <trkpt lat="43.00682" lon="1.36018">
        <ele>393.8</ele>
        <time>2024-06-23T08:50:28Z</time>
      </trkpt>
      <trkpt lat="43.00685" lon="1.36027">
        <ele>393.8</ele>
        <time>2024-06-23T08:50:29Z</time>
      </trkpt>
      <trkpt lat="43.00689" lon="1.36038">
        <ele>393.8</ele>
        <time>2024-06-23T08:50:30Z</time>
      </trkpt>
      <trkpt lat="43.0069" lon="1.36046">
        <ele>393.4</ele>
        <time>2024-06-23T08:50:31Z</time>
      </trkpt>
      <trkpt lat="43.00694" lon="1.36056">
        <ele>393.8</ele>
        <time>2024-06-23T08:50:32Z</time>
      </trkpt>
      <trkpt lat="43.00696" lon="1.36065">
        <ele>393.8</ele>
        <time>2024-06-23T08:50:33Z</time>
      </trkpt>
      <trkpt lat="43.00699" lon="1.36072">
        <ele>393.2</ele>
        <time>2024-06-23T08:50:34Z</time>
      </trkpt>
      <trkpt lat="43.00702" lon="1.36081">
        <ele>392.8</ele>
        <time>2024-06-23T08:50:35Z</time>
      </trkpt>
      <trkpt lat="43.00705" lon="1.36089">
        <ele>393.2</ele>
        <time>2024-06-23T08:50:36Z</time>
      </trkpt>
      <trkpt lat="43.00708" lon="1.36098">
        <ele>393.2</ele>
        <time>2024-06-23T08:50:37Z</time>
      </trkpt>
      <trkpt lat="43.00711" lon="1.36106">
        <ele>393.2</ele>
        <time>2024-06-23T08:50:38Z</time>
      </trkpt>
      <trkpt lat="43.00714" lon="1.36114">
        <ele>393.2</ele>
        <time>2024-06-23T08:50:39Z</time>
      </trkpt>
      <trkpt lat="43.00718" lon="1.36123">
        <ele>393.2</ele>
        <time>2024-06-23T08:50:40Z</time>
      </trkpt>
      <trkpt lat="43.00722" lon="1.36131">
        <ele>392.8</ele>
        <time>2024-06-23T08:50:41Z</time>
      </trkpt>
      <trkpt lat="43.00726" lon="1.36139">
        <ele>392.8</ele>
        <time>2024-06-23T08:50:42Z</time>
      </trkpt>
      <trkpt lat="43.00729" lon="1.36146">
        <ele>393.2</ele>
        <time>2024-06-23T08:50:43Z</time>
      </trkpt>
      <trkpt lat="43.00733" lon="1.36154">
        <ele>393.2</ele>
        <time>2024-06-23T08:50:44Z</time>
      </trkpt>
      <trkpt lat="43.00738" lon="1.36162">
        <ele>393.2</ele>
        <time>2024-06-23T08:50:45Z</time>
      </trkpt>
      <trkpt lat="43.00742" lon="1.3617">
        <ele>393.2</ele>
        <time>2024-06-23T08:50:46Z</time>
      </trkpt>
      <trkpt lat="43.00746" lon="1.36177">
        <ele>392.8</ele>
        <time>2024-06-23T08:50:47Z</time>
      </trkpt>
      <trkpt lat="43.0075" lon="1.36184">
        <ele>392.4</ele>
        <time>2024-06-23T08:50:48Z</time>
      </trkpt>
      <trkpt lat="43.00755" lon="1.36192">
        <ele>392.4</ele>
        <time>2024-06-23T08:50:49Z</time>
      </trkpt>
      <trkpt lat="43.00759" lon="1.362">
        <ele>392.2</ele>
        <time>2024-06-23T08:50:50Z</time>
      </trkpt>
      <trkpt lat="43.00764" lon="1.36206">
        <ele>392.2</ele>
        <time>2024-06-23T08:50:51Z</time>
      </trkpt>
      <trkpt lat="43.00768" lon="1.36214">
        <ele>392.2</ele>
        <time>2024-06-23T08:50:52Z</time>
      </trkpt>
      <trkpt lat="43.00774" lon="1.36221">
        <ele>392.2</ele>
        <time>2024-06-23T08:50:53Z</time>
      </trkpt>
      <trkpt lat="43.00779" lon="1.36228">
        <ele>391.8</ele>
        <time>2024-06-23T08:50:54Z</time>
      </trkpt>
      <trkpt lat="43.00784" lon="1.36235">
        <ele>391.6</ele>
        <time>2024-06-23T08:50:55Z</time>
      </trkpt>
      <trkpt lat="43.00789" lon="1.36243">
        <ele>391.2</ele>
        <time>2024-06-23T08:50:56Z</time>
      </trkpt>
      <trkpt lat="43.00794" lon="1.36249">
        <ele>391</ele>
        <time>2024-06-23T08:50:57Z</time>
      </trkpt>
      <trkpt lat="43.00799" lon="1.36257">
        <ele>390.6</ele>
        <time>2024-06-23T08:50:58Z</time>
      </trkpt>
      <trkpt lat="43.00804" lon="1.36263">
        <ele>390.6</ele>
        <time>2024-06-23T08:50:59Z</time>
      </trkpt>
      <trkpt lat="43.00809" lon="1.3627">
        <ele>390.6</ele>
        <time>2024-06-23T08:51:00Z</time>
      </trkpt>
      <trkpt lat="43.00813" lon="1.36277">
        <ele>390.6</ele>
        <time>2024-06-23T08:51:01Z</time>
      </trkpt>
      <trkpt lat="43.00818" lon="1.36284">
        <ele>390.6</ele>
        <time>2024-06-23T08:51:02Z</time>
      </trkpt>
      <trkpt lat="43.00823" lon="1.36291">
        <ele>390.2</ele>
        <time>2024-06-23T08:51:03Z</time>
      </trkpt>
      <trkpt lat="43.00827" lon="1.36298">
        <ele>390.2</ele>
        <time>2024-06-23T08:51:04Z</time>
      </trkpt>
      <trkpt lat="43.00832" lon="1.36305">
        <ele>390.2</ele>
        <time>2024-06-23T08:51:05Z</time>
      </trkpt>
      <trkpt lat="43.00837" lon="1.36312">
        <ele>389.8</ele>
        <time>2024-06-23T08:51:06Z</time>
      </trkpt>
      <trkpt lat="43.00842" lon="1.36319">
        <ele>389.8</ele>
        <time>2024-06-23T08:51:07Z</time>
      </trkpt>
      <trkpt lat="43.00847" lon="1.36326">
        <ele>389.8</ele>
        <time>2024-06-23T08:51:08Z</time>
      </trkpt>
      <trkpt lat="43.00851" lon="1.36334">
        <ele>389.8</ele>
        <time>2024-06-23T08:51:09Z</time>
      </trkpt>
      <trkpt lat="43.00856" lon="1.36341">
        <ele>389.8</ele>
        <time>2024-06-23T08:51:10Z</time>
      </trkpt>
      <trkpt lat="43.00861" lon="1.36348">
        <ele>389</ele>
        <time>2024-06-23T08:51:11Z</time>
      </trkpt>
      <trkpt lat="43.00865" lon="1.36355">
        <ele>389</ele>
        <time>2024-06-23T08:51:12Z</time>
      </trkpt>
      <trkpt lat="43.0087" lon="1.36362">
        <ele>389.4</ele>
        <time>2024-06-23T08:51:13Z</time>
      </trkpt>
      <trkpt lat="43.00875" lon="1.3637">
        <ele>389.2</ele>
        <time>2024-06-23T08:51:14Z</time>
      </trkpt>
      <trkpt lat="43.0088" lon="1.36377">
        <ele>388.8</ele>
        <time>2024-06-23T08:51:15Z</time>
      </trkpt>
      <trkpt lat="43.00885" lon="1.36385">
        <ele>388.8</ele>
        <time>2024-06-23T08:51:16Z</time>
      </trkpt>
      <trkpt lat="43.00889" lon="1.36392">
        <ele>388.8</ele>
        <time>2024-06-23T08:51:17Z</time>
      </trkpt>
      <trkpt lat="43.00893" lon="1.36399">
        <ele>388.6</ele>
        <time>2024-06-23T08:51:18Z</time>
      </trkpt>
      <trkpt lat="43.00899" lon="1.36407">
        <ele>388.2</ele>
        <time>2024-06-23T08:51:19Z</time>
      </trkpt>
      <trkpt lat="43.00903" lon="1.36414">
        <ele>388.2</ele>
        <time>2024-06-23T08:51:20Z</time>
      </trkpt>
      <trkpt lat="43.00907" lon="1.36421">
        <ele>388.2</ele>
        <time>2024-06-23T08:51:21Z</time>
      </trkpt>
      <trkpt lat="43.00912" lon="1.36428">
        <ele>388.6</ele>
        <time>2024-06-23T08:51:22Z</time>
      </trkpt>
      <trkpt lat="43.00917" lon="1.36435">
        <ele>388</ele>
        <time>2024-06-23T08:51:23Z</time>
      </trkpt>
      <trkpt lat="43.00922" lon="1.36442">
        <ele>387.6</ele>
        <time>2024-06-23T08:51:24Z</time>
      </trkpt>
      <trkpt lat="43.00928" lon="1.3645">
        <ele>387.6</ele>
        <time>2024-06-23T08:51:25Z</time>
      </trkpt>
      <trkpt lat="43.00933" lon="1.36457">
        <ele>387.4</ele>
        <time>2024-06-23T08:51:26Z</time>
      </trkpt>
      <trkpt lat="43.00938" lon="1.36464">
        <ele>387.4</ele>
        <time>2024-06-23T08:51:27Z</time>
      </trkpt>
      <trkpt lat="43.00943" lon="1.36472">
        <ele>387.4</ele>
        <time>2024-06-23T08:51:28Z</time>
      </trkpt>
      <trkpt lat="43.00948" lon="1.36479">
        <ele>387.2</ele>
        <time>2024-06-23T08:51:29Z</time>
      </trkpt>
      <trkpt lat="43.00953" lon="1.36486">
        <ele>387</ele>
        <time>2024-06-23T08:51:30Z</time>
      </trkpt>
      <trkpt lat="43.00958" lon="1.36494">
        <ele>387</ele>
        <time>2024-06-23T08:51:31Z</time>
      </trkpt>
      <trkpt lat="43.00963" lon="1.36501">
        <ele>387</ele>
        <time>2024-06-23T08:51:32Z</time>
      </trkpt>
      <trkpt lat="43.00967" lon="1.36508">
        <ele>387</ele>
        <time>2024-06-23T08:51:33Z</time>
      </trkpt>
      <trkpt lat="43.00972" lon="1.36515">
        <ele>386.6</ele>
        <time>2024-06-23T08:51:34Z</time>
      </trkpt>
      <trkpt lat="43.00977" lon="1.36522">
        <ele>386.4</ele>
        <time>2024-06-23T08:51:35Z</time>
      </trkpt>
      <trkpt lat="43.00982" lon="1.36529">
        <ele>386</ele>
        <time>2024-06-23T08:51:36Z</time>
      </trkpt>
      <trkpt lat="43.00987" lon="1.36536">
        <ele>385.8</ele>
        <time>2024-06-23T08:51:37Z</time>
      </trkpt>
      <trkpt lat="43.00992" lon="1.36543">
        <ele>385.8</ele>
        <time>2024-06-23T08:51:38Z</time>
      </trkpt>
      <trkpt lat="43.00997" lon="1.3655">
        <ele>385.8</ele>
        <time>2024-06-23T08:51:39Z</time>
      </trkpt>
      <trkpt lat="43.01002" lon="1.36557">
        <ele>385.8</ele>
        <time>2024-06-23T08:51:40Z</time>
      </trkpt>
      <trkpt lat="43.01007" lon="1.36565">
        <ele>385.8</ele>
        <time>2024-06-23T08:51:41Z</time>
      </trkpt>
      <trkpt lat="43.01012" lon="1.36572">
        <ele>385.2</ele>
        <time>2024-06-23T08:51:42Z</time>
      </trkpt>
      <trkpt lat="43.01016" lon="1.36579">
        <ele>385.2</ele>
        <time>2024-06-23T08:51:43Z</time>
      </trkpt>
      <trkpt lat="43.01021" lon="1.36586">
        <ele>385.2</ele>
        <time>2024-06-23T08:51:44Z</time>
      </trkpt>
      <trkpt lat="43.01025" lon="1.36591">
        <ele>385.2</ele>
        <time>2024-06-23T08:51:45Z</time>
      </trkpt>
      <trkpt lat="43.0103" lon="1.36598">
        <ele>385.8</ele>
        <time>2024-06-23T08:51:46Z</time>
      </trkpt>
      <trkpt lat="43.01035" lon="1.36606">
        <ele>385.8</ele>
        <time>2024-06-23T08:51:47Z</time>
      </trkpt>
      <trkpt lat="43.0104" lon="1.36612">
        <ele>385.4</ele>
        <time>2024-06-23T08:51:48Z</time>
      </trkpt>
      <trkpt lat="43.01045" lon="1.36618">
        <ele>385</ele>
        <time>2024-06-23T08:51:49Z</time>
      </trkpt>
      <trkpt lat="43.01049" lon="1.36622">
        <ele>385</ele>
        <time>2024-06-23T08:51:50Z</time>
      </trkpt>
      <trkpt lat="43.01052" lon="1.36628">
        <ele>385</ele>
        <time>2024-06-23T08:51:51Z</time>
      </trkpt>
      <trkpt lat="43.01056" lon="1.36634">
        <ele>385</ele>
        <time>2024-06-23T08:51:52Z</time>
      </trkpt>
      <trkpt lat="43.0106" lon="1.36639">
        <ele>385</ele>
        <time>2024-06-23T08:51:53Z</time>
      </trkpt>
      <trkpt lat="43.01064" lon="1.36646">
        <ele>385</ele>
        <time>2024-06-23T08:51:54Z</time>
      </trkpt>
      <trkpt lat="43.01068" lon="1.36653">
        <ele>385</ele>
        <time>2024-06-23T08:51:55Z</time>
      </trkpt>
      <trkpt lat="43.01073" lon="1.36661">
        <ele>385</ele>
        <time>2024-06-23T08:51:56Z</time>
      </trkpt>
      <trkpt lat="43.01077" lon="1.36666">
        <ele>384.8</ele>
        <time>2024-06-23T08:51:57Z</time>
      </trkpt>
      <trkpt lat="43.01082" lon="1.36673">
        <ele>384.8</ele>
        <time>2024-06-23T08:51:58Z</time>
      </trkpt>
      <trkpt lat="43.01087" lon="1.3668">
        <ele>384.6</ele>
        <time>2024-06-23T08:51:59Z</time>
      </trkpt>
      <trkpt lat="43.01091" lon="1.36686">
        <ele>384.4</ele>
        <time>2024-06-23T08:52:00Z</time>
      </trkpt>
      <trkpt lat="43.01096" lon="1.36691">
        <ele>384.4</ele>
        <time>2024-06-23T08:52:01Z</time>
      </trkpt>
      <trkpt lat="43.011" lon="1.36697">
        <ele>384.4</ele>
        <time>2024-06-23T08:52:02Z</time>
      </trkpt>
      <trkpt lat="43.01105" lon="1.36702">
        <ele>384.4</ele>
        <time>2024-06-23T08:52:03Z</time>
      </trkpt>
      <trkpt lat="43.01111" lon="1.36709">
        <ele>383.8</ele>
        <time>2024-06-23T08:52:04Z</time>
      </trkpt>
      <trkpt lat="43.01117" lon="1.36715">
        <ele>383.8</ele>
        <time>2024-06-23T08:52:05Z</time>
      </trkpt>
      <trkpt lat="43.01122" lon="1.36721">
        <ele>383.8</ele>
        <time>2024-06-23T08:52:06Z</time>
      </trkpt>
      <trkpt lat="43.01128" lon="1.36726">
        <ele>383.8</ele>
        <time>2024-06-23T08:52:07Z</time>
      </trkpt>
      <trkpt lat="43.01134" lon="1.36731">
        <ele>383.8</ele>
        <time>2024-06-23T08:52:08Z</time>
      </trkpt>
      <trkpt lat="43.01139" lon="1.36736">
        <ele>383.8</ele>
        <time>2024-06-23T08:52:09Z</time>
      </trkpt>
      <trkpt lat="43.01145" lon="1.36739">
        <ele>383.4</ele>
        <time>2024-06-23T08:52:10Z</time>
      </trkpt>
      <trkpt lat="43.0115" lon="1.36742">
        <ele>383.4</ele>
        <time>2024-06-23T08:52:11Z</time>
      </trkpt>
      <trkpt lat="43.01155" lon="1.36747">
        <ele>383.4</ele>
        <time>2024-06-23T08:52:12Z</time>
      </trkpt>
      <trkpt lat="43.01161" lon="1.36749">
        <ele>383.4</ele>
        <time>2024-06-23T08:52:13Z</time>
      </trkpt>
      <trkpt lat="43.01166" lon="1.36753">
        <ele>383</ele>
        <time>2024-06-23T08:52:14Z</time>
      </trkpt>
      <trkpt lat="43.01171" lon="1.36756">
        <ele>383</ele>
        <time>2024-06-23T08:52:15Z</time>
      </trkpt>
      <trkpt lat="43.01176" lon="1.36759">
        <ele>383</ele>
        <time>2024-06-23T08:52:16Z</time>
      </trkpt>
      <trkpt lat="43.01181" lon="1.3676">
        <ele>383</ele>
        <time>2024-06-23T08:52:17Z</time>
      </trkpt>
      <trkpt lat="43.01187" lon="1.36765">
        <ele>383</ele>
        <time>2024-06-23T08:52:18Z</time>
      </trkpt>
      <trkpt lat="43.01192" lon="1.36765">
        <ele>383</ele>
        <time>2024-06-23T08:52:19Z</time>
      </trkpt>
      <trkpt lat="43.01196" lon="1.36767">
        <ele>382.8</ele>
        <time>2024-06-23T08:52:20Z</time>
      </trkpt>
      <trkpt lat="43.01196" lon="1.3677">
        <ele>382.8</ele>
        <time>2024-06-23T08:52:21Z</time>
      </trkpt>
      <trkpt lat="43.01197" lon="1.36771">
        <ele>382.8</ele>
        <time>2024-06-23T08:52:22Z</time>
      </trkpt>
      <trkpt lat="43.01198" lon="1.3677">
        <ele>382.8</ele>
        <time>2024-06-23T08:52:23Z</time>
      </trkpt>
      <trkpt lat="43.01198" lon="1.3677">
        <ele>382.8</ele>
        <time>2024-06-23T08:52:24Z</time>
      </trkpt>
      <trkpt lat="43.01199" lon="1.36773">
        <ele>382.4</ele>
        <time>2024-06-23T08:52:27Z</time>
      </trkpt>
      <trkpt lat="43.01198" lon="1.36773">
        <ele>382.2</ele>
        <time>2024-06-23T08:52:28Z</time>
      </trkpt>
      <trkpt lat="43.012" lon="1.36771">
        <ele>382.2</ele>
        <time>2024-06-23T08:53:51Z</time>
      </trkpt>
      <trkpt lat="43.012" lon="1.3677">
        <ele>382.2</ele>
        <time>2024-06-23T08:53:52Z</time>
      </trkpt>
      <trkpt lat="43.012" lon="1.3677">
        <ele>382.2</ele>
        <time>2024-06-23T08:53:53Z</time>
      </trkpt>
      <trkpt lat="43.012" lon="1.3677">
        <ele>382.2</ele>
        <time>2024-06-23T08:53:54Z</time>
      </trkpt>
      <trkpt lat="43.01201" lon="1.3677">
        <ele>382.2</ele>
        <time>2024-06-23T08:53:55Z</time>
      </trkpt>
      <trkpt lat="43.01203" lon="1.36771">
        <ele>382.2</ele>
        <time>2024-06-23T08:53:56Z</time>
      </trkpt>
      <trkpt lat="43.01205" lon="1.36772">
        <ele>382.6</ele>
        <time>2024-06-23T08:53:57Z</time>
      </trkpt>
      <trkpt lat="43.01207" lon="1.36773">
        <ele>382.6</ele>
        <time>2024-06-23T08:53:58Z</time>
      </trkpt>
      <trkpt lat="43.01209" lon="1.36774">
        <ele>382.6</ele>
        <time>2024-06-23T08:53:59Z</time>
      </trkpt>
      <trkpt lat="43.01212" lon="1.36775">
        <ele>382.6</ele>
        <time>2024-06-23T08:54:00Z</time>
      </trkpt>
      <trkpt lat="43.01217" lon="1.36775">
        <ele>382.2</ele>
        <time>2024-06-23T08:54:01Z</time>
      </trkpt>
      <trkpt lat="43.01221" lon="1.36777">
        <ele>382.2</ele>
        <time>2024-06-23T08:54:02Z</time>
      </trkpt>
      <trkpt lat="43.01226" lon="1.36779">
        <ele>382.2</ele>
        <time>2024-06-23T08:54:03Z</time>
      </trkpt>
      <trkpt lat="43.01228" lon="1.3678">
        <ele>382.2</ele>
        <time>2024-06-23T08:54:04Z</time>
      </trkpt>
      <trkpt lat="43.01229" lon="1.3678">
        <ele>382.2</ele>
        <time>2024-06-23T08:54:05Z</time>
      </trkpt>
      <trkpt lat="43.01229" lon="1.3678">
        <ele>382.2</ele>
        <time>2024-06-23T08:54:06Z</time>
      </trkpt>
      <trkpt lat="43.01228" lon="1.3678">
        <ele>382.2</ele>
        <time>2024-06-23T08:54:07Z</time>
      </trkpt>
      <trkpt lat="43.0123" lon="1.3678">
        <ele>382.2</ele>
        <time>2024-06-23T08:54:32Z</time>
      </trkpt>
      <trkpt lat="43.01232" lon="1.36781">
        <ele>382.2</ele>
        <time>2024-06-23T08:54:33Z</time>
      </trkpt>
      <trkpt lat="43.01234" lon="1.36782">
        <ele>382</ele>
        <time>2024-06-23T08:54:34Z</time>
      </trkpt>
      <trkpt lat="43.01236" lon="1.36783">
        <ele>382</ele>
        <time>2024-06-23T08:54:35Z</time>
      </trkpt>
      <trkpt lat="43.01239" lon="1.36784">
        <ele>382</ele>
        <time>2024-06-23T08:54:36Z</time>
      </trkpt>
      <trkpt lat="43.01242" lon="1.36785">
        <ele>381.8</ele>
        <time>2024-06-23T08:54:37Z</time>
      </trkpt>
      <trkpt lat="43.01245" lon="1.36785">
        <ele>381.8</ele>
        <time>2024-06-23T08:54:38Z</time>
      </trkpt>
      <trkpt lat="43.01249" lon="1.36787">
        <ele>381.8</ele>
        <time>2024-06-23T08:54:39Z</time>
      </trkpt>
      <trkpt lat="43.01253" lon="1.36788">
        <ele>381.8</ele>
        <time>2024-06-23T08:54:40Z</time>
      </trkpt>
      <trkpt lat="43.01258" lon="1.36789">
        <ele>381.8</ele>
        <time>2024-06-23T08:54:41Z</time>
      </trkpt>
      <trkpt lat="43.01263" lon="1.3679">
        <ele>381.8</ele>
        <time>2024-06-23T08:54:42Z</time>
      </trkpt>
      <trkpt lat="43.01268" lon="1.36792">
        <ele>381.8</ele>
        <time>2024-06-23T08:54:43Z</time>
      </trkpt>
      <trkpt lat="43.01273" lon="1.36793">
        <ele>381.8</ele>
        <time>2024-06-23T08:54:44Z</time>
      </trkpt>
      <trkpt lat="43.01279" lon="1.36795">
        <ele>381.6</ele>
        <time>2024-06-23T08:54:45Z</time>
      </trkpt>
      <trkpt lat="43.01285" lon="1.36796">
        <ele>381.2</ele>
        <time>2024-06-23T08:54:46Z</time>
      </trkpt>
      <trkpt lat="43.01291" lon="1.36798">
        <ele>381.2</ele>
        <time>2024-06-23T08:54:47Z</time>
      </trkpt>
      <trkpt lat="43.01297" lon="1.368">
        <ele>381</ele>
        <time>2024-06-23T08:54:48Z</time>
      </trkpt>
      <trkpt lat="43.01303" lon="1.36802">
        <ele>381</ele>
        <time>2024-06-23T08:54:49Z</time>
      </trkpt>
      <trkpt lat="43.0131" lon="1.36804">
        <ele>380.6</ele>
        <time>2024-06-23T08:54:50Z</time>
      </trkpt>
      <trkpt lat="43.01316" lon="1.36806">
        <ele>380.6</ele>
        <time>2024-06-23T08:54:51Z</time>
      </trkpt>
      <trkpt lat="43.01323" lon="1.36808">
        <ele>380.6</ele>
        <time>2024-06-23T08:54:52Z</time>
      </trkpt>
      <trkpt lat="43.0133" lon="1.3681">
        <ele>380.6</ele>
        <time>2024-06-23T08:54:53Z</time>
      </trkpt>
      <trkpt lat="43.01337" lon="1.36812">
        <ele>380.6</ele>
        <time>2024-06-23T08:54:54Z</time>
      </trkpt>
      <trkpt lat="43.01344" lon="1.36815">
        <ele>380.4</ele>
        <time>2024-06-23T08:54:55Z</time>
      </trkpt>
      <trkpt lat="43.0135" lon="1.36818">
        <ele>380.2</ele>
        <time>2024-06-23T08:54:56Z</time>
      </trkpt>
      <trkpt lat="43.01357" lon="1.36821">
        <ele>380.2</ele>
        <time>2024-06-23T08:54:57Z</time>
      </trkpt>
      <trkpt lat="43.01363" lon="1.36824">
        <ele>380.2</ele>
        <time>2024-06-23T08:54:58Z</time>
      </trkpt>
      <trkpt lat="43.0137" lon="1.36827">
        <ele>380.2</ele>
        <time>2024-06-23T08:54:59Z</time>
      </trkpt>
      <trkpt lat="43.01376" lon="1.3683">
        <ele>380.2</ele>
        <time>2024-06-23T08:55:00Z</time>
      </trkpt>
      <trkpt lat="43.01382" lon="1.36833">
        <ele>379.8</ele>
        <time>2024-06-23T08:55:01Z</time>
      </trkpt>
      <trkpt lat="43.01388" lon="1.36835">
        <ele>379.8</ele>
        <time>2024-06-23T08:55:02Z</time>
      </trkpt>
      <trkpt lat="43.01394" lon="1.36839">
        <ele>379.2</ele>
        <time>2024-06-23T08:55:03Z</time>
      </trkpt>
      <trkpt lat="43.014" lon="1.36842">
        <ele>379.2</ele>
        <time>2024-06-23T08:55:04Z</time>
      </trkpt>
      <trkpt lat="43.01406" lon="1.36846">
        <ele>379.2</ele>
        <time>2024-06-23T08:55:05Z</time>
      </trkpt>
      <trkpt lat="43.01412" lon="1.3685">
        <ele>379.2</ele>
        <time>2024-06-23T08:55:06Z</time>
      </trkpt>
      <trkpt lat="43.01419" lon="1.36854">
        <ele>379.2</ele>
        <time>2024-06-23T08:55:07Z</time>
      </trkpt>
      <trkpt lat="43.01425" lon="1.36858">
        <ele>378.8</ele>
        <time>2024-06-23T08:55:08Z</time>
      </trkpt>
      <trkpt lat="43.0143" lon="1.36862">
        <ele>378.6</ele>
        <time>2024-06-23T08:55:09Z</time>
      </trkpt>
      <trkpt lat="43.01436" lon="1.36867">
        <ele>378.6</ele>
        <time>2024-06-23T08:55:10Z</time>
      </trkpt>
      <trkpt lat="43.01442" lon="1.36872">
        <ele>378.6</ele>
        <time>2024-06-23T08:55:11Z</time>
      </trkpt>
      <trkpt lat="43.01448" lon="1.36877">
        <ele>378.4</ele>
        <time>2024-06-23T08:55:12Z</time>
      </trkpt>
      <trkpt lat="43.01454" lon="1.36882">
        <ele>378.4</ele>
        <time>2024-06-23T08:55:13Z</time>
      </trkpt>
      <trkpt lat="43.01461" lon="1.36886">
        <ele>378.4</ele>
        <time>2024-06-23T08:55:14Z</time>
      </trkpt>
      <trkpt lat="43.01466" lon="1.36893">
        <ele>378.4</ele>
        <time>2024-06-23T08:55:15Z</time>
      </trkpt>
      <trkpt lat="43.01472" lon="1.36897">
        <ele>378</ele>
        <time>2024-06-23T08:55:16Z</time>
      </trkpt>
      <trkpt lat="43.01478" lon="1.36902">
        <ele>378</ele>
        <time>2024-06-23T08:55:17Z</time>
      </trkpt>
      <trkpt lat="43.01483" lon="1.36908">
        <ele>377.8</ele>
        <time>2024-06-23T08:55:18Z</time>
      </trkpt>
      <trkpt lat="43.01489" lon="1.36913">
        <ele>377.8</ele>
        <time>2024-06-23T08:55:19Z</time>
      </trkpt>
      <trkpt lat="43.01495" lon="1.36919">
        <ele>377.8</ele>
        <time>2024-06-23T08:55:20Z</time>
      </trkpt>
      <trkpt lat="43.01501" lon="1.36925">
        <ele>377.2</ele>
        <time>2024-06-23T08:55:21Z</time>
      </trkpt>
      <trkpt lat="43.01507" lon="1.36931">
        <ele>376.8</ele>
        <time>2024-06-23T08:55:22Z</time>
      </trkpt>
      <trkpt lat="43.01514" lon="1.36936">
        <ele>376.8</ele>
        <time>2024-06-23T08:55:23Z</time>
      </trkpt>
      <trkpt lat="43.0152" lon="1.36942">
        <ele>376.8</ele>
        <time>2024-06-23T08:55:24Z</time>
      </trkpt>
      <trkpt lat="43.01527" lon="1.36946">
        <ele>376.8</ele>
        <time>2024-06-23T08:55:25Z</time>
      </trkpt>
      <trkpt lat="43.01532" lon="1.36953">
        <ele>376.8</ele>
        <time>2024-06-23T08:55:26Z</time>
      </trkpt>
      <trkpt lat="43.01539" lon="1.36958">
        <ele>376.8</ele>
        <time>2024-06-23T08:55:27Z</time>
      </trkpt>
      <trkpt lat="43.01544" lon="1.36965">
        <ele>376.4</ele>
        <time>2024-06-23T08:55:28Z</time>
      </trkpt>
      <trkpt lat="43.0155" lon="1.3697">
        <ele>376</ele>
        <time>2024-06-23T08:55:29Z</time>
      </trkpt>
      <trkpt lat="43.01556" lon="1.36977">
        <ele>376</ele>
        <time>2024-06-23T08:55:30Z</time>
      </trkpt>
      <trkpt lat="43.01562" lon="1.36983">
        <ele>375.8</ele>
        <time>2024-06-23T08:55:31Z</time>
      </trkpt>
      <trkpt lat="43.01568" lon="1.3699">
        <ele>376.2</ele>
        <time>2024-06-23T08:55:32Z</time>
      </trkpt>
      <trkpt lat="43.01572" lon="1.36996">
        <ele>375.8</ele>
        <time>2024-06-23T08:55:33Z</time>
      </trkpt>
      <trkpt lat="43.01577" lon="1.37001">
        <ele>375.8</ele>
        <time>2024-06-23T08:55:34Z</time>
      </trkpt>
      <trkpt lat="43.01582" lon="1.37006">
        <ele>375.8</ele>
        <time>2024-06-23T08:55:35Z</time>
      </trkpt>
      <trkpt lat="43.01586" lon="1.37012">
        <ele>375.8</ele>
        <time>2024-06-23T08:55:36Z</time>
      </trkpt>
      <trkpt lat="43.0159" lon="1.37018">
        <ele>376.2</ele>
        <time>2024-06-23T08:55:37Z</time>
      </trkpt>
      <trkpt lat="43.01595" lon="1.37024">
        <ele>376.2</ele>
        <time>2024-06-23T08:55:38Z</time>
      </trkpt>
      <trkpt lat="43.016" lon="1.37031">
        <ele>376.2</ele>
        <time>2024-06-23T08:55:39Z</time>
      </trkpt>
      <trkpt lat="43.01605" lon="1.37037">
        <ele>376</ele>
        <time>2024-06-23T08:55:40Z</time>
      </trkpt>
      <trkpt lat="43.01609" lon="1.37043">
        <ele>375.6</ele>
        <time>2024-06-23T08:55:41Z</time>
      </trkpt>
      <trkpt lat="43.01613" lon="1.37049">
        <ele>375.6</ele>
        <time>2024-06-23T08:55:42Z</time>
      </trkpt>
      <trkpt lat="43.01617" lon="1.37054">
        <ele>375.2</ele>
        <time>2024-06-23T08:55:43Z</time>
      </trkpt>
      <trkpt lat="43.01622" lon="1.3706">
        <ele>374.8</ele>
        <time>2024-06-23T08:55:44Z</time>
      </trkpt>
      <trkpt lat="43.01627" lon="1.37066">
        <ele>374.6</ele>
        <time>2024-06-23T08:55:45Z</time>
      </trkpt>
      <trkpt lat="43.01634" lon="1.37072">
        <ele>373.6</ele>
        <time>2024-06-23T08:55:46Z</time>
      </trkpt>
      <trkpt lat="43.0164" lon="1.37077">
        <ele>373.2</ele>
        <time>2024-06-23T08:55:47Z</time>
      </trkpt>
      <trkpt lat="43.01649" lon="1.37081">
        <ele>372.6</ele>
        <time>2024-06-23T08:55:48Z</time>
      </trkpt>
      <trkpt lat="43.01656" lon="1.37086">
        <ele>371.8</ele>
        <time>2024-06-23T08:55:49Z</time>
      </trkpt>
      <trkpt lat="43.01663" lon="1.37089">
        <ele>371.2</ele>
        <time>2024-06-23T08:55:50Z</time>
      </trkpt>
      <trkpt lat="43.0167" lon="1.37092">
        <ele>371.2</ele>
        <time>2024-06-23T08:55:51Z</time>
      </trkpt>
      <trkpt lat="43.01675" lon="1.37095">
        <ele>370.8</ele>
        <time>2024-06-23T08:55:52Z</time>
      </trkpt>
      <trkpt lat="43.01679" lon="1.37097">
        <ele>370.8</ele>
        <time>2024-06-23T08:55:53Z</time>
      </trkpt>
      <trkpt lat="43.01682" lon="1.371">
        <ele>370.4</ele>
        <time>2024-06-23T08:55:54Z</time>
      </trkpt>
      <trkpt lat="43.01684" lon="1.37104">
        <ele>370.4</ele>
        <time>2024-06-23T08:55:55Z</time>
      </trkpt>
      <trkpt lat="43.01686" lon="1.37109">
        <ele>370.2</ele>
        <time>2024-06-23T08:55:56Z</time>
      </trkpt>
      <trkpt lat="43.01689" lon="1.37113">
        <ele>370.2</ele>
        <time>2024-06-23T08:55:57Z</time>
      </trkpt>
      <trkpt lat="43.01692" lon="1.37117">
        <ele>369.6</ele>
        <time>2024-06-23T08:55:58Z</time>
      </trkpt>
      <trkpt lat="43.01695" lon="1.3712">
        <ele>369.6</ele>
        <time>2024-06-23T08:55:59Z</time>
      </trkpt>
      <trkpt lat="43.01698" lon="1.37123">
        <ele>369.4</ele>
        <time>2024-06-23T08:56:00Z</time>
      </trkpt>
      <trkpt lat="43.01702" lon="1.37127">
        <ele>369.4</ele>
        <time>2024-06-23T08:56:01Z</time>
      </trkpt>
      <trkpt lat="43.01706" lon="1.3713">
        <ele>369.4</ele>
        <time>2024-06-23T08:56:02Z</time>
      </trkpt>
      <trkpt lat="43.01711" lon="1.37134">
        <ele>369.4</ele>
        <time>2024-06-23T08:56:03Z</time>
      </trkpt>
      <trkpt lat="43.01715" lon="1.37137">
        <ele>369.2</ele>
        <time>2024-06-23T08:56:04Z</time>
      </trkpt>
      <trkpt lat="43.0172" lon="1.37141">
        <ele>369.2</ele>
        <time>2024-06-23T08:56:05Z</time>
      </trkpt>
      <trkpt lat="43.01723" lon="1.37146">
        <ele>369.2</ele>
        <time>2024-06-23T08:56:06Z</time>
      </trkpt>
      <trkpt lat="43.01726" lon="1.37153">
        <ele>369.2</ele>
        <time>2024-06-23T08:56:07Z</time>
      </trkpt>
      <trkpt lat="43.01729" lon="1.37159">
        <ele>368.8</ele>
        <time>2024-06-23T08:56:08Z</time>
      </trkpt>
      <trkpt lat="43.01731" lon="1.37166">
        <ele>368.8</ele>
        <time>2024-06-23T08:56:09Z</time>
      </trkpt>
      <trkpt lat="43.01733" lon="1.37174">
        <ele>369</ele>
        <time>2024-06-23T08:56:10Z</time>
      </trkpt>
      <trkpt lat="43.01734" lon="1.37182">
        <ele>369</ele>
        <time>2024-06-23T08:56:11Z</time>
      </trkpt>
      <trkpt lat="43.01735" lon="1.37189">
        <ele>369</ele>
        <time>2024-06-23T08:56:12Z</time>
      </trkpt>
      <trkpt lat="43.01736" lon="1.37197">
        <ele>368.8</ele>
        <time>2024-06-23T08:56:13Z</time>
      </trkpt>
      <trkpt lat="43.01736" lon="1.37205">
        <ele>368.6</ele>
        <time>2024-06-23T08:56:14Z</time>
      </trkpt>
      <trkpt lat="43.01736" lon="1.37214">
        <ele>368.6</ele>
        <time>2024-06-23T08:56:15Z</time>
      </trkpt>
      <trkpt lat="43.01737" lon="1.37222">
        <ele>368.6</ele>
        <time>2024-06-23T08:56:16Z</time>
      </trkpt>
      <trkpt lat="43.01736" lon="1.37231">
        <ele>368.6</ele>
        <time>2024-06-23T08:56:17Z</time>
      </trkpt>
      <trkpt lat="43.01737" lon="1.37239">
        <ele>368.6</ele>
        <time>2024-06-23T08:56:18Z</time>
      </trkpt>
      <trkpt lat="43.01736" lon="1.37248">
        <ele>368.6</ele>
        <time>2024-06-23T08:56:19Z</time>
      </trkpt>
      <trkpt lat="43.01737" lon="1.37256">
        <ele>368.6</ele>
        <time>2024-06-23T08:56:20Z</time>
      </trkpt>
      <trkpt lat="43.01737" lon="1.37265">
        <ele>368.6</ele>
        <time>2024-06-23T08:56:21Z</time>
      </trkpt>
      <trkpt lat="43.01736" lon="1.37273">
        <ele>368.6</ele>
        <time>2024-06-23T08:56:22Z</time>
      </trkpt>
      <trkpt lat="43.01736" lon="1.37281">
        <ele>368.6</ele>
        <time>2024-06-23T08:56:23Z</time>
      </trkpt>
      <trkpt lat="43.01736" lon="1.3729">
        <ele>368.6</ele>
        <time>2024-06-23T08:56:24Z</time>
      </trkpt>
      <trkpt lat="43.01736" lon="1.37299">
        <ele>368.2</ele>
        <time>2024-06-23T08:56:25Z</time>
      </trkpt>
      <trkpt lat="43.01737" lon="1.37308">
        <ele>368.2</ele>
        <time>2024-06-23T08:56:26Z</time>
      </trkpt>
      <trkpt lat="43.01737" lon="1.37317">
        <ele>368.2</ele>
        <time>2024-06-23T08:56:27Z</time>
      </trkpt>
      <trkpt lat="43.01737" lon="1.37326">
        <ele>368.2</ele>
        <time>2024-06-23T08:56:28Z</time>
      </trkpt>
      <trkpt lat="43.01736" lon="1.37333">
        <ele>368.2</ele>
        <time>2024-06-23T08:56:29Z</time>
      </trkpt>
      <trkpt lat="43.01735" lon="1.37339">
        <ele>368.2</ele>
        <time>2024-06-23T08:56:30Z</time>
      </trkpt>
      <trkpt lat="43.01735" lon="1.37345">
        <ele>368.2</ele>
        <time>2024-06-23T08:56:31Z</time>
      </trkpt>
      <trkpt lat="43.01735" lon="1.3735">
        <ele>367.8</ele>
        <time>2024-06-23T08:56:32Z</time>
      </trkpt>
      <trkpt lat="43.01735" lon="1.37353">
        <ele>367.8</ele>
        <time>2024-06-23T08:56:33Z</time>
      </trkpt>
      <trkpt lat="43.01736" lon="1.37354">
        <ele>367.8</ele>
        <time>2024-06-23T08:56:34Z</time>
      </trkpt>
      <trkpt lat="43.01736" lon="1.37353">
        <ele>367.8</ele>
        <time>2024-06-23T08:56:35Z</time>
      </trkpt>
      <trkpt lat="43.01736" lon="1.37351">
        <ele>367.6</ele>
        <time>2024-06-23T08:56:36Z</time>
      </trkpt>
      <trkpt lat="43.01735" lon="1.37349">
        <ele>367.6</ele>
        <time>2024-06-23T08:56:37Z</time>
      </trkpt>
      <trkpt lat="43.01736" lon="1.37345">
        <ele>367.6</ele>
        <time>2024-06-23T08:56:38Z</time>
      </trkpt>
      <trkpt lat="43.01736" lon="1.37343">
        <ele>367.6</ele>
        <time>2024-06-23T08:56:39Z</time>
      </trkpt>
      <trkpt lat="43.01735" lon="1.3734">
        <ele>367.6</ele>
        <time>2024-06-23T08:56:40Z</time>
      </trkpt>
      <trkpt lat="43.01735" lon="1.37336">
        <ele>367.6</ele>
        <time>2024-06-23T08:56:41Z</time>
      </trkpt>
      <trkpt lat="43.01735" lon="1.37332">
        <ele>367.6</ele>
        <time>2024-06-23T08:56:42Z</time>
      </trkpt>
      <trkpt lat="43.01735" lon="1.37328">
        <ele>367.6</ele>
        <time>2024-06-23T08:56:43Z</time>
      </trkpt>
      <trkpt lat="43.01735" lon="1.37324">
        <ele>367.6</ele>
        <time>2024-06-23T08:56:44Z</time>
      </trkpt>
      <trkpt lat="43.01735" lon="1.37321">
        <ele>367.6</ele>
        <time>2024-06-23T08:56:45Z</time>
      </trkpt>
      <trkpt lat="43.01733" lon="1.3732">
        <ele>367.6</ele>
        <time>2024-06-23T08:56:46Z</time>
      </trkpt>
      <trkpt lat="43.01733" lon="1.3732">
        <ele>367.6</ele>
        <time>2024-06-23T08:56:47Z</time>
      </trkpt>
      <trkpt lat="43.01731" lon="1.3732">
        <ele>367.6</ele>
        <time>2024-06-23T08:56:48Z</time>
      </trkpt>
      <trkpt lat="43.01729" lon="1.37324">
        <ele>367.6</ele>
        <time>2024-06-23T08:56:49Z</time>
      </trkpt>
      <trkpt lat="43.01727" lon="1.37329">
        <ele>367</ele>
        <time>2024-06-23T08:56:50Z</time>
      </trkpt>
      <trkpt lat="43.01727" lon="1.37335">
        <ele>367</ele>
        <time>2024-06-23T08:56:51Z</time>
      </trkpt>
      <trkpt lat="43.01729" lon="1.37345">
        <ele>366.8</ele>
        <time>2024-06-23T08:56:52Z</time>
      </trkpt>
      <trkpt lat="43.01728" lon="1.37351">
        <ele>366.8</ele>
        <time>2024-06-23T08:56:53Z</time>
      </trkpt>
      <trkpt lat="43.01727" lon="1.37358">
        <ele>366.2</ele>
        <time>2024-06-23T08:56:54Z</time>
      </trkpt>
      <trkpt lat="43.01726" lon="1.37365">
        <ele>366</ele>
        <time>2024-06-23T08:56:55Z</time>
      </trkpt>
      <trkpt lat="43.01725" lon="1.3737">
        <ele>366</ele>
        <time>2024-06-23T08:56:56Z</time>
      </trkpt>
      <trkpt lat="43.01722" lon="1.37374">
        <ele>365.6</ele>
        <time>2024-06-23T08:56:57Z</time>
      </trkpt>
      <trkpt lat="43.01719" lon="1.37376">
        <ele>365.2</ele>
        <time>2024-06-23T08:56:58Z</time>
      </trkpt>
      <trkpt lat="43.01716" lon="1.37378">
        <ele>365.2</ele>
        <time>2024-06-23T08:56:59Z</time>
      </trkpt>
      <trkpt lat="43.01713" lon="1.3738">
        <ele>365.2</ele>
        <time>2024-06-23T08:57:00Z</time>
      </trkpt>
      <trkpt lat="43.01708" lon="1.37381">
        <ele>365</ele>
        <time>2024-06-23T08:57:01Z</time>
      </trkpt>
      <trkpt lat="43.01704" lon="1.37381">
        <ele>365</ele>
        <time>2024-06-23T08:57:02Z</time>
      </trkpt>
      <trkpt lat="43.017" lon="1.37387">
        <ele>364.8</ele>
        <time>2024-06-23T08:57:03Z</time>
      </trkpt>
      <trkpt lat="43.01699" lon="1.37392">
        <ele>364.8</ele>
        <time>2024-06-23T08:57:04Z</time>
      </trkpt>
      <trkpt lat="43.017" lon="1.37398">
        <ele>365</ele>
        <time>2024-06-23T08:57:05Z</time>
      </trkpt>
      <trkpt lat="43.01699" lon="1.37403">
        <ele>365.2</ele>
        <time>2024-06-23T08:57:06Z</time>
      </trkpt>
      <trkpt lat="43.017" lon="1.37408">
        <ele>365.2</ele>
        <time>2024-06-23T08:57:07Z</time>
      </trkpt>
      <trkpt lat="43.01701" lon="1.37414">
        <ele>365.2</ele>
        <time>2024-06-23T08:57:08Z</time>
      </trkpt>
      <trkpt lat="43.01702" lon="1.37419">
        <ele>365.4</ele>
        <time>2024-06-23T08:57:09Z</time>
      </trkpt>
      <trkpt lat="43.01702" lon="1.37423">
        <ele>365.8</ele>
        <time>2024-06-23T08:57:10Z</time>
      </trkpt>
      <trkpt lat="43.01704" lon="1.37428">
        <ele>366</ele>
        <time>2024-06-23T08:57:11Z</time>
      </trkpt>
      <trkpt lat="43.01705" lon="1.37433">
        <ele>366</ele>
        <time>2024-06-23T08:57:12Z</time>
      </trkpt>
      <trkpt lat="43.01706" lon="1.37437">
        <ele>366.4</ele>
        <time>2024-06-23T08:57:13Z</time>
      </trkpt>
      <trkpt lat="43.01707" lon="1.37442">
        <ele>366.4</ele>
        <time>2024-06-23T08:57:14Z</time>
      </trkpt>
      <trkpt lat="43.01708" lon="1.37448">
        <ele>366.4</ele>
        <time>2024-06-23T08:57:15Z</time>
      </trkpt>
      <trkpt lat="43.01709" lon="1.37453">
        <ele>366.8</ele>
        <time>2024-06-23T08:57:16Z</time>
      </trkpt>
      <trkpt lat="43.0171" lon="1.37459">
        <ele>366.8</ele>
        <time>2024-06-23T08:57:17Z</time>
      </trkpt>
      <trkpt lat="43.01712" lon="1.37466">
        <ele>367</ele>
        <time>2024-06-23T08:57:18Z</time>
      </trkpt>
      <trkpt lat="43.01712" lon="1.37474">
        <ele>367</ele>
        <time>2024-06-23T08:57:19Z</time>
      </trkpt>
      <trkpt lat="43.01712" lon="1.3748">
        <ele>367</ele>
        <time>2024-06-23T08:57:20Z</time>
      </trkpt>
      <trkpt lat="43.01712" lon="1.37488">
        <ele>367</ele>
        <time>2024-06-23T08:57:21Z</time>
      </trkpt>
      <trkpt lat="43.01712" lon="1.37496">
        <ele>367</ele>
        <time>2024-06-23T08:57:22Z</time>
      </trkpt>
      <trkpt lat="43.01713" lon="1.37504">
        <ele>367</ele>
        <time>2024-06-23T08:57:23Z</time>
      </trkpt>
      <trkpt lat="43.01713" lon="1.37512">
        <ele>367</ele>
        <time>2024-06-23T08:57:24Z</time>
      </trkpt>
      <trkpt lat="43.01714" lon="1.37519">
        <ele>367</ele>
        <time>2024-06-23T08:57:25Z</time>
      </trkpt>
      <trkpt lat="43.01714" lon="1.37527">
        <ele>367</ele>
        <time>2024-06-23T08:57:26Z</time>
      </trkpt>
      <trkpt lat="43.01715" lon="1.37535">
        <ele>367</ele>
        <time>2024-06-23T08:57:27Z</time>
      </trkpt>
      <trkpt lat="43.01715" lon="1.37543">
        <ele>366.8</ele>
        <time>2024-06-23T08:57:28Z</time>
      </trkpt>
      <trkpt lat="43.01715" lon="1.37551">
        <ele>366.8</ele>
        <time>2024-06-23T08:57:29Z</time>
      </trkpt>
      <trkpt lat="43.01714" lon="1.3756">
        <ele>366.4</ele>
        <time>2024-06-23T08:57:30Z</time>
      </trkpt>
      <trkpt lat="43.01713" lon="1.37567">
        <ele>366.4</ele>
        <time>2024-06-23T08:57:31Z</time>
      </trkpt>
      <trkpt lat="43.01713" lon="1.37576">
        <ele>366.4</ele>
        <time>2024-06-23T08:57:32Z</time>
      </trkpt>
      <trkpt lat="43.01712" lon="1.37583">
        <ele>366.4</ele>
        <time>2024-06-23T08:57:33Z</time>
      </trkpt>
      <trkpt lat="43.01711" lon="1.37591">
        <ele>366.4</ele>
        <time>2024-06-23T08:57:34Z</time>
      </trkpt>
      <trkpt lat="43.0171" lon="1.37598">
        <ele>366.8</ele>
        <time>2024-06-23T08:57:35Z</time>
      </trkpt>
      <trkpt lat="43.01709" lon="1.37605">
        <ele>366.8</ele>
        <time>2024-06-23T08:57:36Z</time>
      </trkpt>
      <trkpt lat="43.01708" lon="1.37613">
        <ele>366.8</ele>
        <time>2024-06-23T08:57:37Z</time>
      </trkpt>
      <trkpt lat="43.01707" lon="1.3762">
        <ele>366.8</ele>
        <time>2024-06-23T08:57:38Z</time>
      </trkpt>
      <trkpt lat="43.01707" lon="1.37627">
        <ele>367.2</ele>
        <time>2024-06-23T08:57:39Z</time>
      </trkpt>
      <trkpt lat="43.01706" lon="1.37634">
        <ele>367.2</ele>
        <time>2024-06-23T08:57:40Z</time>
      </trkpt>
      <trkpt lat="43.01705" lon="1.37642">
        <ele>367.2</ele>
        <time>2024-06-23T08:57:41Z</time>
      </trkpt>
      <trkpt lat="43.01704" lon="1.37649">
        <ele>367.6</ele>
        <time>2024-06-23T08:57:42Z</time>
      </trkpt>
      <trkpt lat="43.01703" lon="1.37657">
        <ele>367.6</ele>
        <time>2024-06-23T08:57:43Z</time>
      </trkpt>
      <trkpt lat="43.01702" lon="1.37665">
        <ele>367.6</ele>
        <time>2024-06-23T08:57:44Z</time>
      </trkpt>
      <trkpt lat="43.01702" lon="1.37672">
        <ele>367.6</ele>
        <time>2024-06-23T08:57:45Z</time>
      </trkpt>
      <trkpt lat="43.01701" lon="1.3768">
        <ele>367.6</ele>
        <time>2024-06-23T08:57:46Z</time>
      </trkpt>
      <trkpt lat="43.01701" lon="1.37689">
        <ele>367.6</ele>
        <time>2024-06-23T08:57:47Z</time>
      </trkpt>
      <trkpt lat="43.017" lon="1.37698">
        <ele>367.6</ele>
        <time>2024-06-23T08:57:48Z</time>
      </trkpt>
      <trkpt lat="43.01699" lon="1.37706">
        <ele>367.6</ele>
        <time>2024-06-23T08:57:49Z</time>
      </trkpt>
      <trkpt lat="43.01698" lon="1.37713">
        <ele>367.6</ele>
        <time>2024-06-23T08:57:50Z</time>
      </trkpt>
      <trkpt lat="43.01698" lon="1.37722">
        <ele>367.6</ele>
        <time>2024-06-23T08:57:51Z</time>
      </trkpt>
      <trkpt lat="43.01697" lon="1.37729">
        <ele>367.6</ele>
        <time>2024-06-23T08:57:52Z</time>
      </trkpt>
      <trkpt lat="43.01697" lon="1.37737">
        <ele>367.6</ele>
        <time>2024-06-23T08:57:53Z</time>
      </trkpt>
      <trkpt lat="43.01697" lon="1.37745">
        <ele>368</ele>
        <time>2024-06-23T08:57:54Z</time>
      </trkpt>
      <trkpt lat="43.01696" lon="1.37753">
        <ele>368</ele>
        <time>2024-06-23T08:57:55Z</time>
      </trkpt>
      <trkpt lat="43.01695" lon="1.3776">
        <ele>368</ele>
        <time>2024-06-23T08:57:56Z</time>
      </trkpt>
      <trkpt lat="43.01694" lon="1.37768">
        <ele>368</ele>
        <time>2024-06-23T08:57:57Z</time>
      </trkpt>
      <trkpt lat="43.01692" lon="1.37775">
        <ele>368</ele>
        <time>2024-06-23T08:57:58Z</time>
      </trkpt>
      <trkpt lat="43.01689" lon="1.37781">
        <ele>368</ele>
        <time>2024-06-23T08:57:59Z</time>
      </trkpt>
      <trkpt lat="43.01686" lon="1.37787">
        <ele>368</ele>
        <time>2024-06-23T08:58:00Z</time>
      </trkpt>
      <trkpt lat="43.01684" lon="1.37794">
        <ele>368.4</ele>
        <time>2024-06-23T08:58:01Z</time>
      </trkpt>
      <trkpt lat="43.01682" lon="1.378">
        <ele>368.6</ele>
        <time>2024-06-23T08:58:02Z</time>
      </trkpt>
      <trkpt lat="43.01679" lon="1.37805">
        <ele>368.6</ele>
        <time>2024-06-23T08:58:03Z</time>
      </trkpt>
      <trkpt lat="43.01678" lon="1.37812">
        <ele>369</ele>
        <time>2024-06-23T08:58:04Z</time>
      </trkpt>
      <trkpt lat="43.01679" lon="1.37819">
        <ele>369.4</ele>
        <time>2024-06-23T08:58:05Z</time>
      </trkpt>
      <trkpt lat="43.01679" lon="1.37825">
        <ele>369.4</ele>
        <time>2024-06-23T08:58:06Z</time>
      </trkpt>
      <trkpt lat="43.0168" lon="1.3783">
        <ele>369.6</ele>
        <time>2024-06-23T08:58:07Z</time>
      </trkpt>
      <trkpt lat="43.01682" lon="1.37836">
        <ele>369.4</ele>
        <time>2024-06-23T08:58:08Z</time>
      </trkpt>
      <trkpt lat="43.01687" lon="1.37842">
        <ele>369.4</ele>
        <time>2024-06-23T08:58:09Z</time>
      </trkpt>
      <trkpt lat="43.01692" lon="1.37846">
        <ele>369.4</ele>
        <time>2024-06-23T08:58:10Z</time>
      </trkpt>
      <trkpt lat="43.01696" lon="1.37852">
        <ele>369.4</ele>
        <time>2024-06-23T08:58:11Z</time>
      </trkpt>
      <trkpt lat="43.01699" lon="1.3786">
        <ele>368.8</ele>
        <time>2024-06-23T08:58:12Z</time>
      </trkpt>
      <trkpt lat="43.017" lon="1.37867">
        <ele>368.6</ele>
        <time>2024-06-23T08:58:13Z</time>
      </trkpt>
      <trkpt lat="43.017" lon="1.37876">
        <ele>368.4</ele>
        <time>2024-06-23T08:58:14Z</time>
      </trkpt>
      <trkpt lat="43.01701" lon="1.37884">
        <ele>368.2</ele>
        <time>2024-06-23T08:58:15Z</time>
      </trkpt>
      <trkpt lat="43.01701" lon="1.37892">
        <ele>368.2</ele>
        <time>2024-06-23T08:58:16Z</time>
      </trkpt>
      <trkpt lat="43.01701" lon="1.37901">
        <ele>368.2</ele>
        <time>2024-06-23T08:58:17Z</time>
      </trkpt>
      <trkpt lat="43.01702" lon="1.3791">
        <ele>368</ele>
        <time>2024-06-23T08:58:18Z</time>
      </trkpt>
      <trkpt lat="43.01703" lon="1.37919">
        <ele>368</ele>
        <time>2024-06-23T08:58:19Z</time>
      </trkpt>
      <trkpt lat="43.01704" lon="1.37928">
        <ele>368</ele>
        <time>2024-06-23T08:58:20Z</time>
      </trkpt>
      <trkpt lat="43.01704" lon="1.37936">
        <ele>368</ele>
        <time>2024-06-23T08:58:21Z</time>
      </trkpt>
      <trkpt lat="43.01705" lon="1.37945">
        <ele>367.6</ele>
        <time>2024-06-23T08:58:22Z</time>
      </trkpt>
      <trkpt lat="43.01706" lon="1.37954">
        <ele>367.6</ele>
        <time>2024-06-23T08:58:23Z</time>
      </trkpt>
      <trkpt lat="43.01707" lon="1.37962">
        <ele>367.6</ele>
        <time>2024-06-23T08:58:24Z</time>
      </trkpt>
      <trkpt lat="43.01709" lon="1.37971">
        <ele>367.4</ele>
        <time>2024-06-23T08:58:25Z</time>
      </trkpt>
      <trkpt lat="43.0171" lon="1.3798">
        <ele>367.4</ele>
        <time>2024-06-23T08:58:26Z</time>
      </trkpt>
      <trkpt lat="43.01711" lon="1.37988">
        <ele>367.6</ele>
        <time>2024-06-23T08:58:27Z</time>
      </trkpt>
      <trkpt lat="43.01712" lon="1.37997">
        <ele>367.6</ele>
        <time>2024-06-23T08:58:28Z</time>
      </trkpt>
      <trkpt lat="43.01713" lon="1.38005">
        <ele>367.6</ele>
        <time>2024-06-23T08:58:29Z</time>
      </trkpt>
      <trkpt lat="43.01714" lon="1.38014">
        <ele>367.6</ele>
        <time>2024-06-23T08:58:30Z</time>
      </trkpt>
      <trkpt lat="43.01716" lon="1.38021">
        <ele>367.6</ele>
        <time>2024-06-23T08:58:31Z</time>
      </trkpt>
      <trkpt lat="43.01717" lon="1.3803">
        <ele>367.4</ele>
        <time>2024-06-23T08:58:32Z</time>
      </trkpt>
      <trkpt lat="43.01718" lon="1.38039">
        <ele>367.4</ele>
        <time>2024-06-23T08:58:33Z</time>
      </trkpt>
      <trkpt lat="43.01719" lon="1.38047">
        <ele>367.4</ele>
        <time>2024-06-23T08:58:34Z</time>
      </trkpt>
      <trkpt lat="43.0172" lon="1.38055">
        <ele>367.4</ele>
        <time>2024-06-23T08:58:35Z</time>
      </trkpt>
      <trkpt lat="43.01721" lon="1.38063">
        <ele>367.4</ele>
        <time>2024-06-23T08:58:36Z</time>
      </trkpt>
      <trkpt lat="43.01722" lon="1.38071">
        <ele>367.4</ele>
        <time>2024-06-23T08:58:37Z</time>
      </trkpt>
      <trkpt lat="43.01723" lon="1.3808">
        <ele>367.4</ele>
        <time>2024-06-23T08:58:38Z</time>
      </trkpt>
      <trkpt lat="43.01724" lon="1.38088">
        <ele>367.6</ele>
        <time>2024-06-23T08:58:39Z</time>
      </trkpt>
      <trkpt lat="43.01725" lon="1.38096">
        <ele>367.6</ele>
        <time>2024-06-23T08:58:40Z</time>
      </trkpt>
      <trkpt lat="43.01727" lon="1.38104">
        <ele>367.6</ele>
        <time>2024-06-23T08:58:41Z</time>
      </trkpt>
      <trkpt lat="43.01728" lon="1.38113">
        <ele>368</ele>
        <time>2024-06-23T08:58:42Z</time>
      </trkpt>
      <trkpt lat="43.01729" lon="1.38121">
        <ele>368</ele>
        <time>2024-06-23T08:58:43Z</time>
      </trkpt>
      <trkpt lat="43.01731" lon="1.38129">
        <ele>368</ele>
        <time>2024-06-23T08:58:44Z</time>
      </trkpt>
      <trkpt lat="43.01732" lon="1.38137">
        <ele>368.2</ele>
        <time>2024-06-23T08:58:45Z</time>
      </trkpt>
      <trkpt lat="43.01732" lon="1.38145">
        <ele>368.2</ele>
        <time>2024-06-23T08:58:46Z</time>
      </trkpt>
      <trkpt lat="43.01733" lon="1.38153">
        <ele>368.2</ele>
        <time>2024-06-23T08:58:47Z</time>
      </trkpt>
      <trkpt lat="43.01734" lon="1.38169">
        <ele>368.8</ele>
        <time>2024-06-23T08:58:48Z</time>
      </trkpt>
      <trkpt lat="43.01735" lon="1.38177">
        <ele>368.6</ele>
        <time>2024-06-23T08:58:49Z</time>
      </trkpt>
      <trkpt lat="43.01735" lon="1.38185">
        <ele>368.6</ele>
        <time>2024-06-23T08:58:50Z</time>
      </trkpt>
      <trkpt lat="43.01735" lon="1.38193">
        <ele>368.8</ele>
        <time>2024-06-23T08:58:51Z</time>
      </trkpt>
      <trkpt lat="43.01735" lon="1.38201">
        <ele>368.8</ele>
        <time>2024-06-23T08:58:52Z</time>
      </trkpt>
      <trkpt lat="43.01736" lon="1.38209">
        <ele>368.8</ele>
        <time>2024-06-23T08:58:53Z</time>
      </trkpt>
      <trkpt lat="43.01736" lon="1.38216">
        <ele>369.4</ele>
        <time>2024-06-23T08:58:54Z</time>
      </trkpt>
      <trkpt lat="43.01736" lon="1.38225">
        <ele>369</ele>
        <time>2024-06-23T08:58:55Z</time>
      </trkpt>
      <trkpt lat="43.01736" lon="1.38232">
        <ele>369</ele>
        <time>2024-06-23T08:58:56Z</time>
      </trkpt>
      <trkpt lat="43.01736" lon="1.3824">
        <ele>369.4</ele>
        <time>2024-06-23T08:58:57Z</time>
      </trkpt>
      <trkpt lat="43.01736" lon="1.38249">
        <ele>369.4</ele>
        <time>2024-06-23T08:58:58Z</time>
      </trkpt>
      <trkpt lat="43.01735" lon="1.38257">
        <ele>369</ele>
        <time>2024-06-23T08:58:59Z</time>
      </trkpt>
      <trkpt lat="43.01735" lon="1.38265">
        <ele>369</ele>
        <time>2024-06-23T08:59:00Z</time>
      </trkpt>
      <trkpt lat="43.01735" lon="1.38274">
        <ele>368.6</ele>
        <time>2024-06-23T08:59:01Z</time>
      </trkpt>
      <trkpt lat="43.01734" lon="1.38282">
        <ele>369.2</ele>
        <time>2024-06-23T08:59:02Z</time>
      </trkpt>
      <trkpt lat="43.01733" lon="1.3829">
        <ele>369</ele>
        <time>2024-06-23T08:59:03Z</time>
      </trkpt>
      <trkpt lat="43.01733" lon="1.38298">
        <ele>369.2</ele>
        <time>2024-06-23T08:59:04Z</time>
      </trkpt>
      <trkpt lat="43.01732" lon="1.38306">
        <ele>369</ele>
        <time>2024-06-23T08:59:05Z</time>
      </trkpt>
      <trkpt lat="43.01731" lon="1.38314">
        <ele>369.2</ele>
        <time>2024-06-23T08:59:06Z</time>
      </trkpt>
      <trkpt lat="43.01731" lon="1.38322">
        <ele>370</ele>
        <time>2024-06-23T08:59:07Z</time>
      </trkpt>
      <trkpt lat="43.0173" lon="1.3833">
        <ele>370</ele>
        <time>2024-06-23T08:59:08Z</time>
      </trkpt>
      <trkpt lat="43.01729" lon="1.38338">
        <ele>370.2</ele>
        <time>2024-06-23T08:59:09Z</time>
      </trkpt>
      <trkpt lat="43.01728" lon="1.38346">
        <ele>370.2</ele>
        <time>2024-06-23T08:59:10Z</time>
      </trkpt>
      <trkpt lat="43.01727" lon="1.38354">
        <ele>370.4</ele>
        <time>2024-06-23T08:59:11Z</time>
      </trkpt>
      <trkpt lat="43.01727" lon="1.38362">
        <ele>370.4</ele>
        <time>2024-06-23T08:59:12Z</time>
      </trkpt>
      <trkpt lat="43.01726" lon="1.3837">
        <ele>370.4</ele>
        <time>2024-06-23T08:59:13Z</time>
      </trkpt>
      <trkpt lat="43.01725" lon="1.38378">
        <ele>370.4</ele>
        <time>2024-06-23T08:59:14Z</time>
      </trkpt>
      <trkpt lat="43.01724" lon="1.38386">
        <ele>370.4</ele>
        <time>2024-06-23T08:59:15Z</time>
      </trkpt>
      <trkpt lat="43.01723" lon="1.38394">
        <ele>370.4</ele>
        <time>2024-06-23T08:59:16Z</time>
      </trkpt>
      <trkpt lat="43.01722" lon="1.38402">
        <ele>370.8</ele>
        <time>2024-06-23T08:59:17Z</time>
      </trkpt>
      <trkpt lat="43.01721" lon="1.3841">
        <ele>370.8</ele>
        <time>2024-06-23T08:59:18Z</time>
      </trkpt>
      <trkpt lat="43.01721" lon="1.38419">
        <ele>370.4</ele>
        <time>2024-06-23T08:59:19Z</time>
      </trkpt>
      <trkpt lat="43.0172" lon="1.38427">
        <ele>370.4</ele>
        <time>2024-06-23T08:59:20Z</time>
      </trkpt>
      <trkpt lat="43.01719" lon="1.38435">
        <ele>371</ele>
        <time>2024-06-23T08:59:21Z</time>
      </trkpt>
      <trkpt lat="43.01718" lon="1.38443">
        <ele>371</ele>
        <time>2024-06-23T08:59:22Z</time>
      </trkpt>
      <trkpt lat="43.01717" lon="1.38451">
        <ele>371</ele>
        <time>2024-06-23T08:59:23Z</time>
      </trkpt>
      <trkpt lat="43.01717" lon="1.38459">
        <ele>371</ele>
        <time>2024-06-23T08:59:24Z</time>
      </trkpt>
      <trkpt lat="43.01716" lon="1.38467">
        <ele>371</ele>
        <time>2024-06-23T08:59:25Z</time>
      </trkpt>
      <trkpt lat="43.01716" lon="1.38475">
        <ele>371.4</ele>
        <time>2024-06-23T08:59:26Z</time>
      </trkpt>
      <trkpt lat="43.01716" lon="1.38483">
        <ele>371.4</ele>
        <time>2024-06-23T08:59:27Z</time>
      </trkpt>
      <trkpt lat="43.01716" lon="1.3849">
        <ele>371.6</ele>
        <time>2024-06-23T08:59:28Z</time>
      </trkpt>
      <trkpt lat="43.01715" lon="1.38496">
        <ele>371.8</ele>
        <time>2024-06-23T08:59:29Z</time>
      </trkpt>
      <trkpt lat="43.01714" lon="1.38504">
        <ele>371.6</ele>
        <time>2024-06-23T08:59:30Z</time>
      </trkpt>
      <trkpt lat="43.01714" lon="1.38512">
        <ele>371.6</ele>
        <time>2024-06-23T08:59:31Z</time>
      </trkpt>
      <trkpt lat="43.01713" lon="1.3852">
        <ele>371.8</ele>
        <time>2024-06-23T08:59:32Z</time>
      </trkpt>
      <trkpt lat="43.01713" lon="1.38527">
        <ele>371.8</ele>
        <time>2024-06-23T08:59:33Z</time>
      </trkpt>
      <trkpt lat="43.01712" lon="1.38536">
        <ele>372</ele>
        <time>2024-06-23T08:59:34Z</time>
      </trkpt>
      <trkpt lat="43.01712" lon="1.38544">
        <ele>372</ele>
        <time>2024-06-23T08:59:35Z</time>
      </trkpt>
      <trkpt lat="43.01711" lon="1.38552">
        <ele>372</ele>
        <time>2024-06-23T08:59:36Z</time>
      </trkpt>
      <trkpt lat="43.0171" lon="1.38559">
        <ele>371.8</ele>
        <time>2024-06-23T08:59:37Z</time>
      </trkpt>
      <trkpt lat="43.01709" lon="1.38568">
        <ele>371.6</ele>
        <time>2024-06-23T08:59:38Z</time>
      </trkpt>
      <trkpt lat="43.01708" lon="1.38576">
        <ele>371.6</ele>
        <time>2024-06-23T08:59:39Z</time>
      </trkpt>
      <trkpt lat="43.01707" lon="1.38584">
        <ele>371.4</ele>
        <time>2024-06-23T08:59:40Z</time>
      </trkpt>
      <trkpt lat="43.01707" lon="1.38593">
        <ele>371.4</ele>
        <time>2024-06-23T08:59:41Z</time>
      </trkpt>
      <trkpt lat="43.01706" lon="1.38601">
        <ele>371</ele>
        <time>2024-06-23T08:59:42Z</time>
      </trkpt>
      <trkpt lat="43.01706" lon="1.3861">
        <ele>371.4</ele>
        <time>2024-06-23T08:59:43Z</time>
      </trkpt>
      <trkpt lat="43.01705" lon="1.38618">
        <ele>371.6</ele>
        <time>2024-06-23T08:59:44Z</time>
      </trkpt>
      <trkpt lat="43.01704" lon="1.38627">
        <ele>371.2</ele>
        <time>2024-06-23T08:59:45Z</time>
      </trkpt>
      <trkpt lat="43.01703" lon="1.38635">
        <ele>371.2</ele>
        <time>2024-06-23T08:59:46Z</time>
      </trkpt>
      <trkpt lat="43.01703" lon="1.38643">
        <ele>371.2</ele>
        <time>2024-06-23T08:59:47Z</time>
      </trkpt>
      <trkpt lat="43.01703" lon="1.38651">
        <ele>371.2</ele>
        <time>2024-06-23T08:59:48Z</time>
      </trkpt>
      <trkpt lat="43.01702" lon="1.38659">
        <ele>371.2</ele>
        <time>2024-06-23T08:59:49Z</time>
      </trkpt>
      <trkpt lat="43.01702" lon="1.38667">
        <ele>371.4</ele>
        <time>2024-06-23T08:59:50Z</time>
      </trkpt>
      <trkpt lat="43.01703" lon="1.38675">
        <ele>371.2</ele>
        <time>2024-06-23T08:59:51Z</time>
      </trkpt>
      <trkpt lat="43.01702" lon="1.38683">
        <ele>371.4</ele>
        <time>2024-06-23T08:59:52Z</time>
      </trkpt>
      <trkpt lat="43.01703" lon="1.38691">
        <ele>371.4</ele>
        <time>2024-06-23T08:59:53Z</time>
      </trkpt>
      <trkpt lat="43.01704" lon="1.38699">
        <ele>371.4</ele>
        <time>2024-06-23T08:59:54Z</time>
      </trkpt>
      <trkpt lat="43.01703" lon="1.38707">
        <ele>371.2</ele>
        <time>2024-06-23T08:59:55Z</time>
      </trkpt>
      <trkpt lat="43.01704" lon="1.38715">
        <ele>371.4</ele>
        <time>2024-06-23T08:59:56Z</time>
      </trkpt>
      <trkpt lat="43.01704" lon="1.38723">
        <ele>371.8</ele>
        <time>2024-06-23T08:59:57Z</time>
      </trkpt>
      <trkpt lat="43.01705" lon="1.38731">
        <ele>371.4</ele>
        <time>2024-06-23T08:59:58Z</time>
      </trkpt>
      <trkpt lat="43.01706" lon="1.38738">
        <ele>371.4</ele>
        <time>2024-06-23T08:59:59Z</time>
      </trkpt>
      <trkpt lat="43.01707" lon="1.38746">
        <ele>371.4</ele>
        <time>2024-06-23T09:00:00Z</time>
      </trkpt>
      <trkpt lat="43.01709" lon="1.38754">
        <ele>371.8</ele>
        <time>2024-06-23T09:00:01Z</time>
      </trkpt>
      <trkpt lat="43.0171" lon="1.38762">
        <ele>371.8</ele>
        <time>2024-06-23T09:00:02Z</time>
      </trkpt>
      <trkpt lat="43.01712" lon="1.38769">
        <ele>371.8</ele>
        <time>2024-06-23T09:00:03Z</time>
      </trkpt>
      <trkpt lat="43.01713" lon="1.38777">
        <ele>371.8</ele>
        <time>2024-06-23T09:00:04Z</time>
      </trkpt>
      <trkpt lat="43.01715" lon="1.38784">
        <ele>372</ele>
        <time>2024-06-23T09:00:05Z</time>
      </trkpt>
      <trkpt lat="43.01717" lon="1.38791">
        <ele>372.4</ele>
        <time>2024-06-23T09:00:06Z</time>
      </trkpt>
      <trkpt lat="43.01719" lon="1.38799">
        <ele>372.4</ele>
        <time>2024-06-23T09:00:07Z</time>
      </trkpt>
      <trkpt lat="43.01721" lon="1.38806">
        <ele>372.4</ele>
        <time>2024-06-23T09:00:08Z</time>
      </trkpt>
      <trkpt lat="43.01723" lon="1.38814">
        <ele>372.4</ele>
        <time>2024-06-23T09:00:09Z</time>
      </trkpt>
      <trkpt lat="43.01725" lon="1.38821">
        <ele>372.4</ele>
        <time>2024-06-23T09:00:10Z</time>
      </trkpt>
      <trkpt lat="43.01727" lon="1.38829">
        <ele>372.4</ele>
        <time>2024-06-23T09:00:11Z</time>
      </trkpt>
      <trkpt lat="43.01729" lon="1.38836">
        <ele>372.4</ele>
        <time>2024-06-23T09:00:12Z</time>
      </trkpt>
      <trkpt lat="43.0173" lon="1.38844">
        <ele>372.4</ele>
        <time>2024-06-23T09:00:13Z</time>
      </trkpt>
      <trkpt lat="43.01733" lon="1.3885">
        <ele>372.4</ele>
        <time>2024-06-23T09:00:14Z</time>
      </trkpt>
      <trkpt lat="43.01735" lon="1.38858">
        <ele>372.4</ele>
        <time>2024-06-23T09:00:15Z</time>
      </trkpt>
      <trkpt lat="43.01737" lon="1.38866">
        <ele>372.4</ele>
        <time>2024-06-23T09:00:16Z</time>
      </trkpt>
      <trkpt lat="43.01739" lon="1.38874">
        <ele>372.4</ele>
        <time>2024-06-23T09:00:17Z</time>
      </trkpt>
      <trkpt lat="43.01741" lon="1.38882">
        <ele>372.4</ele>
        <time>2024-06-23T09:00:18Z</time>
      </trkpt>
      <trkpt lat="43.01743" lon="1.38889">
        <ele>372.4</ele>
        <time>2024-06-23T09:00:19Z</time>
      </trkpt>
      <trkpt lat="43.01745" lon="1.38897">
        <ele>372</ele>
        <time>2024-06-23T09:00:20Z</time>
      </trkpt>
      <trkpt lat="43.01747" lon="1.38905">
        <ele>372</ele>
        <time>2024-06-23T09:00:21Z</time>
      </trkpt>
      <trkpt lat="43.0175" lon="1.38913">
        <ele>372.4</ele>
        <time>2024-06-23T09:00:22Z</time>
      </trkpt>
      <trkpt lat="43.01752" lon="1.38921">
        <ele>372.4</ele>
        <time>2024-06-23T09:00:23Z</time>
      </trkpt>
      <trkpt lat="43.01754" lon="1.38929">
        <ele>372</ele>
        <time>2024-06-23T09:00:24Z</time>
      </trkpt>
      <trkpt lat="43.01756" lon="1.38936">
        <ele>372</ele>
        <time>2024-06-23T09:00:25Z</time>
      </trkpt>
      <trkpt lat="43.01758" lon="1.38944">
        <ele>372</ele>
        <time>2024-06-23T09:00:26Z</time>
      </trkpt>
      <trkpt lat="43.0176" lon="1.38952">
        <ele>372</ele>
        <time>2024-06-23T09:00:27Z</time>
      </trkpt>
      <trkpt lat="43.01762" lon="1.3896">
        <ele>372</ele>
        <time>2024-06-23T09:00:28Z</time>
      </trkpt>
      <trkpt lat="43.01764" lon="1.38968">
        <ele>372</ele>
        <time>2024-06-23T09:00:29Z</time>
      </trkpt>
      <trkpt lat="43.01767" lon="1.38977">
        <ele>371.8</ele>
        <time>2024-06-23T09:00:30Z</time>
      </trkpt>
      <trkpt lat="43.01769" lon="1.38985">
        <ele>371.8</ele>
        <time>2024-06-23T09:00:31Z</time>
      </trkpt>
      <trkpt lat="43.0177" lon="1.38993">
        <ele>372</ele>
        <time>2024-06-23T09:00:32Z</time>
      </trkpt>
      <trkpt lat="43.01772" lon="1.39001">
        <ele>372</ele>
        <time>2024-06-23T09:00:33Z</time>
      </trkpt>
      <trkpt lat="43.01774" lon="1.39009">
        <ele>372.2</ele>
        <time>2024-06-23T09:00:34Z</time>
      </trkpt>
      <trkpt lat="43.01776" lon="1.39018">
        <ele>372.4</ele>
        <time>2024-06-23T09:00:35Z</time>
      </trkpt>
      <trkpt lat="43.01778" lon="1.39026">
        <ele>372.4</ele>
        <time>2024-06-23T09:00:36Z</time>
      </trkpt>
      <trkpt lat="43.0178" lon="1.39034">
        <ele>372.4</ele>
        <time>2024-06-23T09:00:37Z</time>
      </trkpt>
      <trkpt lat="43.01781" lon="1.39042">
        <ele>372.4</ele>
        <time>2024-06-23T09:00:38Z</time>
      </trkpt>
      <trkpt lat="43.01782" lon="1.3905">
        <ele>372.4</ele>
        <time>2024-06-23T09:00:39Z</time>
      </trkpt>
      <trkpt lat="43.01783" lon="1.39058">
        <ele>372.4</ele>
        <time>2024-06-23T09:00:40Z</time>
      </trkpt>
      <trkpt lat="43.01784" lon="1.39066">
        <ele>372.8</ele>
        <time>2024-06-23T09:00:41Z</time>
      </trkpt>
      <trkpt lat="43.01785" lon="1.39075">
        <ele>372.8</ele>
        <time>2024-06-23T09:00:42Z</time>
      </trkpt>
      <trkpt lat="43.01785" lon="1.39083">
        <ele>372.8</ele>
        <time>2024-06-23T09:00:43Z</time>
      </trkpt>
      <trkpt lat="43.01785" lon="1.39091">
        <ele>372.8</ele>
        <time>2024-06-23T09:00:44Z</time>
      </trkpt>
      <trkpt lat="43.01786" lon="1.39099">
        <ele>372.8</ele>
        <time>2024-06-23T09:00:45Z</time>
      </trkpt>
      <trkpt lat="43.01786" lon="1.39107">
        <ele>372.8</ele>
        <time>2024-06-23T09:00:46Z</time>
      </trkpt>
      <trkpt lat="43.01787" lon="1.39115">
        <ele>372.8</ele>
        <time>2024-06-23T09:00:47Z</time>
      </trkpt>
      <trkpt lat="43.01787" lon="1.39123">
        <ele>372.8</ele>
        <time>2024-06-23T09:00:48Z</time>
      </trkpt>
      <trkpt lat="43.01787" lon="1.3913">
        <ele>373.2</ele>
        <time>2024-06-23T09:00:49Z</time>
      </trkpt>
      <trkpt lat="43.01786" lon="1.39138">
        <ele>373.2</ele>
        <time>2024-06-23T09:00:50Z</time>
      </trkpt>
      <trkpt lat="43.01786" lon="1.39146">
        <ele>373.2</ele>
        <time>2024-06-23T09:00:51Z</time>
      </trkpt>
      <trkpt lat="43.01785" lon="1.39154">
        <ele>373.2</ele>
        <time>2024-06-23T09:00:52Z</time>
      </trkpt>
      <trkpt lat="43.01786" lon="1.39162">
        <ele>373.2</ele>
        <time>2024-06-23T09:00:53Z</time>
      </trkpt>
      <trkpt lat="43.01785" lon="1.3917">
        <ele>373.2</ele>
        <time>2024-06-23T09:00:54Z</time>
      </trkpt>
      <trkpt lat="43.01785" lon="1.39178">
        <ele>373.4</ele>
        <time>2024-06-23T09:00:55Z</time>
      </trkpt>
      <trkpt lat="43.01784" lon="1.39186">
        <ele>373.4</ele>
        <time>2024-06-23T09:00:56Z</time>
      </trkpt>
      <trkpt lat="43.01783" lon="1.39194">
        <ele>373.4</ele>
        <time>2024-06-23T09:00:57Z</time>
      </trkpt>
      <trkpt lat="43.01782" lon="1.39202">
        <ele>373.4</ele>
        <time>2024-06-23T09:00:58Z</time>
      </trkpt>
      <trkpt lat="43.01781" lon="1.3921">
        <ele>373.6</ele>
        <time>2024-06-23T09:00:59Z</time>
      </trkpt>
      <trkpt lat="43.0178" lon="1.39218">
        <ele>373.6</ele>
        <time>2024-06-23T09:01:00Z</time>
      </trkpt>
      <trkpt lat="43.01779" lon="1.39226">
        <ele>373.6</ele>
        <time>2024-06-23T09:01:01Z</time>
      </trkpt>
      <trkpt lat="43.01779" lon="1.39235">
        <ele>373.6</ele>
        <time>2024-06-23T09:01:02Z</time>
      </trkpt>
      <trkpt lat="43.01778" lon="1.39243">
        <ele>373.6</ele>
        <time>2024-06-23T09:01:03Z</time>
      </trkpt>
      <trkpt lat="43.01777" lon="1.39251">
        <ele>373.6</ele>
        <time>2024-06-23T09:01:04Z</time>
      </trkpt>
      <trkpt lat="43.01777" lon="1.39258">
        <ele>373.8</ele>
        <time>2024-06-23T09:01:05Z</time>
      </trkpt>
      <trkpt lat="43.01777" lon="1.39266">
        <ele>374.2</ele>
        <time>2024-06-23T09:01:06Z</time>
      </trkpt>
      <trkpt lat="43.01776" lon="1.39274">
        <ele>374.4</ele>
        <time>2024-06-23T09:01:07Z</time>
      </trkpt>
      <trkpt lat="43.01775" lon="1.39281">
        <ele>374.4</ele>
        <time>2024-06-23T09:01:08Z</time>
      </trkpt>
      <trkpt lat="43.01774" lon="1.39289">
        <ele>374.6</ele>
        <time>2024-06-23T09:01:09Z</time>
      </trkpt>
      <trkpt lat="43.01774" lon="1.39297">
        <ele>374.6</ele>
        <time>2024-06-23T09:01:10Z</time>
      </trkpt>
      <trkpt lat="43.01773" lon="1.39304">
        <ele>374.6</ele>
        <time>2024-06-23T09:01:11Z</time>
      </trkpt>
      <trkpt lat="43.01771" lon="1.39312">
        <ele>374.6</ele>
        <time>2024-06-23T09:01:12Z</time>
      </trkpt>
      <trkpt lat="43.01771" lon="1.39319">
        <ele>374.8</ele>
        <time>2024-06-23T09:01:13Z</time>
      </trkpt>
      <trkpt lat="43.0177" lon="1.39327">
        <ele>374.8</ele>
        <time>2024-06-23T09:01:14Z</time>
      </trkpt>
      <trkpt lat="43.01769" lon="1.39335">
        <ele>374.8</ele>
        <time>2024-06-23T09:01:15Z</time>
      </trkpt>
      <trkpt lat="43.01769" lon="1.39343">
        <ele>374.8</ele>
        <time>2024-06-23T09:01:16Z</time>
      </trkpt>
      <trkpt lat="43.01768" lon="1.39351">
        <ele>374.8</ele>
        <time>2024-06-23T09:01:17Z</time>
      </trkpt>
      <trkpt lat="43.01767" lon="1.39358">
        <ele>374.8</ele>
        <time>2024-06-23T09:01:18Z</time>
      </trkpt>
      <trkpt lat="43.01766" lon="1.39367">
        <ele>374.8</ele>
        <time>2024-06-23T09:01:19Z</time>
      </trkpt>
      <trkpt lat="43.01766" lon="1.39374">
        <ele>374.8</ele>
        <time>2024-06-23T09:01:20Z</time>
      </trkpt>
      <trkpt lat="43.01766" lon="1.39374">
        <ele>374.8</ele>
        <time>2024-06-23T09:01:21Z</time>
      </trkpt>
      <trkpt lat="43.01765" lon="1.39382">
        <ele>375</ele>
        <time>2024-06-23T09:01:22Z</time>
      </trkpt>
      <trkpt lat="43.01765" lon="1.39389">
        <ele>375</ele>
        <time>2024-06-23T09:01:23Z</time>
      </trkpt>
      <trkpt lat="43.01765" lon="1.39397">
        <ele>375</ele>
        <time>2024-06-23T09:01:24Z</time>
      </trkpt>
      <trkpt lat="43.01765" lon="1.39405">
        <ele>375.2</ele>
        <time>2024-06-23T09:01:25Z</time>
      </trkpt>
      <trkpt lat="43.01764" lon="1.39413">
        <ele>375.2</ele>
        <time>2024-06-23T09:01:26Z</time>
      </trkpt>
      <trkpt lat="43.01764" lon="1.39421">
        <ele>375.6</ele>
        <time>2024-06-23T09:01:27Z</time>
      </trkpt>
      <trkpt lat="43.01764" lon="1.39428">
        <ele>375.6</ele>
        <time>2024-06-23T09:01:28Z</time>
      </trkpt>
      <trkpt lat="43.01763" lon="1.39436">
        <ele>375.6</ele>
        <time>2024-06-23T09:01:29Z</time>
      </trkpt>
      <trkpt lat="43.01762" lon="1.39443">
        <ele>375.6</ele>
        <time>2024-06-23T09:01:30Z</time>
      </trkpt>
      <trkpt lat="43.01762" lon="1.39451">
        <ele>375.6</ele>
        <time>2024-06-23T09:01:31Z</time>
      </trkpt>
      <trkpt lat="43.01761" lon="1.39459">
        <ele>375.8</ele>
        <time>2024-06-23T09:01:32Z</time>
      </trkpt>
      <trkpt lat="43.0176" lon="1.39468">
        <ele>375.8</ele>
        <time>2024-06-23T09:01:33Z</time>
      </trkpt>
      <trkpt lat="43.01759" lon="1.39475">
        <ele>375.8</ele>
        <time>2024-06-23T09:01:34Z</time>
      </trkpt>
      <trkpt lat="43.01759" lon="1.39483">
        <ele>376</ele>
        <time>2024-06-23T09:01:35Z</time>
      </trkpt>
      <trkpt lat="43.01759" lon="1.39491">
        <ele>376</ele>
        <time>2024-06-23T09:01:36Z</time>
      </trkpt>
      <trkpt lat="43.01758" lon="1.39499">
        <ele>376</ele>
        <time>2024-06-23T09:01:37Z</time>
      </trkpt>
      <trkpt lat="43.01758" lon="1.39507">
        <ele>376</ele>
        <time>2024-06-23T09:01:38Z</time>
      </trkpt>
      <trkpt lat="43.01757" lon="1.39515">
        <ele>376</ele>
        <time>2024-06-23T09:01:39Z</time>
      </trkpt>
      <trkpt lat="43.01757" lon="1.39523">
        <ele>376</ele>
        <time>2024-06-23T09:01:40Z</time>
      </trkpt>
      <trkpt lat="43.01756" lon="1.3953">
        <ele>376</ele>
        <time>2024-06-23T09:01:41Z</time>
      </trkpt>
      <trkpt lat="43.01756" lon="1.39538">
        <ele>376</ele>
        <time>2024-06-23T09:01:42Z</time>
      </trkpt>
      <trkpt lat="43.01755" lon="1.39545">
        <ele>376</ele>
        <time>2024-06-23T09:01:43Z</time>
      </trkpt>
      <trkpt lat="43.01755" lon="1.39552">
        <ele>376.6</ele>
        <time>2024-06-23T09:01:44Z</time>
      </trkpt>
      <trkpt lat="43.01755" lon="1.3956">
        <ele>376.6</ele>
        <time>2024-06-23T09:01:45Z</time>
      </trkpt>
      <trkpt lat="43.01754" lon="1.39567">
        <ele>376.6</ele>
        <time>2024-06-23T09:01:46Z</time>
      </trkpt>
      <trkpt lat="43.01754" lon="1.39575">
        <ele>376.8</ele>
        <time>2024-06-23T09:01:47Z</time>
      </trkpt>
      <trkpt lat="43.01752" lon="1.39583">
        <ele>377</ele>
        <time>2024-06-23T09:01:48Z</time>
      </trkpt>
      <trkpt lat="43.01752" lon="1.39591">
        <ele>377</ele>
        <time>2024-06-23T09:01:49Z</time>
      </trkpt>
      <trkpt lat="43.0175" lon="1.39599">
        <ele>377</ele>
        <time>2024-06-23T09:01:50Z</time>
      </trkpt>
      <trkpt lat="43.0175" lon="1.39607">
        <ele>377</ele>
        <time>2024-06-23T09:01:51Z</time>
      </trkpt>
      <trkpt lat="43.01749" lon="1.39615">
        <ele>377</ele>
        <time>2024-06-23T09:01:52Z</time>
      </trkpt>
      <trkpt lat="43.01749" lon="1.39623">
        <ele>377</ele>
        <time>2024-06-23T09:01:53Z</time>
      </trkpt>
      <trkpt lat="43.01748" lon="1.39632">
        <ele>377.4</ele>
        <time>2024-06-23T09:01:54Z</time>
      </trkpt>
      <trkpt lat="43.01747" lon="1.39639">
        <ele>377.4</ele>
        <time>2024-06-23T09:01:55Z</time>
      </trkpt>
      <trkpt lat="43.01747" lon="1.39647">
        <ele>377.4</ele>
        <time>2024-06-23T09:01:56Z</time>
      </trkpt>
      <trkpt lat="43.01747" lon="1.39655">
        <ele>377.8</ele>
        <time>2024-06-23T09:01:57Z</time>
      </trkpt>
      <trkpt lat="43.01746" lon="1.39663">
        <ele>377.8</ele>
        <time>2024-06-23T09:01:58Z</time>
      </trkpt>
      <trkpt lat="43.01745" lon="1.39671">
        <ele>377.8</ele>
        <time>2024-06-23T09:01:59Z</time>
      </trkpt>
      <trkpt lat="43.01745" lon="1.39679">
        <ele>378.2</ele>
        <time>2024-06-23T09:02:00Z</time>
      </trkpt>
      <trkpt lat="43.01744" lon="1.39687">
        <ele>378.2</ele>
        <time>2024-06-23T09:02:01Z</time>
      </trkpt>
      <trkpt lat="43.01743" lon="1.39695">
        <ele>378.2</ele>
        <time>2024-06-23T09:02:02Z</time>
      </trkpt>
      <trkpt lat="43.01743" lon="1.39703">
        <ele>378.2</ele>
        <time>2024-06-23T09:02:03Z</time>
      </trkpt>
      <trkpt lat="43.01742" lon="1.39711">
        <ele>378.2</ele>
        <time>2024-06-23T09:02:04Z</time>
      </trkpt>
      <trkpt lat="43.01741" lon="1.39719">
        <ele>378.2</ele>
        <time>2024-06-23T09:02:05Z</time>
      </trkpt>
      <trkpt lat="43.01741" lon="1.39727">
        <ele>378.4</ele>
        <time>2024-06-23T09:02:06Z</time>
      </trkpt>
      <trkpt lat="43.0174" lon="1.39735">
        <ele>378.4</ele>
        <time>2024-06-23T09:02:07Z</time>
      </trkpt>
      <trkpt lat="43.0174" lon="1.39742">
        <ele>378.4</ele>
        <time>2024-06-23T09:02:08Z</time>
      </trkpt>
      <trkpt lat="43.01739" lon="1.3975">
        <ele>378.4</ele>
        <time>2024-06-23T09:02:09Z</time>
      </trkpt>
      <trkpt lat="43.01739" lon="1.39758">
        <ele>378.4</ele>
        <time>2024-06-23T09:02:10Z</time>
      </trkpt>
      <trkpt lat="43.01738" lon="1.39766">
        <ele>378.4</ele>
        <time>2024-06-23T09:02:11Z</time>
      </trkpt>
      <trkpt lat="43.01738" lon="1.39774">
        <ele>378.4</ele>
        <time>2024-06-23T09:02:12Z</time>
      </trkpt>
      <trkpt lat="43.01738" lon="1.39782">
        <ele>378.6</ele>
        <time>2024-06-23T09:02:13Z</time>
      </trkpt>
      <trkpt lat="43.01737" lon="1.3979">
        <ele>378.6</ele>
        <time>2024-06-23T09:02:14Z</time>
      </trkpt>
      <trkpt lat="43.01737" lon="1.39798">
        <ele>378.6</ele>
        <time>2024-06-23T09:02:15Z</time>
      </trkpt>
      <trkpt lat="43.01736" lon="1.39806">
        <ele>378.6</ele>
        <time>2024-06-23T09:02:16Z</time>
      </trkpt>
      <trkpt lat="43.01736" lon="1.39814">
        <ele>378.6</ele>
        <time>2024-06-23T09:02:17Z</time>
      </trkpt>
      <trkpt lat="43.01735" lon="1.39822">
        <ele>378.6</ele>
        <time>2024-06-23T09:02:18Z</time>
      </trkpt>
      <trkpt lat="43.01734" lon="1.3983">
        <ele>378.8</ele>
        <time>2024-06-23T09:02:19Z</time>
      </trkpt>
      <trkpt lat="43.01734" lon="1.39838">
        <ele>378.8</ele>
        <time>2024-06-23T09:02:20Z</time>
      </trkpt>
      <trkpt lat="43.01733" lon="1.39846">
        <ele>378.8</ele>
        <time>2024-06-23T09:02:21Z</time>
      </trkpt>
      <trkpt lat="43.01733" lon="1.39853">
        <ele>378.8</ele>
        <time>2024-06-23T09:02:22Z</time>
      </trkpt>
      <trkpt lat="43.01732" lon="1.39861">
        <ele>379</ele>
        <time>2024-06-23T09:02:23Z</time>
      </trkpt>
      <trkpt lat="43.01732" lon="1.39869">
        <ele>379</ele>
        <time>2024-06-23T09:02:24Z</time>
      </trkpt>
      <trkpt lat="43.01731" lon="1.39876">
        <ele>379.6</ele>
        <time>2024-06-23T09:02:25Z</time>
      </trkpt>
      <trkpt lat="43.01731" lon="1.39884">
        <ele>379.6</ele>
        <time>2024-06-23T09:02:26Z</time>
      </trkpt>
      <trkpt lat="43.0173" lon="1.39892">
        <ele>379.6</ele>
        <time>2024-06-23T09:02:27Z</time>
      </trkpt>
      <trkpt lat="43.01729" lon="1.39899">
        <ele>380</ele>
        <time>2024-06-23T09:02:28Z</time>
      </trkpt>
      <trkpt lat="43.01729" lon="1.39907">
        <ele>380</ele>
        <time>2024-06-23T09:02:29Z</time>
      </trkpt>
      <trkpt lat="43.01728" lon="1.39915">
        <ele>380</ele>
        <time>2024-06-23T09:02:30Z</time>
      </trkpt>
      <trkpt lat="43.01727" lon="1.39923">
        <ele>379.8</ele>
        <time>2024-06-23T09:02:31Z</time>
      </trkpt>
      <trkpt lat="43.01727" lon="1.39931">
        <ele>379.8</ele>
        <time>2024-06-23T09:02:32Z</time>
      </trkpt>
      <trkpt lat="43.01726" lon="1.39938">
        <ele>379.8</ele>
        <time>2024-06-23T09:02:33Z</time>
      </trkpt>
      <trkpt lat="43.01726" lon="1.39946">
        <ele>379.8</ele>
        <time>2024-06-23T09:02:34Z</time>
      </trkpt>
      <trkpt lat="43.01725" lon="1.39954">
        <ele>379.8</ele>
        <time>2024-06-23T09:02:35Z</time>
      </trkpt>
      <trkpt lat="43.01724" lon="1.39962">
        <ele>379.8</ele>
        <time>2024-06-23T09:02:36Z</time>
      </trkpt>
      <trkpt lat="43.01723" lon="1.39978">
        <ele>380</ele>
        <time>2024-06-23T09:02:37Z</time>
      </trkpt>
      <trkpt lat="43.01723" lon="1.39986">
        <ele>380</ele>
        <time>2024-06-23T09:02:38Z</time>
      </trkpt>
      <trkpt lat="43.01722" lon="1.39994">
        <ele>380</ele>
        <time>2024-06-23T09:02:39Z</time>
      </trkpt>
      <trkpt lat="43.01722" lon="1.40001">
        <ele>380</ele>
        <time>2024-06-23T09:02:40Z</time>
      </trkpt>
      <trkpt lat="43.01721" lon="1.40009">
        <ele>380.4</ele>
        <time>2024-06-23T09:02:41Z</time>
      </trkpt>
      <trkpt lat="43.01721" lon="1.40017">
        <ele>380.4</ele>
        <time>2024-06-23T09:02:42Z</time>
      </trkpt>
      <trkpt lat="43.0172" lon="1.40025">
        <ele>380.6</ele>
        <time>2024-06-23T09:02:43Z</time>
      </trkpt>
      <trkpt lat="43.01719" lon="1.40032">
        <ele>380.6</ele>
        <time>2024-06-23T09:02:44Z</time>
      </trkpt>
      <trkpt lat="43.01719" lon="1.4004">
        <ele>380.6</ele>
        <time>2024-06-23T09:02:45Z</time>
      </trkpt>
      <trkpt lat="43.01718" lon="1.40048">
        <ele>381</ele>
        <time>2024-06-23T09:02:46Z</time>
      </trkpt>
      <trkpt lat="43.01717" lon="1.40056">
        <ele>381</ele>
        <time>2024-06-23T09:02:47Z</time>
      </trkpt>
      <trkpt lat="43.01717" lon="1.40064">
        <ele>381</ele>
        <time>2024-06-23T09:02:48Z</time>
      </trkpt>
      <trkpt lat="43.01716" lon="1.40073">
        <ele>381</ele>
        <time>2024-06-23T09:02:49Z</time>
      </trkpt>
      <trkpt lat="43.01716" lon="1.40081">
        <ele>381.2</ele>
        <time>2024-06-23T09:02:50Z</time>
      </trkpt>
      <trkpt lat="43.01715" lon="1.40089">
        <ele>381.2</ele>
        <time>2024-06-23T09:02:51Z</time>
      </trkpt>
      <trkpt lat="43.01714" lon="1.40097">
        <ele>380.8</ele>
        <time>2024-06-23T09:02:52Z</time>
      </trkpt>
      <trkpt lat="43.01714" lon="1.40105">
        <ele>380.8</ele>
        <time>2024-06-23T09:02:53Z</time>
      </trkpt>
      <trkpt lat="43.01714" lon="1.40113">
        <ele>380.8</ele>
        <time>2024-06-23T09:02:54Z</time>
      </trkpt>
      <trkpt lat="43.01713" lon="1.40121">
        <ele>380.8</ele>
        <time>2024-06-23T09:02:55Z</time>
      </trkpt>
      <trkpt lat="43.01712" lon="1.40129">
        <ele>381.4</ele>
        <time>2024-06-23T09:02:56Z</time>
      </trkpt>
      <trkpt lat="43.01712" lon="1.40137">
        <ele>381</ele>
        <time>2024-06-23T09:02:57Z</time>
      </trkpt>
      <trkpt lat="43.01711" lon="1.40145">
        <ele>381</ele>
        <time>2024-06-23T09:02:58Z</time>
      </trkpt>
      <trkpt lat="43.0171" lon="1.40149">
        <ele>381.6</ele>
        <time>2024-06-23T09:02:59Z</time>
      </trkpt>
      <trkpt lat="43.0171" lon="1.40154">
        <ele>381.6</ele>
        <time>2024-06-23T09:03:00Z</time>
      </trkpt>
      <trkpt lat="43.01709" lon="1.40162">
        <ele>381.2</ele>
        <time>2024-06-23T09:03:01Z</time>
      </trkpt>
      <trkpt lat="43.01709" lon="1.4017">
        <ele>381.2</ele>
        <time>2024-06-23T09:03:02Z</time>
      </trkpt>
      <trkpt lat="43.01708" lon="1.40178">
        <ele>381.8</ele>
        <time>2024-06-23T09:03:03Z</time>
      </trkpt>
      <trkpt lat="43.01707" lon="1.40186">
        <ele>381.8</ele>
        <time>2024-06-23T09:03:04Z</time>
      </trkpt>
      <trkpt lat="43.01707" lon="1.40194">
        <ele>381.6</ele>
        <time>2024-06-23T09:03:05Z</time>
      </trkpt>
      <trkpt lat="43.01706" lon="1.40202">
        <ele>381.6</ele>
        <time>2024-06-23T09:03:06Z</time>
      </trkpt>
      <trkpt lat="43.01705" lon="1.40211">
        <ele>381.6</ele>
        <time>2024-06-23T09:03:07Z</time>
      </trkpt>
      <trkpt lat="43.01705" lon="1.40219">
        <ele>381.6</ele>
        <time>2024-06-23T09:03:08Z</time>
      </trkpt>
      <trkpt lat="43.01704" lon="1.40227">
        <ele>381.6</ele>
        <time>2024-06-23T09:03:09Z</time>
      </trkpt>
      <trkpt lat="43.01703" lon="1.40235">
        <ele>381.6</ele>
        <time>2024-06-23T09:03:10Z</time>
      </trkpt>
      <trkpt lat="43.01702" lon="1.40243">
        <ele>381.6</ele>
        <time>2024-06-23T09:03:11Z</time>
      </trkpt>
      <trkpt lat="43.01702" lon="1.40251">
        <ele>382</ele>
        <time>2024-06-23T09:03:12Z</time>
      </trkpt>
      <trkpt lat="43.01701" lon="1.4026">
        <ele>382.2</ele>
        <time>2024-06-23T09:03:13Z</time>
      </trkpt>
      <trkpt lat="43.017" lon="1.40267">
        <ele>382.2</ele>
        <time>2024-06-23T09:03:14Z</time>
      </trkpt>
      <trkpt lat="43.01699" lon="1.40275">
        <ele>382.6</ele>
        <time>2024-06-23T09:03:15Z</time>
      </trkpt>
      <trkpt lat="43.01697" lon="1.40283">
        <ele>382.6</ele>
        <time>2024-06-23T09:03:16Z</time>
      </trkpt>
      <trkpt lat="43.01695" lon="1.4029">
        <ele>382.4</ele>
        <time>2024-06-23T09:03:17Z</time>
      </trkpt>
      <trkpt lat="43.01693" lon="1.40297">
        <ele>382.4</ele>
        <time>2024-06-23T09:03:18Z</time>
      </trkpt>
      <trkpt lat="43.01691" lon="1.40305">
        <ele>381.8</ele>
        <time>2024-06-23T09:03:19Z</time>
      </trkpt>
      <trkpt lat="43.01688" lon="1.40312">
        <ele>381.8</ele>
        <time>2024-06-23T09:03:20Z</time>
      </trkpt>
      <trkpt lat="43.01685" lon="1.40319">
        <ele>381.8</ele>
        <time>2024-06-23T09:03:21Z</time>
      </trkpt>
      <trkpt lat="43.01683" lon="1.40327">
        <ele>382</ele>
        <time>2024-06-23T09:03:22Z</time>
      </trkpt>
      <trkpt lat="43.0168" lon="1.40334">
        <ele>381.8</ele>
        <time>2024-06-23T09:03:23Z</time>
      </trkpt>
      <trkpt lat="43.01677" lon="1.40341">
        <ele>381.6</ele>
        <time>2024-06-23T09:03:24Z</time>
      </trkpt>
      <trkpt lat="43.01674" lon="1.40348">
        <ele>381.6</ele>
        <time>2024-06-23T09:03:25Z</time>
      </trkpt>
      <trkpt lat="43.01672" lon="1.40353">
        <ele>381.2</ele>
        <time>2024-06-23T09:03:26Z</time>
      </trkpt>
      <trkpt lat="43.01671" lon="1.40359">
        <ele>381</ele>
        <time>2024-06-23T09:03:27Z</time>
      </trkpt>
      <trkpt lat="43.01672" lon="1.40363">
        <ele>381</ele>
        <time>2024-06-23T09:03:28Z</time>
      </trkpt>
      <trkpt lat="43.01674" lon="1.40366">
        <ele>381</ele>
        <time>2024-06-23T09:03:29Z</time>
      </trkpt>
      <trkpt lat="43.01676" lon="1.40366">
        <ele>381</ele>
        <time>2024-06-23T09:03:30Z</time>
      </trkpt>
      <trkpt lat="43.01679" lon="1.40369">
        <ele>381</ele>
        <time>2024-06-23T09:03:31Z</time>
      </trkpt>
      <trkpt lat="43.01683" lon="1.40374">
        <ele>381</ele>
        <time>2024-06-23T09:03:32Z</time>
      </trkpt>
      <trkpt lat="43.01686" lon="1.40379">
        <ele>381</ele>
        <time>2024-06-23T09:03:33Z</time>
      </trkpt>
      <trkpt lat="43.01689" lon="1.40382">
        <ele>381</ele>
        <time>2024-06-23T09:03:34Z</time>
      </trkpt>
      <trkpt lat="43.01689" lon="1.40383">
        <ele>381</ele>
        <time>2024-06-23T09:03:35Z</time>
      </trkpt>
      <trkpt lat="43.01691" lon="1.40387">
        <ele>381.2</ele>
        <time>2024-06-23T09:03:36Z</time>
      </trkpt>
      <trkpt lat="43.01692" lon="1.40392">
        <ele>381.2</ele>
        <time>2024-06-23T09:03:37Z</time>
      </trkpt>
      <trkpt lat="43.01694" lon="1.40397">
        <ele>381.6</ele>
        <time>2024-06-23T09:03:38Z</time>
      </trkpt>
      <trkpt lat="43.01695" lon="1.40401">
        <ele>381.4</ele>
        <time>2024-06-23T09:03:39Z</time>
      </trkpt>
      <trkpt lat="43.01695" lon="1.40407">
        <ele>381.8</ele>
        <time>2024-06-23T09:03:40Z</time>
      </trkpt>
      <trkpt lat="43.01696" lon="1.40412">
        <ele>381.8</ele>
        <time>2024-06-23T09:03:41Z</time>
      </trkpt>
      <trkpt lat="43.01698" lon="1.40418">
        <ele>382.2</ele>
        <time>2024-06-23T09:03:42Z</time>
      </trkpt>
      <trkpt lat="43.01699" lon="1.40423">
        <ele>382.4</ele>
        <time>2024-06-23T09:03:43Z</time>
      </trkpt>
      <trkpt lat="43.01701" lon="1.40428">
        <ele>382.4</ele>
        <time>2024-06-23T09:03:44Z</time>
      </trkpt>
      <trkpt lat="43.01702" lon="1.40434">
        <ele>382.4</ele>
        <time>2024-06-23T09:03:45Z</time>
      </trkpt>
      <trkpt lat="43.01704" lon="1.40439">
        <ele>382.2</ele>
        <time>2024-06-23T09:03:46Z</time>
      </trkpt>
      <trkpt lat="43.01706" lon="1.40445">
        <ele>382.2</ele>
        <time>2024-06-23T09:03:47Z</time>
      </trkpt>
      <trkpt lat="43.01707" lon="1.40451">
        <ele>382.2</ele>
        <time>2024-06-23T09:03:48Z</time>
      </trkpt>
      <trkpt lat="43.01709" lon="1.40457">
        <ele>382.6</ele>
        <time>2024-06-23T09:03:49Z</time>
      </trkpt>
      <trkpt lat="43.01711" lon="1.40463">
        <ele>382.8</ele>
        <time>2024-06-23T09:03:50Z</time>
      </trkpt>
      <trkpt lat="43.01712" lon="1.4047">
        <ele>382.8</ele>
        <time>2024-06-23T09:03:51Z</time>
      </trkpt>
      <trkpt lat="43.01714" lon="1.40476">
        <ele>383</ele>
        <time>2024-06-23T09:03:52Z</time>
      </trkpt>
      <trkpt lat="43.01715" lon="1.40483">
        <ele>382.8</ele>
        <time>2024-06-23T09:03:53Z</time>
      </trkpt>
      <trkpt lat="43.01716" lon="1.4049">
        <ele>382.8</ele>
        <time>2024-06-23T09:03:54Z</time>
      </trkpt>
      <trkpt lat="43.01718" lon="1.40496">
        <ele>382.8</ele>
        <time>2024-06-23T09:03:55Z</time>
      </trkpt>
      <trkpt lat="43.0172" lon="1.40503">
        <ele>382.8</ele>
        <time>2024-06-23T09:03:56Z</time>
      </trkpt>
      <trkpt lat="43.01722" lon="1.4051">
        <ele>383</ele>
        <time>2024-06-23T09:03:57Z</time>
      </trkpt>
      <trkpt lat="43.01724" lon="1.40516">
        <ele>383</ele>
        <time>2024-06-23T09:03:58Z</time>
      </trkpt>
      <trkpt lat="43.01725" lon="1.40524">
        <ele>383</ele>
        <time>2024-06-23T09:03:59Z</time>
      </trkpt>
      <trkpt lat="43.01728" lon="1.40531">
        <ele>383.2</ele>
        <time>2024-06-23T09:04:00Z</time>
      </trkpt>
      <trkpt lat="43.0173" lon="1.40537">
        <ele>383.2</ele>
        <time>2024-06-23T09:04:01Z</time>
      </trkpt>
      <trkpt lat="43.01733" lon="1.40544">
        <ele>383.2</ele>
        <time>2024-06-23T09:04:02Z</time>
      </trkpt>
      <trkpt lat="43.01735" lon="1.40551">
        <ele>383.4</ele>
        <time>2024-06-23T09:04:03Z</time>
      </trkpt>
      <trkpt lat="43.01737" lon="1.40557">
        <ele>383.4</ele>
        <time>2024-06-23T09:04:04Z</time>
      </trkpt>
      <trkpt lat="43.0174" lon="1.40564">
        <ele>383.4</ele>
        <time>2024-06-23T09:04:05Z</time>
      </trkpt>
      <trkpt lat="43.01742" lon="1.40571">
        <ele>383.4</ele>
        <time>2024-06-23T09:04:06Z</time>
      </trkpt>
      <trkpt lat="43.01745" lon="1.40577">
        <ele>383.4</ele>
        <time>2024-06-23T09:04:07Z</time>
      </trkpt>
      <trkpt lat="43.01748" lon="1.40584">
        <ele>383.4</ele>
        <time>2024-06-23T09:04:08Z</time>
      </trkpt>
      <trkpt lat="43.0175" lon="1.4059">
        <ele>383.4</ele>
        <time>2024-06-23T09:04:09Z</time>
      </trkpt>
      <trkpt lat="43.01753" lon="1.40596">
        <ele>383.8</ele>
        <time>2024-06-23T09:04:10Z</time>
      </trkpt>
      <trkpt lat="43.01757" lon="1.40604">
        <ele>384</ele>
        <time>2024-06-23T09:04:11Z</time>
      </trkpt>
      <trkpt lat="43.0176" lon="1.4061">
        <ele>384</ele>
        <time>2024-06-23T09:04:12Z</time>
      </trkpt>
      <trkpt lat="43.01763" lon="1.40616">
        <ele>384</ele>
        <time>2024-06-23T09:04:13Z</time>
      </trkpt>
      <trkpt lat="43.01767" lon="1.40621">
        <ele>384</ele>
        <time>2024-06-23T09:04:14Z</time>
      </trkpt>
      <trkpt lat="43.01771" lon="1.40628">
        <ele>384</ele>
        <time>2024-06-23T09:04:15Z</time>
      </trkpt>
      <trkpt lat="43.01773" lon="1.40634">
        <ele>384</ele>
        <time>2024-06-23T09:04:16Z</time>
      </trkpt>
      <trkpt lat="43.01776" lon="1.4064">
        <ele>384</ele>
        <time>2024-06-23T09:04:17Z</time>
      </trkpt>
      <trkpt lat="43.0178" lon="1.40647">
        <ele>384</ele>
        <time>2024-06-23T09:04:18Z</time>
      </trkpt>
      <trkpt lat="43.01782" lon="1.40652">
        <ele>384</ele>
        <time>2024-06-23T09:04:19Z</time>
      </trkpt>
      <trkpt lat="43.01785" lon="1.40658">
        <ele>384</ele>
        <time>2024-06-23T09:04:20Z</time>
      </trkpt>
      <trkpt lat="43.01788" lon="1.40664">
        <ele>384.2</ele>
        <time>2024-06-23T09:04:21Z</time>
      </trkpt>
      <trkpt lat="43.01791" lon="1.4067">
        <ele>384</ele>
        <time>2024-06-23T09:04:22Z</time>
      </trkpt>
      <trkpt lat="43.01794" lon="1.40675">
        <ele>384</ele>
        <time>2024-06-23T09:04:23Z</time>
      </trkpt>
      <trkpt lat="43.01797" lon="1.40681">
        <ele>384</ele>
        <time>2024-06-23T09:04:24Z</time>
      </trkpt>
      <trkpt lat="43.018" lon="1.40686">
        <ele>384</ele>
        <time>2024-06-23T09:04:25Z</time>
      </trkpt>
      <trkpt lat="43.01804" lon="1.40692">
        <ele>384</ele>
        <time>2024-06-23T09:04:26Z</time>
      </trkpt>
      <trkpt lat="43.01811" lon="1.40703">
        <ele>384</ele>
        <time>2024-06-23T09:04:27Z</time>
      </trkpt>
      <trkpt lat="43.01814" lon="1.4071">
        <ele>384.2</ele>
        <time>2024-06-23T09:04:28Z</time>
      </trkpt>
      <trkpt lat="43.01817" lon="1.40717">
        <ele>384.6</ele>
        <time>2024-06-23T09:04:29Z</time>
      </trkpt>
      <trkpt lat="43.0182" lon="1.40722">
        <ele>384.6</ele>
        <time>2024-06-23T09:04:30Z</time>
      </trkpt>
      <trkpt lat="43.01824" lon="1.40728">
        <ele>384.2</ele>
        <time>2024-06-23T09:04:31Z</time>
      </trkpt>
      <trkpt lat="43.01827" lon="1.40735">
        <ele>384.2</ele>
        <time>2024-06-23T09:04:32Z</time>
      </trkpt>
      <trkpt lat="43.01831" lon="1.40741">
        <ele>384.2</ele>
        <time>2024-06-23T09:04:33Z</time>
      </trkpt>
      <trkpt lat="43.01835" lon="1.40746">
        <ele>384</ele>
        <time>2024-06-23T09:04:34Z</time>
      </trkpt>
      <trkpt lat="43.01838" lon="1.40752">
        <ele>384</ele>
        <time>2024-06-23T09:04:35Z</time>
      </trkpt>
      <trkpt lat="43.01842" lon="1.40758">
        <ele>384</ele>
        <time>2024-06-23T09:04:36Z</time>
      </trkpt>
      <trkpt lat="43.01845" lon="1.40765">
        <ele>384</ele>
        <time>2024-06-23T09:04:37Z</time>
      </trkpt>
      <trkpt lat="43.01849" lon="1.40772">
        <ele>384</ele>
        <time>2024-06-23T09:04:38Z</time>
      </trkpt>
      <trkpt lat="43.01852" lon="1.40778">
        <ele>384</ele>
        <time>2024-06-23T09:04:39Z</time>
      </trkpt>
      <trkpt lat="43.01857" lon="1.40785">
        <ele>383.6</ele>
        <time>2024-06-23T09:04:40Z</time>
      </trkpt>
      <trkpt lat="43.01859" lon="1.40791">
        <ele>383.6</ele>
        <time>2024-06-23T09:04:41Z</time>
      </trkpt>
      <trkpt lat="43.01862" lon="1.40797">
        <ele>383.6</ele>
        <time>2024-06-23T09:04:42Z</time>
      </trkpt>
      <trkpt lat="43.01866" lon="1.40803">
        <ele>384</ele>
        <time>2024-06-23T09:04:43Z</time>
      </trkpt>
      <trkpt lat="43.01868" lon="1.4081">
        <ele>384.2</ele>
        <time>2024-06-23T09:04:44Z</time>
      </trkpt>
      <trkpt lat="43.01871" lon="1.40817">
        <ele>384.2</ele>
        <time>2024-06-23T09:04:45Z</time>
      </trkpt>
      <trkpt lat="43.01874" lon="1.40823">
        <ele>384.2</ele>
        <time>2024-06-23T09:04:46Z</time>
      </trkpt>
      <trkpt lat="43.01876" lon="1.4083">
        <ele>384.6</ele>
        <time>2024-06-23T09:04:47Z</time>
      </trkpt>
      <trkpt lat="43.01879" lon="1.40837">
        <ele>384.6</ele>
        <time>2024-06-23T09:04:48Z</time>
      </trkpt>
      <trkpt lat="43.01881" lon="1.40844">
        <ele>384.6</ele>
        <time>2024-06-23T09:04:49Z</time>
      </trkpt>
      <trkpt lat="43.01883" lon="1.40852">
        <ele>384.6</ele>
        <time>2024-06-23T09:04:50Z</time>
      </trkpt>
      <trkpt lat="43.01886" lon="1.40859">
        <ele>384.6</ele>
        <time>2024-06-23T09:04:51Z</time>
      </trkpt>
      <trkpt lat="43.01887" lon="1.40866">
        <ele>384.6</ele>
        <time>2024-06-23T09:04:52Z</time>
      </trkpt>
      <trkpt lat="43.01889" lon="1.40873">
        <ele>384.4</ele>
        <time>2024-06-23T09:04:53Z</time>
      </trkpt>
      <trkpt lat="43.01891" lon="1.40881">
        <ele>384.6</ele>
        <time>2024-06-23T09:04:54Z</time>
      </trkpt>
      <trkpt lat="43.01893" lon="1.40888">
        <ele>384.6</ele>
        <time>2024-06-23T09:04:55Z</time>
      </trkpt>
      <trkpt lat="43.01894" lon="1.40896">
        <ele>384.6</ele>
        <time>2024-06-23T09:04:56Z</time>
      </trkpt>
      <trkpt lat="43.01896" lon="1.40904">
        <ele>384.6</ele>
        <time>2024-06-23T09:04:57Z</time>
      </trkpt>
      <trkpt lat="43.01897" lon="1.40911">
        <ele>384.8</ele>
        <time>2024-06-23T09:04:58Z</time>
      </trkpt>
      <trkpt lat="43.01898" lon="1.40919">
        <ele>384.8</ele>
        <time>2024-06-23T09:04:59Z</time>
      </trkpt>
      <trkpt lat="43.01899" lon="1.40926">
        <ele>385.2</ele>
        <time>2024-06-23T09:05:00Z</time>
      </trkpt>
      <trkpt lat="43.019" lon="1.40934">
        <ele>385.2</ele>
        <time>2024-06-23T09:05:01Z</time>
      </trkpt>
      <trkpt lat="43.019" lon="1.40941">
        <ele>385.2</ele>
        <time>2024-06-23T09:05:02Z</time>
      </trkpt>
      <trkpt lat="43.01901" lon="1.40949">
        <ele>385.2</ele>
        <time>2024-06-23T09:05:03Z</time>
      </trkpt>
      <trkpt lat="43.01902" lon="1.40957">
        <ele>385</ele>
        <time>2024-06-23T09:05:04Z</time>
      </trkpt>
      <trkpt lat="43.01903" lon="1.40965">
        <ele>385</ele>
        <time>2024-06-23T09:05:05Z</time>
      </trkpt>
      <trkpt lat="43.01903" lon="1.40972">
        <ele>385</ele>
        <time>2024-06-23T09:05:06Z</time>
      </trkpt>
      <trkpt lat="43.01904" lon="1.4098">
        <ele>385</ele>
        <time>2024-06-23T09:05:07Z</time>
      </trkpt>
      <trkpt lat="43.01903" lon="1.40988">
        <ele>385.2</ele>
        <time>2024-06-23T09:05:08Z</time>
      </trkpt>
      <trkpt lat="43.01903" lon="1.40995">
        <ele>385.4</ele>
        <time>2024-06-23T09:05:09Z</time>
      </trkpt>
      <trkpt lat="43.01903" lon="1.41003">
        <ele>385.4</ele>
        <time>2024-06-23T09:05:10Z</time>
      </trkpt>
      <trkpt lat="43.01903" lon="1.41011">
        <ele>385.8</ele>
        <time>2024-06-23T09:05:11Z</time>
      </trkpt>
      <trkpt lat="43.01903" lon="1.41019">
        <ele>385.8</ele>
        <time>2024-06-23T09:05:12Z</time>
      </trkpt>
      <trkpt lat="43.01902" lon="1.41026">
        <ele>385.8</ele>
        <time>2024-06-23T09:05:13Z</time>
      </trkpt>
      <trkpt lat="43.01902" lon="1.41034">
        <ele>386</ele>
        <time>2024-06-23T09:05:14Z</time>
      </trkpt>
      <trkpt lat="43.01901" lon="1.41041">
        <ele>386</ele>
        <time>2024-06-23T09:05:15Z</time>
      </trkpt>
      <trkpt lat="43.019" lon="1.41049">
        <ele>386</ele>
        <time>2024-06-23T09:05:16Z</time>
      </trkpt>
      <trkpt lat="43.01899" lon="1.41057">
        <ele>386</ele>
        <time>2024-06-23T09:05:17Z</time>
      </trkpt>
      <trkpt lat="43.01898" lon="1.41064">
        <ele>386.4</ele>
        <time>2024-06-23T09:05:18Z</time>
      </trkpt>
      <trkpt lat="43.01897" lon="1.41071">
        <ele>386.4</ele>
        <time>2024-06-23T09:05:19Z</time>
      </trkpt>
      <trkpt lat="43.01896" lon="1.41079">
        <ele>386.4</ele>
        <time>2024-06-23T09:05:20Z</time>
      </trkpt>
      <trkpt lat="43.01895" lon="1.41086">
        <ele>386.8</ele>
        <time>2024-06-23T09:05:21Z</time>
      </trkpt>
      <trkpt lat="43.01894" lon="1.41094">
        <ele>387</ele>
        <time>2024-06-23T09:05:22Z</time>
      </trkpt>
      <trkpt lat="43.01892" lon="1.41101">
        <ele>387</ele>
        <time>2024-06-23T09:05:23Z</time>
      </trkpt>
      <trkpt lat="43.01891" lon="1.41109">
        <ele>387</ele>
        <time>2024-06-23T09:05:24Z</time>
      </trkpt>
      <trkpt lat="43.0189" lon="1.41116">
        <ele>387</ele>
        <time>2024-06-23T09:05:25Z</time>
      </trkpt>
      <trkpt lat="43.01889" lon="1.41124">
        <ele>387</ele>
        <time>2024-06-23T09:05:26Z</time>
      </trkpt>
      <trkpt lat="43.01888" lon="1.41132">
        <ele>387</ele>
        <time>2024-06-23T09:05:27Z</time>
      </trkpt>
      <trkpt lat="43.01887" lon="1.41138">
        <ele>387.4</ele>
        <time>2024-06-23T09:05:28Z</time>
      </trkpt>
      <trkpt lat="43.01886" lon="1.41144">
        <ele>387.4</ele>
        <time>2024-06-23T09:05:29Z</time>
      </trkpt>
      <trkpt lat="43.01885" lon="1.4115">
        <ele>387</ele>
        <time>2024-06-23T09:05:30Z</time>
      </trkpt>
      <trkpt lat="43.01884" lon="1.41157">
        <ele>387</ele>
        <time>2024-06-23T09:05:31Z</time>
      </trkpt>
      <trkpt lat="43.01883" lon="1.41165">
        <ele>387</ele>
        <time>2024-06-23T09:05:32Z</time>
      </trkpt>
      <trkpt lat="43.01881" lon="1.41171">
        <ele>387</ele>
        <time>2024-06-23T09:05:33Z</time>
      </trkpt>
      <trkpt lat="43.0188" lon="1.41178">
        <ele>387.4</ele>
        <time>2024-06-23T09:05:34Z</time>
      </trkpt>
      <trkpt lat="43.01879" lon="1.41184">
        <ele>387.6</ele>
        <time>2024-06-23T09:05:35Z</time>
      </trkpt>
      <trkpt lat="43.01877" lon="1.4119">
        <ele>387.6</ele>
        <time>2024-06-23T09:05:36Z</time>
      </trkpt>
      <trkpt lat="43.01876" lon="1.41197">
        <ele>387.6</ele>
        <time>2024-06-23T09:05:37Z</time>
      </trkpt>
      <trkpt lat="43.01876" lon="1.41206">
        <ele>387.6</ele>
        <time>2024-06-23T09:05:38Z</time>
      </trkpt>
      <trkpt lat="43.01875" lon="1.41212">
        <ele>388</ele>
        <time>2024-06-23T09:05:39Z</time>
      </trkpt>
      <trkpt lat="43.01873" lon="1.41219">
        <ele>388</ele>
        <time>2024-06-23T09:05:40Z</time>
      </trkpt>
      <trkpt lat="43.01874" lon="1.41225">
        <ele>388.2</ele>
        <time>2024-06-23T09:05:41Z</time>
      </trkpt>
      <trkpt lat="43.01874" lon="1.41234">
        <ele>388.2</ele>
        <time>2024-06-23T09:05:42Z</time>
      </trkpt>
      <trkpt lat="43.01873" lon="1.41242">
        <ele>388.2</ele>
        <time>2024-06-23T09:05:43Z</time>
      </trkpt>
      <trkpt lat="43.01874" lon="1.41249">
        <ele>388.6</ele>
        <time>2024-06-23T09:05:44Z</time>
      </trkpt>
      <trkpt lat="43.01874" lon="1.41257">
        <ele>388.6</ele>
        <time>2024-06-23T09:05:45Z</time>
      </trkpt>
      <trkpt lat="43.01874" lon="1.41265">
        <ele>388.6</ele>
        <time>2024-06-23T09:05:46Z</time>
      </trkpt>
      <trkpt lat="43.01874" lon="1.41274">
        <ele>388.2</ele>
        <time>2024-06-23T09:05:47Z</time>
      </trkpt>
      <trkpt lat="43.01875" lon="1.41282">
        <ele>388.4</ele>
        <time>2024-06-23T09:05:48Z</time>
      </trkpt>
      <trkpt lat="43.01874" lon="1.4129">
        <ele>388.4</ele>
        <time>2024-06-23T09:05:49Z</time>
      </trkpt>
      <trkpt lat="43.01874" lon="1.41297">
        <ele>388.8</ele>
        <time>2024-06-23T09:05:50Z</time>
      </trkpt>
      <trkpt lat="43.01874" lon="1.41305">
        <ele>388.8</ele>
        <time>2024-06-23T09:05:51Z</time>
      </trkpt>
      <trkpt lat="43.01874" lon="1.41312">
        <ele>388.8</ele>
        <time>2024-06-23T09:05:52Z</time>
      </trkpt>
      <trkpt lat="43.01875" lon="1.4132">
        <ele>388.8</ele>
        <time>2024-06-23T09:05:53Z</time>
      </trkpt>
      <trkpt lat="43.01876" lon="1.41328">
        <ele>388.8</ele>
        <time>2024-06-23T09:05:54Z</time>
      </trkpt>
      <trkpt lat="43.01877" lon="1.41336">
        <ele>388.8</ele>
        <time>2024-06-23T09:05:55Z</time>
      </trkpt>
      <trkpt lat="43.01878" lon="1.41342">
        <ele>388.8</ele>
        <time>2024-06-23T09:05:56Z</time>
      </trkpt>
      <trkpt lat="43.01879" lon="1.41351">
        <ele>389.2</ele>
        <time>2024-06-23T09:05:57Z</time>
      </trkpt>
      <trkpt lat="43.0188" lon="1.41357">
        <ele>389.2</ele>
        <time>2024-06-23T09:05:58Z</time>
      </trkpt>
      <trkpt lat="43.01882" lon="1.41364">
        <ele>389.2</ele>
        <time>2024-06-23T09:05:59Z</time>
      </trkpt>
      <trkpt lat="43.01884" lon="1.41371">
        <ele>389.4</ele>
        <time>2024-06-23T09:06:00Z</time>
      </trkpt>
      <trkpt lat="43.01886" lon="1.41378">
        <ele>389.2</ele>
        <time>2024-06-23T09:06:01Z</time>
      </trkpt>
      <trkpt lat="43.01888" lon="1.41385">
        <ele>389.2</ele>
        <time>2024-06-23T09:06:02Z</time>
      </trkpt>
      <trkpt lat="43.01889" lon="1.41393">
        <ele>389.6</ele>
        <time>2024-06-23T09:06:03Z</time>
      </trkpt>
      <trkpt lat="43.01892" lon="1.41401">
        <ele>389.6</ele>
        <time>2024-06-23T09:06:04Z</time>
      </trkpt>
      <trkpt lat="43.01894" lon="1.41408">
        <ele>389.8</ele>
        <time>2024-06-23T09:06:05Z</time>
      </trkpt>
      <trkpt lat="43.01895" lon="1.41416">
        <ele>389.8</ele>
        <time>2024-06-23T09:06:06Z</time>
      </trkpt>
      <trkpt lat="43.01898" lon="1.41423">
        <ele>389.8</ele>
        <time>2024-06-23T09:06:07Z</time>
      </trkpt>
      <trkpt lat="43.019" lon="1.4143">
        <ele>389.8</ele>
        <time>2024-06-23T09:06:08Z</time>
      </trkpt>
      <trkpt lat="43.01903" lon="1.41437">
        <ele>389.8</ele>
        <time>2024-06-23T09:06:09Z</time>
      </trkpt>
      <trkpt lat="43.01907" lon="1.41443">
        <ele>390</ele>
        <time>2024-06-23T09:06:10Z</time>
      </trkpt>
      <trkpt lat="43.01911" lon="1.41448">
        <ele>390</ele>
        <time>2024-06-23T09:06:11Z</time>
      </trkpt>
      <trkpt lat="43.01913" lon="1.41454">
        <ele>390</ele>
        <time>2024-06-23T09:06:12Z</time>
      </trkpt>
      <trkpt lat="43.01914" lon="1.41458">
        <ele>390.4</ele>
        <time>2024-06-23T09:06:13Z</time>
      </trkpt>
      <trkpt lat="43.01914" lon="1.41458">
        <ele>390.6</ele>
        <time>2024-06-23T09:06:14Z</time>
      </trkpt>
      <trkpt lat="43.01916" lon="1.41462">
        <ele>390.6</ele>
        <time>2024-06-23T09:06:15Z</time>
      </trkpt>
      <trkpt lat="43.01918" lon="1.41468">
        <ele>390.6</ele>
        <time>2024-06-23T09:06:16Z</time>
      </trkpt>
      <trkpt lat="43.0192" lon="1.41473">
        <ele>390.6</ele>
        <time>2024-06-23T09:06:17Z</time>
      </trkpt>
      <trkpt lat="43.01922" lon="1.41477">
        <ele>390.6</ele>
        <time>2024-06-23T09:06:18Z</time>
      </trkpt>
      <trkpt lat="43.01925" lon="1.41483">
        <ele>390.8</ele>
        <time>2024-06-23T09:06:19Z</time>
      </trkpt>
      <trkpt lat="43.01926" lon="1.41487">
        <ele>390.8</ele>
        <time>2024-06-23T09:06:20Z</time>
      </trkpt>
      <trkpt lat="43.0193" lon="1.4149">
        <ele>390.8</ele>
        <time>2024-06-23T09:06:21Z</time>
      </trkpt>
      <trkpt lat="43.01932" lon="1.41494">
        <ele>390.8</ele>
        <time>2024-06-23T09:06:22Z</time>
      </trkpt>
      <trkpt lat="43.01932" lon="1.41498">
        <ele>390.8</ele>
        <time>2024-06-23T09:06:23Z</time>
      </trkpt>
      <trkpt lat="43.01936" lon="1.41506">
        <ele>390.8</ele>
        <time>2024-06-23T09:06:24Z</time>
      </trkpt>
      <trkpt lat="43.01938" lon="1.41509">
        <ele>390.8</ele>
        <time>2024-06-23T09:06:25Z</time>
      </trkpt>
      <trkpt lat="43.0194" lon="1.41514">
        <ele>391.2</ele>
        <time>2024-06-23T09:06:26Z</time>
      </trkpt>
      <trkpt lat="43.01943" lon="1.4152">
        <ele>391.2</ele>
        <time>2024-06-23T09:06:27Z</time>
      </trkpt>
      <trkpt lat="43.01946" lon="1.41524">
        <ele>391.2</ele>
        <time>2024-06-23T09:06:28Z</time>
      </trkpt>
      <trkpt lat="43.01949" lon="1.41529">
        <ele>391.2</ele>
        <time>2024-06-23T09:06:29Z</time>
      </trkpt>
      <trkpt lat="43.01951" lon="1.41536">
        <ele>391.2</ele>
        <time>2024-06-23T09:06:30Z</time>
      </trkpt>
      <trkpt lat="43.01952" lon="1.41536">
        <ele>391.2</ele>
        <time>2024-06-23T09:06:31Z</time>
      </trkpt>
      <trkpt lat="43.01956" lon="1.41544">
        <ele>391.2</ele>
        <time>2024-06-23T09:06:32Z</time>
      </trkpt>
      <trkpt lat="43.01958" lon="1.41549">
        <ele>391.4</ele>
        <time>2024-06-23T09:06:33Z</time>
      </trkpt>
      <trkpt lat="43.0196" lon="1.41555">
        <ele>391.4</ele>
        <time>2024-06-23T09:06:34Z</time>
      </trkpt>
      <trkpt lat="43.01963" lon="1.41562">
        <ele>391.4</ele>
        <time>2024-06-23T09:06:35Z</time>
      </trkpt>
      <trkpt lat="43.01967" lon="1.41568">
        <ele>391.4</ele>
        <time>2024-06-23T09:06:36Z</time>
      </trkpt>
      <trkpt lat="43.0197" lon="1.41574">
        <ele>391.4</ele>
        <time>2024-06-23T09:06:37Z</time>
      </trkpt>
      <trkpt lat="43.01972" lon="1.41579">
        <ele>391.4</ele>
        <time>2024-06-23T09:06:38Z</time>
      </trkpt>
      <trkpt lat="43.01975" lon="1.41587">
        <ele>391.4</ele>
        <time>2024-06-23T09:06:39Z</time>
      </trkpt>
      <trkpt lat="43.01976" lon="1.41593">
        <ele>391.4</ele>
        <time>2024-06-23T09:06:40Z</time>
      </trkpt>
      <trkpt lat="43.01978" lon="1.41599">
        <ele>391</ele>
        <time>2024-06-23T09:06:41Z</time>
      </trkpt>
      <trkpt lat="43.01982" lon="1.41605">
        <ele>391.2</ele>
        <time>2024-06-23T09:06:42Z</time>
      </trkpt>
      <trkpt lat="43.01984" lon="1.41611">
        <ele>391.2</ele>
        <time>2024-06-23T09:06:43Z</time>
      </trkpt>
      <trkpt lat="43.01987" lon="1.41617">
        <ele>391.6</ele>
        <time>2024-06-23T09:06:44Z</time>
      </trkpt>
      <trkpt lat="43.0199" lon="1.41623">
        <ele>391.8</ele>
        <time>2024-06-23T09:06:45Z</time>
      </trkpt>
      <trkpt lat="43.01993" lon="1.41629">
        <ele>391.8</ele>
        <time>2024-06-23T09:06:46Z</time>
      </trkpt>
      <trkpt lat="43.01995" lon="1.41635">
        <ele>392</ele>
        <time>2024-06-23T09:06:47Z</time>
      </trkpt>
      <trkpt lat="43.01998" lon="1.41641">
        <ele>392</ele>
        <time>2024-06-23T09:06:48Z</time>
      </trkpt>
      <trkpt lat="43.02" lon="1.41648">
        <ele>392</ele>
        <time>2024-06-23T09:06:49Z</time>
      </trkpt>
      <trkpt lat="43.02002" lon="1.41653">
        <ele>392</ele>
        <time>2024-06-23T09:06:50Z</time>
      </trkpt>
      <trkpt lat="43.02003" lon="1.41658">
        <ele>392</ele>
        <time>2024-06-23T09:06:51Z</time>
      </trkpt>
      <trkpt lat="43.02007" lon="1.41667">
        <ele>392</ele>
        <time>2024-06-23T09:06:52Z</time>
      </trkpt>
      <trkpt lat="43.02009" lon="1.41674">
        <ele>392.2</ele>
        <time>2024-06-23T09:06:53Z</time>
      </trkpt>
      <trkpt lat="43.02011" lon="1.41682">
        <ele>392.2</ele>
        <time>2024-06-23T09:06:54Z</time>
      </trkpt>
      <trkpt lat="43.02013" lon="1.41689">
        <ele>392.6</ele>
        <time>2024-06-23T09:06:55Z</time>
      </trkpt>
      <trkpt lat="43.02014" lon="1.41696">
        <ele>392.6</ele>
        <time>2024-06-23T09:06:56Z</time>
      </trkpt>
      <trkpt lat="43.02016" lon="1.41703">
        <ele>392.2</ele>
        <time>2024-06-23T09:06:57Z</time>
      </trkpt>
      <trkpt lat="43.02017" lon="1.41711">
        <ele>392.6</ele>
        <time>2024-06-23T09:06:58Z</time>
      </trkpt>
      <trkpt lat="43.02019" lon="1.41718">
        <ele>392.6</ele>
        <time>2024-06-23T09:06:59Z</time>
      </trkpt>
      <trkpt lat="43.02021" lon="1.41726">
        <ele>392.6</ele>
        <time>2024-06-23T09:07:00Z</time>
      </trkpt>
      <trkpt lat="43.02022" lon="1.41733">
        <ele>393</ele>
        <time>2024-06-23T09:07:01Z</time>
      </trkpt>
      <trkpt lat="43.02023" lon="1.41741">
        <ele>393</ele>
        <time>2024-06-23T09:07:02Z</time>
      </trkpt>
      <trkpt lat="43.02024" lon="1.41748">
        <ele>393</ele>
        <time>2024-06-23T09:07:03Z</time>
      </trkpt>
      <trkpt lat="43.02025" lon="1.41756">
        <ele>393.2</ele>
        <time>2024-06-23T09:07:04Z</time>
      </trkpt>
      <trkpt lat="43.02025" lon="1.41762">
        <ele>393.2</ele>
        <time>2024-06-23T09:07:05Z</time>
      </trkpt>
      <trkpt lat="43.02024" lon="1.41768">
        <ele>393</ele>
        <time>2024-06-23T09:07:06Z</time>
      </trkpt>
      <trkpt lat="43.02024" lon="1.41776">
        <ele>393</ele>
        <time>2024-06-23T09:07:07Z</time>
      </trkpt>
      <trkpt lat="43.02024" lon="1.41783">
        <ele>393.4</ele>
        <time>2024-06-23T09:07:08Z</time>
      </trkpt>
      <trkpt lat="43.02025" lon="1.41791">
        <ele>393.4</ele>
        <time>2024-06-23T09:07:09Z</time>
      </trkpt>
      <trkpt lat="43.02025" lon="1.418">
        <ele>393</ele>
        <time>2024-06-23T09:07:10Z</time>
      </trkpt>
      <trkpt lat="43.02024" lon="1.41805">
        <ele>392.8</ele>
        <time>2024-06-23T09:07:11Z</time>
      </trkpt>
      <trkpt lat="43.02023" lon="1.41812">
        <ele>392.8</ele>
        <time>2024-06-23T09:07:12Z</time>
      </trkpt>
      <trkpt lat="43.02022" lon="1.4182">
        <ele>392.8</ele>
        <time>2024-06-23T09:07:13Z</time>
      </trkpt>
      <trkpt lat="43.02022" lon="1.41829">
        <ele>393.4</ele>
        <time>2024-06-23T09:07:14Z</time>
      </trkpt>
      <trkpt lat="43.02021" lon="1.41836">
        <ele>393.8</ele>
        <time>2024-06-23T09:07:15Z</time>
      </trkpt>
      <trkpt lat="43.0202" lon="1.41845">
        <ele>393.8</ele>
        <time>2024-06-23T09:07:16Z</time>
      </trkpt>
      <trkpt lat="43.0202" lon="1.41851">
        <ele>394.2</ele>
        <time>2024-06-23T09:07:17Z</time>
      </trkpt>
      <trkpt lat="43.02019" lon="1.41858">
        <ele>393.8</ele>
        <time>2024-06-23T09:07:18Z</time>
      </trkpt>
      <trkpt lat="43.02018" lon="1.41866">
        <ele>393.8</ele>
        <time>2024-06-23T09:07:19Z</time>
      </trkpt>
      <trkpt lat="43.02018" lon="1.41873">
        <ele>393.8</ele>
        <time>2024-06-23T09:07:20Z</time>
      </trkpt>
      <trkpt lat="43.02017" lon="1.41878">
        <ele>394.4</ele>
        <time>2024-06-23T09:07:21Z</time>
      </trkpt>
      <trkpt lat="43.02016" lon="1.41883">
        <ele>394.6</ele>
        <time>2024-06-23T09:07:22Z</time>
      </trkpt>
      <trkpt lat="43.02015" lon="1.41889">
        <ele>394.8</ele>
        <time>2024-06-23T09:07:23Z</time>
      </trkpt>
      <trkpt lat="43.02014" lon="1.41896">
        <ele>394.6</ele>
        <time>2024-06-23T09:07:24Z</time>
      </trkpt>
      <trkpt lat="43.02014" lon="1.41903">
        <ele>394.6</ele>
        <time>2024-06-23T09:07:25Z</time>
      </trkpt>
      <trkpt lat="43.02014" lon="1.4191">
        <ele>395</ele>
        <time>2024-06-23T09:07:26Z</time>
      </trkpt>
      <trkpt lat="43.02012" lon="1.41918">
        <ele>395</ele>
        <time>2024-06-23T09:07:27Z</time>
      </trkpt>
      <trkpt lat="43.0201" lon="1.41924">
        <ele>395</ele>
        <time>2024-06-23T09:07:28Z</time>
      </trkpt>
      <trkpt lat="43.02008" lon="1.41932">
        <ele>395.4</ele>
        <time>2024-06-23T09:07:29Z</time>
      </trkpt>
      <trkpt lat="43.02007" lon="1.41939">
        <ele>395.4</ele>
        <time>2024-06-23T09:07:30Z</time>
      </trkpt>
      <trkpt lat="43.02005" lon="1.41947">
        <ele>395.4</ele>
        <time>2024-06-23T09:07:31Z</time>
      </trkpt>
      <trkpt lat="43.02003" lon="1.41955">
        <ele>395.4</ele>
        <time>2024-06-23T09:07:32Z</time>
      </trkpt>
      <trkpt lat="43.02001" lon="1.41964">
        <ele>395.6</ele>
        <time>2024-06-23T09:07:33Z</time>
      </trkpt>
      <trkpt lat="43.01999" lon="1.41971">
        <ele>395.6</ele>
        <time>2024-06-23T09:07:34Z</time>
      </trkpt>
      <trkpt lat="43.01997" lon="1.41977">
        <ele>395.6</ele>
        <time>2024-06-23T09:07:35Z</time>
      </trkpt>
      <trkpt lat="43.01996" lon="1.41984">
        <ele>395.6</ele>
        <time>2024-06-23T09:07:36Z</time>
      </trkpt>
      <trkpt lat="43.01994" lon="1.4199">
        <ele>395.8</ele>
        <time>2024-06-23T09:07:37Z</time>
      </trkpt>
      <trkpt lat="43.01992" lon="1.41997">
        <ele>395.8</ele>
        <time>2024-06-23T09:07:38Z</time>
      </trkpt>
      <trkpt lat="43.0199" lon="1.42004">
        <ele>396.4</ele>
        <time>2024-06-23T09:07:39Z</time>
      </trkpt>
      <trkpt lat="43.0199" lon="1.42012">
        <ele>396.4</ele>
        <time>2024-06-23T09:07:40Z</time>
      </trkpt>
      <trkpt lat="43.01987" lon="1.42018">
        <ele>396.4</ele>
        <time>2024-06-23T09:07:41Z</time>
      </trkpt>
      <trkpt lat="43.01986" lon="1.42026">
        <ele>396.4</ele>
        <time>2024-06-23T09:07:42Z</time>
      </trkpt>
      <trkpt lat="43.01984" lon="1.42034">
        <ele>396.4</ele>
        <time>2024-06-23T09:07:43Z</time>
      </trkpt>
      <trkpt lat="43.01981" lon="1.4204">
        <ele>396.4</ele>
        <time>2024-06-23T09:07:44Z</time>
      </trkpt>
      <trkpt lat="43.01978" lon="1.42046">
        <ele>396.4</ele>
        <time>2024-06-23T09:07:45Z</time>
      </trkpt>
      <trkpt lat="43.01976" lon="1.42053">
        <ele>396.4</ele>
        <time>2024-06-23T09:07:46Z</time>
      </trkpt>
      <trkpt lat="43.01974" lon="1.4206">
        <ele>396.6</ele>
        <time>2024-06-23T09:07:47Z</time>
      </trkpt>
      <trkpt lat="43.01972" lon="1.42067">
        <ele>396.8</ele>
        <time>2024-06-23T09:07:48Z</time>
      </trkpt>
      <trkpt lat="43.0197" lon="1.42073">
        <ele>397</ele>
        <time>2024-06-23T09:07:49Z</time>
      </trkpt>
      <trkpt lat="43.01967" lon="1.4208">
        <ele>397</ele>
        <time>2024-06-23T09:07:50Z</time>
      </trkpt>
      <trkpt lat="43.01965" lon="1.42085">
        <ele>397</ele>
        <time>2024-06-23T09:07:51Z</time>
      </trkpt>
      <trkpt lat="43.01963" lon="1.42092">
        <ele>397</ele>
        <time>2024-06-23T09:07:52Z</time>
      </trkpt>
      <trkpt lat="43.01961" lon="1.42099">
        <ele>397</ele>
        <time>2024-06-23T09:07:53Z</time>
      </trkpt>
      <trkpt lat="43.01958" lon="1.42106">
        <ele>397</ele>
        <time>2024-06-23T09:07:54Z</time>
      </trkpt>
      <trkpt lat="43.01955" lon="1.42112">
        <ele>397</ele>
        <time>2024-06-23T09:07:55Z</time>
      </trkpt>
      <trkpt lat="43.01953" lon="1.42118">
        <ele>397</ele>
        <time>2024-06-23T09:07:56Z</time>
      </trkpt>
      <trkpt lat="43.01949" lon="1.42125">
        <ele>397</ele>
        <time>2024-06-23T09:07:57Z</time>
      </trkpt>
      <trkpt lat="43.01947" lon="1.42131">
        <ele>397</ele>
        <time>2024-06-23T09:07:58Z</time>
      </trkpt>
      <trkpt lat="43.01944" lon="1.42137">
        <ele>397.4</ele>
        <time>2024-06-23T09:07:59Z</time>
      </trkpt>
      <trkpt lat="43.01941" lon="1.42143">
        <ele>396.8</ele>
        <time>2024-06-23T09:08:00Z</time>
      </trkpt>
      <trkpt lat="43.01938" lon="1.42149">
        <ele>397.2</ele>
        <time>2024-06-23T09:08:01Z</time>
      </trkpt>
      <trkpt lat="43.01935" lon="1.42154">
        <ele>397</ele>
        <time>2024-06-23T09:08:02Z</time>
      </trkpt>
      <trkpt lat="43.01931" lon="1.42159">
        <ele>397.2</ele>
        <time>2024-06-23T09:08:03Z</time>
      </trkpt>
      <trkpt lat="43.01928" lon="1.42162">
        <ele>397.6</ele>
        <time>2024-06-23T09:08:04Z</time>
      </trkpt>
      <trkpt lat="43.01925" lon="1.42166">
        <ele>397.8</ele>
        <time>2024-06-23T09:08:05Z</time>
      </trkpt>
      <trkpt lat="43.01921" lon="1.4217">
        <ele>397.8</ele>
        <time>2024-06-23T09:08:06Z</time>
      </trkpt>
      <trkpt lat="43.01917" lon="1.42175">
        <ele>398.2</ele>
        <time>2024-06-23T09:08:07Z</time>
      </trkpt>
      <trkpt lat="43.01914" lon="1.42179">
        <ele>398.2</ele>
        <time>2024-06-23T09:08:08Z</time>
      </trkpt>
      <trkpt lat="43.0191" lon="1.42184">
        <ele>398.2</ele>
        <time>2024-06-23T09:08:09Z</time>
      </trkpt>
      <trkpt lat="43.01906" lon="1.42188">
        <ele>398.2</ele>
        <time>2024-06-23T09:08:10Z</time>
      </trkpt>
      <trkpt lat="43.01903" lon="1.42194">
        <ele>398.6</ele>
        <time>2024-06-23T09:08:11Z</time>
      </trkpt>
      <trkpt lat="43.01899" lon="1.42199">
        <ele>398.8</ele>
        <time>2024-06-23T09:08:12Z</time>
      </trkpt>
      <trkpt lat="43.01895" lon="1.42204">
        <ele>398.8</ele>
        <time>2024-06-23T09:08:13Z</time>
      </trkpt>
      <trkpt lat="43.01891" lon="1.42209">
        <ele>398.8</ele>
        <time>2024-06-23T09:08:14Z</time>
      </trkpt>
      <trkpt lat="43.01888" lon="1.42214">
        <ele>398.8</ele>
        <time>2024-06-23T09:08:15Z</time>
      </trkpt>
      <trkpt lat="43.01883" lon="1.42219">
        <ele>398.8</ele>
        <time>2024-06-23T09:08:16Z</time>
      </trkpt>
      <trkpt lat="43.01879" lon="1.42223">
        <ele>398.8</ele>
        <time>2024-06-23T09:08:17Z</time>
      </trkpt>
      <trkpt lat="43.01875" lon="1.42228">
        <ele>398.8</ele>
        <time>2024-06-23T09:08:18Z</time>
      </trkpt>
      <trkpt lat="43.0187" lon="1.42233">
        <ele>398.8</ele>
        <time>2024-06-23T09:08:19Z</time>
      </trkpt>
      <trkpt lat="43.01866" lon="1.42238">
        <ele>398.8</ele>
        <time>2024-06-23T09:08:20Z</time>
      </trkpt>
      <trkpt lat="43.01861" lon="1.42242">
        <ele>399</ele>
        <time>2024-06-23T09:08:21Z</time>
      </trkpt>
      <trkpt lat="43.01857" lon="1.42245">
        <ele>399</ele>
        <time>2024-06-23T09:08:22Z</time>
      </trkpt>
      <trkpt lat="43.01852" lon="1.4225">
        <ele>399.2</ele>
        <time>2024-06-23T09:08:23Z</time>
      </trkpt>
      <trkpt lat="43.01848" lon="1.42255">
        <ele>399.2</ele>
        <time>2024-06-23T09:08:24Z</time>
      </trkpt>
      <trkpt lat="43.01843" lon="1.42259">
        <ele>399.2</ele>
        <time>2024-06-23T09:08:25Z</time>
      </trkpt>
      <trkpt lat="43.01839" lon="1.42263">
        <ele>399.2</ele>
        <time>2024-06-23T09:08:26Z</time>
      </trkpt>
      <trkpt lat="43.01834" lon="1.42268">
        <ele>399.4</ele>
        <time>2024-06-23T09:08:27Z</time>
      </trkpt>
      <trkpt lat="43.0183" lon="1.42272">
        <ele>399.4</ele>
        <time>2024-06-23T09:08:28Z</time>
      </trkpt>
      <trkpt lat="43.01826" lon="1.42276">
        <ele>399.8</ele>
        <time>2024-06-23T09:08:29Z</time>
      </trkpt>
      <trkpt lat="43.01821" lon="1.42281">
        <ele>399.8</ele>
        <time>2024-06-23T09:08:30Z</time>
      </trkpt>
      <trkpt lat="43.01817" lon="1.42285">
        <ele>400</ele>
        <time>2024-06-23T09:08:31Z</time>
      </trkpt>
      <trkpt lat="43.01812" lon="1.42289">
        <ele>400</ele>
        <time>2024-06-23T09:08:32Z</time>
      </trkpt>
      <trkpt lat="43.01808" lon="1.42292">
        <ele>400</ele>
        <time>2024-06-23T09:08:33Z</time>
      </trkpt>
      <trkpt lat="43.01803" lon="1.42297">
        <ele>399.8</ele>
        <time>2024-06-23T09:08:34Z</time>
      </trkpt>
      <trkpt lat="43.01799" lon="1.42301">
        <ele>399.8</ele>
        <time>2024-06-23T09:08:35Z</time>
      </trkpt>
      <trkpt lat="43.01794" lon="1.42306">
        <ele>399.8</ele>
        <time>2024-06-23T09:08:36Z</time>
      </trkpt>
      <trkpt lat="43.01791" lon="1.4231">
        <ele>400.2</ele>
        <time>2024-06-23T09:08:37Z</time>
      </trkpt>
      <trkpt lat="43.01786" lon="1.42314">
        <ele>400.2</ele>
        <time>2024-06-23T09:08:38Z</time>
      </trkpt>
      <trkpt lat="43.01782" lon="1.42319">
        <ele>400.2</ele>
        <time>2024-06-23T09:08:39Z</time>
      </trkpt>
      <trkpt lat="43.01777" lon="1.42324">
        <ele>400.2</ele>
        <time>2024-06-23T09:08:40Z</time>
      </trkpt>
      <trkpt lat="43.01773" lon="1.42329">
        <ele>400.4</ele>
        <time>2024-06-23T09:08:41Z</time>
      </trkpt>
      <trkpt lat="43.01769" lon="1.42333">
        <ele>400.4</ele>
        <time>2024-06-23T09:08:42Z</time>
      </trkpt>
      <trkpt lat="43.01766" lon="1.42339">
        <ele>400.4</ele>
        <time>2024-06-23T09:08:43Z</time>
      </trkpt>
      <trkpt lat="43.01762" lon="1.42344">
        <ele>400.4</ele>
        <time>2024-06-23T09:08:44Z</time>
      </trkpt>
      <trkpt lat="43.01758" lon="1.42349">
        <ele>400.4</ele>
        <time>2024-06-23T09:08:45Z</time>
      </trkpt>
      <trkpt lat="43.01754" lon="1.42353">
        <ele>400.4</ele>
        <time>2024-06-23T09:08:46Z</time>
      </trkpt>
      <trkpt lat="43.0175" lon="1.42357">
        <ele>400.4</ele>
        <time>2024-06-23T09:08:47Z</time>
      </trkpt>
      <trkpt lat="43.01747" lon="1.42363">
        <ele>400.8</ele>
        <time>2024-06-23T09:08:48Z</time>
      </trkpt>
      <trkpt lat="43.01743" lon="1.42368">
        <ele>400.8</ele>
        <time>2024-06-23T09:08:49Z</time>
      </trkpt>
      <trkpt lat="43.0174" lon="1.42374">
        <ele>400.8</ele>
        <time>2024-06-23T09:08:50Z</time>
      </trkpt>
      <trkpt lat="43.01736" lon="1.42379">
        <ele>401.2</ele>
        <time>2024-06-23T09:08:51Z</time>
      </trkpt>
      <trkpt lat="43.01734" lon="1.42385">
        <ele>401.2</ele>
        <time>2024-06-23T09:08:52Z</time>
      </trkpt>
      <trkpt lat="43.0173" lon="1.4239">
        <ele>401.2</ele>
        <time>2024-06-23T09:08:53Z</time>
      </trkpt>
      <trkpt lat="43.01727" lon="1.42396">
        <ele>401.4</ele>
        <time>2024-06-23T09:08:54Z</time>
      </trkpt>
      <trkpt lat="43.01723" lon="1.42401">
        <ele>401.6</ele>
        <time>2024-06-23T09:08:55Z</time>
      </trkpt>
      <trkpt lat="43.0172" lon="1.42407">
        <ele>401.6</ele>
        <time>2024-06-23T09:08:56Z</time>
      </trkpt>
      <trkpt lat="43.01717" lon="1.42414">
        <ele>402</ele>
        <time>2024-06-23T09:08:57Z</time>
      </trkpt>
      <trkpt lat="43.01714" lon="1.42419">
        <ele>402</ele>
        <time>2024-06-23T09:08:58Z</time>
      </trkpt>
      <trkpt lat="43.0171" lon="1.42425">
        <ele>402</ele>
        <time>2024-06-23T09:08:59Z</time>
      </trkpt>
      <trkpt lat="43.01709" lon="1.4243">
        <ele>402</ele>
        <time>2024-06-23T09:09:00Z</time>
      </trkpt>
      <trkpt lat="43.01705" lon="1.42436">
        <ele>402</ele>
        <time>2024-06-23T09:09:01Z</time>
      </trkpt>
      <trkpt lat="43.01703" lon="1.42443">
        <ele>402</ele>
        <time>2024-06-23T09:09:02Z</time>
      </trkpt>
      <trkpt lat="43.01701" lon="1.42449">
        <ele>401.8</ele>
        <time>2024-06-23T09:09:03Z</time>
      </trkpt>
      <trkpt lat="43.01699" lon="1.42455">
        <ele>401.8</ele>
        <time>2024-06-23T09:09:04Z</time>
      </trkpt>
      <trkpt lat="43.01698" lon="1.4246">
        <ele>402</ele>
        <time>2024-06-23T09:09:05Z</time>
      </trkpt>
      <trkpt lat="43.01698" lon="1.42467">
        <ele>402</ele>
        <time>2024-06-23T09:09:06Z</time>
      </trkpt>
      <trkpt lat="43.01696" lon="1.42475">
        <ele>402</ele>
        <time>2024-06-23T09:09:07Z</time>
      </trkpt>
      <trkpt lat="43.01694" lon="1.42482">
        <ele>402.4</ele>
        <time>2024-06-23T09:09:08Z</time>
      </trkpt>
      <trkpt lat="43.01691" lon="1.42489">
        <ele>402.4</ele>
        <time>2024-06-23T09:09:09Z</time>
      </trkpt>
      <trkpt lat="43.0169" lon="1.42496">
        <ele>402.4</ele>
        <time>2024-06-23T09:09:10Z</time>
      </trkpt>
      <trkpt lat="43.01691" lon="1.42502">
        <ele>402.4</ele>
        <time>2024-06-23T09:09:11Z</time>
      </trkpt>
      <trkpt lat="43.01689" lon="1.42509">
        <ele>402.8</ele>
        <time>2024-06-23T09:09:12Z</time>
      </trkpt>
      <trkpt lat="43.01688" lon="1.42516">
        <ele>402.8</ele>
        <time>2024-06-23T09:09:13Z</time>
      </trkpt>
      <trkpt lat="43.01686" lon="1.42523">
        <ele>402.8</ele>
        <time>2024-06-23T09:09:14Z</time>
      </trkpt>
      <trkpt lat="43.01684" lon="1.42529">
        <ele>402.8</ele>
        <time>2024-06-23T09:09:15Z</time>
      </trkpt>
      <trkpt lat="43.01683" lon="1.42534">
        <ele>402.8</ele>
        <time>2024-06-23T09:09:16Z</time>
      </trkpt>
      <trkpt lat="43.0168" lon="1.4254">
        <ele>403</ele>
        <time>2024-06-23T09:09:17Z</time>
      </trkpt>
      <trkpt lat="43.01678" lon="1.42548">
        <ele>403</ele>
        <time>2024-06-23T09:09:18Z</time>
      </trkpt>
      <trkpt lat="43.01679" lon="1.42553">
        <ele>403</ele>
        <time>2024-06-23T09:09:19Z</time>
      </trkpt>
      <trkpt lat="43.01678" lon="1.42561">
        <ele>403</ele>
        <time>2024-06-23T09:09:20Z</time>
      </trkpt>
      <trkpt lat="43.01678" lon="1.42569">
        <ele>403.2</ele>
        <time>2024-06-23T09:09:21Z</time>
      </trkpt>
      <trkpt lat="43.01679" lon="1.42576">
        <ele>403.2</ele>
        <time>2024-06-23T09:09:22Z</time>
      </trkpt>
      <trkpt lat="43.01679" lon="1.42583">
        <ele>403.6</ele>
        <time>2024-06-23T09:09:23Z</time>
      </trkpt>
      <trkpt lat="43.01677" lon="1.42586">
        <ele>403.6</ele>
        <time>2024-06-23T09:09:24Z</time>
      </trkpt>
      <trkpt lat="43.01676" lon="1.42592">
        <ele>403.8</ele>
        <time>2024-06-23T09:09:25Z</time>
      </trkpt>
      <trkpt lat="43.01676" lon="1.42599">
        <ele>403.4</ele>
        <time>2024-06-23T09:09:26Z</time>
      </trkpt>
      <trkpt lat="43.01674" lon="1.42605">
        <ele>403.4</ele>
        <time>2024-06-23T09:09:27Z</time>
      </trkpt>
      <trkpt lat="43.01673" lon="1.42611">
        <ele>403.6</ele>
        <time>2024-06-23T09:09:28Z</time>
      </trkpt>
      <trkpt lat="43.01673" lon="1.42618">
        <ele>403.6</ele>
        <time>2024-06-23T09:09:29Z</time>
      </trkpt>
      <trkpt lat="43.01672" lon="1.42624">
        <ele>403.6</ele>
        <time>2024-06-23T09:09:30Z</time>
      </trkpt>
      <trkpt lat="43.0167" lon="1.42631">
        <ele>403.6</ele>
        <time>2024-06-23T09:09:31Z</time>
      </trkpt>
      <trkpt lat="43.01668" lon="1.42636">
        <ele>403.6</ele>
        <time>2024-06-23T09:09:32Z</time>
      </trkpt>
      <trkpt lat="43.01668" lon="1.42643">
        <ele>403.6</ele>
        <time>2024-06-23T09:09:33Z</time>
      </trkpt>
      <trkpt lat="43.01666" lon="1.4265">
        <ele>404.2</ele>
        <time>2024-06-23T09:09:34Z</time>
      </trkpt>
      <trkpt lat="43.01666" lon="1.42656">
        <ele>404.2</ele>
        <time>2024-06-23T09:09:35Z</time>
      </trkpt>
      <trkpt lat="43.01665" lon="1.42663">
        <ele>404.2</ele>
        <time>2024-06-23T09:09:36Z</time>
      </trkpt>
      <trkpt lat="43.01663" lon="1.42669">
        <ele>404.4</ele>
        <time>2024-06-23T09:09:37Z</time>
      </trkpt>
      <trkpt lat="43.0166" lon="1.42676">
        <ele>404.4</ele>
        <time>2024-06-23T09:09:38Z</time>
      </trkpt>
      <trkpt lat="43.01658" lon="1.42683">
        <ele>404.4</ele>
        <time>2024-06-23T09:09:39Z</time>
      </trkpt>
      <trkpt lat="43.01657" lon="1.42689">
        <ele>404.6</ele>
        <time>2024-06-23T09:09:40Z</time>
      </trkpt>
      <trkpt lat="43.01656" lon="1.42694">
        <ele>404.6</ele>
        <time>2024-06-23T09:09:41Z</time>
      </trkpt>
      <trkpt lat="43.01654" lon="1.42699">
        <ele>404.6</ele>
        <time>2024-06-23T09:09:42Z</time>
      </trkpt>
      <trkpt lat="43.01653" lon="1.42706">
        <ele>404.6</ele>
        <time>2024-06-23T09:09:43Z</time>
      </trkpt>
      <trkpt lat="43.01652" lon="1.42712">
        <ele>404.8</ele>
        <time>2024-06-23T09:09:44Z</time>
      </trkpt>
      <trkpt lat="43.01649" lon="1.42718">
        <ele>405</ele>
        <time>2024-06-23T09:09:45Z</time>
      </trkpt>
      <trkpt lat="43.01648" lon="1.42723">
        <ele>405</ele>
        <time>2024-06-23T09:09:46Z</time>
      </trkpt>
      <trkpt lat="43.01646" lon="1.42729">
        <ele>405</ele>
        <time>2024-06-23T09:09:47Z</time>
      </trkpt>
      <trkpt lat="43.01644" lon="1.42735">
        <ele>404.8</ele>
        <time>2024-06-23T09:09:48Z</time>
      </trkpt>
      <trkpt lat="43.01641" lon="1.42741">
        <ele>405.2</ele>
        <time>2024-06-23T09:09:49Z</time>
      </trkpt>
      <trkpt lat="43.01639" lon="1.42747">
        <ele>405.6</ele>
        <time>2024-06-23T09:09:50Z</time>
      </trkpt>
      <trkpt lat="43.01636" lon="1.42753">
        <ele>405.6</ele>
        <time>2024-06-23T09:09:51Z</time>
      </trkpt>
      <trkpt lat="43.01633" lon="1.42758">
        <ele>405.6</ele>
        <time>2024-06-23T09:09:52Z</time>
      </trkpt>
      <trkpt lat="43.0163" lon="1.42764">
        <ele>405.6</ele>
        <time>2024-06-23T09:09:53Z</time>
      </trkpt>
      <trkpt lat="43.01627" lon="1.4277">
        <ele>405.6</ele>
        <time>2024-06-23T09:09:54Z</time>
      </trkpt>
      <trkpt lat="43.01625" lon="1.42776">
        <ele>405.8</ele>
        <time>2024-06-23T09:09:55Z</time>
      </trkpt>
      <trkpt lat="43.01622" lon="1.42782">
        <ele>405.8</ele>
        <time>2024-06-23T09:09:56Z</time>
      </trkpt>
      <trkpt lat="43.01619" lon="1.42788">
        <ele>405.8</ele>
        <time>2024-06-23T09:09:57Z</time>
      </trkpt>
      <trkpt lat="43.01616" lon="1.42795">
        <ele>405.8</ele>
        <time>2024-06-23T09:09:58Z</time>
      </trkpt>
      <trkpt lat="43.01612" lon="1.42801">
        <ele>406.2</ele>
        <time>2024-06-23T09:09:59Z</time>
      </trkpt>
      <trkpt lat="43.01609" lon="1.42807">
        <ele>406.4</ele>
        <time>2024-06-23T09:10:00Z</time>
      </trkpt>
      <trkpt lat="43.01606" lon="1.42813">
        <ele>406.4</ele>
        <time>2024-06-23T09:10:01Z</time>
      </trkpt>
      <trkpt lat="43.01603" lon="1.4282">
        <ele>406.6</ele>
        <time>2024-06-23T09:10:02Z</time>
      </trkpt>
      <trkpt lat="43.016" lon="1.42826">
        <ele>406.6</ele>
        <time>2024-06-23T09:10:03Z</time>
      </trkpt>
      <trkpt lat="43.01597" lon="1.42832">
        <ele>407</ele>
        <time>2024-06-23T09:10:04Z</time>
      </trkpt>
      <trkpt lat="43.01593" lon="1.42837">
        <ele>407</ele>
        <time>2024-06-23T09:10:05Z</time>
      </trkpt>
      <trkpt lat="43.0159" lon="1.42843">
        <ele>407</ele>
        <time>2024-06-23T09:10:06Z</time>
      </trkpt>
      <trkpt lat="43.01587" lon="1.42849">
        <ele>407</ele>
        <time>2024-06-23T09:10:07Z</time>
      </trkpt>
      <trkpt lat="43.01584" lon="1.42854">
        <ele>407</ele>
        <time>2024-06-23T09:10:08Z</time>
      </trkpt>
      <trkpt lat="43.01581" lon="1.42861">
        <ele>407</ele>
        <time>2024-06-23T09:10:09Z</time>
      </trkpt>
      <trkpt lat="43.01578" lon="1.42867">
        <ele>407</ele>
        <time>2024-06-23T09:10:10Z</time>
      </trkpt>
      <trkpt lat="43.01574" lon="1.42873">
        <ele>407</ele>
        <time>2024-06-23T09:10:11Z</time>
      </trkpt>
      <trkpt lat="43.01571" lon="1.42879">
        <ele>407</ele>
        <time>2024-06-23T09:10:12Z</time>
      </trkpt>
      <trkpt lat="43.01568" lon="1.42885">
        <ele>407.2</ele>
        <time>2024-06-23T09:10:13Z</time>
      </trkpt>
      <trkpt lat="43.01565" lon="1.42891">
        <ele>407.2</ele>
        <time>2024-06-23T09:10:14Z</time>
      </trkpt>
      <trkpt lat="43.01562" lon="1.42897">
        <ele>407.2</ele>
        <time>2024-06-23T09:10:15Z</time>
      </trkpt>
      <trkpt lat="43.01558" lon="1.42904">
        <ele>407.2</ele>
        <time>2024-06-23T09:10:16Z</time>
      </trkpt>
      <trkpt lat="43.01555" lon="1.42909">
        <ele>407.4</ele>
        <time>2024-06-23T09:10:17Z</time>
      </trkpt>
      <trkpt lat="43.01552" lon="1.42915">
        <ele>407.2</ele>
        <time>2024-06-23T09:10:18Z</time>
      </trkpt>
      <trkpt lat="43.0155" lon="1.42921">
        <ele>407.2</ele>
        <time>2024-06-23T09:10:19Z</time>
      </trkpt>
      <trkpt lat="43.01547" lon="1.42928">
        <ele>406.8</ele>
        <time>2024-06-23T09:10:20Z</time>
      </trkpt>
      <trkpt lat="43.01543" lon="1.42935">
        <ele>406.8</ele>
        <time>2024-06-23T09:10:21Z</time>
      </trkpt>
      <trkpt lat="43.0154" lon="1.42942">
        <ele>406.8</ele>
        <time>2024-06-23T09:10:22Z</time>
      </trkpt>
      <trkpt lat="43.01538" lon="1.42949">
        <ele>406.8</ele>
        <time>2024-06-23T09:10:23Z</time>
      </trkpt>
      <trkpt lat="43.01535" lon="1.42956">
        <ele>406.8</ele>
        <time>2024-06-23T09:10:24Z</time>
      </trkpt>
      <trkpt lat="43.01532" lon="1.42963">
        <ele>406.8</ele>
        <time>2024-06-23T09:10:25Z</time>
      </trkpt>
      <trkpt lat="43.0153" lon="1.4297">
        <ele>406.8</ele>
        <time>2024-06-23T09:10:26Z</time>
      </trkpt>
      <trkpt lat="43.01527" lon="1.42977">
        <ele>406.6</ele>
        <time>2024-06-23T09:10:27Z</time>
      </trkpt>
      <trkpt lat="43.01524" lon="1.42983">
        <ele>406.6</ele>
        <time>2024-06-23T09:10:28Z</time>
      </trkpt>
      <trkpt lat="43.01521" lon="1.4299">
        <ele>406.6</ele>
        <time>2024-06-23T09:10:29Z</time>
      </trkpt>
      <trkpt lat="43.01518" lon="1.42997">
        <ele>406.6</ele>
        <time>2024-06-23T09:10:30Z</time>
      </trkpt>
      <trkpt lat="43.01515" lon="1.43002">
        <ele>406.8</ele>
        <time>2024-06-23T09:10:31Z</time>
      </trkpt>
      <trkpt lat="43.01513" lon="1.43009">
        <ele>407</ele>
        <time>2024-06-23T09:10:32Z</time>
      </trkpt>
      <trkpt lat="43.0151" lon="1.43015">
        <ele>407</ele>
        <time>2024-06-23T09:10:33Z</time>
      </trkpt>
      <trkpt lat="43.01507" lon="1.4302">
        <ele>407</ele>
        <time>2024-06-23T09:10:34Z</time>
      </trkpt>
      <trkpt lat="43.01504" lon="1.43026">
        <ele>406.8</ele>
        <time>2024-06-23T09:10:35Z</time>
      </trkpt>
      <trkpt lat="43.01501" lon="1.43032">
        <ele>406.8</ele>
        <time>2024-06-23T09:10:36Z</time>
      </trkpt>
      <trkpt lat="43.01499" lon="1.43038">
        <ele>407</ele>
        <time>2024-06-23T09:10:37Z</time>
      </trkpt>
      <trkpt lat="43.01496" lon="1.43044">
        <ele>407</ele>
        <time>2024-06-23T09:10:38Z</time>
      </trkpt>
      <trkpt lat="43.01492" lon="1.43049">
        <ele>407.4</ele>
        <time>2024-06-23T09:10:39Z</time>
      </trkpt>
      <trkpt lat="43.01489" lon="1.43055">
        <ele>407.4</ele>
        <time>2024-06-23T09:10:40Z</time>
      </trkpt>
      <trkpt lat="43.01485" lon="1.43061">
        <ele>407.4</ele>
        <time>2024-06-23T09:10:41Z</time>
      </trkpt>
      <trkpt lat="43.01481" lon="1.43066">
        <ele>407.4</ele>
        <time>2024-06-23T09:10:42Z</time>
      </trkpt>
      <trkpt lat="43.01478" lon="1.43071">
        <ele>407.4</ele>
        <time>2024-06-23T09:10:43Z</time>
      </trkpt>
      <trkpt lat="43.01475" lon="1.43078">
        <ele>407</ele>
        <time>2024-06-23T09:10:44Z</time>
      </trkpt>
      <trkpt lat="43.01472" lon="1.43084">
        <ele>407</ele>
        <time>2024-06-23T09:10:45Z</time>
      </trkpt>
      <trkpt lat="43.01469" lon="1.4309">
        <ele>407</ele>
        <time>2024-06-23T09:10:46Z</time>
      </trkpt>
      <trkpt lat="43.01466" lon="1.43096">
        <ele>407.4</ele>
        <time>2024-06-23T09:10:47Z</time>
      </trkpt>
      <trkpt lat="43.01462" lon="1.43102">
        <ele>407.8</ele>
        <time>2024-06-23T09:10:48Z</time>
      </trkpt>
      <trkpt lat="43.01459" lon="1.43107">
        <ele>407.8</ele>
        <time>2024-06-23T09:10:49Z</time>
      </trkpt>
      <trkpt lat="43.01456" lon="1.43113">
        <ele>407.4</ele>
        <time>2024-06-23T09:10:50Z</time>
      </trkpt>
      <trkpt lat="43.01453" lon="1.43119">
        <ele>407.4</ele>
        <time>2024-06-23T09:10:51Z</time>
      </trkpt>
      <trkpt lat="43.01449" lon="1.43125">
        <ele>407.4</ele>
        <time>2024-06-23T09:10:52Z</time>
      </trkpt>
      <trkpt lat="43.01446" lon="1.43131">
        <ele>407.4</ele>
        <time>2024-06-23T09:10:53Z</time>
      </trkpt>
      <trkpt lat="43.01443" lon="1.43137">
        <ele>407.4</ele>
        <time>2024-06-23T09:10:54Z</time>
      </trkpt>
      <trkpt lat="43.01439" lon="1.43144">
        <ele>407.4</ele>
        <time>2024-06-23T09:10:55Z</time>
      </trkpt>
      <trkpt lat="43.01436" lon="1.4315">
        <ele>407.4</ele>
        <time>2024-06-23T09:10:56Z</time>
      </trkpt>
      <trkpt lat="43.01433" lon="1.43156">
        <ele>407.4</ele>
        <time>2024-06-23T09:10:57Z</time>
      </trkpt>
      <trkpt lat="43.01429" lon="1.43162">
        <ele>407.4</ele>
        <time>2024-06-23T09:10:58Z</time>
      </trkpt>
      <trkpt lat="43.01426" lon="1.43169">
        <ele>407.2</ele>
        <time>2024-06-23T09:10:59Z</time>
      </trkpt>
      <trkpt lat="43.01423" lon="1.43175">
        <ele>407.2</ele>
        <time>2024-06-23T09:11:00Z</time>
      </trkpt>
      <trkpt lat="43.01421" lon="1.43182">
        <ele>407</ele>
        <time>2024-06-23T09:11:01Z</time>
      </trkpt>
      <trkpt lat="43.0142" lon="1.43191">
        <ele>407</ele>
        <time>2024-06-23T09:11:02Z</time>
      </trkpt>
      <trkpt lat="43.01418" lon="1.43198">
        <ele>407</ele>
        <time>2024-06-23T09:11:03Z</time>
      </trkpt>
      <trkpt lat="43.01415" lon="1.43206">
        <ele>407</ele>
        <time>2024-06-23T09:11:04Z</time>
      </trkpt>
      <trkpt lat="43.01413" lon="1.43214">
        <ele>407</ele>
        <time>2024-06-23T09:11:05Z</time>
      </trkpt>
      <trkpt lat="43.0141" lon="1.43222">
        <ele>407</ele>
        <time>2024-06-23T09:11:06Z</time>
      </trkpt>
      <trkpt lat="43.01407" lon="1.43228">
        <ele>407</ele>
        <time>2024-06-23T09:11:07Z</time>
      </trkpt>
      <trkpt lat="43.01405" lon="1.43234">
        <ele>407.4</ele>
        <time>2024-06-23T09:11:08Z</time>
      </trkpt>
      <trkpt lat="43.01402" lon="1.43242">
        <ele>407.4</ele>
        <time>2024-06-23T09:11:09Z</time>
      </trkpt>
      <trkpt lat="43.014" lon="1.43249">
        <ele>407.4</ele>
        <time>2024-06-23T09:11:10Z</time>
      </trkpt>
      <trkpt lat="43.01398" lon="1.43256">
        <ele>407.2</ele>
        <time>2024-06-23T09:11:11Z</time>
      </trkpt>
      <trkpt lat="43.01396" lon="1.43263">
        <ele>407.2</ele>
        <time>2024-06-23T09:11:12Z</time>
      </trkpt>
      <trkpt lat="43.01394" lon="1.43268">
        <ele>407.2</ele>
        <time>2024-06-23T09:11:13Z</time>
      </trkpt>
      <trkpt lat="43.01386" lon="1.43282">
        <ele>407.2</ele>
        <time>2024-06-23T09:11:14Z</time>
      </trkpt>
      <trkpt lat="43.01384" lon="1.43289">
        <ele>407.2</ele>
        <time>2024-06-23T09:11:15Z</time>
      </trkpt>
      <trkpt lat="43.01381" lon="1.43295">
        <ele>407.4</ele>
        <time>2024-06-23T09:11:16Z</time>
      </trkpt>
      <trkpt lat="43.01379" lon="1.43303">
        <ele>407.6</ele>
        <time>2024-06-23T09:11:17Z</time>
      </trkpt>
      <trkpt lat="43.01377" lon="1.4331">
        <ele>407.6</ele>
        <time>2024-06-23T09:11:18Z</time>
      </trkpt>
      <trkpt lat="43.01375" lon="1.43318">
        <ele>407.2</ele>
        <time>2024-06-23T09:11:19Z</time>
      </trkpt>
      <trkpt lat="43.01374" lon="1.43326">
        <ele>407.2</ele>
        <time>2024-06-23T09:11:20Z</time>
      </trkpt>
      <trkpt lat="43.01373" lon="1.43334">
        <ele>407</ele>
        <time>2024-06-23T09:11:21Z</time>
      </trkpt>
      <trkpt lat="43.01372" lon="1.43342">
        <ele>407</ele>
        <time>2024-06-23T09:11:22Z</time>
      </trkpt>
      <trkpt lat="43.0137" lon="1.43349">
        <ele>407</ele>
        <time>2024-06-23T09:11:23Z</time>
      </trkpt>
      <trkpt lat="43.01369" lon="1.43357">
        <ele>407</ele>
        <time>2024-06-23T09:11:24Z</time>
      </trkpt>
      <trkpt lat="43.01368" lon="1.43364">
        <ele>407</ele>
        <time>2024-06-23T09:11:25Z</time>
      </trkpt>
      <trkpt lat="43.01367" lon="1.43372">
        <ele>407</ele>
        <time>2024-06-23T09:11:26Z</time>
      </trkpt>
      <trkpt lat="43.01366" lon="1.43379">
        <ele>407</ele>
        <time>2024-06-23T09:11:27Z</time>
      </trkpt>
      <trkpt lat="43.01366" lon="1.43387">
        <ele>407</ele>
        <time>2024-06-23T09:11:28Z</time>
      </trkpt>
      <trkpt lat="43.01365" lon="1.43394">
        <ele>407.4</ele>
        <time>2024-06-23T09:11:29Z</time>
      </trkpt>
      <trkpt lat="43.01365" lon="1.43401">
        <ele>407.4</ele>
        <time>2024-06-23T09:11:30Z</time>
      </trkpt>
      <trkpt lat="43.01364" lon="1.43407">
        <ele>407.4</ele>
        <time>2024-06-23T09:11:31Z</time>
      </trkpt>
      <trkpt lat="43.01363" lon="1.43413">
        <ele>407.4</ele>
        <time>2024-06-23T09:11:32Z</time>
      </trkpt>
      <trkpt lat="43.01362" lon="1.43421">
        <ele>407.4</ele>
        <time>2024-06-23T09:11:33Z</time>
      </trkpt>
      <trkpt lat="43.01361" lon="1.43428">
        <ele>407.4</ele>
        <time>2024-06-23T09:11:34Z</time>
      </trkpt>
      <trkpt lat="43.0136" lon="1.43435">
        <ele>407.4</ele>
        <time>2024-06-23T09:11:35Z</time>
      </trkpt>
      <trkpt lat="43.0136" lon="1.43443">
        <ele>407.4</ele>
        <time>2024-06-23T09:11:36Z</time>
      </trkpt>
      <trkpt lat="43.01358" lon="1.43451">
        <ele>407.4</ele>
        <time>2024-06-23T09:11:37Z</time>
      </trkpt>
      <trkpt lat="43.01357" lon="1.43458">
        <ele>407.4</ele>
        <time>2024-06-23T09:11:38Z</time>
      </trkpt>
      <trkpt lat="43.01356" lon="1.43467">
        <ele>407.6</ele>
        <time>2024-06-23T09:11:39Z</time>
      </trkpt>
      <trkpt lat="43.01355" lon="1.43474">
        <ele>407.6</ele>
        <time>2024-06-23T09:11:40Z</time>
      </trkpt>
      <trkpt lat="43.01355" lon="1.43482">
        <ele>407.6</ele>
        <time>2024-06-23T09:11:41Z</time>
      </trkpt>
      <trkpt lat="43.01355" lon="1.4349">
        <ele>406.4</ele>
        <time>2024-06-23T09:11:42Z</time>
      </trkpt>
      <trkpt lat="43.01355" lon="1.43497">
        <ele>407</ele>
        <time>2024-06-23T09:11:43Z</time>
      </trkpt>
      <trkpt lat="43.01354" lon="1.43503">
        <ele>407</ele>
        <time>2024-06-23T09:11:44Z</time>
      </trkpt>
      <trkpt lat="43.01353" lon="1.4351">
        <ele>407.4</ele>
        <time>2024-06-23T09:11:45Z</time>
      </trkpt>
      <trkpt lat="43.01353" lon="1.43517">
        <ele>407.4</ele>
        <time>2024-06-23T09:11:46Z</time>
      </trkpt>
      <trkpt lat="43.01353" lon="1.43525">
        <ele>407.4</ele>
        <time>2024-06-23T09:11:47Z</time>
      </trkpt>
      <trkpt lat="43.01353" lon="1.43533">
        <ele>407.8</ele>
        <time>2024-06-23T09:11:48Z</time>
      </trkpt>
      <trkpt lat="43.01352" lon="1.4354">
        <ele>407.8</ele>
        <time>2024-06-23T09:11:49Z</time>
      </trkpt>
      <trkpt lat="43.01352" lon="1.43547">
        <ele>408</ele>
        <time>2024-06-23T09:11:50Z</time>
      </trkpt>
      <trkpt lat="43.01352" lon="1.43554">
        <ele>408.2</ele>
        <time>2024-06-23T09:11:51Z</time>
      </trkpt>
      <trkpt lat="43.01352" lon="1.43562">
        <ele>407.8</ele>
        <time>2024-06-23T09:11:52Z</time>
      </trkpt>
      <trkpt lat="43.01352" lon="1.43569">
        <ele>407.8</ele>
        <time>2024-06-23T09:11:53Z</time>
      </trkpt>
      <trkpt lat="43.01351" lon="1.43576">
        <ele>408.4</ele>
        <time>2024-06-23T09:11:54Z</time>
      </trkpt>
      <trkpt lat="43.01351" lon="1.43584">
        <ele>408.4</ele>
        <time>2024-06-23T09:11:55Z</time>
      </trkpt>
      <trkpt lat="43.0135" lon="1.43592">
        <ele>408.8</ele>
        <time>2024-06-23T09:11:56Z</time>
      </trkpt>
      <trkpt lat="43.01349" lon="1.43599">
        <ele>408.8</ele>
        <time>2024-06-23T09:11:57Z</time>
      </trkpt>
      <trkpt lat="43.01349" lon="1.43607">
        <ele>408.6</ele>
        <time>2024-06-23T09:11:58Z</time>
      </trkpt>
      <trkpt lat="43.01349" lon="1.43613">
        <ele>408.6</ele>
        <time>2024-06-23T09:11:59Z</time>
      </trkpt>
      <trkpt lat="43.01349" lon="1.4362">
        <ele>408.6</ele>
        <time>2024-06-23T09:12:00Z</time>
      </trkpt>
      <trkpt lat="43.01348" lon="1.43628">
        <ele>408.4</ele>
        <time>2024-06-23T09:12:01Z</time>
      </trkpt>
      <trkpt lat="43.01348" lon="1.43635">
        <ele>408.2</ele>
        <time>2024-06-23T09:12:02Z</time>
      </trkpt>
      <trkpt lat="43.01348" lon="1.43643">
        <ele>409</ele>
        <time>2024-06-23T09:12:03Z</time>
      </trkpt>
      <trkpt lat="43.01348" lon="1.43651">
        <ele>409.2</ele>
        <time>2024-06-23T09:12:04Z</time>
      </trkpt>
      <trkpt lat="43.01346" lon="1.43657">
        <ele>409.2</ele>
        <time>2024-06-23T09:12:05Z</time>
      </trkpt>
      <trkpt lat="43.01347" lon="1.43665">
        <ele>409</ele>
        <time>2024-06-23T09:12:06Z</time>
      </trkpt>
      <trkpt lat="43.01346" lon="1.43672">
        <ele>409.2</ele>
        <time>2024-06-23T09:12:07Z</time>
      </trkpt>
      <trkpt lat="43.01345" lon="1.43679">
        <ele>409.4</ele>
        <time>2024-06-23T09:12:08Z</time>
      </trkpt>
      <trkpt lat="43.01345" lon="1.43685">
        <ele>409.4</ele>
        <time>2024-06-23T09:12:09Z</time>
      </trkpt>
      <trkpt lat="43.01345" lon="1.43693">
        <ele>410</ele>
        <time>2024-06-23T09:12:10Z</time>
      </trkpt>
      <trkpt lat="43.01344" lon="1.437">
        <ele>410</ele>
        <time>2024-06-23T09:12:11Z</time>
      </trkpt>
      <trkpt lat="43.01344" lon="1.43707">
        <ele>410</ele>
        <time>2024-06-23T09:12:12Z</time>
      </trkpt>
      <trkpt lat="43.01344" lon="1.43713">
        <ele>410</ele>
        <time>2024-06-23T09:12:13Z</time>
      </trkpt>
      <trkpt lat="43.01344" lon="1.43721">
        <ele>410</ele>
        <time>2024-06-23T09:12:14Z</time>
      </trkpt>
      <trkpt lat="43.01344" lon="1.43728">
        <ele>410.6</ele>
        <time>2024-06-23T09:12:15Z</time>
      </trkpt>
      <trkpt lat="43.01343" lon="1.43735">
        <ele>410</ele>
        <time>2024-06-23T09:12:16Z</time>
      </trkpt>
      <trkpt lat="43.01343" lon="1.43742">
        <ele>409.4</ele>
        <time>2024-06-23T09:12:17Z</time>
      </trkpt>
      <trkpt lat="43.01342" lon="1.4375">
        <ele>409.8</ele>
        <time>2024-06-23T09:12:18Z</time>
      </trkpt>
      <trkpt lat="43.01342" lon="1.43757">
        <ele>410.4</ele>
        <time>2024-06-23T09:12:19Z</time>
      </trkpt>
      <trkpt lat="43.01341" lon="1.43764">
        <ele>410.4</ele>
        <time>2024-06-23T09:12:20Z</time>
      </trkpt>
      <trkpt lat="43.01341" lon="1.43771">
        <ele>410.4</ele>
        <time>2024-06-23T09:12:21Z</time>
      </trkpt>
      <trkpt lat="43.01341" lon="1.43779">
        <ele>410.4</ele>
        <time>2024-06-23T09:12:22Z</time>
      </trkpt>
      <trkpt lat="43.0134" lon="1.43787">
        <ele>410.4</ele>
        <time>2024-06-23T09:12:23Z</time>
      </trkpt>
      <trkpt lat="43.01339" lon="1.43794">
        <ele>410.6</ele>
        <time>2024-06-23T09:12:24Z</time>
      </trkpt>
      <trkpt lat="43.01339" lon="1.43802">
        <ele>411</ele>
        <time>2024-06-23T09:12:25Z</time>
      </trkpt>
      <trkpt lat="43.01338" lon="1.4381">
        <ele>411.2</ele>
        <time>2024-06-23T09:12:26Z</time>
      </trkpt>
      <trkpt lat="43.01338" lon="1.43817">
        <ele>411.6</ele>
        <time>2024-06-23T09:12:27Z</time>
      </trkpt>
      <trkpt lat="43.01337" lon="1.43824">
        <ele>411.8</ele>
        <time>2024-06-23T09:12:28Z</time>
      </trkpt>
      <trkpt lat="43.01336" lon="1.43832">
        <ele>411.8</ele>
        <time>2024-06-23T09:12:29Z</time>
      </trkpt>
      <trkpt lat="43.01336" lon="1.43838">
        <ele>411.8</ele>
        <time>2024-06-23T09:12:30Z</time>
      </trkpt>
      <trkpt lat="43.01336" lon="1.43845">
        <ele>411.8</ele>
        <time>2024-06-23T09:12:31Z</time>
      </trkpt>
      <trkpt lat="43.01335" lon="1.43852">
        <ele>411.8</ele>
        <time>2024-06-23T09:12:32Z</time>
      </trkpt>
      <trkpt lat="43.01334" lon="1.43859">
        <ele>411.4</ele>
        <time>2024-06-23T09:12:33Z</time>
      </trkpt>
      <trkpt lat="43.01333" lon="1.43866">
        <ele>411.2</ele>
        <time>2024-06-23T09:12:34Z</time>
      </trkpt>
      <trkpt lat="43.01332" lon="1.43873">
        <ele>411.2</ele>
        <time>2024-06-23T09:12:35Z</time>
      </trkpt>
      <trkpt lat="43.0133" lon="1.4388">
        <ele>411.2</ele>
        <time>2024-06-23T09:12:36Z</time>
      </trkpt>
      <trkpt lat="43.01329" lon="1.43885">
        <ele>411.2</ele>
        <time>2024-06-23T09:12:37Z</time>
      </trkpt>
      <trkpt lat="43.01328" lon="1.4389">
        <ele>411.6</ele>
        <time>2024-06-23T09:12:38Z</time>
      </trkpt>
      <trkpt lat="43.01328" lon="1.43895">
        <ele>411.8</ele>
        <time>2024-06-23T09:12:39Z</time>
      </trkpt>
      <trkpt lat="43.01329" lon="1.43899">
        <ele>412.2</ele>
        <time>2024-06-23T09:12:40Z</time>
      </trkpt>
      <trkpt lat="43.01329" lon="1.43903">
        <ele>412.2</ele>
        <time>2024-06-23T09:12:41Z</time>
      </trkpt>
      <trkpt lat="43.0133" lon="1.43907">
        <ele>412.4</ele>
        <time>2024-06-23T09:12:42Z</time>
      </trkpt>
      <trkpt lat="43.01331" lon="1.43911">
        <ele>412.4</ele>
        <time>2024-06-23T09:12:43Z</time>
      </trkpt>
      <trkpt lat="43.01332" lon="1.43916">
        <ele>412.8</ele>
        <time>2024-06-23T09:12:44Z</time>
      </trkpt>
      <trkpt lat="43.01332" lon="1.43921">
        <ele>413.4</ele>
        <time>2024-06-23T09:12:45Z</time>
      </trkpt>
      <trkpt lat="43.01332" lon="1.43927">
        <ele>413.2</ele>
        <time>2024-06-23T09:12:46Z</time>
      </trkpt>
      <trkpt lat="43.01332" lon="1.43932">
        <ele>413.2</ele>
        <time>2024-06-23T09:12:47Z</time>
      </trkpt>
      <trkpt lat="43.01331" lon="1.43938">
        <ele>413.4</ele>
        <time>2024-06-23T09:12:48Z</time>
      </trkpt>
      <trkpt lat="43.01331" lon="1.43944">
        <ele>413.2</ele>
        <time>2024-06-23T09:12:49Z</time>
      </trkpt>
      <trkpt lat="43.01331" lon="1.43951">
        <ele>413.2</ele>
        <time>2024-06-23T09:12:50Z</time>
      </trkpt>
      <trkpt lat="43.01331" lon="1.43957">
        <ele>413.2</ele>
        <time>2024-06-23T09:12:51Z</time>
      </trkpt>
      <trkpt lat="43.01329" lon="1.43963">
        <ele>412.6</ele>
        <time>2024-06-23T09:12:52Z</time>
      </trkpt>
      <trkpt lat="43.0133" lon="1.43967">
        <ele>412.6</ele>
        <time>2024-06-23T09:12:53Z</time>
      </trkpt>
      <trkpt lat="43.0133" lon="1.43972">
        <ele>412.2</ele>
        <time>2024-06-23T09:12:54Z</time>
      </trkpt>
      <trkpt lat="43.01328" lon="1.4398">
        <ele>411.8</ele>
        <time>2024-06-23T09:12:55Z</time>
      </trkpt>
      <trkpt lat="43.01328" lon="1.43986">
        <ele>412.2</ele>
        <time>2024-06-23T09:12:56Z</time>
      </trkpt>
      <trkpt lat="43.01327" lon="1.43993">
        <ele>412.4</ele>
        <time>2024-06-23T09:12:57Z</time>
      </trkpt>
      <trkpt lat="43.01326" lon="1.44001">
        <ele>412.8</ele>
        <time>2024-06-23T09:12:58Z</time>
      </trkpt>
      <trkpt lat="43.01325" lon="1.44009">
        <ele>412.8</ele>
        <time>2024-06-23T09:12:59Z</time>
      </trkpt>
      <trkpt lat="43.01324" lon="1.44016">
        <ele>412.8</ele>
        <time>2024-06-23T09:13:00Z</time>
      </trkpt>
      <trkpt lat="43.01322" lon="1.44025">
        <ele>412.8</ele>
        <time>2024-06-23T09:13:01Z</time>
      </trkpt>
      <trkpt lat="43.01321" lon="1.44033">
        <ele>412.8</ele>
        <time>2024-06-23T09:13:02Z</time>
      </trkpt>
      <trkpt lat="43.0132" lon="1.44041">
        <ele>413.2</ele>
        <time>2024-06-23T09:13:03Z</time>
      </trkpt>
      <trkpt lat="43.01319" lon="1.44049">
        <ele>413.2</ele>
        <time>2024-06-23T09:13:04Z</time>
      </trkpt>
      <trkpt lat="43.01318" lon="1.44056">
        <ele>413.6</ele>
        <time>2024-06-23T09:13:05Z</time>
      </trkpt>
      <trkpt lat="43.01317" lon="1.44064">
        <ele>413.6</ele>
        <time>2024-06-23T09:13:06Z</time>
      </trkpt>
      <trkpt lat="43.01316" lon="1.44071">
        <ele>413.8</ele>
        <time>2024-06-23T09:13:07Z</time>
      </trkpt>
      <trkpt lat="43.01315" lon="1.44079">
        <ele>413.8</ele>
        <time>2024-06-23T09:13:08Z</time>
      </trkpt>
      <trkpt lat="43.01314" lon="1.44087">
        <ele>413.8</ele>
        <time>2024-06-23T09:13:09Z</time>
      </trkpt>
      <trkpt lat="43.01313" lon="1.44093">
        <ele>413.8</ele>
        <time>2024-06-23T09:13:10Z</time>
      </trkpt>
      <trkpt lat="43.01311" lon="1.44101">
        <ele>413.8</ele>
        <time>2024-06-23T09:13:11Z</time>
      </trkpt>
      <trkpt lat="43.0131" lon="1.44107">
        <ele>413.8</ele>
        <time>2024-06-23T09:13:12Z</time>
      </trkpt>
      <trkpt lat="43.01309" lon="1.44115">
        <ele>413.6</ele>
        <time>2024-06-23T09:13:13Z</time>
      </trkpt>
      <trkpt lat="43.01307" lon="1.44121">
        <ele>414</ele>
        <time>2024-06-23T09:13:14Z</time>
      </trkpt>
      <trkpt lat="43.01306" lon="1.44129">
        <ele>414.2</ele>
        <time>2024-06-23T09:13:15Z</time>
      </trkpt>
      <trkpt lat="43.01305" lon="1.44137">
        <ele>414.2</ele>
        <time>2024-06-23T09:13:16Z</time>
      </trkpt>
      <trkpt lat="43.01305" lon="1.44144">
        <ele>414.2</ele>
        <time>2024-06-23T09:13:17Z</time>
      </trkpt>
      <trkpt lat="43.01303" lon="1.44151">
        <ele>414.2</ele>
        <time>2024-06-23T09:13:18Z</time>
      </trkpt>
      <trkpt lat="43.01302" lon="1.44159">
        <ele>414.6</ele>
        <time>2024-06-23T09:13:19Z</time>
      </trkpt>
      <trkpt lat="43.01301" lon="1.44167">
        <ele>414.8</ele>
        <time>2024-06-23T09:13:20Z</time>
      </trkpt>
      <trkpt lat="43.01299" lon="1.44174">
        <ele>414.8</ele>
        <time>2024-06-23T09:13:21Z</time>
      </trkpt>
      <trkpt lat="43.01299" lon="1.44181">
        <ele>415.2</ele>
        <time>2024-06-23T09:13:22Z</time>
      </trkpt>
      <trkpt lat="43.01298" lon="1.44189">
        <ele>415</ele>
        <time>2024-06-23T09:13:23Z</time>
      </trkpt>
      <trkpt lat="43.01296" lon="1.44196">
        <ele>415</ele>
        <time>2024-06-23T09:13:24Z</time>
      </trkpt>
      <trkpt lat="43.01295" lon="1.44204">
        <ele>415</ele>
        <time>2024-06-23T09:13:25Z</time>
      </trkpt>
      <trkpt lat="43.01295" lon="1.44211">
        <ele>415.2</ele>
        <time>2024-06-23T09:13:26Z</time>
      </trkpt>
      <trkpt lat="43.01294" lon="1.44219">
        <ele>415.2</ele>
        <time>2024-06-23T09:13:27Z</time>
      </trkpt>
      <trkpt lat="43.01292" lon="1.44228">
        <ele>415.2</ele>
        <time>2024-06-23T09:13:28Z</time>
      </trkpt>
      <trkpt lat="43.01292" lon="1.44236">
        <ele>415.2</ele>
        <time>2024-06-23T09:13:29Z</time>
      </trkpt>
      <trkpt lat="43.01291" lon="1.44244">
        <ele>415.2</ele>
        <time>2024-06-23T09:13:30Z</time>
      </trkpt>
      <trkpt lat="43.0129" lon="1.4425">
        <ele>415.6</ele>
        <time>2024-06-23T09:13:31Z</time>
      </trkpt>
      <trkpt lat="43.01289" lon="1.44257">
        <ele>415.4</ele>
        <time>2024-06-23T09:13:32Z</time>
      </trkpt>
      <trkpt lat="43.01288" lon="1.44264">
        <ele>415.4</ele>
        <time>2024-06-23T09:13:33Z</time>
      </trkpt>
      <trkpt lat="43.01288" lon="1.44272">
        <ele>415.8</ele>
        <time>2024-06-23T09:13:34Z</time>
      </trkpt>
      <trkpt lat="43.01287" lon="1.44279">
        <ele>415.8</ele>
        <time>2024-06-23T09:13:35Z</time>
      </trkpt>
      <trkpt lat="43.01287" lon="1.44287">
        <ele>416</ele>
        <time>2024-06-23T09:13:36Z</time>
      </trkpt>
      <trkpt lat="43.01287" lon="1.44295">
        <ele>416</ele>
        <time>2024-06-23T09:13:37Z</time>
      </trkpt>
      <trkpt lat="43.01286" lon="1.44303">
        <ele>416</ele>
        <time>2024-06-23T09:13:38Z</time>
      </trkpt>
      <trkpt lat="43.01286" lon="1.4431">
        <ele>416.6</ele>
        <time>2024-06-23T09:13:39Z</time>
      </trkpt>
      <trkpt lat="43.01286" lon="1.44317">
        <ele>416.6</ele>
        <time>2024-06-23T09:13:40Z</time>
      </trkpt>
      <trkpt lat="43.01286" lon="1.44325">
        <ele>416.6</ele>
        <time>2024-06-23T09:13:41Z</time>
      </trkpt>
      <trkpt lat="43.01287" lon="1.44332">
        <ele>416.6</ele>
        <time>2024-06-23T09:13:42Z</time>
      </trkpt>
      <trkpt lat="43.01287" lon="1.44339">
        <ele>416.8</ele>
        <time>2024-06-23T09:13:43Z</time>
      </trkpt>
      <trkpt lat="43.01288" lon="1.44347">
        <ele>417.2</ele>
        <time>2024-06-23T09:13:44Z</time>
      </trkpt>
      <trkpt lat="43.01288" lon="1.44353">
        <ele>417.2</ele>
        <time>2024-06-23T09:13:45Z</time>
      </trkpt>
      <trkpt lat="43.01289" lon="1.44361">
        <ele>417.4</ele>
        <time>2024-06-23T09:13:46Z</time>
      </trkpt>
      <trkpt lat="43.01289" lon="1.44369">
        <ele>417.6</ele>
        <time>2024-06-23T09:13:47Z</time>
      </trkpt>
      <trkpt lat="43.01289" lon="1.44376">
        <ele>417.6</ele>
        <time>2024-06-23T09:13:48Z</time>
      </trkpt>
      <trkpt lat="43.0129" lon="1.44383">
        <ele>417.6</ele>
        <time>2024-06-23T09:13:49Z</time>
      </trkpt>
      <trkpt lat="43.01291" lon="1.44391">
        <ele>417.6</ele>
        <time>2024-06-23T09:13:50Z</time>
      </trkpt>
      <trkpt lat="43.01291" lon="1.44399">
        <ele>417.6</ele>
        <time>2024-06-23T09:13:51Z</time>
      </trkpt>
      <trkpt lat="43.01292" lon="1.44406">
        <ele>417.6</ele>
        <time>2024-06-23T09:13:52Z</time>
      </trkpt>
      <trkpt lat="43.01293" lon="1.44414">
        <ele>417.8</ele>
        <time>2024-06-23T09:13:53Z</time>
      </trkpt>
      <trkpt lat="43.01293" lon="1.44422">
        <ele>417.8</ele>
        <time>2024-06-23T09:13:54Z</time>
      </trkpt>
      <trkpt lat="43.01293" lon="1.44429">
        <ele>417.6</ele>
        <time>2024-06-23T09:13:55Z</time>
      </trkpt>
      <trkpt lat="43.01294" lon="1.44437">
        <ele>417.6</ele>
        <time>2024-06-23T09:13:56Z</time>
      </trkpt>
      <trkpt lat="43.01295" lon="1.44444">
        <ele>417.6</ele>
        <time>2024-06-23T09:13:57Z</time>
      </trkpt>
      <trkpt lat="43.01296" lon="1.44451">
        <ele>417.8</ele>
        <time>2024-06-23T09:13:58Z</time>
      </trkpt>
      <trkpt lat="43.01296" lon="1.4446">
        <ele>417.8</ele>
        <time>2024-06-23T09:13:59Z</time>
      </trkpt>
      <trkpt lat="43.01297" lon="1.44468">
        <ele>417.8</ele>
        <time>2024-06-23T09:14:00Z</time>
      </trkpt>
      <trkpt lat="43.01297" lon="1.44475">
        <ele>418</ele>
        <time>2024-06-23T09:14:01Z</time>
      </trkpt>
      <trkpt lat="43.01298" lon="1.44482">
        <ele>418.4</ele>
        <time>2024-06-23T09:14:02Z</time>
      </trkpt>
      <trkpt lat="43.01299" lon="1.4449">
        <ele>419</ele>
        <time>2024-06-23T09:14:03Z</time>
      </trkpt>
      <trkpt lat="43.01299" lon="1.44498">
        <ele>419</ele>
        <time>2024-06-23T09:14:04Z</time>
      </trkpt>
      <trkpt lat="43.013" lon="1.44506">
        <ele>419</ele>
        <time>2024-06-23T09:14:05Z</time>
      </trkpt>
      <trkpt lat="43.013" lon="1.44512">
        <ele>419.2</ele>
        <time>2024-06-23T09:14:06Z</time>
      </trkpt>
      <trkpt lat="43.01302" lon="1.44517">
        <ele>419.2</ele>
        <time>2024-06-23T09:14:07Z</time>
      </trkpt>
      <trkpt lat="43.01303" lon="1.44522">
        <ele>419.6</ele>
        <time>2024-06-23T09:14:08Z</time>
      </trkpt>
      <trkpt lat="43.01305" lon="1.4453">
        <ele>419.8</ele>
        <time>2024-06-23T09:14:09Z</time>
      </trkpt>
      <trkpt lat="43.01306" lon="1.44539">
        <ele>419.4</ele>
        <time>2024-06-23T09:14:10Z</time>
      </trkpt>
      <trkpt lat="43.01305" lon="1.44547">
        <ele>419.2</ele>
        <time>2024-06-23T09:14:11Z</time>
      </trkpt>
      <trkpt lat="43.01307" lon="1.44554">
        <ele>419.2</ele>
        <time>2024-06-23T09:14:12Z</time>
      </trkpt>
      <trkpt lat="43.01307" lon="1.44561">
        <ele>419.2</ele>
        <time>2024-06-23T09:14:13Z</time>
      </trkpt>
      <trkpt lat="43.01308" lon="1.44567">
        <ele>419.4</ele>
        <time>2024-06-23T09:14:14Z</time>
      </trkpt>
      <trkpt lat="43.01309" lon="1.44573">
        <ele>418.8</ele>
        <time>2024-06-23T09:14:15Z</time>
      </trkpt>
      <trkpt lat="43.0131" lon="1.44579">
        <ele>419</ele>
        <time>2024-06-23T09:14:16Z</time>
      </trkpt>
      <trkpt lat="43.01311" lon="1.44586">
        <ele>419.4</ele>
        <time>2024-06-23T09:14:17Z</time>
      </trkpt>
      <trkpt lat="43.01311" lon="1.44592">
        <ele>419.8</ele>
        <time>2024-06-23T09:14:18Z</time>
      </trkpt>
      <trkpt lat="43.01311" lon="1.44599">
        <ele>420</ele>
        <time>2024-06-23T09:14:19Z</time>
      </trkpt>
      <trkpt lat="43.01312" lon="1.44608">
        <ele>420.2</ele>
        <time>2024-06-23T09:14:20Z</time>
      </trkpt>
      <trkpt lat="43.01312" lon="1.44615">
        <ele>420.6</ele>
        <time>2024-06-23T09:14:21Z</time>
      </trkpt>
      <trkpt lat="43.01313" lon="1.44623">
        <ele>420.6</ele>
        <time>2024-06-23T09:14:22Z</time>
      </trkpt>
      <trkpt lat="43.01313" lon="1.4463">
        <ele>420.8</ele>
        <time>2024-06-23T09:14:23Z</time>
      </trkpt>
      <trkpt lat="43.01314" lon="1.44638">
        <ele>420.2</ele>
        <time>2024-06-23T09:14:24Z</time>
      </trkpt>
      <trkpt lat="43.01314" lon="1.44645">
        <ele>420.2</ele>
        <time>2024-06-23T09:14:25Z</time>
      </trkpt>
      <trkpt lat="43.01316" lon="1.44654">
        <ele>420.4</ele>
        <time>2024-06-23T09:14:26Z</time>
      </trkpt>
      <trkpt lat="43.01316" lon="1.4466">
        <ele>420.4</ele>
        <time>2024-06-23T09:14:27Z</time>
      </trkpt>
      <trkpt lat="43.01317" lon="1.44668">
        <ele>420.4</ele>
        <time>2024-06-23T09:14:28Z</time>
      </trkpt>
      <trkpt lat="43.01318" lon="1.44676">
        <ele>420.4</ele>
        <time>2024-06-23T09:14:29Z</time>
      </trkpt>
      <trkpt lat="43.01319" lon="1.44681">
        <ele>420.6</ele>
        <time>2024-06-23T09:14:30Z</time>
      </trkpt>
      <trkpt lat="43.01319" lon="1.44689">
        <ele>421</ele>
        <time>2024-06-23T09:14:31Z</time>
      </trkpt>
      <trkpt lat="43.01319" lon="1.44696">
        <ele>421</ele>
        <time>2024-06-23T09:14:32Z</time>
      </trkpt>
      <trkpt lat="43.0132" lon="1.44704">
        <ele>420.6</ele>
        <time>2024-06-23T09:14:33Z</time>
      </trkpt>
      <trkpt lat="43.0132" lon="1.44709">
        <ele>420.8</ele>
        <time>2024-06-23T09:14:34Z</time>
      </trkpt>
      <trkpt lat="43.0132" lon="1.44717">
        <ele>420.2</ele>
        <time>2024-06-23T09:14:35Z</time>
      </trkpt>
      <trkpt lat="43.01321" lon="1.44723">
        <ele>420.8</ele>
        <time>2024-06-23T09:14:36Z</time>
      </trkpt>
      <trkpt lat="43.01321" lon="1.4473">
        <ele>421.2</ele>
        <time>2024-06-23T09:14:37Z</time>
      </trkpt>
      <trkpt lat="43.01322" lon="1.44735">
        <ele>421.2</ele>
        <time>2024-06-23T09:14:38Z</time>
      </trkpt>
      <trkpt lat="43.01322" lon="1.44735">
        <ele>421.4</ele>
        <time>2024-06-23T09:14:39Z</time>
      </trkpt>
      <trkpt lat="43.01323" lon="1.44744">
        <ele>421.4</ele>
        <time>2024-06-23T09:14:40Z</time>
      </trkpt>
      <trkpt lat="43.01323" lon="1.44751">
        <ele>421.6</ele>
        <time>2024-06-23T09:14:41Z</time>
      </trkpt>
      <trkpt lat="43.01324" lon="1.44758">
        <ele>421.6</ele>
        <time>2024-06-23T09:14:42Z</time>
      </trkpt>
      <trkpt lat="43.01325" lon="1.44766">
        <ele>421.6</ele>
        <time>2024-06-23T09:14:43Z</time>
      </trkpt>
      <trkpt lat="43.01325" lon="1.44773">
        <ele>421.6</ele>
        <time>2024-06-23T09:14:44Z</time>
      </trkpt>
      <trkpt lat="43.01326" lon="1.4478">
        <ele>421.6</ele>
        <time>2024-06-23T09:14:45Z</time>
      </trkpt>
      <trkpt lat="43.01327" lon="1.44788">
        <ele>421.8</ele>
        <time>2024-06-23T09:14:46Z</time>
      </trkpt>
      <trkpt lat="43.01328" lon="1.44796">
        <ele>421.8</ele>
        <time>2024-06-23T09:14:47Z</time>
      </trkpt>
      <trkpt lat="43.01329" lon="1.44802">
        <ele>422</ele>
        <time>2024-06-23T09:14:48Z</time>
      </trkpt>
      <trkpt lat="43.0133" lon="1.44809">
        <ele>422</ele>
        <time>2024-06-23T09:14:49Z</time>
      </trkpt>
      <trkpt lat="43.01332" lon="1.44814">
        <ele>422</ele>
        <time>2024-06-23T09:14:50Z</time>
      </trkpt>
      <trkpt lat="43.01333" lon="1.44823">
        <ele>422.6</ele>
        <time>2024-06-23T09:14:51Z</time>
      </trkpt>
      <trkpt lat="43.01334" lon="1.44829">
        <ele>422.6</ele>
        <time>2024-06-23T09:14:52Z</time>
      </trkpt>
      <trkpt lat="43.01335" lon="1.44836">
        <ele>422.6</ele>
        <time>2024-06-23T09:14:53Z</time>
      </trkpt>
      <trkpt lat="43.01336" lon="1.44844">
        <ele>422.6</ele>
        <time>2024-06-23T09:14:54Z</time>
      </trkpt>
      <trkpt lat="43.01336" lon="1.4485">
        <ele>422.8</ele>
        <time>2024-06-23T09:14:55Z</time>
      </trkpt>
      <trkpt lat="43.01337" lon="1.44857">
        <ele>422.8</ele>
        <time>2024-06-23T09:14:56Z</time>
      </trkpt>
      <trkpt lat="43.01337" lon="1.44864">
        <ele>422.8</ele>
        <time>2024-06-23T09:14:57Z</time>
      </trkpt>
      <trkpt lat="43.01337" lon="1.44874">
        <ele>422.8</ele>
        <time>2024-06-23T09:14:58Z</time>
      </trkpt>
      <trkpt lat="43.01337" lon="1.44883">
        <ele>422.8</ele>
        <time>2024-06-23T09:14:59Z</time>
      </trkpt>
      <trkpt lat="43.01338" lon="1.44889">
        <ele>423</ele>
        <time>2024-06-23T09:15:00Z</time>
      </trkpt>
      <trkpt lat="43.01338" lon="1.44897">
        <ele>423</ele>
        <time>2024-06-23T09:15:01Z</time>
      </trkpt>
      <trkpt lat="43.01338" lon="1.44903">
        <ele>423.4</ele>
        <time>2024-06-23T09:15:02Z</time>
      </trkpt>
      <trkpt lat="43.0134" lon="1.44909">
        <ele>423.4</ele>
        <time>2024-06-23T09:15:03Z</time>
      </trkpt>
      <trkpt lat="43.0134" lon="1.44917">
        <ele>423.4</ele>
        <time>2024-06-23T09:15:04Z</time>
      </trkpt>
      <trkpt lat="43.01341" lon="1.44924">
        <ele>423.4</ele>
        <time>2024-06-23T09:15:05Z</time>
      </trkpt>
      <trkpt lat="43.01342" lon="1.4493">
        <ele>423.6</ele>
        <time>2024-06-23T09:15:06Z</time>
      </trkpt>
      <trkpt lat="43.01342" lon="1.44938">
        <ele>423.6</ele>
        <time>2024-06-23T09:15:07Z</time>
      </trkpt>
      <trkpt lat="43.01342" lon="1.44945">
        <ele>423.8</ele>
        <time>2024-06-23T09:15:08Z</time>
      </trkpt>
      <trkpt lat="43.01343" lon="1.44952">
        <ele>424.2</ele>
        <time>2024-06-23T09:15:09Z</time>
      </trkpt>
      <trkpt lat="43.01343" lon="1.4496">
        <ele>424.2</ele>
        <time>2024-06-23T09:15:10Z</time>
      </trkpt>
      <trkpt lat="43.01344" lon="1.44967">
        <ele>424.2</ele>
        <time>2024-06-23T09:15:11Z</time>
      </trkpt>
      <trkpt lat="43.01345" lon="1.44974">
        <ele>424.4</ele>
        <time>2024-06-23T09:15:12Z</time>
      </trkpt>
      <trkpt lat="43.01346" lon="1.4498">
        <ele>424.4</ele>
        <time>2024-06-23T09:15:13Z</time>
      </trkpt>
      <trkpt lat="43.01346" lon="1.44987">
        <ele>424.4</ele>
        <time>2024-06-23T09:15:14Z</time>
      </trkpt>
      <trkpt lat="43.01347" lon="1.44994">
        <ele>424.8</ele>
        <time>2024-06-23T09:15:15Z</time>
      </trkpt>
      <trkpt lat="43.01347" lon="1.45001">
        <ele>424.8</ele>
        <time>2024-06-23T09:15:16Z</time>
      </trkpt>
      <trkpt lat="43.01348" lon="1.45008">
        <ele>424.8</ele>
        <time>2024-06-23T09:15:17Z</time>
      </trkpt>
      <trkpt lat="43.01348" lon="1.45015">
        <ele>424.8</ele>
        <time>2024-06-23T09:15:18Z</time>
      </trkpt>
      <trkpt lat="43.01349" lon="1.45021">
        <ele>424.8</ele>
        <time>2024-06-23T09:15:19Z</time>
      </trkpt>
      <trkpt lat="43.01349" lon="1.45029">
        <ele>425</ele>
        <time>2024-06-23T09:15:20Z</time>
      </trkpt>
      <trkpt lat="43.0135" lon="1.45036">
        <ele>425</ele>
        <time>2024-06-23T09:15:21Z</time>
      </trkpt>
      <trkpt lat="43.01351" lon="1.45043">
        <ele>425.4</ele>
        <time>2024-06-23T09:15:22Z</time>
      </trkpt>
      <trkpt lat="43.01352" lon="1.45051">
        <ele>425.4</ele>
        <time>2024-06-23T09:15:23Z</time>
      </trkpt>
      <trkpt lat="43.01352" lon="1.45058">
        <ele>425.4</ele>
        <time>2024-06-23T09:15:24Z</time>
      </trkpt>
      <trkpt lat="43.01352" lon="1.45064">
        <ele>425.6</ele>
        <time>2024-06-23T09:15:25Z</time>
      </trkpt>
      <trkpt lat="43.01354" lon="1.45071">
        <ele>425.6</ele>
        <time>2024-06-23T09:15:26Z</time>
      </trkpt>
      <trkpt lat="43.01355" lon="1.45079">
        <ele>425.6</ele>
        <time>2024-06-23T09:15:27Z</time>
      </trkpt>
      <trkpt lat="43.01356" lon="1.45086">
        <ele>425.6</ele>
        <time>2024-06-23T09:15:28Z</time>
      </trkpt>
      <trkpt lat="43.01357" lon="1.45094">
        <ele>425.6</ele>
        <time>2024-06-23T09:15:29Z</time>
      </trkpt>
      <trkpt lat="43.01358" lon="1.45101">
        <ele>425.6</ele>
        <time>2024-06-23T09:15:30Z</time>
      </trkpt>
      <trkpt lat="43.01358" lon="1.45108">
        <ele>425.8</ele>
        <time>2024-06-23T09:15:31Z</time>
      </trkpt>
      <trkpt lat="43.01358" lon="1.45116">
        <ele>425.8</ele>
        <time>2024-06-23T09:15:32Z</time>
      </trkpt>
      <trkpt lat="43.0136" lon="1.45124">
        <ele>425.8</ele>
        <time>2024-06-23T09:15:33Z</time>
      </trkpt>
      <trkpt lat="43.01361" lon="1.45131">
        <ele>425.8</ele>
        <time>2024-06-23T09:15:34Z</time>
      </trkpt>
      <trkpt lat="43.01361" lon="1.45138">
        <ele>426.4</ele>
        <time>2024-06-23T09:15:35Z</time>
      </trkpt>
      <trkpt lat="43.01362" lon="1.45147">
        <ele>426.4</ele>
        <time>2024-06-23T09:15:36Z</time>
      </trkpt>
      <trkpt lat="43.01362" lon="1.45154">
        <ele>426.4</ele>
        <time>2024-06-23T09:15:37Z</time>
      </trkpt>
      <trkpt lat="43.01363" lon="1.45162">
        <ele>426.6</ele>
        <time>2024-06-23T09:15:38Z</time>
      </trkpt>
      <trkpt lat="43.01363" lon="1.45169">
        <ele>426.6</ele>
        <time>2024-06-23T09:15:39Z</time>
      </trkpt>
      <trkpt lat="43.01364" lon="1.45177">
        <ele>427.2</ele>
        <time>2024-06-23T09:15:40Z</time>
      </trkpt>
      <trkpt lat="43.01364" lon="1.45184">
        <ele>427.2</ele>
        <time>2024-06-23T09:15:41Z</time>
      </trkpt>
      <trkpt lat="43.01364" lon="1.4519">
        <ele>427.2</ele>
        <time>2024-06-23T09:15:42Z</time>
      </trkpt>
      <trkpt lat="43.01364" lon="1.45198">
        <ele>427.4</ele>
        <time>2024-06-23T09:15:43Z</time>
      </trkpt>
      <trkpt lat="43.01364" lon="1.45205">
        <ele>427.4</ele>
        <time>2024-06-23T09:15:44Z</time>
      </trkpt>
      <trkpt lat="43.01364" lon="1.45213">
        <ele>427.4</ele>
        <time>2024-06-23T09:15:45Z</time>
      </trkpt>
      <trkpt lat="43.01364" lon="1.45221">
        <ele>427.6</ele>
        <time>2024-06-23T09:15:46Z</time>
      </trkpt>
      <trkpt lat="43.01364" lon="1.45228">
        <ele>427.6</ele>
        <time>2024-06-23T09:15:47Z</time>
      </trkpt>
      <trkpt lat="43.01364" lon="1.45236">
        <ele>427.8</ele>
        <time>2024-06-23T09:15:48Z</time>
      </trkpt>
      <trkpt lat="43.01364" lon="1.45243">
        <ele>427.8</ele>
        <time>2024-06-23T09:15:49Z</time>
      </trkpt>
      <trkpt lat="43.01363" lon="1.45251">
        <ele>427.8</ele>
        <time>2024-06-23T09:15:50Z</time>
      </trkpt>
      <trkpt lat="43.01363" lon="1.45259">
        <ele>428.4</ele>
        <time>2024-06-23T09:15:51Z</time>
      </trkpt>
      <trkpt lat="43.01362" lon="1.45267">
        <ele>428</ele>
        <time>2024-06-23T09:15:52Z</time>
      </trkpt>
      <trkpt lat="43.01362" lon="1.45274">
        <ele>428</ele>
        <time>2024-06-23T09:15:53Z</time>
      </trkpt>
      <trkpt lat="43.01361" lon="1.45282">
        <ele>428</ele>
        <time>2024-06-23T09:15:54Z</time>
      </trkpt>
      <trkpt lat="43.01359" lon="1.45289">
        <ele>428</ele>
        <time>2024-06-23T09:15:55Z</time>
      </trkpt>
      <trkpt lat="43.01358" lon="1.45294">
        <ele>428.4</ele>
        <time>2024-06-23T09:15:56Z</time>
      </trkpt>
      <trkpt lat="43.01356" lon="1.45301">
        <ele>428.4</ele>
        <time>2024-06-23T09:15:57Z</time>
      </trkpt>
      <trkpt lat="43.01355" lon="1.45309">
        <ele>428.2</ele>
        <time>2024-06-23T09:15:58Z</time>
      </trkpt>
      <trkpt lat="43.01355" lon="1.45314">
        <ele>428.2</ele>
        <time>2024-06-23T09:15:59Z</time>
      </trkpt>
      <trkpt lat="43.01352" lon="1.45322">
        <ele>428.2</ele>
        <time>2024-06-23T09:16:00Z</time>
      </trkpt>
      <trkpt lat="43.0135" lon="1.4533">
        <ele>428.2</ele>
        <time>2024-06-23T09:16:01Z</time>
      </trkpt>
      <trkpt lat="43.01348" lon="1.45334">
        <ele>428.2</ele>
        <time>2024-06-23T09:16:02Z</time>
      </trkpt>
      <trkpt lat="43.01347" lon="1.45341">
        <ele>428.2</ele>
        <time>2024-06-23T09:16:03Z</time>
      </trkpt>
      <trkpt lat="43.01344" lon="1.45349">
        <ele>428.6</ele>
        <time>2024-06-23T09:16:04Z</time>
      </trkpt>
      <trkpt lat="43.01341" lon="1.45354">
        <ele>428.8</ele>
        <time>2024-06-23T09:16:05Z</time>
      </trkpt>
      <trkpt lat="43.01339" lon="1.45363">
        <ele>428.8</ele>
        <time>2024-06-23T09:16:06Z</time>
      </trkpt>
      <trkpt lat="43.01337" lon="1.45369">
        <ele>428.8</ele>
        <time>2024-06-23T09:16:07Z</time>
      </trkpt>
      <trkpt lat="43.01336" lon="1.45378">
        <ele>428.8</ele>
        <time>2024-06-23T09:16:08Z</time>
      </trkpt>
      <trkpt lat="43.01333" lon="1.45385">
        <ele>429</ele>
        <time>2024-06-23T09:16:09Z</time>
      </trkpt>
      <trkpt lat="43.0133" lon="1.45391">
        <ele>429</ele>
        <time>2024-06-23T09:16:10Z</time>
      </trkpt>
      <trkpt lat="43.01328" lon="1.45397">
        <ele>429</ele>
        <time>2024-06-23T09:16:11Z</time>
      </trkpt>
      <trkpt lat="43.01326" lon="1.45403">
        <ele>429</ele>
        <time>2024-06-23T09:16:12Z</time>
      </trkpt>
      <trkpt lat="43.01323" lon="1.4541">
        <ele>429</ele>
        <time>2024-06-23T09:16:13Z</time>
      </trkpt>
      <trkpt lat="43.0132" lon="1.45417">
        <ele>429</ele>
        <time>2024-06-23T09:16:14Z</time>
      </trkpt>
      <trkpt lat="43.01317" lon="1.45423">
        <ele>429</ele>
        <time>2024-06-23T09:16:15Z</time>
      </trkpt>
      <trkpt lat="43.01314" lon="1.45428">
        <ele>429</ele>
        <time>2024-06-23T09:16:16Z</time>
      </trkpt>
      <trkpt lat="43.01312" lon="1.45435">
        <ele>429.2</ele>
        <time>2024-06-23T09:16:17Z</time>
      </trkpt>
      <trkpt lat="43.01308" lon="1.4544">
        <ele>429.2</ele>
        <time>2024-06-23T09:16:18Z</time>
      </trkpt>
      <trkpt lat="43.01304" lon="1.45445">
        <ele>429.2</ele>
        <time>2024-06-23T09:16:19Z</time>
      </trkpt>
      <trkpt lat="43.01303" lon="1.4545">
        <ele>429.6</ele>
        <time>2024-06-23T09:16:20Z</time>
      </trkpt>
      <trkpt lat="43.01299" lon="1.45456">
        <ele>429.4</ele>
        <time>2024-06-23T09:16:21Z</time>
      </trkpt>
      <trkpt lat="43.01297" lon="1.45461">
        <ele>429.4</ele>
        <time>2024-06-23T09:16:22Z</time>
      </trkpt>
      <trkpt lat="43.01295" lon="1.45465">
        <ele>429.6</ele>
        <time>2024-06-23T09:16:23Z</time>
      </trkpt>
      <trkpt lat="43.0129" lon="1.4547">
        <ele>429.6</ele>
        <time>2024-06-23T09:16:24Z</time>
      </trkpt>
      <trkpt lat="43.01286" lon="1.45475">
        <ele>429.6</ele>
        <time>2024-06-23T09:16:25Z</time>
      </trkpt>
      <trkpt lat="43.01282" lon="1.45479">
        <ele>429.6</ele>
        <time>2024-06-23T09:16:26Z</time>
      </trkpt>
      <trkpt lat="43.01278" lon="1.45484">
        <ele>429.6</ele>
        <time>2024-06-23T09:16:27Z</time>
      </trkpt>
      <trkpt lat="43.01274" lon="1.4549">
        <ele>429.6</ele>
        <time>2024-06-23T09:16:28Z</time>
      </trkpt>
      <trkpt lat="43.01271" lon="1.45493">
        <ele>429.8</ele>
        <time>2024-06-23T09:16:29Z</time>
      </trkpt>
      <trkpt lat="43.01264" lon="1.45502">
        <ele>429.8</ele>
        <time>2024-06-23T09:16:30Z</time>
      </trkpt>
      <trkpt lat="43.0126" lon="1.45509">
        <ele>429.8</ele>
        <time>2024-06-23T09:16:31Z</time>
      </trkpt>
      <trkpt lat="43.01256" lon="1.45515">
        <ele>429.6</ele>
        <time>2024-06-23T09:16:32Z</time>
      </trkpt>
      <trkpt lat="43.01253" lon="1.4552">
        <ele>429.6</ele>
        <time>2024-06-23T09:16:33Z</time>
      </trkpt>
      <trkpt lat="43.01249" lon="1.45528">
        <ele>430.2</ele>
        <time>2024-06-23T09:16:34Z</time>
      </trkpt>
      <trkpt lat="43.01244" lon="1.45532">
        <ele>430.2</ele>
        <time>2024-06-23T09:16:35Z</time>
      </trkpt>
      <trkpt lat="43.0124" lon="1.45537">
        <ele>430.2</ele>
        <time>2024-06-23T09:16:36Z</time>
      </trkpt>
      <trkpt lat="43.01237" lon="1.45543">
        <ele>430.4</ele>
        <time>2024-06-23T09:16:37Z</time>
      </trkpt>
      <trkpt lat="43.01233" lon="1.45548">
        <ele>430.4</ele>
        <time>2024-06-23T09:16:38Z</time>
      </trkpt>
      <trkpt lat="43.01229" lon="1.45553">
        <ele>430.8</ele>
        <time>2024-06-23T09:16:39Z</time>
      </trkpt>
      <trkpt lat="43.01225" lon="1.45558">
        <ele>430.8</ele>
        <time>2024-06-23T09:16:40Z</time>
      </trkpt>
      <trkpt lat="43.0122" lon="1.45563">
        <ele>430.8</ele>
        <time>2024-06-23T09:16:41Z</time>
      </trkpt>
      <trkpt lat="43.01216" lon="1.45568">
        <ele>431</ele>
        <time>2024-06-23T09:16:42Z</time>
      </trkpt>
      <trkpt lat="43.01213" lon="1.45573">
        <ele>431</ele>
        <time>2024-06-23T09:16:43Z</time>
      </trkpt>
      <trkpt lat="43.01209" lon="1.45577">
        <ele>431</ele>
        <time>2024-06-23T09:16:44Z</time>
      </trkpt>
      <trkpt lat="43.01205" lon="1.45583">
        <ele>431.2</ele>
        <time>2024-06-23T09:16:45Z</time>
      </trkpt>
      <trkpt lat="43.01202" lon="1.45587">
        <ele>431.2</ele>
        <time>2024-06-23T09:16:46Z</time>
      </trkpt>
      <trkpt lat="43.01199" lon="1.45592">
        <ele>431.6</ele>
        <time>2024-06-23T09:16:47Z</time>
      </trkpt>
      <trkpt lat="43.01196" lon="1.45598">
        <ele>431.6</ele>
        <time>2024-06-23T09:16:48Z</time>
      </trkpt>
      <trkpt lat="43.01192" lon="1.45603">
        <ele>431.6</ele>
        <time>2024-06-23T09:16:49Z</time>
      </trkpt>
      <trkpt lat="43.01188" lon="1.45609">
        <ele>431.6</ele>
        <time>2024-06-23T09:16:50Z</time>
      </trkpt>
      <trkpt lat="43.01185" lon="1.45614">
        <ele>431.6</ele>
        <time>2024-06-23T09:16:51Z</time>
      </trkpt>
      <trkpt lat="43.01181" lon="1.45619">
        <ele>432.2</ele>
        <time>2024-06-23T09:16:52Z</time>
      </trkpt>
      <trkpt lat="43.01179" lon="1.45626">
        <ele>432.2</ele>
        <time>2024-06-23T09:16:53Z</time>
      </trkpt>
      <trkpt lat="43.01175" lon="1.45632">
        <ele>432.4</ele>
        <time>2024-06-23T09:16:54Z</time>
      </trkpt>
      <trkpt lat="43.01172" lon="1.45637">
        <ele>432.4</ele>
        <time>2024-06-23T09:16:55Z</time>
      </trkpt>
      <trkpt lat="43.01169" lon="1.45643">
        <ele>432.4</ele>
        <time>2024-06-23T09:16:56Z</time>
      </trkpt>
      <trkpt lat="43.01166" lon="1.45649">
        <ele>432.4</ele>
        <time>2024-06-23T09:16:57Z</time>
      </trkpt>
      <trkpt lat="43.01163" lon="1.45656">
        <ele>432.4</ele>
        <time>2024-06-23T09:16:58Z</time>
      </trkpt>
      <trkpt lat="43.01161" lon="1.45661">
        <ele>432.6</ele>
        <time>2024-06-23T09:16:59Z</time>
      </trkpt>
      <trkpt lat="43.01159" lon="1.45667">
        <ele>432.8</ele>
        <time>2024-06-23T09:17:00Z</time>
      </trkpt>
      <trkpt lat="43.01158" lon="1.45672">
        <ele>433</ele>
        <time>2024-06-23T09:17:01Z</time>
      </trkpt>
      <trkpt lat="43.01155" lon="1.45678">
        <ele>433.4</ele>
        <time>2024-06-23T09:17:02Z</time>
      </trkpt>
      <trkpt lat="43.01153" lon="1.45684">
        <ele>433.4</ele>
        <time>2024-06-23T09:17:03Z</time>
      </trkpt>
      <trkpt lat="43.0115" lon="1.4569">
        <ele>433.6</ele>
        <time>2024-06-23T09:17:04Z</time>
      </trkpt>
      <trkpt lat="43.01148" lon="1.45695">
        <ele>433.6</ele>
        <time>2024-06-23T09:17:05Z</time>
      </trkpt>
      <trkpt lat="43.01147" lon="1.457">
        <ele>433.6</ele>
        <time>2024-06-23T09:17:06Z</time>
      </trkpt>
      <trkpt lat="43.01145" lon="1.45706">
        <ele>433.6</ele>
        <time>2024-06-23T09:17:07Z</time>
      </trkpt>
      <trkpt lat="43.01143" lon="1.45712">
        <ele>433.6</ele>
        <time>2024-06-23T09:17:08Z</time>
      </trkpt>
      <trkpt lat="43.0114" lon="1.45719">
        <ele>433.6</ele>
        <time>2024-06-23T09:17:09Z</time>
      </trkpt>
      <trkpt lat="43.01133" lon="1.45739">
        <ele>433.6</ele>
        <time>2024-06-23T09:17:10Z</time>
      </trkpt>
      <trkpt lat="43.01134" lon="1.45742">
        <ele>434.2</ele>
        <time>2024-06-23T09:17:11Z</time>
      </trkpt>
      <trkpt lat="43.01132" lon="1.45749">
        <ele>434.2</ele>
        <time>2024-06-23T09:17:12Z</time>
      </trkpt>
      <trkpt lat="43.01136" lon="1.45758">
        <ele>434.2</ele>
        <time>2024-06-23T09:17:13Z</time>
      </trkpt>
      <trkpt lat="43.01134" lon="1.45766">
        <ele>434.2</ele>
        <time>2024-06-23T09:17:14Z</time>
      </trkpt>
      <trkpt lat="43.01132" lon="1.45774">
        <ele>434.2</ele>
        <time>2024-06-23T09:17:15Z</time>
      </trkpt>
      <trkpt lat="43.01132" lon="1.45779">
        <ele>434.2</ele>
        <time>2024-06-23T09:17:16Z</time>
      </trkpt>
      <trkpt lat="43.01131" lon="1.45784">
        <ele>434.2</ele>
        <time>2024-06-23T09:17:17Z</time>
      </trkpt>
      <trkpt lat="43.01132" lon="1.45793">
        <ele>434.2</ele>
        <time>2024-06-23T09:17:18Z</time>
      </trkpt>
      <trkpt lat="43.01131" lon="1.45799">
        <ele>434.2</ele>
        <time>2024-06-23T09:17:19Z</time>
      </trkpt>
      <trkpt lat="43.01132" lon="1.45806">
        <ele>434.2</ele>
        <time>2024-06-23T09:17:20Z</time>
      </trkpt>
      <trkpt lat="43.01133" lon="1.45812">
        <ele>434.4</ele>
        <time>2024-06-23T09:17:21Z</time>
      </trkpt>
      <trkpt lat="43.01134" lon="1.45818">
        <ele>434.4</ele>
        <time>2024-06-23T09:17:22Z</time>
      </trkpt>
      <trkpt lat="43.01133" lon="1.45826">
        <ele>434.4</ele>
        <time>2024-06-23T09:17:23Z</time>
      </trkpt>
      <trkpt lat="43.01132" lon="1.45832">
        <ele>434.4</ele>
        <time>2024-06-23T09:17:24Z</time>
      </trkpt>
      <trkpt lat="43.01131" lon="1.45841">
        <ele>434.4</ele>
        <time>2024-06-23T09:17:25Z</time>
      </trkpt>
      <trkpt lat="43.0113" lon="1.45847">
        <ele>434.8</ele>
        <time>2024-06-23T09:17:26Z</time>
      </trkpt>
      <trkpt lat="43.0113" lon="1.45854">
        <ele>434.8</ele>
        <time>2024-06-23T09:17:27Z</time>
      </trkpt>
      <trkpt lat="43.01129" lon="1.45861">
        <ele>434.8</ele>
        <time>2024-06-23T09:17:28Z</time>
      </trkpt>
      <trkpt lat="43.0113" lon="1.45867">
        <ele>434.8</ele>
        <time>2024-06-23T09:17:29Z</time>
      </trkpt>
      <trkpt lat="43.01133" lon="1.45872">
        <ele>434.8</ele>
        <time>2024-06-23T09:17:30Z</time>
      </trkpt>
      <trkpt lat="43.01131" lon="1.45878">
        <ele>434.8</ele>
        <time>2024-06-23T09:17:31Z</time>
      </trkpt>
      <trkpt lat="43.01131" lon="1.45886">
        <ele>434.8</ele>
        <time>2024-06-23T09:17:32Z</time>
      </trkpt>
      <trkpt lat="43.01131" lon="1.45893">
        <ele>435</ele>
        <time>2024-06-23T09:17:33Z</time>
      </trkpt>
      <trkpt lat="43.01129" lon="1.45899">
        <ele>435</ele>
        <time>2024-06-23T09:17:34Z</time>
      </trkpt>
      <trkpt lat="43.01129" lon="1.45909">
        <ele>435</ele>
        <time>2024-06-23T09:17:35Z</time>
      </trkpt>
      <trkpt lat="43.01129" lon="1.45915">
        <ele>435</ele>
        <time>2024-06-23T09:17:36Z</time>
      </trkpt>
      <trkpt lat="43.01129" lon="1.4592">
        <ele>435</ele>
        <time>2024-06-23T09:17:37Z</time>
      </trkpt>
      <trkpt lat="43.0113" lon="1.45928">
        <ele>435.4</ele>
        <time>2024-06-23T09:17:38Z</time>
      </trkpt>
      <trkpt lat="43.0113" lon="1.45934">
        <ele>435.6</ele>
        <time>2024-06-23T09:17:39Z</time>
      </trkpt>
      <trkpt lat="43.01129" lon="1.45942">
        <ele>435.6</ele>
        <time>2024-06-23T09:17:40Z</time>
      </trkpt>
      <trkpt lat="43.01129" lon="1.45949">
        <ele>435.6</ele>
        <time>2024-06-23T09:17:41Z</time>
      </trkpt>
      <trkpt lat="43.01129" lon="1.45956">
        <ele>435.6</ele>
        <time>2024-06-23T09:17:42Z</time>
      </trkpt>
      <trkpt lat="43.01128" lon="1.45964">
        <ele>435.6</ele>
        <time>2024-06-23T09:17:43Z</time>
      </trkpt>
      <trkpt lat="43.01128" lon="1.45972">
        <ele>435.6</ele>
        <time>2024-06-23T09:17:44Z</time>
      </trkpt>
      <trkpt lat="43.01129" lon="1.4598">
        <ele>435.6</ele>
        <time>2024-06-23T09:17:45Z</time>
      </trkpt>
      <trkpt lat="43.01128" lon="1.45988">
        <ele>436</ele>
        <time>2024-06-23T09:17:46Z</time>
      </trkpt>
      <trkpt lat="43.01127" lon="1.45995">
        <ele>436</ele>
        <time>2024-06-23T09:17:47Z</time>
      </trkpt>
      <trkpt lat="43.01127" lon="1.46002">
        <ele>436</ele>
        <time>2024-06-23T09:17:48Z</time>
      </trkpt>
      <trkpt lat="43.01127" lon="1.4601">
        <ele>436.4</ele>
        <time>2024-06-23T09:17:49Z</time>
      </trkpt>
      <trkpt lat="43.01127" lon="1.46016">
        <ele>436.4</ele>
        <time>2024-06-23T09:17:50Z</time>
      </trkpt>
      <trkpt lat="43.01127" lon="1.46024">
        <ele>436.4</ele>
        <time>2024-06-23T09:17:51Z</time>
      </trkpt>
      <trkpt lat="43.01127" lon="1.46031">
        <ele>436.4</ele>
        <time>2024-06-23T09:17:52Z</time>
      </trkpt>
      <trkpt lat="43.01128" lon="1.46038">
        <ele>436</ele>
        <time>2024-06-23T09:17:53Z</time>
      </trkpt>
      <trkpt lat="43.01128" lon="1.46045">
        <ele>436.4</ele>
        <time>2024-06-23T09:17:54Z</time>
      </trkpt>
      <trkpt lat="43.01128" lon="1.46052">
        <ele>436.4</ele>
        <time>2024-06-23T09:17:55Z</time>
      </trkpt>
      <trkpt lat="43.01129" lon="1.46059">
        <ele>436.6</ele>
        <time>2024-06-23T09:17:56Z</time>
      </trkpt>
      <trkpt lat="43.01129" lon="1.46065">
        <ele>436.8</ele>
        <time>2024-06-23T09:17:57Z</time>
      </trkpt>
      <trkpt lat="43.01129" lon="1.46072">
        <ele>436.8</ele>
        <time>2024-06-23T09:17:58Z</time>
      </trkpt>
      <trkpt lat="43.01129" lon="1.46079">
        <ele>437.2</ele>
        <time>2024-06-23T09:17:59Z</time>
      </trkpt>
      <trkpt lat="43.01129" lon="1.46087">
        <ele>437.2</ele>
        <time>2024-06-23T09:18:00Z</time>
      </trkpt>
      <trkpt lat="43.01128" lon="1.46093">
        <ele>437.2</ele>
        <time>2024-06-23T09:18:01Z</time>
      </trkpt>
      <trkpt lat="43.01129" lon="1.461">
        <ele>437.4</ele>
        <time>2024-06-23T09:18:02Z</time>
      </trkpt>
      <trkpt lat="43.01129" lon="1.46106">
        <ele>437.4</ele>
        <time>2024-06-23T09:18:03Z</time>
      </trkpt>
      <trkpt lat="43.01129" lon="1.46113">
        <ele>437.6</ele>
        <time>2024-06-23T09:18:04Z</time>
      </trkpt>
      <trkpt lat="43.01129" lon="1.4612">
        <ele>438</ele>
        <time>2024-06-23T09:18:05Z</time>
      </trkpt>
      <trkpt lat="43.01129" lon="1.46127">
        <ele>438</ele>
        <time>2024-06-23T09:18:06Z</time>
      </trkpt>
      <trkpt lat="43.01129" lon="1.46133">
        <ele>438</ele>
        <time>2024-06-23T09:18:07Z</time>
      </trkpt>
      <trkpt lat="43.01129" lon="1.46141">
        <ele>438</ele>
        <time>2024-06-23T09:18:08Z</time>
      </trkpt>
      <trkpt lat="43.01129" lon="1.46147">
        <ele>438</ele>
        <time>2024-06-23T09:18:09Z</time>
      </trkpt>
      <trkpt lat="43.01129" lon="1.46153">
        <ele>438.4</ele>
        <time>2024-06-23T09:18:10Z</time>
      </trkpt>
      <trkpt lat="43.01129" lon="1.46161">
        <ele>438.4</ele>
        <time>2024-06-23T09:18:11Z</time>
      </trkpt>
      <trkpt lat="43.01129" lon="1.46167">
        <ele>438.4</ele>
        <time>2024-06-23T09:18:12Z</time>
      </trkpt>
      <trkpt lat="43.01129" lon="1.46174">
        <ele>438.4</ele>
        <time>2024-06-23T09:18:13Z</time>
      </trkpt>
      <trkpt lat="43.01129" lon="1.46181">
        <ele>438.8</ele>
        <time>2024-06-23T09:18:14Z</time>
      </trkpt>
      <trkpt lat="43.01128" lon="1.46188">
        <ele>438.8</ele>
        <time>2024-06-23T09:18:15Z</time>
      </trkpt>
      <trkpt lat="43.01128" lon="1.46195">
        <ele>438.8</ele>
        <time>2024-06-23T09:18:16Z</time>
      </trkpt>
      <trkpt lat="43.01128" lon="1.46202">
        <ele>438.8</ele>
        <time>2024-06-23T09:18:17Z</time>
      </trkpt>
      <trkpt lat="43.01129" lon="1.46206">
        <ele>438.8</ele>
        <time>2024-06-23T09:18:18Z</time>
      </trkpt>
      <trkpt lat="43.01129" lon="1.46211">
        <ele>438.8</ele>
        <time>2024-06-23T09:18:19Z</time>
      </trkpt>
      <trkpt lat="43.01129" lon="1.46215">
        <ele>438.8</ele>
        <time>2024-06-23T09:18:20Z</time>
      </trkpt>
      <trkpt lat="43.0113" lon="1.46223">
        <ele>439</ele>
        <time>2024-06-23T09:18:21Z</time>
      </trkpt>
      <trkpt lat="43.0113" lon="1.46229">
        <ele>439.2</ele>
        <time>2024-06-23T09:18:22Z</time>
      </trkpt>
      <trkpt lat="43.0113" lon="1.46238">
        <ele>439.2</ele>
        <time>2024-06-23T09:18:23Z</time>
      </trkpt>
      <trkpt lat="43.0113" lon="1.46246">
        <ele>439.2</ele>
        <time>2024-06-23T09:18:24Z</time>
      </trkpt>
      <trkpt lat="43.0113" lon="1.46253">
        <ele>439.2</ele>
        <time>2024-06-23T09:18:25Z</time>
      </trkpt>
      <trkpt lat="43.01131" lon="1.46258">
        <ele>439.6</ele>
        <time>2024-06-23T09:18:26Z</time>
      </trkpt>
      <trkpt lat="43.01131" lon="1.46265">
        <ele>439.6</ele>
        <time>2024-06-23T09:18:27Z</time>
      </trkpt>
      <trkpt lat="43.0113" lon="1.46271">
        <ele>439.8</ele>
        <time>2024-06-23T09:18:28Z</time>
      </trkpt>
      <trkpt lat="43.01129" lon="1.46276">
        <ele>439.8</ele>
        <time>2024-06-23T09:18:29Z</time>
      </trkpt>
      <trkpt lat="43.0113" lon="1.46285">
        <ele>439.8</ele>
        <time>2024-06-23T09:18:30Z</time>
      </trkpt>
      <trkpt lat="43.01128" lon="1.46293">
        <ele>440</ele>
        <time>2024-06-23T09:18:31Z</time>
      </trkpt>
      <trkpt lat="43.01129" lon="1.46301">
        <ele>440.4</ele>
        <time>2024-06-23T09:18:32Z</time>
      </trkpt>
      <trkpt lat="43.01129" lon="1.46307">
        <ele>440.4</ele>
        <time>2024-06-23T09:18:33Z</time>
      </trkpt>
      <trkpt lat="43.01129" lon="1.46311">
        <ele>440.6</ele>
        <time>2024-06-23T09:18:34Z</time>
      </trkpt>
      <trkpt lat="43.01128" lon="1.46316">
        <ele>440.6</ele>
        <time>2024-06-23T09:18:35Z</time>
      </trkpt>
      <trkpt lat="43.01129" lon="1.46323">
        <ele>440.8</ele>
        <time>2024-06-23T09:18:36Z</time>
      </trkpt>
      <trkpt lat="43.01129" lon="1.46328">
        <ele>440.8</ele>
        <time>2024-06-23T09:18:37Z</time>
      </trkpt>
      <trkpt lat="43.01128" lon="1.46333">
        <ele>440.8</ele>
        <time>2024-06-23T09:18:38Z</time>
      </trkpt>
      <trkpt lat="43.01128" lon="1.46341">
        <ele>440.6</ele>
        <time>2024-06-23T09:18:39Z</time>
      </trkpt>
      <trkpt lat="43.01128" lon="1.46348">
        <ele>440.6</ele>
        <time>2024-06-23T09:18:40Z</time>
      </trkpt>
      <trkpt lat="43.01128" lon="1.46352">
        <ele>440</ele>
        <time>2024-06-23T09:18:41Z</time>
      </trkpt>
      <trkpt lat="43.01128" lon="1.46361">
        <ele>440.4</ele>
        <time>2024-06-23T09:18:42Z</time>
      </trkpt>
      <trkpt lat="43.01128" lon="1.46369">
        <ele>440.6</ele>
        <time>2024-06-23T09:18:43Z</time>
      </trkpt>
      <trkpt lat="43.01127" lon="1.46375">
        <ele>440.8</ele>
        <time>2024-06-23T09:18:44Z</time>
      </trkpt>
      <trkpt lat="43.01127" lon="1.46381">
        <ele>440.6</ele>
        <time>2024-06-23T09:18:45Z</time>
      </trkpt>
      <trkpt lat="43.01127" lon="1.46388">
        <ele>440.6</ele>
        <time>2024-06-23T09:18:46Z</time>
      </trkpt>
      <trkpt lat="43.01126" lon="1.46395">
        <ele>441</ele>
        <time>2024-06-23T09:18:47Z</time>
      </trkpt>
      <trkpt lat="43.01123" lon="1.46406">
        <ele>441</ele>
        <time>2024-06-23T09:18:48Z</time>
      </trkpt>
      <trkpt lat="43.01122" lon="1.46415">
        <ele>441.6</ele>
        <time>2024-06-23T09:18:49Z</time>
      </trkpt>
      <trkpt lat="43.01122" lon="1.46423">
        <ele>441.6</ele>
        <time>2024-06-23T09:18:50Z</time>
      </trkpt>
      <trkpt lat="43.0112" lon="1.4643">
        <ele>441.4</ele>
        <time>2024-06-23T09:18:51Z</time>
      </trkpt>
      <trkpt lat="43.01119" lon="1.46437">
        <ele>441.4</ele>
        <time>2024-06-23T09:18:52Z</time>
      </trkpt>
      <trkpt lat="43.01116" lon="1.46446">
        <ele>441.6</ele>
        <time>2024-06-23T09:18:53Z</time>
      </trkpt>
      <trkpt lat="43.01115" lon="1.46453">
        <ele>441.4</ele>
        <time>2024-06-23T09:18:54Z</time>
      </trkpt>
      <trkpt lat="43.01113" lon="1.46461">
        <ele>441.4</ele>
        <time>2024-06-23T09:18:55Z</time>
      </trkpt>
      <trkpt lat="43.01112" lon="1.46467">
        <ele>441.4</ele>
        <time>2024-06-23T09:18:56Z</time>
      </trkpt>
      <trkpt lat="43.01111" lon="1.46471">
        <ele>441.6</ele>
        <time>2024-06-23T09:18:57Z</time>
      </trkpt>
      <trkpt lat="43.01111" lon="1.46471">
        <ele>441.6</ele>
        <time>2024-06-23T09:18:58Z</time>
      </trkpt>
      <trkpt lat="43.01108" lon="1.46481">
        <ele>441.6</ele>
        <time>2024-06-23T09:18:59Z</time>
      </trkpt>
      <trkpt lat="43.01108" lon="1.46484">
        <ele>441.6</ele>
        <time>2024-06-23T09:19:00Z</time>
      </trkpt>
      <trkpt lat="43.01107" lon="1.46487">
        <ele>442</ele>
        <time>2024-06-23T09:19:01Z</time>
      </trkpt>
      <trkpt lat="43.01105" lon="1.46497">
        <ele>442</ele>
        <time>2024-06-23T09:19:02Z</time>
      </trkpt>
      <trkpt lat="43.01105" lon="1.46506">
        <ele>442</ele>
        <time>2024-06-23T09:19:03Z</time>
      </trkpt>
      <trkpt lat="43.01104" lon="1.46512">
        <ele>442.2</ele>
        <time>2024-06-23T09:19:04Z</time>
      </trkpt>
      <trkpt lat="43.01101" lon="1.46518">
        <ele>442.4</ele>
        <time>2024-06-23T09:19:05Z</time>
      </trkpt>
      <trkpt lat="43.01099" lon="1.46524">
        <ele>442.4</ele>
        <time>2024-06-23T09:19:06Z</time>
      </trkpt>
      <trkpt lat="43.01097" lon="1.4653">
        <ele>442.6</ele>
        <time>2024-06-23T09:19:07Z</time>
      </trkpt>
      <trkpt lat="43.01095" lon="1.46536">
        <ele>442.6</ele>
        <time>2024-06-23T09:19:08Z</time>
      </trkpt>
      <trkpt lat="43.01093" lon="1.46543">
        <ele>443.2</ele>
        <time>2024-06-23T09:19:09Z</time>
      </trkpt>
      <trkpt lat="43.01091" lon="1.46549">
        <ele>443.2</ele>
        <time>2024-06-23T09:19:10Z</time>
      </trkpt>
      <trkpt lat="43.0109" lon="1.46558">
        <ele>443.2</ele>
        <time>2024-06-23T09:19:11Z</time>
      </trkpt>
      <trkpt lat="43.01088" lon="1.46565">
        <ele>443.2</ele>
        <time>2024-06-23T09:19:12Z</time>
      </trkpt>
      <trkpt lat="43.01085" lon="1.4657">
        <ele>443.2</ele>
        <time>2024-06-23T09:19:13Z</time>
      </trkpt>
      <trkpt lat="43.01083" lon="1.46576">
        <ele>443.2</ele>
        <time>2024-06-23T09:19:14Z</time>
      </trkpt>
      <trkpt lat="43.01082" lon="1.46582">
        <ele>443.2</ele>
        <time>2024-06-23T09:19:15Z</time>
      </trkpt>
      <trkpt lat="43.01079" lon="1.46587">
        <ele>443.2</ele>
        <time>2024-06-23T09:19:16Z</time>
      </trkpt>
      <trkpt lat="43.01078" lon="1.46593">
        <ele>443.2</ele>
        <time>2024-06-23T09:19:17Z</time>
      </trkpt>
      <trkpt lat="43.01076" lon="1.46596">
        <ele>443.4</ele>
        <time>2024-06-23T09:19:18Z</time>
      </trkpt>
      <trkpt lat="43.01073" lon="1.46602">
        <ele>443.6</ele>
        <time>2024-06-23T09:19:19Z</time>
      </trkpt>
      <trkpt lat="43.01073" lon="1.46605">
        <ele>443.8</ele>
        <time>2024-06-23T09:19:20Z</time>
      </trkpt>
      <trkpt lat="43.01071" lon="1.46612">
        <ele>443.8</ele>
        <time>2024-06-23T09:19:21Z</time>
      </trkpt>
      <trkpt lat="43.01068" lon="1.46619">
        <ele>443.6</ele>
        <time>2024-06-23T09:19:22Z</time>
      </trkpt>
      <trkpt lat="43.01067" lon="1.46625">
        <ele>443.6</ele>
        <time>2024-06-23T09:19:23Z</time>
      </trkpt>
      <trkpt lat="43.01064" lon="1.46632">
        <ele>443.8</ele>
        <time>2024-06-23T09:19:24Z</time>
      </trkpt>
      <trkpt lat="43.01061" lon="1.46638">
        <ele>444</ele>
        <time>2024-06-23T09:19:25Z</time>
      </trkpt>
      <trkpt lat="43.01059" lon="1.46645">
        <ele>444</ele>
        <time>2024-06-23T09:19:26Z</time>
      </trkpt>
      <trkpt lat="43.01056" lon="1.46651">
        <ele>444</ele>
        <time>2024-06-23T09:19:27Z</time>
      </trkpt>
      <trkpt lat="43.01054" lon="1.46657">
        <ele>444</ele>
        <time>2024-06-23T09:19:28Z</time>
      </trkpt>
      <trkpt lat="43.01052" lon="1.46664">
        <ele>444.6</ele>
        <time>2024-06-23T09:19:29Z</time>
      </trkpt>
      <trkpt lat="43.0105" lon="1.46671">
        <ele>444.8</ele>
        <time>2024-06-23T09:19:30Z</time>
      </trkpt>
      <trkpt lat="43.01048" lon="1.46679">
        <ele>444.8</ele>
        <time>2024-06-23T09:19:31Z</time>
      </trkpt>
      <trkpt lat="43.01047" lon="1.46684">
        <ele>444.8</ele>
        <time>2024-06-23T09:19:32Z</time>
      </trkpt>
      <trkpt lat="43.01045" lon="1.46691">
        <ele>444.6</ele>
        <time>2024-06-23T09:19:33Z</time>
      </trkpt>
      <trkpt lat="43.01042" lon="1.46695">
        <ele>444.6</ele>
        <time>2024-06-23T09:19:34Z</time>
      </trkpt>
      <trkpt lat="43.01042" lon="1.46701">
        <ele>444.6</ele>
        <time>2024-06-23T09:19:35Z</time>
      </trkpt>
      <trkpt lat="43.01041" lon="1.46705">
        <ele>445</ele>
        <time>2024-06-23T09:19:36Z</time>
      </trkpt>
      <trkpt lat="43.0104" lon="1.46711">
        <ele>445</ele>
        <time>2024-06-23T09:19:37Z</time>
      </trkpt>
      <trkpt lat="43.01037" lon="1.46718">
        <ele>445.4</ele>
        <time>2024-06-23T09:19:38Z</time>
      </trkpt>
      <trkpt lat="43.01035" lon="1.46723">
        <ele>445.4</ele>
        <time>2024-06-23T09:19:39Z</time>
      </trkpt>
      <trkpt lat="43.01033" lon="1.46729">
        <ele>445.6</ele>
        <time>2024-06-23T09:19:40Z</time>
      </trkpt>
      <trkpt lat="43.01031" lon="1.46735">
        <ele>445.6</ele>
        <time>2024-06-23T09:19:41Z</time>
      </trkpt>
      <trkpt lat="43.01029" lon="1.46742">
        <ele>445.6</ele>
        <time>2024-06-23T09:19:42Z</time>
      </trkpt>
      <trkpt lat="43.01028" lon="1.46748">
        <ele>445.8</ele>
        <time>2024-06-23T09:19:43Z</time>
      </trkpt>
      <trkpt lat="43.01026" lon="1.46755">
        <ele>446</ele>
        <time>2024-06-23T09:19:44Z</time>
      </trkpt>
      <trkpt lat="43.01025" lon="1.46762">
        <ele>446</ele>
        <time>2024-06-23T09:19:45Z</time>
      </trkpt>
      <trkpt lat="43.01024" lon="1.46769">
        <ele>446</ele>
        <time>2024-06-23T09:19:46Z</time>
      </trkpt>
      <trkpt lat="43.01023" lon="1.46775">
        <ele>446</ele>
        <time>2024-06-23T09:19:47Z</time>
      </trkpt>
      <trkpt lat="43.0102" lon="1.46781">
        <ele>446</ele>
        <time>2024-06-23T09:19:48Z</time>
      </trkpt>
      <trkpt lat="43.01019" lon="1.46788">
        <ele>446.2</ele>
        <time>2024-06-23T09:19:49Z</time>
      </trkpt>
      <trkpt lat="43.01018" lon="1.46795">
        <ele>446.2</ele>
        <time>2024-06-23T09:19:50Z</time>
      </trkpt>
      <trkpt lat="43.01017" lon="1.46802">
        <ele>446.4</ele>
        <time>2024-06-23T09:19:51Z</time>
      </trkpt>
      <trkpt lat="43.01017" lon="1.46808">
        <ele>446.4</ele>
        <time>2024-06-23T09:19:52Z</time>
      </trkpt>
      <trkpt lat="43.01015" lon="1.46817">
        <ele>446.4</ele>
        <time>2024-06-23T09:19:53Z</time>
      </trkpt>
      <trkpt lat="43.01013" lon="1.46823">
        <ele>446.4</ele>
        <time>2024-06-23T09:19:54Z</time>
      </trkpt>
      <trkpt lat="43.01012" lon="1.4683">
        <ele>446.4</ele>
        <time>2024-06-23T09:19:55Z</time>
      </trkpt>
      <trkpt lat="43.01011" lon="1.46837">
        <ele>446.8</ele>
        <time>2024-06-23T09:19:56Z</time>
      </trkpt>
      <trkpt lat="43.0101" lon="1.46844">
        <ele>446.8</ele>
        <time>2024-06-23T09:19:57Z</time>
      </trkpt>
      <trkpt lat="43.01008" lon="1.46851">
        <ele>446.8</ele>
        <time>2024-06-23T09:19:58Z</time>
      </trkpt>
      <trkpt lat="43.01008" lon="1.46859">
        <ele>447</ele>
        <time>2024-06-23T09:19:59Z</time>
      </trkpt>
      <trkpt lat="43.01007" lon="1.46867">
        <ele>447</ele>
        <time>2024-06-23T09:20:00Z</time>
      </trkpt>
      <trkpt lat="43.01006" lon="1.46874">
        <ele>447</ele>
        <time>2024-06-23T09:20:01Z</time>
      </trkpt>
      <trkpt lat="43.01005" lon="1.4688">
        <ele>447</ele>
        <time>2024-06-23T09:20:02Z</time>
      </trkpt>
      <trkpt lat="43.01005" lon="1.46888">
        <ele>447</ele>
        <time>2024-06-23T09:20:03Z</time>
      </trkpt>
      <trkpt lat="43.01003" lon="1.46895">
        <ele>447</ele>
        <time>2024-06-23T09:20:04Z</time>
      </trkpt>
      <trkpt lat="43.01003" lon="1.46902">
        <ele>447</ele>
        <time>2024-06-23T09:20:05Z</time>
      </trkpt>
      <trkpt lat="43.01" lon="1.4691">
        <ele>447.2</ele>
        <time>2024-06-23T09:20:06Z</time>
      </trkpt>
      <trkpt lat="43.01" lon="1.46916">
        <ele>447.2</ele>
        <time>2024-06-23T09:20:07Z</time>
      </trkpt>
      <trkpt lat="43.00998" lon="1.46923">
        <ele>447.6</ele>
        <time>2024-06-23T09:20:08Z</time>
      </trkpt>
      <trkpt lat="43.00997" lon="1.46929">
        <ele>447.6</ele>
        <time>2024-06-23T09:20:09Z</time>
      </trkpt>
      <trkpt lat="43.00996" lon="1.46936">
        <ele>447.6</ele>
        <time>2024-06-23T09:20:10Z</time>
      </trkpt>
      <trkpt lat="43.00995" lon="1.46944">
        <ele>447.6</ele>
        <time>2024-06-23T09:20:11Z</time>
      </trkpt>
      <trkpt lat="43.00994" lon="1.4695">
        <ele>447.6</ele>
        <time>2024-06-23T09:20:12Z</time>
      </trkpt>
      <trkpt lat="43.00992" lon="1.46956">
        <ele>447.8</ele>
        <time>2024-06-23T09:20:13Z</time>
      </trkpt>
      <trkpt lat="43.00991" lon="1.46962">
        <ele>447.8</ele>
        <time>2024-06-23T09:20:14Z</time>
      </trkpt>
      <trkpt lat="43.00991" lon="1.46968">
        <ele>447.8</ele>
        <time>2024-06-23T09:20:15Z</time>
      </trkpt>
      <trkpt lat="43.0099" lon="1.46975">
        <ele>448</ele>
        <time>2024-06-23T09:20:16Z</time>
      </trkpt>
      <trkpt lat="43.00988" lon="1.46982">
        <ele>448</ele>
        <time>2024-06-23T09:20:17Z</time>
      </trkpt>
      <trkpt lat="43.00986" lon="1.46987">
        <ele>448</ele>
        <time>2024-06-23T09:20:18Z</time>
      </trkpt>
      <trkpt lat="43.00985" lon="1.46994">
        <ele>448.2</ele>
        <time>2024-06-23T09:20:19Z</time>
      </trkpt>
      <trkpt lat="43.00985" lon="1.47">
        <ele>448.2</ele>
        <time>2024-06-23T09:20:20Z</time>
      </trkpt>
      <trkpt lat="43.00983" lon="1.47006">
        <ele>448.6</ele>
        <time>2024-06-23T09:20:21Z</time>
      </trkpt>
      <trkpt lat="43.00982" lon="1.47012">
        <ele>448.6</ele>
        <time>2024-06-23T09:20:22Z</time>
      </trkpt>
      <trkpt lat="43.00982" lon="1.47019">
        <ele>448.6</ele>
        <time>2024-06-23T09:20:23Z</time>
      </trkpt>
      <trkpt lat="43.00982" lon="1.47025">
        <ele>448.6</ele>
        <time>2024-06-23T09:20:24Z</time>
      </trkpt>
      <trkpt lat="43.00981" lon="1.47032">
        <ele>448.6</ele>
        <time>2024-06-23T09:20:25Z</time>
      </trkpt>
      <trkpt lat="43.0098" lon="1.47039">
        <ele>448.6</ele>
        <time>2024-06-23T09:20:26Z</time>
      </trkpt>
      <trkpt lat="43.0098" lon="1.47046">
        <ele>448.6</ele>
        <time>2024-06-23T09:20:27Z</time>
      </trkpt>
      <trkpt lat="43.00979" lon="1.47054">
        <ele>448.8</ele>
        <time>2024-06-23T09:20:28Z</time>
      </trkpt>
      <trkpt lat="43.00979" lon="1.47059">
        <ele>448.8</ele>
        <time>2024-06-23T09:20:29Z</time>
      </trkpt>
      <trkpt lat="43.00978" lon="1.47067">
        <ele>449.4</ele>
        <time>2024-06-23T09:20:30Z</time>
      </trkpt>
      <trkpt lat="43.00978" lon="1.47073">
        <ele>449.4</ele>
        <time>2024-06-23T09:20:31Z</time>
      </trkpt>
      <trkpt lat="43.00977" lon="1.4708">
        <ele>449.4</ele>
        <time>2024-06-23T09:20:32Z</time>
      </trkpt>
      <trkpt lat="43.00977" lon="1.47086">
        <ele>449.6</ele>
        <time>2024-06-23T09:20:33Z</time>
      </trkpt>
      <trkpt lat="43.00976" lon="1.47092">
        <ele>449.6</ele>
        <time>2024-06-23T09:20:34Z</time>
      </trkpt>
      <trkpt lat="43.00975" lon="1.47098">
        <ele>449.8</ele>
        <time>2024-06-23T09:20:35Z</time>
      </trkpt>
      <trkpt lat="43.00974" lon="1.47106">
        <ele>449.8</ele>
        <time>2024-06-23T09:20:36Z</time>
      </trkpt>
      <trkpt lat="43.00973" lon="1.47112">
        <ele>449.6</ele>
        <time>2024-06-23T09:20:37Z</time>
      </trkpt>
      <trkpt lat="43.00973" lon="1.4712">
        <ele>450</ele>
        <time>2024-06-23T09:20:38Z</time>
      </trkpt>
      <trkpt lat="43.00973" lon="1.4713">
        <ele>450</ele>
        <time>2024-06-23T09:20:39Z</time>
      </trkpt>
      <trkpt lat="43.00973" lon="1.47136">
        <ele>450</ele>
        <time>2024-06-23T09:20:40Z</time>
      </trkpt>
      <trkpt lat="43.00974" lon="1.47143">
        <ele>450</ele>
        <time>2024-06-23T09:20:41Z</time>
      </trkpt>
      <trkpt lat="43.00973" lon="1.47152">
        <ele>450</ele>
        <time>2024-06-23T09:20:42Z</time>
      </trkpt>
      <trkpt lat="43.00973" lon="1.47159">
        <ele>450.4</ele>
        <time>2024-06-23T09:20:43Z</time>
      </trkpt>
      <trkpt lat="43.00973" lon="1.47167">
        <ele>450.6</ele>
        <time>2024-06-23T09:20:44Z</time>
      </trkpt>
      <trkpt lat="43.00975" lon="1.47181">
        <ele>450.6</ele>
        <time>2024-06-23T09:20:45Z</time>
      </trkpt>
      <trkpt lat="43.00975" lon="1.47188">
        <ele>450.6</ele>
        <time>2024-06-23T09:20:46Z</time>
      </trkpt>
      <trkpt lat="43.00975" lon="1.47195">
        <ele>450.8</ele>
        <time>2024-06-23T09:20:47Z</time>
      </trkpt>
      <trkpt lat="43.00976" lon="1.47202">
        <ele>450.6</ele>
        <time>2024-06-23T09:20:48Z</time>
      </trkpt>
      <trkpt lat="43.00977" lon="1.47209">
        <ele>450.6</ele>
        <time>2024-06-23T09:20:49Z</time>
      </trkpt>
      <trkpt lat="43.00978" lon="1.47216">
        <ele>450.8</ele>
        <time>2024-06-23T09:20:50Z</time>
      </trkpt>
      <trkpt lat="43.00979" lon="1.47223">
        <ele>450.8</ele>
        <time>2024-06-23T09:20:51Z</time>
      </trkpt>
      <trkpt lat="43.00981" lon="1.4723">
        <ele>451.2</ele>
        <time>2024-06-23T09:20:52Z</time>
      </trkpt>
      <trkpt lat="43.00982" lon="1.47238">
        <ele>451.2</ele>
        <time>2024-06-23T09:20:53Z</time>
      </trkpt>
      <trkpt lat="43.00983" lon="1.47245">
        <ele>451.2</ele>
        <time>2024-06-23T09:20:54Z</time>
      </trkpt>
      <trkpt lat="43.00985" lon="1.47251">
        <ele>451.2</ele>
        <time>2024-06-23T09:20:55Z</time>
      </trkpt>
      <trkpt lat="43.00986" lon="1.47258">
        <ele>450.8</ele>
        <time>2024-06-23T09:20:56Z</time>
      </trkpt>
      <trkpt lat="43.00988" lon="1.47265">
        <ele>450.8</ele>
        <time>2024-06-23T09:20:57Z</time>
      </trkpt>
      <trkpt lat="43.00989" lon="1.47271">
        <ele>451.2</ele>
        <time>2024-06-23T09:20:58Z</time>
      </trkpt>
      <trkpt lat="43.00991" lon="1.47278">
        <ele>451.2</ele>
        <time>2024-06-23T09:20:59Z</time>
      </trkpt>
      <trkpt lat="43.00993" lon="1.47285">
        <ele>451.4</ele>
        <time>2024-06-23T09:21:00Z</time>
      </trkpt>
      <trkpt lat="43.00995" lon="1.47291">
        <ele>451.4</ele>
        <time>2024-06-23T09:21:01Z</time>
      </trkpt>
      <trkpt lat="43.00998" lon="1.47298">
        <ele>451.4</ele>
        <time>2024-06-23T09:21:02Z</time>
      </trkpt>
      <trkpt lat="43.01001" lon="1.47304">
        <ele>451.4</ele>
        <time>2024-06-23T09:21:03Z</time>
      </trkpt>
      <trkpt lat="43.01003" lon="1.4731">
        <ele>451.8</ele>
        <time>2024-06-23T09:21:04Z</time>
      </trkpt>
      <trkpt lat="43.01006" lon="1.47317">
        <ele>451.8</ele>
        <time>2024-06-23T09:21:05Z</time>
      </trkpt>
      <trkpt lat="43.01008" lon="1.47324">
        <ele>451.8</ele>
        <time>2024-06-23T09:21:06Z</time>
      </trkpt>
      <trkpt lat="43.01011" lon="1.47329">
        <ele>451.8</ele>
        <time>2024-06-23T09:21:07Z</time>
      </trkpt>
      <trkpt lat="43.01014" lon="1.47336">
        <ele>451.8</ele>
        <time>2024-06-23T09:21:08Z</time>
      </trkpt>
      <trkpt lat="43.01018" lon="1.47342">
        <ele>451.8</ele>
        <time>2024-06-23T09:21:09Z</time>
      </trkpt>
      <trkpt lat="43.01021" lon="1.47349">
        <ele>452.2</ele>
        <time>2024-06-23T09:21:10Z</time>
      </trkpt>
      <trkpt lat="43.01024" lon="1.47356">
        <ele>452.2</ele>
        <time>2024-06-23T09:21:11Z</time>
      </trkpt>
      <trkpt lat="43.01028" lon="1.4736">
        <ele>452.2</ele>
        <time>2024-06-23T09:21:12Z</time>
      </trkpt>
      <trkpt lat="43.01031" lon="1.47368">
        <ele>452.2</ele>
        <time>2024-06-23T09:21:13Z</time>
      </trkpt>
      <trkpt lat="43.01034" lon="1.47373">
        <ele>452.2</ele>
        <time>2024-06-23T09:21:14Z</time>
      </trkpt>
      <trkpt lat="43.01038" lon="1.47379">
        <ele>452.2</ele>
        <time>2024-06-23T09:21:15Z</time>
      </trkpt>
      <trkpt lat="43.01042" lon="1.47384">
        <ele>451.6</ele>
        <time>2024-06-23T09:21:16Z</time>
      </trkpt>
      <trkpt lat="43.01045" lon="1.47389">
        <ele>451.6</ele>
        <time>2024-06-23T09:21:17Z</time>
      </trkpt>
      <trkpt lat="43.01049" lon="1.47395">
        <ele>451.6</ele>
        <time>2024-06-23T09:21:18Z</time>
      </trkpt>
      <trkpt lat="43.01053" lon="1.474">
        <ele>452</ele>
        <time>2024-06-23T09:21:19Z</time>
      </trkpt>
      <trkpt lat="43.01057" lon="1.47405">
        <ele>452.4</ele>
        <time>2024-06-23T09:21:20Z</time>
      </trkpt>
      <trkpt lat="43.01061" lon="1.4741">
        <ele>452.4</ele>
        <time>2024-06-23T09:21:21Z</time>
      </trkpt>
      <trkpt lat="43.01065" lon="1.47415">
        <ele>452.6</ele>
        <time>2024-06-23T09:21:22Z</time>
      </trkpt>
      <trkpt lat="43.01069" lon="1.4742">
        <ele>452.6</ele>
        <time>2024-06-23T09:21:23Z</time>
      </trkpt>
      <trkpt lat="43.01073" lon="1.47425">
        <ele>452.6</ele>
        <time>2024-06-23T09:21:24Z</time>
      </trkpt>
      <trkpt lat="43.01077" lon="1.4743">
        <ele>452.6</ele>
        <time>2024-06-23T09:21:25Z</time>
      </trkpt>
      <trkpt lat="43.0108" lon="1.47434">
        <ele>452.8</ele>
        <time>2024-06-23T09:21:26Z</time>
      </trkpt>
      <trkpt lat="43.01085" lon="1.47439">
        <ele>452.8</ele>
        <time>2024-06-23T09:21:27Z</time>
      </trkpt>
      <trkpt lat="43.01089" lon="1.47444">
        <ele>453</ele>
        <time>2024-06-23T09:21:28Z</time>
      </trkpt>
      <trkpt lat="43.01093" lon="1.47448">
        <ele>453.2</ele>
        <time>2024-06-23T09:21:29Z</time>
      </trkpt>
      <trkpt lat="43.01097" lon="1.47453">
        <ele>453.2</ele>
        <time>2024-06-23T09:21:30Z</time>
      </trkpt>
      <trkpt lat="43.01101" lon="1.47458">
        <ele>453.2</ele>
        <time>2024-06-23T09:21:31Z</time>
      </trkpt>
      <trkpt lat="43.01104" lon="1.47463">
        <ele>453.2</ele>
        <time>2024-06-23T09:21:32Z</time>
      </trkpt>
      <trkpt lat="43.01108" lon="1.47468">
        <ele>453</ele>
        <time>2024-06-23T09:21:33Z</time>
      </trkpt>
      <trkpt lat="43.01112" lon="1.47472">
        <ele>453.4</ele>
        <time>2024-06-23T09:21:34Z</time>
      </trkpt>
      <trkpt lat="43.01117" lon="1.47476">
        <ele>453.4</ele>
        <time>2024-06-23T09:21:35Z</time>
      </trkpt>
      <trkpt lat="43.0112" lon="1.47481">
        <ele>453.6</ele>
        <time>2024-06-23T09:21:36Z</time>
      </trkpt>
      <trkpt lat="43.01124" lon="1.47486">
        <ele>453.8</ele>
        <time>2024-06-23T09:21:37Z</time>
      </trkpt>
      <trkpt lat="43.01127" lon="1.4749">
        <ele>453.8</ele>
        <time>2024-06-23T09:21:38Z</time>
      </trkpt>
      <trkpt lat="43.01131" lon="1.47494">
        <ele>453.8</ele>
        <time>2024-06-23T09:21:39Z</time>
      </trkpt>
      <trkpt lat="43.01134" lon="1.47499">
        <ele>454.2</ele>
        <time>2024-06-23T09:21:40Z</time>
      </trkpt>
      <trkpt lat="43.01139" lon="1.47503">
        <ele>454.4</ele>
        <time>2024-06-23T09:21:41Z</time>
      </trkpt>
      <trkpt lat="43.01142" lon="1.47508">
        <ele>454.4</ele>
        <time>2024-06-23T09:21:42Z</time>
      </trkpt>
      <trkpt lat="43.01146" lon="1.47512">
        <ele>454.4</ele>
        <time>2024-06-23T09:21:43Z</time>
      </trkpt>
      <trkpt lat="43.0115" lon="1.47516">
        <ele>454.8</ele>
        <time>2024-06-23T09:21:44Z</time>
      </trkpt>
      <trkpt lat="43.01154" lon="1.47521">
        <ele>454.8</ele>
        <time>2024-06-23T09:21:45Z</time>
      </trkpt>
      <trkpt lat="43.01158" lon="1.47525">
        <ele>454.8</ele>
        <time>2024-06-23T09:21:46Z</time>
      </trkpt>
      <trkpt lat="43.01163" lon="1.4753">
        <ele>454.8</ele>
        <time>2024-06-23T09:21:47Z</time>
      </trkpt>
      <trkpt lat="43.01167" lon="1.47535">
        <ele>454.8</ele>
        <time>2024-06-23T09:21:48Z</time>
      </trkpt>
      <trkpt lat="43.01171" lon="1.4754">
        <ele>454.8</ele>
        <time>2024-06-23T09:21:49Z</time>
      </trkpt>
      <trkpt lat="43.01175" lon="1.47545">
        <ele>455</ele>
        <time>2024-06-23T09:21:50Z</time>
      </trkpt>
      <trkpt lat="43.01178" lon="1.4755">
        <ele>455.4</ele>
        <time>2024-06-23T09:21:51Z</time>
      </trkpt>
      <trkpt lat="43.01182" lon="1.47555">
        <ele>455.4</ele>
        <time>2024-06-23T09:21:52Z</time>
      </trkpt>
      <trkpt lat="43.01186" lon="1.47561">
        <ele>455.4</ele>
        <time>2024-06-23T09:21:53Z</time>
      </trkpt>
      <trkpt lat="43.01189" lon="1.47565">
        <ele>455.4</ele>
        <time>2024-06-23T09:21:54Z</time>
      </trkpt>
      <trkpt lat="43.01189" lon="1.47565">
        <ele>456.2</ele>
        <time>2024-06-23T09:21:55Z</time>
      </trkpt>
      <trkpt lat="43.01193" lon="1.47568">
        <ele>456.6</ele>
        <time>2024-06-23T09:21:56Z</time>
      </trkpt>
      <trkpt lat="43.01196" lon="1.47573">
        <ele>456.6</ele>
        <time>2024-06-23T09:21:57Z</time>
      </trkpt>
      <trkpt lat="43.012" lon="1.47579">
        <ele>456.2</ele>
        <time>2024-06-23T09:21:58Z</time>
      </trkpt>
      <trkpt lat="43.01203" lon="1.47584">
        <ele>456.2</ele>
        <time>2024-06-23T09:21:59Z</time>
      </trkpt>
      <trkpt lat="43.01206" lon="1.4759">
        <ele>456.2</ele>
        <time>2024-06-23T09:22:00Z</time>
      </trkpt>
      <trkpt lat="43.01209" lon="1.47596">
        <ele>456</ele>
        <time>2024-06-23T09:22:01Z</time>
      </trkpt>
      <trkpt lat="43.01212" lon="1.476">
        <ele>456</ele>
        <time>2024-06-23T09:22:02Z</time>
      </trkpt>
      <trkpt lat="43.01215" lon="1.47607">
        <ele>456.2</ele>
        <time>2024-06-23T09:22:03Z</time>
      </trkpt>
      <trkpt lat="43.01217" lon="1.47613">
        <ele>456.2</ele>
        <time>2024-06-23T09:22:04Z</time>
      </trkpt>
      <trkpt lat="43.01221" lon="1.47619">
        <ele>456.2</ele>
        <time>2024-06-23T09:22:05Z</time>
      </trkpt>
      <trkpt lat="43.01223" lon="1.47625">
        <ele>456.2</ele>
        <time>2024-06-23T09:22:06Z</time>
      </trkpt>
      <trkpt lat="43.01226" lon="1.4763">
        <ele>455.8</ele>
        <time>2024-06-23T09:22:07Z</time>
      </trkpt>
      <trkpt lat="43.01229" lon="1.47636">
        <ele>455.8</ele>
        <time>2024-06-23T09:22:08Z</time>
      </trkpt>
      <trkpt lat="43.01231" lon="1.47642">
        <ele>456.2</ele>
        <time>2024-06-23T09:22:09Z</time>
      </trkpt>
      <trkpt lat="43.01234" lon="1.47648">
        <ele>456.2</ele>
        <time>2024-06-23T09:22:10Z</time>
      </trkpt>
      <trkpt lat="43.01236" lon="1.47655">
        <ele>456.4</ele>
        <time>2024-06-23T09:22:11Z</time>
      </trkpt>
      <trkpt lat="43.01238" lon="1.47661">
        <ele>456.4</ele>
        <time>2024-06-23T09:22:12Z</time>
      </trkpt>
      <trkpt lat="43.0124" lon="1.47668">
        <ele>456.4</ele>
        <time>2024-06-23T09:22:13Z</time>
      </trkpt>
      <trkpt lat="43.01242" lon="1.47674">
        <ele>456.8</ele>
        <time>2024-06-23T09:22:14Z</time>
      </trkpt>
      <trkpt lat="43.01244" lon="1.4768">
        <ele>456.8</ele>
        <time>2024-06-23T09:22:15Z</time>
      </trkpt>
      <trkpt lat="43.01246" lon="1.47687">
        <ele>456.8</ele>
        <time>2024-06-23T09:22:16Z</time>
      </trkpt>
      <trkpt lat="43.01247" lon="1.47693">
        <ele>457.2</ele>
        <time>2024-06-23T09:22:17Z</time>
      </trkpt>
      <trkpt lat="43.01249" lon="1.47699">
        <ele>457.2</ele>
        <time>2024-06-23T09:22:18Z</time>
      </trkpt>
      <trkpt lat="43.01251" lon="1.47705">
        <ele>457.4</ele>
        <time>2024-06-23T09:22:19Z</time>
      </trkpt>
      <trkpt lat="43.01252" lon="1.47712">
        <ele>457.6</ele>
        <time>2024-06-23T09:22:20Z</time>
      </trkpt>
      <trkpt lat="43.01254" lon="1.47718">
        <ele>457.6</ele>
        <time>2024-06-23T09:22:21Z</time>
      </trkpt>
      <trkpt lat="43.01255" lon="1.47725">
        <ele>457.6</ele>
        <time>2024-06-23T09:22:22Z</time>
      </trkpt>
      <trkpt lat="43.01256" lon="1.47732">
        <ele>458</ele>
        <time>2024-06-23T09:22:23Z</time>
      </trkpt>
      <trkpt lat="43.01257" lon="1.47739">
        <ele>458</ele>
        <time>2024-06-23T09:22:24Z</time>
      </trkpt>
      <trkpt lat="43.01259" lon="1.47745">
        <ele>458</ele>
        <time>2024-06-23T09:22:25Z</time>
      </trkpt>
      <trkpt lat="43.0126" lon="1.47752">
        <ele>458</ele>
        <time>2024-06-23T09:22:26Z</time>
      </trkpt>
      <trkpt lat="43.01261" lon="1.47759">
        <ele>458</ele>
        <time>2024-06-23T09:22:27Z</time>
      </trkpt>
      <trkpt lat="43.01262" lon="1.47766">
        <ele>458.4</ele>
        <time>2024-06-23T09:22:28Z</time>
      </trkpt>
      <trkpt lat="43.01263" lon="1.47773">
        <ele>458.6</ele>
        <time>2024-06-23T09:22:29Z</time>
      </trkpt>
      <trkpt lat="43.01264" lon="1.47779">
        <ele>458.4</ele>
        <time>2024-06-23T09:22:30Z</time>
      </trkpt>
      <trkpt lat="43.01264" lon="1.47785">
        <ele>458.4</ele>
        <time>2024-06-23T09:22:31Z</time>
      </trkpt>
      <trkpt lat="43.01264" lon="1.4779">
        <ele>458.4</ele>
        <time>2024-06-23T09:22:32Z</time>
      </trkpt>
      <trkpt lat="43.01266" lon="1.47798">
        <ele>458.4</ele>
        <time>2024-06-23T09:22:33Z</time>
      </trkpt>
      <trkpt lat="43.01267" lon="1.47805">
        <ele>458.4</ele>
        <time>2024-06-23T09:22:34Z</time>
      </trkpt>
      <trkpt lat="43.01267" lon="1.47812">
        <ele>458.4</ele>
        <time>2024-06-23T09:22:35Z</time>
      </trkpt>
      <trkpt lat="43.01267" lon="1.47819">
        <ele>458.8</ele>
        <time>2024-06-23T09:22:36Z</time>
      </trkpt>
      <trkpt lat="43.01268" lon="1.47825">
        <ele>458.8</ele>
        <time>2024-06-23T09:22:37Z</time>
      </trkpt>
      <trkpt lat="43.01269" lon="1.47833">
        <ele>458.8</ele>
        <time>2024-06-23T09:22:38Z</time>
      </trkpt>
      <trkpt lat="43.01269" lon="1.47839">
        <ele>459</ele>
        <time>2024-06-23T09:22:39Z</time>
      </trkpt>
      <trkpt lat="43.0127" lon="1.47845">
        <ele>458.8</ele>
        <time>2024-06-23T09:22:40Z</time>
      </trkpt>
      <trkpt lat="43.0127" lon="1.47854">
        <ele>459.2</ele>
        <time>2024-06-23T09:22:41Z</time>
      </trkpt>
      <trkpt lat="43.01269" lon="1.47861">
        <ele>459.2</ele>
        <time>2024-06-23T09:22:42Z</time>
      </trkpt>
      <trkpt lat="43.01271" lon="1.47867">
        <ele>459.2</ele>
        <time>2024-06-23T09:22:43Z</time>
      </trkpt>
      <trkpt lat="43.01272" lon="1.47875">
        <ele>459.2</ele>
        <time>2024-06-23T09:22:44Z</time>
      </trkpt>
      <trkpt lat="43.01272" lon="1.47883">
        <ele>459.6</ele>
        <time>2024-06-23T09:22:45Z</time>
      </trkpt>
      <trkpt lat="43.01273" lon="1.4789">
        <ele>459.6</ele>
        <time>2024-06-23T09:22:46Z</time>
      </trkpt>
      <trkpt lat="43.01274" lon="1.47897">
        <ele>459.8</ele>
        <time>2024-06-23T09:22:47Z</time>
      </trkpt>
      <trkpt lat="43.01275" lon="1.47903">
        <ele>459.8</ele>
        <time>2024-06-23T09:22:48Z</time>
      </trkpt>
      <trkpt lat="43.01276" lon="1.4791">
        <ele>459.8</ele>
        <time>2024-06-23T09:22:49Z</time>
      </trkpt>
      <trkpt lat="43.01277" lon="1.47918">
        <ele>459.8</ele>
        <time>2024-06-23T09:22:50Z</time>
      </trkpt>
      <trkpt lat="43.01277" lon="1.47923">
        <ele>459.8</ele>
        <time>2024-06-23T09:22:51Z</time>
      </trkpt>
      <trkpt lat="43.01278" lon="1.47929">
        <ele>459.8</ele>
        <time>2024-06-23T09:22:52Z</time>
      </trkpt>
      <trkpt lat="43.01279" lon="1.47936">
        <ele>460</ele>
        <time>2024-06-23T09:22:53Z</time>
      </trkpt>
      <trkpt lat="43.01279" lon="1.47944">
        <ele>460</ele>
        <time>2024-06-23T09:22:54Z</time>
      </trkpt>
      <trkpt lat="43.01279" lon="1.47948">
        <ele>460.2</ele>
        <time>2024-06-23T09:22:55Z</time>
      </trkpt>
      <trkpt lat="43.0128" lon="1.47954">
        <ele>460.2</ele>
        <time>2024-06-23T09:22:56Z</time>
      </trkpt>
      <trkpt lat="43.0128" lon="1.4796">
        <ele>460.2</ele>
        <time>2024-06-23T09:22:57Z</time>
      </trkpt>
      <trkpt lat="43.0128" lon="1.47968">
        <ele>460.6</ele>
        <time>2024-06-23T09:22:58Z</time>
      </trkpt>
      <trkpt lat="43.01281" lon="1.47975">
        <ele>460.8</ele>
        <time>2024-06-23T09:22:59Z</time>
      </trkpt>
      <trkpt lat="43.01281" lon="1.47983">
        <ele>461</ele>
        <time>2024-06-23T09:23:00Z</time>
      </trkpt>
      <trkpt lat="43.01281" lon="1.4799">
        <ele>461.2</ele>
        <time>2024-06-23T09:23:01Z</time>
      </trkpt>
      <trkpt lat="43.01281" lon="1.47997">
        <ele>461.2</ele>
        <time>2024-06-23T09:23:02Z</time>
      </trkpt>
      <trkpt lat="43.01281" lon="1.48006">
        <ele>461.2</ele>
        <time>2024-06-23T09:23:03Z</time>
      </trkpt>
      <trkpt lat="43.0128" lon="1.48013">
        <ele>461.2</ele>
        <time>2024-06-23T09:23:04Z</time>
      </trkpt>
      <trkpt lat="43.0128" lon="1.4802">
        <ele>461.2</ele>
        <time>2024-06-23T09:23:05Z</time>
      </trkpt>
      <trkpt lat="43.01279" lon="1.48028">
        <ele>461.2</ele>
        <time>2024-06-23T09:23:06Z</time>
      </trkpt>
      <trkpt lat="43.0128" lon="1.48033">
        <ele>461.2</ele>
        <time>2024-06-23T09:23:07Z</time>
      </trkpt>
      <trkpt lat="43.01278" lon="1.48042">
        <ele>461.2</ele>
        <time>2024-06-23T09:23:08Z</time>
      </trkpt>
      <trkpt lat="43.01277" lon="1.48048">
        <ele>461.2</ele>
        <time>2024-06-23T09:23:09Z</time>
      </trkpt>
      <trkpt lat="43.01276" lon="1.48056">
        <ele>461</ele>
        <time>2024-06-23T09:23:10Z</time>
      </trkpt>
      <trkpt lat="43.01274" lon="1.48063">
        <ele>461.4</ele>
        <time>2024-06-23T09:23:11Z</time>
      </trkpt>
      <trkpt lat="43.01275" lon="1.4807">
        <ele>461.4</ele>
        <time>2024-06-23T09:23:12Z</time>
      </trkpt>
      <trkpt lat="43.01273" lon="1.48077">
        <ele>461.4</ele>
        <time>2024-06-23T09:23:13Z</time>
      </trkpt>
      <trkpt lat="43.01271" lon="1.48084">
        <ele>461.4</ele>
        <time>2024-06-23T09:23:14Z</time>
      </trkpt>
      <trkpt lat="43.0127" lon="1.48091">
        <ele>461.4</ele>
        <time>2024-06-23T09:23:15Z</time>
      </trkpt>
      <trkpt lat="43.01268" lon="1.48099">
        <ele>461.6</ele>
        <time>2024-06-23T09:23:16Z</time>
      </trkpt>
      <trkpt lat="43.01266" lon="1.48105">
        <ele>462</ele>
        <time>2024-06-23T09:23:17Z</time>
      </trkpt>
      <trkpt lat="43.01266" lon="1.48112">
        <ele>462</ele>
        <time>2024-06-23T09:23:18Z</time>
      </trkpt>
      <trkpt lat="43.01264" lon="1.48118">
        <ele>462</ele>
        <time>2024-06-23T09:23:19Z</time>
      </trkpt>
      <trkpt lat="43.01262" lon="1.48126">
        <ele>462.2</ele>
        <time>2024-06-23T09:23:20Z</time>
      </trkpt>
      <trkpt lat="43.0126" lon="1.48132">
        <ele>462.4</ele>
        <time>2024-06-23T09:23:21Z</time>
      </trkpt>
      <trkpt lat="43.01259" lon="1.48137">
        <ele>462.4</ele>
        <time>2024-06-23T09:23:22Z</time>
      </trkpt>
      <trkpt lat="43.01255" lon="1.48143">
        <ele>463</ele>
        <time>2024-06-23T09:23:23Z</time>
      </trkpt>
      <trkpt lat="43.01253" lon="1.4815">
        <ele>463</ele>
        <time>2024-06-23T09:23:24Z</time>
      </trkpt>
      <trkpt lat="43.01251" lon="1.48156">
        <ele>463</ele>
        <time>2024-06-23T09:23:25Z</time>
      </trkpt>
      <trkpt lat="43.01249" lon="1.48163">
        <ele>463</ele>
        <time>2024-06-23T09:23:26Z</time>
      </trkpt>
      <trkpt lat="43.01246" lon="1.4817">
        <ele>462.6</ele>
        <time>2024-06-23T09:23:27Z</time>
      </trkpt>
      <trkpt lat="43.01243" lon="1.48174">
        <ele>462.6</ele>
        <time>2024-06-23T09:23:28Z</time>
      </trkpt>
      <trkpt lat="43.0124" lon="1.48179">
        <ele>462.6</ele>
        <time>2024-06-23T09:23:29Z</time>
      </trkpt>
      <trkpt lat="43.01237" lon="1.48186">
        <ele>462.6</ele>
        <time>2024-06-23T09:23:30Z</time>
      </trkpt>
      <trkpt lat="43.01233" lon="1.48192">
        <ele>462.8</ele>
        <time>2024-06-23T09:23:31Z</time>
      </trkpt>
      <trkpt lat="43.0123" lon="1.48198">
        <ele>462.8</ele>
        <time>2024-06-23T09:23:32Z</time>
      </trkpt>
      <trkpt lat="43.01226" lon="1.48204">
        <ele>462.8</ele>
        <time>2024-06-23T09:23:33Z</time>
      </trkpt>
      <trkpt lat="43.01223" lon="1.48209">
        <ele>462.8</ele>
        <time>2024-06-23T09:23:34Z</time>
      </trkpt>
      <trkpt lat="43.0122" lon="1.48215">
        <ele>463.2</ele>
        <time>2024-06-23T09:23:35Z</time>
      </trkpt>
      <trkpt lat="43.01216" lon="1.48221">
        <ele>463.2</ele>
        <time>2024-06-23T09:23:36Z</time>
      </trkpt>
      <trkpt lat="43.01211" lon="1.48226">
        <ele>463.2</ele>
        <time>2024-06-23T09:23:37Z</time>
      </trkpt>
      <trkpt lat="43.01208" lon="1.48232">
        <ele>463.2</ele>
        <time>2024-06-23T09:23:38Z</time>
      </trkpt>
      <trkpt lat="43.01204" lon="1.48237">
        <ele>463.2</ele>
        <time>2024-06-23T09:23:39Z</time>
      </trkpt>
      <trkpt lat="43.012" lon="1.48242">
        <ele>463.6</ele>
        <time>2024-06-23T09:23:40Z</time>
      </trkpt>
      <trkpt lat="43.01196" lon="1.48248">
        <ele>463.6</ele>
        <time>2024-06-23T09:23:41Z</time>
      </trkpt>
      <trkpt lat="43.01193" lon="1.48253">
        <ele>463.8</ele>
        <time>2024-06-23T09:23:42Z</time>
      </trkpt>
      <trkpt lat="43.01191" lon="1.48258">
        <ele>463.8</ele>
        <time>2024-06-23T09:23:43Z</time>
      </trkpt>
      <trkpt lat="43.01186" lon="1.48262">
        <ele>463.6</ele>
        <time>2024-06-23T09:23:44Z</time>
      </trkpt>
      <trkpt lat="43.01182" lon="1.48266">
        <ele>464.2</ele>
        <time>2024-06-23T09:23:45Z</time>
      </trkpt>
      <trkpt lat="43.01179" lon="1.4827">
        <ele>464.2</ele>
        <time>2024-06-23T09:23:46Z</time>
      </trkpt>
      <trkpt lat="43.01174" lon="1.48275">
        <ele>464.2</ele>
        <time>2024-06-23T09:23:47Z</time>
      </trkpt>
      <trkpt lat="43.01169" lon="1.48281">
        <ele>464.2</ele>
        <time>2024-06-23T09:23:48Z</time>
      </trkpt>
      <trkpt lat="43.01167" lon="1.48286">
        <ele>464</ele>
        <time>2024-06-23T09:23:49Z</time>
      </trkpt>
      <trkpt lat="43.01162" lon="1.48291">
        <ele>464.4</ele>
        <time>2024-06-23T09:23:50Z</time>
      </trkpt>
      <trkpt lat="43.01158" lon="1.48296">
        <ele>464.4</ele>
        <time>2024-06-23T09:23:51Z</time>
      </trkpt>
      <trkpt lat="43.01153" lon="1.483">
        <ele>464.4</ele>
        <time>2024-06-23T09:23:52Z</time>
      </trkpt>
      <trkpt lat="43.0115" lon="1.48306">
        <ele>464.4</ele>
        <time>2024-06-23T09:23:53Z</time>
      </trkpt>
      <trkpt lat="43.01146" lon="1.4831">
        <ele>464.8</ele>
        <time>2024-06-23T09:23:54Z</time>
      </trkpt>
      <trkpt lat="43.01141" lon="1.48316">
        <ele>464.8</ele>
        <time>2024-06-23T09:23:55Z</time>
      </trkpt>
      <trkpt lat="43.01137" lon="1.48319">
        <ele>464.8</ele>
        <time>2024-06-23T09:23:56Z</time>
      </trkpt>
      <trkpt lat="43.01133" lon="1.48325">
        <ele>464.8</ele>
        <time>2024-06-23T09:23:57Z</time>
      </trkpt>
      <trkpt lat="43.0113" lon="1.4833">
        <ele>464.8</ele>
        <time>2024-06-23T09:23:58Z</time>
      </trkpt>
      <trkpt lat="43.01125" lon="1.48335">
        <ele>464.8</ele>
        <time>2024-06-23T09:23:59Z</time>
      </trkpt>
      <trkpt lat="43.01121" lon="1.4834">
        <ele>464.8</ele>
        <time>2024-06-23T09:24:00Z</time>
      </trkpt>
      <trkpt lat="43.01117" lon="1.48346">
        <ele>465.2</ele>
        <time>2024-06-23T09:24:01Z</time>
      </trkpt>
      <trkpt lat="43.01114" lon="1.48351">
        <ele>465.2</ele>
        <time>2024-06-23T09:24:02Z</time>
      </trkpt>
      <trkpt lat="43.01111" lon="1.48356">
        <ele>465.2</ele>
        <time>2024-06-23T09:24:03Z</time>
      </trkpt>
      <trkpt lat="43.01107" lon="1.48361">
        <ele>465.6</ele>
        <time>2024-06-23T09:24:04Z</time>
      </trkpt>
      <trkpt lat="43.01103" lon="1.48366">
        <ele>465.6</ele>
        <time>2024-06-23T09:24:05Z</time>
      </trkpt>
      <trkpt lat="43.011" lon="1.48371">
        <ele>465.8</ele>
        <time>2024-06-23T09:24:06Z</time>
      </trkpt>
      <trkpt lat="43.01097" lon="1.48376">
        <ele>466</ele>
        <time>2024-06-23T09:24:07Z</time>
      </trkpt>
      <trkpt lat="43.01093" lon="1.48382">
        <ele>466</ele>
        <time>2024-06-23T09:24:08Z</time>
      </trkpt>
      <trkpt lat="43.0109" lon="1.48388">
        <ele>465.8</ele>
        <time>2024-06-23T09:24:09Z</time>
      </trkpt>
      <trkpt lat="43.01087" lon="1.48394">
        <ele>466</ele>
        <time>2024-06-23T09:24:10Z</time>
      </trkpt>
      <trkpt lat="43.01085" lon="1.48401">
        <ele>466</ele>
        <time>2024-06-23T09:24:11Z</time>
      </trkpt>
      <trkpt lat="43.01082" lon="1.48406">
        <ele>466</ele>
        <time>2024-06-23T09:24:12Z</time>
      </trkpt>
      <trkpt lat="43.0108" lon="1.48412">
        <ele>466</ele>
        <time>2024-06-23T09:24:13Z</time>
      </trkpt>
      <trkpt lat="43.01077" lon="1.48417">
        <ele>466</ele>
        <time>2024-06-23T09:24:14Z</time>
      </trkpt>
      <trkpt lat="43.01074" lon="1.48424">
        <ele>466</ele>
        <time>2024-06-23T09:24:15Z</time>
      </trkpt>
      <trkpt lat="43.01072" lon="1.48429">
        <ele>466</ele>
        <time>2024-06-23T09:24:16Z</time>
      </trkpt>
      <trkpt lat="43.01069" lon="1.48435">
        <ele>466.2</ele>
        <time>2024-06-23T09:24:17Z</time>
      </trkpt>
      <trkpt lat="43.01066" lon="1.48441">
        <ele>466.2</ele>
        <time>2024-06-23T09:24:18Z</time>
      </trkpt>
      <trkpt lat="43.01064" lon="1.48448">
        <ele>466.2</ele>
        <time>2024-06-23T09:24:19Z</time>
      </trkpt>
      <trkpt lat="43.01061" lon="1.48454">
        <ele>466.6</ele>
        <time>2024-06-23T09:24:20Z</time>
      </trkpt>
      <trkpt lat="43.01058" lon="1.48459">
        <ele>466.6</ele>
        <time>2024-06-23T09:24:21Z</time>
      </trkpt>
      <trkpt lat="43.01057" lon="1.48466">
        <ele>467.2</ele>
        <time>2024-06-23T09:24:22Z</time>
      </trkpt>
      <trkpt lat="43.01054" lon="1.48472">
        <ele>466.8</ele>
        <time>2024-06-23T09:24:23Z</time>
      </trkpt>
      <trkpt lat="43.01053" lon="1.48479">
        <ele>467.2</ele>
        <time>2024-06-23T09:24:24Z</time>
      </trkpt>
      <trkpt lat="43.0105" lon="1.48485">
        <ele>467</ele>
        <time>2024-06-23T09:24:25Z</time>
      </trkpt>
      <trkpt lat="43.01048" lon="1.48492">
        <ele>467</ele>
        <time>2024-06-23T09:24:26Z</time>
      </trkpt>
      <trkpt lat="43.01048" lon="1.48498">
        <ele>467</ele>
        <time>2024-06-23T09:24:27Z</time>
      </trkpt>
      <trkpt lat="43.01046" lon="1.48504">
        <ele>467.2</ele>
        <time>2024-06-23T09:24:28Z</time>
      </trkpt>
      <trkpt lat="43.01045" lon="1.4851">
        <ele>467.4</ele>
        <time>2024-06-23T09:24:29Z</time>
      </trkpt>
      <trkpt lat="43.01044" lon="1.48517">
        <ele>467.8</ele>
        <time>2024-06-23T09:24:30Z</time>
      </trkpt>
      <trkpt lat="43.01043" lon="1.48524">
        <ele>467.8</ele>
        <time>2024-06-23T09:24:31Z</time>
      </trkpt>
      <trkpt lat="43.01041" lon="1.48531">
        <ele>467.8</ele>
        <time>2024-06-23T09:24:32Z</time>
      </trkpt>
      <trkpt lat="43.0104" lon="1.48537">
        <ele>468</ele>
        <time>2024-06-23T09:24:33Z</time>
      </trkpt>
      <trkpt lat="43.01039" lon="1.48544">
        <ele>468</ele>
        <time>2024-06-23T09:24:34Z</time>
      </trkpt>
      <trkpt lat="43.01037" lon="1.4855">
        <ele>468.4</ele>
        <time>2024-06-23T09:24:35Z</time>
      </trkpt>
      <trkpt lat="43.01036" lon="1.48557">
        <ele>468.4</ele>
        <time>2024-06-23T09:24:36Z</time>
      </trkpt>
      <trkpt lat="43.01034" lon="1.48563">
        <ele>469</ele>
        <time>2024-06-23T09:24:37Z</time>
      </trkpt>
      <trkpt lat="43.01033" lon="1.4857">
        <ele>469</ele>
        <time>2024-06-23T09:24:38Z</time>
      </trkpt>
      <trkpt lat="43.01031" lon="1.48576">
        <ele>468.6</ele>
        <time>2024-06-23T09:24:39Z</time>
      </trkpt>
      <trkpt lat="43.0103" lon="1.48583">
        <ele>468.6</ele>
        <time>2024-06-23T09:24:40Z</time>
      </trkpt>
      <trkpt lat="43.01028" lon="1.48588">
        <ele>468.6</ele>
        <time>2024-06-23T09:24:41Z</time>
      </trkpt>
      <trkpt lat="43.01026" lon="1.48594">
        <ele>468.6</ele>
        <time>2024-06-23T09:24:42Z</time>
      </trkpt>
      <trkpt lat="43.01025" lon="1.48601">
        <ele>468.6</ele>
        <time>2024-06-23T09:24:43Z</time>
      </trkpt>
      <trkpt lat="43.01023" lon="1.48607">
        <ele>468.6</ele>
        <time>2024-06-23T09:24:44Z</time>
      </trkpt>
      <trkpt lat="43.01022" lon="1.48613">
        <ele>468.6</ele>
        <time>2024-06-23T09:24:45Z</time>
      </trkpt>
      <trkpt lat="43.01022" lon="1.4862">
        <ele>468.6</ele>
        <time>2024-06-23T09:24:46Z</time>
      </trkpt>
      <trkpt lat="43.0102" lon="1.48626">
        <ele>468.8</ele>
        <time>2024-06-23T09:24:47Z</time>
      </trkpt>
      <trkpt lat="43.01019" lon="1.48636">
        <ele>468.8</ele>
        <time>2024-06-23T09:24:48Z</time>
      </trkpt>
      <trkpt lat="43.01018" lon="1.48642">
        <ele>469.2</ele>
        <time>2024-06-23T09:24:49Z</time>
      </trkpt>
      <trkpt lat="43.01016" lon="1.48648">
        <ele>469.2</ele>
        <time>2024-06-23T09:24:50Z</time>
      </trkpt>
      <trkpt lat="43.01015" lon="1.48655">
        <ele>469.2</ele>
        <time>2024-06-23T09:24:51Z</time>
      </trkpt>
      <trkpt lat="43.01015" lon="1.48663">
        <ele>468.8</ele>
        <time>2024-06-23T09:24:52Z</time>
      </trkpt>
      <trkpt lat="43.01014" lon="1.48669">
        <ele>468.8</ele>
        <time>2024-06-23T09:24:53Z</time>
      </trkpt>
      <trkpt lat="43.01012" lon="1.48675">
        <ele>468.8</ele>
        <time>2024-06-23T09:24:54Z</time>
      </trkpt>
      <trkpt lat="43.01012" lon="1.48681">
        <ele>468.8</ele>
        <time>2024-06-23T09:24:55Z</time>
      </trkpt>
      <trkpt lat="43.01011" lon="1.48687">
        <ele>468.8</ele>
        <time>2024-06-23T09:24:56Z</time>
      </trkpt>
      <trkpt lat="43.01009" lon="1.48693">
        <ele>468.8</ele>
        <time>2024-06-23T09:24:57Z</time>
      </trkpt>
      <trkpt lat="43.01008" lon="1.48699">
        <ele>469</ele>
        <time>2024-06-23T09:24:58Z</time>
      </trkpt>
      <trkpt lat="43.01007" lon="1.48705">
        <ele>469.2</ele>
        <time>2024-06-23T09:24:59Z</time>
      </trkpt>
      <trkpt lat="43.01005" lon="1.48713">
        <ele>469.2</ele>
        <time>2024-06-23T09:25:00Z</time>
      </trkpt>
      <trkpt lat="43.01004" lon="1.4872">
        <ele>469.4</ele>
        <time>2024-06-23T09:25:01Z</time>
      </trkpt>
      <trkpt lat="43.01002" lon="1.48727">
        <ele>469.8</ele>
        <time>2024-06-23T09:25:02Z</time>
      </trkpt>
      <trkpt lat="43.01001" lon="1.48734">
        <ele>469.4</ele>
        <time>2024-06-23T09:25:03Z</time>
      </trkpt>
      <trkpt lat="43.01" lon="1.48741">
        <ele>469.8</ele>
        <time>2024-06-23T09:25:04Z</time>
      </trkpt>
      <trkpt lat="43.00999" lon="1.48747">
        <ele>469.8</ele>
        <time>2024-06-23T09:25:05Z</time>
      </trkpt>
      <trkpt lat="43.00998" lon="1.48753">
        <ele>469.8</ele>
        <time>2024-06-23T09:25:06Z</time>
      </trkpt>
      <trkpt lat="43.00997" lon="1.4876">
        <ele>469.8</ele>
        <time>2024-06-23T09:25:07Z</time>
      </trkpt>
      <trkpt lat="43.00996" lon="1.48767">
        <ele>470</ele>
        <time>2024-06-23T09:25:08Z</time>
      </trkpt>
      <trkpt lat="43.00995" lon="1.48773">
        <ele>470</ele>
        <time>2024-06-23T09:25:09Z</time>
      </trkpt>
      <trkpt lat="43.00993" lon="1.48779">
        <ele>470.4</ele>
        <time>2024-06-23T09:25:10Z</time>
      </trkpt>
      <trkpt lat="43.00992" lon="1.48786">
        <ele>470.6</ele>
        <time>2024-06-23T09:25:11Z</time>
      </trkpt>
      <trkpt lat="43.0099" lon="1.48793">
        <ele>470.6</ele>
        <time>2024-06-23T09:25:12Z</time>
      </trkpt>
      <trkpt lat="43.00989" lon="1.488">
        <ele>470.6</ele>
        <time>2024-06-23T09:25:13Z</time>
      </trkpt>
      <trkpt lat="43.00987" lon="1.48806">
        <ele>470.6</ele>
        <time>2024-06-23T09:25:14Z</time>
      </trkpt>
      <trkpt lat="43.00986" lon="1.48812">
        <ele>470.6</ele>
        <time>2024-06-23T09:25:15Z</time>
      </trkpt>
      <trkpt lat="43.00984" lon="1.48819">
        <ele>470.6</ele>
        <time>2024-06-23T09:25:16Z</time>
      </trkpt>
      <trkpt lat="43.00983" lon="1.48825">
        <ele>471</ele>
        <time>2024-06-23T09:25:17Z</time>
      </trkpt>
      <trkpt lat="43.00982" lon="1.48832">
        <ele>471</ele>
        <time>2024-06-23T09:25:18Z</time>
      </trkpt>
      <trkpt lat="43.0098" lon="1.48838">
        <ele>471.2</ele>
        <time>2024-06-23T09:25:19Z</time>
      </trkpt>
      <trkpt lat="43.00978" lon="1.48845">
        <ele>471.2</ele>
        <time>2024-06-23T09:25:20Z</time>
      </trkpt>
      <trkpt lat="43.00977" lon="1.48852">
        <ele>471.4</ele>
        <time>2024-06-23T09:25:21Z</time>
      </trkpt>
      <trkpt lat="43.00975" lon="1.48867">
        <ele>471.4</ele>
        <time>2024-06-23T09:25:22Z</time>
      </trkpt>
      <trkpt lat="43.00974" lon="1.48873">
        <ele>471.4</ele>
        <time>2024-06-23T09:25:23Z</time>
      </trkpt>
      <trkpt lat="43.00973" lon="1.48879">
        <ele>471.4</ele>
        <time>2024-06-23T09:25:24Z</time>
      </trkpt>
      <trkpt lat="43.00973" lon="1.48886">
        <ele>471.4</ele>
        <time>2024-06-23T09:25:25Z</time>
      </trkpt>
      <trkpt lat="43.00971" lon="1.48892">
        <ele>471.8</ele>
        <time>2024-06-23T09:25:26Z</time>
      </trkpt>
      <trkpt lat="43.0097" lon="1.48899">
        <ele>471.8</ele>
        <time>2024-06-23T09:25:27Z</time>
      </trkpt>
      <trkpt lat="43.00969" lon="1.48906">
        <ele>471.8</ele>
        <time>2024-06-23T09:25:28Z</time>
      </trkpt>
      <trkpt lat="43.00968" lon="1.48913">
        <ele>471.8</ele>
        <time>2024-06-23T09:25:29Z</time>
      </trkpt>
      <trkpt lat="43.00968" lon="1.4892">
        <ele>471.8</ele>
        <time>2024-06-23T09:25:30Z</time>
      </trkpt>
      <trkpt lat="43.00967" lon="1.48927">
        <ele>471.8</ele>
        <time>2024-06-23T09:25:31Z</time>
      </trkpt>
      <trkpt lat="43.00966" lon="1.48934">
        <ele>471.8</ele>
        <time>2024-06-23T09:25:32Z</time>
      </trkpt>
      <trkpt lat="43.00966" lon="1.48941">
        <ele>472.2</ele>
        <time>2024-06-23T09:25:33Z</time>
      </trkpt>
      <trkpt lat="43.00966" lon="1.48949">
        <ele>472.2</ele>
        <time>2024-06-23T09:25:34Z</time>
      </trkpt>
      <trkpt lat="43.00965" lon="1.48956">
        <ele>472.6</ele>
        <time>2024-06-23T09:25:35Z</time>
      </trkpt>
      <trkpt lat="43.00965" lon="1.48963">
        <ele>472.6</ele>
        <time>2024-06-23T09:25:36Z</time>
      </trkpt>
      <trkpt lat="43.00964" lon="1.4897">
        <ele>472.6</ele>
        <time>2024-06-23T09:25:37Z</time>
      </trkpt>
      <trkpt lat="43.00964" lon="1.48977">
        <ele>473</ele>
        <time>2024-06-23T09:25:38Z</time>
      </trkpt>
      <trkpt lat="43.00963" lon="1.48984">
        <ele>473</ele>
        <time>2024-06-23T09:25:39Z</time>
      </trkpt>
      <trkpt lat="43.00963" lon="1.48991">
        <ele>473.2</ele>
        <time>2024-06-23T09:25:40Z</time>
      </trkpt>
      <trkpt lat="43.00962" lon="1.48998">
        <ele>473.2</ele>
        <time>2024-06-23T09:25:41Z</time>
      </trkpt>
      <trkpt lat="43.00961" lon="1.49005">
        <ele>473.4</ele>
        <time>2024-06-23T09:25:42Z</time>
      </trkpt>
      <trkpt lat="43.00962" lon="1.49012">
        <ele>473.4</ele>
        <time>2024-06-23T09:25:43Z</time>
      </trkpt>
      <trkpt lat="43.00961" lon="1.49019">
        <ele>473.4</ele>
        <time>2024-06-23T09:25:44Z</time>
      </trkpt>
      <trkpt lat="43.0096" lon="1.49026">
        <ele>473.4</ele>
        <time>2024-06-23T09:25:45Z</time>
      </trkpt>
      <trkpt lat="43.00959" lon="1.49034">
        <ele>473.8</ele>
        <time>2024-06-23T09:25:46Z</time>
      </trkpt>
      <trkpt lat="43.00959" lon="1.49041">
        <ele>473.8</ele>
        <time>2024-06-23T09:25:47Z</time>
      </trkpt>
      <trkpt lat="43.00959" lon="1.49047">
        <ele>474</ele>
        <time>2024-06-23T09:25:48Z</time>
      </trkpt>
      <trkpt lat="43.00959" lon="1.49054">
        <ele>474</ele>
        <time>2024-06-23T09:25:49Z</time>
      </trkpt>
      <trkpt lat="43.00958" lon="1.49061">
        <ele>473.8</ele>
        <time>2024-06-23T09:25:50Z</time>
      </trkpt>
      <trkpt lat="43.00958" lon="1.49068">
        <ele>473.8</ele>
        <time>2024-06-23T09:25:51Z</time>
      </trkpt>
      <trkpt lat="43.00958" lon="1.49076">
        <ele>473.8</ele>
        <time>2024-06-23T09:25:52Z</time>
      </trkpt>
      <trkpt lat="43.00957" lon="1.49083">
        <ele>473.8</ele>
        <time>2024-06-23T09:25:53Z</time>
      </trkpt>
      <trkpt lat="43.00957" lon="1.4909">
        <ele>473.8</ele>
        <time>2024-06-23T09:25:54Z</time>
      </trkpt>
      <trkpt lat="43.00957" lon="1.49097">
        <ele>474.2</ele>
        <time>2024-06-23T09:25:55Z</time>
      </trkpt>
      <trkpt lat="43.00956" lon="1.49104">
        <ele>474.2</ele>
        <time>2024-06-23T09:25:56Z</time>
      </trkpt>
      <trkpt lat="43.00956" lon="1.49111">
        <ele>474.2</ele>
        <time>2024-06-23T09:25:57Z</time>
      </trkpt>
      <trkpt lat="43.00955" lon="1.49119">
        <ele>474.2</ele>
        <time>2024-06-23T09:25:58Z</time>
      </trkpt>
      <trkpt lat="43.00955" lon="1.49124">
        <ele>474.6</ele>
        <time>2024-06-23T09:25:59Z</time>
      </trkpt>
      <trkpt lat="43.00955" lon="1.49131">
        <ele>474.6</ele>
        <time>2024-06-23T09:26:00Z</time>
      </trkpt>
      <trkpt lat="43.00954" lon="1.49138">
        <ele>474.6</ele>
        <time>2024-06-23T09:26:01Z</time>
      </trkpt>
      <trkpt lat="43.00955" lon="1.49144">
        <ele>474.6</ele>
        <time>2024-06-23T09:26:02Z</time>
      </trkpt>
      <trkpt lat="43.00954" lon="1.49151">
        <ele>474.6</ele>
        <time>2024-06-23T09:26:03Z</time>
      </trkpt>
      <trkpt lat="43.00954" lon="1.49157">
        <ele>475</ele>
        <time>2024-06-23T09:26:04Z</time>
      </trkpt>
      <trkpt lat="43.00954" lon="1.49164">
        <ele>475.4</ele>
        <time>2024-06-23T09:26:05Z</time>
      </trkpt>
      <trkpt lat="43.00953" lon="1.49171">
        <ele>475.4</ele>
        <time>2024-06-23T09:26:06Z</time>
      </trkpt>
      <trkpt lat="43.00954" lon="1.49177">
        <ele>475.4</ele>
        <time>2024-06-23T09:26:07Z</time>
      </trkpt>
      <trkpt lat="43.00953" lon="1.49185">
        <ele>475.6</ele>
        <time>2024-06-23T09:26:08Z</time>
      </trkpt>
      <trkpt lat="43.00953" lon="1.49191">
        <ele>475.6</ele>
        <time>2024-06-23T09:26:09Z</time>
      </trkpt>
      <trkpt lat="43.00952" lon="1.49198">
        <ele>475.6</ele>
        <time>2024-06-23T09:26:10Z</time>
      </trkpt>
      <trkpt lat="43.00951" lon="1.49204">
        <ele>475.4</ele>
        <time>2024-06-23T09:26:11Z</time>
      </trkpt>
      <trkpt lat="43.00951" lon="1.49209">
        <ele>475.4</ele>
        <time>2024-06-23T09:26:12Z</time>
      </trkpt>
      <trkpt lat="43.0095" lon="1.49217">
        <ele>475.4</ele>
        <time>2024-06-23T09:26:13Z</time>
      </trkpt>
      <trkpt lat="43.0095" lon="1.49223">
        <ele>475.6</ele>
        <time>2024-06-23T09:26:14Z</time>
      </trkpt>
      <trkpt lat="43.0095" lon="1.4923">
        <ele>475.6</ele>
        <time>2024-06-23T09:26:15Z</time>
      </trkpt>
      <trkpt lat="43.00949" lon="1.49236">
        <ele>475.4</ele>
        <time>2024-06-23T09:26:16Z</time>
      </trkpt>
      <trkpt lat="43.00948" lon="1.49242">
        <ele>475.6</ele>
        <time>2024-06-23T09:26:17Z</time>
      </trkpt>
      <trkpt lat="43.00948" lon="1.49249">
        <ele>475.6</ele>
        <time>2024-06-23T09:26:18Z</time>
      </trkpt>
      <trkpt lat="43.00949" lon="1.49255">
        <ele>476</ele>
        <time>2024-06-23T09:26:19Z</time>
      </trkpt>
      <trkpt lat="43.00948" lon="1.49262">
        <ele>476</ele>
        <time>2024-06-23T09:26:20Z</time>
      </trkpt>
      <trkpt lat="43.00947" lon="1.4927">
        <ele>476.4</ele>
        <time>2024-06-23T09:26:21Z</time>
      </trkpt>
      <trkpt lat="43.00947" lon="1.49277">
        <ele>476.4</ele>
        <time>2024-06-23T09:26:22Z</time>
      </trkpt>
      <trkpt lat="43.00947" lon="1.49283">
        <ele>476.6</ele>
        <time>2024-06-23T09:26:23Z</time>
      </trkpt>
      <trkpt lat="43.00945" lon="1.49289">
        <ele>476.6</ele>
        <time>2024-06-23T09:26:24Z</time>
      </trkpt>
      <trkpt lat="43.00945" lon="1.49295">
        <ele>476.6</ele>
        <time>2024-06-23T09:26:25Z</time>
      </trkpt>
      <trkpt lat="43.00945" lon="1.49302">
        <ele>476.6</ele>
        <time>2024-06-23T09:26:26Z</time>
      </trkpt>
      <trkpt lat="43.00944" lon="1.49308">
        <ele>477.2</ele>
        <time>2024-06-23T09:26:27Z</time>
      </trkpt>
      <trkpt lat="43.00944" lon="1.49315">
        <ele>477.2</ele>
        <time>2024-06-23T09:26:28Z</time>
      </trkpt>
      <trkpt lat="43.00943" lon="1.49321">
        <ele>477.4</ele>
        <time>2024-06-23T09:26:29Z</time>
      </trkpt>
      <trkpt lat="43.00942" lon="1.49326">
        <ele>477.4</ele>
        <time>2024-06-23T09:26:30Z</time>
      </trkpt>
      <trkpt lat="43.00942" lon="1.49332">
        <ele>477.4</ele>
        <time>2024-06-23T09:26:31Z</time>
      </trkpt>
      <trkpt lat="43.00942" lon="1.49338">
        <ele>477.8</ele>
        <time>2024-06-23T09:26:32Z</time>
      </trkpt>
      <trkpt lat="43.00942" lon="1.49343">
        <ele>477.8</ele>
        <time>2024-06-23T09:26:33Z</time>
      </trkpt>
      <trkpt lat="43.00942" lon="1.49348">
        <ele>477.8</ele>
        <time>2024-06-23T09:26:34Z</time>
      </trkpt>
      <trkpt lat="43.00941" lon="1.49353">
        <ele>477.8</ele>
        <time>2024-06-23T09:26:35Z</time>
      </trkpt>
      <trkpt lat="43.00941" lon="1.49358">
        <ele>477.8</ele>
        <time>2024-06-23T09:26:36Z</time>
      </trkpt>
      <trkpt lat="43.0094" lon="1.49362">
        <ele>477.8</ele>
        <time>2024-06-23T09:26:37Z</time>
      </trkpt>
      <trkpt lat="43.00939" lon="1.49366">
        <ele>478</ele>
        <time>2024-06-23T09:26:38Z</time>
      </trkpt>
      <trkpt lat="43.00938" lon="1.49369">
        <ele>478</ele>
        <time>2024-06-23T09:26:39Z</time>
      </trkpt>
      <trkpt lat="43.00939" lon="1.49371">
        <ele>478</ele>
        <time>2024-06-23T09:26:40Z</time>
      </trkpt>
      <trkpt lat="43.00938" lon="1.49371">
        <ele>478.4</ele>
        <time>2024-06-23T09:26:41Z</time>
      </trkpt>
      <trkpt lat="43.00938" lon="1.49371">
        <ele>478.4</ele>
        <time>2024-06-23T09:26:42Z</time>
      </trkpt>
      <trkpt lat="43.00938" lon="1.49371">
        <ele>478.4</ele>
        <time>2024-06-23T09:26:43Z</time>
      </trkpt>
      <trkpt lat="43.00938" lon="1.49376">
        <ele>478.8</ele>
        <time>2024-06-23T09:31:06Z</time>
      </trkpt>
      <trkpt lat="43.00937" lon="1.49376">
        <ele>478.8</ele>
        <time>2024-06-23T09:31:07Z</time>
      </trkpt>
      <trkpt lat="43.00937" lon="1.49376">
        <ele>478.8</ele>
        <time>2024-06-23T09:31:08Z</time>
      </trkpt>
      <trkpt lat="43.00936" lon="1.49378">
        <ele>479.4</ele>
        <time>2024-06-23T09:32:02Z</time>
      </trkpt>
      <trkpt lat="43.00936" lon="1.4938">
        <ele>479.4</ele>
        <time>2024-06-23T09:32:03Z</time>
      </trkpt>
      <trkpt lat="43.00936" lon="1.49382">
        <ele>479.4</ele>
        <time>2024-06-23T09:32:04Z</time>
      </trkpt>
      <trkpt lat="43.00936" lon="1.49384">
        <ele>479.4</ele>
        <time>2024-06-23T09:32:05Z</time>
      </trkpt>
      <trkpt lat="43.00935" lon="1.49387">
        <ele>479.4</ele>
        <time>2024-06-23T09:32:06Z</time>
      </trkpt>
      <trkpt lat="43.00935" lon="1.49391">
        <ele>479.4</ele>
        <time>2024-06-23T09:32:07Z</time>
      </trkpt>
      <trkpt lat="43.00934" lon="1.49395">
        <ele>479.4</ele>
        <time>2024-06-23T09:32:08Z</time>
      </trkpt>
      <trkpt lat="43.00934" lon="1.49399">
        <ele>479.4</ele>
        <time>2024-06-23T09:32:09Z</time>
      </trkpt>
      <trkpt lat="43.00934" lon="1.49403">
        <ele>479.6</ele>
        <time>2024-06-23T09:32:10Z</time>
      </trkpt>
      <trkpt lat="43.00934" lon="1.49408">
        <ele>479.6</ele>
        <time>2024-06-23T09:32:11Z</time>
      </trkpt>
      <trkpt lat="43.00934" lon="1.49413">
        <ele>479.6</ele>
        <time>2024-06-23T09:32:12Z</time>
      </trkpt>
      <trkpt lat="43.00934" lon="1.49418">
        <ele>479.6</ele>
        <time>2024-06-23T09:32:13Z</time>
      </trkpt>
      <trkpt lat="43.00933" lon="1.49423">
        <ele>479.4</ele>
        <time>2024-06-23T09:32:14Z</time>
      </trkpt>
      <trkpt lat="43.00933" lon="1.49428">
        <ele>479.4</ele>
        <time>2024-06-23T09:32:15Z</time>
      </trkpt>
      <trkpt lat="43.00932" lon="1.49433">
        <ele>479.8</ele>
        <time>2024-06-23T09:32:16Z</time>
      </trkpt>
      <trkpt lat="43.00931" lon="1.49439">
        <ele>479.8</ele>
        <time>2024-06-23T09:32:17Z</time>
      </trkpt>
      <trkpt lat="43.00932" lon="1.49445">
        <ele>479.8</ele>
        <time>2024-06-23T09:32:18Z</time>
      </trkpt>
      <trkpt lat="43.00932" lon="1.49452">
        <ele>479.8</ele>
        <time>2024-06-23T09:32:19Z</time>
      </trkpt>
      <trkpt lat="43.00932" lon="1.49458">
        <ele>479.8</ele>
        <time>2024-06-23T09:32:20Z</time>
      </trkpt>
      <trkpt lat="43.00931" lon="1.49465">
        <ele>479.8</ele>
        <time>2024-06-23T09:32:21Z</time>
      </trkpt>
      <trkpt lat="43.00931" lon="1.49472">
        <ele>480</ele>
        <time>2024-06-23T09:32:22Z</time>
      </trkpt>
      <trkpt lat="43.00931" lon="1.49478">
        <ele>480</ele>
        <time>2024-06-23T09:32:23Z</time>
      </trkpt>
      <trkpt lat="43.00931" lon="1.49485">
        <ele>480</ele>
        <time>2024-06-23T09:32:24Z</time>
      </trkpt>
      <trkpt lat="43.00931" lon="1.49491">
        <ele>480</ele>
        <time>2024-06-23T09:32:25Z</time>
      </trkpt>
      <trkpt lat="43.00931" lon="1.49498">
        <ele>480</ele>
        <time>2024-06-23T09:32:26Z</time>
      </trkpt>
      <trkpt lat="43.00931" lon="1.49504">
        <ele>480.2</ele>
        <time>2024-06-23T09:32:27Z</time>
      </trkpt>
      <trkpt lat="43.00931" lon="1.49511">
        <ele>480.2</ele>
        <time>2024-06-23T09:32:28Z</time>
      </trkpt>
      <trkpt lat="43.0093" lon="1.49518">
        <ele>480.4</ele>
        <time>2024-06-23T09:32:29Z</time>
      </trkpt>
      <trkpt lat="43.0093" lon="1.49524">
        <ele>480.4</ele>
        <time>2024-06-23T09:32:30Z</time>
      </trkpt>
      <trkpt lat="43.0093" lon="1.49531">
        <ele>480.8</ele>
        <time>2024-06-23T09:32:31Z</time>
      </trkpt>
      <trkpt lat="43.0093" lon="1.49537">
        <ele>480.8</ele>
        <time>2024-06-23T09:32:32Z</time>
      </trkpt>
      <trkpt lat="43.0093" lon="1.49543">
        <ele>481.2</ele>
        <time>2024-06-23T09:32:33Z</time>
      </trkpt>
      <trkpt lat="43.0093" lon="1.49549">
        <ele>481.2</ele>
        <time>2024-06-23T09:32:34Z</time>
      </trkpt>
      <trkpt lat="43.0093" lon="1.49556">
        <ele>481.4</ele>
        <time>2024-06-23T09:32:35Z</time>
      </trkpt>
      <trkpt lat="43.0093" lon="1.49562">
        <ele>481.4</ele>
        <time>2024-06-23T09:32:36Z</time>
      </trkpt>
      <trkpt lat="43.00931" lon="1.49567">
        <ele>481.4</ele>
        <time>2024-06-23T09:32:37Z</time>
      </trkpt>
      <trkpt lat="43.0093" lon="1.49574">
        <ele>481.2</ele>
        <time>2024-06-23T09:32:38Z</time>
      </trkpt>
      <trkpt lat="43.00931" lon="1.4958">
        <ele>481.2</ele>
        <time>2024-06-23T09:32:39Z</time>
      </trkpt>
      <trkpt lat="43.00931" lon="1.49587">
        <ele>481.4</ele>
        <time>2024-06-23T09:32:40Z</time>
      </trkpt>
      <trkpt lat="43.0093" lon="1.49594">
        <ele>481.4</ele>
        <time>2024-06-23T09:32:41Z</time>
      </trkpt>
      <trkpt lat="43.00932" lon="1.49598">
        <ele>481.4</ele>
        <time>2024-06-23T09:32:42Z</time>
      </trkpt>
      <trkpt lat="43.00932" lon="1.49606">
        <ele>481.4</ele>
        <time>2024-06-23T09:32:43Z</time>
      </trkpt>
      <trkpt lat="43.00932" lon="1.49613">
        <ele>481.6</ele>
        <time>2024-06-23T09:32:44Z</time>
      </trkpt>
      <trkpt lat="43.00932" lon="1.4962">
        <ele>481.6</ele>
        <time>2024-06-23T09:32:45Z</time>
      </trkpt>
      <trkpt lat="43.00933" lon="1.49627">
        <ele>481.8</ele>
        <time>2024-06-23T09:32:46Z</time>
      </trkpt>
      <trkpt lat="43.00933" lon="1.49633">
        <ele>481.8</ele>
        <time>2024-06-23T09:32:47Z</time>
      </trkpt>
      <trkpt lat="43.00934" lon="1.4964">
        <ele>482.4</ele>
        <time>2024-06-23T09:32:48Z</time>
      </trkpt>
      <trkpt lat="43.00934" lon="1.49647">
        <ele>482.4</ele>
        <time>2024-06-23T09:32:49Z</time>
      </trkpt>
      <trkpt lat="43.00936" lon="1.49653">
        <ele>482.6</ele>
        <time>2024-06-23T09:32:50Z</time>
      </trkpt>
      <trkpt lat="43.00936" lon="1.49661">
        <ele>482.6</ele>
        <time>2024-06-23T09:32:51Z</time>
      </trkpt>
      <trkpt lat="43.00937" lon="1.49667">
        <ele>482.6</ele>
        <time>2024-06-23T09:32:52Z</time>
      </trkpt>
      <trkpt lat="43.00937" lon="1.49674">
        <ele>482.6</ele>
        <time>2024-06-23T09:32:53Z</time>
      </trkpt>
      <trkpt lat="43.00939" lon="1.4968">
        <ele>482.6</ele>
        <time>2024-06-23T09:32:54Z</time>
      </trkpt>
      <trkpt lat="43.00939" lon="1.49686">
        <ele>482.6</ele>
        <time>2024-06-23T09:32:55Z</time>
      </trkpt>
      <trkpt lat="43.0094" lon="1.49692">
        <ele>483.2</ele>
        <time>2024-06-23T09:32:56Z</time>
      </trkpt>
      <trkpt lat="43.00943" lon="1.49698">
        <ele>483.2</ele>
        <time>2024-06-23T09:32:57Z</time>
      </trkpt>
      <trkpt lat="43.00943" lon="1.49705">
        <ele>483.2</ele>
        <time>2024-06-23T09:32:58Z</time>
      </trkpt>
      <trkpt lat="43.00944" lon="1.49711">
        <ele>483.2</ele>
        <time>2024-06-23T09:32:59Z</time>
      </trkpt>
      <trkpt lat="43.00946" lon="1.49717">
        <ele>483.4</ele>
        <time>2024-06-23T09:33:00Z</time>
      </trkpt>
      <trkpt lat="43.00947" lon="1.49722">
        <ele>483.4</ele>
        <time>2024-06-23T09:33:01Z</time>
      </trkpt>
      <trkpt lat="43.0095" lon="1.49735">
        <ele>483.4</ele>
        <time>2024-06-23T09:33:02Z</time>
      </trkpt>
      <trkpt lat="43.00951" lon="1.49742">
        <ele>483.4</ele>
        <time>2024-06-23T09:33:03Z</time>
      </trkpt>
      <trkpt lat="43.00952" lon="1.49748">
        <ele>483.6</ele>
        <time>2024-06-23T09:33:04Z</time>
      </trkpt>
      <trkpt lat="43.00954" lon="1.49755">
        <ele>483.6</ele>
        <time>2024-06-23T09:33:05Z</time>
      </trkpt>
      <trkpt lat="43.00955" lon="1.49761">
        <ele>483.6</ele>
        <time>2024-06-23T09:33:06Z</time>
      </trkpt>
      <trkpt lat="43.00956" lon="1.49767">
        <ele>483.6</ele>
        <time>2024-06-23T09:33:07Z</time>
      </trkpt>
      <trkpt lat="43.00958" lon="1.49772">
        <ele>483.6</ele>
        <time>2024-06-23T09:33:08Z</time>
      </trkpt>
      <trkpt lat="43.00959" lon="1.49778">
        <ele>484.2</ele>
        <time>2024-06-23T09:33:09Z</time>
      </trkpt>
      <trkpt lat="43.00961" lon="1.49785">
        <ele>484.2</ele>
        <time>2024-06-23T09:33:10Z</time>
      </trkpt>
      <trkpt lat="43.00962" lon="1.49791">
        <ele>484.2</ele>
        <time>2024-06-23T09:33:11Z</time>
      </trkpt>
      <trkpt lat="43.00963" lon="1.49797">
        <ele>484.2</ele>
        <time>2024-06-23T09:33:12Z</time>
      </trkpt>
      <trkpt lat="43.00965" lon="1.49803">
        <ele>484.4</ele>
        <time>2024-06-23T09:33:13Z</time>
      </trkpt>
      <trkpt lat="43.00967" lon="1.49809">
        <ele>484.4</ele>
        <time>2024-06-23T09:33:14Z</time>
      </trkpt>
      <trkpt lat="43.00968" lon="1.49815">
        <ele>484.2</ele>
        <time>2024-06-23T09:33:15Z</time>
      </trkpt>
      <trkpt lat="43.0097" lon="1.49822">
        <ele>484.2</ele>
        <time>2024-06-23T09:33:16Z</time>
      </trkpt>
      <trkpt lat="43.00972" lon="1.49828">
        <ele>484.2</ele>
        <time>2024-06-23T09:33:17Z</time>
      </trkpt>
      <trkpt lat="43.00973" lon="1.49834">
        <ele>484.2</ele>
        <time>2024-06-23T09:33:18Z</time>
      </trkpt>
      <trkpt lat="43.00975" lon="1.4984">
        <ele>484.4</ele>
        <time>2024-06-23T09:33:19Z</time>
      </trkpt>
      <trkpt lat="43.00976" lon="1.49846">
        <ele>484.8</ele>
        <time>2024-06-23T09:33:20Z</time>
      </trkpt>
      <trkpt lat="43.00978" lon="1.49853">
        <ele>484.8</ele>
        <time>2024-06-23T09:33:21Z</time>
      </trkpt>
      <trkpt lat="43.00979" lon="1.49859">
        <ele>485</ele>
        <time>2024-06-23T09:33:22Z</time>
      </trkpt>
      <trkpt lat="43.00981" lon="1.49865">
        <ele>485</ele>
        <time>2024-06-23T09:33:23Z</time>
      </trkpt>
      <trkpt lat="43.00983" lon="1.49871">
        <ele>485.2</ele>
        <time>2024-06-23T09:33:24Z</time>
      </trkpt>
      <trkpt lat="43.00985" lon="1.49878">
        <ele>485.2</ele>
        <time>2024-06-23T09:33:25Z</time>
      </trkpt>
      <trkpt lat="43.00986" lon="1.49885">
        <ele>485.2</ele>
        <time>2024-06-23T09:33:26Z</time>
      </trkpt>
      <trkpt lat="43.00988" lon="1.49891">
        <ele>485.2</ele>
        <time>2024-06-23T09:33:27Z</time>
      </trkpt>
      <trkpt lat="43.0099" lon="1.49898">
        <ele>485.2</ele>
        <time>2024-06-23T09:33:28Z</time>
      </trkpt>
      <trkpt lat="43.00991" lon="1.49905">
        <ele>485.4</ele>
        <time>2024-06-23T09:33:29Z</time>
      </trkpt>
      <trkpt lat="43.00992" lon="1.49911">
        <ele>485.4</ele>
        <time>2024-06-23T09:33:30Z</time>
      </trkpt>
      <trkpt lat="43.00994" lon="1.49918">
        <ele>485.4</ele>
        <time>2024-06-23T09:33:31Z</time>
      </trkpt>
      <trkpt lat="43.00996" lon="1.49923">
        <ele>485.4</ele>
        <time>2024-06-23T09:33:32Z</time>
      </trkpt>
      <trkpt lat="43.00996" lon="1.4993">
        <ele>485.4</ele>
        <time>2024-06-23T09:33:33Z</time>
      </trkpt>
      <trkpt lat="43.00997" lon="1.49936">
        <ele>485.8</ele>
        <time>2024-06-23T09:33:34Z</time>
      </trkpt>
      <trkpt lat="43.00999" lon="1.49943">
        <ele>485.8</ele>
        <time>2024-06-23T09:33:35Z</time>
      </trkpt>
      <trkpt lat="43.01001" lon="1.49949">
        <ele>486.2</ele>
        <time>2024-06-23T09:33:36Z</time>
      </trkpt>
      <trkpt lat="43.01002" lon="1.49955">
        <ele>486.2</ele>
        <time>2024-06-23T09:33:37Z</time>
      </trkpt>
      <trkpt lat="43.01003" lon="1.49961">
        <ele>486.2</ele>
        <time>2024-06-23T09:33:38Z</time>
      </trkpt>
      <trkpt lat="43.01004" lon="1.49968">
        <ele>486.2</ele>
        <time>2024-06-23T09:33:39Z</time>
      </trkpt>
      <trkpt lat="43.01006" lon="1.49973">
        <ele>486.2</ele>
        <time>2024-06-23T09:33:40Z</time>
      </trkpt>
      <trkpt lat="43.01007" lon="1.4998">
        <ele>486.2</ele>
        <time>2024-06-23T09:33:41Z</time>
      </trkpt>
      <trkpt lat="43.01008" lon="1.49986">
        <ele>486.4</ele>
        <time>2024-06-23T09:33:42Z</time>
      </trkpt>
      <trkpt lat="43.0101" lon="1.49993">
        <ele>486.4</ele>
        <time>2024-06-23T09:33:43Z</time>
      </trkpt>
      <trkpt lat="43.0101" lon="1.49999">
        <ele>486.8</ele>
        <time>2024-06-23T09:33:44Z</time>
      </trkpt>
      <trkpt lat="43.01011" lon="1.50006">
        <ele>486.8</ele>
        <time>2024-06-23T09:33:45Z</time>
      </trkpt>
      <trkpt lat="43.01012" lon="1.50012">
        <ele>486.8</ele>
        <time>2024-06-23T09:33:46Z</time>
      </trkpt>
      <trkpt lat="43.01012" lon="1.50017">
        <ele>486.8</ele>
        <time>2024-06-23T09:33:47Z</time>
      </trkpt>
      <trkpt lat="43.01013" lon="1.50024">
        <ele>486.8</ele>
        <time>2024-06-23T09:33:48Z</time>
      </trkpt>
      <trkpt lat="43.01014" lon="1.50031">
        <ele>487</ele>
        <time>2024-06-23T09:33:49Z</time>
      </trkpt>
      <trkpt lat="43.01014" lon="1.50037">
        <ele>487</ele>
        <time>2024-06-23T09:33:50Z</time>
      </trkpt>
      <trkpt lat="43.01015" lon="1.50042">
        <ele>487</ele>
        <time>2024-06-23T09:33:51Z</time>
      </trkpt>
      <trkpt lat="43.01015" lon="1.50049">
        <ele>487</ele>
        <time>2024-06-23T09:33:52Z</time>
      </trkpt>
      <trkpt lat="43.01015" lon="1.50055">
        <ele>487.4</ele>
        <time>2024-06-23T09:33:53Z</time>
      </trkpt>
      <trkpt lat="43.01016" lon="1.5006">
        <ele>487.4</ele>
        <time>2024-06-23T09:33:54Z</time>
      </trkpt>
      <trkpt lat="43.01017" lon="1.50067">
        <ele>487.4</ele>
        <time>2024-06-23T09:33:55Z</time>
      </trkpt>
      <trkpt lat="43.01019" lon="1.50073">
        <ele>487.4</ele>
        <time>2024-06-23T09:33:56Z</time>
      </trkpt>
      <trkpt lat="43.01018" lon="1.50078">
        <ele>487.6</ele>
        <time>2024-06-23T09:33:57Z</time>
      </trkpt>
      <trkpt lat="43.01021" lon="1.50083">
        <ele>487.6</ele>
        <time>2024-06-23T09:33:58Z</time>
      </trkpt>
      <trkpt lat="43.01022" lon="1.50087">
        <ele>487.8</ele>
        <time>2024-06-23T09:33:59Z</time>
      </trkpt>
      <trkpt lat="43.01024" lon="1.50091">
        <ele>487.8</ele>
        <time>2024-06-23T09:34:00Z</time>
      </trkpt>
      <trkpt lat="43.01024" lon="1.50095">
        <ele>487.8</ele>
        <time>2024-06-23T09:34:01Z</time>
      </trkpt>
      <trkpt lat="43.01022" lon="1.501">
        <ele>487.6</ele>
        <time>2024-06-23T09:34:02Z</time>
      </trkpt>
      <trkpt lat="43.0102" lon="1.50105">
        <ele>487.6</ele>
        <time>2024-06-23T09:34:03Z</time>
      </trkpt>
      <trkpt lat="43.01019" lon="1.50111">
        <ele>487.6</ele>
        <time>2024-06-23T09:34:04Z</time>
      </trkpt>
      <trkpt lat="43.0102" lon="1.50117">
        <ele>487.6</ele>
        <time>2024-06-23T09:34:05Z</time>
      </trkpt>
      <trkpt lat="43.0102" lon="1.50124">
        <ele>487.6</ele>
        <time>2024-06-23T09:34:06Z</time>
      </trkpt>
      <trkpt lat="43.0102" lon="1.5013">
        <ele>488.2</ele>
        <time>2024-06-23T09:34:07Z</time>
      </trkpt>
      <trkpt lat="43.01021" lon="1.50137">
        <ele>488.2</ele>
        <time>2024-06-23T09:34:08Z</time>
      </trkpt>
      <trkpt lat="43.01021" lon="1.50143">
        <ele>488</ele>
        <time>2024-06-23T09:34:09Z</time>
      </trkpt>
      <trkpt lat="43.01022" lon="1.50151">
        <ele>488</ele>
        <time>2024-06-23T09:34:10Z</time>
      </trkpt>
      <trkpt lat="43.01021" lon="1.50158">
        <ele>488</ele>
        <time>2024-06-23T09:34:11Z</time>
      </trkpt>
      <trkpt lat="43.01021" lon="1.50166">
        <ele>488</ele>
        <time>2024-06-23T09:34:12Z</time>
      </trkpt>
      <trkpt lat="43.01022" lon="1.50173">
        <ele>488</ele>
        <time>2024-06-23T09:34:13Z</time>
      </trkpt>
      <trkpt lat="43.01022" lon="1.5018">
        <ele>488.2</ele>
        <time>2024-06-23T09:34:14Z</time>
      </trkpt>
      <trkpt lat="43.01022" lon="1.50188">
        <ele>487.8</ele>
        <time>2024-06-23T09:34:15Z</time>
      </trkpt>
      <trkpt lat="43.01022" lon="1.50195">
        <ele>487.8</ele>
        <time>2024-06-23T09:34:16Z</time>
      </trkpt>
      <trkpt lat="43.01022" lon="1.50202">
        <ele>487.2</ele>
        <time>2024-06-23T09:34:17Z</time>
      </trkpt>
      <trkpt lat="43.01022" lon="1.50209">
        <ele>487.2</ele>
        <time>2024-06-23T09:34:18Z</time>
      </trkpt>
      <trkpt lat="43.01022" lon="1.50217">
        <ele>487.8</ele>
        <time>2024-06-23T09:34:19Z</time>
      </trkpt>
      <trkpt lat="43.01023" lon="1.50224">
        <ele>487.8</ele>
        <time>2024-06-23T09:34:20Z</time>
      </trkpt>
      <trkpt lat="43.01023" lon="1.50231">
        <ele>487.6</ele>
        <time>2024-06-23T09:34:21Z</time>
      </trkpt>
      <trkpt lat="43.01023" lon="1.50239">
        <ele>488</ele>
        <time>2024-06-23T09:34:22Z</time>
      </trkpt>
      <trkpt lat="43.01023" lon="1.50246">
        <ele>487.4</ele>
        <time>2024-06-23T09:34:23Z</time>
      </trkpt>
      <trkpt lat="43.01023" lon="1.50253">
        <ele>487.8</ele>
        <time>2024-06-23T09:34:24Z</time>
      </trkpt>
      <trkpt lat="43.01023" lon="1.50261">
        <ele>487.8</ele>
        <time>2024-06-23T09:34:25Z</time>
      </trkpt>
      <trkpt lat="43.01023" lon="1.50268">
        <ele>487.8</ele>
        <time>2024-06-23T09:34:26Z</time>
      </trkpt>
      <trkpt lat="43.01023" lon="1.50276">
        <ele>487.8</ele>
        <time>2024-06-23T09:34:27Z</time>
      </trkpt>
      <trkpt lat="43.01023" lon="1.50283">
        <ele>487.8</ele>
        <time>2024-06-23T09:34:28Z</time>
      </trkpt>
      <trkpt lat="43.01023" lon="1.5029">
        <ele>487.8</ele>
        <time>2024-06-23T09:34:29Z</time>
      </trkpt>
      <trkpt lat="43.01023" lon="1.50297">
        <ele>487.4</ele>
        <time>2024-06-23T09:34:30Z</time>
      </trkpt>
      <trkpt lat="43.01023" lon="1.50304">
        <ele>487.2</ele>
        <time>2024-06-23T09:34:31Z</time>
      </trkpt>
      <trkpt lat="43.01023" lon="1.50312">
        <ele>487.6</ele>
        <time>2024-06-23T09:34:32Z</time>
      </trkpt>
      <trkpt lat="43.01023" lon="1.50319">
        <ele>488</ele>
        <time>2024-06-23T09:34:33Z</time>
      </trkpt>
      <trkpt lat="43.01023" lon="1.50327">
        <ele>488.2</ele>
        <time>2024-06-23T09:34:34Z</time>
      </trkpt>
      <trkpt lat="43.01024" lon="1.50334">
        <ele>487.8</ele>
        <time>2024-06-23T09:34:35Z</time>
      </trkpt>
      <trkpt lat="43.01024" lon="1.50341">
        <ele>487.8</ele>
        <time>2024-06-23T09:34:36Z</time>
      </trkpt>
      <trkpt lat="43.01024" lon="1.50349">
        <ele>487.8</ele>
        <time>2024-06-23T09:34:37Z</time>
      </trkpt>
      <trkpt lat="43.01025" lon="1.50356">
        <ele>487.8</ele>
        <time>2024-06-23T09:34:38Z</time>
      </trkpt>
      <trkpt lat="43.01026" lon="1.50363">
        <ele>487.4</ele>
        <time>2024-06-23T09:34:39Z</time>
      </trkpt>
      <trkpt lat="43.01025" lon="1.50371">
        <ele>487</ele>
        <time>2024-06-23T09:34:40Z</time>
      </trkpt>
      <trkpt lat="43.01027" lon="1.50378">
        <ele>486.6</ele>
        <time>2024-06-23T09:34:41Z</time>
      </trkpt>
      <trkpt lat="43.01027" lon="1.50386">
        <ele>486.6</ele>
        <time>2024-06-23T09:34:42Z</time>
      </trkpt>
      <trkpt lat="43.01027" lon="1.50393">
        <ele>486.6</ele>
        <time>2024-06-23T09:34:43Z</time>
      </trkpt>
      <trkpt lat="43.01028" lon="1.504">
        <ele>487.2</ele>
        <time>2024-06-23T09:34:44Z</time>
      </trkpt>
      <trkpt lat="43.01028" lon="1.50407">
        <ele>487.4</ele>
        <time>2024-06-23T09:34:45Z</time>
      </trkpt>
      <trkpt lat="43.01029" lon="1.50414">
        <ele>487.8</ele>
        <time>2024-06-23T09:34:46Z</time>
      </trkpt>
      <trkpt lat="43.01029" lon="1.50421">
        <ele>487.8</ele>
        <time>2024-06-23T09:34:47Z</time>
      </trkpt>
      <trkpt lat="43.0103" lon="1.50429">
        <ele>487.8</ele>
        <time>2024-06-23T09:34:48Z</time>
      </trkpt>
      <trkpt lat="43.01031" lon="1.50436">
        <ele>487.8</ele>
        <time>2024-06-23T09:34:49Z</time>
      </trkpt>
      <trkpt lat="43.01032" lon="1.50443">
        <ele>487.8</ele>
        <time>2024-06-23T09:34:50Z</time>
      </trkpt>
      <trkpt lat="43.01032" lon="1.50451">
        <ele>487.8</ele>
        <time>2024-06-23T09:34:51Z</time>
      </trkpt>
      <trkpt lat="43.01032" lon="1.50457">
        <ele>487.4</ele>
        <time>2024-06-23T09:34:52Z</time>
      </trkpt>
      <trkpt lat="43.01034" lon="1.50464">
        <ele>487.6</ele>
        <time>2024-06-23T09:34:53Z</time>
      </trkpt>
      <trkpt lat="43.01035" lon="1.5047">
        <ele>487.6</ele>
        <time>2024-06-23T09:34:54Z</time>
      </trkpt>
      <trkpt lat="43.01035" lon="1.50478">
        <ele>487.6</ele>
        <time>2024-06-23T09:34:55Z</time>
      </trkpt>
      <trkpt lat="43.01035" lon="1.50485">
        <ele>487.6</ele>
        <time>2024-06-23T09:34:56Z</time>
      </trkpt>
      <trkpt lat="43.01037" lon="1.50492">
        <ele>487.6</ele>
        <time>2024-06-23T09:34:57Z</time>
      </trkpt>
      <trkpt lat="43.01038" lon="1.50499">
        <ele>487.6</ele>
        <time>2024-06-23T09:34:58Z</time>
      </trkpt>
      <trkpt lat="43.01039" lon="1.50505">
        <ele>487.6</ele>
        <time>2024-06-23T09:34:59Z</time>
      </trkpt>
      <trkpt lat="43.01041" lon="1.50512">
        <ele>488</ele>
        <time>2024-06-23T09:35:00Z</time>
      </trkpt>
      <trkpt lat="43.01042" lon="1.50518">
        <ele>488</ele>
        <time>2024-06-23T09:35:01Z</time>
      </trkpt>
      <trkpt lat="43.01044" lon="1.50525">
        <ele>488</ele>
        <time>2024-06-23T09:35:02Z</time>
      </trkpt>
      <trkpt lat="43.01045" lon="1.50532">
        <ele>488</ele>
        <time>2024-06-23T09:35:03Z</time>
      </trkpt>
      <trkpt lat="43.01046" lon="1.50538">
        <ele>488</ele>
        <time>2024-06-23T09:35:04Z</time>
      </trkpt>
      <trkpt lat="43.01048" lon="1.50544">
        <ele>488</ele>
        <time>2024-06-23T09:35:05Z</time>
      </trkpt>
      <trkpt lat="43.0105" lon="1.5055">
        <ele>488</ele>
        <time>2024-06-23T09:35:06Z</time>
      </trkpt>
      <trkpt lat="43.01052" lon="1.50556">
        <ele>488.2</ele>
        <time>2024-06-23T09:35:07Z</time>
      </trkpt>
      <trkpt lat="43.01053" lon="1.50564">
        <ele>488.6</ele>
        <time>2024-06-23T09:35:08Z</time>
      </trkpt>
      <trkpt lat="43.01055" lon="1.50571">
        <ele>488.8</ele>
        <time>2024-06-23T09:35:09Z</time>
      </trkpt>
      <trkpt lat="43.01056" lon="1.50577">
        <ele>488.8</ele>
        <time>2024-06-23T09:35:10Z</time>
      </trkpt>
      <trkpt lat="43.01059" lon="1.50583">
        <ele>488.8</ele>
        <time>2024-06-23T09:35:11Z</time>
      </trkpt>
      <trkpt lat="43.0106" lon="1.50591">
        <ele>488.8</ele>
        <time>2024-06-23T09:35:12Z</time>
      </trkpt>
      <trkpt lat="43.01063" lon="1.50598">
        <ele>488.8</ele>
        <time>2024-06-23T09:35:13Z</time>
      </trkpt>
      <trkpt lat="43.01065" lon="1.50605">
        <ele>488.8</ele>
        <time>2024-06-23T09:35:14Z</time>
      </trkpt>
      <trkpt lat="43.01068" lon="1.50612">
        <ele>488.8</ele>
        <time>2024-06-23T09:35:15Z</time>
      </trkpt>
      <trkpt lat="43.0107" lon="1.50619">
        <ele>488.8</ele>
        <time>2024-06-23T09:35:16Z</time>
      </trkpt>
      <trkpt lat="43.01071" lon="1.50626">
        <ele>488.8</ele>
        <time>2024-06-23T09:35:17Z</time>
      </trkpt>
      <trkpt lat="43.01073" lon="1.50633">
        <ele>489.4</ele>
        <time>2024-06-23T09:35:18Z</time>
      </trkpt>
      <trkpt lat="43.01075" lon="1.50639">
        <ele>489.4</ele>
        <time>2024-06-23T09:35:19Z</time>
      </trkpt>
      <trkpt lat="43.01077" lon="1.50646">
        <ele>489.4</ele>
        <time>2024-06-23T09:35:20Z</time>
      </trkpt>
      <trkpt lat="43.01079" lon="1.50652">
        <ele>489.2</ele>
        <time>2024-06-23T09:35:21Z</time>
      </trkpt>
      <trkpt lat="43.01081" lon="1.50659">
        <ele>489.2</ele>
        <time>2024-06-23T09:35:22Z</time>
      </trkpt>
      <trkpt lat="43.01083" lon="1.50665">
        <ele>489.4</ele>
        <time>2024-06-23T09:35:23Z</time>
      </trkpt>
      <trkpt lat="43.01085" lon="1.50672">
        <ele>489.4</ele>
        <time>2024-06-23T09:35:24Z</time>
      </trkpt>
      <trkpt lat="43.01087" lon="1.50678">
        <ele>489.8</ele>
        <time>2024-06-23T09:35:25Z</time>
      </trkpt>
      <trkpt lat="43.01089" lon="1.50685">
        <ele>490</ele>
        <time>2024-06-23T09:35:26Z</time>
      </trkpt>
      <trkpt lat="43.01091" lon="1.50691">
        <ele>490.2</ele>
        <time>2024-06-23T09:35:27Z</time>
      </trkpt>
      <trkpt lat="43.01093" lon="1.50697">
        <ele>490.2</ele>
        <time>2024-06-23T09:35:28Z</time>
      </trkpt>
      <trkpt lat="43.01095" lon="1.50704">
        <ele>490.2</ele>
        <time>2024-06-23T09:35:29Z</time>
      </trkpt>
      <trkpt lat="43.01097" lon="1.50711">
        <ele>490.8</ele>
        <time>2024-06-23T09:35:30Z</time>
      </trkpt>
      <trkpt lat="43.011" lon="1.50717">
        <ele>490.8</ele>
        <time>2024-06-23T09:35:31Z</time>
      </trkpt>
      <trkpt lat="43.01102" lon="1.50723">
        <ele>490.8</ele>
        <time>2024-06-23T09:35:32Z</time>
      </trkpt>
      <trkpt lat="43.01104" lon="1.5073">
        <ele>490.2</ele>
        <time>2024-06-23T09:35:33Z</time>
      </trkpt>
      <trkpt lat="43.01106" lon="1.50737">
        <ele>490.4</ele>
        <time>2024-06-23T09:35:34Z</time>
      </trkpt>
      <trkpt lat="43.01108" lon="1.50744">
        <ele>490.4</ele>
        <time>2024-06-23T09:35:35Z</time>
      </trkpt>
      <trkpt lat="43.0111" lon="1.50751">
        <ele>490.4</ele>
        <time>2024-06-23T09:35:36Z</time>
      </trkpt>
      <trkpt lat="43.01112" lon="1.50757">
        <ele>490.4</ele>
        <time>2024-06-23T09:35:37Z</time>
      </trkpt>
      <trkpt lat="43.01114" lon="1.50764">
        <ele>490.8</ele>
        <time>2024-06-23T09:35:38Z</time>
      </trkpt>
      <trkpt lat="43.01117" lon="1.50772">
        <ele>490.8</ele>
        <time>2024-06-23T09:35:39Z</time>
      </trkpt>
      <trkpt lat="43.01119" lon="1.50779">
        <ele>490.8</ele>
        <time>2024-06-23T09:35:40Z</time>
      </trkpt>
      <trkpt lat="43.01121" lon="1.50785">
        <ele>491</ele>
        <time>2024-06-23T09:35:41Z</time>
      </trkpt>
      <trkpt lat="43.01124" lon="1.50792">
        <ele>491</ele>
        <time>2024-06-23T09:35:42Z</time>
      </trkpt>
      <trkpt lat="43.01126" lon="1.50798">
        <ele>491</ele>
        <time>2024-06-23T09:35:43Z</time>
      </trkpt>
      <trkpt lat="43.01128" lon="1.50805">
        <ele>491.2</ele>
        <time>2024-06-23T09:35:44Z</time>
      </trkpt>
      <trkpt lat="43.0113" lon="1.50812">
        <ele>491.2</ele>
        <time>2024-06-23T09:35:45Z</time>
      </trkpt>
      <trkpt lat="43.01132" lon="1.50819">
        <ele>491.2</ele>
        <time>2024-06-23T09:35:46Z</time>
      </trkpt>
      <trkpt lat="43.01133" lon="1.50825">
        <ele>491.2</ele>
        <time>2024-06-23T09:35:47Z</time>
      </trkpt>
      <trkpt lat="43.01136" lon="1.50831">
        <ele>491.2</ele>
        <time>2024-06-23T09:35:48Z</time>
      </trkpt>
      <trkpt lat="43.01137" lon="1.50837">
        <ele>491.2</ele>
        <time>2024-06-23T09:35:49Z</time>
      </trkpt>
      <trkpt lat="43.01139" lon="1.50842">
        <ele>491.6</ele>
        <time>2024-06-23T09:35:50Z</time>
      </trkpt>
      <trkpt lat="43.0114" lon="1.50849">
        <ele>491.6</ele>
        <time>2024-06-23T09:35:51Z</time>
      </trkpt>
      <trkpt lat="43.01141" lon="1.50856">
        <ele>491.8</ele>
        <time>2024-06-23T09:35:52Z</time>
      </trkpt>
      <trkpt lat="43.01144" lon="1.50863">
        <ele>491.8</ele>
        <time>2024-06-23T09:35:53Z</time>
      </trkpt>
      <trkpt lat="43.01146" lon="1.5087">
        <ele>491.6</ele>
        <time>2024-06-23T09:35:54Z</time>
      </trkpt>
      <trkpt lat="43.01147" lon="1.50876">
        <ele>492</ele>
        <time>2024-06-23T09:35:55Z</time>
      </trkpt>
      <trkpt lat="43.01147" lon="1.50884">
        <ele>492</ele>
        <time>2024-06-23T09:35:56Z</time>
      </trkpt>
      <trkpt lat="43.0115" lon="1.50889">
        <ele>492</ele>
        <time>2024-06-23T09:35:57Z</time>
      </trkpt>
      <trkpt lat="43.01151" lon="1.50897">
        <ele>492</ele>
        <time>2024-06-23T09:35:58Z</time>
      </trkpt>
      <trkpt lat="43.01152" lon="1.509">
        <ele>492</ele>
        <time>2024-06-23T09:35:59Z</time>
      </trkpt>
      <trkpt lat="43.01153" lon="1.50904">
        <ele>492.4</ele>
        <time>2024-06-23T09:36:00Z</time>
      </trkpt>
      <trkpt lat="43.01154" lon="1.50911">
        <ele>492.4</ele>
        <time>2024-06-23T09:36:01Z</time>
      </trkpt>
      <trkpt lat="43.01156" lon="1.50917">
        <ele>492.4</ele>
        <time>2024-06-23T09:36:02Z</time>
      </trkpt>
      <trkpt lat="43.01158" lon="1.50923">
        <ele>492.4</ele>
        <time>2024-06-23T09:36:03Z</time>
      </trkpt>
      <trkpt lat="43.01158" lon="1.50929">
        <ele>492.4</ele>
        <time>2024-06-23T09:36:04Z</time>
      </trkpt>
      <trkpt lat="43.0116" lon="1.50935">
        <ele>492.8</ele>
        <time>2024-06-23T09:36:05Z</time>
      </trkpt>
      <trkpt lat="43.01161" lon="1.50941">
        <ele>492.8</ele>
        <time>2024-06-23T09:36:06Z</time>
      </trkpt>
      <trkpt lat="43.01162" lon="1.50948">
        <ele>492.8</ele>
        <time>2024-06-23T09:36:07Z</time>
      </trkpt>
      <trkpt lat="43.01163" lon="1.50955">
        <ele>492.8</ele>
        <time>2024-06-23T09:36:08Z</time>
      </trkpt>
      <trkpt lat="43.01164" lon="1.50961">
        <ele>493</ele>
        <time>2024-06-23T09:36:09Z</time>
      </trkpt>
      <trkpt lat="43.01165" lon="1.50967">
        <ele>493.4</ele>
        <time>2024-06-23T09:36:10Z</time>
      </trkpt>
      <trkpt lat="43.01166" lon="1.50974">
        <ele>493.6</ele>
        <time>2024-06-23T09:36:11Z</time>
      </trkpt>
      <trkpt lat="43.01167" lon="1.5098">
        <ele>493.6</ele>
        <time>2024-06-23T09:36:12Z</time>
      </trkpt>
      <trkpt lat="43.01167" lon="1.50987">
        <ele>493.6</ele>
        <time>2024-06-23T09:36:13Z</time>
      </trkpt>
      <trkpt lat="43.01168" lon="1.50994">
        <ele>493.6</ele>
        <time>2024-06-23T09:36:14Z</time>
      </trkpt>
      <trkpt lat="43.01169" lon="1.51001">
        <ele>493.6</ele>
        <time>2024-06-23T09:36:15Z</time>
      </trkpt>
      <trkpt lat="43.01169" lon="1.51008">
        <ele>494</ele>
        <time>2024-06-23T09:36:16Z</time>
      </trkpt>
      <trkpt lat="43.01169" lon="1.51015">
        <ele>494</ele>
        <time>2024-06-23T09:36:17Z</time>
      </trkpt>
      <trkpt lat="43.0117" lon="1.51022">
        <ele>494.2</ele>
        <time>2024-06-23T09:36:18Z</time>
      </trkpt>
      <trkpt lat="43.01171" lon="1.51029">
        <ele>494.2</ele>
        <time>2024-06-23T09:36:19Z</time>
      </trkpt>
      <trkpt lat="43.01171" lon="1.51036">
        <ele>494.2</ele>
        <time>2024-06-23T09:36:20Z</time>
      </trkpt>
      <trkpt lat="43.01171" lon="1.51043">
        <ele>493.8</ele>
        <time>2024-06-23T09:36:21Z</time>
      </trkpt>
      <trkpt lat="43.01172" lon="1.5105">
        <ele>493.8</ele>
        <time>2024-06-23T09:36:22Z</time>
      </trkpt>
      <trkpt lat="43.01172" lon="1.51057">
        <ele>494</ele>
        <time>2024-06-23T09:36:23Z</time>
      </trkpt>
      <trkpt lat="43.01173" lon="1.51064">
        <ele>494.4</ele>
        <time>2024-06-23T09:36:24Z</time>
      </trkpt>
      <trkpt lat="43.01173" lon="1.51071">
        <ele>494.8</ele>
        <time>2024-06-23T09:36:25Z</time>
      </trkpt>
      <trkpt lat="43.01172" lon="1.51078">
        <ele>494.8</ele>
        <time>2024-06-23T09:36:26Z</time>
      </trkpt>
      <trkpt lat="43.01172" lon="1.51085">
        <ele>495</ele>
        <time>2024-06-23T09:36:27Z</time>
      </trkpt>
      <trkpt lat="43.01172" lon="1.51092">
        <ele>495</ele>
        <time>2024-06-23T09:36:28Z</time>
      </trkpt>
      <trkpt lat="43.01172" lon="1.51099">
        <ele>495</ele>
        <time>2024-06-23T09:36:29Z</time>
      </trkpt>
      <trkpt lat="43.01172" lon="1.51106">
        <ele>495</ele>
        <time>2024-06-23T09:36:30Z</time>
      </trkpt>
      <trkpt lat="43.01172" lon="1.51113">
        <ele>495</ele>
        <time>2024-06-23T09:36:31Z</time>
      </trkpt>
      <trkpt lat="43.01171" lon="1.51121">
        <ele>495</ele>
        <time>2024-06-23T09:36:32Z</time>
      </trkpt>
      <trkpt lat="43.01171" lon="1.51128">
        <ele>495</ele>
        <time>2024-06-23T09:36:33Z</time>
      </trkpt>
      <trkpt lat="43.01171" lon="1.51136">
        <ele>495</ele>
        <time>2024-06-23T09:36:34Z</time>
      </trkpt>
      <trkpt lat="43.0117" lon="1.51143">
        <ele>495</ele>
        <time>2024-06-23T09:36:35Z</time>
      </trkpt>
      <trkpt lat="43.01169" lon="1.5115">
        <ele>495</ele>
        <time>2024-06-23T09:36:36Z</time>
      </trkpt>
      <trkpt lat="43.01169" lon="1.51157">
        <ele>495.4</ele>
        <time>2024-06-23T09:36:37Z</time>
      </trkpt>
      <trkpt lat="43.01168" lon="1.51164">
        <ele>495.4</ele>
        <time>2024-06-23T09:36:38Z</time>
      </trkpt>
      <trkpt lat="43.01168" lon="1.51171">
        <ele>495.4</ele>
        <time>2024-06-23T09:36:39Z</time>
      </trkpt>
      <trkpt lat="43.01168" lon="1.51178">
        <ele>495.6</ele>
        <time>2024-06-23T09:36:40Z</time>
      </trkpt>
      <trkpt lat="43.01167" lon="1.51185">
        <ele>496</ele>
        <time>2024-06-23T09:36:41Z</time>
      </trkpt>
      <trkpt lat="43.01166" lon="1.51192">
        <ele>496</ele>
        <time>2024-06-23T09:36:42Z</time>
      </trkpt>
      <trkpt lat="43.01165" lon="1.51199">
        <ele>496</ele>
        <time>2024-06-23T09:36:43Z</time>
      </trkpt>
      <trkpt lat="43.01164" lon="1.51205">
        <ele>496</ele>
        <time>2024-06-23T09:36:44Z</time>
      </trkpt>
      <trkpt lat="43.01163" lon="1.51213">
        <ele>496.4</ele>
        <time>2024-06-23T09:36:45Z</time>
      </trkpt>
      <trkpt lat="43.01162" lon="1.5122">
        <ele>496.4</ele>
        <time>2024-06-23T09:36:46Z</time>
      </trkpt>
      <trkpt lat="43.01161" lon="1.51227">
        <ele>496.4</ele>
        <time>2024-06-23T09:36:47Z</time>
      </trkpt>
      <trkpt lat="43.0116" lon="1.51234">
        <ele>496</ele>
        <time>2024-06-23T09:36:48Z</time>
      </trkpt>
      <trkpt lat="43.01159" lon="1.5124">
        <ele>496</ele>
        <time>2024-06-23T09:36:49Z</time>
      </trkpt>
      <trkpt lat="43.01158" lon="1.51247">
        <ele>496.2</ele>
        <time>2024-06-23T09:36:50Z</time>
      </trkpt>
      <trkpt lat="43.01157" lon="1.51254">
        <ele>496.2</ele>
        <time>2024-06-23T09:36:51Z</time>
      </trkpt>
      <trkpt lat="43.01156" lon="1.5126">
        <ele>496.6</ele>
        <time>2024-06-23T09:36:52Z</time>
      </trkpt>
      <trkpt lat="43.01155" lon="1.51267">
        <ele>496.6</ele>
        <time>2024-06-23T09:36:53Z</time>
      </trkpt>
      <trkpt lat="43.01154" lon="1.51274">
        <ele>496.6</ele>
        <time>2024-06-23T09:36:54Z</time>
      </trkpt>
      <trkpt lat="43.01153" lon="1.5128">
        <ele>496.6</ele>
        <time>2024-06-23T09:36:55Z</time>
      </trkpt>
      <trkpt lat="43.01152" lon="1.51287">
        <ele>496.6</ele>
        <time>2024-06-23T09:36:56Z</time>
      </trkpt>
      <trkpt lat="43.01151" lon="1.51294">
        <ele>496.8</ele>
        <time>2024-06-23T09:36:57Z</time>
      </trkpt>
      <trkpt lat="43.01149" lon="1.513">
        <ele>496.8</ele>
        <time>2024-06-23T09:36:58Z</time>
      </trkpt>
      <trkpt lat="43.01148" lon="1.51307">
        <ele>496.8</ele>
        <time>2024-06-23T09:36:59Z</time>
      </trkpt>
      <trkpt lat="43.01147" lon="1.51314">
        <ele>497</ele>
        <time>2024-06-23T09:37:00Z</time>
      </trkpt>
      <trkpt lat="43.01147" lon="1.51321">
        <ele>497</ele>
        <time>2024-06-23T09:37:01Z</time>
      </trkpt>
      <trkpt lat="43.01146" lon="1.51328">
        <ele>497.4</ele>
        <time>2024-06-23T09:37:02Z</time>
      </trkpt>
      <trkpt lat="43.01145" lon="1.51334">
        <ele>497.8</ele>
        <time>2024-06-23T09:37:03Z</time>
      </trkpt>
      <trkpt lat="43.01144" lon="1.5134">
        <ele>497.8</ele>
        <time>2024-06-23T09:37:04Z</time>
      </trkpt>
      <trkpt lat="43.01143" lon="1.51346">
        <ele>497.4</ele>
        <time>2024-06-23T09:37:05Z</time>
      </trkpt>
      <trkpt lat="43.01142" lon="1.51352">
        <ele>497.4</ele>
        <time>2024-06-23T09:37:06Z</time>
      </trkpt>
      <trkpt lat="43.01141" lon="1.51357">
        <ele>497.4</ele>
        <time>2024-06-23T09:37:07Z</time>
      </trkpt>
      <trkpt lat="43.01139" lon="1.51363">
        <ele>497.8</ele>
        <time>2024-06-23T09:37:08Z</time>
      </trkpt>
      <trkpt lat="43.01139" lon="1.51367">
        <ele>497.8</ele>
        <time>2024-06-23T09:37:09Z</time>
      </trkpt>
      <trkpt lat="43.01138" lon="1.51372">
        <ele>497.8</ele>
        <time>2024-06-23T09:37:10Z</time>
      </trkpt>
      <trkpt lat="43.01137" lon="1.51381">
        <ele>497.8</ele>
        <time>2024-06-23T09:37:11Z</time>
      </trkpt>
      <trkpt lat="43.01136" lon="1.51386">
        <ele>498.2</ele>
        <time>2024-06-23T09:37:12Z</time>
      </trkpt>
      <trkpt lat="43.01135" lon="1.51391">
        <ele>498.6</ele>
        <time>2024-06-23T09:37:13Z</time>
      </trkpt>
      <trkpt lat="43.01134" lon="1.51397">
        <ele>498.6</ele>
        <time>2024-06-23T09:37:14Z</time>
      </trkpt>
      <trkpt lat="43.01133" lon="1.51402">
        <ele>498.2</ele>
        <time>2024-06-23T09:37:15Z</time>
      </trkpt>
      <trkpt lat="43.01132" lon="1.51407">
        <ele>498.2</ele>
        <time>2024-06-23T09:37:16Z</time>
      </trkpt>
      <trkpt lat="43.01131" lon="1.51412">
        <ele>498.6</ele>
        <time>2024-06-23T09:37:17Z</time>
      </trkpt>
      <trkpt lat="43.0113" lon="1.51418">
        <ele>498.6</ele>
        <time>2024-06-23T09:37:18Z</time>
      </trkpt>
      <trkpt lat="43.01129" lon="1.51423">
        <ele>498.6</ele>
        <time>2024-06-23T09:37:19Z</time>
      </trkpt>
      <trkpt lat="43.01129" lon="1.5143">
        <ele>498.6</ele>
        <time>2024-06-23T09:37:20Z</time>
      </trkpt>
      <trkpt lat="43.01128" lon="1.51436">
        <ele>498.2</ele>
        <time>2024-06-23T09:37:21Z</time>
      </trkpt>
      <trkpt lat="43.01127" lon="1.51442">
        <ele>498.2</ele>
        <time>2024-06-23T09:37:22Z</time>
      </trkpt>
      <trkpt lat="43.01126" lon="1.51449">
        <ele>498.2</ele>
        <time>2024-06-23T09:37:23Z</time>
      </trkpt>
      <trkpt lat="43.01125" lon="1.51455">
        <ele>498.4</ele>
        <time>2024-06-23T09:37:24Z</time>
      </trkpt>
      <trkpt lat="43.01124" lon="1.51461">
        <ele>498.4</ele>
        <time>2024-06-23T09:37:25Z</time>
      </trkpt>
      <trkpt lat="43.01123" lon="1.51468">
        <ele>498.4</ele>
        <time>2024-06-23T09:37:26Z</time>
      </trkpt>
      <trkpt lat="43.01121" lon="1.51475">
        <ele>498.4</ele>
        <time>2024-06-23T09:37:27Z</time>
      </trkpt>
      <trkpt lat="43.01121" lon="1.51481">
        <ele>499</ele>
        <time>2024-06-23T09:37:28Z</time>
      </trkpt>
      <trkpt lat="43.01119" lon="1.51487">
        <ele>499.2</ele>
        <time>2024-06-23T09:37:29Z</time>
      </trkpt>
      <trkpt lat="43.01117" lon="1.51494">
        <ele>499</ele>
        <time>2024-06-23T09:37:30Z</time>
      </trkpt>
      <trkpt lat="43.01116" lon="1.515">
        <ele>499</ele>
        <time>2024-06-23T09:37:31Z</time>
      </trkpt>
      <trkpt lat="43.01115" lon="1.51506">
        <ele>499</ele>
        <time>2024-06-23T09:37:32Z</time>
      </trkpt>
      <trkpt lat="43.01114" lon="1.51513">
        <ele>499</ele>
        <time>2024-06-23T09:37:33Z</time>
      </trkpt>
      <trkpt lat="43.01113" lon="1.51519">
        <ele>499</ele>
        <time>2024-06-23T09:37:34Z</time>
      </trkpt>
      <trkpt lat="43.01112" lon="1.51525">
        <ele>499.6</ele>
        <time>2024-06-23T09:37:35Z</time>
      </trkpt>
      <trkpt lat="43.01111" lon="1.51532">
        <ele>499.2</ele>
        <time>2024-06-23T09:37:36Z</time>
      </trkpt>
      <trkpt lat="43.01109" lon="1.51539">
        <ele>499.2</ele>
        <time>2024-06-23T09:37:37Z</time>
      </trkpt>
      <trkpt lat="43.01108" lon="1.51545">
        <ele>499.6</ele>
        <time>2024-06-23T09:37:38Z</time>
      </trkpt>
      <trkpt lat="43.01107" lon="1.51551">
        <ele>500</ele>
        <time>2024-06-23T09:37:39Z</time>
      </trkpt>
      <trkpt lat="43.01106" lon="1.51557">
        <ele>500</ele>
        <time>2024-06-23T09:37:40Z</time>
      </trkpt>
      <trkpt lat="43.01105" lon="1.51564">
        <ele>500</ele>
        <time>2024-06-23T09:37:41Z</time>
      </trkpt>
      <trkpt lat="43.01104" lon="1.51571">
        <ele>500</ele>
        <time>2024-06-23T09:37:42Z</time>
      </trkpt>
      <trkpt lat="43.01103" lon="1.51577">
        <ele>500.2</ele>
        <time>2024-06-23T09:37:43Z</time>
      </trkpt>
      <trkpt lat="43.01102" lon="1.51584">
        <ele>500.2</ele>
        <time>2024-06-23T09:37:44Z</time>
      </trkpt>
      <trkpt lat="43.01102" lon="1.51589">
        <ele>500.2</ele>
        <time>2024-06-23T09:37:45Z</time>
      </trkpt>
      <trkpt lat="43.01101" lon="1.51595">
        <ele>500.6</ele>
        <time>2024-06-23T09:37:46Z</time>
      </trkpt>
      <trkpt lat="43.01101" lon="1.51602">
        <ele>500.2</ele>
        <time>2024-06-23T09:37:47Z</time>
      </trkpt>
      <trkpt lat="43.011" lon="1.51608">
        <ele>500</ele>
        <time>2024-06-23T09:37:48Z</time>
      </trkpt>
      <trkpt lat="43.01097" lon="1.51614">
        <ele>500</ele>
        <time>2024-06-23T09:37:49Z</time>
      </trkpt>
      <trkpt lat="43.01096" lon="1.51621">
        <ele>500.4</ele>
        <time>2024-06-23T09:37:50Z</time>
      </trkpt>
      <trkpt lat="43.01094" lon="1.51628">
        <ele>500.4</ele>
        <time>2024-06-23T09:37:51Z</time>
      </trkpt>
      <trkpt lat="43.01093" lon="1.51634">
        <ele>501</ele>
        <time>2024-06-23T09:37:52Z</time>
      </trkpt>
      <trkpt lat="43.01093" lon="1.51641">
        <ele>501</ele>
        <time>2024-06-23T09:37:53Z</time>
      </trkpt>
      <trkpt lat="43.01092" lon="1.51648">
        <ele>501.2</ele>
        <time>2024-06-23T09:37:54Z</time>
      </trkpt>
      <trkpt lat="43.01091" lon="1.51654">
        <ele>501.2</ele>
        <time>2024-06-23T09:37:55Z</time>
      </trkpt>
      <trkpt lat="43.01091" lon="1.5166">
        <ele>501.2</ele>
        <time>2024-06-23T09:37:56Z</time>
      </trkpt>
      <trkpt lat="43.0109" lon="1.51666">
        <ele>501.6</ele>
        <time>2024-06-23T09:37:57Z</time>
      </trkpt>
      <trkpt lat="43.01089" lon="1.51673">
        <ele>501.6</ele>
        <time>2024-06-23T09:37:58Z</time>
      </trkpt>
      <trkpt lat="43.01089" lon="1.5168">
        <ele>501.6</ele>
        <time>2024-06-23T09:37:59Z</time>
      </trkpt>
      <trkpt lat="43.01088" lon="1.51687">
        <ele>502</ele>
        <time>2024-06-23T09:38:00Z</time>
      </trkpt>
      <trkpt lat="43.01087" lon="1.51693">
        <ele>502</ele>
        <time>2024-06-23T09:38:01Z</time>
      </trkpt>
      <trkpt lat="43.01085" lon="1.517">
        <ele>502</ele>
        <time>2024-06-23T09:38:02Z</time>
      </trkpt>
      <trkpt lat="43.01085" lon="1.51706">
        <ele>502.2</ele>
        <time>2024-06-23T09:38:03Z</time>
      </trkpt>
      <trkpt lat="43.01085" lon="1.51712">
        <ele>502.6</ele>
        <time>2024-06-23T09:38:04Z</time>
      </trkpt>
      <trkpt lat="43.01084" lon="1.51718">
        <ele>502.6</ele>
        <time>2024-06-23T09:38:05Z</time>
      </trkpt>
      <trkpt lat="43.01085" lon="1.51725">
        <ele>502.6</ele>
        <time>2024-06-23T09:38:06Z</time>
      </trkpt>
      <trkpt lat="43.01085" lon="1.51732">
        <ele>502.6</ele>
        <time>2024-06-23T09:38:07Z</time>
      </trkpt>
      <trkpt lat="43.01086" lon="1.51741">
        <ele>502.6</ele>
        <time>2024-06-23T09:38:08Z</time>
      </trkpt>
      <trkpt lat="43.01086" lon="1.51746">
        <ele>502.6</ele>
        <time>2024-06-23T09:38:09Z</time>
      </trkpt>
      <trkpt lat="43.01086" lon="1.51754">
        <ele>502.6</ele>
        <time>2024-06-23T09:38:10Z</time>
      </trkpt>
      <trkpt lat="43.01085" lon="1.5176">
        <ele>502.6</ele>
        <time>2024-06-23T09:38:11Z</time>
      </trkpt>
      <trkpt lat="43.01085" lon="1.51766">
        <ele>502.6</ele>
        <time>2024-06-23T09:38:12Z</time>
      </trkpt>
      <trkpt lat="43.01086" lon="1.51772">
        <ele>502.6</ele>
        <time>2024-06-23T09:38:13Z</time>
      </trkpt>
      <trkpt lat="43.01086" lon="1.51777">
        <ele>502.6</ele>
        <time>2024-06-23T09:38:14Z</time>
      </trkpt>
      <trkpt lat="43.01086" lon="1.51784">
        <ele>503.2</ele>
        <time>2024-06-23T09:38:15Z</time>
      </trkpt>
      <trkpt lat="43.01084" lon="1.5179">
        <ele>503.4</ele>
        <time>2024-06-23T09:38:16Z</time>
      </trkpt>
      <trkpt lat="43.01082" lon="1.51796">
        <ele>503.4</ele>
        <time>2024-06-23T09:38:17Z</time>
      </trkpt>
      <trkpt lat="43.01083" lon="1.51803">
        <ele>503.4</ele>
        <time>2024-06-23T09:38:18Z</time>
      </trkpt>
      <trkpt lat="43.01084" lon="1.51811">
        <ele>503.4</ele>
        <time>2024-06-23T09:38:19Z</time>
      </trkpt>
      <trkpt lat="43.01084" lon="1.51817">
        <ele>503.4</ele>
        <time>2024-06-23T09:38:20Z</time>
      </trkpt>
      <trkpt lat="43.01085" lon="1.51824">
        <ele>503.6</ele>
        <time>2024-06-23T09:38:21Z</time>
      </trkpt>
      <trkpt lat="43.01088" lon="1.51831">
        <ele>503.6</ele>
        <time>2024-06-23T09:38:22Z</time>
      </trkpt>
      <trkpt lat="43.0109" lon="1.51838">
        <ele>504</ele>
        <time>2024-06-23T09:38:23Z</time>
      </trkpt>
      <trkpt lat="43.0109" lon="1.51845">
        <ele>504</ele>
        <time>2024-06-23T09:38:24Z</time>
      </trkpt>
      <trkpt lat="43.01091" lon="1.51851">
        <ele>504</ele>
        <time>2024-06-23T09:38:25Z</time>
      </trkpt>
      <trkpt lat="43.0109" lon="1.51858">
        <ele>504</ele>
        <time>2024-06-23T09:38:26Z</time>
      </trkpt>
      <trkpt lat="43.01088" lon="1.51863">
        <ele>504</ele>
        <time>2024-06-23T09:38:27Z</time>
      </trkpt>
      <trkpt lat="43.01089" lon="1.51869">
        <ele>504.6</ele>
        <time>2024-06-23T09:38:28Z</time>
      </trkpt>
      <trkpt lat="43.01088" lon="1.51875">
        <ele>504.6</ele>
        <time>2024-06-23T09:38:29Z</time>
      </trkpt>
      <trkpt lat="43.01088" lon="1.51882">
        <ele>504.6</ele>
        <time>2024-06-23T09:38:30Z</time>
      </trkpt>
      <trkpt lat="43.01089" lon="1.51888">
        <ele>504.6</ele>
        <time>2024-06-23T09:38:31Z</time>
      </trkpt>
      <trkpt lat="43.0109" lon="1.51896">
        <ele>504.6</ele>
        <time>2024-06-23T09:38:32Z</time>
      </trkpt>
      <trkpt lat="43.01091" lon="1.51902">
        <ele>504.6</ele>
        <time>2024-06-23T09:38:33Z</time>
      </trkpt>
      <trkpt lat="43.01092" lon="1.51909">
        <ele>504.6</ele>
        <time>2024-06-23T09:38:34Z</time>
      </trkpt>
      <trkpt lat="43.01093" lon="1.51916">
        <ele>504.6</ele>
        <time>2024-06-23T09:38:35Z</time>
      </trkpt>
      <trkpt lat="43.01094" lon="1.51923">
        <ele>505</ele>
        <time>2024-06-23T09:38:36Z</time>
      </trkpt>
      <trkpt lat="43.01095" lon="1.5193">
        <ele>505</ele>
        <time>2024-06-23T09:38:37Z</time>
      </trkpt>
      <trkpt lat="43.01096" lon="1.51936">
        <ele>505</ele>
        <time>2024-06-23T09:38:38Z</time>
      </trkpt>
      <trkpt lat="43.01098" lon="1.51943">
        <ele>505</ele>
        <time>2024-06-23T09:38:39Z</time>
      </trkpt>
      <trkpt lat="43.01099" lon="1.5195">
        <ele>505.2</ele>
        <time>2024-06-23T09:38:40Z</time>
      </trkpt>
      <trkpt lat="43.011" lon="1.51957">
        <ele>505.2</ele>
        <time>2024-06-23T09:38:41Z</time>
      </trkpt>
      <trkpt lat="43.01102" lon="1.51963">
        <ele>505.2</ele>
        <time>2024-06-23T09:38:42Z</time>
      </trkpt>
      <trkpt lat="43.01103" lon="1.51971">
        <ele>505.4</ele>
        <time>2024-06-23T09:38:43Z</time>
      </trkpt>
      <trkpt lat="43.01105" lon="1.51976">
        <ele>505.6</ele>
        <time>2024-06-23T09:38:44Z</time>
      </trkpt>
      <trkpt lat="43.01106" lon="1.51982">
        <ele>505.6</ele>
        <time>2024-06-23T09:38:45Z</time>
      </trkpt>
      <trkpt lat="43.01107" lon="1.51988">
        <ele>506</ele>
        <time>2024-06-23T09:38:46Z</time>
      </trkpt>
      <trkpt lat="43.01109" lon="1.51994">
        <ele>506</ele>
        <time>2024-06-23T09:38:47Z</time>
      </trkpt>
      <trkpt lat="43.0111" lon="1.52001">
        <ele>506</ele>
        <time>2024-06-23T09:38:48Z</time>
      </trkpt>
      <trkpt lat="43.01112" lon="1.52006">
        <ele>506</ele>
        <time>2024-06-23T09:38:49Z</time>
      </trkpt>
      <trkpt lat="43.01113" lon="1.52013">
        <ele>506.4</ele>
        <time>2024-06-23T09:38:50Z</time>
      </trkpt>
      <trkpt lat="43.01115" lon="1.52019">
        <ele>506</ele>
        <time>2024-06-23T09:38:51Z</time>
      </trkpt>
      <trkpt lat="43.01116" lon="1.52025">
        <ele>506</ele>
        <time>2024-06-23T09:38:52Z</time>
      </trkpt>
      <trkpt lat="43.01118" lon="1.52032">
        <ele>506</ele>
        <time>2024-06-23T09:38:53Z</time>
      </trkpt>
      <trkpt lat="43.01119" lon="1.52037">
        <ele>506.4</ele>
        <time>2024-06-23T09:38:54Z</time>
      </trkpt>
      <trkpt lat="43.01121" lon="1.52044">
        <ele>506.4</ele>
        <time>2024-06-23T09:38:55Z</time>
      </trkpt>
      <trkpt lat="43.01122" lon="1.5205">
        <ele>506.4</ele>
        <time>2024-06-23T09:38:56Z</time>
      </trkpt>
      <trkpt lat="43.01124" lon="1.52057">
        <ele>506.4</ele>
        <time>2024-06-23T09:38:57Z</time>
      </trkpt>
      <trkpt lat="43.01126" lon="1.52062">
        <ele>506.6</ele>
        <time>2024-06-23T09:38:58Z</time>
      </trkpt>
      <trkpt lat="43.01127" lon="1.52069">
        <ele>506.6</ele>
        <time>2024-06-23T09:38:59Z</time>
      </trkpt>
      <trkpt lat="43.01128" lon="1.52075">
        <ele>506.8</ele>
        <time>2024-06-23T09:39:00Z</time>
      </trkpt>
      <trkpt lat="43.0113" lon="1.52081">
        <ele>506.8</ele>
        <time>2024-06-23T09:39:01Z</time>
      </trkpt>
      <trkpt lat="43.01132" lon="1.52087">
        <ele>506.8</ele>
        <time>2024-06-23T09:39:02Z</time>
      </trkpt>
      <trkpt lat="43.01132" lon="1.52094">
        <ele>506.8</ele>
        <time>2024-06-23T09:39:03Z</time>
      </trkpt>
      <trkpt lat="43.01133" lon="1.52097">
        <ele>506.8</ele>
        <time>2024-06-23T09:39:04Z</time>
      </trkpt>
      <trkpt lat="43.01135" lon="1.52105">
        <ele>506.8</ele>
        <time>2024-06-23T09:39:05Z</time>
      </trkpt>
      <trkpt lat="43.01138" lon="1.52112">
        <ele>506.8</ele>
        <time>2024-06-23T09:39:06Z</time>
      </trkpt>
      <trkpt lat="43.01139" lon="1.52117">
        <ele>507.2</ele>
        <time>2024-06-23T09:39:07Z</time>
      </trkpt>
      <trkpt lat="43.01141" lon="1.52124">
        <ele>507.2</ele>
        <time>2024-06-23T09:39:08Z</time>
      </trkpt>
      <trkpt lat="43.01142" lon="1.5213">
        <ele>507.6</ele>
        <time>2024-06-23T09:39:09Z</time>
      </trkpt>
      <trkpt lat="43.01143" lon="1.52134">
        <ele>507.6</ele>
        <time>2024-06-23T09:39:10Z</time>
      </trkpt>
      <trkpt lat="43.01143" lon="1.5214">
        <ele>507.6</ele>
        <time>2024-06-23T09:39:11Z</time>
      </trkpt>
      <trkpt lat="43.01143" lon="1.52144">
        <ele>507.6</ele>
        <time>2024-06-23T09:39:12Z</time>
      </trkpt>
      <trkpt lat="43.01144" lon="1.52148">
        <ele>507.6</ele>
        <time>2024-06-23T09:39:13Z</time>
      </trkpt>
      <trkpt lat="43.01149" lon="1.52155">
        <ele>507.6</ele>
        <time>2024-06-23T09:39:14Z</time>
      </trkpt>
      <trkpt lat="43.01147" lon="1.52162">
        <ele>507.6</ele>
        <time>2024-06-23T09:39:15Z</time>
      </trkpt>
      <trkpt lat="43.0115" lon="1.52169">
        <ele>507.8</ele>
        <time>2024-06-23T09:39:16Z</time>
      </trkpt>
      <trkpt lat="43.01151" lon="1.52174">
        <ele>507.8</ele>
        <time>2024-06-23T09:39:17Z</time>
      </trkpt>
      <trkpt lat="43.01154" lon="1.52181">
        <ele>507.8</ele>
        <time>2024-06-23T09:39:18Z</time>
      </trkpt>
      <trkpt lat="43.01155" lon="1.52186">
        <ele>507.8</ele>
        <time>2024-06-23T09:39:19Z</time>
      </trkpt>
      <trkpt lat="43.01156" lon="1.52192">
        <ele>507.8</ele>
        <time>2024-06-23T09:39:20Z</time>
      </trkpt>
      <trkpt lat="43.01157" lon="1.52198">
        <ele>507.8</ele>
        <time>2024-06-23T09:39:21Z</time>
      </trkpt>
      <trkpt lat="43.0116" lon="1.52204">
        <ele>508.2</ele>
        <time>2024-06-23T09:39:22Z</time>
      </trkpt>
      <trkpt lat="43.01162" lon="1.5221">
        <ele>508.2</ele>
        <time>2024-06-23T09:39:23Z</time>
      </trkpt>
      <trkpt lat="43.01163" lon="1.52217">
        <ele>508.2</ele>
        <time>2024-06-23T09:39:24Z</time>
      </trkpt>
      <trkpt lat="43.01164" lon="1.52225">
        <ele>508.2</ele>
        <time>2024-06-23T09:39:25Z</time>
      </trkpt>
      <trkpt lat="43.01163" lon="1.52231">
        <ele>508.4</ele>
        <time>2024-06-23T09:39:26Z</time>
      </trkpt>
      <trkpt lat="43.01165" lon="1.52237">
        <ele>508.6</ele>
        <time>2024-06-23T09:39:27Z</time>
      </trkpt>
      <trkpt lat="43.01168" lon="1.52242">
        <ele>508.6</ele>
        <time>2024-06-23T09:39:28Z</time>
      </trkpt>
      <trkpt lat="43.01172" lon="1.52249">
        <ele>508.8</ele>
        <time>2024-06-23T09:39:29Z</time>
      </trkpt>
      <trkpt lat="43.01172" lon="1.52256">
        <ele>508.8</ele>
        <time>2024-06-23T09:39:30Z</time>
      </trkpt>
      <trkpt lat="43.01175" lon="1.52262">
        <ele>508.8</ele>
        <time>2024-06-23T09:39:31Z</time>
      </trkpt>
      <trkpt lat="43.01177" lon="1.5227">
        <ele>508.8</ele>
        <time>2024-06-23T09:39:32Z</time>
      </trkpt>
      <trkpt lat="43.01178" lon="1.52278">
        <ele>508.8</ele>
        <time>2024-06-23T09:39:33Z</time>
      </trkpt>
      <trkpt lat="43.0118" lon="1.52285">
        <ele>508.8</ele>
        <time>2024-06-23T09:39:34Z</time>
      </trkpt>
      <trkpt lat="43.01181" lon="1.52293">
        <ele>508.8</ele>
        <time>2024-06-23T09:39:35Z</time>
      </trkpt>
      <trkpt lat="43.01184" lon="1.52301">
        <ele>508.6</ele>
        <time>2024-06-23T09:39:36Z</time>
      </trkpt>
      <trkpt lat="43.01184" lon="1.52308">
        <ele>508.6</ele>
        <time>2024-06-23T09:39:37Z</time>
      </trkpt>
      <trkpt lat="43.01186" lon="1.52316">
        <ele>508.6</ele>
        <time>2024-06-23T09:39:38Z</time>
      </trkpt>
      <trkpt lat="43.01187" lon="1.52322">
        <ele>508.8</ele>
        <time>2024-06-23T09:39:39Z</time>
      </trkpt>
      <trkpt lat="43.01188" lon="1.52329">
        <ele>508.8</ele>
        <time>2024-06-23T09:39:40Z</time>
      </trkpt>
      <trkpt lat="43.0119" lon="1.52336">
        <ele>508.8</ele>
        <time>2024-06-23T09:39:41Z</time>
      </trkpt>
      <trkpt lat="43.01191" lon="1.52344">
        <ele>508.8</ele>
        <time>2024-06-23T09:39:42Z</time>
      </trkpt>
      <trkpt lat="43.01192" lon="1.52351">
        <ele>508.4</ele>
        <time>2024-06-23T09:39:43Z</time>
      </trkpt>
      <trkpt lat="43.01194" lon="1.52358">
        <ele>508.4</ele>
        <time>2024-06-23T09:39:44Z</time>
      </trkpt>
      <trkpt lat="43.01195" lon="1.52366">
        <ele>508.4</ele>
        <time>2024-06-23T09:39:45Z</time>
      </trkpt>
      <trkpt lat="43.01196" lon="1.52373">
        <ele>508.2</ele>
        <time>2024-06-23T09:39:46Z</time>
      </trkpt>
      <trkpt lat="43.01198" lon="1.52381">
        <ele>508.2</ele>
        <time>2024-06-23T09:39:47Z</time>
      </trkpt>
      <trkpt lat="43.012" lon="1.52388">
        <ele>508.2</ele>
        <time>2024-06-23T09:39:48Z</time>
      </trkpt>
      <trkpt lat="43.01201" lon="1.52396">
        <ele>508.2</ele>
        <time>2024-06-23T09:39:49Z</time>
      </trkpt>
      <trkpt lat="43.01203" lon="1.52404">
        <ele>508.2</ele>
        <time>2024-06-23T09:39:50Z</time>
      </trkpt>
      <trkpt lat="43.01203" lon="1.52412">
        <ele>508</ele>
        <time>2024-06-23T09:39:51Z</time>
      </trkpt>
      <trkpt lat="43.01204" lon="1.5242">
        <ele>508</ele>
        <time>2024-06-23T09:39:52Z</time>
      </trkpt>
      <trkpt lat="43.01204" lon="1.52428">
        <ele>507.4</ele>
        <time>2024-06-23T09:39:53Z</time>
      </trkpt>
      <trkpt lat="43.01205" lon="1.52436">
        <ele>507.4</ele>
        <time>2024-06-23T09:39:54Z</time>
      </trkpt>
      <trkpt lat="43.01206" lon="1.52444">
        <ele>507.6</ele>
        <time>2024-06-23T09:39:55Z</time>
      </trkpt>
      <trkpt lat="43.01207" lon="1.52452">
        <ele>507.6</ele>
        <time>2024-06-23T09:39:56Z</time>
      </trkpt>
      <trkpt lat="43.01207" lon="1.5246">
        <ele>507.6</ele>
        <time>2024-06-23T09:39:57Z</time>
      </trkpt>
      <trkpt lat="43.01207" lon="1.5246">
        <ele>507.6</ele>
        <time>2024-06-23T09:39:58Z</time>
      </trkpt>
      <trkpt lat="43.01208" lon="1.52468">
        <ele>507</ele>
        <time>2024-06-23T09:39:59Z</time>
      </trkpt>
      <trkpt lat="43.01209" lon="1.52476">
        <ele>507</ele>
        <time>2024-06-23T09:40:00Z</time>
      </trkpt>
      <trkpt lat="43.0121" lon="1.52484">
        <ele>506.8</ele>
        <time>2024-06-23T09:40:01Z</time>
      </trkpt>
      <trkpt lat="43.0121" lon="1.52493">
        <ele>506.6</ele>
        <time>2024-06-23T09:40:02Z</time>
      </trkpt>
      <trkpt lat="43.01211" lon="1.52502">
        <ele>506.6</ele>
        <time>2024-06-23T09:40:03Z</time>
      </trkpt>
      <trkpt lat="43.01212" lon="1.52509">
        <ele>506.2</ele>
        <time>2024-06-23T09:40:04Z</time>
      </trkpt>
      <trkpt lat="43.01212" lon="1.52518">
        <ele>505.8</ele>
        <time>2024-06-23T09:40:05Z</time>
      </trkpt>
      <trkpt lat="43.01213" lon="1.52525">
        <ele>505.6</ele>
        <time>2024-06-23T09:40:06Z</time>
      </trkpt>
      <trkpt lat="43.01214" lon="1.52533">
        <ele>505.6</ele>
        <time>2024-06-23T09:40:07Z</time>
      </trkpt>
      <trkpt lat="43.01215" lon="1.52543">
        <ele>505.4</ele>
        <time>2024-06-23T09:40:08Z</time>
      </trkpt>
      <trkpt lat="43.01215" lon="1.5255">
        <ele>504.8</ele>
        <time>2024-06-23T09:40:09Z</time>
      </trkpt>
      <trkpt lat="43.01216" lon="1.52559">
        <ele>504.8</ele>
        <time>2024-06-23T09:40:10Z</time>
      </trkpt>
      <trkpt lat="43.01217" lon="1.52567">
        <ele>504.8</ele>
        <time>2024-06-23T09:40:11Z</time>
      </trkpt>
      <trkpt lat="43.01218" lon="1.52574">
        <ele>504.8</ele>
        <time>2024-06-23T09:40:12Z</time>
      </trkpt>
      <trkpt lat="43.01219" lon="1.52582">
        <ele>504.6</ele>
        <time>2024-06-23T09:40:13Z</time>
      </trkpt>
      <trkpt lat="43.01219" lon="1.52591">
        <ele>504.6</ele>
        <time>2024-06-23T09:40:14Z</time>
      </trkpt>
      <trkpt lat="43.01221" lon="1.52598">
        <ele>504.6</ele>
        <time>2024-06-23T09:40:15Z</time>
      </trkpt>
      <trkpt lat="43.01222" lon="1.52607">
        <ele>504.2</ele>
        <time>2024-06-23T09:40:16Z</time>
      </trkpt>
      <trkpt lat="43.01223" lon="1.52616">
        <ele>504.2</ele>
        <time>2024-06-23T09:40:17Z</time>
      </trkpt>
      <trkpt lat="43.01224" lon="1.52624">
        <ele>504.2</ele>
        <time>2024-06-23T09:40:18Z</time>
      </trkpt>
      <trkpt lat="43.01225" lon="1.52632">
        <ele>504.2</ele>
        <time>2024-06-23T09:40:19Z</time>
      </trkpt>
      <trkpt lat="43.01225" lon="1.52641">
        <ele>504.2</ele>
        <time>2024-06-23T09:40:20Z</time>
      </trkpt>
      <trkpt lat="43.01226" lon="1.52649">
        <ele>503.8</ele>
        <time>2024-06-23T09:40:21Z</time>
      </trkpt>
      <trkpt lat="43.01228" lon="1.52657">
        <ele>503.8</ele>
        <time>2024-06-23T09:40:22Z</time>
      </trkpt>
      <trkpt lat="43.0123" lon="1.52665">
        <ele>503.6</ele>
        <time>2024-06-23T09:40:23Z</time>
      </trkpt>
      <trkpt lat="43.01232" lon="1.52672">
        <ele>503.6</ele>
        <time>2024-06-23T09:40:24Z</time>
      </trkpt>
      <trkpt lat="43.01231" lon="1.5268">
        <ele>503.8</ele>
        <time>2024-06-23T09:40:25Z</time>
      </trkpt>
      <trkpt lat="43.01234" lon="1.52688">
        <ele>503.8</ele>
        <time>2024-06-23T09:40:26Z</time>
      </trkpt>
      <trkpt lat="43.01237" lon="1.52696">
        <ele>503.4</ele>
        <time>2024-06-23T09:40:27Z</time>
      </trkpt>
      <trkpt lat="43.01238" lon="1.52704">
        <ele>503.4</ele>
        <time>2024-06-23T09:40:28Z</time>
      </trkpt>
      <trkpt lat="43.0124" lon="1.52711">
        <ele>503.2</ele>
        <time>2024-06-23T09:40:29Z</time>
      </trkpt>
      <trkpt lat="43.01242" lon="1.52719">
        <ele>503.2</ele>
        <time>2024-06-23T09:40:30Z</time>
      </trkpt>
      <trkpt lat="43.01245" lon="1.52727">
        <ele>503.2</ele>
        <time>2024-06-23T09:40:31Z</time>
      </trkpt>
      <trkpt lat="43.01247" lon="1.52735">
        <ele>503.2</ele>
        <time>2024-06-23T09:40:32Z</time>
      </trkpt>
      <trkpt lat="43.01249" lon="1.52744">
        <ele>502.6</ele>
        <time>2024-06-23T09:40:33Z</time>
      </trkpt>
      <trkpt lat="43.01251" lon="1.52752">
        <ele>502.6</ele>
        <time>2024-06-23T09:40:34Z</time>
      </trkpt>
      <trkpt lat="43.01254" lon="1.5276">
        <ele>502.4</ele>
        <time>2024-06-23T09:40:35Z</time>
      </trkpt>
      <trkpt lat="43.01256" lon="1.52767">
        <ele>502.4</ele>
        <time>2024-06-23T09:40:36Z</time>
      </trkpt>
      <trkpt lat="43.01259" lon="1.52775">
        <ele>502.4</ele>
        <time>2024-06-23T09:40:37Z</time>
      </trkpt>
      <trkpt lat="43.01262" lon="1.52783">
        <ele>502.4</ele>
        <time>2024-06-23T09:40:38Z</time>
      </trkpt>
      <trkpt lat="43.01265" lon="1.52791">
        <ele>502</ele>
        <time>2024-06-23T09:40:39Z</time>
      </trkpt>
      <trkpt lat="43.01267" lon="1.52798">
        <ele>502</ele>
        <time>2024-06-23T09:40:40Z</time>
      </trkpt>
      <trkpt lat="43.01271" lon="1.52805">
        <ele>501.4</ele>
        <time>2024-06-23T09:40:41Z</time>
      </trkpt>
      <trkpt lat="43.01274" lon="1.52813">
        <ele>501.4</ele>
        <time>2024-06-23T09:40:42Z</time>
      </trkpt>
      <trkpt lat="43.01277" lon="1.5282">
        <ele>501.4</ele>
        <time>2024-06-23T09:40:43Z</time>
      </trkpt>
      <trkpt lat="43.0128" lon="1.52828">
        <ele>501.4</ele>
        <time>2024-06-23T09:40:44Z</time>
      </trkpt>
      <trkpt lat="43.01284" lon="1.52835">
        <ele>501.4</ele>
        <time>2024-06-23T09:40:45Z</time>
      </trkpt>
      <trkpt lat="43.01287" lon="1.52843">
        <ele>501</ele>
        <time>2024-06-23T09:40:46Z</time>
      </trkpt>
      <trkpt lat="43.0129" lon="1.5285">
        <ele>501</ele>
        <time>2024-06-23T09:40:47Z</time>
      </trkpt>
      <trkpt lat="43.01293" lon="1.52857">
        <ele>501</ele>
        <time>2024-06-23T09:40:48Z</time>
      </trkpt>
      <trkpt lat="43.01296" lon="1.52865">
        <ele>501</ele>
        <time>2024-06-23T09:40:49Z</time>
      </trkpt>
      <trkpt lat="43.01299" lon="1.52872">
        <ele>500.6</ele>
        <time>2024-06-23T09:40:50Z</time>
      </trkpt>
      <trkpt lat="43.013" lon="1.52881">
        <ele>500.6</ele>
        <time>2024-06-23T09:40:51Z</time>
      </trkpt>
      <trkpt lat="43.01304" lon="1.52888">
        <ele>500.4</ele>
        <time>2024-06-23T09:40:52Z</time>
      </trkpt>
      <trkpt lat="43.01307" lon="1.52895">
        <ele>500.4</ele>
        <time>2024-06-23T09:40:53Z</time>
      </trkpt>
      <trkpt lat="43.0131" lon="1.52903">
        <ele>500</ele>
        <time>2024-06-23T09:40:54Z</time>
      </trkpt>
      <trkpt lat="43.01314" lon="1.5291">
        <ele>500</ele>
        <time>2024-06-23T09:40:55Z</time>
      </trkpt>
      <trkpt lat="43.01317" lon="1.52918">
        <ele>500</ele>
        <time>2024-06-23T09:40:56Z</time>
      </trkpt>
      <trkpt lat="43.01321" lon="1.52925">
        <ele>500</ele>
        <time>2024-06-23T09:40:57Z</time>
      </trkpt>
      <trkpt lat="43.01324" lon="1.52932">
        <ele>500</ele>
        <time>2024-06-23T09:40:58Z</time>
      </trkpt>
      <trkpt lat="43.01328" lon="1.5294">
        <ele>500</ele>
        <time>2024-06-23T09:40:59Z</time>
      </trkpt>
      <trkpt lat="43.01331" lon="1.52946">
        <ele>499.6</ele>
        <time>2024-06-23T09:41:00Z</time>
      </trkpt>
      <trkpt lat="43.01335" lon="1.52954">
        <ele>499.4</ele>
        <time>2024-06-23T09:41:01Z</time>
      </trkpt>
      <trkpt lat="43.01339" lon="1.52961">
        <ele>499.4</ele>
        <time>2024-06-23T09:41:02Z</time>
      </trkpt>
      <trkpt lat="43.01341" lon="1.52968">
        <ele>499.4</ele>
        <time>2024-06-23T09:41:03Z</time>
      </trkpt>
      <trkpt lat="43.01345" lon="1.52975">
        <ele>499</ele>
        <time>2024-06-23T09:41:04Z</time>
      </trkpt>
      <trkpt lat="43.01349" lon="1.52983">
        <ele>498.4</ele>
        <time>2024-06-23T09:41:05Z</time>
      </trkpt>
      <trkpt lat="43.01351" lon="1.5299">
        <ele>498.8</ele>
        <time>2024-06-23T09:41:06Z</time>
      </trkpt>
      <trkpt lat="43.01354" lon="1.52998">
        <ele>498.8</ele>
        <time>2024-06-23T09:41:07Z</time>
      </trkpt>
      <trkpt lat="43.01359" lon="1.53005">
        <ele>498.8</ele>
        <time>2024-06-23T09:41:08Z</time>
      </trkpt>
      <trkpt lat="43.01362" lon="1.53011">
        <ele>498.2</ele>
        <time>2024-06-23T09:41:09Z</time>
      </trkpt>
      <trkpt lat="43.01363" lon="1.53018">
        <ele>498</ele>
        <time>2024-06-23T09:41:10Z</time>
      </trkpt>
      <trkpt lat="43.01367" lon="1.53025">
        <ele>497.8</ele>
        <time>2024-06-23T09:41:11Z</time>
      </trkpt>
      <trkpt lat="43.01369" lon="1.53032">
        <ele>498</ele>
        <time>2024-06-23T09:41:12Z</time>
      </trkpt>
      <trkpt lat="43.01373" lon="1.53041">
        <ele>497.4</ele>
        <time>2024-06-23T09:41:13Z</time>
      </trkpt>
      <trkpt lat="43.01377" lon="1.53048">
        <ele>497.4</ele>
        <time>2024-06-23T09:41:14Z</time>
      </trkpt>
      <trkpt lat="43.01379" lon="1.53056">
        <ele>497.2</ele>
        <time>2024-06-23T09:41:15Z</time>
      </trkpt>
      <trkpt lat="43.01381" lon="1.53063">
        <ele>497.2</ele>
        <time>2024-06-23T09:41:16Z</time>
      </trkpt>
      <trkpt lat="43.01384" lon="1.53071">
        <ele>497.2</ele>
        <time>2024-06-23T09:41:17Z</time>
      </trkpt>
      <trkpt lat="43.01388" lon="1.53079">
        <ele>496.8</ele>
        <time>2024-06-23T09:41:18Z</time>
      </trkpt>
      <trkpt lat="43.0139" lon="1.53086">
        <ele>496.8</ele>
        <time>2024-06-23T09:41:19Z</time>
      </trkpt>
      <trkpt lat="43.01393" lon="1.53094">
        <ele>496.8</ele>
        <time>2024-06-23T09:41:20Z</time>
      </trkpt>
      <trkpt lat="43.01396" lon="1.53101">
        <ele>496.8</ele>
        <time>2024-06-23T09:41:21Z</time>
      </trkpt>
      <trkpt lat="43.01399" lon="1.53109">
        <ele>496.8</ele>
        <time>2024-06-23T09:41:22Z</time>
      </trkpt>
      <trkpt lat="43.01401" lon="1.53117">
        <ele>496.8</ele>
        <time>2024-06-23T09:41:23Z</time>
      </trkpt>
      <trkpt lat="43.01404" lon="1.53125">
        <ele>496.6</ele>
        <time>2024-06-23T09:41:24Z</time>
      </trkpt>
      <trkpt lat="43.01406" lon="1.53133">
        <ele>496.4</ele>
        <time>2024-06-23T09:41:25Z</time>
      </trkpt>
      <trkpt lat="43.01407" lon="1.53142">
        <ele>496.2</ele>
        <time>2024-06-23T09:41:26Z</time>
      </trkpt>
      <trkpt lat="43.0141" lon="1.5315">
        <ele>496.2</ele>
        <time>2024-06-23T09:41:27Z</time>
      </trkpt>
      <trkpt lat="43.01412" lon="1.53158">
        <ele>495.8</ele>
        <time>2024-06-23T09:41:28Z</time>
      </trkpt>
      <trkpt lat="43.01415" lon="1.53166">
        <ele>495.8</ele>
        <time>2024-06-23T09:41:29Z</time>
      </trkpt>
      <trkpt lat="43.01416" lon="1.53175">
        <ele>495.8</ele>
        <time>2024-06-23T09:41:30Z</time>
      </trkpt>
      <trkpt lat="43.01418" lon="1.53183">
        <ele>495.6</ele>
        <time>2024-06-23T09:41:31Z</time>
      </trkpt>
      <trkpt lat="43.0142" lon="1.53192">
        <ele>495.6</ele>
        <time>2024-06-23T09:41:32Z</time>
      </trkpt>
      <trkpt lat="43.01422" lon="1.532">
        <ele>495.6</ele>
        <time>2024-06-23T09:41:33Z</time>
      </trkpt>
      <trkpt lat="43.01424" lon="1.5321">
        <ele>495.2</ele>
        <time>2024-06-23T09:41:34Z</time>
      </trkpt>
      <trkpt lat="43.01425" lon="1.53219">
        <ele>495.2</ele>
        <time>2024-06-23T09:41:35Z</time>
      </trkpt>
      <trkpt lat="43.01427" lon="1.53228">
        <ele>494.8</ele>
        <time>2024-06-23T09:41:36Z</time>
      </trkpt>
      <trkpt lat="43.01428" lon="1.53236">
        <ele>494.8</ele>
        <time>2024-06-23T09:41:37Z</time>
      </trkpt>
      <trkpt lat="43.0143" lon="1.53244">
        <ele>494.8</ele>
        <time>2024-06-23T09:41:38Z</time>
      </trkpt>
      <trkpt lat="43.01432" lon="1.53253">
        <ele>494.6</ele>
        <time>2024-06-23T09:41:39Z</time>
      </trkpt>
      <trkpt lat="43.01433" lon="1.53261">
        <ele>494.6</ele>
        <time>2024-06-23T09:41:40Z</time>
      </trkpt>
      <trkpt lat="43.01435" lon="1.5327">
        <ele>494.4</ele>
        <time>2024-06-23T09:41:41Z</time>
      </trkpt>
      <trkpt lat="43.01436" lon="1.53278">
        <ele>494.4</ele>
        <time>2024-06-23T09:41:42Z</time>
      </trkpt>
      <trkpt lat="43.01437" lon="1.53287">
        <ele>494.4</ele>
        <time>2024-06-23T09:41:43Z</time>
      </trkpt>
      <trkpt lat="43.01441" lon="1.53303">
        <ele>494.4</ele>
        <time>2024-06-23T09:41:44Z</time>
      </trkpt>
      <trkpt lat="43.01442" lon="1.53312">
        <ele>494.4</ele>
        <time>2024-06-23T09:41:45Z</time>
      </trkpt>
      <trkpt lat="43.01445" lon="1.53319">
        <ele>494.4</ele>
        <time>2024-06-23T09:41:46Z</time>
      </trkpt>
      <trkpt lat="43.01446" lon="1.53327">
        <ele>494</ele>
        <time>2024-06-23T09:41:47Z</time>
      </trkpt>
      <trkpt lat="43.01447" lon="1.53335">
        <ele>494</ele>
        <time>2024-06-23T09:41:48Z</time>
      </trkpt>
      <trkpt lat="43.01449" lon="1.53343">
        <ele>493.8</ele>
        <time>2024-06-23T09:41:49Z</time>
      </trkpt>
      <trkpt lat="43.01449" lon="1.5335">
        <ele>493.8</ele>
        <time>2024-06-23T09:41:50Z</time>
      </trkpt>
      <trkpt lat="43.01451" lon="1.53357">
        <ele>493.8</ele>
        <time>2024-06-23T09:41:51Z</time>
      </trkpt>
      <trkpt lat="43.01451" lon="1.53364">
        <ele>493.8</ele>
        <time>2024-06-23T09:41:52Z</time>
      </trkpt>
      <trkpt lat="43.01452" lon="1.53372">
        <ele>493.8</ele>
        <time>2024-06-23T09:41:53Z</time>
      </trkpt>
      <trkpt lat="43.01451" lon="1.53378">
        <ele>493.8</ele>
        <time>2024-06-23T09:41:54Z</time>
      </trkpt>
      <trkpt lat="43.01452" lon="1.53385">
        <ele>493.6</ele>
        <time>2024-06-23T09:41:55Z</time>
      </trkpt>
      <trkpt lat="43.01453" lon="1.5339">
        <ele>493.6</ele>
        <time>2024-06-23T09:41:56Z</time>
      </trkpt>
      <trkpt lat="43.01453" lon="1.53397">
        <ele>493.6</ele>
        <time>2024-06-23T09:41:57Z</time>
      </trkpt>
      <trkpt lat="43.01454" lon="1.53404">
        <ele>493.6</ele>
        <time>2024-06-23T09:41:58Z</time>
      </trkpt>
      <trkpt lat="43.01455" lon="1.53411">
        <ele>493.6</ele>
        <time>2024-06-23T09:41:59Z</time>
      </trkpt>
      <trkpt lat="43.01456" lon="1.53419">
        <ele>493.6</ele>
        <time>2024-06-23T09:42:00Z</time>
      </trkpt>
      <trkpt lat="43.01456" lon="1.53426">
        <ele>493.6</ele>
        <time>2024-06-23T09:42:01Z</time>
      </trkpt>
      <trkpt lat="43.01457" lon="1.53434">
        <ele>493.6</ele>
        <time>2024-06-23T09:42:02Z</time>
      </trkpt>
      <trkpt lat="43.01457" lon="1.53441">
        <ele>493.2</ele>
        <time>2024-06-23T09:42:03Z</time>
      </trkpt>
      <trkpt lat="43.01458" lon="1.53449">
        <ele>493.4</ele>
        <time>2024-06-23T09:42:04Z</time>
      </trkpt>
      <trkpt lat="43.01459" lon="1.53455">
        <ele>493.8</ele>
        <time>2024-06-23T09:42:05Z</time>
      </trkpt>
      <trkpt lat="43.01459" lon="1.53463">
        <ele>493.4</ele>
        <time>2024-06-23T09:42:06Z</time>
      </trkpt>
      <trkpt lat="43.0146" lon="1.5347">
        <ele>493.4</ele>
        <time>2024-06-23T09:42:07Z</time>
      </trkpt>
      <trkpt lat="43.0146" lon="1.53477">
        <ele>493.4</ele>
        <time>2024-06-23T09:42:08Z</time>
      </trkpt>
      <trkpt lat="43.0146" lon="1.53485">
        <ele>493.4</ele>
        <time>2024-06-23T09:42:09Z</time>
      </trkpt>
      <trkpt lat="43.01459" lon="1.53492">
        <ele>493.8</ele>
        <time>2024-06-23T09:42:10Z</time>
      </trkpt>
      <trkpt lat="43.01459" lon="1.53499">
        <ele>493.8</ele>
        <time>2024-06-23T09:42:11Z</time>
      </trkpt>
      <trkpt lat="43.01459" lon="1.53506">
        <ele>493.6</ele>
        <time>2024-06-23T09:42:12Z</time>
      </trkpt>
      <trkpt lat="43.01459" lon="1.53513">
        <ele>493.6</ele>
        <time>2024-06-23T09:42:13Z</time>
      </trkpt>
      <trkpt lat="43.01458" lon="1.53519">
        <ele>493.6</ele>
        <time>2024-06-23T09:42:14Z</time>
      </trkpt>
      <trkpt lat="43.01457" lon="1.53525">
        <ele>493.6</ele>
        <time>2024-06-23T09:42:15Z</time>
      </trkpt>
      <trkpt lat="43.01457" lon="1.53531">
        <ele>493.2</ele>
        <time>2024-06-23T09:42:16Z</time>
      </trkpt>
      <trkpt lat="43.01456" lon="1.53537">
        <ele>493.2</ele>
        <time>2024-06-23T09:42:17Z</time>
      </trkpt>
      <trkpt lat="43.01456" lon="1.53542">
        <ele>493.2</ele>
        <time>2024-06-23T09:42:18Z</time>
      </trkpt>
      <trkpt lat="43.01456" lon="1.53549">
        <ele>493.2</ele>
        <time>2024-06-23T09:42:19Z</time>
      </trkpt>
      <trkpt lat="43.01454" lon="1.53554">
        <ele>493.2</ele>
        <time>2024-06-23T09:42:20Z</time>
      </trkpt>
      <trkpt lat="43.01454" lon="1.53558">
        <ele>493.2</ele>
        <time>2024-06-23T09:42:21Z</time>
      </trkpt>
      <trkpt lat="43.01452" lon="1.53563">
        <ele>493.6</ele>
        <time>2024-06-23T09:42:22Z</time>
      </trkpt>
      <trkpt lat="43.01451" lon="1.53568">
        <ele>493.6</ele>
        <time>2024-06-23T09:42:23Z</time>
      </trkpt>
      <trkpt lat="43.0145" lon="1.53572">
        <ele>493.8</ele>
        <time>2024-06-23T09:42:24Z</time>
      </trkpt>
      <trkpt lat="43.01449" lon="1.53576">
        <ele>493.8</ele>
        <time>2024-06-23T09:42:25Z</time>
      </trkpt>
      <trkpt lat="43.01448" lon="1.53581">
        <ele>493.8</ele>
        <time>2024-06-23T09:42:26Z</time>
      </trkpt>
      <trkpt lat="43.01449" lon="1.53585">
        <ele>493.8</ele>
        <time>2024-06-23T09:42:27Z</time>
      </trkpt>
      <trkpt lat="43.01452" lon="1.53585">
        <ele>493.8</ele>
        <time>2024-06-23T09:42:28Z</time>
      </trkpt>
      <trkpt lat="43.01455" lon="1.53584">
        <ele>493.6</ele>
        <time>2024-06-23T09:42:29Z</time>
      </trkpt>
      <trkpt lat="43.01458" lon="1.53583">
        <ele>493.6</ele>
        <time>2024-06-23T09:42:30Z</time>
      </trkpt>
      <trkpt lat="43.0146" lon="1.5358">
        <ele>493.6</ele>
        <time>2024-06-23T09:42:31Z</time>
      </trkpt>
      <trkpt lat="43.01463" lon="1.53576">
        <ele>493.6</ele>
        <time>2024-06-23T09:42:32Z</time>
      </trkpt>
      <trkpt lat="43.01465" lon="1.53572">
        <ele>493.4</ele>
        <time>2024-06-23T09:42:33Z</time>
      </trkpt>
      <trkpt lat="43.01468" lon="1.53568">
        <ele>493.4</ele>
        <time>2024-06-23T09:42:34Z</time>
      </trkpt>
      <trkpt lat="43.01469" lon="1.53563">
        <ele>493</ele>
        <time>2024-06-23T09:42:35Z</time>
      </trkpt>
      <trkpt lat="43.0147" lon="1.53558">
        <ele>493</ele>
        <time>2024-06-23T09:42:36Z</time>
      </trkpt>
      <trkpt lat="43.01472" lon="1.53552">
        <ele>493</ele>
        <time>2024-06-23T09:42:37Z</time>
      </trkpt>
      <trkpt lat="43.01474" lon="1.53545">
        <ele>493</ele>
        <time>2024-06-23T09:42:38Z</time>
      </trkpt>
      <trkpt lat="43.01476" lon="1.53539">
        <ele>493</ele>
        <time>2024-06-23T09:42:39Z</time>
      </trkpt>
      <trkpt lat="43.01478" lon="1.53532">
        <ele>493</ele>
        <time>2024-06-23T09:42:40Z</time>
      </trkpt>
      <trkpt lat="43.01479" lon="1.53524">
        <ele>493</ele>
        <time>2024-06-23T09:42:41Z</time>
      </trkpt>
      <trkpt lat="43.01481" lon="1.53516">
        <ele>492.6</ele>
        <time>2024-06-23T09:42:42Z</time>
      </trkpt>
      <trkpt lat="43.01483" lon="1.53509">
        <ele>492.4</ele>
        <time>2024-06-23T09:42:43Z</time>
      </trkpt>
      <trkpt lat="43.01484" lon="1.53501">
        <ele>492</ele>
        <time>2024-06-23T09:42:44Z</time>
      </trkpt>
      <trkpt lat="43.01485" lon="1.53492">
        <ele>492</ele>
        <time>2024-06-23T09:42:45Z</time>
      </trkpt>
      <trkpt lat="43.01487" lon="1.53484">
        <ele>491.4</ele>
        <time>2024-06-23T09:42:46Z</time>
      </trkpt>
      <trkpt lat="43.01489" lon="1.53475">
        <ele>491</ele>
        <time>2024-06-23T09:42:47Z</time>
      </trkpt>
      <trkpt lat="43.0149" lon="1.53466">
        <ele>490.8</ele>
        <time>2024-06-23T09:42:48Z</time>
      </trkpt>
      <trkpt lat="43.01492" lon="1.53457">
        <ele>490.6</ele>
        <time>2024-06-23T09:42:49Z</time>
      </trkpt>
      <trkpt lat="43.01494" lon="1.53448">
        <ele>490.6</ele>
        <time>2024-06-23T09:42:50Z</time>
      </trkpt>
      <trkpt lat="43.01495" lon="1.53438">
        <ele>490.6</ele>
        <time>2024-06-23T09:42:51Z</time>
      </trkpt>
      <trkpt lat="43.01497" lon="1.53429">
        <ele>490.2</ele>
        <time>2024-06-23T09:42:52Z</time>
      </trkpt>
      <trkpt lat="43.01499" lon="1.5342">
        <ele>489.6</ele>
        <time>2024-06-23T09:42:53Z</time>
      </trkpt>
      <trkpt lat="43.01501" lon="1.5341">
        <ele>489.6</ele>
        <time>2024-06-23T09:42:54Z</time>
      </trkpt>
      <trkpt lat="43.01502" lon="1.534">
        <ele>489.2</ele>
        <time>2024-06-23T09:42:55Z</time>
      </trkpt>
      <trkpt lat="43.01504" lon="1.5339">
        <ele>489.2</ele>
        <time>2024-06-23T09:42:56Z</time>
      </trkpt>
      <trkpt lat="43.01506" lon="1.5338">
        <ele>488.8</ele>
        <time>2024-06-23T09:42:57Z</time>
      </trkpt>
      <trkpt lat="43.01507" lon="1.5337">
        <ele>488.6</ele>
        <time>2024-06-23T09:42:58Z</time>
      </trkpt>
      <trkpt lat="43.01508" lon="1.5336">
        <ele>488.2</ele>
        <time>2024-06-23T09:42:59Z</time>
      </trkpt>
      <trkpt lat="43.01509" lon="1.5335">
        <ele>487.8</ele>
        <time>2024-06-23T09:43:00Z</time>
      </trkpt>
      <trkpt lat="43.0151" lon="1.53339">
        <ele>487.8</ele>
        <time>2024-06-23T09:43:01Z</time>
      </trkpt>
      <trkpt lat="43.01512" lon="1.53329">
        <ele>487.2</ele>
        <time>2024-06-23T09:43:02Z</time>
      </trkpt>
      <trkpt lat="43.01513" lon="1.53318">
        <ele>487</ele>
        <time>2024-06-23T09:43:03Z</time>
      </trkpt>
      <trkpt lat="43.01514" lon="1.53308">
        <ele>486.8</ele>
        <time>2024-06-23T09:43:04Z</time>
      </trkpt>
      <trkpt lat="43.01516" lon="1.53298">
        <ele>486.4</ele>
        <time>2024-06-23T09:43:05Z</time>
      </trkpt>
      <trkpt lat="43.01517" lon="1.53287">
        <ele>485.4</ele>
        <time>2024-06-23T09:43:06Z</time>
      </trkpt>
      <trkpt lat="43.01518" lon="1.53276">
        <ele>485.2</ele>
        <time>2024-06-23T09:43:07Z</time>
      </trkpt>
      <trkpt lat="43.0152" lon="1.53266">
        <ele>484.8</ele>
        <time>2024-06-23T09:43:08Z</time>
      </trkpt>
      <trkpt lat="43.01521" lon="1.53256">
        <ele>484.4</ele>
        <time>2024-06-23T09:43:09Z</time>
      </trkpt>
      <trkpt lat="43.01523" lon="1.53245">
        <ele>484.2</ele>
        <time>2024-06-23T09:43:10Z</time>
      </trkpt>
      <trkpt lat="43.01525" lon="1.53235">
        <ele>483.6</ele>
        <time>2024-06-23T09:43:11Z</time>
      </trkpt>
      <trkpt lat="43.01528" lon="1.53225">
        <ele>483.4</ele>
        <time>2024-06-23T09:43:12Z</time>
      </trkpt>
      <trkpt lat="43.0153" lon="1.53216">
        <ele>483</ele>
        <time>2024-06-23T09:43:13Z</time>
      </trkpt>
      <trkpt lat="43.01533" lon="1.53207">
        <ele>483</ele>
        <time>2024-06-23T09:43:14Z</time>
      </trkpt>
      <trkpt lat="43.01536" lon="1.53198">
        <ele>483</ele>
        <time>2024-06-23T09:43:15Z</time>
      </trkpt>
      <trkpt lat="43.01539" lon="1.5319">
        <ele>482.8</ele>
        <time>2024-06-23T09:43:16Z</time>
      </trkpt>
      <trkpt lat="43.01543" lon="1.53182">
        <ele>482.8</ele>
        <time>2024-06-23T09:43:17Z</time>
      </trkpt>
      <trkpt lat="43.01547" lon="1.53174">
        <ele>482.8</ele>
        <time>2024-06-23T09:43:18Z</time>
      </trkpt>
      <trkpt lat="43.01551" lon="1.53167">
        <ele>482.4</ele>
        <time>2024-06-23T09:43:19Z</time>
      </trkpt>
      <trkpt lat="43.01556" lon="1.53159">
        <ele>482.4</ele>
        <time>2024-06-23T09:43:20Z</time>
      </trkpt>
      <trkpt lat="43.0156" lon="1.53152">
        <ele>482.2</ele>
        <time>2024-06-23T09:43:21Z</time>
      </trkpt>
      <trkpt lat="43.01565" lon="1.53145">
        <ele>482.2</ele>
        <time>2024-06-23T09:43:22Z</time>
      </trkpt>
      <trkpt lat="43.0157" lon="1.53138">
        <ele>482.2</ele>
        <time>2024-06-23T09:43:23Z</time>
      </trkpt>
      <trkpt lat="43.01576" lon="1.53133">
        <ele>482</ele>
        <time>2024-06-23T09:43:24Z</time>
      </trkpt>
      <trkpt lat="43.01582" lon="1.53127">
        <ele>482</ele>
        <time>2024-06-23T09:43:25Z</time>
      </trkpt>
      <trkpt lat="43.01588" lon="1.53122">
        <ele>482</ele>
        <time>2024-06-23T09:43:26Z</time>
      </trkpt>
      <trkpt lat="43.01594" lon="1.53118">
        <ele>482</ele>
        <time>2024-06-23T09:43:27Z</time>
      </trkpt>
      <trkpt lat="43.01599" lon="1.53114">
        <ele>482</ele>
        <time>2024-06-23T09:43:28Z</time>
      </trkpt>
      <trkpt lat="43.01605" lon="1.53109">
        <ele>482</ele>
        <time>2024-06-23T09:43:29Z</time>
      </trkpt>
      <trkpt lat="43.0161" lon="1.53105">
        <ele>481.8</ele>
        <time>2024-06-23T09:43:30Z</time>
      </trkpt>
      <trkpt lat="43.01616" lon="1.531">
        <ele>481.8</ele>
        <time>2024-06-23T09:43:31Z</time>
      </trkpt>
      <trkpt lat="43.0162" lon="1.53096">
        <ele>481.8</ele>
        <time>2024-06-23T09:43:32Z</time>
      </trkpt>
      <trkpt lat="43.01626" lon="1.53092">
        <ele>481.8</ele>
        <time>2024-06-23T09:43:33Z</time>
      </trkpt>
      <trkpt lat="43.01632" lon="1.53088">
        <ele>482</ele>
        <time>2024-06-23T09:43:34Z</time>
      </trkpt>
      <trkpt lat="43.01636" lon="1.53083">
        <ele>482</ele>
        <time>2024-06-23T09:43:35Z</time>
      </trkpt>
      <trkpt lat="43.01642" lon="1.53078">
        <ele>482</ele>
        <time>2024-06-23T09:43:36Z</time>
      </trkpt>
      <trkpt lat="43.01647" lon="1.53075">
        <ele>482</ele>
        <time>2024-06-23T09:43:37Z</time>
      </trkpt>
      <trkpt lat="43.01653" lon="1.5307">
        <ele>482</ele>
        <time>2024-06-23T09:43:38Z</time>
      </trkpt>
      <trkpt lat="43.01658" lon="1.53066">
        <ele>482.4</ele>
        <time>2024-06-23T09:43:39Z</time>
      </trkpt>
      <trkpt lat="43.01663" lon="1.53062">
        <ele>482.4</ele>
        <time>2024-06-23T09:43:40Z</time>
      </trkpt>
      <trkpt lat="43.01668" lon="1.53058">
        <ele>482.4</ele>
        <time>2024-06-23T09:43:41Z</time>
      </trkpt>
      <trkpt lat="43.01674" lon="1.53054">
        <ele>482.4</ele>
        <time>2024-06-23T09:43:42Z</time>
      </trkpt>
      <trkpt lat="43.01679" lon="1.5305">
        <ele>482.8</ele>
        <time>2024-06-23T09:43:43Z</time>
      </trkpt>
      <trkpt lat="43.01684" lon="1.53045">
        <ele>482.8</ele>
        <time>2024-06-23T09:43:44Z</time>
      </trkpt>
      <trkpt lat="43.01689" lon="1.53041">
        <ele>483</ele>
        <time>2024-06-23T09:43:45Z</time>
      </trkpt>
      <trkpt lat="43.01694" lon="1.53037">
        <ele>483</ele>
        <time>2024-06-23T09:43:46Z</time>
      </trkpt>
      <trkpt lat="43.01699" lon="1.53033">
        <ele>483</ele>
        <time>2024-06-23T09:43:47Z</time>
      </trkpt>
      <trkpt lat="43.01704" lon="1.53029">
        <ele>483</ele>
        <time>2024-06-23T09:43:48Z</time>
      </trkpt>
      <trkpt lat="43.01709" lon="1.53025">
        <ele>483</ele>
        <time>2024-06-23T09:43:49Z</time>
      </trkpt>
      <trkpt lat="43.01713" lon="1.53021">
        <ele>483.2</ele>
        <time>2024-06-23T09:43:50Z</time>
      </trkpt>
      <trkpt lat="43.01718" lon="1.53017">
        <ele>483.2</ele>
        <time>2024-06-23T09:43:51Z</time>
      </trkpt>
      <trkpt lat="43.01724" lon="1.53012">
        <ele>483.2</ele>
        <time>2024-06-23T09:43:52Z</time>
      </trkpt>
      <trkpt lat="43.01729" lon="1.53009">
        <ele>483.6</ele>
        <time>2024-06-23T09:43:53Z</time>
      </trkpt>
      <trkpt lat="43.01733" lon="1.53005">
        <ele>483.6</ele>
        <time>2024-06-23T09:43:54Z</time>
      </trkpt>
      <trkpt lat="43.01737" lon="1.53002">
        <ele>483.8</ele>
        <time>2024-06-23T09:43:55Z</time>
      </trkpt>
      <trkpt lat="43.01741" lon="1.52998">
        <ele>483.8</ele>
        <time>2024-06-23T09:43:56Z</time>
      </trkpt>
      <trkpt lat="43.01746" lon="1.52995">
        <ele>483.8</ele>
        <time>2024-06-23T09:43:57Z</time>
      </trkpt>
      <trkpt lat="43.0175" lon="1.52991">
        <ele>483.8</ele>
        <time>2024-06-23T09:43:58Z</time>
      </trkpt>
      <trkpt lat="43.01755" lon="1.52987">
        <ele>483.6</ele>
        <time>2024-06-23T09:43:59Z</time>
      </trkpt>
      <trkpt lat="43.0176" lon="1.52983">
        <ele>483.6</ele>
        <time>2024-06-23T09:44:00Z</time>
      </trkpt>
      <trkpt lat="43.01765" lon="1.52978">
        <ele>483.6</ele>
        <time>2024-06-23T09:44:01Z</time>
      </trkpt>
      <trkpt lat="43.0177" lon="1.52972">
        <ele>483.6</ele>
        <time>2024-06-23T09:44:02Z</time>
      </trkpt>
      <trkpt lat="43.01775" lon="1.52968">
        <ele>483.6</ele>
        <time>2024-06-23T09:44:03Z</time>
      </trkpt>
      <trkpt lat="43.0178" lon="1.52963">
        <ele>483.2</ele>
        <time>2024-06-23T09:44:04Z</time>
      </trkpt>
      <trkpt lat="43.01784" lon="1.52957">
        <ele>483.2</ele>
        <time>2024-06-23T09:44:05Z</time>
      </trkpt>
      <trkpt lat="43.01788" lon="1.52953">
        <ele>482.8</ele>
        <time>2024-06-23T09:44:06Z</time>
      </trkpt>
      <trkpt lat="43.01792" lon="1.52949">
        <ele>482.8</ele>
        <time>2024-06-23T09:44:07Z</time>
      </trkpt>
      <trkpt lat="43.01796" lon="1.52945">
        <ele>482.8</ele>
        <time>2024-06-23T09:44:08Z</time>
      </trkpt>
      <trkpt lat="43.018" lon="1.52941">
        <ele>482.8</ele>
        <time>2024-06-23T09:44:09Z</time>
      </trkpt>
      <trkpt lat="43.01805" lon="1.52938">
        <ele>482.8</ele>
        <time>2024-06-23T09:44:10Z</time>
      </trkpt>
      <trkpt lat="43.0181" lon="1.52938">
        <ele>482.8</ele>
        <time>2024-06-23T09:44:11Z</time>
      </trkpt>
      <trkpt lat="43.01816" lon="1.5294">
        <ele>482.8</ele>
        <time>2024-06-23T09:44:12Z</time>
      </trkpt>
      <trkpt lat="43.01822" lon="1.52942">
        <ele>482.6</ele>
        <time>2024-06-23T09:44:13Z</time>
      </trkpt>
      <trkpt lat="43.01828" lon="1.52945">
        <ele>482.6</ele>
        <time>2024-06-23T09:44:14Z</time>
      </trkpt>
      <trkpt lat="43.01835" lon="1.52947">
        <ele>481.8</ele>
        <time>2024-06-23T09:44:15Z</time>
      </trkpt>
      <trkpt lat="43.01842" lon="1.52951">
        <ele>481.4</ele>
        <time>2024-06-23T09:44:16Z</time>
      </trkpt>
      <trkpt lat="43.01848" lon="1.52955">
        <ele>480.8</ele>
        <time>2024-06-23T09:44:17Z</time>
      </trkpt>
      <trkpt lat="43.01856" lon="1.52958">
        <ele>480.6</ele>
        <time>2024-06-23T09:44:18Z</time>
      </trkpt>
      <trkpt lat="43.01863" lon="1.52962">
        <ele>480.4</ele>
        <time>2024-06-23T09:44:19Z</time>
      </trkpt>
      <trkpt lat="43.0187" lon="1.52966">
        <ele>479.8</ele>
        <time>2024-06-23T09:44:20Z</time>
      </trkpt>
      <trkpt lat="43.0187" lon="1.52966">
        <ele>479.4</ele>
        <time>2024-06-23T09:44:21Z</time>
      </trkpt>
      <trkpt lat="43.01877" lon="1.52972">
        <ele>479</ele>
        <time>2024-06-23T09:44:22Z</time>
      </trkpt>
      <trkpt lat="43.01883" lon="1.52978">
        <ele>478.8</ele>
        <time>2024-06-23T09:44:23Z</time>
      </trkpt>
      <trkpt lat="43.0189" lon="1.52984">
        <ele>478.6</ele>
        <time>2024-06-23T09:44:24Z</time>
      </trkpt>
      <trkpt lat="43.01896" lon="1.5299">
        <ele>478.2</ele>
        <time>2024-06-23T09:44:25Z</time>
      </trkpt>
      <trkpt lat="43.01902" lon="1.52996">
        <ele>478</ele>
        <time>2024-06-23T09:44:26Z</time>
      </trkpt>
      <trkpt lat="43.01908" lon="1.53003">
        <ele>477.8</ele>
        <time>2024-06-23T09:44:27Z</time>
      </trkpt>
      <trkpt lat="43.01914" lon="1.53011">
        <ele>477.8</ele>
        <time>2024-06-23T09:44:28Z</time>
      </trkpt>
      <trkpt lat="43.0192" lon="1.53017">
        <ele>477.8</ele>
        <time>2024-06-23T09:44:29Z</time>
      </trkpt>
      <trkpt lat="43.01925" lon="1.53024">
        <ele>477.6</ele>
        <time>2024-06-23T09:44:30Z</time>
      </trkpt>
      <trkpt lat="43.01931" lon="1.5303">
        <ele>477.6</ele>
        <time>2024-06-23T09:44:31Z</time>
      </trkpt>
      <trkpt lat="43.01937" lon="1.53037">
        <ele>477.4</ele>
        <time>2024-06-23T09:44:32Z</time>
      </trkpt>
      <trkpt lat="43.01943" lon="1.53043">
        <ele>477.4</ele>
        <time>2024-06-23T09:44:33Z</time>
      </trkpt>
      <trkpt lat="43.01949" lon="1.5305">
        <ele>477</ele>
        <time>2024-06-23T09:44:34Z</time>
      </trkpt>
      <trkpt lat="43.01954" lon="1.53056">
        <ele>477</ele>
        <time>2024-06-23T09:44:35Z</time>
      </trkpt>
      <trkpt lat="43.0196" lon="1.53063">
        <ele>477</ele>
        <time>2024-06-23T09:44:36Z</time>
      </trkpt>
      <trkpt lat="43.01965" lon="1.53069">
        <ele>476.6</ele>
        <time>2024-06-23T09:44:37Z</time>
      </trkpt>
      <trkpt lat="43.0197" lon="1.53075">
        <ele>476.6</ele>
        <time>2024-06-23T09:44:38Z</time>
      </trkpt>
      <trkpt lat="43.01976" lon="1.53082">
        <ele>476.6</ele>
        <time>2024-06-23T09:44:39Z</time>
      </trkpt>
      <trkpt lat="43.0198" lon="1.53087">
        <ele>476.6</ele>
        <time>2024-06-23T09:44:40Z</time>
      </trkpt>
      <trkpt lat="43.01985" lon="1.53093">
        <ele>477</ele>
        <time>2024-06-23T09:44:41Z</time>
      </trkpt>
      <trkpt lat="43.01991" lon="1.53098">
        <ele>477</ele>
        <time>2024-06-23T09:44:42Z</time>
      </trkpt>
      <trkpt lat="43.01995" lon="1.53103">
        <ele>477.2</ele>
        <time>2024-06-23T09:44:43Z</time>
      </trkpt>
      <trkpt lat="43.01999" lon="1.53108">
        <ele>477.4</ele>
        <time>2024-06-23T09:44:44Z</time>
      </trkpt>
      <trkpt lat="43.02003" lon="1.53114">
        <ele>477.8</ele>
        <time>2024-06-23T09:44:45Z</time>
      </trkpt>
      <trkpt lat="43.02008" lon="1.53118">
        <ele>477.8</ele>
        <time>2024-06-23T09:44:46Z</time>
      </trkpt>
      <trkpt lat="43.02013" lon="1.53124">
        <ele>477.8</ele>
        <time>2024-06-23T09:44:47Z</time>
      </trkpt>
      <trkpt lat="43.02018" lon="1.53129">
        <ele>477.8</ele>
        <time>2024-06-23T09:44:48Z</time>
      </trkpt>
      <trkpt lat="43.02023" lon="1.53134">
        <ele>477.8</ele>
        <time>2024-06-23T09:44:49Z</time>
      </trkpt>
      <trkpt lat="43.02028" lon="1.5314">
        <ele>477.8</ele>
        <time>2024-06-23T09:44:50Z</time>
      </trkpt>
      <trkpt lat="43.02034" lon="1.53146">
        <ele>477.8</ele>
        <time>2024-06-23T09:44:51Z</time>
      </trkpt>
      <trkpt lat="43.0204" lon="1.53153">
        <ele>477.8</ele>
        <time>2024-06-23T09:44:52Z</time>
      </trkpt>
      <trkpt lat="43.02045" lon="1.53158">
        <ele>477.8</ele>
        <time>2024-06-23T09:44:53Z</time>
      </trkpt>
      <trkpt lat="43.02051" lon="1.53163">
        <ele>477.8</ele>
        <time>2024-06-23T09:44:54Z</time>
      </trkpt>
      <trkpt lat="43.02058" lon="1.53168">
        <ele>477.4</ele>
        <time>2024-06-23T09:44:55Z</time>
      </trkpt>
      <trkpt lat="43.02065" lon="1.53171">
        <ele>477.4</ele>
        <time>2024-06-23T09:44:56Z</time>
      </trkpt>
      <trkpt lat="43.02071" lon="1.53174">
        <ele>477.2</ele>
        <time>2024-06-23T09:44:57Z</time>
      </trkpt>
      <trkpt lat="43.02079" lon="1.53177">
        <ele>477.2</ele>
        <time>2024-06-23T09:44:58Z</time>
      </trkpt>
      <trkpt lat="43.02085" lon="1.53181">
        <ele>477</ele>
        <time>2024-06-23T09:44:59Z</time>
      </trkpt>
      <trkpt lat="43.02093" lon="1.53183">
        <ele>477</ele>
        <time>2024-06-23T09:45:00Z</time>
      </trkpt>
      <trkpt lat="43.02099" lon="1.53186">
        <ele>476.6</ele>
        <time>2024-06-23T09:45:01Z</time>
      </trkpt>
      <trkpt lat="43.02106" lon="1.53188">
        <ele>476.6</ele>
        <time>2024-06-23T09:45:02Z</time>
      </trkpt>
      <trkpt lat="43.02112" lon="1.53191">
        <ele>476.6</ele>
        <time>2024-06-23T09:45:03Z</time>
      </trkpt>
      <trkpt lat="43.02118" lon="1.53195">
        <ele>476.6</ele>
        <time>2024-06-23T09:45:04Z</time>
      </trkpt>
      <trkpt lat="43.02124" lon="1.53197">
        <ele>476.6</ele>
        <time>2024-06-23T09:45:05Z</time>
      </trkpt>
      <trkpt lat="43.0213" lon="1.53199">
        <ele>476.6</ele>
        <time>2024-06-23T09:45:06Z</time>
      </trkpt>
      <trkpt lat="43.02136" lon="1.53202">
        <ele>476.6</ele>
        <time>2024-06-23T09:45:07Z</time>
      </trkpt>
      <trkpt lat="43.02142" lon="1.53204">
        <ele>476.8</ele>
        <time>2024-06-23T09:45:08Z</time>
      </trkpt>
      <trkpt lat="43.02148" lon="1.53207">
        <ele>476.8</ele>
        <time>2024-06-23T09:45:09Z</time>
      </trkpt>
      <trkpt lat="43.02154" lon="1.53209">
        <ele>476.8</ele>
        <time>2024-06-23T09:45:10Z</time>
      </trkpt>
      <trkpt lat="43.02161" lon="1.53212">
        <ele>476.8</ele>
        <time>2024-06-23T09:45:11Z</time>
      </trkpt>
      <trkpt lat="43.02167" lon="1.53215">
        <ele>476.8</ele>
        <time>2024-06-23T09:45:12Z</time>
      </trkpt>
      <trkpt lat="43.02173" lon="1.53218">
        <ele>476.8</ele>
        <time>2024-06-23T09:45:13Z</time>
      </trkpt>
      <trkpt lat="43.02179" lon="1.53223">
        <ele>476.8</ele>
        <time>2024-06-23T09:45:14Z</time>
      </trkpt>
      <trkpt lat="43.02185" lon="1.53227">
        <ele>477.2</ele>
        <time>2024-06-23T09:45:15Z</time>
      </trkpt>
      <trkpt lat="43.0219" lon="1.53232">
        <ele>477.2</ele>
        <time>2024-06-23T09:45:16Z</time>
      </trkpt>
      <trkpt lat="43.02196" lon="1.53237">
        <ele>477.2</ele>
        <time>2024-06-23T09:45:17Z</time>
      </trkpt>
      <trkpt lat="43.02201" lon="1.53242">
        <ele>477.2</ele>
        <time>2024-06-23T09:45:18Z</time>
      </trkpt>
      <trkpt lat="43.02206" lon="1.53248">
        <ele>477.2</ele>
        <time>2024-06-23T09:45:19Z</time>
      </trkpt>
      <trkpt lat="43.02212" lon="1.53254">
        <ele>477.2</ele>
        <time>2024-06-23T09:45:20Z</time>
      </trkpt>
      <trkpt lat="43.02217" lon="1.53259">
        <ele>477.2</ele>
        <time>2024-06-23T09:45:21Z</time>
      </trkpt>
      <trkpt lat="43.02223" lon="1.53264">
        <ele>477.2</ele>
        <time>2024-06-23T09:45:22Z</time>
      </trkpt>
      <trkpt lat="43.02228" lon="1.53269">
        <ele>477.2</ele>
        <time>2024-06-23T09:45:23Z</time>
      </trkpt>
      <trkpt lat="43.02233" lon="1.53275">
        <ele>477.2</ele>
        <time>2024-06-23T09:45:24Z</time>
      </trkpt>
      <trkpt lat="43.02238" lon="1.53279">
        <ele>477.2</ele>
        <time>2024-06-23T09:45:25Z</time>
      </trkpt>
      <trkpt lat="43.02243" lon="1.53284">
        <ele>477.2</ele>
        <time>2024-06-23T09:45:26Z</time>
      </trkpt>
      <trkpt lat="43.02248" lon="1.5329">
        <ele>477.2</ele>
        <time>2024-06-23T09:45:27Z</time>
      </trkpt>
      <trkpt lat="43.02254" lon="1.53295">
        <ele>477.2</ele>
        <time>2024-06-23T09:45:28Z</time>
      </trkpt>
      <trkpt lat="43.0226" lon="1.53301">
        <ele>477.2</ele>
        <time>2024-06-23T09:45:29Z</time>
      </trkpt>
      <trkpt lat="43.02265" lon="1.53306">
        <ele>477.2</ele>
        <time>2024-06-23T09:45:30Z</time>
      </trkpt>
      <trkpt lat="43.0227" lon="1.53312">
        <ele>477.2</ele>
        <time>2024-06-23T09:45:31Z</time>
      </trkpt>
      <trkpt lat="43.02276" lon="1.53318">
        <ele>477.2</ele>
        <time>2024-06-23T09:45:32Z</time>
      </trkpt>
      <trkpt lat="43.02282" lon="1.53323">
        <ele>477.2</ele>
        <time>2024-06-23T09:45:33Z</time>
      </trkpt>
      <trkpt lat="43.02287" lon="1.53328">
        <ele>477.2</ele>
        <time>2024-06-23T09:45:34Z</time>
      </trkpt>
      <trkpt lat="43.02293" lon="1.53335">
        <ele>477.2</ele>
        <time>2024-06-23T09:45:35Z</time>
      </trkpt>
      <trkpt lat="43.02297" lon="1.5334">
        <ele>477.2</ele>
        <time>2024-06-23T09:45:36Z</time>
      </trkpt>
      <trkpt lat="43.02301" lon="1.53344">
        <ele>477.2</ele>
        <time>2024-06-23T09:45:37Z</time>
      </trkpt>
      <trkpt lat="43.02307" lon="1.5335">
        <ele>477.2</ele>
        <time>2024-06-23T09:45:38Z</time>
      </trkpt>
      <trkpt lat="43.02312" lon="1.53355">
        <ele>477.4</ele>
        <time>2024-06-23T09:45:39Z</time>
      </trkpt>
      <trkpt lat="43.02317" lon="1.53361">
        <ele>477.4</ele>
        <time>2024-06-23T09:45:40Z</time>
      </trkpt>
      <trkpt lat="43.02323" lon="1.53366">
        <ele>477.4</ele>
        <time>2024-06-23T09:45:41Z</time>
      </trkpt>
      <trkpt lat="43.02328" lon="1.53371">
        <ele>477.4</ele>
        <time>2024-06-23T09:45:42Z</time>
      </trkpt>
      <trkpt lat="43.02333" lon="1.53377">
        <ele>477.4</ele>
        <time>2024-06-23T09:45:43Z</time>
      </trkpt>
      <trkpt lat="43.02339" lon="1.53383">
        <ele>477.2</ele>
        <time>2024-06-23T09:45:44Z</time>
      </trkpt>
      <trkpt lat="43.02345" lon="1.53388">
        <ele>477.2</ele>
        <time>2024-06-23T09:45:45Z</time>
      </trkpt>
      <trkpt lat="43.0235" lon="1.53394">
        <ele>477.2</ele>
        <time>2024-06-23T09:45:46Z</time>
      </trkpt>
      <trkpt lat="43.02356" lon="1.534">
        <ele>477.4</ele>
        <time>2024-06-23T09:45:47Z</time>
      </trkpt>
      <trkpt lat="43.02362" lon="1.53406">
        <ele>477.4</ele>
        <time>2024-06-23T09:45:48Z</time>
      </trkpt>
      <trkpt lat="43.02367" lon="1.53411">
        <ele>477.4</ele>
        <time>2024-06-23T09:45:49Z</time>
      </trkpt>
      <trkpt lat="43.02373" lon="1.53417">
        <ele>476.8</ele>
        <time>2024-06-23T09:45:50Z</time>
      </trkpt>
      <trkpt lat="43.02378" lon="1.53422">
        <ele>476.6</ele>
        <time>2024-06-23T09:45:51Z</time>
      </trkpt>
      <trkpt lat="43.02384" lon="1.53428">
        <ele>476.6</ele>
        <time>2024-06-23T09:45:52Z</time>
      </trkpt>
      <trkpt lat="43.0239" lon="1.53434">
        <ele>476.2</ele>
        <time>2024-06-23T09:45:53Z</time>
      </trkpt>
      <trkpt lat="43.02396" lon="1.5344">
        <ele>476</ele>
        <time>2024-06-23T09:45:54Z</time>
      </trkpt>
      <trkpt lat="43.02401" lon="1.53446">
        <ele>475.6</ele>
        <time>2024-06-23T09:45:55Z</time>
      </trkpt>
      <trkpt lat="43.02406" lon="1.53452">
        <ele>475.6</ele>
        <time>2024-06-23T09:45:56Z</time>
      </trkpt>
      <trkpt lat="43.02412" lon="1.53457">
        <ele>475.6</ele>
        <time>2024-06-23T09:45:57Z</time>
      </trkpt>
      <trkpt lat="43.02418" lon="1.53463">
        <ele>475.4</ele>
        <time>2024-06-23T09:45:58Z</time>
      </trkpt>
      <trkpt lat="43.02423" lon="1.53469">
        <ele>475.4</ele>
        <time>2024-06-23T09:45:59Z</time>
      </trkpt>
      <trkpt lat="43.02429" lon="1.53475">
        <ele>475.4</ele>
        <time>2024-06-23T09:46:00Z</time>
      </trkpt>
      <trkpt lat="43.02435" lon="1.53481">
        <ele>475.4</ele>
        <time>2024-06-23T09:46:01Z</time>
      </trkpt>
      <trkpt lat="43.0244" lon="1.53488">
        <ele>475.4</ele>
        <time>2024-06-23T09:46:02Z</time>
      </trkpt>
      <trkpt lat="43.02445" lon="1.53495">
        <ele>475.6</ele>
        <time>2024-06-23T09:46:03Z</time>
      </trkpt>
      <trkpt lat="43.0245" lon="1.53502">
        <ele>475.6</ele>
        <time>2024-06-23T09:46:04Z</time>
      </trkpt>
      <trkpt lat="43.02454" lon="1.53509">
        <ele>475.6</ele>
        <time>2024-06-23T09:46:05Z</time>
      </trkpt>
      <trkpt lat="43.02459" lon="1.53517">
        <ele>475</ele>
        <time>2024-06-23T09:46:06Z</time>
      </trkpt>
      <trkpt lat="43.02463" lon="1.53525">
        <ele>475</ele>
        <time>2024-06-23T09:46:07Z</time>
      </trkpt>
      <trkpt lat="43.02467" lon="1.53531">
        <ele>474.8</ele>
        <time>2024-06-23T09:46:08Z</time>
      </trkpt>
      <trkpt lat="43.02471" lon="1.53538">
        <ele>474.8</ele>
        <time>2024-06-23T09:46:09Z</time>
      </trkpt>
      <trkpt lat="43.02475" lon="1.53546">
        <ele>474.6</ele>
        <time>2024-06-23T09:46:10Z</time>
      </trkpt>
      <trkpt lat="43.02479" lon="1.53553">
        <ele>474.6</ele>
        <time>2024-06-23T09:46:11Z</time>
      </trkpt>
      <trkpt lat="43.02482" lon="1.53561">
        <ele>474.6</ele>
        <time>2024-06-23T09:46:12Z</time>
      </trkpt>
      <trkpt lat="43.02486" lon="1.53569">
        <ele>474.6</ele>
        <time>2024-06-23T09:46:13Z</time>
      </trkpt>
      <trkpt lat="43.02489" lon="1.53577">
        <ele>474.6</ele>
        <time>2024-06-23T09:46:14Z</time>
      </trkpt>
      <trkpt lat="43.02493" lon="1.53583">
        <ele>474.6</ele>
        <time>2024-06-23T09:46:15Z</time>
      </trkpt>
      <trkpt lat="43.02496" lon="1.53591">
        <ele>474.6</ele>
        <time>2024-06-23T09:46:16Z</time>
      </trkpt>
      <trkpt lat="43.025" lon="1.53598">
        <ele>474.6</ele>
        <time>2024-06-23T09:46:17Z</time>
      </trkpt>
      <trkpt lat="43.02503" lon="1.53606">
        <ele>474.6</ele>
        <time>2024-06-23T09:46:18Z</time>
      </trkpt>
      <trkpt lat="43.02506" lon="1.53613">
        <ele>474.6</ele>
        <time>2024-06-23T09:46:19Z</time>
      </trkpt>
      <trkpt lat="43.0251" lon="1.53621">
        <ele>474.6</ele>
        <time>2024-06-23T09:46:20Z</time>
      </trkpt>
      <trkpt lat="43.02514" lon="1.53629">
        <ele>474.2</ele>
        <time>2024-06-23T09:46:21Z</time>
      </trkpt>
      <trkpt lat="43.02517" lon="1.53636">
        <ele>474.2</ele>
        <time>2024-06-23T09:46:22Z</time>
      </trkpt>
      <trkpt lat="43.0252" lon="1.53644">
        <ele>473.8</ele>
        <time>2024-06-23T09:46:23Z</time>
      </trkpt>
      <trkpt lat="43.02526" lon="1.53659">
        <ele>473.8</ele>
        <time>2024-06-23T09:46:24Z</time>
      </trkpt>
      <trkpt lat="43.02529" lon="1.53666">
        <ele>474.2</ele>
        <time>2024-06-23T09:46:25Z</time>
      </trkpt>
      <trkpt lat="43.02533" lon="1.53674">
        <ele>474.2</ele>
        <time>2024-06-23T09:46:26Z</time>
      </trkpt>
      <trkpt lat="43.02536" lon="1.53682">
        <ele>474.2</ele>
        <time>2024-06-23T09:46:27Z</time>
      </trkpt>
      <trkpt lat="43.02539" lon="1.53689">
        <ele>474.6</ele>
        <time>2024-06-23T09:46:28Z</time>
      </trkpt>
      <trkpt lat="43.02542" lon="1.53697">
        <ele>474.6</ele>
        <time>2024-06-23T09:46:29Z</time>
      </trkpt>
      <trkpt lat="43.02545" lon="1.53704">
        <ele>474.6</ele>
        <time>2024-06-23T09:46:30Z</time>
      </trkpt>
      <trkpt lat="43.02549" lon="1.53712">
        <ele>474.6</ele>
        <time>2024-06-23T09:46:31Z</time>
      </trkpt>
      <trkpt lat="43.02554" lon="1.53717">
        <ele>474.6</ele>
        <time>2024-06-23T09:46:32Z</time>
      </trkpt>
      <trkpt lat="43.0256" lon="1.53722">
        <ele>474.6</ele>
        <time>2024-06-23T09:46:33Z</time>
      </trkpt>
      <trkpt lat="43.02566" lon="1.53724">
        <ele>474.6</ele>
        <time>2024-06-23T09:46:34Z</time>
      </trkpt>
      <trkpt lat="43.02573" lon="1.53726">
        <ele>474.6</ele>
        <time>2024-06-23T09:46:35Z</time>
      </trkpt>
      <trkpt lat="43.02579" lon="1.53723">
        <ele>474.6</ele>
        <time>2024-06-23T09:46:36Z</time>
      </trkpt>
      <trkpt lat="43.02585" lon="1.5372">
        <ele>474.6</ele>
        <time>2024-06-23T09:46:37Z</time>
      </trkpt>
      <trkpt lat="43.0259" lon="1.53714">
        <ele>474.6</ele>
        <time>2024-06-23T09:46:38Z</time>
      </trkpt>
      <trkpt lat="43.02595" lon="1.53707">
        <ele>474.4</ele>
        <time>2024-06-23T09:46:39Z</time>
      </trkpt>
      <trkpt lat="43.026" lon="1.53699">
        <ele>474</ele>
        <time>2024-06-23T09:46:40Z</time>
      </trkpt>
      <trkpt lat="43.02601" lon="1.53689">
        <ele>473.8</ele>
        <time>2024-06-23T09:46:41Z</time>
      </trkpt>
      <trkpt lat="43.02605" lon="1.53679">
        <ele>473.2</ele>
        <time>2024-06-23T09:46:42Z</time>
      </trkpt>
      <trkpt lat="43.02608" lon="1.53671">
        <ele>473.2</ele>
        <time>2024-06-23T09:46:43Z</time>
      </trkpt>
      <trkpt lat="43.02611" lon="1.53661">
        <ele>472.8</ele>
        <time>2024-06-23T09:46:44Z</time>
      </trkpt>
      <trkpt lat="43.02613" lon="1.53652">
        <ele>472.6</ele>
        <time>2024-06-23T09:46:45Z</time>
      </trkpt>
      <trkpt lat="43.02616" lon="1.53642">
        <ele>472.6</ele>
        <time>2024-06-23T09:46:46Z</time>
      </trkpt>
      <trkpt lat="43.02619" lon="1.53634">
        <ele>472.2</ele>
        <time>2024-06-23T09:46:47Z</time>
      </trkpt>
      <trkpt lat="43.02622" lon="1.53624">
        <ele>472</ele>
        <time>2024-06-23T09:46:48Z</time>
      </trkpt>
      <trkpt lat="43.02625" lon="1.53615">
        <ele>472.6</ele>
        <time>2024-06-23T09:46:49Z</time>
      </trkpt>
      <trkpt lat="43.02627" lon="1.53605">
        <ele>471.8</ele>
        <time>2024-06-23T09:46:50Z</time>
      </trkpt>
      <trkpt lat="43.02629" lon="1.53595">
        <ele>471.4</ele>
        <time>2024-06-23T09:46:51Z</time>
      </trkpt>
      <trkpt lat="43.0263" lon="1.53582">
        <ele>470.8</ele>
        <time>2024-06-23T09:46:52Z</time>
      </trkpt>
      <trkpt lat="43.02631" lon="1.53572">
        <ele>470.6</ele>
        <time>2024-06-23T09:46:53Z</time>
      </trkpt>
      <trkpt lat="43.02634" lon="1.53562">
        <ele>470.2</ele>
        <time>2024-06-23T09:46:54Z</time>
      </trkpt>
      <trkpt lat="43.02637" lon="1.53551">
        <ele>470</ele>
        <time>2024-06-23T09:46:55Z</time>
      </trkpt>
      <trkpt lat="43.0264" lon="1.53541">
        <ele>469.6</ele>
        <time>2024-06-23T09:46:56Z</time>
      </trkpt>
      <trkpt lat="43.02642" lon="1.53532">
        <ele>469.2</ele>
        <time>2024-06-23T09:46:57Z</time>
      </trkpt>
      <trkpt lat="43.02647" lon="1.53523">
        <ele>468.8</ele>
        <time>2024-06-23T09:46:58Z</time>
      </trkpt>
      <trkpt lat="43.02653" lon="1.53515">
        <ele>468.4</ele>
        <time>2024-06-23T09:46:59Z</time>
      </trkpt>
      <trkpt lat="43.02661" lon="1.5351">
        <ele>468.8</ele>
        <time>2024-06-23T09:47:00Z</time>
      </trkpt>
      <trkpt lat="43.02669" lon="1.53506">
        <ele>468</ele>
        <time>2024-06-23T09:47:01Z</time>
      </trkpt>
      <trkpt lat="43.02676" lon="1.53506">
        <ele>467.6</ele>
        <time>2024-06-23T09:47:02Z</time>
      </trkpt>
      <trkpt lat="43.02684" lon="1.53508">
        <ele>467.4</ele>
        <time>2024-06-23T09:47:03Z</time>
      </trkpt>
      <trkpt lat="43.02691" lon="1.5351">
        <ele>467.4</ele>
        <time>2024-06-23T09:47:04Z</time>
      </trkpt>
      <trkpt lat="43.02697" lon="1.53516">
        <ele>467.2</ele>
        <time>2024-06-23T09:47:05Z</time>
      </trkpt>
      <trkpt lat="43.02702" lon="1.53522">
        <ele>467</ele>
        <time>2024-06-23T09:47:06Z</time>
      </trkpt>
      <trkpt lat="43.02706" lon="1.5353">
        <ele>467</ele>
        <time>2024-06-23T09:47:07Z</time>
      </trkpt>
      <trkpt lat="43.02709" lon="1.53539">
        <ele>467</ele>
        <time>2024-06-23T09:47:08Z</time>
      </trkpt>
      <trkpt lat="43.0271" lon="1.53547">
        <ele>467</ele>
        <time>2024-06-23T09:47:09Z</time>
      </trkpt>
      <trkpt lat="43.02711" lon="1.53555">
        <ele>466.6</ele>
        <time>2024-06-23T09:47:10Z</time>
      </trkpt>
      <trkpt lat="43.02711" lon="1.53564">
        <ele>466.6</ele>
        <time>2024-06-23T09:47:11Z</time>
      </trkpt>
      <trkpt lat="43.02712" lon="1.53573">
        <ele>466.6</ele>
        <time>2024-06-23T09:47:12Z</time>
      </trkpt>
      <trkpt lat="43.02711" lon="1.53582">
        <ele>466.6</ele>
        <time>2024-06-23T09:47:13Z</time>
      </trkpt>
      <trkpt lat="43.02711" lon="1.5359">
        <ele>466.6</ele>
        <time>2024-06-23T09:47:14Z</time>
      </trkpt>
      <trkpt lat="43.02711" lon="1.53599">
        <ele>466.6</ele>
        <time>2024-06-23T09:47:15Z</time>
      </trkpt>
      <trkpt lat="43.02711" lon="1.53608">
        <ele>466.6</ele>
        <time>2024-06-23T09:47:16Z</time>
      </trkpt>
      <trkpt lat="43.02711" lon="1.53616">
        <ele>466.6</ele>
        <time>2024-06-23T09:47:17Z</time>
      </trkpt>
      <trkpt lat="43.02712" lon="1.53624">
        <ele>466.6</ele>
        <time>2024-06-23T09:47:18Z</time>
      </trkpt>
      <trkpt lat="43.02712" lon="1.53633">
        <ele>466.6</ele>
        <time>2024-06-23T09:47:19Z</time>
      </trkpt>
      <trkpt lat="43.02714" lon="1.53641">
        <ele>466.6</ele>
        <time>2024-06-23T09:47:20Z</time>
      </trkpt>
      <trkpt lat="43.02716" lon="1.53648">
        <ele>466.6</ele>
        <time>2024-06-23T09:47:21Z</time>
      </trkpt>
      <trkpt lat="43.02721" lon="1.53654">
        <ele>466.6</ele>
        <time>2024-06-23T09:47:22Z</time>
      </trkpt>
      <trkpt lat="43.02725" lon="1.53658">
        <ele>466.6</ele>
        <time>2024-06-23T09:47:23Z</time>
      </trkpt>
      <trkpt lat="43.02729" lon="1.53663">
        <ele>466.6</ele>
        <time>2024-06-23T09:47:24Z</time>
      </trkpt>
      <trkpt lat="43.02735" lon="1.53665">
        <ele>466.8</ele>
        <time>2024-06-23T09:47:25Z</time>
      </trkpt>
      <trkpt lat="43.02741" lon="1.53668">
        <ele>466.8</ele>
        <time>2024-06-23T09:47:26Z</time>
      </trkpt>
      <trkpt lat="43.02746" lon="1.53671">
        <ele>466.6</ele>
        <time>2024-06-23T09:47:27Z</time>
      </trkpt>
      <trkpt lat="43.02753" lon="1.53672">
        <ele>466.6</ele>
        <time>2024-06-23T09:47:28Z</time>
      </trkpt>
      <trkpt lat="43.0276" lon="1.53674">
        <ele>466.6</ele>
        <time>2024-06-23T09:47:29Z</time>
      </trkpt>
      <trkpt lat="43.02767" lon="1.53675">
        <ele>466.2</ele>
        <time>2024-06-23T09:47:30Z</time>
      </trkpt>
      <trkpt lat="43.02773" lon="1.53676">
        <ele>466.2</ele>
        <time>2024-06-23T09:47:31Z</time>
      </trkpt>
      <trkpt lat="43.02779" lon="1.53678">
        <ele>466</ele>
        <time>2024-06-23T09:47:32Z</time>
      </trkpt>
      <trkpt lat="43.02785" lon="1.5368">
        <ele>466</ele>
        <time>2024-06-23T09:47:33Z</time>
      </trkpt>
      <trkpt lat="43.02792" lon="1.53681">
        <ele>465.6</ele>
        <time>2024-06-23T09:47:34Z</time>
      </trkpt>
      <trkpt lat="43.028" lon="1.53683">
        <ele>465.6</ele>
        <time>2024-06-23T09:47:35Z</time>
      </trkpt>
      <trkpt lat="43.02807" lon="1.53684">
        <ele>465.6</ele>
        <time>2024-06-23T09:47:36Z</time>
      </trkpt>
      <trkpt lat="43.02814" lon="1.53685">
        <ele>465.4</ele>
        <time>2024-06-23T09:47:37Z</time>
      </trkpt>
      <trkpt lat="43.02821" lon="1.53686">
        <ele>465.4</ele>
        <time>2024-06-23T09:47:38Z</time>
      </trkpt>
      <trkpt lat="43.02828" lon="1.53687">
        <ele>465.2</ele>
        <time>2024-06-23T09:47:39Z</time>
      </trkpt>
      <trkpt lat="43.02834" lon="1.53687">
        <ele>465</ele>
        <time>2024-06-23T09:47:40Z</time>
      </trkpt>
      <trkpt lat="43.0284" lon="1.53686">
        <ele>465</ele>
        <time>2024-06-23T09:47:41Z</time>
      </trkpt>
      <trkpt lat="43.02846" lon="1.53683">
        <ele>464.6</ele>
        <time>2024-06-23T09:47:42Z</time>
      </trkpt>
      <trkpt lat="43.02852" lon="1.53679">
        <ele>464.6</ele>
        <time>2024-06-23T09:47:43Z</time>
      </trkpt>
      <trkpt lat="43.02857" lon="1.53674">
        <ele>464.2</ele>
        <time>2024-06-23T09:47:44Z</time>
      </trkpt>
      <trkpt lat="43.02862" lon="1.53667">
        <ele>464.2</ele>
        <time>2024-06-23T09:47:45Z</time>
      </trkpt>
      <trkpt lat="43.02866" lon="1.53659">
        <ele>463.8</ele>
        <time>2024-06-23T09:47:46Z</time>
      </trkpt>
      <trkpt lat="43.02869" lon="1.53652">
        <ele>463.4</ele>
        <time>2024-06-23T09:47:47Z</time>
      </trkpt>
      <trkpt lat="43.02873" lon="1.53644">
        <ele>463.2</ele>
        <time>2024-06-23T09:47:48Z</time>
      </trkpt>
      <trkpt lat="43.02876" lon="1.53635">
        <ele>463</ele>
        <time>2024-06-23T09:47:49Z</time>
      </trkpt>
      <trkpt lat="43.0288" lon="1.53627">
        <ele>463</ele>
        <time>2024-06-23T09:47:50Z</time>
      </trkpt>
      <trkpt lat="43.02883" lon="1.53619">
        <ele>462.6</ele>
        <time>2024-06-23T09:47:51Z</time>
      </trkpt>
      <trkpt lat="43.02887" lon="1.53611">
        <ele>462.2</ele>
        <time>2024-06-23T09:47:52Z</time>
      </trkpt>
      <trkpt lat="43.02891" lon="1.53603">
        <ele>462.2</ele>
        <time>2024-06-23T09:47:53Z</time>
      </trkpt>
      <trkpt lat="43.02894" lon="1.53594">
        <ele>462.2</ele>
        <time>2024-06-23T09:47:54Z</time>
      </trkpt>
      <trkpt lat="43.02898" lon="1.53585">
        <ele>461.8</ele>
        <time>2024-06-23T09:47:55Z</time>
      </trkpt>
      <trkpt lat="43.02901" lon="1.53577">
        <ele>461.6</ele>
        <time>2024-06-23T09:47:56Z</time>
      </trkpt>
      <trkpt lat="43.02905" lon="1.53569">
        <ele>461.2</ele>
        <time>2024-06-23T09:47:57Z</time>
      </trkpt>
      <trkpt lat="43.02908" lon="1.5356">
        <ele>461.2</ele>
        <time>2024-06-23T09:47:58Z</time>
      </trkpt>
      <trkpt lat="43.02911" lon="1.53552">
        <ele>461.2</ele>
        <time>2024-06-23T09:47:59Z</time>
      </trkpt>
      <trkpt lat="43.02915" lon="1.53543">
        <ele>461</ele>
        <time>2024-06-23T09:48:00Z</time>
      </trkpt>
      <trkpt lat="43.02918" lon="1.53535">
        <ele>460.2</ele>
        <time>2024-06-23T09:48:01Z</time>
      </trkpt>
      <trkpt lat="43.02921" lon="1.53526">
        <ele>460.2</ele>
        <time>2024-06-23T09:48:02Z</time>
      </trkpt>
      <trkpt lat="43.02925" lon="1.53517">
        <ele>460.2</ele>
        <time>2024-06-23T09:48:03Z</time>
      </trkpt>
      <trkpt lat="43.02927" lon="1.53509">
        <ele>460</ele>
        <time>2024-06-23T09:48:04Z</time>
      </trkpt>
      <trkpt lat="43.02931" lon="1.535">
        <ele>460</ele>
        <time>2024-06-23T09:48:05Z</time>
      </trkpt>
      <trkpt lat="43.02934" lon="1.53492">
        <ele>460.4</ele>
        <time>2024-06-23T09:48:06Z</time>
      </trkpt>
      <trkpt lat="43.02938" lon="1.53484">
        <ele>460.4</ele>
        <time>2024-06-23T09:48:07Z</time>
      </trkpt>
      <trkpt lat="43.02941" lon="1.53475">
        <ele>460.4</ele>
        <time>2024-06-23T09:48:08Z</time>
      </trkpt>
      <trkpt lat="43.02945" lon="1.53467">
        <ele>459.8</ele>
        <time>2024-06-23T09:48:09Z</time>
      </trkpt>
      <trkpt lat="43.02948" lon="1.53458">
        <ele>459.6</ele>
        <time>2024-06-23T09:48:10Z</time>
      </trkpt>
      <trkpt lat="43.02951" lon="1.5345">
        <ele>459</ele>
        <time>2024-06-23T09:48:11Z</time>
      </trkpt>
      <trkpt lat="43.02955" lon="1.53441">
        <ele>459</ele>
        <time>2024-06-23T09:48:12Z</time>
      </trkpt>
      <trkpt lat="43.02959" lon="1.53434">
        <ele>458.8</ele>
        <time>2024-06-23T09:48:13Z</time>
      </trkpt>
      <trkpt lat="43.02962" lon="1.53424">
        <ele>458.4</ele>
        <time>2024-06-23T09:48:14Z</time>
      </trkpt>
      <trkpt lat="43.02966" lon="1.53415">
        <ele>458</ele>
        <time>2024-06-23T09:48:15Z</time>
      </trkpt>
      <trkpt lat="43.02969" lon="1.53406">
        <ele>458</ele>
        <time>2024-06-23T09:48:16Z</time>
      </trkpt>
      <trkpt lat="43.02972" lon="1.53397">
        <ele>457.8</ele>
        <time>2024-06-23T09:48:17Z</time>
      </trkpt>
      <trkpt lat="43.02976" lon="1.53388">
        <ele>457.8</ele>
        <time>2024-06-23T09:48:18Z</time>
      </trkpt>
      <trkpt lat="43.02979" lon="1.5338">
        <ele>457.8</ele>
        <time>2024-06-23T09:48:19Z</time>
      </trkpt>
      <trkpt lat="43.02982" lon="1.53371">
        <ele>457.8</ele>
        <time>2024-06-23T09:48:20Z</time>
      </trkpt>
      <trkpt lat="43.02984" lon="1.53362">
        <ele>457.8</ele>
        <time>2024-06-23T09:48:21Z</time>
      </trkpt>
      <trkpt lat="43.02987" lon="1.53353">
        <ele>457.4</ele>
        <time>2024-06-23T09:48:22Z</time>
      </trkpt>
      <trkpt lat="43.02989" lon="1.53344">
        <ele>457</ele>
        <time>2024-06-23T09:48:23Z</time>
      </trkpt>
      <trkpt lat="43.0299" lon="1.53334">
        <ele>457</ele>
        <time>2024-06-23T09:48:24Z</time>
      </trkpt>
      <trkpt lat="43.02992" lon="1.53325">
        <ele>456.8</ele>
        <time>2024-06-23T09:48:25Z</time>
      </trkpt>
      <trkpt lat="43.02993" lon="1.53316">
        <ele>456.6</ele>
        <time>2024-06-23T09:48:26Z</time>
      </trkpt>
      <trkpt lat="43.02994" lon="1.53307">
        <ele>456.6</ele>
        <time>2024-06-23T09:48:27Z</time>
      </trkpt>
      <trkpt lat="43.02995" lon="1.53298">
        <ele>456.6</ele>
        <time>2024-06-23T09:48:28Z</time>
      </trkpt>
      <trkpt lat="43.02997" lon="1.53288">
        <ele>456.6</ele>
        <time>2024-06-23T09:48:29Z</time>
      </trkpt>
      <trkpt lat="43.02998" lon="1.53279">
        <ele>456.6</ele>
        <time>2024-06-23T09:48:30Z</time>
      </trkpt>
      <trkpt lat="43.02999" lon="1.5327">
        <ele>456.6</ele>
        <time>2024-06-23T09:48:31Z</time>
      </trkpt>
      <trkpt lat="43.03001" lon="1.5326">
        <ele>456.6</ele>
        <time>2024-06-23T09:48:32Z</time>
      </trkpt>
      <trkpt lat="43.03002" lon="1.53251">
        <ele>456.6</ele>
        <time>2024-06-23T09:48:33Z</time>
      </trkpt>
      <trkpt lat="43.03003" lon="1.53242">
        <ele>456.2</ele>
        <time>2024-06-23T09:48:34Z</time>
      </trkpt>
      <trkpt lat="43.03004" lon="1.53233">
        <ele>456.2</ele>
        <time>2024-06-23T09:48:35Z</time>
      </trkpt>
      <trkpt lat="43.03006" lon="1.53224">
        <ele>456</ele>
        <time>2024-06-23T09:48:36Z</time>
      </trkpt>
      <trkpt lat="43.03008" lon="1.53215">
        <ele>456</ele>
        <time>2024-06-23T09:48:37Z</time>
      </trkpt>
      <trkpt lat="43.03009" lon="1.53206">
        <ele>456</ele>
        <time>2024-06-23T09:48:38Z</time>
      </trkpt>
      <trkpt lat="43.03012" lon="1.53197">
        <ele>455.8</ele>
        <time>2024-06-23T09:48:39Z</time>
      </trkpt>
      <trkpt lat="43.03014" lon="1.53188">
        <ele>455.8</ele>
        <time>2024-06-23T09:48:40Z</time>
      </trkpt>
      <trkpt lat="43.03017" lon="1.5318">
        <ele>455.8</ele>
        <time>2024-06-23T09:48:41Z</time>
      </trkpt>
      <trkpt lat="43.0302" lon="1.53171">
        <ele>455.4</ele>
        <time>2024-06-23T09:48:42Z</time>
      </trkpt>
      <trkpt lat="43.03023" lon="1.53163">
        <ele>455.4</ele>
        <time>2024-06-23T09:48:43Z</time>
      </trkpt>
      <trkpt lat="43.03025" lon="1.53154">
        <ele>455.4</ele>
        <time>2024-06-23T09:48:44Z</time>
      </trkpt>
      <trkpt lat="43.03028" lon="1.53145">
        <ele>455.4</ele>
        <time>2024-06-23T09:48:45Z</time>
      </trkpt>
      <trkpt lat="43.03031" lon="1.53137">
        <ele>455.4</ele>
        <time>2024-06-23T09:48:46Z</time>
      </trkpt>
      <trkpt lat="43.03034" lon="1.53128">
        <ele>455.4</ele>
        <time>2024-06-23T09:48:47Z</time>
      </trkpt>
      <trkpt lat="43.03037" lon="1.53119">
        <ele>455.4</ele>
        <time>2024-06-23T09:48:48Z</time>
      </trkpt>
      <trkpt lat="43.0304" lon="1.53111">
        <ele>455.4</ele>
        <time>2024-06-23T09:48:49Z</time>
      </trkpt>
      <trkpt lat="43.03042" lon="1.53102">
        <ele>455.4</ele>
        <time>2024-06-23T09:48:50Z</time>
      </trkpt>
      <trkpt lat="43.03045" lon="1.53095">
        <ele>455.4</ele>
        <time>2024-06-23T09:48:51Z</time>
      </trkpt>
      <trkpt lat="43.03047" lon="1.53086">
        <ele>455</ele>
        <time>2024-06-23T09:48:52Z</time>
      </trkpt>
      <trkpt lat="43.0305" lon="1.53078">
        <ele>455</ele>
        <time>2024-06-23T09:48:53Z</time>
      </trkpt>
      <trkpt lat="43.03052" lon="1.53069">
        <ele>455</ele>
        <time>2024-06-23T09:48:54Z</time>
      </trkpt>
      <trkpt lat="43.03053" lon="1.53061">
        <ele>455</ele>
        <time>2024-06-23T09:48:55Z</time>
      </trkpt>
      <trkpt lat="43.03054" lon="1.53052">
        <ele>455</ele>
        <time>2024-06-23T09:48:56Z</time>
      </trkpt>
      <trkpt lat="43.03056" lon="1.53043">
        <ele>454.4</ele>
        <time>2024-06-23T09:48:57Z</time>
      </trkpt>
      <trkpt lat="43.03058" lon="1.53035">
        <ele>454.4</ele>
        <time>2024-06-23T09:48:58Z</time>
      </trkpt>
      <trkpt lat="43.03058" lon="1.5303">
        <ele>454.2</ele>
        <time>2024-06-23T09:48:59Z</time>
      </trkpt>
      <trkpt lat="43.03059" lon="1.53026">
        <ele>454.2</ele>
        <time>2024-06-23T09:49:00Z</time>
      </trkpt>
      <trkpt lat="43.03059" lon="1.53022">
        <ele>454.2</ele>
        <time>2024-06-23T09:49:01Z</time>
      </trkpt>
      <trkpt lat="43.03061" lon="1.53009">
        <ele>454.4</ele>
        <time>2024-06-23T09:49:02Z</time>
      </trkpt>
      <trkpt lat="43.03062" lon="1.53001">
        <ele>454.4</ele>
        <time>2024-06-23T09:49:03Z</time>
      </trkpt>
      <trkpt lat="43.03063" lon="1.52992">
        <ele>454.8</ele>
        <time>2024-06-23T09:49:04Z</time>
      </trkpt>
      <trkpt lat="43.03065" lon="1.52983">
        <ele>454.8</ele>
        <time>2024-06-23T09:49:05Z</time>
      </trkpt>
      <trkpt lat="43.03067" lon="1.52974">
        <ele>454.6</ele>
        <time>2024-06-23T09:49:06Z</time>
      </trkpt>
      <trkpt lat="43.0307" lon="1.52965">
        <ele>454.6</ele>
        <time>2024-06-23T09:49:07Z</time>
      </trkpt>
      <trkpt lat="43.03073" lon="1.52957">
        <ele>454</ele>
        <time>2024-06-23T09:49:08Z</time>
      </trkpt>
      <trkpt lat="43.03077" lon="1.52951">
        <ele>454</ele>
        <time>2024-06-23T09:49:09Z</time>
      </trkpt>
      <trkpt lat="43.03082" lon="1.52943">
        <ele>453.8</ele>
        <time>2024-06-23T09:49:10Z</time>
      </trkpt>
      <trkpt lat="43.03086" lon="1.52937">
        <ele>454.2</ele>
        <time>2024-06-23T09:49:11Z</time>
      </trkpt>
      <trkpt lat="43.0309" lon="1.52929">
        <ele>454.2</ele>
        <time>2024-06-23T09:49:12Z</time>
      </trkpt>
      <trkpt lat="43.03093" lon="1.52921">
        <ele>453.8</ele>
        <time>2024-06-23T09:49:13Z</time>
      </trkpt>
      <trkpt lat="43.03095" lon="1.52913">
        <ele>454.2</ele>
        <time>2024-06-23T09:49:14Z</time>
      </trkpt>
      <trkpt lat="43.03097" lon="1.52904">
        <ele>454.2</ele>
        <time>2024-06-23T09:49:15Z</time>
      </trkpt>
      <trkpt lat="43.03099" lon="1.52896">
        <ele>453.8</ele>
        <time>2024-06-23T09:49:16Z</time>
      </trkpt>
      <trkpt lat="43.03101" lon="1.52887">
        <ele>453.8</ele>
        <time>2024-06-23T09:49:17Z</time>
      </trkpt>
      <trkpt lat="43.03102" lon="1.52879">
        <ele>453.6</ele>
        <time>2024-06-23T09:49:18Z</time>
      </trkpt>
      <trkpt lat="43.03103" lon="1.5287">
        <ele>453.6</ele>
        <time>2024-06-23T09:49:19Z</time>
      </trkpt>
      <trkpt lat="43.03105" lon="1.5286">
        <ele>453.6</ele>
        <time>2024-06-23T09:49:20Z</time>
      </trkpt>
      <trkpt lat="43.03106" lon="1.52852">
        <ele>453.6</ele>
        <time>2024-06-23T09:49:21Z</time>
      </trkpt>
      <trkpt lat="43.03109" lon="1.52844">
        <ele>453.6</ele>
        <time>2024-06-23T09:49:22Z</time>
      </trkpt>
      <trkpt lat="43.03112" lon="1.52836">
        <ele>453.2</ele>
        <time>2024-06-23T09:49:23Z</time>
      </trkpt>
      <trkpt lat="43.03115" lon="1.52827">
        <ele>453.2</ele>
        <time>2024-06-23T09:49:24Z</time>
      </trkpt>
      <trkpt lat="43.03119" lon="1.5282">
        <ele>453.2</ele>
        <time>2024-06-23T09:49:25Z</time>
      </trkpt>
      <trkpt lat="43.03122" lon="1.52813">
        <ele>453.2</ele>
        <time>2024-06-23T09:49:26Z</time>
      </trkpt>
      <trkpt lat="43.03126" lon="1.52805">
        <ele>453.2</ele>
        <time>2024-06-23T09:49:27Z</time>
      </trkpt>
      <trkpt lat="43.0313" lon="1.52797">
        <ele>453.2</ele>
        <time>2024-06-23T09:49:28Z</time>
      </trkpt>
      <trkpt lat="43.03133" lon="1.52789">
        <ele>452.8</ele>
        <time>2024-06-23T09:49:29Z</time>
      </trkpt>
      <trkpt lat="43.03137" lon="1.52781">
        <ele>452.8</ele>
        <time>2024-06-23T09:49:30Z</time>
      </trkpt>
      <trkpt lat="43.03141" lon="1.52774">
        <ele>452.8</ele>
        <time>2024-06-23T09:49:31Z</time>
      </trkpt>
      <trkpt lat="43.03145" lon="1.52766">
        <ele>452.4</ele>
        <time>2024-06-23T09:49:32Z</time>
      </trkpt>
      <trkpt lat="43.03149" lon="1.52758">
        <ele>452.4</ele>
        <time>2024-06-23T09:49:33Z</time>
      </trkpt>
      <trkpt lat="43.03153" lon="1.5275">
        <ele>452.4</ele>
        <time>2024-06-23T09:49:34Z</time>
      </trkpt>
      <trkpt lat="43.03157" lon="1.52742">
        <ele>452.2</ele>
        <time>2024-06-23T09:49:35Z</time>
      </trkpt>
      <trkpt lat="43.03161" lon="1.52734">
        <ele>452.2</ele>
        <time>2024-06-23T09:49:36Z</time>
      </trkpt>
      <trkpt lat="43.03164" lon="1.52725">
        <ele>452</ele>
        <time>2024-06-23T09:49:37Z</time>
      </trkpt>
      <trkpt lat="43.03167" lon="1.52717">
        <ele>452</ele>
        <time>2024-06-23T09:49:38Z</time>
      </trkpt>
      <trkpt lat="43.0317" lon="1.52708">
        <ele>452</ele>
        <time>2024-06-23T09:49:39Z</time>
      </trkpt>
      <trkpt lat="43.03172" lon="1.527">
        <ele>451.4</ele>
        <time>2024-06-23T09:49:40Z</time>
      </trkpt>
      <trkpt lat="43.03174" lon="1.52691">
        <ele>451.4</ele>
        <time>2024-06-23T09:49:41Z</time>
      </trkpt>
      <trkpt lat="43.03176" lon="1.52682">
        <ele>451</ele>
        <time>2024-06-23T09:49:42Z</time>
      </trkpt>
      <trkpt lat="43.03178" lon="1.52673">
        <ele>451</ele>
        <time>2024-06-23T09:49:43Z</time>
      </trkpt>
      <trkpt lat="43.03181" lon="1.52665">
        <ele>451</ele>
        <time>2024-06-23T09:49:44Z</time>
      </trkpt>
      <trkpt lat="43.03184" lon="1.52657">
        <ele>450.6</ele>
        <time>2024-06-23T09:49:45Z</time>
      </trkpt>
      <trkpt lat="43.03188" lon="1.52649">
        <ele>450.6</ele>
        <time>2024-06-23T09:49:46Z</time>
      </trkpt>
      <trkpt lat="43.03192" lon="1.52641">
        <ele>450</ele>
        <time>2024-06-23T09:49:47Z</time>
      </trkpt>
      <trkpt lat="43.03195" lon="1.52633">
        <ele>450</ele>
        <time>2024-06-23T09:49:48Z</time>
      </trkpt>
      <trkpt lat="43.03198" lon="1.52624">
        <ele>450</ele>
        <time>2024-06-23T09:49:49Z</time>
      </trkpt>
      <trkpt lat="43.032" lon="1.52615">
        <ele>449.8</ele>
        <time>2024-06-23T09:49:50Z</time>
      </trkpt>
      <trkpt lat="43.03201" lon="1.52606">
        <ele>449.8</ele>
        <time>2024-06-23T09:49:51Z</time>
      </trkpt>
      <trkpt lat="43.03202" lon="1.52596">
        <ele>449.6</ele>
        <time>2024-06-23T09:49:52Z</time>
      </trkpt>
      <trkpt lat="43.03203" lon="1.52587">
        <ele>449.6</ele>
        <time>2024-06-23T09:49:53Z</time>
      </trkpt>
      <trkpt lat="43.03204" lon="1.52578">
        <ele>449.2</ele>
        <time>2024-06-23T09:49:54Z</time>
      </trkpt>
      <trkpt lat="43.03205" lon="1.52569">
        <ele>449.2</ele>
        <time>2024-06-23T09:49:55Z</time>
      </trkpt>
      <trkpt lat="43.03207" lon="1.5256">
        <ele>449</ele>
        <time>2024-06-23T09:49:56Z</time>
      </trkpt>
      <trkpt lat="43.03209" lon="1.52551">
        <ele>449</ele>
        <time>2024-06-23T09:49:57Z</time>
      </trkpt>
      <trkpt lat="43.03212" lon="1.52542">
        <ele>449</ele>
        <time>2024-06-23T09:49:58Z</time>
      </trkpt>
      <trkpt lat="43.03215" lon="1.52533">
        <ele>448.6</ele>
        <time>2024-06-23T09:49:59Z</time>
      </trkpt>
      <trkpt lat="43.03218" lon="1.52525">
        <ele>448.6</ele>
        <time>2024-06-23T09:50:00Z</time>
      </trkpt>
      <trkpt lat="43.03221" lon="1.52517">
        <ele>448.6</ele>
        <time>2024-06-23T09:50:01Z</time>
      </trkpt>
      <trkpt lat="43.03225" lon="1.52508">
        <ele>448.6</ele>
        <time>2024-06-23T09:50:02Z</time>
      </trkpt>
      <trkpt lat="43.03228" lon="1.52499">
        <ele>448.4</ele>
        <time>2024-06-23T09:50:03Z</time>
      </trkpt>
      <trkpt lat="43.03231" lon="1.52491">
        <ele>448.6</ele>
        <time>2024-06-23T09:50:04Z</time>
      </trkpt>
      <trkpt lat="43.03234" lon="1.52482">
        <ele>448.2</ele>
        <time>2024-06-23T09:50:05Z</time>
      </trkpt>
      <trkpt lat="43.03236" lon="1.52474">
        <ele>448</ele>
        <time>2024-06-23T09:50:06Z</time>
      </trkpt>
      <trkpt lat="43.03238" lon="1.52464">
        <ele>447.8</ele>
        <time>2024-06-23T09:50:07Z</time>
      </trkpt>
      <trkpt lat="43.03241" lon="1.52454">
        <ele>447.4</ele>
        <time>2024-06-23T09:50:08Z</time>
      </trkpt>
      <trkpt lat="43.03243" lon="1.52444">
        <ele>447.2</ele>
        <time>2024-06-23T09:50:09Z</time>
      </trkpt>
      <trkpt lat="43.03244" lon="1.52435">
        <ele>446.6</ele>
        <time>2024-06-23T09:50:10Z</time>
      </trkpt>
      <trkpt lat="43.03246" lon="1.52426">
        <ele>446.6</ele>
        <time>2024-06-23T09:50:11Z</time>
      </trkpt>
      <trkpt lat="43.03248" lon="1.52417">
        <ele>446.6</ele>
        <time>2024-06-23T09:50:12Z</time>
      </trkpt>
      <trkpt lat="43.03249" lon="1.52408">
        <ele>446.6</ele>
        <time>2024-06-23T09:50:13Z</time>
      </trkpt>
      <trkpt lat="43.03251" lon="1.524">
        <ele>446</ele>
        <time>2024-06-23T09:50:14Z</time>
      </trkpt>
      <trkpt lat="43.03253" lon="1.52391">
        <ele>446</ele>
        <time>2024-06-23T09:50:15Z</time>
      </trkpt>
      <trkpt lat="43.03255" lon="1.52382">
        <ele>446</ele>
        <time>2024-06-23T09:50:16Z</time>
      </trkpt>
      <trkpt lat="43.03257" lon="1.52374">
        <ele>446</ele>
        <time>2024-06-23T09:50:17Z</time>
      </trkpt>
      <trkpt lat="43.0326" lon="1.52366">
        <ele>446</ele>
        <time>2024-06-23T09:50:18Z</time>
      </trkpt>
      <trkpt lat="43.03263" lon="1.52358">
        <ele>446</ele>
        <time>2024-06-23T09:50:19Z</time>
      </trkpt>
      <trkpt lat="43.03266" lon="1.52349">
        <ele>446</ele>
        <time>2024-06-23T09:50:20Z</time>
      </trkpt>
      <trkpt lat="43.0327" lon="1.52342">
        <ele>445.6</ele>
        <time>2024-06-23T09:50:21Z</time>
      </trkpt>
      <trkpt lat="43.03273" lon="1.52334">
        <ele>445.6</ele>
        <time>2024-06-23T09:50:22Z</time>
      </trkpt>
      <trkpt lat="43.03277" lon="1.52326">
        <ele>445.4</ele>
        <time>2024-06-23T09:50:23Z</time>
      </trkpt>
      <trkpt lat="43.0328" lon="1.52318">
        <ele>445.4</ele>
        <time>2024-06-23T09:50:24Z</time>
      </trkpt>
      <trkpt lat="43.03284" lon="1.5231">
        <ele>445</ele>
        <time>2024-06-23T09:50:25Z</time>
      </trkpt>
      <trkpt lat="43.03287" lon="1.52301">
        <ele>444.8</ele>
        <time>2024-06-23T09:50:26Z</time>
      </trkpt>
      <trkpt lat="43.0329" lon="1.52293">
        <ele>444.8</ele>
        <time>2024-06-23T09:50:27Z</time>
      </trkpt>
      <trkpt lat="43.03295" lon="1.52284">
        <ele>444.4</ele>
        <time>2024-06-23T09:50:28Z</time>
      </trkpt>
      <trkpt lat="43.03298" lon="1.52276">
        <ele>444.2</ele>
        <time>2024-06-23T09:50:29Z</time>
      </trkpt>
      <trkpt lat="43.03301" lon="1.52267">
        <ele>444</ele>
        <time>2024-06-23T09:50:30Z</time>
      </trkpt>
      <trkpt lat="43.03305" lon="1.52258">
        <ele>443.6</ele>
        <time>2024-06-23T09:50:31Z</time>
      </trkpt>
      <trkpt lat="43.03308" lon="1.52248">
        <ele>443.4</ele>
        <time>2024-06-23T09:50:32Z</time>
      </trkpt>
      <trkpt lat="43.03311" lon="1.5224">
        <ele>443.4</ele>
        <time>2024-06-23T09:50:33Z</time>
      </trkpt>
      <trkpt lat="43.03315" lon="1.52231">
        <ele>443.4</ele>
        <time>2024-06-23T09:50:34Z</time>
      </trkpt>
      <trkpt lat="43.03319" lon="1.52223">
        <ele>443.4</ele>
        <time>2024-06-23T09:50:35Z</time>
      </trkpt>
      <trkpt lat="43.03322" lon="1.52214">
        <ele>443.8</ele>
        <time>2024-06-23T09:50:36Z</time>
      </trkpt>
      <trkpt lat="43.03326" lon="1.52207">
        <ele>443.8</ele>
        <time>2024-06-23T09:50:37Z</time>
      </trkpt>
      <trkpt lat="43.03329" lon="1.52198">
        <ele>443.4</ele>
        <time>2024-06-23T09:50:38Z</time>
      </trkpt>
      <trkpt lat="43.03333" lon="1.5219">
        <ele>443.4</ele>
        <time>2024-06-23T09:50:39Z</time>
      </trkpt>
      <trkpt lat="43.03336" lon="1.52181">
        <ele>443.2</ele>
        <time>2024-06-23T09:50:40Z</time>
      </trkpt>
      <trkpt lat="43.0334" lon="1.52173">
        <ele>443</ele>
        <time>2024-06-23T09:50:41Z</time>
      </trkpt>
      <trkpt lat="43.03343" lon="1.52164">
        <ele>443</ele>
        <time>2024-06-23T09:50:42Z</time>
      </trkpt>
      <trkpt lat="43.03345" lon="1.52155">
        <ele>442.8</ele>
        <time>2024-06-23T09:50:43Z</time>
      </trkpt>
      <trkpt lat="43.03348" lon="1.52146">
        <ele>442.4</ele>
        <time>2024-06-23T09:50:44Z</time>
      </trkpt>
      <trkpt lat="43.03351" lon="1.52137">
        <ele>442.4</ele>
        <time>2024-06-23T09:50:45Z</time>
      </trkpt>
      <trkpt lat="43.03354" lon="1.52129">
        <ele>442.4</ele>
        <time>2024-06-23T09:50:46Z</time>
      </trkpt>
      <trkpt lat="43.03357" lon="1.5212">
        <ele>442.4</ele>
        <time>2024-06-23T09:50:47Z</time>
      </trkpt>
      <trkpt lat="43.0336" lon="1.52111">
        <ele>442.4</ele>
        <time>2024-06-23T09:50:48Z</time>
      </trkpt>
      <trkpt lat="43.03365" lon="1.52093">
        <ele>442.2</ele>
        <time>2024-06-23T09:50:49Z</time>
      </trkpt>
      <trkpt lat="43.03369" lon="1.52084">
        <ele>442.2</ele>
        <time>2024-06-23T09:50:50Z</time>
      </trkpt>
      <trkpt lat="43.03372" lon="1.52075">
        <ele>442</ele>
        <time>2024-06-23T09:50:51Z</time>
      </trkpt>
      <trkpt lat="43.03375" lon="1.52067">
        <ele>441.4</ele>
        <time>2024-06-23T09:50:52Z</time>
      </trkpt>
      <trkpt lat="43.03379" lon="1.52059">
        <ele>441.4</ele>
        <time>2024-06-23T09:50:53Z</time>
      </trkpt>
      <trkpt lat="43.03383" lon="1.5205">
        <ele>441.4</ele>
        <time>2024-06-23T09:50:54Z</time>
      </trkpt>
      <trkpt lat="43.03387" lon="1.52042">
        <ele>441.4</ele>
        <time>2024-06-23T09:50:55Z</time>
      </trkpt>
      <trkpt lat="43.03392" lon="1.52035">
        <ele>441.2</ele>
        <time>2024-06-23T09:50:56Z</time>
      </trkpt>
      <trkpt lat="43.03396" lon="1.52028">
        <ele>441.2</ele>
        <time>2024-06-23T09:50:57Z</time>
      </trkpt>
      <trkpt lat="43.03401" lon="1.52021">
        <ele>441.2</ele>
        <time>2024-06-23T09:50:58Z</time>
      </trkpt>
      <trkpt lat="43.03405" lon="1.52016">
        <ele>440.8</ele>
        <time>2024-06-23T09:50:59Z</time>
      </trkpt>
      <trkpt lat="43.0341" lon="1.52012">
        <ele>440.8</ele>
        <time>2024-06-23T09:51:00Z</time>
      </trkpt>
      <trkpt lat="43.03418" lon="1.52002">
        <ele>440.6</ele>
        <time>2024-06-23T09:51:01Z</time>
      </trkpt>
      <trkpt lat="43.03423" lon="1.51996">
        <ele>440.2</ele>
        <time>2024-06-23T09:51:02Z</time>
      </trkpt>
      <trkpt lat="43.03428" lon="1.51989">
        <ele>440.2</ele>
        <time>2024-06-23T09:51:03Z</time>
      </trkpt>
      <trkpt lat="43.03432" lon="1.51981">
        <ele>440.6</ele>
        <time>2024-06-23T09:51:04Z</time>
      </trkpt>
      <trkpt lat="43.03436" lon="1.51973">
        <ele>440.6</ele>
        <time>2024-06-23T09:51:05Z</time>
      </trkpt>
      <trkpt lat="43.0344" lon="1.51964">
        <ele>440.4</ele>
        <time>2024-06-23T09:51:06Z</time>
      </trkpt>
      <trkpt lat="43.03442" lon="1.51955">
        <ele>440.4</ele>
        <time>2024-06-23T09:51:07Z</time>
      </trkpt>
      <trkpt lat="43.03444" lon="1.51946">
        <ele>440.4</ele>
        <time>2024-06-23T09:51:08Z</time>
      </trkpt>
      <trkpt lat="43.03446" lon="1.51937">
        <ele>440.2</ele>
        <time>2024-06-23T09:51:09Z</time>
      </trkpt>
      <trkpt lat="43.03448" lon="1.51927">
        <ele>439.8</ele>
        <time>2024-06-23T09:51:10Z</time>
      </trkpt>
      <trkpt lat="43.0345" lon="1.51918">
        <ele>439.8</ele>
        <time>2024-06-23T09:51:11Z</time>
      </trkpt>
      <trkpt lat="43.03453" lon="1.51909">
        <ele>439.8</ele>
        <time>2024-06-23T09:51:12Z</time>
      </trkpt>
      <trkpt lat="43.03456" lon="1.519">
        <ele>439.8</ele>
        <time>2024-06-23T09:51:13Z</time>
      </trkpt>
      <trkpt lat="43.03459" lon="1.51892">
        <ele>439.4</ele>
        <time>2024-06-23T09:51:14Z</time>
      </trkpt>
      <trkpt lat="43.03463" lon="1.51883">
        <ele>439.4</ele>
        <time>2024-06-23T09:51:15Z</time>
      </trkpt>
      <trkpt lat="43.03466" lon="1.51874">
        <ele>439.4</ele>
        <time>2024-06-23T09:51:16Z</time>
      </trkpt>
      <trkpt lat="43.03469" lon="1.51867">
        <ele>439.4</ele>
        <time>2024-06-23T09:51:17Z</time>
      </trkpt>
      <trkpt lat="43.03472" lon="1.51858">
        <ele>439.2</ele>
        <time>2024-06-23T09:51:18Z</time>
      </trkpt>
      <trkpt lat="43.03475" lon="1.51849">
        <ele>439</ele>
        <time>2024-06-23T09:51:19Z</time>
      </trkpt>
      <trkpt lat="43.03479" lon="1.51841">
        <ele>439</ele>
        <time>2024-06-23T09:51:20Z</time>
      </trkpt>
      <trkpt lat="43.03482" lon="1.51833">
        <ele>439</ele>
        <time>2024-06-23T09:51:21Z</time>
      </trkpt>
      <trkpt lat="43.03485" lon="1.51824">
        <ele>438.6</ele>
        <time>2024-06-23T09:51:22Z</time>
      </trkpt>
      <trkpt lat="43.03488" lon="1.51815">
        <ele>438.6</ele>
        <time>2024-06-23T09:51:23Z</time>
      </trkpt>
      <trkpt lat="43.03491" lon="1.51806">
        <ele>438</ele>
        <time>2024-06-23T09:51:24Z</time>
      </trkpt>
      <trkpt lat="43.03495" lon="1.51797">
        <ele>438</ele>
        <time>2024-06-23T09:51:25Z</time>
      </trkpt>
      <trkpt lat="43.03499" lon="1.51788">
        <ele>437.8</ele>
        <time>2024-06-23T09:51:26Z</time>
      </trkpt>
      <trkpt lat="43.03503" lon="1.51779">
        <ele>437.8</ele>
        <time>2024-06-23T09:51:27Z</time>
      </trkpt>
      <trkpt lat="43.03506" lon="1.51771">
        <ele>437.8</ele>
        <time>2024-06-23T09:51:28Z</time>
      </trkpt>
      <trkpt lat="43.03509" lon="1.51763">
        <ele>437.8</ele>
        <time>2024-06-23T09:51:29Z</time>
      </trkpt>
      <trkpt lat="43.03512" lon="1.51755">
        <ele>437.8</ele>
        <time>2024-06-23T09:51:30Z</time>
      </trkpt>
      <trkpt lat="43.03516" lon="1.51747">
        <ele>437.8</ele>
        <time>2024-06-23T09:51:31Z</time>
      </trkpt>
      <trkpt lat="43.03519" lon="1.5174">
        <ele>437.6</ele>
        <time>2024-06-23T09:51:32Z</time>
      </trkpt>
      <trkpt lat="43.03522" lon="1.51732">
        <ele>437.6</ele>
        <time>2024-06-23T09:51:33Z</time>
      </trkpt>
      <trkpt lat="43.03524" lon="1.51725">
        <ele>437.6</ele>
        <time>2024-06-23T09:51:34Z</time>
      </trkpt>
      <trkpt lat="43.03527" lon="1.51717">
        <ele>437.6</ele>
        <time>2024-06-23T09:51:35Z</time>
      </trkpt>
      <trkpt lat="43.03529" lon="1.51709">
        <ele>437.6</ele>
        <time>2024-06-23T09:51:36Z</time>
      </trkpt>
      <trkpt lat="43.03532" lon="1.517">
        <ele>437.6</ele>
        <time>2024-06-23T09:51:37Z</time>
      </trkpt>
      <trkpt lat="43.03535" lon="1.51693">
        <ele>438</ele>
        <time>2024-06-23T09:51:38Z</time>
      </trkpt>
      <trkpt lat="43.0354" lon="1.51686">
        <ele>438</ele>
        <time>2024-06-23T09:51:39Z</time>
      </trkpt>
      <trkpt lat="43.03543" lon="1.51679">
        <ele>438</ele>
        <time>2024-06-23T09:51:40Z</time>
      </trkpt>
      <trkpt lat="43.03548" lon="1.51672">
        <ele>438</ele>
        <time>2024-06-23T09:51:41Z</time>
      </trkpt>
      <trkpt lat="43.03551" lon="1.51665">
        <ele>437.6</ele>
        <time>2024-06-23T09:51:42Z</time>
      </trkpt>
      <trkpt lat="43.03555" lon="1.51658">
        <ele>437.6</ele>
        <time>2024-06-23T09:51:43Z</time>
      </trkpt>
      <trkpt lat="43.03558" lon="1.51649">
        <ele>437.6</ele>
        <time>2024-06-23T09:51:44Z</time>
      </trkpt>
      <trkpt lat="43.03561" lon="1.51642">
        <ele>437.6</ele>
        <time>2024-06-23T09:51:45Z</time>
      </trkpt>
      <trkpt lat="43.03564" lon="1.51634">
        <ele>437.6</ele>
        <time>2024-06-23T09:51:46Z</time>
      </trkpt>
      <trkpt lat="43.03567" lon="1.51626">
        <ele>437.4</ele>
        <time>2024-06-23T09:51:47Z</time>
      </trkpt>
      <trkpt lat="43.0357" lon="1.51619">
        <ele>437.4</ele>
        <time>2024-06-23T09:51:48Z</time>
      </trkpt>
      <trkpt lat="43.03574" lon="1.51611">
        <ele>437.4</ele>
        <time>2024-06-23T09:51:49Z</time>
      </trkpt>
      <trkpt lat="43.03578" lon="1.51604">
        <ele>437.4</ele>
        <time>2024-06-23T09:51:50Z</time>
      </trkpt>
      <trkpt lat="43.03582" lon="1.51597">
        <ele>437.2</ele>
        <time>2024-06-23T09:51:51Z</time>
      </trkpt>
      <trkpt lat="43.03586" lon="1.5159">
        <ele>436.8</ele>
        <time>2024-06-23T09:51:52Z</time>
      </trkpt>
      <trkpt lat="43.03591" lon="1.51584">
        <ele>437</ele>
        <time>2024-06-23T09:51:53Z</time>
      </trkpt>
      <trkpt lat="43.03596" lon="1.51578">
        <ele>436.8</ele>
        <time>2024-06-23T09:51:54Z</time>
      </trkpt>
      <trkpt lat="43.03601" lon="1.51572">
        <ele>436.8</ele>
        <time>2024-06-23T09:51:55Z</time>
      </trkpt>
      <trkpt lat="43.03605" lon="1.51565">
        <ele>436.4</ele>
        <time>2024-06-23T09:51:56Z</time>
      </trkpt>
      <trkpt lat="43.03611" lon="1.51559">
        <ele>436.2</ele>
        <time>2024-06-23T09:51:57Z</time>
      </trkpt>
      <trkpt lat="43.03616" lon="1.51553">
        <ele>436.2</ele>
        <time>2024-06-23T09:51:58Z</time>
      </trkpt>
      <trkpt lat="43.03621" lon="1.51547">
        <ele>436.2</ele>
        <time>2024-06-23T09:51:59Z</time>
      </trkpt>
      <trkpt lat="43.03626" lon="1.51541">
        <ele>435.8</ele>
        <time>2024-06-23T09:52:00Z</time>
      </trkpt>
      <trkpt lat="43.03631" lon="1.51534">
        <ele>435.8</ele>
        <time>2024-06-23T09:52:01Z</time>
      </trkpt>
      <trkpt lat="43.03636" lon="1.51528">
        <ele>435.6</ele>
        <time>2024-06-23T09:52:02Z</time>
      </trkpt>
      <trkpt lat="43.03642" lon="1.51522">
        <ele>435.6</ele>
        <time>2024-06-23T09:52:03Z</time>
      </trkpt>
      <trkpt lat="43.03647" lon="1.51515">
        <ele>435.2</ele>
        <time>2024-06-23T09:52:04Z</time>
      </trkpt>
      <trkpt lat="43.03652" lon="1.51508">
        <ele>435.2</ele>
        <time>2024-06-23T09:52:05Z</time>
      </trkpt>
      <trkpt lat="43.03658" lon="1.51501">
        <ele>435.2</ele>
        <time>2024-06-23T09:52:06Z</time>
      </trkpt>
      <trkpt lat="43.03663" lon="1.51494">
        <ele>434.8</ele>
        <time>2024-06-23T09:52:07Z</time>
      </trkpt>
      <trkpt lat="43.03668" lon="1.51487">
        <ele>434.8</ele>
        <time>2024-06-23T09:52:08Z</time>
      </trkpt>
      <trkpt lat="43.03673" lon="1.5148">
        <ele>434.8</ele>
        <time>2024-06-23T09:52:09Z</time>
      </trkpt>
      <trkpt lat="43.03679" lon="1.51474">
        <ele>434.4</ele>
        <time>2024-06-23T09:52:10Z</time>
      </trkpt>
      <trkpt lat="43.03685" lon="1.51467">
        <ele>434.4</ele>
        <time>2024-06-23T09:52:11Z</time>
      </trkpt>
      <trkpt lat="43.0369" lon="1.5146">
        <ele>434</ele>
        <time>2024-06-23T09:52:12Z</time>
      </trkpt>
      <trkpt lat="43.03694" lon="1.51454">
        <ele>434</ele>
        <time>2024-06-23T09:52:13Z</time>
      </trkpt>
      <trkpt lat="43.03699" lon="1.51448">
        <ele>434</ele>
        <time>2024-06-23T09:52:14Z</time>
      </trkpt>
      <trkpt lat="43.03704" lon="1.5144">
        <ele>434</ele>
        <time>2024-06-23T09:52:15Z</time>
      </trkpt>
      <trkpt lat="43.03709" lon="1.51433">
        <ele>434</ele>
        <time>2024-06-23T09:52:16Z</time>
      </trkpt>
      <trkpt lat="43.03712" lon="1.51425">
        <ele>433.8</ele>
        <time>2024-06-23T09:52:17Z</time>
      </trkpt>
      <trkpt lat="43.03716" lon="1.51417">
        <ele>433.8</ele>
        <time>2024-06-23T09:52:18Z</time>
      </trkpt>
      <trkpt lat="43.03719" lon="1.51408">
        <ele>433.4</ele>
        <time>2024-06-23T09:52:19Z</time>
      </trkpt>
      <trkpt lat="43.03723" lon="1.51399">
        <ele>433.4</ele>
        <time>2024-06-23T09:52:20Z</time>
      </trkpt>
      <trkpt lat="43.03726" lon="1.5139">
        <ele>433.2</ele>
        <time>2024-06-23T09:52:21Z</time>
      </trkpt>
      <trkpt lat="43.03728" lon="1.51381">
        <ele>433.2</ele>
        <time>2024-06-23T09:52:22Z</time>
      </trkpt>
      <trkpt lat="43.03731" lon="1.51372">
        <ele>433</ele>
        <time>2024-06-23T09:52:23Z</time>
      </trkpt>
      <trkpt lat="43.03735" lon="1.51363">
        <ele>433</ele>
        <time>2024-06-23T09:52:24Z</time>
      </trkpt>
      <trkpt lat="43.03738" lon="1.51355">
        <ele>432.6</ele>
        <time>2024-06-23T09:52:25Z</time>
      </trkpt>
      <trkpt lat="43.03741" lon="1.51345">
        <ele>432.6</ele>
        <time>2024-06-23T09:52:26Z</time>
      </trkpt>
      <trkpt lat="43.03744" lon="1.51336">
        <ele>432.6</ele>
        <time>2024-06-23T09:52:27Z</time>
      </trkpt>
      <trkpt lat="43.03747" lon="1.51328">
        <ele>432.6</ele>
        <time>2024-06-23T09:52:28Z</time>
      </trkpt>
      <trkpt lat="43.03751" lon="1.51319">
        <ele>432.2</ele>
        <time>2024-06-23T09:52:29Z</time>
      </trkpt>
      <trkpt lat="43.03754" lon="1.5131">
        <ele>432.2</ele>
        <time>2024-06-23T09:52:30Z</time>
      </trkpt>
      <trkpt lat="43.03756" lon="1.51301">
        <ele>432.2</ele>
        <time>2024-06-23T09:52:31Z</time>
      </trkpt>
      <trkpt lat="43.03759" lon="1.51291">
        <ele>432</ele>
        <time>2024-06-23T09:52:32Z</time>
      </trkpt>
      <trkpt lat="43.03763" lon="1.51282">
        <ele>431.6</ele>
        <time>2024-06-23T09:52:33Z</time>
      </trkpt>
      <trkpt lat="43.03766" lon="1.51274">
        <ele>431.4</ele>
        <time>2024-06-23T09:52:34Z</time>
      </trkpt>
      <trkpt lat="43.03768" lon="1.51264">
        <ele>431.4</ele>
        <time>2024-06-23T09:52:35Z</time>
      </trkpt>
      <trkpt lat="43.03771" lon="1.51255">
        <ele>431</ele>
        <time>2024-06-23T09:52:36Z</time>
      </trkpt>
      <trkpt lat="43.03774" lon="1.51246">
        <ele>430.4</ele>
        <time>2024-06-23T09:52:37Z</time>
      </trkpt>
      <trkpt lat="43.03776" lon="1.51237">
        <ele>430.4</ele>
        <time>2024-06-23T09:52:38Z</time>
      </trkpt>
      <trkpt lat="43.0378" lon="1.51229">
        <ele>430.4</ele>
        <time>2024-06-23T09:52:39Z</time>
      </trkpt>
      <trkpt lat="43.03783" lon="1.51222">
        <ele>430.4</ele>
        <time>2024-06-23T09:52:40Z</time>
      </trkpt>
      <trkpt lat="43.03786" lon="1.51214">
        <ele>430.4</ele>
        <time>2024-06-23T09:52:41Z</time>
      </trkpt>
      <trkpt lat="43.03788" lon="1.51206">
        <ele>430</ele>
        <time>2024-06-23T09:52:42Z</time>
      </trkpt>
      <trkpt lat="43.03791" lon="1.51199">
        <ele>430</ele>
        <time>2024-06-23T09:52:43Z</time>
      </trkpt>
      <trkpt lat="43.03795" lon="1.5119">
        <ele>429.6</ele>
        <time>2024-06-23T09:52:44Z</time>
      </trkpt>
      <trkpt lat="43.03798" lon="1.51182">
        <ele>429.6</ele>
        <time>2024-06-23T09:52:45Z</time>
      </trkpt>
      <trkpt lat="43.03803" lon="1.51175">
        <ele>429.6</ele>
        <time>2024-06-23T09:52:46Z</time>
      </trkpt>
      <trkpt lat="43.03807" lon="1.51168">
        <ele>429.2</ele>
        <time>2024-06-23T09:52:47Z</time>
      </trkpt>
      <trkpt lat="43.03811" lon="1.51161">
        <ele>428.8</ele>
        <time>2024-06-23T09:52:48Z</time>
      </trkpt>
      <trkpt lat="43.03816" lon="1.51153">
        <ele>428.6</ele>
        <time>2024-06-23T09:52:49Z</time>
      </trkpt>
      <trkpt lat="43.03821" lon="1.51146">
        <ele>428.2</ele>
        <time>2024-06-23T09:52:50Z</time>
      </trkpt>
      <trkpt lat="43.03826" lon="1.51138">
        <ele>427.6</ele>
        <time>2024-06-23T09:52:51Z</time>
      </trkpt>
      <trkpt lat="43.0383" lon="1.51129">
        <ele>427.6</ele>
        <time>2024-06-23T09:52:52Z</time>
      </trkpt>
      <trkpt lat="43.03834" lon="1.5112">
        <ele>427</ele>
        <time>2024-06-23T09:52:53Z</time>
      </trkpt>
      <trkpt lat="43.03837" lon="1.51109">
        <ele>426.6</ele>
        <time>2024-06-23T09:52:54Z</time>
      </trkpt>
      <trkpt lat="43.0384" lon="1.51099">
        <ele>426</ele>
        <time>2024-06-23T09:52:55Z</time>
      </trkpt>
      <trkpt lat="43.03843" lon="1.51088">
        <ele>425.8</ele>
        <time>2024-06-23T09:52:56Z</time>
      </trkpt>
      <trkpt lat="43.03845" lon="1.51078">
        <ele>425.2</ele>
        <time>2024-06-23T09:52:57Z</time>
      </trkpt>
      <trkpt lat="43.03846" lon="1.51067">
        <ele>425</ele>
        <time>2024-06-23T09:52:58Z</time>
      </trkpt>
      <trkpt lat="43.03848" lon="1.51057">
        <ele>424.4</ele>
        <time>2024-06-23T09:52:59Z</time>
      </trkpt>
      <trkpt lat="43.0385" lon="1.51046">
        <ele>424</ele>
        <time>2024-06-23T09:53:00Z</time>
      </trkpt>
      <trkpt lat="43.03853" lon="1.51037">
        <ele>423.8</ele>
        <time>2024-06-23T09:53:01Z</time>
      </trkpt>
      <trkpt lat="43.03857" lon="1.51027">
        <ele>423.4</ele>
        <time>2024-06-23T09:53:02Z</time>
      </trkpt>
      <trkpt lat="43.03861" lon="1.51019">
        <ele>423</ele>
        <time>2024-06-23T09:53:03Z</time>
      </trkpt>
      <trkpt lat="43.03867" lon="1.51011">
        <ele>422.8</ele>
        <time>2024-06-23T09:53:04Z</time>
      </trkpt>
      <trkpt lat="43.03872" lon="1.51004">
        <ele>422.4</ele>
        <time>2024-06-23T09:53:05Z</time>
      </trkpt>
      <trkpt lat="43.03878" lon="1.50996">
        <ele>422.4</ele>
        <time>2024-06-23T09:53:06Z</time>
      </trkpt>
      <trkpt lat="43.03884" lon="1.50989">
        <ele>421.8</ele>
        <time>2024-06-23T09:53:07Z</time>
      </trkpt>
      <trkpt lat="43.03889" lon="1.50981">
        <ele>421.4</ele>
        <time>2024-06-23T09:53:08Z</time>
      </trkpt>
      <trkpt lat="43.03894" lon="1.50973">
        <ele>420.8</ele>
        <time>2024-06-23T09:53:09Z</time>
      </trkpt>
      <trkpt lat="43.03899" lon="1.50965">
        <ele>420.4</ele>
        <time>2024-06-23T09:53:10Z</time>
      </trkpt>
      <trkpt lat="43.03904" lon="1.50956">
        <ele>420.4</ele>
        <time>2024-06-23T09:53:11Z</time>
      </trkpt>
      <trkpt lat="43.03908" lon="1.50947">
        <ele>420.2</ele>
        <time>2024-06-23T09:53:12Z</time>
      </trkpt>
      <trkpt lat="43.03913" lon="1.50938">
        <ele>419.6</ele>
        <time>2024-06-23T09:53:13Z</time>
      </trkpt>
      <trkpt lat="43.03913" lon="1.50938">
        <ele>419.4</ele>
        <time>2024-06-23T09:53:14Z</time>
      </trkpt>
      <trkpt lat="43.03916" lon="1.50929">
        <ele>419.2</ele>
        <time>2024-06-23T09:53:15Z</time>
      </trkpt>
      <trkpt lat="43.0392" lon="1.50919">
        <ele>419.2</ele>
        <time>2024-06-23T09:53:16Z</time>
      </trkpt>
      <trkpt lat="43.03923" lon="1.50908">
        <ele>418.8</ele>
        <time>2024-06-23T09:53:17Z</time>
      </trkpt>
      <trkpt lat="43.03926" lon="1.50899">
        <ele>418.6</ele>
        <time>2024-06-23T09:53:18Z</time>
      </trkpt>
      <trkpt lat="43.0393" lon="1.5089">
        <ele>418.6</ele>
        <time>2024-06-23T09:53:19Z</time>
      </trkpt>
      <trkpt lat="43.03933" lon="1.50881">
        <ele>418.2</ele>
        <time>2024-06-23T09:53:20Z</time>
      </trkpt>
      <trkpt lat="43.03937" lon="1.50872">
        <ele>417.8</ele>
        <time>2024-06-23T09:53:21Z</time>
      </trkpt>
      <trkpt lat="43.0394" lon="1.50862">
        <ele>417.6</ele>
        <time>2024-06-23T09:53:22Z</time>
      </trkpt>
      <trkpt lat="43.03943" lon="1.50852">
        <ele>417.2</ele>
        <time>2024-06-23T09:53:23Z</time>
      </trkpt>
      <trkpt lat="43.03946" lon="1.50843">
        <ele>416.8</ele>
        <time>2024-06-23T09:53:24Z</time>
      </trkpt>
      <trkpt lat="43.0395" lon="1.50834">
        <ele>416.4</ele>
        <time>2024-06-23T09:53:25Z</time>
      </trkpt>
      <trkpt lat="43.03953" lon="1.50825">
        <ele>416.2</ele>
        <time>2024-06-23T09:53:26Z</time>
      </trkpt>
      <trkpt lat="43.03956" lon="1.50815">
        <ele>416</ele>
        <time>2024-06-23T09:53:27Z</time>
      </trkpt>
      <trkpt lat="43.03959" lon="1.50806">
        <ele>415.4</ele>
        <time>2024-06-23T09:53:28Z</time>
      </trkpt>
      <trkpt lat="43.03962" lon="1.50796">
        <ele>415.8</ele>
        <time>2024-06-23T09:53:29Z</time>
      </trkpt>
      <trkpt lat="43.03964" lon="1.50787">
        <ele>415.8</ele>
        <time>2024-06-23T09:53:30Z</time>
      </trkpt>
      <trkpt lat="43.03966" lon="1.50778">
        <ele>415.4</ele>
        <time>2024-06-23T09:53:31Z</time>
      </trkpt>
      <trkpt lat="43.03968" lon="1.50769">
        <ele>415.4</ele>
        <time>2024-06-23T09:53:32Z</time>
      </trkpt>
      <trkpt lat="43.0397" lon="1.5076">
        <ele>415.4</ele>
        <time>2024-06-23T09:53:33Z</time>
      </trkpt>
      <trkpt lat="43.03971" lon="1.5075">
        <ele>415</ele>
        <time>2024-06-23T09:53:34Z</time>
      </trkpt>
      <trkpt lat="43.03973" lon="1.50741">
        <ele>415.2</ele>
        <time>2024-06-23T09:53:35Z</time>
      </trkpt>
      <trkpt lat="43.03975" lon="1.50732">
        <ele>415</ele>
        <time>2024-06-23T09:53:36Z</time>
      </trkpt>
      <trkpt lat="43.03978" lon="1.50722">
        <ele>415</ele>
        <time>2024-06-23T09:53:37Z</time>
      </trkpt>
      <trkpt lat="43.03983" lon="1.50714">
        <ele>415</ele>
        <time>2024-06-23T09:53:38Z</time>
      </trkpt>
      <trkpt lat="43.03987" lon="1.50707">
        <ele>414.8</ele>
        <time>2024-06-23T09:53:39Z</time>
      </trkpt>
      <trkpt lat="43.03992" lon="1.50699">
        <ele>414.4</ele>
        <time>2024-06-23T09:53:40Z</time>
      </trkpt>
      <trkpt lat="43.03997" lon="1.50692">
        <ele>414</ele>
        <time>2024-06-23T09:53:41Z</time>
      </trkpt>
      <trkpt lat="43.04003" lon="1.50684">
        <ele>414</ele>
        <time>2024-06-23T09:53:42Z</time>
      </trkpt>
      <trkpt lat="43.04009" lon="1.50677">
        <ele>414</ele>
        <time>2024-06-23T09:53:43Z</time>
      </trkpt>
      <trkpt lat="43.04013" lon="1.5067">
        <ele>414</ele>
        <time>2024-06-23T09:53:44Z</time>
      </trkpt>
      <trkpt lat="43.04019" lon="1.50662">
        <ele>413.6</ele>
        <time>2024-06-23T09:53:45Z</time>
      </trkpt>
      <trkpt lat="43.04023" lon="1.50654">
        <ele>413.6</ele>
        <time>2024-06-23T09:53:46Z</time>
      </trkpt>
      <trkpt lat="43.04027" lon="1.50645">
        <ele>413.4</ele>
        <time>2024-06-23T09:53:47Z</time>
      </trkpt>
      <trkpt lat="43.04031" lon="1.50636">
        <ele>413</ele>
        <time>2024-06-23T09:53:48Z</time>
      </trkpt>
      <trkpt lat="43.04035" lon="1.50627">
        <ele>412.6</ele>
        <time>2024-06-23T09:53:49Z</time>
      </trkpt>
      <trkpt lat="43.04039" lon="1.50619">
        <ele>412.6</ele>
        <time>2024-06-23T09:53:50Z</time>
      </trkpt>
      <trkpt lat="43.04043" lon="1.5061">
        <ele>412.4</ele>
        <time>2024-06-23T09:53:51Z</time>
      </trkpt>
      <trkpt lat="43.04047" lon="1.50602">
        <ele>412.4</ele>
        <time>2024-06-23T09:53:52Z</time>
      </trkpt>
      <trkpt lat="43.0405" lon="1.50593">
        <ele>412.4</ele>
        <time>2024-06-23T09:53:53Z</time>
      </trkpt>
      <trkpt lat="43.04054" lon="1.50584">
        <ele>412</ele>
        <time>2024-06-23T09:53:54Z</time>
      </trkpt>
      <trkpt lat="43.04058" lon="1.50576">
        <ele>412</ele>
        <time>2024-06-23T09:53:55Z</time>
      </trkpt>
      <trkpt lat="43.04062" lon="1.50567">
        <ele>411.6</ele>
        <time>2024-06-23T09:53:56Z</time>
      </trkpt>
      <trkpt lat="43.04066" lon="1.50558">
        <ele>411.2</ele>
        <time>2024-06-23T09:53:57Z</time>
      </trkpt>
      <trkpt lat="43.04069" lon="1.50549">
        <ele>411</ele>
        <time>2024-06-23T09:53:58Z</time>
      </trkpt>
      <trkpt lat="43.04073" lon="1.50541">
        <ele>410.8</ele>
        <time>2024-06-23T09:53:59Z</time>
      </trkpt>
      <trkpt lat="43.04077" lon="1.50532">
        <ele>410.8</ele>
        <time>2024-06-23T09:54:00Z</time>
      </trkpt>
      <trkpt lat="43.04081" lon="1.50524">
        <ele>410.4</ele>
        <time>2024-06-23T09:54:01Z</time>
      </trkpt>
      <trkpt lat="43.04085" lon="1.50516">
        <ele>410.4</ele>
        <time>2024-06-23T09:54:02Z</time>
      </trkpt>
      <trkpt lat="43.04089" lon="1.50508">
        <ele>410.2</ele>
        <time>2024-06-23T09:54:03Z</time>
      </trkpt>
      <trkpt lat="43.04093" lon="1.50499">
        <ele>409.8</ele>
        <time>2024-06-23T09:54:04Z</time>
      </trkpt>
      <trkpt lat="43.04097" lon="1.50491">
        <ele>409.6</ele>
        <time>2024-06-23T09:54:05Z</time>
      </trkpt>
      <trkpt lat="43.041" lon="1.50482">
        <ele>409.6</ele>
        <time>2024-06-23T09:54:06Z</time>
      </trkpt>
      <trkpt lat="43.04104" lon="1.50474">
        <ele>409.6</ele>
        <time>2024-06-23T09:54:07Z</time>
      </trkpt>
      <trkpt lat="43.04108" lon="1.50466">
        <ele>409.2</ele>
        <time>2024-06-23T09:54:08Z</time>
      </trkpt>
      <trkpt lat="43.04112" lon="1.50457">
        <ele>409</ele>
        <time>2024-06-23T09:54:09Z</time>
      </trkpt>
      <trkpt lat="43.04115" lon="1.50448">
        <ele>409</ele>
        <time>2024-06-23T09:54:10Z</time>
      </trkpt>
      <trkpt lat="43.04119" lon="1.5044">
        <ele>409</ele>
        <time>2024-06-23T09:54:11Z</time>
      </trkpt>
      <trkpt lat="43.04122" lon="1.50431">
        <ele>408.8</ele>
        <time>2024-06-23T09:54:12Z</time>
      </trkpt>
      <trkpt lat="43.04125" lon="1.50422">
        <ele>408.8</ele>
        <time>2024-06-23T09:54:13Z</time>
      </trkpt>
      <trkpt lat="43.04128" lon="1.50413">
        <ele>408.8</ele>
        <time>2024-06-23T09:54:14Z</time>
      </trkpt>
      <trkpt lat="43.0413" lon="1.50404">
        <ele>408.6</ele>
        <time>2024-06-23T09:54:15Z</time>
      </trkpt>
      <trkpt lat="43.04133" lon="1.50395">
        <ele>408.2</ele>
        <time>2024-06-23T09:54:16Z</time>
      </trkpt>
      <trkpt lat="43.04135" lon="1.50386">
        <ele>408.2</ele>
        <time>2024-06-23T09:54:17Z</time>
      </trkpt>
      <trkpt lat="43.04137" lon="1.50377">
        <ele>407.6</ele>
        <time>2024-06-23T09:54:18Z</time>
      </trkpt>
      <trkpt lat="43.04139" lon="1.50368">
        <ele>407.6</ele>
        <time>2024-06-23T09:54:19Z</time>
      </trkpt>
      <trkpt lat="43.04141" lon="1.5036">
        <ele>407.6</ele>
        <time>2024-06-23T09:54:20Z</time>
      </trkpt>
      <trkpt lat="43.04145" lon="1.50351">
        <ele>407.6</ele>
        <time>2024-06-23T09:54:21Z</time>
      </trkpt>
      <trkpt lat="43.04148" lon="1.50343">
        <ele>407.2</ele>
        <time>2024-06-23T09:54:22Z</time>
      </trkpt>
      <trkpt lat="43.04153" lon="1.50336">
        <ele>407.2</ele>
        <time>2024-06-23T09:54:23Z</time>
      </trkpt>
      <trkpt lat="43.04157" lon="1.50329">
        <ele>406.4</ele>
        <time>2024-06-23T09:54:24Z</time>
      </trkpt>
      <trkpt lat="43.04162" lon="1.50322">
        <ele>406.4</ele>
        <time>2024-06-23T09:54:25Z</time>
      </trkpt>
      <trkpt lat="43.04167" lon="1.50315">
        <ele>406.6</ele>
        <time>2024-06-23T09:54:26Z</time>
      </trkpt>
      <trkpt lat="43.04171" lon="1.50307">
        <ele>406.6</ele>
        <time>2024-06-23T09:54:27Z</time>
      </trkpt>
      <trkpt lat="43.04176" lon="1.503">
        <ele>406.6</ele>
        <time>2024-06-23T09:54:28Z</time>
      </trkpt>
      <trkpt lat="43.0418" lon="1.50293">
        <ele>406.4</ele>
        <time>2024-06-23T09:54:29Z</time>
      </trkpt>
      <trkpt lat="43.04184" lon="1.50286">
        <ele>406.4</ele>
        <time>2024-06-23T09:54:30Z</time>
      </trkpt>
      <trkpt lat="43.04189" lon="1.50279">
        <ele>406.4</ele>
        <time>2024-06-23T09:54:31Z</time>
      </trkpt>
      <trkpt lat="43.04193" lon="1.50271">
        <ele>406.2</ele>
        <time>2024-06-23T09:54:32Z</time>
      </trkpt>
      <trkpt lat="43.04197" lon="1.50263">
        <ele>406.2</ele>
        <time>2024-06-23T09:54:33Z</time>
      </trkpt>
      <trkpt lat="43.04205" lon="1.50248">
        <ele>406.2</ele>
        <time>2024-06-23T09:54:34Z</time>
      </trkpt>
      <trkpt lat="43.04209" lon="1.5024">
        <ele>405.8</ele>
        <time>2024-06-23T09:54:35Z</time>
      </trkpt>
      <trkpt lat="43.04213" lon="1.50232">
        <ele>405.6</ele>
        <time>2024-06-23T09:54:36Z</time>
      </trkpt>
      <trkpt lat="43.04217" lon="1.50225">
        <ele>405.6</ele>
        <time>2024-06-23T09:54:37Z</time>
      </trkpt>
      <trkpt lat="43.04221" lon="1.50216">
        <ele>405.6</ele>
        <time>2024-06-23T09:54:38Z</time>
      </trkpt>
      <trkpt lat="43.04225" lon="1.50208">
        <ele>405.6</ele>
        <time>2024-06-23T09:54:39Z</time>
      </trkpt>
      <trkpt lat="43.04228" lon="1.502">
        <ele>405.6</ele>
        <time>2024-06-23T09:54:40Z</time>
      </trkpt>
      <trkpt lat="43.04232" lon="1.50192">
        <ele>405.6</ele>
        <time>2024-06-23T09:54:41Z</time>
      </trkpt>
      <trkpt lat="43.04236" lon="1.50184">
        <ele>405.6</ele>
        <time>2024-06-23T09:54:42Z</time>
      </trkpt>
      <trkpt lat="43.0424" lon="1.50176">
        <ele>405.6</ele>
        <time>2024-06-23T09:54:43Z</time>
      </trkpt>
      <trkpt lat="43.04242" lon="1.50167">
        <ele>405.2</ele>
        <time>2024-06-23T09:54:44Z</time>
      </trkpt>
      <trkpt lat="43.04244" lon="1.50158">
        <ele>404.8</ele>
        <time>2024-06-23T09:54:45Z</time>
      </trkpt>
      <trkpt lat="43.04246" lon="1.50149">
        <ele>404.8</ele>
        <time>2024-06-23T09:54:46Z</time>
      </trkpt>
      <trkpt lat="43.04247" lon="1.5014">
        <ele>404.8</ele>
        <time>2024-06-23T09:54:47Z</time>
      </trkpt>
      <trkpt lat="43.04249" lon="1.5013">
        <ele>404.6</ele>
        <time>2024-06-23T09:54:48Z</time>
      </trkpt>
      <trkpt lat="43.0425" lon="1.50121">
        <ele>404.6</ele>
        <time>2024-06-23T09:54:49Z</time>
      </trkpt>
      <trkpt lat="43.04251" lon="1.50112">
        <ele>404.6</ele>
        <time>2024-06-23T09:54:50Z</time>
      </trkpt>
      <trkpt lat="43.04253" lon="1.50103">
        <ele>404.6</ele>
        <time>2024-06-23T09:54:51Z</time>
      </trkpt>
      <trkpt lat="43.04256" lon="1.50094">
        <ele>404.6</ele>
        <time>2024-06-23T09:54:52Z</time>
      </trkpt>
      <trkpt lat="43.0426" lon="1.50086">
        <ele>404.6</ele>
        <time>2024-06-23T09:54:53Z</time>
      </trkpt>
      <trkpt lat="43.04265" lon="1.50078">
        <ele>404.4</ele>
        <time>2024-06-23T09:54:54Z</time>
      </trkpt>
      <trkpt lat="43.04269" lon="1.50072">
        <ele>404.4</ele>
        <time>2024-06-23T09:54:55Z</time>
      </trkpt>
      <trkpt lat="43.04274" lon="1.50065">
        <ele>404</ele>
        <time>2024-06-23T09:54:56Z</time>
      </trkpt>
      <trkpt lat="43.04278" lon="1.50056">
        <ele>404</ele>
        <time>2024-06-23T09:54:57Z</time>
      </trkpt>
      <trkpt lat="43.04281" lon="1.50048">
        <ele>403.8</ele>
        <time>2024-06-23T09:54:58Z</time>
      </trkpt>
      <trkpt lat="43.04284" lon="1.5004">
        <ele>403.8</ele>
        <time>2024-06-23T09:54:59Z</time>
      </trkpt>
      <trkpt lat="43.04288" lon="1.50032">
        <ele>403.4</ele>
        <time>2024-06-23T09:55:00Z</time>
      </trkpt>
      <trkpt lat="43.04291" lon="1.50023">
        <ele>403.4</ele>
        <time>2024-06-23T09:55:01Z</time>
      </trkpt>
      <trkpt lat="43.04295" lon="1.50015">
        <ele>403.4</ele>
        <time>2024-06-23T09:55:02Z</time>
      </trkpt>
      <trkpt lat="43.04298" lon="1.50006">
        <ele>403</ele>
        <time>2024-06-23T09:55:03Z</time>
      </trkpt>
      <trkpt lat="43.04302" lon="1.49998">
        <ele>403</ele>
        <time>2024-06-23T09:55:04Z</time>
      </trkpt>
      <trkpt lat="43.04305" lon="1.49989">
        <ele>403.2</ele>
        <time>2024-06-23T09:55:05Z</time>
      </trkpt>
      <trkpt lat="43.04309" lon="1.4998">
        <ele>403.2</ele>
        <time>2024-06-23T09:55:06Z</time>
      </trkpt>
      <trkpt lat="43.04312" lon="1.49972">
        <ele>403</ele>
        <time>2024-06-23T09:55:07Z</time>
      </trkpt>
      <trkpt lat="43.04316" lon="1.49962">
        <ele>403</ele>
        <time>2024-06-23T09:55:08Z</time>
      </trkpt>
      <trkpt lat="43.04319" lon="1.49954">
        <ele>403</ele>
        <time>2024-06-23T09:55:09Z</time>
      </trkpt>
      <trkpt lat="43.04322" lon="1.49945">
        <ele>402.2</ele>
        <time>2024-06-23T09:55:10Z</time>
      </trkpt>
      <trkpt lat="43.04325" lon="1.49936">
        <ele>402</ele>
        <time>2024-06-23T09:55:11Z</time>
      </trkpt>
      <trkpt lat="43.04327" lon="1.49926">
        <ele>402</ele>
        <time>2024-06-23T09:55:12Z</time>
      </trkpt>
      <trkpt lat="43.04329" lon="1.49917">
        <ele>402</ele>
        <time>2024-06-23T09:55:13Z</time>
      </trkpt>
      <trkpt lat="43.04331" lon="1.49907">
        <ele>401.6</ele>
        <time>2024-06-23T09:55:14Z</time>
      </trkpt>
      <trkpt lat="43.04332" lon="1.49897">
        <ele>401.4</ele>
        <time>2024-06-23T09:55:15Z</time>
      </trkpt>
      <trkpt lat="43.04333" lon="1.49887">
        <ele>401</ele>
        <time>2024-06-23T09:55:16Z</time>
      </trkpt>
      <trkpt lat="43.04335" lon="1.49878">
        <ele>401</ele>
        <time>2024-06-23T09:55:17Z</time>
      </trkpt>
      <trkpt lat="43.04337" lon="1.49868">
        <ele>401</ele>
        <time>2024-06-23T09:55:18Z</time>
      </trkpt>
      <trkpt lat="43.0434" lon="1.49859">
        <ele>400.6</ele>
        <time>2024-06-23T09:55:19Z</time>
      </trkpt>
      <trkpt lat="43.04343" lon="1.49849">
        <ele>400.4</ele>
        <time>2024-06-23T09:55:20Z</time>
      </trkpt>
      <trkpt lat="43.04347" lon="1.49841">
        <ele>400.2</ele>
        <time>2024-06-23T09:55:21Z</time>
      </trkpt>
      <trkpt lat="43.04351" lon="1.49833">
        <ele>399.6</ele>
        <time>2024-06-23T09:55:22Z</time>
      </trkpt>
      <trkpt lat="43.04356" lon="1.49825">
        <ele>399.6</ele>
        <time>2024-06-23T09:55:23Z</time>
      </trkpt>
      <trkpt lat="43.04361" lon="1.49817">
        <ele>399.4</ele>
        <time>2024-06-23T09:55:24Z</time>
      </trkpt>
      <trkpt lat="43.04367" lon="1.49811">
        <ele>398.6</ele>
        <time>2024-06-23T09:55:25Z</time>
      </trkpt>
      <trkpt lat="43.04373" lon="1.49804">
        <ele>398.8</ele>
        <time>2024-06-23T09:55:26Z</time>
      </trkpt>
      <trkpt lat="43.04378" lon="1.49797">
        <ele>398.8</ele>
        <time>2024-06-23T09:55:27Z</time>
      </trkpt>
      <trkpt lat="43.04382" lon="1.4979">
        <ele>398.8</ele>
        <time>2024-06-23T09:55:28Z</time>
      </trkpt>
      <trkpt lat="43.04388" lon="1.49784">
        <ele>398.8</ele>
        <time>2024-06-23T09:55:29Z</time>
      </trkpt>
      <trkpt lat="43.04393" lon="1.49777">
        <ele>398.8</ele>
        <time>2024-06-23T09:55:30Z</time>
      </trkpt>
      <trkpt lat="43.04397" lon="1.4977">
        <ele>399.4</ele>
        <time>2024-06-23T09:55:31Z</time>
      </trkpt>
      <trkpt lat="43.04401" lon="1.49763">
        <ele>399</ele>
        <time>2024-06-23T09:55:32Z</time>
      </trkpt>
      <trkpt lat="43.04406" lon="1.49756">
        <ele>399.2</ele>
        <time>2024-06-23T09:55:33Z</time>
      </trkpt>
      <trkpt lat="43.04412" lon="1.49748">
        <ele>399.2</ele>
        <time>2024-06-23T09:55:34Z</time>
      </trkpt>
      <trkpt lat="43.04416" lon="1.4974">
        <ele>399.2</ele>
        <time>2024-06-23T09:55:35Z</time>
      </trkpt>
      <trkpt lat="43.04419" lon="1.4973">
        <ele>399.2</ele>
        <time>2024-06-23T09:55:36Z</time>
      </trkpt>
      <trkpt lat="43.04423" lon="1.49721">
        <ele>399.2</ele>
        <time>2024-06-23T09:55:37Z</time>
      </trkpt>
      <trkpt lat="43.04425" lon="1.49712">
        <ele>399.2</ele>
        <time>2024-06-23T09:55:38Z</time>
      </trkpt>
      <trkpt lat="43.04427" lon="1.49703">
        <ele>399.2</ele>
        <time>2024-06-23T09:55:39Z</time>
      </trkpt>
      <trkpt lat="43.04429" lon="1.49693">
        <ele>399.2</ele>
        <time>2024-06-23T09:55:40Z</time>
      </trkpt>
      <trkpt lat="43.04431" lon="1.49684">
        <ele>399.2</ele>
        <time>2024-06-23T09:55:41Z</time>
      </trkpt>
      <trkpt lat="43.04433" lon="1.49675">
        <ele>398.8</ele>
        <time>2024-06-23T09:55:42Z</time>
      </trkpt>
      <trkpt lat="43.04436" lon="1.49666">
        <ele>399</ele>
        <time>2024-06-23T09:55:43Z</time>
      </trkpt>
      <trkpt lat="43.04438" lon="1.49657">
        <ele>399</ele>
        <time>2024-06-23T09:55:44Z</time>
      </trkpt>
      <trkpt lat="43.04441" lon="1.49648">
        <ele>399</ele>
        <time>2024-06-23T09:55:45Z</time>
      </trkpt>
      <trkpt lat="43.04444" lon="1.4964">
        <ele>399</ele>
        <time>2024-06-23T09:55:46Z</time>
      </trkpt>
      <trkpt lat="43.04447" lon="1.49632">
        <ele>398.8</ele>
        <time>2024-06-23T09:55:47Z</time>
      </trkpt>
      <trkpt lat="43.04451" lon="1.49624">
        <ele>398.2</ele>
        <time>2024-06-23T09:55:48Z</time>
      </trkpt>
      <trkpt lat="43.04455" lon="1.49616">
        <ele>398.4</ele>
        <time>2024-06-23T09:55:49Z</time>
      </trkpt>
      <trkpt lat="43.04458" lon="1.49609">
        <ele>398.6</ele>
        <time>2024-06-23T09:55:50Z</time>
      </trkpt>
      <trkpt lat="43.04463" lon="1.49602">
        <ele>398.6</ele>
        <time>2024-06-23T09:55:51Z</time>
      </trkpt>
      <trkpt lat="43.04467" lon="1.49594">
        <ele>398.6</ele>
        <time>2024-06-23T09:55:52Z</time>
      </trkpt>
      <trkpt lat="43.04471" lon="1.49587">
        <ele>398.6</ele>
        <time>2024-06-23T09:55:53Z</time>
      </trkpt>
      <trkpt lat="43.04475" lon="1.4958">
        <ele>398.6</ele>
        <time>2024-06-23T09:55:54Z</time>
      </trkpt>
      <trkpt lat="43.04479" lon="1.49574">
        <ele>398.6</ele>
        <time>2024-06-23T09:55:55Z</time>
      </trkpt>
      <trkpt lat="43.04483" lon="1.49568">
        <ele>398.4</ele>
        <time>2024-06-23T09:55:56Z</time>
      </trkpt>
      <trkpt lat="43.04487" lon="1.49561">
        <ele>398.4</ele>
        <time>2024-06-23T09:55:57Z</time>
      </trkpt>
      <trkpt lat="43.04492" lon="1.49555">
        <ele>398.4</ele>
        <time>2024-06-23T09:55:58Z</time>
      </trkpt>
      <trkpt lat="43.04495" lon="1.49548">
        <ele>398.4</ele>
        <time>2024-06-23T09:55:59Z</time>
      </trkpt>
      <trkpt lat="43.045" lon="1.49542">
        <ele>398.4</ele>
        <time>2024-06-23T09:56:00Z</time>
      </trkpt>
      <trkpt lat="43.04504" lon="1.49535">
        <ele>398.2</ele>
        <time>2024-06-23T09:56:01Z</time>
      </trkpt>
      <trkpt lat="43.04508" lon="1.49529">
        <ele>398.4</ele>
        <time>2024-06-23T09:56:02Z</time>
      </trkpt>
      <trkpt lat="43.04512" lon="1.49523">
        <ele>398</ele>
        <time>2024-06-23T09:56:03Z</time>
      </trkpt>
      <trkpt lat="43.04517" lon="1.49516">
        <ele>398</ele>
        <time>2024-06-23T09:56:04Z</time>
      </trkpt>
      <trkpt lat="43.04521" lon="1.4951">
        <ele>398</ele>
        <time>2024-06-23T09:56:05Z</time>
      </trkpt>
      <trkpt lat="43.04525" lon="1.49504">
        <ele>397.4</ele>
        <time>2024-06-23T09:56:06Z</time>
      </trkpt>
      <trkpt lat="43.04529" lon="1.49498">
        <ele>397.4</ele>
        <time>2024-06-23T09:56:07Z</time>
      </trkpt>
      <trkpt lat="43.04533" lon="1.49492">
        <ele>397.8</ele>
        <time>2024-06-23T09:56:08Z</time>
      </trkpt>
      <trkpt lat="43.04537" lon="1.49486">
        <ele>397.8</ele>
        <time>2024-06-23T09:56:09Z</time>
      </trkpt>
      <trkpt lat="43.04541" lon="1.49481">
        <ele>397.8</ele>
        <time>2024-06-23T09:56:10Z</time>
      </trkpt>
      <trkpt lat="43.04545" lon="1.49475">
        <ele>397.8</ele>
        <time>2024-06-23T09:56:11Z</time>
      </trkpt>
      <trkpt lat="43.04549" lon="1.49469">
        <ele>397.8</ele>
        <time>2024-06-23T09:56:12Z</time>
      </trkpt>
      <trkpt lat="43.04553" lon="1.49463">
        <ele>398.2</ele>
        <time>2024-06-23T09:56:13Z</time>
      </trkpt>
      <trkpt lat="43.04557" lon="1.49456">
        <ele>398.2</ele>
        <time>2024-06-23T09:56:14Z</time>
      </trkpt>
      <trkpt lat="43.04561" lon="1.4945">
        <ele>398.2</ele>
        <time>2024-06-23T09:56:15Z</time>
      </trkpt>
      <trkpt lat="43.04565" lon="1.49444">
        <ele>398.2</ele>
        <time>2024-06-23T09:56:16Z</time>
      </trkpt>
      <trkpt lat="43.04569" lon="1.49438">
        <ele>398.2</ele>
        <time>2024-06-23T09:56:17Z</time>
      </trkpt>
      <trkpt lat="43.04572" lon="1.49431">
        <ele>398.2</ele>
        <time>2024-06-23T09:56:18Z</time>
      </trkpt>
      <trkpt lat="43.04576" lon="1.49425">
        <ele>398.2</ele>
        <time>2024-06-23T09:56:19Z</time>
      </trkpt>
      <trkpt lat="43.0458" lon="1.49418">
        <ele>398.2</ele>
        <time>2024-06-23T09:56:20Z</time>
      </trkpt>
      <trkpt lat="43.04584" lon="1.49412">
        <ele>398.2</ele>
        <time>2024-06-23T09:56:21Z</time>
      </trkpt>
      <trkpt lat="43.04588" lon="1.49406">
        <ele>398.2</ele>
        <time>2024-06-23T09:56:22Z</time>
      </trkpt>
      <trkpt lat="43.04592" lon="1.49401">
        <ele>398.6</ele>
        <time>2024-06-23T09:56:23Z</time>
      </trkpt>
      <trkpt lat="43.04596" lon="1.49395">
        <ele>398.6</ele>
        <time>2024-06-23T09:56:24Z</time>
      </trkpt>
      <trkpt lat="43.046" lon="1.4939">
        <ele>398.6</ele>
        <time>2024-06-23T09:56:25Z</time>
      </trkpt>
      <trkpt lat="43.04604" lon="1.49383">
        <ele>398.6</ele>
        <time>2024-06-23T09:56:26Z</time>
      </trkpt>
      <trkpt lat="43.04608" lon="1.49377">
        <ele>398.6</ele>
        <time>2024-06-23T09:56:27Z</time>
      </trkpt>
      <trkpt lat="43.04611" lon="1.4937">
        <ele>398.8</ele>
        <time>2024-06-23T09:56:28Z</time>
      </trkpt>
      <trkpt lat="43.04615" lon="1.49364">
        <ele>398.8</ele>
        <time>2024-06-23T09:56:29Z</time>
      </trkpt>
      <trkpt lat="43.04618" lon="1.49357">
        <ele>398.8</ele>
        <time>2024-06-23T09:56:30Z</time>
      </trkpt>
      <trkpt lat="43.04623" lon="1.4935">
        <ele>398.8</ele>
        <time>2024-06-23T09:56:31Z</time>
      </trkpt>
      <trkpt lat="43.04627" lon="1.49344">
        <ele>398.8</ele>
        <time>2024-06-23T09:56:32Z</time>
      </trkpt>
      <trkpt lat="43.0463" lon="1.49337">
        <ele>398.8</ele>
        <time>2024-06-23T09:56:33Z</time>
      </trkpt>
      <trkpt lat="43.04634" lon="1.49329">
        <ele>398.8</ele>
        <time>2024-06-23T09:56:34Z</time>
      </trkpt>
      <trkpt lat="43.04638" lon="1.49322">
        <ele>398.8</ele>
        <time>2024-06-23T09:56:35Z</time>
      </trkpt>
      <trkpt lat="43.04641" lon="1.49315">
        <ele>399.2</ele>
        <time>2024-06-23T09:56:36Z</time>
      </trkpt>
      <trkpt lat="43.04645" lon="1.49309">
        <ele>399.2</ele>
        <time>2024-06-23T09:56:37Z</time>
      </trkpt>
      <trkpt lat="43.04649" lon="1.49302">
        <ele>399.2</ele>
        <time>2024-06-23T09:56:38Z</time>
      </trkpt>
      <trkpt lat="43.04652" lon="1.49295">
        <ele>399.2</ele>
        <time>2024-06-23T09:56:39Z</time>
      </trkpt>
      <trkpt lat="43.04655" lon="1.49287">
        <ele>399.2</ele>
        <time>2024-06-23T09:56:40Z</time>
      </trkpt>
      <trkpt lat="43.04659" lon="1.4928">
        <ele>399.2</ele>
        <time>2024-06-23T09:56:41Z</time>
      </trkpt>
      <trkpt lat="43.04663" lon="1.49274">
        <ele>399.2</ele>
        <time>2024-06-23T09:56:42Z</time>
      </trkpt>
      <trkpt lat="43.04666" lon="1.49267">
        <ele>399.2</ele>
        <time>2024-06-23T09:56:43Z</time>
      </trkpt>
      <trkpt lat="43.04669" lon="1.4926">
        <ele>399.2</ele>
        <time>2024-06-23T09:56:44Z</time>
      </trkpt>
      <trkpt lat="43.04673" lon="1.49254">
        <ele>399.2</ele>
        <time>2024-06-23T09:56:45Z</time>
      </trkpt>
      <trkpt lat="43.04677" lon="1.49248">
        <ele>399.2</ele>
        <time>2024-06-23T09:56:46Z</time>
      </trkpt>
      <trkpt lat="43.0468" lon="1.49242">
        <ele>399.2</ele>
        <time>2024-06-23T09:56:47Z</time>
      </trkpt>
      <trkpt lat="43.04683" lon="1.49236">
        <ele>399.4</ele>
        <time>2024-06-23T09:56:48Z</time>
      </trkpt>
      <trkpt lat="43.04686" lon="1.49229">
        <ele>399.6</ele>
        <time>2024-06-23T09:56:49Z</time>
      </trkpt>
      <trkpt lat="43.04688" lon="1.49223">
        <ele>399.6</ele>
        <time>2024-06-23T09:56:50Z</time>
      </trkpt>
      <trkpt lat="43.04691" lon="1.49216">
        <ele>399.6</ele>
        <time>2024-06-23T09:56:51Z</time>
      </trkpt>
      <trkpt lat="43.04693" lon="1.49209">
        <ele>399.6</ele>
        <time>2024-06-23T09:56:52Z</time>
      </trkpt>
      <trkpt lat="43.04695" lon="1.49202">
        <ele>399.6</ele>
        <time>2024-06-23T09:56:53Z</time>
      </trkpt>
      <trkpt lat="43.04697" lon="1.49194">
        <ele>399.6</ele>
        <time>2024-06-23T09:56:54Z</time>
      </trkpt>
      <trkpt lat="43.04699" lon="1.49187">
        <ele>399.6</ele>
        <time>2024-06-23T09:56:55Z</time>
      </trkpt>
      <trkpt lat="43.04701" lon="1.49179">
        <ele>399.6</ele>
        <time>2024-06-23T09:56:56Z</time>
      </trkpt>
      <trkpt lat="43.04702" lon="1.4917">
        <ele>399.6</ele>
        <time>2024-06-23T09:56:57Z</time>
      </trkpt>
      <trkpt lat="43.04703" lon="1.49163">
        <ele>399.6</ele>
        <time>2024-06-23T09:56:58Z</time>
      </trkpt>
      <trkpt lat="43.04704" lon="1.49155">
        <ele>399.6</ele>
        <time>2024-06-23T09:56:59Z</time>
      </trkpt>
      <trkpt lat="43.04706" lon="1.49147">
        <ele>399.4</ele>
        <time>2024-06-23T09:57:00Z</time>
      </trkpt>
      <trkpt lat="43.04707" lon="1.49139">
        <ele>399.4</ele>
        <time>2024-06-23T09:57:01Z</time>
      </trkpt>
      <trkpt lat="43.04708" lon="1.49132">
        <ele>399.4</ele>
        <time>2024-06-23T09:57:02Z</time>
      </trkpt>
      <trkpt lat="43.0471" lon="1.49124">
        <ele>399.4</ele>
        <time>2024-06-23T09:57:03Z</time>
      </trkpt>
      <trkpt lat="43.04712" lon="1.49116">
        <ele>399</ele>
        <time>2024-06-23T09:57:04Z</time>
      </trkpt>
      <trkpt lat="43.04714" lon="1.49108">
        <ele>399</ele>
        <time>2024-06-23T09:57:05Z</time>
      </trkpt>
      <trkpt lat="43.04715" lon="1.491">
        <ele>399</ele>
        <time>2024-06-23T09:57:06Z</time>
      </trkpt>
      <trkpt lat="43.04718" lon="1.49093">
        <ele>399</ele>
        <time>2024-06-23T09:57:07Z</time>
      </trkpt>
      <trkpt lat="43.04721" lon="1.49085">
        <ele>398.8</ele>
        <time>2024-06-23T09:57:08Z</time>
      </trkpt>
      <trkpt lat="43.04721" lon="1.49085">
        <ele>398.8</ele>
        <time>2024-06-23T09:57:09Z</time>
      </trkpt>
      <trkpt lat="43.04723" lon="1.49077">
        <ele>398.4</ele>
        <time>2024-06-23T09:57:10Z</time>
      </trkpt>
      <trkpt lat="43.04726" lon="1.4907">
        <ele>398.4</ele>
        <time>2024-06-23T09:57:11Z</time>
      </trkpt>
      <trkpt lat="43.04728" lon="1.49062">
        <ele>398.4</ele>
        <time>2024-06-23T09:57:12Z</time>
      </trkpt>
      <trkpt lat="43.04731" lon="1.49054">
        <ele>397.6</ele>
        <time>2024-06-23T09:57:13Z</time>
      </trkpt>
      <trkpt lat="43.04734" lon="1.49047">
        <ele>397.6</ele>
        <time>2024-06-23T09:57:14Z</time>
      </trkpt>
      <trkpt lat="43.04736" lon="1.49038">
        <ele>397.6</ele>
        <time>2024-06-23T09:57:15Z</time>
      </trkpt>
      <trkpt lat="43.04739" lon="1.49031">
        <ele>397.6</ele>
        <time>2024-06-23T09:57:16Z</time>
      </trkpt>
      <trkpt lat="43.04741" lon="1.49023">
        <ele>397.6</ele>
        <time>2024-06-23T09:57:17Z</time>
      </trkpt>
      <trkpt lat="43.04744" lon="1.49015">
        <ele>397.6</ele>
        <time>2024-06-23T09:57:18Z</time>
      </trkpt>
      <trkpt lat="43.04746" lon="1.49007">
        <ele>397.8</ele>
        <time>2024-06-23T09:57:19Z</time>
      </trkpt>
      <trkpt lat="43.04749" lon="1.48999">
        <ele>397.8</ele>
        <time>2024-06-23T09:57:20Z</time>
      </trkpt>
      <trkpt lat="43.04752" lon="1.48992">
        <ele>397.8</ele>
        <time>2024-06-23T09:57:21Z</time>
      </trkpt>
      <trkpt lat="43.04755" lon="1.48985">
        <ele>397.8</ele>
        <time>2024-06-23T09:57:22Z</time>
      </trkpt>
      <trkpt lat="43.04759" lon="1.48978">
        <ele>397.8</ele>
        <time>2024-06-23T09:57:23Z</time>
      </trkpt>
      <trkpt lat="43.04763" lon="1.48973">
        <ele>397.8</ele>
        <time>2024-06-23T09:57:24Z</time>
      </trkpt>
      <trkpt lat="43.04767" lon="1.48968">
        <ele>397.8</ele>
        <time>2024-06-23T09:57:25Z</time>
      </trkpt>
      <trkpt lat="43.04771" lon="1.48963">
        <ele>397.8</ele>
        <time>2024-06-23T09:57:26Z</time>
      </trkpt>
      <trkpt lat="43.04776" lon="1.48957">
        <ele>397.8</ele>
        <time>2024-06-23T09:57:27Z</time>
      </trkpt>
      <trkpt lat="43.0478" lon="1.48952">
        <ele>397.8</ele>
        <time>2024-06-23T09:57:28Z</time>
      </trkpt>
      <trkpt lat="43.04785" lon="1.48946">
        <ele>397.8</ele>
        <time>2024-06-23T09:57:29Z</time>
      </trkpt>
      <trkpt lat="43.04789" lon="1.48941">
        <ele>397.6</ele>
        <time>2024-06-23T09:57:30Z</time>
      </trkpt>
      <trkpt lat="43.04794" lon="1.48935">
        <ele>397.6</ele>
        <time>2024-06-23T09:57:31Z</time>
      </trkpt>
      <trkpt lat="43.04798" lon="1.4893">
        <ele>397.6</ele>
        <time>2024-06-23T09:57:32Z</time>
      </trkpt>
      <trkpt lat="43.04803" lon="1.48925">
        <ele>397.6</ele>
        <time>2024-06-23T09:57:33Z</time>
      </trkpt>
      <trkpt lat="43.04808" lon="1.4892">
        <ele>397.6</ele>
        <time>2024-06-23T09:57:34Z</time>
      </trkpt>
      <trkpt lat="43.04813" lon="1.48914">
        <ele>397.6</ele>
        <time>2024-06-23T09:57:35Z</time>
      </trkpt>
      <trkpt lat="43.04817" lon="1.48908">
        <ele>397</ele>
        <time>2024-06-23T09:57:36Z</time>
      </trkpt>
      <trkpt lat="43.04822" lon="1.48902">
        <ele>397</ele>
        <time>2024-06-23T09:57:37Z</time>
      </trkpt>
      <trkpt lat="43.04826" lon="1.48895">
        <ele>397</ele>
        <time>2024-06-23T09:57:38Z</time>
      </trkpt>
      <trkpt lat="43.0483" lon="1.48887">
        <ele>397</ele>
        <time>2024-06-23T09:57:39Z</time>
      </trkpt>
      <trkpt lat="43.04835" lon="1.48881">
        <ele>396.8</ele>
        <time>2024-06-23T09:57:40Z</time>
      </trkpt>
      <trkpt lat="43.04839" lon="1.48875">
        <ele>396.8</ele>
        <time>2024-06-23T09:57:41Z</time>
      </trkpt>
      <trkpt lat="43.04843" lon="1.48868">
        <ele>397</ele>
        <time>2024-06-23T09:57:42Z</time>
      </trkpt>
      <trkpt lat="43.04847" lon="1.48861">
        <ele>397</ele>
        <time>2024-06-23T09:57:43Z</time>
      </trkpt>
      <trkpt lat="43.0485" lon="1.48854">
        <ele>396.8</ele>
        <time>2024-06-23T09:57:44Z</time>
      </trkpt>
      <trkpt lat="43.04854" lon="1.48846">
        <ele>396.8</ele>
        <time>2024-06-23T09:57:45Z</time>
      </trkpt>
      <trkpt lat="43.04858" lon="1.48839">
        <ele>396.6</ele>
        <time>2024-06-23T09:57:46Z</time>
      </trkpt>
      <trkpt lat="43.04862" lon="1.48832">
        <ele>396.6</ele>
        <time>2024-06-23T09:57:47Z</time>
      </trkpt>
      <trkpt lat="43.04866" lon="1.48824">
        <ele>396.2</ele>
        <time>2024-06-23T09:57:48Z</time>
      </trkpt>
      <trkpt lat="43.04869" lon="1.48817">
        <ele>396</ele>
        <time>2024-06-23T09:57:49Z</time>
      </trkpt>
      <trkpt lat="43.04873" lon="1.48809">
        <ele>396</ele>
        <time>2024-06-23T09:57:50Z</time>
      </trkpt>
      <trkpt lat="43.04877" lon="1.48802">
        <ele>396</ele>
        <time>2024-06-23T09:57:51Z</time>
      </trkpt>
      <trkpt lat="43.04881" lon="1.48793">
        <ele>395.6</ele>
        <time>2024-06-23T09:57:52Z</time>
      </trkpt>
      <trkpt lat="43.04884" lon="1.48786">
        <ele>395.6</ele>
        <time>2024-06-23T09:57:53Z</time>
      </trkpt>
      <trkpt lat="43.04888" lon="1.48778">
        <ele>395.6</ele>
        <time>2024-06-23T09:57:54Z</time>
      </trkpt>
      <trkpt lat="43.04892" lon="1.48771">
        <ele>395</ele>
        <time>2024-06-23T09:57:55Z</time>
      </trkpt>
      <trkpt lat="43.04896" lon="1.48763">
        <ele>395</ele>
        <time>2024-06-23T09:57:56Z</time>
      </trkpt>
      <trkpt lat="43.049" lon="1.48756">
        <ele>395</ele>
        <time>2024-06-23T09:57:57Z</time>
      </trkpt>
      <trkpt lat="43.04904" lon="1.48748">
        <ele>395</ele>
        <time>2024-06-23T09:57:58Z</time>
      </trkpt>
      <trkpt lat="43.04907" lon="1.48741">
        <ele>395</ele>
        <time>2024-06-23T09:57:59Z</time>
      </trkpt>
      <trkpt lat="43.04912" lon="1.48735">
        <ele>395</ele>
        <time>2024-06-23T09:58:00Z</time>
      </trkpt>
      <trkpt lat="43.04916" lon="1.48728">
        <ele>395</ele>
        <time>2024-06-23T09:58:01Z</time>
      </trkpt>
      <trkpt lat="43.0492" lon="1.4872">
        <ele>394.8</ele>
        <time>2024-06-23T09:58:02Z</time>
      </trkpt>
      <trkpt lat="43.04923" lon="1.48712">
        <ele>394.8</ele>
        <time>2024-06-23T09:58:03Z</time>
      </trkpt>
      <trkpt lat="43.04927" lon="1.48705">
        <ele>394.8</ele>
        <time>2024-06-23T09:58:04Z</time>
      </trkpt>
      <trkpt lat="43.04931" lon="1.48697">
        <ele>394.8</ele>
        <time>2024-06-23T09:58:05Z</time>
      </trkpt>
      <trkpt lat="43.04935" lon="1.4869">
        <ele>394.8</ele>
        <time>2024-06-23T09:58:06Z</time>
      </trkpt>
      <trkpt lat="43.04938" lon="1.48683">
        <ele>394.8</ele>
        <time>2024-06-23T09:58:07Z</time>
      </trkpt>
      <trkpt lat="43.04942" lon="1.48676">
        <ele>395.2</ele>
        <time>2024-06-23T09:58:08Z</time>
      </trkpt>
      <trkpt lat="43.04947" lon="1.48669">
        <ele>395.2</ele>
        <time>2024-06-23T09:58:09Z</time>
      </trkpt>
      <trkpt lat="43.04951" lon="1.48663">
        <ele>395.2</ele>
        <time>2024-06-23T09:58:10Z</time>
      </trkpt>
      <trkpt lat="43.04956" lon="1.48657">
        <ele>395.2</ele>
        <time>2024-06-23T09:58:11Z</time>
      </trkpt>
      <trkpt lat="43.0496" lon="1.48651">
        <ele>394.8</ele>
        <time>2024-06-23T09:58:12Z</time>
      </trkpt>
      <trkpt lat="43.04964" lon="1.48644">
        <ele>394.2</ele>
        <time>2024-06-23T09:58:13Z</time>
      </trkpt>
      <trkpt lat="43.04968" lon="1.48638">
        <ele>394.2</ele>
        <time>2024-06-23T09:58:14Z</time>
      </trkpt>
      <trkpt lat="43.04973" lon="1.48631">
        <ele>394</ele>
        <time>2024-06-23T09:58:15Z</time>
      </trkpt>
      <trkpt lat="43.04978" lon="1.48625">
        <ele>393.6</ele>
        <time>2024-06-23T09:58:16Z</time>
      </trkpt>
      <trkpt lat="43.04984" lon="1.48618">
        <ele>393.2</ele>
        <time>2024-06-23T09:58:17Z</time>
      </trkpt>
      <trkpt lat="43.04989" lon="1.48612">
        <ele>393</ele>
        <time>2024-06-23T09:58:18Z</time>
      </trkpt>
      <trkpt lat="43.04994" lon="1.48606">
        <ele>393</ele>
        <time>2024-06-23T09:58:19Z</time>
      </trkpt>
      <trkpt lat="43.04999" lon="1.48601">
        <ele>393.4</ele>
        <time>2024-06-23T09:58:20Z</time>
      </trkpt>
      <trkpt lat="43.05004" lon="1.48595">
        <ele>393.4</ele>
        <time>2024-06-23T09:58:21Z</time>
      </trkpt>
      <trkpt lat="43.05009" lon="1.4859">
        <ele>393.4</ele>
        <time>2024-06-23T09:58:22Z</time>
      </trkpt>
      <trkpt lat="43.05014" lon="1.48585">
        <ele>393.4</ele>
        <time>2024-06-23T09:58:23Z</time>
      </trkpt>
      <trkpt lat="43.05019" lon="1.4858">
        <ele>393.4</ele>
        <time>2024-06-23T09:58:24Z</time>
      </trkpt>
      <trkpt lat="43.05024" lon="1.48574">
        <ele>393.4</ele>
        <time>2024-06-23T09:58:25Z</time>
      </trkpt>
      <trkpt lat="43.05029" lon="1.48569">
        <ele>393.4</ele>
        <time>2024-06-23T09:58:26Z</time>
      </trkpt>
      <trkpt lat="43.05033" lon="1.48564">
        <ele>393.4</ele>
        <time>2024-06-23T09:58:27Z</time>
      </trkpt>
      <trkpt lat="43.05039" lon="1.48559">
        <ele>393.4</ele>
        <time>2024-06-23T09:58:28Z</time>
      </trkpt>
      <trkpt lat="43.05044" lon="1.48553">
        <ele>393.4</ele>
        <time>2024-06-23T09:58:29Z</time>
      </trkpt>
      <trkpt lat="43.05049" lon="1.48548">
        <ele>393</ele>
        <time>2024-06-23T09:58:30Z</time>
      </trkpt>
      <trkpt lat="43.05054" lon="1.48543">
        <ele>393</ele>
        <time>2024-06-23T09:58:31Z</time>
      </trkpt>
      <trkpt lat="43.05059" lon="1.48537">
        <ele>393</ele>
        <time>2024-06-23T09:58:32Z</time>
      </trkpt>
      <trkpt lat="43.05064" lon="1.48532">
        <ele>393</ele>
        <time>2024-06-23T09:58:33Z</time>
      </trkpt>
      <trkpt lat="43.05069" lon="1.48527">
        <ele>392.8</ele>
        <time>2024-06-23T09:58:34Z</time>
      </trkpt>
      <trkpt lat="43.05075" lon="1.48522">
        <ele>392.4</ele>
        <time>2024-06-23T09:58:35Z</time>
      </trkpt>
      <trkpt lat="43.0508" lon="1.48516">
        <ele>392.4</ele>
        <time>2024-06-23T09:58:36Z</time>
      </trkpt>
      <trkpt lat="43.05085" lon="1.48512">
        <ele>392.4</ele>
        <time>2024-06-23T09:58:37Z</time>
      </trkpt>
      <trkpt lat="43.05089" lon="1.48506">
        <ele>392.8</ele>
        <time>2024-06-23T09:58:38Z</time>
      </trkpt>
      <trkpt lat="43.05093" lon="1.485">
        <ele>392.8</ele>
        <time>2024-06-23T09:58:39Z</time>
      </trkpt>
      <trkpt lat="43.05098" lon="1.48494">
        <ele>392.2</ele>
        <time>2024-06-23T09:58:40Z</time>
      </trkpt>
      <trkpt lat="43.05102" lon="1.48487">
        <ele>392.2</ele>
        <time>2024-06-23T09:58:41Z</time>
      </trkpt>
      <trkpt lat="43.05106" lon="1.48481">
        <ele>392.2</ele>
        <time>2024-06-23T09:58:42Z</time>
      </trkpt>
      <trkpt lat="43.05109" lon="1.48473">
        <ele>392.4</ele>
        <time>2024-06-23T09:58:43Z</time>
      </trkpt>
      <trkpt lat="43.05112" lon="1.48466">
        <ele>392.8</ele>
        <time>2024-06-23T09:58:44Z</time>
      </trkpt>
      <trkpt lat="43.05115" lon="1.48459">
        <ele>392.8</ele>
        <time>2024-06-23T09:58:45Z</time>
      </trkpt>
      <trkpt lat="43.05118" lon="1.48451">
        <ele>392.8</ele>
        <time>2024-06-23T09:58:46Z</time>
      </trkpt>
      <trkpt lat="43.0512" lon="1.48443">
        <ele>392.8</ele>
        <time>2024-06-23T09:58:47Z</time>
      </trkpt>
      <trkpt lat="43.05122" lon="1.48434">
        <ele>392.4</ele>
        <time>2024-06-23T09:58:48Z</time>
      </trkpt>
      <trkpt lat="43.05125" lon="1.48426">
        <ele>392.4</ele>
        <time>2024-06-23T09:58:49Z</time>
      </trkpt>
      <trkpt lat="43.05127" lon="1.48418">
        <ele>392.4</ele>
        <time>2024-06-23T09:58:50Z</time>
      </trkpt>
      <trkpt lat="43.05129" lon="1.4841">
        <ele>392.4</ele>
        <time>2024-06-23T09:58:51Z</time>
      </trkpt>
      <trkpt lat="43.05131" lon="1.48401">
        <ele>392.4</ele>
        <time>2024-06-23T09:58:52Z</time>
      </trkpt>
      <trkpt lat="43.05134" lon="1.48393">
        <ele>391.8</ele>
        <time>2024-06-23T09:58:53Z</time>
      </trkpt>
      <trkpt lat="43.05135" lon="1.48384">
        <ele>391.8</ele>
        <time>2024-06-23T09:58:54Z</time>
      </trkpt>
      <trkpt lat="43.05137" lon="1.48377">
        <ele>391.8</ele>
        <time>2024-06-23T09:58:55Z</time>
      </trkpt>
      <trkpt lat="43.05138" lon="1.48368">
        <ele>391.4</ele>
        <time>2024-06-23T09:58:56Z</time>
      </trkpt>
      <trkpt lat="43.0514" lon="1.4836">
        <ele>391.4</ele>
        <time>2024-06-23T09:58:57Z</time>
      </trkpt>
      <trkpt lat="43.05143" lon="1.48344">
        <ele>391.2</ele>
        <time>2024-06-23T09:58:58Z</time>
      </trkpt>
      <trkpt lat="43.05144" lon="1.48335">
        <ele>391.2</ele>
        <time>2024-06-23T09:58:59Z</time>
      </trkpt>
      <trkpt lat="43.05146" lon="1.48327">
        <ele>391.6</ele>
        <time>2024-06-23T09:59:00Z</time>
      </trkpt>
      <trkpt lat="43.05148" lon="1.48319">
        <ele>391.6</ele>
        <time>2024-06-23T09:59:01Z</time>
      </trkpt>
      <trkpt lat="43.0515" lon="1.48311">
        <ele>391.6</ele>
        <time>2024-06-23T09:59:02Z</time>
      </trkpt>
      <trkpt lat="43.05151" lon="1.48302">
        <ele>391.2</ele>
        <time>2024-06-23T09:59:03Z</time>
      </trkpt>
      <trkpt lat="43.05153" lon="1.48294">
        <ele>391.2</ele>
        <time>2024-06-23T09:59:04Z</time>
      </trkpt>
      <trkpt lat="43.05155" lon="1.48286">
        <ele>391.2</ele>
        <time>2024-06-23T09:59:05Z</time>
      </trkpt>
      <trkpt lat="43.05156" lon="1.48278">
        <ele>391.2</ele>
        <time>2024-06-23T09:59:06Z</time>
      </trkpt>
      <trkpt lat="43.05158" lon="1.48269">
        <ele>391.2</ele>
        <time>2024-06-23T09:59:07Z</time>
      </trkpt>
      <trkpt lat="43.05159" lon="1.48261">
        <ele>391.2</ele>
        <time>2024-06-23T09:59:08Z</time>
      </trkpt>
      <trkpt lat="43.05161" lon="1.48252">
        <ele>390.8</ele>
        <time>2024-06-23T09:59:09Z</time>
      </trkpt>
      <trkpt lat="43.05163" lon="1.48244">
        <ele>391.2</ele>
        <time>2024-06-23T09:59:10Z</time>
      </trkpt>
      <trkpt lat="43.05165" lon="1.48235">
        <ele>391.6</ele>
        <time>2024-06-23T09:59:11Z</time>
      </trkpt>
      <trkpt lat="43.05167" lon="1.48227">
        <ele>391.6</ele>
        <time>2024-06-23T09:59:12Z</time>
      </trkpt>
      <trkpt lat="43.05169" lon="1.48218">
        <ele>391.6</ele>
        <time>2024-06-23T09:59:13Z</time>
      </trkpt>
      <trkpt lat="43.05171" lon="1.4821">
        <ele>391.6</ele>
        <time>2024-06-23T09:59:14Z</time>
      </trkpt>
      <trkpt lat="43.05173" lon="1.48202">
        <ele>391.2</ele>
        <time>2024-06-23T09:59:15Z</time>
      </trkpt>
      <trkpt lat="43.05176" lon="1.48194">
        <ele>391.2</ele>
        <time>2024-06-23T09:59:16Z</time>
      </trkpt>
      <trkpt lat="43.05178" lon="1.48185">
        <ele>391</ele>
        <time>2024-06-23T09:59:17Z</time>
      </trkpt>
      <trkpt lat="43.0518" lon="1.48177">
        <ele>391</ele>
        <time>2024-06-23T09:59:18Z</time>
      </trkpt>
      <trkpt lat="43.05182" lon="1.48169">
        <ele>391</ele>
        <time>2024-06-23T09:59:19Z</time>
      </trkpt>
      <trkpt lat="43.05185" lon="1.48161">
        <ele>391</ele>
        <time>2024-06-23T09:59:20Z</time>
      </trkpt>
      <trkpt lat="43.05187" lon="1.48153">
        <ele>390.6</ele>
        <time>2024-06-23T09:59:21Z</time>
      </trkpt>
      <trkpt lat="43.05189" lon="1.48145">
        <ele>390.6</ele>
        <time>2024-06-23T09:59:22Z</time>
      </trkpt>
      <trkpt lat="43.05192" lon="1.48137">
        <ele>390.4</ele>
        <time>2024-06-23T09:59:23Z</time>
      </trkpt>
      <trkpt lat="43.05194" lon="1.4813">
        <ele>390.4</ele>
        <time>2024-06-23T09:59:24Z</time>
      </trkpt>
      <trkpt lat="43.05197" lon="1.48122">
        <ele>390.4</ele>
        <time>2024-06-23T09:59:25Z</time>
      </trkpt>
      <trkpt lat="43.05199" lon="1.48115">
        <ele>390.4</ele>
        <time>2024-06-23T09:59:26Z</time>
      </trkpt>
      <trkpt lat="43.05202" lon="1.48107">
        <ele>390.4</ele>
        <time>2024-06-23T09:59:27Z</time>
      </trkpt>
      <trkpt lat="43.05205" lon="1.481">
        <ele>390.4</ele>
        <time>2024-06-23T09:59:28Z</time>
      </trkpt>
      <trkpt lat="43.05207" lon="1.48092">
        <ele>390.4</ele>
        <time>2024-06-23T09:59:29Z</time>
      </trkpt>
      <trkpt lat="43.0521" lon="1.48084">
        <ele>390.4</ele>
        <time>2024-06-23T09:59:30Z</time>
      </trkpt>
      <trkpt lat="43.05212" lon="1.48076">
        <ele>390.4</ele>
        <time>2024-06-23T09:59:31Z</time>
      </trkpt>
      <trkpt lat="43.05214" lon="1.48069">
        <ele>390.4</ele>
        <time>2024-06-23T09:59:32Z</time>
      </trkpt>
      <trkpt lat="43.05216" lon="1.48062">
        <ele>390</ele>
        <time>2024-06-23T09:59:33Z</time>
      </trkpt>
      <trkpt lat="43.05218" lon="1.48055">
        <ele>390</ele>
        <time>2024-06-23T09:59:34Z</time>
      </trkpt>
      <trkpt lat="43.05221" lon="1.48047">
        <ele>390</ele>
        <time>2024-06-23T09:59:35Z</time>
      </trkpt>
      <trkpt lat="43.05223" lon="1.4804">
        <ele>390</ele>
        <time>2024-06-23T09:59:36Z</time>
      </trkpt>
      <trkpt lat="43.05225" lon="1.48032">
        <ele>390</ele>
        <time>2024-06-23T09:59:37Z</time>
      </trkpt>
      <trkpt lat="43.05227" lon="1.48023">
        <ele>390.2</ele>
        <time>2024-06-23T09:59:38Z</time>
      </trkpt>
      <trkpt lat="43.0523" lon="1.48016">
        <ele>390.2</ele>
        <time>2024-06-23T09:59:39Z</time>
      </trkpt>
      <trkpt lat="43.05233" lon="1.48008">
        <ele>390.2</ele>
        <time>2024-06-23T09:59:40Z</time>
      </trkpt>
      <trkpt lat="43.05237" lon="1.48001">
        <ele>390.2</ele>
        <time>2024-06-23T09:59:41Z</time>
      </trkpt>
      <trkpt lat="43.0524" lon="1.47995">
        <ele>390.2</ele>
        <time>2024-06-23T09:59:42Z</time>
      </trkpt>
      <trkpt lat="43.05244" lon="1.47988">
        <ele>390.2</ele>
        <time>2024-06-23T09:59:43Z</time>
      </trkpt>
      <trkpt lat="43.05247" lon="1.47981">
        <ele>390</ele>
        <time>2024-06-23T09:59:44Z</time>
      </trkpt>
      <trkpt lat="43.05251" lon="1.47975">
        <ele>390</ele>
        <time>2024-06-23T09:59:45Z</time>
      </trkpt>
      <trkpt lat="43.05254" lon="1.47969">
        <ele>390</ele>
        <time>2024-06-23T09:59:46Z</time>
      </trkpt>
      <trkpt lat="43.05258" lon="1.47964">
        <ele>390</ele>
        <time>2024-06-23T09:59:47Z</time>
      </trkpt>
      <trkpt lat="43.05262" lon="1.47958">
        <ele>390</ele>
        <time>2024-06-23T09:59:48Z</time>
      </trkpt>
      <trkpt lat="43.05266" lon="1.47951">
        <ele>390</ele>
        <time>2024-06-23T09:59:49Z</time>
      </trkpt>
      <trkpt lat="43.0527" lon="1.47945">
        <ele>390</ele>
        <time>2024-06-23T09:59:50Z</time>
      </trkpt>
      <trkpt lat="43.05274" lon="1.47939">
        <ele>390</ele>
        <time>2024-06-23T09:59:51Z</time>
      </trkpt>
      <trkpt lat="43.05277" lon="1.47932">
        <ele>389.8</ele>
        <time>2024-06-23T09:59:52Z</time>
      </trkpt>
      <trkpt lat="43.05282" lon="1.47925">
        <ele>389.8</ele>
        <time>2024-06-23T09:59:53Z</time>
      </trkpt>
      <trkpt lat="43.05287" lon="1.47918">
        <ele>389.4</ele>
        <time>2024-06-23T09:59:54Z</time>
      </trkpt>
      <trkpt lat="43.05291" lon="1.47912">
        <ele>389.4</ele>
        <time>2024-06-23T09:59:55Z</time>
      </trkpt>
      <trkpt lat="43.05296" lon="1.47906">
        <ele>389.4</ele>
        <time>2024-06-23T09:59:56Z</time>
      </trkpt>
      <trkpt lat="43.05301" lon="1.479">
        <ele>389.4</ele>
        <time>2024-06-23T09:59:57Z</time>
      </trkpt>
      <trkpt lat="43.05305" lon="1.47895">
        <ele>389.2</ele>
        <time>2024-06-23T09:59:58Z</time>
      </trkpt>
      <trkpt lat="43.0531" lon="1.47889">
        <ele>389.4</ele>
        <time>2024-06-23T09:59:59Z</time>
      </trkpt>
      <trkpt lat="43.05314" lon="1.47883">
        <ele>389.4</ele>
        <time>2024-06-23T10:00:00Z</time>
      </trkpt>
      <trkpt lat="43.05319" lon="1.47877">
        <ele>389.4</ele>
        <time>2024-06-23T10:00:01Z</time>
      </trkpt>
      <trkpt lat="43.05322" lon="1.47871">
        <ele>389</ele>
        <time>2024-06-23T10:00:02Z</time>
      </trkpt>
      <trkpt lat="43.05326" lon="1.47864">
        <ele>389</ele>
        <time>2024-06-23T10:00:03Z</time>
      </trkpt>
      <trkpt lat="43.0533" lon="1.47857">
        <ele>389</ele>
        <time>2024-06-23T10:00:04Z</time>
      </trkpt>
      <trkpt lat="43.05333" lon="1.4785">
        <ele>388.8</ele>
        <time>2024-06-23T10:00:05Z</time>
      </trkpt>
      <trkpt lat="43.05336" lon="1.47843">
        <ele>388.8</ele>
        <time>2024-06-23T10:00:06Z</time>
      </trkpt>
      <trkpt lat="43.0534" lon="1.47835">
        <ele>388.6</ele>
        <time>2024-06-23T10:00:07Z</time>
      </trkpt>
      <trkpt lat="43.05344" lon="1.47828">
        <ele>388.6</ele>
        <time>2024-06-23T10:00:08Z</time>
      </trkpt>
      <trkpt lat="43.05348" lon="1.47821">
        <ele>388.6</ele>
        <time>2024-06-23T10:00:09Z</time>
      </trkpt>
      <trkpt lat="43.05352" lon="1.47814">
        <ele>388.6</ele>
        <time>2024-06-23T10:00:10Z</time>
      </trkpt>
      <trkpt lat="43.05356" lon="1.47807">
        <ele>388.4</ele>
        <time>2024-06-23T10:00:11Z</time>
      </trkpt>
      <trkpt lat="43.0536" lon="1.478">
        <ele>388.4</ele>
        <time>2024-06-23T10:00:12Z</time>
      </trkpt>
      <trkpt lat="43.05364" lon="1.47793">
        <ele>388.4</ele>
        <time>2024-06-23T10:00:13Z</time>
      </trkpt>
      <trkpt lat="43.05367" lon="1.47787">
        <ele>388.4</ele>
        <time>2024-06-23T10:00:14Z</time>
      </trkpt>
      <trkpt lat="43.05371" lon="1.4778">
        <ele>388.4</ele>
        <time>2024-06-23T10:00:15Z</time>
      </trkpt>
      <trkpt lat="43.05375" lon="1.47774">
        <ele>388.4</ele>
        <time>2024-06-23T10:00:16Z</time>
      </trkpt>
      <trkpt lat="43.05378" lon="1.47768">
        <ele>388.4</ele>
        <time>2024-06-23T10:00:17Z</time>
      </trkpt>
      <trkpt lat="43.05381" lon="1.47761">
        <ele>388.8</ele>
        <time>2024-06-23T10:00:18Z</time>
      </trkpt>
      <trkpt lat="43.05384" lon="1.47754">
        <ele>388.8</ele>
        <time>2024-06-23T10:00:19Z</time>
      </trkpt>
      <trkpt lat="43.05387" lon="1.47747">
        <ele>388.8</ele>
        <time>2024-06-23T10:00:20Z</time>
      </trkpt>
      <trkpt lat="43.0539" lon="1.4774">
        <ele>388.8</ele>
        <time>2024-06-23T10:00:21Z</time>
      </trkpt>
      <trkpt lat="43.05393" lon="1.47733">
        <ele>388.8</ele>
        <time>2024-06-23T10:00:22Z</time>
      </trkpt>
      <trkpt lat="43.05397" lon="1.47725">
        <ele>388.4</ele>
        <time>2024-06-23T10:00:23Z</time>
      </trkpt>
      <trkpt lat="43.054" lon="1.47718">
        <ele>388.4</ele>
        <time>2024-06-23T10:00:24Z</time>
      </trkpt>
      <trkpt lat="43.05402" lon="1.47711">
        <ele>387.8</ele>
        <time>2024-06-23T10:00:25Z</time>
      </trkpt>
      <trkpt lat="43.05405" lon="1.47703">
        <ele>388</ele>
        <time>2024-06-23T10:00:26Z</time>
      </trkpt>
      <trkpt lat="43.05408" lon="1.47695">
        <ele>388</ele>
        <time>2024-06-23T10:00:27Z</time>
      </trkpt>
      <trkpt lat="43.05411" lon="1.47688">
        <ele>388</ele>
        <time>2024-06-23T10:00:28Z</time>
      </trkpt>
      <trkpt lat="43.05414" lon="1.47681">
        <ele>388</ele>
        <time>2024-06-23T10:00:29Z</time>
      </trkpt>
      <trkpt lat="43.05418" lon="1.47674">
        <ele>388</ele>
        <time>2024-06-23T10:00:30Z</time>
      </trkpt>
      <trkpt lat="43.05421" lon="1.47667">
        <ele>388</ele>
        <time>2024-06-23T10:00:31Z</time>
      </trkpt>
      <trkpt lat="43.05425" lon="1.47659">
        <ele>387.6</ele>
        <time>2024-06-23T10:00:32Z</time>
      </trkpt>
      <trkpt lat="43.05429" lon="1.47652">
        <ele>387.6</ele>
        <time>2024-06-23T10:00:33Z</time>
      </trkpt>
      <trkpt lat="43.05432" lon="1.47643">
        <ele>387.6</ele>
        <time>2024-06-23T10:00:34Z</time>
      </trkpt>
      <trkpt lat="43.05434" lon="1.47634">
        <ele>387.6</ele>
        <time>2024-06-23T10:00:35Z</time>
      </trkpt>
      <trkpt lat="43.05437" lon="1.47626">
        <ele>387.6</ele>
        <time>2024-06-23T10:00:36Z</time>
      </trkpt>
      <trkpt lat="43.0544" lon="1.47618">
        <ele>387.6</ele>
        <time>2024-06-23T10:00:37Z</time>
      </trkpt>
      <trkpt lat="43.05442" lon="1.47609">
        <ele>387</ele>
        <time>2024-06-23T10:00:38Z</time>
      </trkpt>
      <trkpt lat="43.05445" lon="1.476">
        <ele>386.8</ele>
        <time>2024-06-23T10:00:39Z</time>
      </trkpt>
      <trkpt lat="43.05447" lon="1.47592">
        <ele>386.8</ele>
        <time>2024-06-23T10:00:40Z</time>
      </trkpt>
      <trkpt lat="43.05449" lon="1.47585">
        <ele>387</ele>
        <time>2024-06-23T10:00:41Z</time>
      </trkpt>
      <trkpt lat="43.05451" lon="1.47576">
        <ele>387.2</ele>
        <time>2024-06-23T10:00:42Z</time>
      </trkpt>
      <trkpt lat="43.05453" lon="1.47569">
        <ele>387.2</ele>
        <time>2024-06-23T10:00:43Z</time>
      </trkpt>
      <trkpt lat="43.05455" lon="1.47561">
        <ele>387.2</ele>
        <time>2024-06-23T10:00:44Z</time>
      </trkpt>
      <trkpt lat="43.05456" lon="1.47554">
        <ele>387.4</ele>
        <time>2024-06-23T10:00:45Z</time>
      </trkpt>
      <trkpt lat="43.05457" lon="1.47546">
        <ele>387.4</ele>
        <time>2024-06-23T10:00:46Z</time>
      </trkpt>
      <trkpt lat="43.05458" lon="1.47538">
        <ele>387.4</ele>
        <time>2024-06-23T10:00:47Z</time>
      </trkpt>
      <trkpt lat="43.05459" lon="1.4753">
        <ele>387.4</ele>
        <time>2024-06-23T10:00:48Z</time>
      </trkpt>
      <trkpt lat="43.05459" lon="1.47522">
        <ele>387.4</ele>
        <time>2024-06-23T10:00:49Z</time>
      </trkpt>
      <trkpt lat="43.0546" lon="1.47513">
        <ele>387.4</ele>
        <time>2024-06-23T10:00:50Z</time>
      </trkpt>
      <trkpt lat="43.0546" lon="1.47504">
        <ele>387.4</ele>
        <time>2024-06-23T10:00:51Z</time>
      </trkpt>
      <trkpt lat="43.05462" lon="1.47495">
        <ele>387</ele>
        <time>2024-06-23T10:00:52Z</time>
      </trkpt>
      <trkpt lat="43.05464" lon="1.47487">
        <ele>386.8</ele>
        <time>2024-06-23T10:00:53Z</time>
      </trkpt>
      <trkpt lat="43.05468" lon="1.47479">
        <ele>386.8</ele>
        <time>2024-06-23T10:00:54Z</time>
      </trkpt>
      <trkpt lat="43.05471" lon="1.47472">
        <ele>386.8</ele>
        <time>2024-06-23T10:00:55Z</time>
      </trkpt>
      <trkpt lat="43.05473" lon="1.47464">
        <ele>386.8</ele>
        <time>2024-06-23T10:00:56Z</time>
      </trkpt>
      <trkpt lat="43.05476" lon="1.47456">
        <ele>386.8</ele>
        <time>2024-06-23T10:00:57Z</time>
      </trkpt>
      <trkpt lat="43.05479" lon="1.47449">
        <ele>386.8</ele>
        <time>2024-06-23T10:00:58Z</time>
      </trkpt>
      <trkpt lat="43.05481" lon="1.47441">
        <ele>386.8</ele>
        <time>2024-06-23T10:00:59Z</time>
      </trkpt>
      <trkpt lat="43.05483" lon="1.47434">
        <ele>386.8</ele>
        <time>2024-06-23T10:01:00Z</time>
      </trkpt>
      <trkpt lat="43.05484" lon="1.47425">
        <ele>387</ele>
        <time>2024-06-23T10:01:01Z</time>
      </trkpt>
      <trkpt lat="43.05485" lon="1.47418">
        <ele>387</ele>
        <time>2024-06-23T10:01:02Z</time>
      </trkpt>
      <trkpt lat="43.05485" lon="1.47409">
        <ele>387</ele>
        <time>2024-06-23T10:01:03Z</time>
      </trkpt>
      <trkpt lat="43.05486" lon="1.47402">
        <ele>387</ele>
        <time>2024-06-23T10:01:04Z</time>
      </trkpt>
      <trkpt lat="43.05487" lon="1.47393">
        <ele>386.6</ele>
        <time>2024-06-23T10:01:05Z</time>
      </trkpt>
      <trkpt lat="43.05487" lon="1.47385">
        <ele>386.6</ele>
        <time>2024-06-23T10:01:06Z</time>
      </trkpt>
      <trkpt lat="43.05488" lon="1.47376">
        <ele>386.6</ele>
        <time>2024-06-23T10:01:07Z</time>
      </trkpt>
      <trkpt lat="43.0549" lon="1.47369">
        <ele>386.6</ele>
        <time>2024-06-23T10:01:08Z</time>
      </trkpt>
      <trkpt lat="43.05492" lon="1.4736">
        <ele>386.4</ele>
        <time>2024-06-23T10:01:09Z</time>
      </trkpt>
      <trkpt lat="43.05495" lon="1.47353">
        <ele>386.4</ele>
        <time>2024-06-23T10:01:10Z</time>
      </trkpt>
      <trkpt lat="43.05498" lon="1.47345">
        <ele>386.4</ele>
        <time>2024-06-23T10:01:11Z</time>
      </trkpt>
      <trkpt lat="43.055" lon="1.47337">
        <ele>386.2</ele>
        <time>2024-06-23T10:01:12Z</time>
      </trkpt>
      <trkpt lat="43.05503" lon="1.47329">
        <ele>386.2</ele>
        <time>2024-06-23T10:01:13Z</time>
      </trkpt>
      <trkpt lat="43.05506" lon="1.47322">
        <ele>386.2</ele>
        <time>2024-06-23T10:01:14Z</time>
      </trkpt>
      <trkpt lat="43.05508" lon="1.47314">
        <ele>386.2</ele>
        <time>2024-06-23T10:01:15Z</time>
      </trkpt>
      <trkpt lat="43.05512" lon="1.47307">
        <ele>386.2</ele>
        <time>2024-06-23T10:01:16Z</time>
      </trkpt>
      <trkpt lat="43.05514" lon="1.47299">
        <ele>385.8</ele>
        <time>2024-06-23T10:01:17Z</time>
      </trkpt>
      <trkpt lat="43.05517" lon="1.47292">
        <ele>385.8</ele>
        <time>2024-06-23T10:01:18Z</time>
      </trkpt>
      <trkpt lat="43.05519" lon="1.47284">
        <ele>385.6</ele>
        <time>2024-06-23T10:01:19Z</time>
      </trkpt>
      <trkpt lat="43.05523" lon="1.47277">
        <ele>385.8</ele>
        <time>2024-06-23T10:01:20Z</time>
      </trkpt>
      <trkpt lat="43.05525" lon="1.4727">
        <ele>385.2</ele>
        <time>2024-06-23T10:01:21Z</time>
      </trkpt>
      <trkpt lat="43.05528" lon="1.47262">
        <ele>385.2</ele>
        <time>2024-06-23T10:01:22Z</time>
      </trkpt>
      <trkpt lat="43.05531" lon="1.47254">
        <ele>385.2</ele>
        <time>2024-06-23T10:01:23Z</time>
      </trkpt>
      <trkpt lat="43.05534" lon="1.47246">
        <ele>385.4</ele>
        <time>2024-06-23T10:01:24Z</time>
      </trkpt>
      <trkpt lat="43.05536" lon="1.47238">
        <ele>385.2</ele>
        <time>2024-06-23T10:01:25Z</time>
      </trkpt>
      <trkpt lat="43.05536" lon="1.47229">
        <ele>385.2</ele>
        <time>2024-06-23T10:01:26Z</time>
      </trkpt>
      <trkpt lat="43.05537" lon="1.4722">
        <ele>385.2</ele>
        <time>2024-06-23T10:01:27Z</time>
      </trkpt>
      <trkpt lat="43.05537" lon="1.47212">
        <ele>385</ele>
        <time>2024-06-23T10:01:28Z</time>
      </trkpt>
      <trkpt lat="43.05536" lon="1.47202">
        <ele>385</ele>
        <time>2024-06-23T10:01:29Z</time>
      </trkpt>
      <trkpt lat="43.05536" lon="1.47194">
        <ele>385</ele>
        <time>2024-06-23T10:01:30Z</time>
      </trkpt>
      <trkpt lat="43.05534" lon="1.47185">
        <ele>385</ele>
        <time>2024-06-23T10:01:31Z</time>
      </trkpt>
      <trkpt lat="43.05534" lon="1.47177">
        <ele>385</ele>
        <time>2024-06-23T10:01:32Z</time>
      </trkpt>
      <trkpt lat="43.05533" lon="1.47168">
        <ele>385</ele>
        <time>2024-06-23T10:01:33Z</time>
      </trkpt>
      <trkpt lat="43.05532" lon="1.4716">
        <ele>385</ele>
        <time>2024-06-23T10:01:34Z</time>
      </trkpt>
      <trkpt lat="43.05531" lon="1.47151">
        <ele>385</ele>
        <time>2024-06-23T10:01:35Z</time>
      </trkpt>
      <trkpt lat="43.05531" lon="1.47142">
        <ele>385</ele>
        <time>2024-06-23T10:01:36Z</time>
      </trkpt>
      <trkpt lat="43.05531" lon="1.47142">
        <ele>385</ele>
        <time>2024-06-23T10:01:37Z</time>
      </trkpt>
      <trkpt lat="43.0553" lon="1.47133">
        <ele>385</ele>
        <time>2024-06-23T10:01:38Z</time>
      </trkpt>
      <trkpt lat="43.05529" lon="1.47125">
        <ele>385</ele>
        <time>2024-06-23T10:01:39Z</time>
      </trkpt>
      <trkpt lat="43.05528" lon="1.47117">
        <ele>385</ele>
        <time>2024-06-23T10:01:40Z</time>
      </trkpt>
      <trkpt lat="43.05527" lon="1.47109">
        <ele>385</ele>
        <time>2024-06-23T10:01:41Z</time>
      </trkpt>
      <trkpt lat="43.05525" lon="1.47101">
        <ele>385</ele>
        <time>2024-06-23T10:01:42Z</time>
      </trkpt>
      <trkpt lat="43.05525" lon="1.47093">
        <ele>384.8</ele>
        <time>2024-06-23T10:01:43Z</time>
      </trkpt>
      <trkpt lat="43.05523" lon="1.47085">
        <ele>384.4</ele>
        <time>2024-06-23T10:01:44Z</time>
      </trkpt>
      <trkpt lat="43.05522" lon="1.47077">
        <ele>384.4</ele>
        <time>2024-06-23T10:01:45Z</time>
      </trkpt>
      <trkpt lat="43.05522" lon="1.47069">
        <ele>384.8</ele>
        <time>2024-06-23T10:01:46Z</time>
      </trkpt>
      <trkpt lat="43.05522" lon="1.47061">
        <ele>384.8</ele>
        <time>2024-06-23T10:01:47Z</time>
      </trkpt>
      <trkpt lat="43.05522" lon="1.47053">
        <ele>385</ele>
        <time>2024-06-23T10:01:48Z</time>
      </trkpt>
      <trkpt lat="43.05523" lon="1.47045">
        <ele>385</ele>
        <time>2024-06-23T10:01:49Z</time>
      </trkpt>
      <trkpt lat="43.05525" lon="1.47038">
        <ele>385</ele>
        <time>2024-06-23T10:01:50Z</time>
      </trkpt>
      <trkpt lat="43.05527" lon="1.4703">
        <ele>385</ele>
        <time>2024-06-23T10:01:51Z</time>
      </trkpt>
      <trkpt lat="43.05528" lon="1.47022">
        <ele>385</ele>
        <time>2024-06-23T10:01:52Z</time>
      </trkpt>
      <trkpt lat="43.05531" lon="1.47015">
        <ele>385</ele>
        <time>2024-06-23T10:01:53Z</time>
      </trkpt>
      <trkpt lat="43.05532" lon="1.47007">
        <ele>385</ele>
        <time>2024-06-23T10:01:54Z</time>
      </trkpt>
      <trkpt lat="43.05535" lon="1.47">
        <ele>385</ele>
        <time>2024-06-23T10:01:55Z</time>
      </trkpt>
      <trkpt lat="43.05537" lon="1.46993">
        <ele>385</ele>
        <time>2024-06-23T10:01:56Z</time>
      </trkpt>
      <trkpt lat="43.05539" lon="1.46986">
        <ele>385</ele>
        <time>2024-06-23T10:01:57Z</time>
      </trkpt>
      <trkpt lat="43.05541" lon="1.46979">
        <ele>385</ele>
        <time>2024-06-23T10:01:58Z</time>
      </trkpt>
      <trkpt lat="43.05545" lon="1.46972">
        <ele>385</ele>
        <time>2024-06-23T10:01:59Z</time>
      </trkpt>
      <trkpt lat="43.05549" lon="1.46966">
        <ele>385</ele>
        <time>2024-06-23T10:02:00Z</time>
      </trkpt>
      <trkpt lat="43.05554" lon="1.4696">
        <ele>385</ele>
        <time>2024-06-23T10:02:01Z</time>
      </trkpt>
      <trkpt lat="43.0556" lon="1.46955">
        <ele>385</ele>
        <time>2024-06-23T10:02:02Z</time>
      </trkpt>
      <trkpt lat="43.05565" lon="1.46951">
        <ele>385</ele>
        <time>2024-06-23T10:02:03Z</time>
      </trkpt>
      <trkpt lat="43.05571" lon="1.46946">
        <ele>384.6</ele>
        <time>2024-06-23T10:02:04Z</time>
      </trkpt>
      <trkpt lat="43.05577" lon="1.46943">
        <ele>384.6</ele>
        <time>2024-06-23T10:02:05Z</time>
      </trkpt>
      <trkpt lat="43.05582" lon="1.46939">
        <ele>384.4</ele>
        <time>2024-06-23T10:02:06Z</time>
      </trkpt>
      <trkpt lat="43.05588" lon="1.46936">
        <ele>384.4</ele>
        <time>2024-06-23T10:02:07Z</time>
      </trkpt>
      <trkpt lat="43.05594" lon="1.46933">
        <ele>384.4</ele>
        <time>2024-06-23T10:02:08Z</time>
      </trkpt>
      <trkpt lat="43.056" lon="1.46929">
        <ele>384.4</ele>
        <time>2024-06-23T10:02:09Z</time>
      </trkpt>
      <trkpt lat="43.05604" lon="1.46924">
        <ele>384</ele>
        <time>2024-06-23T10:02:10Z</time>
      </trkpt>
      <trkpt lat="43.05608" lon="1.46916">
        <ele>384</ele>
        <time>2024-06-23T10:02:11Z</time>
      </trkpt>
      <trkpt lat="43.05612" lon="1.46909">
        <ele>384</ele>
        <time>2024-06-23T10:02:12Z</time>
      </trkpt>
      <trkpt lat="43.05615" lon="1.46902">
        <ele>384</ele>
        <time>2024-06-23T10:02:13Z</time>
      </trkpt>
      <trkpt lat="43.05618" lon="1.46894">
        <ele>383.8</ele>
        <time>2024-06-23T10:02:14Z</time>
      </trkpt>
      <trkpt lat="43.0562" lon="1.46886">
        <ele>383</ele>
        <time>2024-06-23T10:02:15Z</time>
      </trkpt>
      <trkpt lat="43.05623" lon="1.46878">
        <ele>382.8</ele>
        <time>2024-06-23T10:02:16Z</time>
      </trkpt>
      <trkpt lat="43.05625" lon="1.4687">
        <ele>383</ele>
        <time>2024-06-23T10:02:17Z</time>
      </trkpt>
      <trkpt lat="43.05628" lon="1.46862">
        <ele>383</ele>
        <time>2024-06-23T10:02:18Z</time>
      </trkpt>
      <trkpt lat="43.0563" lon="1.46854">
        <ele>382.8</ele>
        <time>2024-06-23T10:02:19Z</time>
      </trkpt>
      <trkpt lat="43.05632" lon="1.46846">
        <ele>382.8</ele>
        <time>2024-06-23T10:02:20Z</time>
      </trkpt>
      <trkpt lat="43.05634" lon="1.46838">
        <ele>382.8</ele>
        <time>2024-06-23T10:02:21Z</time>
      </trkpt>
      <trkpt lat="43.05637" lon="1.4683">
        <ele>382.8</ele>
        <time>2024-06-23T10:02:22Z</time>
      </trkpt>
      <trkpt lat="43.05639" lon="1.46821">
        <ele>382.6</ele>
        <time>2024-06-23T10:02:23Z</time>
      </trkpt>
      <trkpt lat="43.05641" lon="1.46813">
        <ele>382.6</ele>
        <time>2024-06-23T10:02:24Z</time>
      </trkpt>
      <trkpt lat="43.05644" lon="1.46805">
        <ele>382.6</ele>
        <time>2024-06-23T10:02:25Z</time>
      </trkpt>
      <trkpt lat="43.05646" lon="1.46796">
        <ele>382.4</ele>
        <time>2024-06-23T10:02:26Z</time>
      </trkpt>
      <trkpt lat="43.05648" lon="1.46787">
        <ele>382.4</ele>
        <time>2024-06-23T10:02:27Z</time>
      </trkpt>
      <trkpt lat="43.05649" lon="1.46778">
        <ele>382.4</ele>
        <time>2024-06-23T10:02:28Z</time>
      </trkpt>
      <trkpt lat="43.0565" lon="1.46769">
        <ele>382.4</ele>
        <time>2024-06-23T10:02:29Z</time>
      </trkpt>
      <trkpt lat="43.05651" lon="1.4676">
        <ele>382</ele>
        <time>2024-06-23T10:02:30Z</time>
      </trkpt>
      <trkpt lat="43.0565" lon="1.46751">
        <ele>381.4</ele>
        <time>2024-06-23T10:02:31Z</time>
      </trkpt>
      <trkpt lat="43.05648" lon="1.46742">
        <ele>381.4</ele>
        <time>2024-06-23T10:02:32Z</time>
      </trkpt>
      <trkpt lat="43.05646" lon="1.46733">
        <ele>381.4</ele>
        <time>2024-06-23T10:02:33Z</time>
      </trkpt>
      <trkpt lat="43.05643" lon="1.46725">
        <ele>381</ele>
        <time>2024-06-23T10:02:34Z</time>
      </trkpt>
      <trkpt lat="43.0564" lon="1.46717">
        <ele>381</ele>
        <time>2024-06-23T10:02:35Z</time>
      </trkpt>
      <trkpt lat="43.05637" lon="1.46709">
        <ele>381</ele>
        <time>2024-06-23T10:02:36Z</time>
      </trkpt>
      <trkpt lat="43.05633" lon="1.46701">
        <ele>380.8</ele>
        <time>2024-06-23T10:02:37Z</time>
      </trkpt>
      <trkpt lat="43.05629" lon="1.46693">
        <ele>380.8</ele>
        <time>2024-06-23T10:02:38Z</time>
      </trkpt>
      <trkpt lat="43.05626" lon="1.46685">
        <ele>380.8</ele>
        <time>2024-06-23T10:02:39Z</time>
      </trkpt>
      <trkpt lat="43.05622" lon="1.46677">
        <ele>380.2</ele>
        <time>2024-06-23T10:02:40Z</time>
      </trkpt>
      <trkpt lat="43.05617" lon="1.4667">
        <ele>380.2</ele>
        <time>2024-06-23T10:02:41Z</time>
      </trkpt>
      <trkpt lat="43.05614" lon="1.46662">
        <ele>380.2</ele>
        <time>2024-06-23T10:02:42Z</time>
      </trkpt>
      <trkpt lat="43.05609" lon="1.46655">
        <ele>379.8</ele>
        <time>2024-06-23T10:02:43Z</time>
      </trkpt>
      <trkpt lat="43.05606" lon="1.46647">
        <ele>379.8</ele>
        <time>2024-06-23T10:02:44Z</time>
      </trkpt>
      <trkpt lat="43.05602" lon="1.46639">
        <ele>379.6</ele>
        <time>2024-06-23T10:02:45Z</time>
      </trkpt>
      <trkpt lat="43.05599" lon="1.46631">
        <ele>379.6</ele>
        <time>2024-06-23T10:02:46Z</time>
      </trkpt>
      <trkpt lat="43.05597" lon="1.46621">
        <ele>379</ele>
        <time>2024-06-23T10:02:47Z</time>
      </trkpt>
      <trkpt lat="43.05598" lon="1.46612">
        <ele>379</ele>
        <time>2024-06-23T10:02:48Z</time>
      </trkpt>
      <trkpt lat="43.056" lon="1.46603">
        <ele>378.6</ele>
        <time>2024-06-23T10:02:49Z</time>
      </trkpt>
      <trkpt lat="43.05603" lon="1.46595">
        <ele>378.6</ele>
        <time>2024-06-23T10:02:50Z</time>
      </trkpt>
      <trkpt lat="43.05607" lon="1.46588">
        <ele>378.6</ele>
        <time>2024-06-23T10:02:51Z</time>
      </trkpt>
      <trkpt lat="43.05612" lon="1.46581">
        <ele>378.6</ele>
        <time>2024-06-23T10:02:52Z</time>
      </trkpt>
      <trkpt lat="43.05615" lon="1.46573">
        <ele>378.2</ele>
        <time>2024-06-23T10:02:53Z</time>
      </trkpt>
      <trkpt lat="43.05618" lon="1.46565">
        <ele>378.2</ele>
        <time>2024-06-23T10:02:54Z</time>
      </trkpt>
      <trkpt lat="43.05621" lon="1.46557">
        <ele>378.2</ele>
        <time>2024-06-23T10:02:55Z</time>
      </trkpt>
      <trkpt lat="43.05623" lon="1.46549">
        <ele>378.2</ele>
        <time>2024-06-23T10:02:56Z</time>
      </trkpt>
      <trkpt lat="43.05625" lon="1.4654">
        <ele>377.8</ele>
        <time>2024-06-23T10:02:57Z</time>
      </trkpt>
      <trkpt lat="43.05627" lon="1.46531">
        <ele>377.6</ele>
        <time>2024-06-23T10:02:58Z</time>
      </trkpt>
      <trkpt lat="43.05628" lon="1.46521">
        <ele>377.4</ele>
        <time>2024-06-23T10:02:59Z</time>
      </trkpt>
      <trkpt lat="43.05628" lon="1.46512">
        <ele>376.8</ele>
        <time>2024-06-23T10:03:00Z</time>
      </trkpt>
      <trkpt lat="43.05628" lon="1.46502">
        <ele>376.6</ele>
        <time>2024-06-23T10:03:01Z</time>
      </trkpt>
      <trkpt lat="43.05627" lon="1.46493">
        <ele>376.8</ele>
        <time>2024-06-23T10:03:02Z</time>
      </trkpt>
      <trkpt lat="43.05625" lon="1.46484">
        <ele>376.8</ele>
        <time>2024-06-23T10:03:03Z</time>
      </trkpt>
      <trkpt lat="43.05623" lon="1.46475">
        <ele>376.8</ele>
        <time>2024-06-23T10:03:04Z</time>
      </trkpt>
      <trkpt lat="43.05621" lon="1.46465">
        <ele>376.8</ele>
        <time>2024-06-23T10:03:05Z</time>
      </trkpt>
      <trkpt lat="43.05619" lon="1.46456">
        <ele>376.8</ele>
        <time>2024-06-23T10:03:06Z</time>
      </trkpt>
      <trkpt lat="43.05617" lon="1.46447">
        <ele>376.8</ele>
        <time>2024-06-23T10:03:07Z</time>
      </trkpt>
      <trkpt lat="43.05615" lon="1.46438">
        <ele>376.2</ele>
        <time>2024-06-23T10:03:08Z</time>
      </trkpt>
      <trkpt lat="43.05614" lon="1.46428">
        <ele>376.2</ele>
        <time>2024-06-23T10:03:09Z</time>
      </trkpt>
      <trkpt lat="43.05615" lon="1.46419">
        <ele>376.2</ele>
        <time>2024-06-23T10:03:10Z</time>
      </trkpt>
      <trkpt lat="43.05616" lon="1.4641">
        <ele>376.2</ele>
        <time>2024-06-23T10:03:11Z</time>
      </trkpt>
      <trkpt lat="43.05617" lon="1.464">
        <ele>376.2</ele>
        <time>2024-06-23T10:03:12Z</time>
      </trkpt>
      <trkpt lat="43.05621" lon="1.46391">
        <ele>376.2</ele>
        <time>2024-06-23T10:03:13Z</time>
      </trkpt>
      <trkpt lat="43.05624" lon="1.46382">
        <ele>375.8</ele>
        <time>2024-06-23T10:03:14Z</time>
      </trkpt>
      <trkpt lat="43.05628" lon="1.46374">
        <ele>375.8</ele>
        <time>2024-06-23T10:03:15Z</time>
      </trkpt>
      <trkpt lat="43.05632" lon="1.46366">
        <ele>375.4</ele>
        <time>2024-06-23T10:03:16Z</time>
      </trkpt>
      <trkpt lat="43.05637" lon="1.46359">
        <ele>375.2</ele>
        <time>2024-06-23T10:03:17Z</time>
      </trkpt>
      <trkpt lat="43.05642" lon="1.46352">
        <ele>375.2</ele>
        <time>2024-06-23T10:03:18Z</time>
      </trkpt>
      <trkpt lat="43.05647" lon="1.46347">
        <ele>374.4</ele>
        <time>2024-06-23T10:03:19Z</time>
      </trkpt>
      <trkpt lat="43.05652" lon="1.46341">
        <ele>374</ele>
        <time>2024-06-23T10:03:20Z</time>
      </trkpt>
      <trkpt lat="43.05658" lon="1.46336">
        <ele>373.6</ele>
        <time>2024-06-23T10:03:21Z</time>
      </trkpt>
      <trkpt lat="43.05664" lon="1.46333">
        <ele>373.6</ele>
        <time>2024-06-23T10:03:22Z</time>
      </trkpt>
      <trkpt lat="43.05671" lon="1.4633">
        <ele>373.6</ele>
        <time>2024-06-23T10:03:23Z</time>
      </trkpt>
      <trkpt lat="43.05678" lon="1.46327">
        <ele>373.2</ele>
        <time>2024-06-23T10:03:24Z</time>
      </trkpt>
      <trkpt lat="43.05685" lon="1.46325">
        <ele>373</ele>
        <time>2024-06-23T10:03:25Z</time>
      </trkpt>
      <trkpt lat="43.05692" lon="1.46323">
        <ele>373</ele>
        <time>2024-06-23T10:03:26Z</time>
      </trkpt>
      <trkpt lat="43.05705" lon="1.46317">
        <ele>373</ele>
        <time>2024-06-23T10:03:27Z</time>
      </trkpt>
      <trkpt lat="43.0571" lon="1.46311">
        <ele>373</ele>
        <time>2024-06-23T10:03:28Z</time>
      </trkpt>
      <trkpt lat="43.05714" lon="1.46303">
        <ele>372.6</ele>
        <time>2024-06-23T10:03:29Z</time>
      </trkpt>
      <trkpt lat="43.05718" lon="1.46296">
        <ele>372.4</ele>
        <time>2024-06-23T10:03:30Z</time>
      </trkpt>
      <trkpt lat="43.0572" lon="1.46286">
        <ele>372.4</ele>
        <time>2024-06-23T10:03:31Z</time>
      </trkpt>
      <trkpt lat="43.05724" lon="1.46278">
        <ele>372.4</ele>
        <time>2024-06-23T10:03:32Z</time>
      </trkpt>
      <trkpt lat="43.05727" lon="1.46268">
        <ele>372.4</ele>
        <time>2024-06-23T10:03:33Z</time>
      </trkpt>
      <trkpt lat="43.05731" lon="1.4626">
        <ele>372.4</ele>
        <time>2024-06-23T10:03:34Z</time>
      </trkpt>
      <trkpt lat="43.05735" lon="1.46252">
        <ele>372.4</ele>
        <time>2024-06-23T10:03:35Z</time>
      </trkpt>
      <trkpt lat="43.05739" lon="1.46244">
        <ele>372.4</ele>
        <time>2024-06-23T10:03:36Z</time>
      </trkpt>
      <trkpt lat="43.05744" lon="1.46236">
        <ele>372.4</ele>
        <time>2024-06-23T10:03:37Z</time>
      </trkpt>
      <trkpt lat="43.05749" lon="1.46229">
        <ele>372.2</ele>
        <time>2024-06-23T10:03:38Z</time>
      </trkpt>
      <trkpt lat="43.05753" lon="1.46221">
        <ele>372.4</ele>
        <time>2024-06-23T10:03:39Z</time>
      </trkpt>
      <trkpt lat="43.05758" lon="1.46213">
        <ele>372.2</ele>
        <time>2024-06-23T10:03:40Z</time>
      </trkpt>
      <trkpt lat="43.05761" lon="1.46204">
        <ele>372.2</ele>
        <time>2024-06-23T10:03:41Z</time>
      </trkpt>
      <trkpt lat="43.05764" lon="1.46195">
        <ele>371.6</ele>
        <time>2024-06-23T10:03:42Z</time>
      </trkpt>
      <trkpt lat="43.05765" lon="1.46184">
        <ele>371.2</ele>
        <time>2024-06-23T10:03:43Z</time>
      </trkpt>
      <trkpt lat="43.05767" lon="1.46174">
        <ele>371.2</ele>
        <time>2024-06-23T10:03:44Z</time>
      </trkpt>
      <trkpt lat="43.05769" lon="1.46164">
        <ele>370.4</ele>
        <time>2024-06-23T10:03:45Z</time>
      </trkpt>
      <trkpt lat="43.0577" lon="1.46154">
        <ele>370.4</ele>
        <time>2024-06-23T10:03:46Z</time>
      </trkpt>
      <trkpt lat="43.05771" lon="1.46144">
        <ele>370.4</ele>
        <time>2024-06-23T10:03:47Z</time>
      </trkpt>
      <trkpt lat="43.05772" lon="1.46134">
        <ele>370.4</ele>
        <time>2024-06-23T10:03:48Z</time>
      </trkpt>
      <trkpt lat="43.05773" lon="1.46124">
        <ele>370.4</ele>
        <time>2024-06-23T10:03:49Z</time>
      </trkpt>
      <trkpt lat="43.05774" lon="1.46114">
        <ele>370.4</ele>
        <time>2024-06-23T10:03:50Z</time>
      </trkpt>
      <trkpt lat="43.05775" lon="1.46104">
        <ele>370.2</ele>
        <time>2024-06-23T10:03:51Z</time>
      </trkpt>
      <trkpt lat="43.05776" lon="1.46094">
        <ele>369.8</ele>
        <time>2024-06-23T10:03:52Z</time>
      </trkpt>
      <trkpt lat="43.05777" lon="1.46084">
        <ele>369.6</ele>
        <time>2024-06-23T10:03:53Z</time>
      </trkpt>
      <trkpt lat="43.05778" lon="1.46073">
        <ele>369.2</ele>
        <time>2024-06-23T10:03:54Z</time>
      </trkpt>
      <trkpt lat="43.0578" lon="1.46063">
        <ele>368.8</ele>
        <time>2024-06-23T10:03:55Z</time>
      </trkpt>
      <trkpt lat="43.05782" lon="1.46054">
        <ele>368.8</ele>
        <time>2024-06-23T10:03:56Z</time>
      </trkpt>
      <trkpt lat="43.05785" lon="1.46045">
        <ele>368.8</ele>
        <time>2024-06-23T10:03:57Z</time>
      </trkpt>
      <trkpt lat="43.05788" lon="1.46035">
        <ele>369</ele>
        <time>2024-06-23T10:03:58Z</time>
      </trkpt>
      <trkpt lat="43.05791" lon="1.46029">
        <ele>369.4</ele>
        <time>2024-06-23T10:03:59Z</time>
      </trkpt>
      <trkpt lat="43.05794" lon="1.46023">
        <ele>369.4</ele>
        <time>2024-06-23T10:04:00Z</time>
      </trkpt>
      <trkpt lat="43.058" lon="1.46012">
        <ele>368.6</ele>
        <time>2024-06-23T10:04:01Z</time>
      </trkpt>
      <trkpt lat="43.05806" lon="1.46005">
        <ele>368</ele>
        <time>2024-06-23T10:04:02Z</time>
      </trkpt>
      <trkpt lat="43.05812" lon="1.45999">
        <ele>368</ele>
        <time>2024-06-23T10:04:03Z</time>
      </trkpt>
      <trkpt lat="43.05817" lon="1.45992">
        <ele>367.8</ele>
        <time>2024-06-23T10:04:04Z</time>
      </trkpt>
      <trkpt lat="43.05822" lon="1.45985">
        <ele>368</ele>
        <time>2024-06-23T10:04:05Z</time>
      </trkpt>
      <trkpt lat="43.05828" lon="1.4598">
        <ele>368</ele>
        <time>2024-06-23T10:04:06Z</time>
      </trkpt>
      <trkpt lat="43.05833" lon="1.45974">
        <ele>367.4</ele>
        <time>2024-06-23T10:04:07Z</time>
      </trkpt>
      <trkpt lat="43.05839" lon="1.45968">
        <ele>367.2</ele>
        <time>2024-06-23T10:04:08Z</time>
      </trkpt>
      <trkpt lat="43.05845" lon="1.45962">
        <ele>367.2</ele>
        <time>2024-06-23T10:04:09Z</time>
      </trkpt>
      <trkpt lat="43.0585" lon="1.45956">
        <ele>366.8</ele>
        <time>2024-06-23T10:04:10Z</time>
      </trkpt>
      <trkpt lat="43.05856" lon="1.45951">
        <ele>366.8</ele>
        <time>2024-06-23T10:04:11Z</time>
      </trkpt>
      <trkpt lat="43.05862" lon="1.45945">
        <ele>366.4</ele>
        <time>2024-06-23T10:04:12Z</time>
      </trkpt>
      <trkpt lat="43.05868" lon="1.4594">
        <ele>365.8</ele>
        <time>2024-06-23T10:04:13Z</time>
      </trkpt>
      <trkpt lat="43.05874" lon="1.45934">
        <ele>365.8</ele>
        <time>2024-06-23T10:04:14Z</time>
      </trkpt>
      <trkpt lat="43.05879" lon="1.45928">
        <ele>365.6</ele>
        <time>2024-06-23T10:04:15Z</time>
      </trkpt>
      <trkpt lat="43.05885" lon="1.45923">
        <ele>365.6</ele>
        <time>2024-06-23T10:04:16Z</time>
      </trkpt>
      <trkpt lat="43.05891" lon="1.45918">
        <ele>365</ele>
        <time>2024-06-23T10:04:17Z</time>
      </trkpt>
      <trkpt lat="43.05897" lon="1.45913">
        <ele>365</ele>
        <time>2024-06-23T10:04:18Z</time>
      </trkpt>
      <trkpt lat="43.05903" lon="1.45908">
        <ele>365</ele>
        <time>2024-06-23T10:04:19Z</time>
      </trkpt>
      <trkpt lat="43.05909" lon="1.45903">
        <ele>365</ele>
        <time>2024-06-23T10:04:20Z</time>
      </trkpt>
      <trkpt lat="43.05915" lon="1.45898">
        <ele>365.2</ele>
        <time>2024-06-23T10:04:21Z</time>
      </trkpt>
      <trkpt lat="43.0592" lon="1.45893">
        <ele>364.8</ele>
        <time>2024-06-23T10:04:22Z</time>
      </trkpt>
      <trkpt lat="43.05925" lon="1.45885">
        <ele>364.4</ele>
        <time>2024-06-23T10:04:23Z</time>
      </trkpt>
      <trkpt lat="43.05929" lon="1.45878">
        <ele>364.4</ele>
        <time>2024-06-23T10:04:24Z</time>
      </trkpt>
      <trkpt lat="43.05932" lon="1.45869">
        <ele>363.8</ele>
        <time>2024-06-23T10:04:25Z</time>
      </trkpt>
      <trkpt lat="43.05935" lon="1.4586">
        <ele>363.8</ele>
        <time>2024-06-23T10:04:26Z</time>
      </trkpt>
      <trkpt lat="43.05939" lon="1.45852">
        <ele>363.8</ele>
        <time>2024-06-23T10:04:27Z</time>
      </trkpt>
      <trkpt lat="43.05943" lon="1.45844">
        <ele>363.8</ele>
        <time>2024-06-23T10:04:28Z</time>
      </trkpt>
      <trkpt lat="43.05948" lon="1.45836">
        <ele>363.8</ele>
        <time>2024-06-23T10:04:29Z</time>
      </trkpt>
      <trkpt lat="43.05953" lon="1.4583">
        <ele>363.4</ele>
        <time>2024-06-23T10:04:30Z</time>
      </trkpt>
      <trkpt lat="43.05959" lon="1.45823">
        <ele>363.2</ele>
        <time>2024-06-23T10:04:31Z</time>
      </trkpt>
      <trkpt lat="43.05964" lon="1.45817">
        <ele>363.2</ele>
        <time>2024-06-23T10:04:32Z</time>
      </trkpt>
      <trkpt lat="43.05971" lon="1.45812">
        <ele>363.6</ele>
        <time>2024-06-23T10:04:33Z</time>
      </trkpt>
      <trkpt lat="43.05977" lon="1.45807">
        <ele>362.6</ele>
        <time>2024-06-23T10:04:34Z</time>
      </trkpt>
      <trkpt lat="43.05984" lon="1.45803">
        <ele>362.6</ele>
        <time>2024-06-23T10:04:35Z</time>
      </trkpt>
      <trkpt lat="43.05991" lon="1.45799">
        <ele>362.2</ele>
        <time>2024-06-23T10:04:36Z</time>
      </trkpt>
      <trkpt lat="43.05998" lon="1.45795">
        <ele>362.2</ele>
        <time>2024-06-23T10:04:37Z</time>
      </trkpt>
      <trkpt lat="43.06004" lon="1.45792">
        <ele>361.6</ele>
        <time>2024-06-23T10:04:38Z</time>
      </trkpt>
      <trkpt lat="43.06011" lon="1.45788">
        <ele>361.6</ele>
        <time>2024-06-23T10:04:39Z</time>
      </trkpt>
      <trkpt lat="43.06018" lon="1.45784">
        <ele>361.4</ele>
        <time>2024-06-23T10:04:40Z</time>
      </trkpt>
      <trkpt lat="43.06025" lon="1.45781">
        <ele>361.2</ele>
        <time>2024-06-23T10:04:41Z</time>
      </trkpt>
      <trkpt lat="43.06031" lon="1.45778">
        <ele>361.2</ele>
        <time>2024-06-23T10:04:42Z</time>
      </trkpt>
      <trkpt lat="43.06037" lon="1.45775">
        <ele>361.2</ele>
        <time>2024-06-23T10:04:43Z</time>
      </trkpt>
      <trkpt lat="43.06044" lon="1.45772">
        <ele>360.8</ele>
        <time>2024-06-23T10:04:44Z</time>
      </trkpt>
      <trkpt lat="43.06051" lon="1.45772">
        <ele>361.4</ele>
        <time>2024-06-23T10:04:45Z</time>
      </trkpt>
      <trkpt lat="43.06058" lon="1.45772">
        <ele>361.4</ele>
        <time>2024-06-23T10:04:46Z</time>
      </trkpt>
      <trkpt lat="43.06065" lon="1.45773">
        <ele>361</ele>
        <time>2024-06-23T10:04:47Z</time>
      </trkpt>
      <trkpt lat="43.06071" lon="1.45778">
        <ele>360.6</ele>
        <time>2024-06-23T10:04:48Z</time>
      </trkpt>
      <trkpt lat="43.06077" lon="1.45783">
        <ele>360.2</ele>
        <time>2024-06-23T10:04:49Z</time>
      </trkpt>
      <trkpt lat="43.06082" lon="1.45788">
        <ele>359.8</ele>
        <time>2024-06-23T10:04:50Z</time>
      </trkpt>
      <trkpt lat="43.06088" lon="1.45792">
        <ele>359.6</ele>
        <time>2024-06-23T10:04:51Z</time>
      </trkpt>
      <trkpt lat="43.06094" lon="1.45797">
        <ele>359.4</ele>
        <time>2024-06-23T10:04:52Z</time>
      </trkpt>
      <trkpt lat="43.06101" lon="1.458">
        <ele>359</ele>
        <time>2024-06-23T10:04:53Z</time>
      </trkpt>
      <trkpt lat="43.06107" lon="1.45802">
        <ele>359</ele>
        <time>2024-06-23T10:04:54Z</time>
      </trkpt>
      <trkpt lat="43.06113" lon="1.45803">
        <ele>359</ele>
        <time>2024-06-23T10:04:55Z</time>
      </trkpt>
      <trkpt lat="43.06119" lon="1.45802">
        <ele>359</ele>
        <time>2024-06-23T10:04:56Z</time>
      </trkpt>
      <trkpt lat="43.06126" lon="1.45801">
        <ele>359</ele>
        <time>2024-06-23T10:04:57Z</time>
      </trkpt>
      <trkpt lat="43.06133" lon="1.45799">
        <ele>358.6</ele>
        <time>2024-06-23T10:04:58Z</time>
      </trkpt>
      <trkpt lat="43.06139" lon="1.45796">
        <ele>358.2</ele>
        <time>2024-06-23T10:04:59Z</time>
      </trkpt>
      <trkpt lat="43.06145" lon="1.45792">
        <ele>357.6</ele>
        <time>2024-06-23T10:05:00Z</time>
      </trkpt>
      <trkpt lat="43.0615" lon="1.45788">
        <ele>357.6</ele>
        <time>2024-06-23T10:05:01Z</time>
      </trkpt>
      <trkpt lat="43.06156" lon="1.45783">
        <ele>357.6</ele>
        <time>2024-06-23T10:05:02Z</time>
      </trkpt>
      <trkpt lat="43.06162" lon="1.45777">
        <ele>357.6</ele>
        <time>2024-06-23T10:05:03Z</time>
      </trkpt>
      <trkpt lat="43.06167" lon="1.45771">
        <ele>357.6</ele>
        <time>2024-06-23T10:05:04Z</time>
      </trkpt>
      <trkpt lat="43.06173" lon="1.45765">
        <ele>357.6</ele>
        <time>2024-06-23T10:05:05Z</time>
      </trkpt>
      <trkpt lat="43.06178" lon="1.45759">
        <ele>357.4</ele>
        <time>2024-06-23T10:05:06Z</time>
      </trkpt>
      <trkpt lat="43.06184" lon="1.45753">
        <ele>357.2</ele>
        <time>2024-06-23T10:05:07Z</time>
      </trkpt>
      <trkpt lat="43.06189" lon="1.45748">
        <ele>357.2</ele>
        <time>2024-06-23T10:05:08Z</time>
      </trkpt>
      <trkpt lat="43.06195" lon="1.45741">
        <ele>356.6</ele>
        <time>2024-06-23T10:05:09Z</time>
      </trkpt>
      <trkpt lat="43.062" lon="1.45736">
        <ele>356.8</ele>
        <time>2024-06-23T10:05:10Z</time>
      </trkpt>
      <trkpt lat="43.06206" lon="1.4573">
        <ele>356.8</ele>
        <time>2024-06-23T10:05:11Z</time>
      </trkpt>
      <trkpt lat="43.06212" lon="1.45725">
        <ele>356.8</ele>
        <time>2024-06-23T10:05:12Z</time>
      </trkpt>
      <trkpt lat="43.06218" lon="1.45719">
        <ele>356.8</ele>
        <time>2024-06-23T10:05:13Z</time>
      </trkpt>
      <trkpt lat="43.06224" lon="1.45715">
        <ele>356.8</ele>
        <time>2024-06-23T10:05:14Z</time>
      </trkpt>
      <trkpt lat="43.0623" lon="1.4571">
        <ele>356.4</ele>
        <time>2024-06-23T10:05:15Z</time>
      </trkpt>
      <trkpt lat="43.06236" lon="1.45706">
        <ele>355.8</ele>
        <time>2024-06-23T10:05:16Z</time>
      </trkpt>
      <trkpt lat="43.06243" lon="1.45702">
        <ele>355.8</ele>
        <time>2024-06-23T10:05:17Z</time>
      </trkpt>
      <trkpt lat="43.06249" lon="1.45699">
        <ele>355.8</ele>
        <time>2024-06-23T10:05:18Z</time>
      </trkpt>
      <trkpt lat="43.06255" lon="1.45695">
        <ele>355.8</ele>
        <time>2024-06-23T10:05:19Z</time>
      </trkpt>
      <trkpt lat="43.06261" lon="1.45692">
        <ele>355.8</ele>
        <time>2024-06-23T10:05:20Z</time>
      </trkpt>
      <trkpt lat="43.06268" lon="1.45689">
        <ele>355.8</ele>
        <time>2024-06-23T10:05:21Z</time>
      </trkpt>
      <trkpt lat="43.06274" lon="1.45687">
        <ele>355.8</ele>
        <time>2024-06-23T10:05:22Z</time>
      </trkpt>
      <trkpt lat="43.06281" lon="1.45684">
        <ele>355.4</ele>
        <time>2024-06-23T10:05:23Z</time>
      </trkpt>
      <trkpt lat="43.06287" lon="1.45682">
        <ele>355.2</ele>
        <time>2024-06-23T10:05:24Z</time>
      </trkpt>
      <trkpt lat="43.06294" lon="1.45679">
        <ele>355.4</ele>
        <time>2024-06-23T10:05:25Z</time>
      </trkpt>
      <trkpt lat="43.06301" lon="1.45678">
        <ele>355.2</ele>
        <time>2024-06-23T10:05:26Z</time>
      </trkpt>
      <trkpt lat="43.06307" lon="1.45676">
        <ele>355.2</ele>
        <time>2024-06-23T10:05:27Z</time>
      </trkpt>
      <trkpt lat="43.06314" lon="1.45675">
        <ele>355.2</ele>
        <time>2024-06-23T10:05:28Z</time>
      </trkpt>
      <trkpt lat="43.0632" lon="1.45675">
        <ele>355.2</ele>
        <time>2024-06-23T10:05:29Z</time>
      </trkpt>
      <trkpt lat="43.06326" lon="1.45675">
        <ele>355.2</ele>
        <time>2024-06-23T10:05:30Z</time>
      </trkpt>
      <trkpt lat="43.06333" lon="1.45676">
        <ele>355.6</ele>
        <time>2024-06-23T10:05:31Z</time>
      </trkpt>
      <trkpt lat="43.06339" lon="1.45679">
        <ele>355.6</ele>
        <time>2024-06-23T10:05:32Z</time>
      </trkpt>
      <trkpt lat="43.06346" lon="1.45681">
        <ele>355.6</ele>
        <time>2024-06-23T10:05:33Z</time>
      </trkpt>
      <trkpt lat="43.06352" lon="1.45682">
        <ele>355</ele>
        <time>2024-06-23T10:05:34Z</time>
      </trkpt>
      <trkpt lat="43.06358" lon="1.45684">
        <ele>355.2</ele>
        <time>2024-06-23T10:05:35Z</time>
      </trkpt>
      <trkpt lat="43.06364" lon="1.45686">
        <ele>354.8</ele>
        <time>2024-06-23T10:05:36Z</time>
      </trkpt>
      <trkpt lat="43.06371" lon="1.45687">
        <ele>354.8</ele>
        <time>2024-06-23T10:05:37Z</time>
      </trkpt>
      <trkpt lat="43.06377" lon="1.45687">
        <ele>354.8</ele>
        <time>2024-06-23T10:05:38Z</time>
      </trkpt>
      <trkpt lat="43.06384" lon="1.45686">
        <ele>355.2</ele>
        <time>2024-06-23T10:05:39Z</time>
      </trkpt>
      <trkpt lat="43.0639" lon="1.45683">
        <ele>355.2</ele>
        <time>2024-06-23T10:05:40Z</time>
      </trkpt>
      <trkpt lat="43.06395" lon="1.45678">
        <ele>355.2</ele>
        <time>2024-06-23T10:05:41Z</time>
      </trkpt>
      <trkpt lat="43.064" lon="1.45672">
        <ele>354.6</ele>
        <time>2024-06-23T10:05:42Z</time>
      </trkpt>
      <trkpt lat="43.06403" lon="1.45664">
        <ele>354.4</ele>
        <time>2024-06-23T10:05:43Z</time>
      </trkpt>
      <trkpt lat="43.06406" lon="1.45657">
        <ele>354.8</ele>
        <time>2024-06-23T10:05:44Z</time>
      </trkpt>
      <trkpt lat="43.06408" lon="1.45648">
        <ele>354.8</ele>
        <time>2024-06-23T10:05:45Z</time>
      </trkpt>
      <trkpt lat="43.06412" lon="1.4564">
        <ele>354.8</ele>
        <time>2024-06-23T10:05:46Z</time>
      </trkpt>
      <trkpt lat="43.06414" lon="1.45632">
        <ele>354.6</ele>
        <time>2024-06-23T10:05:47Z</time>
      </trkpt>
      <trkpt lat="43.06416" lon="1.45623">
        <ele>354.6</ele>
        <time>2024-06-23T10:05:48Z</time>
      </trkpt>
      <trkpt lat="43.06419" lon="1.45615">
        <ele>354.6</ele>
        <time>2024-06-23T10:05:49Z</time>
      </trkpt>
      <trkpt lat="43.06421" lon="1.45606">
        <ele>354.2</ele>
        <time>2024-06-23T10:05:50Z</time>
      </trkpt>
      <trkpt lat="43.06423" lon="1.45598">
        <ele>353.8</ele>
        <time>2024-06-23T10:05:51Z</time>
      </trkpt>
      <trkpt lat="43.06425" lon="1.4559">
        <ele>353.4</ele>
        <time>2024-06-23T10:05:52Z</time>
      </trkpt>
      <trkpt lat="43.06427" lon="1.45582">
        <ele>353.4</ele>
        <time>2024-06-23T10:05:53Z</time>
      </trkpt>
      <trkpt lat="43.0643" lon="1.45574">
        <ele>353.4</ele>
        <time>2024-06-23T10:05:54Z</time>
      </trkpt>
      <trkpt lat="43.06432" lon="1.45566">
        <ele>353</ele>
        <time>2024-06-23T10:05:55Z</time>
      </trkpt>
      <trkpt lat="43.06434" lon="1.45559">
        <ele>352.8</ele>
        <time>2024-06-23T10:05:56Z</time>
      </trkpt>
      <trkpt lat="43.06437" lon="1.45552">
        <ele>352.8</ele>
        <time>2024-06-23T10:05:57Z</time>
      </trkpt>
      <trkpt lat="43.06439" lon="1.45545">
        <ele>352.8</ele>
        <time>2024-06-23T10:05:58Z</time>
      </trkpt>
      <trkpt lat="43.0644" lon="1.45541">
        <ele>352.8</ele>
        <time>2024-06-23T10:05:59Z</time>
      </trkpt>
      <trkpt lat="43.06441" lon="1.45538">
        <ele>352.8</ele>
        <time>2024-06-23T10:06:00Z</time>
      </trkpt>
      <trkpt lat="43.06442" lon="1.4553">
        <ele>352.8</ele>
        <time>2024-06-23T10:06:01Z</time>
      </trkpt>
      <trkpt lat="43.06444" lon="1.45523">
        <ele>352.8</ele>
        <time>2024-06-23T10:06:02Z</time>
      </trkpt>
      <trkpt lat="43.06446" lon="1.45516">
        <ele>352.8</ele>
        <time>2024-06-23T10:06:03Z</time>
      </trkpt>
      <trkpt lat="43.06448" lon="1.4551">
        <ele>352.8</ele>
        <time>2024-06-23T10:06:04Z</time>
      </trkpt>
      <trkpt lat="43.06449" lon="1.45503">
        <ele>353.2</ele>
        <time>2024-06-23T10:06:05Z</time>
      </trkpt>
      <trkpt lat="43.06451" lon="1.45497">
        <ele>353.4</ele>
        <time>2024-06-23T10:06:06Z</time>
      </trkpt>
      <trkpt lat="43.06453" lon="1.45492">
        <ele>353.4</ele>
        <time>2024-06-23T10:06:07Z</time>
      </trkpt>
      <trkpt lat="43.06455" lon="1.45486">
        <ele>353.6</ele>
        <time>2024-06-23T10:06:08Z</time>
      </trkpt>
      <trkpt lat="43.06456" lon="1.4548">
        <ele>353.6</ele>
        <time>2024-06-23T10:06:09Z</time>
      </trkpt>
      <trkpt lat="43.0646" lon="1.45469">
        <ele>353.6</ele>
        <time>2024-06-23T10:06:10Z</time>
      </trkpt>
      <trkpt lat="43.06462" lon="1.45462">
        <ele>354</ele>
        <time>2024-06-23T10:06:11Z</time>
      </trkpt>
      <trkpt lat="43.06464" lon="1.45456">
        <ele>354</ele>
        <time>2024-06-23T10:06:12Z</time>
      </trkpt>
      <trkpt lat="43.06465" lon="1.45451">
        <ele>354</ele>
        <time>2024-06-23T10:06:13Z</time>
      </trkpt>
      <trkpt lat="43.06467" lon="1.45445">
        <ele>354</ele>
        <time>2024-06-23T10:06:14Z</time>
      </trkpt>
      <trkpt lat="43.06469" lon="1.4544">
        <ele>354.4</ele>
        <time>2024-06-23T10:06:15Z</time>
      </trkpt>
      <trkpt lat="43.0647" lon="1.45435">
        <ele>354.4</ele>
        <time>2024-06-23T10:06:16Z</time>
      </trkpt>
      <trkpt lat="43.06472" lon="1.45429">
        <ele>354.8</ele>
        <time>2024-06-23T10:06:17Z</time>
      </trkpt>
      <trkpt lat="43.06474" lon="1.45424">
        <ele>355.2</ele>
        <time>2024-06-23T10:06:18Z</time>
      </trkpt>
      <trkpt lat="43.06476" lon="1.4542">
        <ele>355.2</ele>
        <time>2024-06-23T10:06:19Z</time>
      </trkpt>
      <trkpt lat="43.06478" lon="1.45415">
        <ele>355.4</ele>
        <time>2024-06-23T10:06:20Z</time>
      </trkpt>
      <trkpt lat="43.06481" lon="1.45411">
        <ele>355.6</ele>
        <time>2024-06-23T10:06:21Z</time>
      </trkpt>
      <trkpt lat="43.06483" lon="1.45407">
        <ele>356</ele>
        <time>2024-06-23T10:06:22Z</time>
      </trkpt>
      <trkpt lat="43.06486" lon="1.45402">
        <ele>356.2</ele>
        <time>2024-06-23T10:06:23Z</time>
      </trkpt>
      <trkpt lat="43.06488" lon="1.45398">
        <ele>356.2</ele>
        <time>2024-06-23T10:06:24Z</time>
      </trkpt>
      <trkpt lat="43.0649" lon="1.45394">
        <ele>356.2</ele>
        <time>2024-06-23T10:06:25Z</time>
      </trkpt>
      <trkpt lat="43.06492" lon="1.45389">
        <ele>356.6</ele>
        <time>2024-06-23T10:06:26Z</time>
      </trkpt>
      <trkpt lat="43.06495" lon="1.45385">
        <ele>356.6</ele>
        <time>2024-06-23T10:06:27Z</time>
      </trkpt>
      <trkpt lat="43.06497" lon="1.45381">
        <ele>357</ele>
        <time>2024-06-23T10:06:28Z</time>
      </trkpt>
      <trkpt lat="43.06499" lon="1.45377">
        <ele>357.2</ele>
        <time>2024-06-23T10:06:29Z</time>
      </trkpt>
      <trkpt lat="43.06502" lon="1.45373">
        <ele>357.4</ele>
        <time>2024-06-23T10:06:30Z</time>
      </trkpt>
      <trkpt lat="43.06504" lon="1.45369">
        <ele>357.6</ele>
        <time>2024-06-23T10:06:31Z</time>
      </trkpt>
      <trkpt lat="43.06506" lon="1.45365">
        <ele>357.6</ele>
        <time>2024-06-23T10:06:32Z</time>
      </trkpt>
      <trkpt lat="43.06508" lon="1.45361">
        <ele>357.8</ele>
        <time>2024-06-23T10:06:33Z</time>
      </trkpt>
      <trkpt lat="43.0651" lon="1.45357">
        <ele>358</ele>
        <time>2024-06-23T10:06:34Z</time>
      </trkpt>
      <trkpt lat="43.06512" lon="1.45353">
        <ele>358.4</ele>
        <time>2024-06-23T10:06:35Z</time>
      </trkpt>
      <trkpt lat="43.06514" lon="1.45349">
        <ele>358.8</ele>
        <time>2024-06-23T10:06:36Z</time>
      </trkpt>
      <trkpt lat="43.06516" lon="1.45345">
        <ele>359</ele>
        <time>2024-06-23T10:06:37Z</time>
      </trkpt>
      <trkpt lat="43.06518" lon="1.45341">
        <ele>359.2</ele>
        <time>2024-06-23T10:06:38Z</time>
      </trkpt>
      <trkpt lat="43.0652" lon="1.45338">
        <ele>359.4</ele>
        <time>2024-06-23T10:06:39Z</time>
      </trkpt>
      <trkpt lat="43.06522" lon="1.45334">
        <ele>359.8</ele>
        <time>2024-06-23T10:06:40Z</time>
      </trkpt>
      <trkpt lat="43.06524" lon="1.45331">
        <ele>360</ele>
        <time>2024-06-23T10:06:41Z</time>
      </trkpt>
      <trkpt lat="43.06526" lon="1.45327">
        <ele>360.6</ele>
        <time>2024-06-23T10:06:42Z</time>
      </trkpt>
      <trkpt lat="43.06527" lon="1.45322">
        <ele>360.6</ele>
        <time>2024-06-23T10:06:43Z</time>
      </trkpt>
      <trkpt lat="43.06529" lon="1.45318">
        <ele>361</ele>
        <time>2024-06-23T10:06:44Z</time>
      </trkpt>
      <trkpt lat="43.0653" lon="1.45314">
        <ele>361.2</ele>
        <time>2024-06-23T10:06:45Z</time>
      </trkpt>
      <trkpt lat="43.06533" lon="1.4531">
        <ele>361.6</ele>
        <time>2024-06-23T10:06:46Z</time>
      </trkpt>
      <trkpt lat="43.06535" lon="1.45305">
        <ele>361.6</ele>
        <time>2024-06-23T10:06:47Z</time>
      </trkpt>
      <trkpt lat="43.06537" lon="1.45301">
        <ele>361.8</ele>
        <time>2024-06-23T10:06:48Z</time>
      </trkpt>
      <trkpt lat="43.06539" lon="1.45296">
        <ele>362</ele>
        <time>2024-06-23T10:06:49Z</time>
      </trkpt>
      <trkpt lat="43.0654" lon="1.45291">
        <ele>362</ele>
        <time>2024-06-23T10:06:50Z</time>
      </trkpt>
      <trkpt lat="43.06542" lon="1.45286">
        <ele>362.4</ele>
        <time>2024-06-23T10:06:51Z</time>
      </trkpt>
      <trkpt lat="43.06544" lon="1.45282">
        <ele>362.6</ele>
        <time>2024-06-23T10:06:52Z</time>
      </trkpt>
      <trkpt lat="43.06545" lon="1.45277">
        <ele>362.6</ele>
        <time>2024-06-23T10:06:53Z</time>
      </trkpt>
      <trkpt lat="43.06547" lon="1.45273">
        <ele>363</ele>
        <time>2024-06-23T10:06:54Z</time>
      </trkpt>
      <trkpt lat="43.06549" lon="1.45269">
        <ele>363</ele>
        <time>2024-06-23T10:06:55Z</time>
      </trkpt>
      <trkpt lat="43.0655" lon="1.45265">
        <ele>363.4</ele>
        <time>2024-06-23T10:06:56Z</time>
      </trkpt>
      <trkpt lat="43.06552" lon="1.4526">
        <ele>363.6</ele>
        <time>2024-06-23T10:06:57Z</time>
      </trkpt>
      <trkpt lat="43.06554" lon="1.45256">
        <ele>363.6</ele>
        <time>2024-06-23T10:06:58Z</time>
      </trkpt>
      <trkpt lat="43.06555" lon="1.45252">
        <ele>363.8</ele>
        <time>2024-06-23T10:06:59Z</time>
      </trkpt>
      <trkpt lat="43.06556" lon="1.45247">
        <ele>364</ele>
        <time>2024-06-23T10:07:00Z</time>
      </trkpt>
      <trkpt lat="43.06557" lon="1.45243">
        <ele>364.4</ele>
        <time>2024-06-23T10:07:01Z</time>
      </trkpt>
      <trkpt lat="43.06559" lon="1.45239">
        <ele>364.6</ele>
        <time>2024-06-23T10:07:02Z</time>
      </trkpt>
      <trkpt lat="43.0656" lon="1.45234">
        <ele>364.6</ele>
        <time>2024-06-23T10:07:03Z</time>
      </trkpt>
      <trkpt lat="43.06561" lon="1.45229">
        <ele>364.8</ele>
        <time>2024-06-23T10:07:04Z</time>
      </trkpt>
      <trkpt lat="43.06561" lon="1.45224">
        <ele>365.2</ele>
        <time>2024-06-23T10:07:05Z</time>
      </trkpt>
      <trkpt lat="43.06562" lon="1.45219">
        <ele>365.4</ele>
        <time>2024-06-23T10:07:06Z</time>
      </trkpt>
      <trkpt lat="43.06563" lon="1.45215">
        <ele>365.6</ele>
        <time>2024-06-23T10:07:07Z</time>
      </trkpt>
      <trkpt lat="43.06564" lon="1.4521">
        <ele>365.8</ele>
        <time>2024-06-23T10:07:08Z</time>
      </trkpt>
      <trkpt lat="43.06564" lon="1.45206">
        <ele>366.2</ele>
        <time>2024-06-23T10:07:09Z</time>
      </trkpt>
      <trkpt lat="43.06564" lon="1.45201">
        <ele>366.2</ele>
        <time>2024-06-23T10:07:10Z</time>
      </trkpt>
      <trkpt lat="43.06565" lon="1.45196">
        <ele>366.4</ele>
        <time>2024-06-23T10:07:11Z</time>
      </trkpt>
      <trkpt lat="43.06565" lon="1.45191">
        <ele>366.4</ele>
        <time>2024-06-23T10:07:12Z</time>
      </trkpt>
      <trkpt lat="43.06566" lon="1.45187">
        <ele>366.8</ele>
        <time>2024-06-23T10:07:13Z</time>
      </trkpt>
      <trkpt lat="43.06567" lon="1.45183">
        <ele>366.8</ele>
        <time>2024-06-23T10:07:14Z</time>
      </trkpt>
      <trkpt lat="43.06568" lon="1.45178">
        <ele>367.2</ele>
        <time>2024-06-23T10:07:15Z</time>
      </trkpt>
      <trkpt lat="43.06569" lon="1.45173">
        <ele>367.2</ele>
        <time>2024-06-23T10:07:16Z</time>
      </trkpt>
      <trkpt lat="43.06569" lon="1.45168">
        <ele>367.6</ele>
        <time>2024-06-23T10:07:17Z</time>
      </trkpt>
      <trkpt lat="43.0657" lon="1.45163">
        <ele>367.6</ele>
        <time>2024-06-23T10:07:18Z</time>
      </trkpt>
      <trkpt lat="43.06571" lon="1.45158">
        <ele>367.8</ele>
        <time>2024-06-23T10:07:19Z</time>
      </trkpt>
      <trkpt lat="43.06571" lon="1.45153">
        <ele>367.8</ele>
        <time>2024-06-23T10:07:20Z</time>
      </trkpt>
      <trkpt lat="43.06572" lon="1.45149">
        <ele>368.4</ele>
        <time>2024-06-23T10:07:21Z</time>
      </trkpt>
      <trkpt lat="43.06572" lon="1.45144">
        <ele>368.4</ele>
        <time>2024-06-23T10:07:22Z</time>
      </trkpt>
      <trkpt lat="43.06573" lon="1.4514">
        <ele>368.6</ele>
        <time>2024-06-23T10:07:23Z</time>
      </trkpt>
      <trkpt lat="43.06574" lon="1.45135">
        <ele>368.6</ele>
        <time>2024-06-23T10:07:24Z</time>
      </trkpt>
      <trkpt lat="43.06574" lon="1.4513">
        <ele>369</ele>
        <time>2024-06-23T10:07:25Z</time>
      </trkpt>
      <trkpt lat="43.06575" lon="1.45126">
        <ele>369.4</ele>
        <time>2024-06-23T10:07:26Z</time>
      </trkpt>
      <trkpt lat="43.06576" lon="1.45121">
        <ele>369.4</ele>
        <time>2024-06-23T10:07:27Z</time>
      </trkpt>
      <trkpt lat="43.06577" lon="1.45116">
        <ele>369.4</ele>
        <time>2024-06-23T10:07:28Z</time>
      </trkpt>
      <trkpt lat="43.06578" lon="1.45112">
        <ele>369.8</ele>
        <time>2024-06-23T10:07:29Z</time>
      </trkpt>
      <trkpt lat="43.06579" lon="1.45108">
        <ele>369.8</ele>
        <time>2024-06-23T10:07:30Z</time>
      </trkpt>
      <trkpt lat="43.0658" lon="1.45103">
        <ele>370.2</ele>
        <time>2024-06-23T10:07:31Z</time>
      </trkpt>
      <trkpt lat="43.06581" lon="1.45099">
        <ele>370.2</ele>
        <time>2024-06-23T10:07:32Z</time>
      </trkpt>
      <trkpt lat="43.06581" lon="1.45094">
        <ele>370.8</ele>
        <time>2024-06-23T10:07:33Z</time>
      </trkpt>
      <trkpt lat="43.06582" lon="1.45089">
        <ele>370.8</ele>
        <time>2024-06-23T10:07:34Z</time>
      </trkpt>
      <trkpt lat="43.06583" lon="1.45085">
        <ele>371.2</ele>
        <time>2024-06-23T10:07:35Z</time>
      </trkpt>
      <trkpt lat="43.06584" lon="1.45081">
        <ele>371.6</ele>
        <time>2024-06-23T10:07:36Z</time>
      </trkpt>
      <trkpt lat="43.06586" lon="1.45077">
        <ele>371.6</ele>
        <time>2024-06-23T10:07:37Z</time>
      </trkpt>
      <trkpt lat="43.06588" lon="1.45073">
        <ele>372</ele>
        <time>2024-06-23T10:07:38Z</time>
      </trkpt>
      <trkpt lat="43.0659" lon="1.45068">
        <ele>372</ele>
        <time>2024-06-23T10:07:39Z</time>
      </trkpt>
      <trkpt lat="43.06591" lon="1.45064">
        <ele>372.2</ele>
        <time>2024-06-23T10:07:40Z</time>
      </trkpt>
      <trkpt lat="43.06593" lon="1.4506">
        <ele>372.2</ele>
        <time>2024-06-23T10:07:41Z</time>
      </trkpt>
      <trkpt lat="43.06595" lon="1.45056">
        <ele>372.4</ele>
        <time>2024-06-23T10:07:42Z</time>
      </trkpt>
      <trkpt lat="43.06597" lon="1.45053">
        <ele>372.4</ele>
        <time>2024-06-23T10:07:43Z</time>
      </trkpt>
      <trkpt lat="43.06599" lon="1.4505">
        <ele>372.8</ele>
        <time>2024-06-23T10:07:44Z</time>
      </trkpt>
      <trkpt lat="43.06602" lon="1.45047">
        <ele>373.2</ele>
        <time>2024-06-23T10:07:45Z</time>
      </trkpt>
      <trkpt lat="43.06603" lon="1.45043">
        <ele>373.4</ele>
        <time>2024-06-23T10:07:46Z</time>
      </trkpt>
      <trkpt lat="43.06605" lon="1.45039">
        <ele>373.4</ele>
        <time>2024-06-23T10:07:47Z</time>
      </trkpt>
      <trkpt lat="43.06607" lon="1.45035">
        <ele>373.8</ele>
        <time>2024-06-23T10:07:48Z</time>
      </trkpt>
      <trkpt lat="43.06609" lon="1.45031">
        <ele>374</ele>
        <time>2024-06-23T10:07:49Z</time>
      </trkpt>
      <trkpt lat="43.06612" lon="1.45028">
        <ele>374.4</ele>
        <time>2024-06-23T10:07:50Z</time>
      </trkpt>
      <trkpt lat="43.06614" lon="1.45024">
        <ele>374.6</ele>
        <time>2024-06-23T10:07:51Z</time>
      </trkpt>
      <trkpt lat="43.06616" lon="1.4502">
        <ele>374.6</ele>
        <time>2024-06-23T10:07:52Z</time>
      </trkpt>
      <trkpt lat="43.06618" lon="1.45017">
        <ele>374.8</ele>
        <time>2024-06-23T10:07:53Z</time>
      </trkpt>
      <trkpt lat="43.0662" lon="1.45013">
        <ele>374.8</ele>
        <time>2024-06-23T10:07:54Z</time>
      </trkpt>
      <trkpt lat="43.06622" lon="1.45009">
        <ele>375</ele>
        <time>2024-06-23T10:07:55Z</time>
      </trkpt>
      <trkpt lat="43.06625" lon="1.45004">
        <ele>375.4</ele>
        <time>2024-06-23T10:07:56Z</time>
      </trkpt>
      <trkpt lat="43.06627" lon="1.45001">
        <ele>375.4</ele>
        <time>2024-06-23T10:07:57Z</time>
      </trkpt>
      <trkpt lat="43.0663" lon="1.44997">
        <ele>375.8</ele>
        <time>2024-06-23T10:07:58Z</time>
      </trkpt>
      <trkpt lat="43.06633" lon="1.44994">
        <ele>376</ele>
        <time>2024-06-23T10:07:59Z</time>
      </trkpt>
      <trkpt lat="43.06636" lon="1.44991">
        <ele>376.2</ele>
        <time>2024-06-23T10:08:00Z</time>
      </trkpt>
      <trkpt lat="43.06639" lon="1.44988">
        <ele>376.4</ele>
        <time>2024-06-23T10:08:01Z</time>
      </trkpt>
      <trkpt lat="43.06642" lon="1.44984">
        <ele>376.4</ele>
        <time>2024-06-23T10:08:02Z</time>
      </trkpt>
      <trkpt lat="43.06644" lon="1.44981">
        <ele>376.8</ele>
        <time>2024-06-23T10:08:03Z</time>
      </trkpt>
      <trkpt lat="43.06647" lon="1.44978">
        <ele>376.8</ele>
        <time>2024-06-23T10:08:04Z</time>
      </trkpt>
      <trkpt lat="43.0665" lon="1.44975">
        <ele>377.2</ele>
        <time>2024-06-23T10:08:05Z</time>
      </trkpt>
      <trkpt lat="43.06654" lon="1.44972">
        <ele>377.2</ele>
        <time>2024-06-23T10:08:06Z</time>
      </trkpt>
      <trkpt lat="43.06657" lon="1.44969">
        <ele>377.4</ele>
        <time>2024-06-23T10:08:07Z</time>
      </trkpt>
      <trkpt lat="43.0666" lon="1.44967">
        <ele>377.4</ele>
        <time>2024-06-23T10:08:08Z</time>
      </trkpt>
      <trkpt lat="43.06663" lon="1.44964">
        <ele>378</ele>
        <time>2024-06-23T10:08:09Z</time>
      </trkpt>
      <trkpt lat="43.06666" lon="1.44962">
        <ele>378.2</ele>
        <time>2024-06-23T10:08:10Z</time>
      </trkpt>
      <trkpt lat="43.06669" lon="1.44959">
        <ele>378.4</ele>
        <time>2024-06-23T10:08:11Z</time>
      </trkpt>
      <trkpt lat="43.06672" lon="1.44957">
        <ele>378.8</ele>
        <time>2024-06-23T10:08:12Z</time>
      </trkpt>
      <trkpt lat="43.06675" lon="1.44954">
        <ele>378.8</ele>
        <time>2024-06-23T10:08:13Z</time>
      </trkpt>
      <trkpt lat="43.06678" lon="1.44952">
        <ele>378.8</ele>
        <time>2024-06-23T10:08:14Z</time>
      </trkpt>
      <trkpt lat="43.06681" lon="1.4495">
        <ele>379.2</ele>
        <time>2024-06-23T10:08:15Z</time>
      </trkpt>
      <trkpt lat="43.06684" lon="1.44948">
        <ele>379.6</ele>
        <time>2024-06-23T10:08:16Z</time>
      </trkpt>
      <trkpt lat="43.06687" lon="1.44946">
        <ele>379.8</ele>
        <time>2024-06-23T10:08:17Z</time>
      </trkpt>
      <trkpt lat="43.06691" lon="1.44944">
        <ele>380</ele>
        <time>2024-06-23T10:08:18Z</time>
      </trkpt>
      <trkpt lat="43.06694" lon="1.44942">
        <ele>380.4</ele>
        <time>2024-06-23T10:08:19Z</time>
      </trkpt>
      <trkpt lat="43.06697" lon="1.44939">
        <ele>380.6</ele>
        <time>2024-06-23T10:08:20Z</time>
      </trkpt>
      <trkpt lat="43.067" lon="1.44937">
        <ele>380.8</ele>
        <time>2024-06-23T10:08:21Z</time>
      </trkpt>
      <trkpt lat="43.06702" lon="1.44933">
        <ele>380.8</ele>
        <time>2024-06-23T10:08:22Z</time>
      </trkpt>
      <trkpt lat="43.06705" lon="1.4493">
        <ele>381.2</ele>
        <time>2024-06-23T10:08:23Z</time>
      </trkpt>
      <trkpt lat="43.06707" lon="1.44926">
        <ele>381.4</ele>
        <time>2024-06-23T10:08:24Z</time>
      </trkpt>
      <trkpt lat="43.06708" lon="1.44921">
        <ele>381.8</ele>
        <time>2024-06-23T10:08:25Z</time>
      </trkpt>
      <trkpt lat="43.06709" lon="1.44917">
        <ele>381.8</ele>
        <time>2024-06-23T10:08:26Z</time>
      </trkpt>
      <trkpt lat="43.0671" lon="1.44913">
        <ele>382.2</ele>
        <time>2024-06-23T10:08:27Z</time>
      </trkpt>
      <trkpt lat="43.06711" lon="1.44908">
        <ele>382.2</ele>
        <time>2024-06-23T10:08:28Z</time>
      </trkpt>
      <trkpt lat="43.06712" lon="1.44903">
        <ele>382.6</ele>
        <time>2024-06-23T10:08:29Z</time>
      </trkpt>
      <trkpt lat="43.06712" lon="1.44898">
        <ele>382.6</ele>
        <time>2024-06-23T10:08:30Z</time>
      </trkpt>
      <trkpt lat="43.06711" lon="1.44894">
        <ele>382.6</ele>
        <time>2024-06-23T10:08:31Z</time>
      </trkpt>
      <trkpt lat="43.06711" lon="1.44889">
        <ele>383</ele>
        <time>2024-06-23T10:08:32Z</time>
      </trkpt>
      <trkpt lat="43.0671" lon="1.44884">
        <ele>383</ele>
        <time>2024-06-23T10:08:33Z</time>
      </trkpt>
      <trkpt lat="43.0671" lon="1.44879">
        <ele>383.2</ele>
        <time>2024-06-23T10:08:34Z</time>
      </trkpt>
      <trkpt lat="43.0671" lon="1.44874">
        <ele>383.2</ele>
        <time>2024-06-23T10:08:35Z</time>
      </trkpt>
      <trkpt lat="43.0671" lon="1.44869">
        <ele>383.6</ele>
        <time>2024-06-23T10:08:36Z</time>
      </trkpt>
      <trkpt lat="43.0671" lon="1.44864">
        <ele>384</ele>
        <time>2024-06-23T10:08:37Z</time>
      </trkpt>
      <trkpt lat="43.06709" lon="1.4486">
        <ele>384.2</ele>
        <time>2024-06-23T10:08:38Z</time>
      </trkpt>
      <trkpt lat="43.06708" lon="1.44855">
        <ele>384.6</ele>
        <time>2024-06-23T10:08:39Z</time>
      </trkpt>
      <trkpt lat="43.06708" lon="1.4485">
        <ele>384.6</ele>
        <time>2024-06-23T10:08:40Z</time>
      </trkpt>
      <trkpt lat="43.06708" lon="1.44845">
        <ele>384.6</ele>
        <time>2024-06-23T10:08:41Z</time>
      </trkpt>
      <trkpt lat="43.06708" lon="1.4484">
        <ele>384.6</ele>
        <time>2024-06-23T10:08:42Z</time>
      </trkpt>
      <trkpt lat="43.06708" lon="1.44835">
        <ele>385</ele>
        <time>2024-06-23T10:08:43Z</time>
      </trkpt>
      <trkpt lat="43.06709" lon="1.4483">
        <ele>385</ele>
        <time>2024-06-23T10:08:44Z</time>
      </trkpt>
      <trkpt lat="43.0671" lon="1.44826">
        <ele>385.4</ele>
        <time>2024-06-23T10:08:45Z</time>
      </trkpt>
      <trkpt lat="43.06711" lon="1.44821">
        <ele>385.4</ele>
        <time>2024-06-23T10:08:46Z</time>
      </trkpt>
      <trkpt lat="43.06711" lon="1.44816">
        <ele>385.6</ele>
        <time>2024-06-23T10:08:47Z</time>
      </trkpt>
      <trkpt lat="43.06712" lon="1.44812">
        <ele>385.6</ele>
        <time>2024-06-23T10:08:48Z</time>
      </trkpt>
      <trkpt lat="43.06713" lon="1.44807">
        <ele>386</ele>
        <time>2024-06-23T10:08:49Z</time>
      </trkpt>
      <trkpt lat="43.06714" lon="1.44802">
        <ele>386.4</ele>
        <time>2024-06-23T10:08:50Z</time>
      </trkpt>
      <trkpt lat="43.06715" lon="1.44798">
        <ele>386.4</ele>
        <time>2024-06-23T10:08:51Z</time>
      </trkpt>
      <trkpt lat="43.06717" lon="1.44794">
        <ele>386.8</ele>
        <time>2024-06-23T10:08:52Z</time>
      </trkpt>
      <trkpt lat="43.06718" lon="1.44789">
        <ele>386.8</ele>
        <time>2024-06-23T10:08:53Z</time>
      </trkpt>
      <trkpt lat="43.06719" lon="1.44785">
        <ele>387.2</ele>
        <time>2024-06-23T10:08:54Z</time>
      </trkpt>
      <trkpt lat="43.0672" lon="1.4478">
        <ele>387.6</ele>
        <time>2024-06-23T10:08:55Z</time>
      </trkpt>
      <trkpt lat="43.06721" lon="1.44776">
        <ele>387.6</ele>
        <time>2024-06-23T10:08:56Z</time>
      </trkpt>
      <trkpt lat="43.06722" lon="1.44771">
        <ele>387.8</ele>
        <time>2024-06-23T10:08:57Z</time>
      </trkpt>
      <trkpt lat="43.06724" lon="1.44766">
        <ele>388</ele>
        <time>2024-06-23T10:08:58Z</time>
      </trkpt>
      <trkpt lat="43.06725" lon="1.44761">
        <ele>388</ele>
        <time>2024-06-23T10:08:59Z</time>
      </trkpt>
      <trkpt lat="43.06727" lon="1.44756">
        <ele>388.4</ele>
        <time>2024-06-23T10:09:00Z</time>
      </trkpt>
      <trkpt lat="43.06728" lon="1.44751">
        <ele>388.4</ele>
        <time>2024-06-23T10:09:01Z</time>
      </trkpt>
      <trkpt lat="43.06729" lon="1.44746">
        <ele>388.6</ele>
        <time>2024-06-23T10:09:02Z</time>
      </trkpt>
      <trkpt lat="43.0673" lon="1.44742">
        <ele>389</ele>
        <time>2024-06-23T10:09:03Z</time>
      </trkpt>
      <trkpt lat="43.06731" lon="1.44737">
        <ele>389.2</ele>
        <time>2024-06-23T10:09:04Z</time>
      </trkpt>
      <trkpt lat="43.06731" lon="1.44732">
        <ele>389.4</ele>
        <time>2024-06-23T10:09:05Z</time>
      </trkpt>
      <trkpt lat="43.06731" lon="1.44727">
        <ele>389.6</ele>
        <time>2024-06-23T10:09:06Z</time>
      </trkpt>
      <trkpt lat="43.06731" lon="1.44722">
        <ele>389.6</ele>
        <time>2024-06-23T10:09:07Z</time>
      </trkpt>
      <trkpt lat="43.06731" lon="1.44717">
        <ele>389.6</ele>
        <time>2024-06-23T10:09:08Z</time>
      </trkpt>
      <trkpt lat="43.0673" lon="1.44713">
        <ele>390</ele>
        <time>2024-06-23T10:09:09Z</time>
      </trkpt>
      <trkpt lat="43.0673" lon="1.44708">
        <ele>390.4</ele>
        <time>2024-06-23T10:09:10Z</time>
      </trkpt>
      <trkpt lat="43.0673" lon="1.44703">
        <ele>390.4</ele>
        <time>2024-06-23T10:09:11Z</time>
      </trkpt>
      <trkpt lat="43.06729" lon="1.44698">
        <ele>390.6</ele>
        <time>2024-06-23T10:09:12Z</time>
      </trkpt>
      <trkpt lat="43.06727" lon="1.44693">
        <ele>390.6</ele>
        <time>2024-06-23T10:09:13Z</time>
      </trkpt>
      <trkpt lat="43.06726" lon="1.44688">
        <ele>391.2</ele>
        <time>2024-06-23T10:09:14Z</time>
      </trkpt>
      <trkpt lat="43.06725" lon="1.44683">
        <ele>391.4</ele>
        <time>2024-06-23T10:09:15Z</time>
      </trkpt>
      <trkpt lat="43.06724" lon="1.44678">
        <ele>391.6</ele>
        <time>2024-06-23T10:09:16Z</time>
      </trkpt>
      <trkpt lat="43.06723" lon="1.44674">
        <ele>392</ele>
        <time>2024-06-23T10:09:17Z</time>
      </trkpt>
      <trkpt lat="43.06722" lon="1.44669">
        <ele>392</ele>
        <time>2024-06-23T10:09:18Z</time>
      </trkpt>
      <trkpt lat="43.0672" lon="1.44666">
        <ele>392.2</ele>
        <time>2024-06-23T10:09:19Z</time>
      </trkpt>
      <trkpt lat="43.06719" lon="1.44661">
        <ele>392.2</ele>
        <time>2024-06-23T10:09:20Z</time>
      </trkpt>
      <trkpt lat="43.06719" lon="1.44657">
        <ele>392.6</ele>
        <time>2024-06-23T10:09:21Z</time>
      </trkpt>
      <trkpt lat="43.06718" lon="1.44652">
        <ele>393</ele>
        <time>2024-06-23T10:09:22Z</time>
      </trkpt>
      <trkpt lat="43.06718" lon="1.44648">
        <ele>393</ele>
        <time>2024-06-23T10:09:23Z</time>
      </trkpt>
      <trkpt lat="43.06717" lon="1.44644">
        <ele>393.4</ele>
        <time>2024-06-23T10:09:24Z</time>
      </trkpt>
      <trkpt lat="43.06715" lon="1.4464">
        <ele>393.4</ele>
        <time>2024-06-23T10:09:25Z</time>
      </trkpt>
      <trkpt lat="43.06714" lon="1.44635">
        <ele>393.8</ele>
        <time>2024-06-23T10:09:26Z</time>
      </trkpt>
      <trkpt lat="43.06714" lon="1.44631">
        <ele>394</ele>
        <time>2024-06-23T10:09:27Z</time>
      </trkpt>
      <trkpt lat="43.06713" lon="1.44626">
        <ele>394.4</ele>
        <time>2024-06-23T10:09:28Z</time>
      </trkpt>
      <trkpt lat="43.06713" lon="1.44621">
        <ele>394.4</ele>
        <time>2024-06-23T10:09:29Z</time>
      </trkpt>
      <trkpt lat="43.06713" lon="1.44616">
        <ele>394.8</ele>
        <time>2024-06-23T10:09:30Z</time>
      </trkpt>
      <trkpt lat="43.06712" lon="1.44612">
        <ele>394.8</ele>
        <time>2024-06-23T10:09:31Z</time>
      </trkpt>
      <trkpt lat="43.06712" lon="1.44607">
        <ele>395.2</ele>
        <time>2024-06-23T10:09:32Z</time>
      </trkpt>
      <trkpt lat="43.06712" lon="1.44602">
        <ele>395.6</ele>
        <time>2024-06-23T10:09:33Z</time>
      </trkpt>
      <trkpt lat="43.06712" lon="1.44598">
        <ele>395.6</ele>
        <time>2024-06-23T10:09:34Z</time>
      </trkpt>
      <trkpt lat="43.06713" lon="1.44593">
        <ele>395.6</ele>
        <time>2024-06-23T10:09:35Z</time>
      </trkpt>
      <trkpt lat="43.06713" lon="1.44589">
        <ele>396</ele>
        <time>2024-06-23T10:09:36Z</time>
      </trkpt>
      <trkpt lat="43.06713" lon="1.44584">
        <ele>396</ele>
        <time>2024-06-23T10:09:37Z</time>
      </trkpt>
      <trkpt lat="43.06713" lon="1.44579">
        <ele>396.4</ele>
        <time>2024-06-23T10:09:38Z</time>
      </trkpt>
      <trkpt lat="43.06714" lon="1.44575">
        <ele>396.6</ele>
        <time>2024-06-23T10:09:39Z</time>
      </trkpt>
      <trkpt lat="43.06715" lon="1.4457">
        <ele>396.8</ele>
        <time>2024-06-23T10:09:40Z</time>
      </trkpt>
      <trkpt lat="43.06716" lon="1.44566">
        <ele>397</ele>
        <time>2024-06-23T10:09:41Z</time>
      </trkpt>
      <trkpt lat="43.06715" lon="1.44561">
        <ele>397.4</ele>
        <time>2024-06-23T10:09:42Z</time>
      </trkpt>
      <trkpt lat="43.06715" lon="1.44556">
        <ele>397.4</ele>
        <time>2024-06-23T10:09:43Z</time>
      </trkpt>
      <trkpt lat="43.06716" lon="1.44552">
        <ele>397.4</ele>
        <time>2024-06-23T10:09:44Z</time>
      </trkpt>
      <trkpt lat="43.06716" lon="1.44548">
        <ele>397.6</ele>
        <time>2024-06-23T10:09:45Z</time>
      </trkpt>
      <trkpt lat="43.06716" lon="1.44543">
        <ele>398</ele>
        <time>2024-06-23T10:09:46Z</time>
      </trkpt>
      <trkpt lat="43.06716" lon="1.44539">
        <ele>398</ele>
        <time>2024-06-23T10:09:47Z</time>
      </trkpt>
      <trkpt lat="43.06715" lon="1.44534">
        <ele>398.4</ele>
        <time>2024-06-23T10:09:48Z</time>
      </trkpt>
      <trkpt lat="43.06714" lon="1.4453">
        <ele>398.4</ele>
        <time>2024-06-23T10:09:49Z</time>
      </trkpt>
      <trkpt lat="43.06713" lon="1.44525">
        <ele>398.8</ele>
        <time>2024-06-23T10:09:50Z</time>
      </trkpt>
      <trkpt lat="43.06712" lon="1.44521">
        <ele>399</ele>
        <time>2024-06-23T10:09:51Z</time>
      </trkpt>
      <trkpt lat="43.06711" lon="1.44516">
        <ele>399</ele>
        <time>2024-06-23T10:09:52Z</time>
      </trkpt>
      <trkpt lat="43.0671" lon="1.44512">
        <ele>399.4</ele>
        <time>2024-06-23T10:09:53Z</time>
      </trkpt>
      <trkpt lat="43.06709" lon="1.44507">
        <ele>399.6</ele>
        <time>2024-06-23T10:09:54Z</time>
      </trkpt>
      <trkpt lat="43.06708" lon="1.44503">
        <ele>399.6</ele>
        <time>2024-06-23T10:09:55Z</time>
      </trkpt>
      <trkpt lat="43.06707" lon="1.44499">
        <ele>400</ele>
        <time>2024-06-23T10:09:56Z</time>
      </trkpt>
      <trkpt lat="43.06706" lon="1.44495">
        <ele>400.2</ele>
        <time>2024-06-23T10:09:57Z</time>
      </trkpt>
      <trkpt lat="43.06705" lon="1.44491">
        <ele>400.2</ele>
        <time>2024-06-23T10:09:58Z</time>
      </trkpt>
      <trkpt lat="43.06704" lon="1.44487">
        <ele>400.2</ele>
        <time>2024-06-23T10:09:59Z</time>
      </trkpt>
      <trkpt lat="43.06703" lon="1.44482">
        <ele>400.6</ele>
        <time>2024-06-23T10:10:00Z</time>
      </trkpt>
      <trkpt lat="43.06703" lon="1.44478">
        <ele>400.6</ele>
        <time>2024-06-23T10:10:01Z</time>
      </trkpt>
      <trkpt lat="43.06701" lon="1.44474">
        <ele>400.8</ele>
        <time>2024-06-23T10:10:02Z</time>
      </trkpt>
      <trkpt lat="43.067" lon="1.4447">
        <ele>401.2</ele>
        <time>2024-06-23T10:10:03Z</time>
      </trkpt>
      <trkpt lat="43.06698" lon="1.44465">
        <ele>401.4</ele>
        <time>2024-06-23T10:10:04Z</time>
      </trkpt>
      <trkpt lat="43.06697" lon="1.44461">
        <ele>401.4</ele>
        <time>2024-06-23T10:10:05Z</time>
      </trkpt>
      <trkpt lat="43.06697" lon="1.44456">
        <ele>401.8</ele>
        <time>2024-06-23T10:10:06Z</time>
      </trkpt>
      <trkpt lat="43.06697" lon="1.44451">
        <ele>402.2</ele>
        <time>2024-06-23T10:10:07Z</time>
      </trkpt>
      <trkpt lat="43.06697" lon="1.44447">
        <ele>402.4</ele>
        <time>2024-06-23T10:10:08Z</time>
      </trkpt>
      <trkpt lat="43.06697" lon="1.44442">
        <ele>402.4</ele>
        <time>2024-06-23T10:10:09Z</time>
      </trkpt>
      <trkpt lat="43.06697" lon="1.44437">
        <ele>402.8</ele>
        <time>2024-06-23T10:10:10Z</time>
      </trkpt>
      <trkpt lat="43.06698" lon="1.44432">
        <ele>402.8</ele>
        <time>2024-06-23T10:10:11Z</time>
      </trkpt>
      <trkpt lat="43.06699" lon="1.44427">
        <ele>402.8</ele>
        <time>2024-06-23T10:10:12Z</time>
      </trkpt>
      <trkpt lat="43.06701" lon="1.44423">
        <ele>403.2</ele>
        <time>2024-06-23T10:10:13Z</time>
      </trkpt>
      <trkpt lat="43.06703" lon="1.44418">
        <ele>403.2</ele>
        <time>2024-06-23T10:10:14Z</time>
      </trkpt>
      <trkpt lat="43.06705" lon="1.44414">
        <ele>403.4</ele>
        <time>2024-06-23T10:10:15Z</time>
      </trkpt>
      <trkpt lat="43.06705" lon="1.44414">
        <ele>403.4</ele>
        <time>2024-06-23T10:10:16Z</time>
      </trkpt>
      <trkpt lat="43.06707" lon="1.4441">
        <ele>403.8</ele>
        <time>2024-06-23T10:10:17Z</time>
      </trkpt>
      <trkpt lat="43.0671" lon="1.44406">
        <ele>403.8</ele>
        <time>2024-06-23T10:10:18Z</time>
      </trkpt>
      <trkpt lat="43.06712" lon="1.44402">
        <ele>404.4</ele>
        <time>2024-06-23T10:10:19Z</time>
      </trkpt>
      <trkpt lat="43.06715" lon="1.44399">
        <ele>404.6</ele>
        <time>2024-06-23T10:10:20Z</time>
      </trkpt>
      <trkpt lat="43.06718" lon="1.44395">
        <ele>404.6</ele>
        <time>2024-06-23T10:10:21Z</time>
      </trkpt>
      <trkpt lat="43.06721" lon="1.44391">
        <ele>404.6</ele>
        <time>2024-06-23T10:10:22Z</time>
      </trkpt>
      <trkpt lat="43.06724" lon="1.44388">
        <ele>405</ele>
        <time>2024-06-23T10:10:23Z</time>
      </trkpt>
      <trkpt lat="43.06726" lon="1.44384">
        <ele>405</ele>
        <time>2024-06-23T10:10:24Z</time>
      </trkpt>
      <trkpt lat="43.06729" lon="1.44381">
        <ele>405</ele>
        <time>2024-06-23T10:10:25Z</time>
      </trkpt>
      <trkpt lat="43.06732" lon="1.44378">
        <ele>405.2</ele>
        <time>2024-06-23T10:10:26Z</time>
      </trkpt>
      <trkpt lat="43.06734" lon="1.44374">
        <ele>405.2</ele>
        <time>2024-06-23T10:10:27Z</time>
      </trkpt>
      <trkpt lat="43.06736" lon="1.4437">
        <ele>405.2</ele>
        <time>2024-06-23T10:10:28Z</time>
      </trkpt>
      <trkpt lat="43.06738" lon="1.44366">
        <ele>405.2</ele>
        <time>2024-06-23T10:10:29Z</time>
      </trkpt>
      <trkpt lat="43.06741" lon="1.44363">
        <ele>405.6</ele>
        <time>2024-06-23T10:10:30Z</time>
      </trkpt>
      <trkpt lat="43.06743" lon="1.44359">
        <ele>405.6</ele>
        <time>2024-06-23T10:10:31Z</time>
      </trkpt>
      <trkpt lat="43.06745" lon="1.44355">
        <ele>406</ele>
        <time>2024-06-23T10:10:32Z</time>
      </trkpt>
      <trkpt lat="43.06747" lon="1.4435">
        <ele>406.2</ele>
        <time>2024-06-23T10:10:33Z</time>
      </trkpt>
      <trkpt lat="43.06749" lon="1.44346">
        <ele>406.2</ele>
        <time>2024-06-23T10:10:34Z</time>
      </trkpt>
      <trkpt lat="43.0675" lon="1.44341">
        <ele>406.6</ele>
        <time>2024-06-23T10:10:35Z</time>
      </trkpt>
      <trkpt lat="43.06751" lon="1.44335">
        <ele>406.6</ele>
        <time>2024-06-23T10:10:36Z</time>
      </trkpt>
      <trkpt lat="43.06752" lon="1.4433">
        <ele>407</ele>
        <time>2024-06-23T10:10:37Z</time>
      </trkpt>
      <trkpt lat="43.06753" lon="1.44325">
        <ele>407</ele>
        <time>2024-06-23T10:10:38Z</time>
      </trkpt>
      <trkpt lat="43.06754" lon="1.4432">
        <ele>407</ele>
        <time>2024-06-23T10:10:39Z</time>
      </trkpt>
      <trkpt lat="43.06755" lon="1.44316">
        <ele>407</ele>
        <time>2024-06-23T10:10:40Z</time>
      </trkpt>
      <trkpt lat="43.06756" lon="1.44311">
        <ele>407.4</ele>
        <time>2024-06-23T10:10:41Z</time>
      </trkpt>
      <trkpt lat="43.06757" lon="1.44307">
        <ele>407.6</ele>
        <time>2024-06-23T10:10:42Z</time>
      </trkpt>
      <trkpt lat="43.06757" lon="1.44302">
        <ele>407.6</ele>
        <time>2024-06-23T10:10:43Z</time>
      </trkpt>
      <trkpt lat="43.06758" lon="1.44298">
        <ele>407.6</ele>
        <time>2024-06-23T10:10:44Z</time>
      </trkpt>
      <trkpt lat="43.06758" lon="1.44294">
        <ele>407.6</ele>
        <time>2024-06-23T10:10:45Z</time>
      </trkpt>
      <trkpt lat="43.06758" lon="1.4429">
        <ele>407.6</ele>
        <time>2024-06-23T10:10:46Z</time>
      </trkpt>
      <trkpt lat="43.06759" lon="1.44286">
        <ele>407.6</ele>
        <time>2024-06-23T10:10:47Z</time>
      </trkpt>
      <trkpt lat="43.06759" lon="1.44282">
        <ele>407.6</ele>
        <time>2024-06-23T10:10:48Z</time>
      </trkpt>
      <trkpt lat="43.0676" lon="1.44277">
        <ele>407.8</ele>
        <time>2024-06-23T10:10:49Z</time>
      </trkpt>
      <trkpt lat="43.0676" lon="1.44273">
        <ele>407.8</ele>
        <time>2024-06-23T10:10:50Z</time>
      </trkpt>
      <trkpt lat="43.06761" lon="1.44269">
        <ele>407.8</ele>
        <time>2024-06-23T10:10:51Z</time>
      </trkpt>
      <trkpt lat="43.06762" lon="1.44264">
        <ele>408.2</ele>
        <time>2024-06-23T10:10:52Z</time>
      </trkpt>
      <trkpt lat="43.06763" lon="1.44259">
        <ele>408.2</ele>
        <time>2024-06-23T10:10:53Z</time>
      </trkpt>
      <trkpt lat="43.06764" lon="1.44254">
        <ele>408.4</ele>
        <time>2024-06-23T10:10:54Z</time>
      </trkpt>
      <trkpt lat="43.06765" lon="1.44249">
        <ele>408.4</ele>
        <time>2024-06-23T10:10:55Z</time>
      </trkpt>
      <trkpt lat="43.06766" lon="1.44245">
        <ele>408.8</ele>
        <time>2024-06-23T10:10:56Z</time>
      </trkpt>
      <trkpt lat="43.06768" lon="1.4424">
        <ele>409</ele>
        <time>2024-06-23T10:10:57Z</time>
      </trkpt>
      <trkpt lat="43.0677" lon="1.44236">
        <ele>409</ele>
        <time>2024-06-23T10:10:58Z</time>
      </trkpt>
      <trkpt lat="43.06771" lon="1.44231">
        <ele>409.4</ele>
        <time>2024-06-23T10:10:59Z</time>
      </trkpt>
      <trkpt lat="43.06774" lon="1.44227">
        <ele>409.8</ele>
        <time>2024-06-23T10:11:00Z</time>
      </trkpt>
      <trkpt lat="43.06776" lon="1.44223">
        <ele>409.8</ele>
        <time>2024-06-23T10:11:01Z</time>
      </trkpt>
      <trkpt lat="43.06778" lon="1.44219">
        <ele>410.2</ele>
        <time>2024-06-23T10:11:02Z</time>
      </trkpt>
      <trkpt lat="43.0678" lon="1.44215">
        <ele>410.2</ele>
        <time>2024-06-23T10:11:03Z</time>
      </trkpt>
      <trkpt lat="43.06782" lon="1.4421">
        <ele>410.2</ele>
        <time>2024-06-23T10:11:04Z</time>
      </trkpt>
      <trkpt lat="43.06785" lon="1.44206">
        <ele>410.6</ele>
        <time>2024-06-23T10:11:05Z</time>
      </trkpt>
      <trkpt lat="43.06787" lon="1.44202">
        <ele>410.6</ele>
        <time>2024-06-23T10:11:06Z</time>
      </trkpt>
      <trkpt lat="43.06789" lon="1.44198">
        <ele>410.8</ele>
        <time>2024-06-23T10:11:07Z</time>
      </trkpt>
      <trkpt lat="43.06791" lon="1.44194">
        <ele>410.8</ele>
        <time>2024-06-23T10:11:08Z</time>
      </trkpt>
      <trkpt lat="43.06793" lon="1.44189">
        <ele>411.2</ele>
        <time>2024-06-23T10:11:09Z</time>
      </trkpt>
      <trkpt lat="43.06795" lon="1.44185">
        <ele>411.2</ele>
        <time>2024-06-23T10:11:10Z</time>
      </trkpt>
      <trkpt lat="43.06796" lon="1.44181">
        <ele>411.4</ele>
        <time>2024-06-23T10:11:11Z</time>
      </trkpt>
      <trkpt lat="43.06798" lon="1.44176">
        <ele>411.4</ele>
        <time>2024-06-23T10:11:12Z</time>
      </trkpt>
      <trkpt lat="43.06799" lon="1.44171">
        <ele>411.4</ele>
        <time>2024-06-23T10:11:13Z</time>
      </trkpt>
      <trkpt lat="43.06799" lon="1.44165">
        <ele>411.6</ele>
        <time>2024-06-23T10:11:14Z</time>
      </trkpt>
      <trkpt lat="43.068" lon="1.4416">
        <ele>411.6</ele>
        <time>2024-06-23T10:11:15Z</time>
      </trkpt>
      <trkpt lat="43.06801" lon="1.44155">
        <ele>411.6</ele>
        <time>2024-06-23T10:11:16Z</time>
      </trkpt>
      <trkpt lat="43.06802" lon="1.4415">
        <ele>411.6</ele>
        <time>2024-06-23T10:11:17Z</time>
      </trkpt>
      <trkpt lat="43.06803" lon="1.44145">
        <ele>412</ele>
        <time>2024-06-23T10:11:18Z</time>
      </trkpt>
      <trkpt lat="43.06804" lon="1.4414">
        <ele>412</ele>
        <time>2024-06-23T10:11:19Z</time>
      </trkpt>
      <trkpt lat="43.06805" lon="1.44135">
        <ele>412</ele>
        <time>2024-06-23T10:11:20Z</time>
      </trkpt>
      <trkpt lat="43.06806" lon="1.4413">
        <ele>412.2</ele>
        <time>2024-06-23T10:11:21Z</time>
      </trkpt>
      <trkpt lat="43.06808" lon="1.44125">
        <ele>412.2</ele>
        <time>2024-06-23T10:11:22Z</time>
      </trkpt>
      <trkpt lat="43.0681" lon="1.4412">
        <ele>412.8</ele>
        <time>2024-06-23T10:11:23Z</time>
      </trkpt>
      <trkpt lat="43.06812" lon="1.44116">
        <ele>412.8</ele>
        <time>2024-06-23T10:11:24Z</time>
      </trkpt>
      <trkpt lat="43.06815" lon="1.44112">
        <ele>412.8</ele>
        <time>2024-06-23T10:11:25Z</time>
      </trkpt>
      <trkpt lat="43.06818" lon="1.44108">
        <ele>413.2</ele>
        <time>2024-06-23T10:11:26Z</time>
      </trkpt>
      <trkpt lat="43.06821" lon="1.44104">
        <ele>413.6</ele>
        <time>2024-06-23T10:11:27Z</time>
      </trkpt>
      <trkpt lat="43.06824" lon="1.441">
        <ele>413.6</ele>
        <time>2024-06-23T10:11:28Z</time>
      </trkpt>
      <trkpt lat="43.06827" lon="1.44097">
        <ele>414</ele>
        <time>2024-06-23T10:11:29Z</time>
      </trkpt>
      <trkpt lat="43.0683" lon="1.44093">
        <ele>414</ele>
        <time>2024-06-23T10:11:30Z</time>
      </trkpt>
      <trkpt lat="43.06833" lon="1.4409">
        <ele>414</ele>
        <time>2024-06-23T10:11:31Z</time>
      </trkpt>
      <trkpt lat="43.06836" lon="1.44086">
        <ele>414.2</ele>
        <time>2024-06-23T10:11:32Z</time>
      </trkpt>
      <trkpt lat="43.06839" lon="1.44081">
        <ele>414.2</ele>
        <time>2024-06-23T10:11:33Z</time>
      </trkpt>
      <trkpt lat="43.06841" lon="1.44077">
        <ele>414.2</ele>
        <time>2024-06-23T10:11:34Z</time>
      </trkpt>
      <trkpt lat="43.06843" lon="1.44073">
        <ele>414.4</ele>
        <time>2024-06-23T10:11:35Z</time>
      </trkpt>
      <trkpt lat="43.06845" lon="1.44068">
        <ele>414.4</ele>
        <time>2024-06-23T10:11:36Z</time>
      </trkpt>
      <trkpt lat="43.06846" lon="1.44063">
        <ele>414.4</ele>
        <time>2024-06-23T10:11:37Z</time>
      </trkpt>
      <trkpt lat="43.06848" lon="1.44058">
        <ele>414.4</ele>
        <time>2024-06-23T10:11:38Z</time>
      </trkpt>
      <trkpt lat="43.06849" lon="1.44053">
        <ele>414.4</ele>
        <time>2024-06-23T10:11:39Z</time>
      </trkpt>
      <trkpt lat="43.0685" lon="1.44048">
        <ele>414.8</ele>
        <time>2024-06-23T10:11:40Z</time>
      </trkpt>
      <trkpt lat="43.0685" lon="1.44043">
        <ele>414.8</ele>
        <time>2024-06-23T10:11:41Z</time>
      </trkpt>
      <trkpt lat="43.0685" lon="1.44038">
        <ele>415.2</ele>
        <time>2024-06-23T10:11:42Z</time>
      </trkpt>
      <trkpt lat="43.0685" lon="1.44032">
        <ele>415.2</ele>
        <time>2024-06-23T10:11:43Z</time>
      </trkpt>
      <trkpt lat="43.06849" lon="1.44026">
        <ele>415.6</ele>
        <time>2024-06-23T10:11:44Z</time>
      </trkpt>
      <trkpt lat="43.06849" lon="1.44021">
        <ele>415.6</ele>
        <time>2024-06-23T10:11:45Z</time>
      </trkpt>
      <trkpt lat="43.06848" lon="1.44015">
        <ele>415.6</ele>
        <time>2024-06-23T10:11:46Z</time>
      </trkpt>
      <trkpt lat="43.06848" lon="1.4401">
        <ele>415.6</ele>
        <time>2024-06-23T10:11:47Z</time>
      </trkpt>
      <trkpt lat="43.06847" lon="1.44005">
        <ele>415.6</ele>
        <time>2024-06-23T10:11:48Z</time>
      </trkpt>
      <trkpt lat="43.06846" lon="1.43999">
        <ele>415.8</ele>
        <time>2024-06-23T10:11:49Z</time>
      </trkpt>
      <trkpt lat="43.06844" lon="1.43994">
        <ele>415.8</ele>
        <time>2024-06-23T10:11:50Z</time>
      </trkpt>
      <trkpt lat="43.06842" lon="1.43989">
        <ele>416</ele>
        <time>2024-06-23T10:11:51Z</time>
      </trkpt>
      <trkpt lat="43.0684" lon="1.43984">
        <ele>416</ele>
        <time>2024-06-23T10:11:52Z</time>
      </trkpt>
      <trkpt lat="43.06839" lon="1.43979">
        <ele>416</ele>
        <time>2024-06-23T10:11:53Z</time>
      </trkpt>
      <trkpt lat="43.06837" lon="1.43974">
        <ele>416.2</ele>
        <time>2024-06-23T10:11:54Z</time>
      </trkpt>
      <trkpt lat="43.06835" lon="1.43969">
        <ele>416.2</ele>
        <time>2024-06-23T10:11:55Z</time>
      </trkpt>
      <trkpt lat="43.06832" lon="1.43964">
        <ele>416.6</ele>
        <time>2024-06-23T10:11:56Z</time>
      </trkpt>
      <trkpt lat="43.0683" lon="1.4396">
        <ele>416.6</ele>
        <time>2024-06-23T10:11:57Z</time>
      </trkpt>
      <trkpt lat="43.06828" lon="1.43955">
        <ele>416.6</ele>
        <time>2024-06-23T10:11:58Z</time>
      </trkpt>
      <trkpt lat="43.06826" lon="1.4395">
        <ele>417</ele>
        <time>2024-06-23T10:11:59Z</time>
      </trkpt>
      <trkpt lat="43.06824" lon="1.43945">
        <ele>417</ele>
        <time>2024-06-23T10:12:00Z</time>
      </trkpt>
      <trkpt lat="43.06822" lon="1.4394">
        <ele>417</ele>
        <time>2024-06-23T10:12:01Z</time>
      </trkpt>
      <trkpt lat="43.06821" lon="1.43936">
        <ele>417.4</ele>
        <time>2024-06-23T10:12:02Z</time>
      </trkpt>
      <trkpt lat="43.06818" lon="1.43925">
        <ele>417.4</ele>
        <time>2024-06-23T10:12:03Z</time>
      </trkpt>
      <trkpt lat="43.06818" lon="1.4392">
        <ele>417.6</ele>
        <time>2024-06-23T10:12:04Z</time>
      </trkpt>
      <trkpt lat="43.06817" lon="1.43914">
        <ele>417.6</ele>
        <time>2024-06-23T10:12:05Z</time>
      </trkpt>
      <trkpt lat="43.06817" lon="1.43909">
        <ele>418</ele>
        <time>2024-06-23T10:12:06Z</time>
      </trkpt>
      <trkpt lat="43.06817" lon="1.43903">
        <ele>417.8</ele>
        <time>2024-06-23T10:12:07Z</time>
      </trkpt>
      <trkpt lat="43.06817" lon="1.43898">
        <ele>418</ele>
        <time>2024-06-23T10:12:08Z</time>
      </trkpt>
      <trkpt lat="43.06817" lon="1.43892">
        <ele>418</ele>
        <time>2024-06-23T10:12:09Z</time>
      </trkpt>
      <trkpt lat="43.0682" lon="1.43886">
        <ele>418.4</ele>
        <time>2024-06-23T10:12:10Z</time>
      </trkpt>
      <trkpt lat="43.06822" lon="1.43881">
        <ele>418.4</ele>
        <time>2024-06-23T10:12:11Z</time>
      </trkpt>
      <trkpt lat="43.06823" lon="1.43875">
        <ele>418.6</ele>
        <time>2024-06-23T10:12:12Z</time>
      </trkpt>
      <trkpt lat="43.06824" lon="1.43868">
        <ele>418.6</ele>
        <time>2024-06-23T10:12:13Z</time>
      </trkpt>
      <trkpt lat="43.06827" lon="1.43862">
        <ele>418.6</ele>
        <time>2024-06-23T10:12:14Z</time>
      </trkpt>
      <trkpt lat="43.06829" lon="1.43856">
        <ele>418.6</ele>
        <time>2024-06-23T10:12:15Z</time>
      </trkpt>
      <trkpt lat="43.06831" lon="1.4385">
        <ele>418.6</ele>
        <time>2024-06-23T10:12:16Z</time>
      </trkpt>
      <trkpt lat="43.06833" lon="1.43843">
        <ele>418.6</ele>
        <time>2024-06-23T10:12:17Z</time>
      </trkpt>
      <trkpt lat="43.06835" lon="1.43836">
        <ele>418.2</ele>
        <time>2024-06-23T10:12:18Z</time>
      </trkpt>
      <trkpt lat="43.06838" lon="1.4383">
        <ele>418</ele>
        <time>2024-06-23T10:12:19Z</time>
      </trkpt>
      <trkpt lat="43.0684" lon="1.43824">
        <ele>418</ele>
        <time>2024-06-23T10:12:20Z</time>
      </trkpt>
      <trkpt lat="43.06842" lon="1.43818">
        <ele>418</ele>
        <time>2024-06-23T10:12:21Z</time>
      </trkpt>
      <trkpt lat="43.06845" lon="1.43811">
        <ele>418.4</ele>
        <time>2024-06-23T10:12:22Z</time>
      </trkpt>
      <trkpt lat="43.06847" lon="1.43805">
        <ele>418.4</ele>
        <time>2024-06-23T10:12:23Z</time>
      </trkpt>
      <trkpt lat="43.06849" lon="1.43798">
        <ele>418</ele>
        <time>2024-06-23T10:12:24Z</time>
      </trkpt>
      <trkpt lat="43.06851" lon="1.43791">
        <ele>418</ele>
        <time>2024-06-23T10:12:25Z</time>
      </trkpt>
      <trkpt lat="43.06854" lon="1.43784">
        <ele>417.6</ele>
        <time>2024-06-23T10:12:26Z</time>
      </trkpt>
      <trkpt lat="43.06857" lon="1.43778">
        <ele>417.4</ele>
        <time>2024-06-23T10:12:27Z</time>
      </trkpt>
      <trkpt lat="43.06859" lon="1.43771">
        <ele>417.4</ele>
        <time>2024-06-23T10:12:28Z</time>
      </trkpt>
      <trkpt lat="43.06861" lon="1.43765">
        <ele>417.4</ele>
        <time>2024-06-23T10:12:29Z</time>
      </trkpt>
      <trkpt lat="43.06863" lon="1.43758">
        <ele>417.4</ele>
        <time>2024-06-23T10:12:30Z</time>
      </trkpt>
      <trkpt lat="43.06865" lon="1.43752">
        <ele>417.4</ele>
        <time>2024-06-23T10:12:31Z</time>
      </trkpt>
      <trkpt lat="43.06868" lon="1.43745">
        <ele>417.2</ele>
        <time>2024-06-23T10:12:32Z</time>
      </trkpt>
      <trkpt lat="43.06871" lon="1.4374">
        <ele>417.2</ele>
        <time>2024-06-23T10:12:33Z</time>
      </trkpt>
      <trkpt lat="43.06874" lon="1.43734">
        <ele>417.2</ele>
        <time>2024-06-23T10:12:34Z</time>
      </trkpt>
      <trkpt lat="43.06877" lon="1.43728">
        <ele>417.2</ele>
        <time>2024-06-23T10:12:35Z</time>
      </trkpt>
      <trkpt lat="43.06881" lon="1.43723">
        <ele>417</ele>
        <time>2024-06-23T10:12:36Z</time>
      </trkpt>
      <trkpt lat="43.06884" lon="1.43717">
        <ele>417</ele>
        <time>2024-06-23T10:12:37Z</time>
      </trkpt>
      <trkpt lat="43.06888" lon="1.43712">
        <ele>417</ele>
        <time>2024-06-23T10:12:38Z</time>
      </trkpt>
      <trkpt lat="43.06891" lon="1.43706">
        <ele>417</ele>
        <time>2024-06-23T10:12:39Z</time>
      </trkpt>
      <trkpt lat="43.06894" lon="1.437">
        <ele>417</ele>
        <time>2024-06-23T10:12:40Z</time>
      </trkpt>
      <trkpt lat="43.06897" lon="1.43694">
        <ele>417</ele>
        <time>2024-06-23T10:12:41Z</time>
      </trkpt>
      <trkpt lat="43.069" lon="1.43687">
        <ele>417</ele>
        <time>2024-06-23T10:12:42Z</time>
      </trkpt>
      <trkpt lat="43.06902" lon="1.43681">
        <ele>417.2</ele>
        <time>2024-06-23T10:12:43Z</time>
      </trkpt>
      <trkpt lat="43.06904" lon="1.43674">
        <ele>417.2</ele>
        <time>2024-06-23T10:12:44Z</time>
      </trkpt>
      <trkpt lat="43.06905" lon="1.43667">
        <ele>417.2</ele>
        <time>2024-06-23T10:12:45Z</time>
      </trkpt>
      <trkpt lat="43.06908" lon="1.4366">
        <ele>416.8</ele>
        <time>2024-06-23T10:12:46Z</time>
      </trkpt>
      <trkpt lat="43.06909" lon="1.43653">
        <ele>416.8</ele>
        <time>2024-06-23T10:12:47Z</time>
      </trkpt>
      <trkpt lat="43.0691" lon="1.43646">
        <ele>416.8</ele>
        <time>2024-06-23T10:12:48Z</time>
      </trkpt>
      <trkpt lat="43.06912" lon="1.43639">
        <ele>416.8</ele>
        <time>2024-06-23T10:12:49Z</time>
      </trkpt>
      <trkpt lat="43.06913" lon="1.43632">
        <ele>416.8</ele>
        <time>2024-06-23T10:12:50Z</time>
      </trkpt>
      <trkpt lat="43.06914" lon="1.43625">
        <ele>416.6</ele>
        <time>2024-06-23T10:12:51Z</time>
      </trkpt>
      <trkpt lat="43.06916" lon="1.43618">
        <ele>416.6</ele>
        <time>2024-06-23T10:12:52Z</time>
      </trkpt>
      <trkpt lat="43.06918" lon="1.43611">
        <ele>416.6</ele>
        <time>2024-06-23T10:12:53Z</time>
      </trkpt>
      <trkpt lat="43.06919" lon="1.43603">
        <ele>416.4</ele>
        <time>2024-06-23T10:12:54Z</time>
      </trkpt>
      <trkpt lat="43.06921" lon="1.43596">
        <ele>416.4</ele>
        <time>2024-06-23T10:12:55Z</time>
      </trkpt>
      <trkpt lat="43.06922" lon="1.43588">
        <ele>415.8</ele>
        <time>2024-06-23T10:12:56Z</time>
      </trkpt>
      <trkpt lat="43.06923" lon="1.4358">
        <ele>415.8</ele>
        <time>2024-06-23T10:12:57Z</time>
      </trkpt>
      <trkpt lat="43.06924" lon="1.43572">
        <ele>416</ele>
        <time>2024-06-23T10:12:58Z</time>
      </trkpt>
      <trkpt lat="43.06925" lon="1.43565">
        <ele>416</ele>
        <time>2024-06-23T10:12:59Z</time>
      </trkpt>
      <trkpt lat="43.06926" lon="1.43557">
        <ele>416</ele>
        <time>2024-06-23T10:13:00Z</time>
      </trkpt>
      <trkpt lat="43.06928" lon="1.4355">
        <ele>416</ele>
        <time>2024-06-23T10:13:01Z</time>
      </trkpt>
      <trkpt lat="43.06929" lon="1.43543">
        <ele>416</ele>
        <time>2024-06-23T10:13:02Z</time>
      </trkpt>
      <trkpt lat="43.0693" lon="1.43535">
        <ele>415.8</ele>
        <time>2024-06-23T10:13:03Z</time>
      </trkpt>
      <trkpt lat="43.06931" lon="1.43528">
        <ele>415.8</ele>
        <time>2024-06-23T10:13:04Z</time>
      </trkpt>
      <trkpt lat="43.06932" lon="1.43521">
        <ele>415.6</ele>
        <time>2024-06-23T10:13:05Z</time>
      </trkpt>
      <trkpt lat="43.06934" lon="1.43513">
        <ele>415.6</ele>
        <time>2024-06-23T10:13:06Z</time>
      </trkpt>
      <trkpt lat="43.06936" lon="1.43506">
        <ele>415.8</ele>
        <time>2024-06-23T10:13:07Z</time>
      </trkpt>
      <trkpt lat="43.06937" lon="1.43499">
        <ele>415.6</ele>
        <time>2024-06-23T10:13:08Z</time>
      </trkpt>
      <trkpt lat="43.06938" lon="1.43492">
        <ele>415.6</ele>
        <time>2024-06-23T10:13:09Z</time>
      </trkpt>
      <trkpt lat="43.06938" lon="1.43484">
        <ele>415.6</ele>
        <time>2024-06-23T10:13:10Z</time>
      </trkpt>
      <trkpt lat="43.06939" lon="1.43477">
        <ele>415.6</ele>
        <time>2024-06-23T10:13:11Z</time>
      </trkpt>
      <trkpt lat="43.06939" lon="1.4347">
        <ele>415.6</ele>
        <time>2024-06-23T10:13:12Z</time>
      </trkpt>
      <trkpt lat="43.06939" lon="1.43462">
        <ele>415.6</ele>
        <time>2024-06-23T10:13:13Z</time>
      </trkpt>
      <trkpt lat="43.06939" lon="1.43455">
        <ele>415.4</ele>
        <time>2024-06-23T10:13:14Z</time>
      </trkpt>
      <trkpt lat="43.06939" lon="1.43447">
        <ele>415.4</ele>
        <time>2024-06-23T10:13:15Z</time>
      </trkpt>
      <trkpt lat="43.06938" lon="1.43439">
        <ele>415.4</ele>
        <time>2024-06-23T10:13:16Z</time>
      </trkpt>
      <trkpt lat="43.06938" lon="1.43432">
        <ele>415.4</ele>
        <time>2024-06-23T10:13:17Z</time>
      </trkpt>
      <trkpt lat="43.06938" lon="1.43424">
        <ele>415.4</ele>
        <time>2024-06-23T10:13:18Z</time>
      </trkpt>
      <trkpt lat="43.06938" lon="1.43416">
        <ele>415.4</ele>
        <time>2024-06-23T10:13:19Z</time>
      </trkpt>
      <trkpt lat="43.06938" lon="1.43409">
        <ele>415.4</ele>
        <time>2024-06-23T10:13:20Z</time>
      </trkpt>
      <trkpt lat="43.06937" lon="1.43401">
        <ele>415.4</ele>
        <time>2024-06-23T10:13:21Z</time>
      </trkpt>
      <trkpt lat="43.06937" lon="1.43393">
        <ele>415.2</ele>
        <time>2024-06-23T10:13:22Z</time>
      </trkpt>
      <trkpt lat="43.06937" lon="1.43385">
        <ele>415.2</ele>
        <time>2024-06-23T10:13:23Z</time>
      </trkpt>
      <trkpt lat="43.06938" lon="1.43377">
        <ele>415.2</ele>
        <time>2024-06-23T10:13:24Z</time>
      </trkpt>
      <trkpt lat="43.06938" lon="1.4337">
        <ele>415.2</ele>
        <time>2024-06-23T10:13:25Z</time>
      </trkpt>
      <trkpt lat="43.06939" lon="1.43362">
        <ele>414.8</ele>
        <time>2024-06-23T10:13:26Z</time>
      </trkpt>
      <trkpt lat="43.06941" lon="1.43355">
        <ele>414.8</ele>
        <time>2024-06-23T10:13:27Z</time>
      </trkpt>
      <trkpt lat="43.06942" lon="1.43348">
        <ele>414.8</ele>
        <time>2024-06-23T10:13:28Z</time>
      </trkpt>
      <trkpt lat="43.06944" lon="1.43341">
        <ele>414.8</ele>
        <time>2024-06-23T10:13:29Z</time>
      </trkpt>
      <trkpt lat="43.06946" lon="1.43334">
        <ele>414.8</ele>
        <time>2024-06-23T10:13:30Z</time>
      </trkpt>
      <trkpt lat="43.06948" lon="1.43327">
        <ele>414.8</ele>
        <time>2024-06-23T10:13:31Z</time>
      </trkpt>
      <trkpt lat="43.0695" lon="1.43319">
        <ele>414.8</ele>
        <time>2024-06-23T10:13:32Z</time>
      </trkpt>
      <trkpt lat="43.06952" lon="1.43313">
        <ele>414.6</ele>
        <time>2024-06-23T10:13:33Z</time>
      </trkpt>
      <trkpt lat="43.06954" lon="1.43305">
        <ele>415</ele>
        <time>2024-06-23T10:13:34Z</time>
      </trkpt>
      <trkpt lat="43.06957" lon="1.43298">
        <ele>414.6</ele>
        <time>2024-06-23T10:13:35Z</time>
      </trkpt>
      <trkpt lat="43.06959" lon="1.43291">
        <ele>414.6</ele>
        <time>2024-06-23T10:13:36Z</time>
      </trkpt>
      <trkpt lat="43.06961" lon="1.43284">
        <ele>414.6</ele>
        <time>2024-06-23T10:13:37Z</time>
      </trkpt>
      <trkpt lat="43.06964" lon="1.43276">
        <ele>414.6</ele>
        <time>2024-06-23T10:13:38Z</time>
      </trkpt>
      <trkpt lat="43.06966" lon="1.43269">
        <ele>414.6</ele>
        <time>2024-06-23T10:13:39Z</time>
      </trkpt>
      <trkpt lat="43.06969" lon="1.43262">
        <ele>414.2</ele>
        <time>2024-06-23T10:13:40Z</time>
      </trkpt>
      <trkpt lat="43.06972" lon="1.43255">
        <ele>414.2</ele>
        <time>2024-06-23T10:13:41Z</time>
      </trkpt>
      <trkpt lat="43.06974" lon="1.43248">
        <ele>414</ele>
        <time>2024-06-23T10:13:42Z</time>
      </trkpt>
      <trkpt lat="43.06977" lon="1.43241">
        <ele>414</ele>
        <time>2024-06-23T10:13:43Z</time>
      </trkpt>
      <trkpt lat="43.06979" lon="1.43233">
        <ele>414</ele>
        <time>2024-06-23T10:13:44Z</time>
      </trkpt>
      <trkpt lat="43.06981" lon="1.43226">
        <ele>414</ele>
        <time>2024-06-23T10:13:45Z</time>
      </trkpt>
      <trkpt lat="43.06984" lon="1.43219">
        <ele>414</ele>
        <time>2024-06-23T10:13:46Z</time>
      </trkpt>
      <trkpt lat="43.06986" lon="1.43212">
        <ele>414.4</ele>
        <time>2024-06-23T10:13:47Z</time>
      </trkpt>
      <trkpt lat="43.06989" lon="1.43205">
        <ele>414.4</ele>
        <time>2024-06-23T10:13:48Z</time>
      </trkpt>
      <trkpt lat="43.06991" lon="1.43198">
        <ele>414</ele>
        <time>2024-06-23T10:13:49Z</time>
      </trkpt>
      <trkpt lat="43.06994" lon="1.4319">
        <ele>414</ele>
        <time>2024-06-23T10:13:50Z</time>
      </trkpt>
      <trkpt lat="43.06996" lon="1.43183">
        <ele>414</ele>
        <time>2024-06-23T10:13:51Z</time>
      </trkpt>
      <trkpt lat="43.06999" lon="1.43176">
        <ele>414</ele>
        <time>2024-06-23T10:13:52Z</time>
      </trkpt>
      <trkpt lat="43.07002" lon="1.43168">
        <ele>414</ele>
        <time>2024-06-23T10:13:53Z</time>
      </trkpt>
      <trkpt lat="43.07004" lon="1.4316">
        <ele>413.8</ele>
        <time>2024-06-23T10:13:54Z</time>
      </trkpt>
      <trkpt lat="43.07007" lon="1.43152">
        <ele>413.8</ele>
        <time>2024-06-23T10:13:55Z</time>
      </trkpt>
      <trkpt lat="43.0701" lon="1.43145">
        <ele>413.8</ele>
        <time>2024-06-23T10:13:56Z</time>
      </trkpt>
      <trkpt lat="43.07013" lon="1.43138">
        <ele>413.8</ele>
        <time>2024-06-23T10:13:57Z</time>
      </trkpt>
      <trkpt lat="43.07017" lon="1.43131">
        <ele>414.2</ele>
        <time>2024-06-23T10:13:58Z</time>
      </trkpt>
      <trkpt lat="43.0702" lon="1.43124">
        <ele>414.2</ele>
        <time>2024-06-23T10:13:59Z</time>
      </trkpt>
      <trkpt lat="43.07025" lon="1.43117">
        <ele>414.2</ele>
        <time>2024-06-23T10:14:00Z</time>
      </trkpt>
      <trkpt lat="43.0703" lon="1.43111">
        <ele>414.2</ele>
        <time>2024-06-23T10:14:01Z</time>
      </trkpt>
      <trkpt lat="43.07034" lon="1.43106">
        <ele>414</ele>
        <time>2024-06-23T10:14:02Z</time>
      </trkpt>
      <trkpt lat="43.07039" lon="1.431">
        <ele>414</ele>
        <time>2024-06-23T10:14:03Z</time>
      </trkpt>
      <trkpt lat="43.07043" lon="1.43094">
        <ele>414</ele>
        <time>2024-06-23T10:14:04Z</time>
      </trkpt>
      <trkpt lat="43.07047" lon="1.43088">
        <ele>414</ele>
        <time>2024-06-23T10:14:05Z</time>
      </trkpt>
      <trkpt lat="43.07049" lon="1.4308">
        <ele>413.8</ele>
        <time>2024-06-23T10:14:06Z</time>
      </trkpt>
      <trkpt lat="43.07052" lon="1.43072">
        <ele>413.8</ele>
        <time>2024-06-23T10:14:07Z</time>
      </trkpt>
      <trkpt lat="43.07053" lon="1.43065">
        <ele>413.8</ele>
        <time>2024-06-23T10:14:08Z</time>
      </trkpt>
      <trkpt lat="43.07054" lon="1.43056">
        <ele>413.8</ele>
        <time>2024-06-23T10:14:09Z</time>
      </trkpt>
      <trkpt lat="43.07054" lon="1.43047">
        <ele>414</ele>
        <time>2024-06-23T10:14:10Z</time>
      </trkpt>
      <trkpt lat="43.07054" lon="1.43039">
        <ele>414</ele>
        <time>2024-06-23T10:14:11Z</time>
      </trkpt>
      <trkpt lat="43.07054" lon="1.43031">
        <ele>414</ele>
        <time>2024-06-23T10:14:12Z</time>
      </trkpt>
      <trkpt lat="43.07053" lon="1.43022">
        <ele>414</ele>
        <time>2024-06-23T10:14:13Z</time>
      </trkpt>
      <trkpt lat="43.07054" lon="1.43014">
        <ele>414</ele>
        <time>2024-06-23T10:14:14Z</time>
      </trkpt>
      <trkpt lat="43.07055" lon="1.43006">
        <ele>414</ele>
        <time>2024-06-23T10:14:15Z</time>
      </trkpt>
      <trkpt lat="43.07057" lon="1.42998">
        <ele>413.8</ele>
        <time>2024-06-23T10:14:16Z</time>
      </trkpt>
      <trkpt lat="43.07058" lon="1.42989">
        <ele>413.8</ele>
        <time>2024-06-23T10:14:17Z</time>
      </trkpt>
      <trkpt lat="43.0706" lon="1.42982">
        <ele>413.8</ele>
        <time>2024-06-23T10:14:18Z</time>
      </trkpt>
      <trkpt lat="43.07062" lon="1.42974">
        <ele>413.8</ele>
        <time>2024-06-23T10:14:19Z</time>
      </trkpt>
      <trkpt lat="43.07064" lon="1.42966">
        <ele>413.6</ele>
        <time>2024-06-23T10:14:20Z</time>
      </trkpt>
      <trkpt lat="43.07067" lon="1.42958">
        <ele>413.6</ele>
        <time>2024-06-23T10:14:21Z</time>
      </trkpt>
      <trkpt lat="43.07069" lon="1.42951">
        <ele>413.6</ele>
        <time>2024-06-23T10:14:22Z</time>
      </trkpt>
      <trkpt lat="43.07072" lon="1.42943">
        <ele>413.6</ele>
        <time>2024-06-23T10:14:23Z</time>
      </trkpt>
      <trkpt lat="43.07076" lon="1.42937">
        <ele>413.6</ele>
        <time>2024-06-23T10:14:24Z</time>
      </trkpt>
      <trkpt lat="43.0708" lon="1.42931">
        <ele>413.2</ele>
        <time>2024-06-23T10:14:25Z</time>
      </trkpt>
      <trkpt lat="43.07084" lon="1.42925">
        <ele>413.2</ele>
        <time>2024-06-23T10:14:26Z</time>
      </trkpt>
      <trkpt lat="43.07088" lon="1.42918">
        <ele>413.2</ele>
        <time>2024-06-23T10:14:27Z</time>
      </trkpt>
      <trkpt lat="43.07092" lon="1.42911">
        <ele>412.8</ele>
        <time>2024-06-23T10:14:28Z</time>
      </trkpt>
      <trkpt lat="43.07095" lon="1.42905">
        <ele>412.4</ele>
        <time>2024-06-23T10:14:29Z</time>
      </trkpt>
      <trkpt lat="43.07099" lon="1.42898">
        <ele>412.4</ele>
        <time>2024-06-23T10:14:30Z</time>
      </trkpt>
      <trkpt lat="43.07102" lon="1.4289">
        <ele>412.2</ele>
        <time>2024-06-23T10:14:31Z</time>
      </trkpt>
      <trkpt lat="43.07105" lon="1.42882">
        <ele>412.2</ele>
        <time>2024-06-23T10:14:32Z</time>
      </trkpt>
      <trkpt lat="43.07106" lon="1.42873">
        <ele>412.2</ele>
        <time>2024-06-23T10:14:33Z</time>
      </trkpt>
      <trkpt lat="43.07108" lon="1.42865">
        <ele>412.2</ele>
        <time>2024-06-23T10:14:34Z</time>
      </trkpt>
      <trkpt lat="43.0711" lon="1.42856">
        <ele>411.6</ele>
        <time>2024-06-23T10:14:35Z</time>
      </trkpt>
      <trkpt lat="43.07111" lon="1.42847">
        <ele>411.4</ele>
        <time>2024-06-23T10:14:36Z</time>
      </trkpt>
      <trkpt lat="43.07113" lon="1.42839">
        <ele>411.4</ele>
        <time>2024-06-23T10:14:37Z</time>
      </trkpt>
      <trkpt lat="43.07114" lon="1.42829">
        <ele>411.2</ele>
        <time>2024-06-23T10:14:38Z</time>
      </trkpt>
      <trkpt lat="43.07115" lon="1.4282">
        <ele>410.8</ele>
        <time>2024-06-23T10:14:39Z</time>
      </trkpt>
      <trkpt lat="43.07116" lon="1.42811">
        <ele>410.8</ele>
        <time>2024-06-23T10:14:40Z</time>
      </trkpt>
      <trkpt lat="43.07117" lon="1.42801">
        <ele>410.2</ele>
        <time>2024-06-23T10:14:41Z</time>
      </trkpt>
      <trkpt lat="43.07119" lon="1.42792">
        <ele>410.6</ele>
        <time>2024-06-23T10:14:42Z</time>
      </trkpt>
      <trkpt lat="43.0712" lon="1.42783">
        <ele>410.6</ele>
        <time>2024-06-23T10:14:43Z</time>
      </trkpt>
      <trkpt lat="43.07121" lon="1.42773">
        <ele>410.2</ele>
        <time>2024-06-23T10:14:44Z</time>
      </trkpt>
      <trkpt lat="43.07123" lon="1.42764">
        <ele>410.2</ele>
        <time>2024-06-23T10:14:45Z</time>
      </trkpt>
      <trkpt lat="43.07124" lon="1.42754">
        <ele>410</ele>
        <time>2024-06-23T10:14:46Z</time>
      </trkpt>
      <trkpt lat="43.07125" lon="1.42745">
        <ele>409.6</ele>
        <time>2024-06-23T10:14:47Z</time>
      </trkpt>
      <trkpt lat="43.07126" lon="1.42735">
        <ele>409.6</ele>
        <time>2024-06-23T10:14:48Z</time>
      </trkpt>
      <trkpt lat="43.07126" lon="1.42735">
        <ele>409.2</ele>
        <time>2024-06-23T10:14:49Z</time>
      </trkpt>
      <trkpt lat="43.07127" lon="1.42726">
        <ele>409.2</ele>
        <time>2024-06-23T10:14:50Z</time>
      </trkpt>
      <trkpt lat="43.07128" lon="1.42716">
        <ele>408.8</ele>
        <time>2024-06-23T10:14:51Z</time>
      </trkpt>
      <trkpt lat="43.0713" lon="1.42707">
        <ele>408.4</ele>
        <time>2024-06-23T10:14:52Z</time>
      </trkpt>
      <trkpt lat="43.07131" lon="1.42698">
        <ele>408.4</ele>
        <time>2024-06-23T10:14:53Z</time>
      </trkpt>
      <trkpt lat="43.07132" lon="1.42688">
        <ele>408</ele>
        <time>2024-06-23T10:14:54Z</time>
      </trkpt>
      <trkpt lat="43.07134" lon="1.42679">
        <ele>408</ele>
        <time>2024-06-23T10:14:55Z</time>
      </trkpt>
      <trkpt lat="43.07136" lon="1.4267">
        <ele>408</ele>
        <time>2024-06-23T10:14:56Z</time>
      </trkpt>
      <trkpt lat="43.07138" lon="1.42662">
        <ele>407.4</ele>
        <time>2024-06-23T10:14:57Z</time>
      </trkpt>
      <trkpt lat="43.0714" lon="1.42653">
        <ele>407.2</ele>
        <time>2024-06-23T10:14:58Z</time>
      </trkpt>
      <trkpt lat="43.07143" lon="1.42645">
        <ele>407.2</ele>
        <time>2024-06-23T10:14:59Z</time>
      </trkpt>
      <trkpt lat="43.07146" lon="1.42636">
        <ele>407</ele>
        <time>2024-06-23T10:15:00Z</time>
      </trkpt>
      <trkpt lat="43.07149" lon="1.42628">
        <ele>406.6</ele>
        <time>2024-06-23T10:15:01Z</time>
      </trkpt>
      <trkpt lat="43.07153" lon="1.4262">
        <ele>406.6</ele>
        <time>2024-06-23T10:15:02Z</time>
      </trkpt>
      <trkpt lat="43.07157" lon="1.42613">
        <ele>406.6</ele>
        <time>2024-06-23T10:15:03Z</time>
      </trkpt>
      <trkpt lat="43.07162" lon="1.42606">
        <ele>406.4</ele>
        <time>2024-06-23T10:15:04Z</time>
      </trkpt>
      <trkpt lat="43.07166" lon="1.42599">
        <ele>406.2</ele>
        <time>2024-06-23T10:15:05Z</time>
      </trkpt>
      <trkpt lat="43.07171" lon="1.42592">
        <ele>406.2</ele>
        <time>2024-06-23T10:15:06Z</time>
      </trkpt>
      <trkpt lat="43.07176" lon="1.42585">
        <ele>405.8</ele>
        <time>2024-06-23T10:15:07Z</time>
      </trkpt>
      <trkpt lat="43.07181" lon="1.42578">
        <ele>405.8</ele>
        <time>2024-06-23T10:15:08Z</time>
      </trkpt>
      <trkpt lat="43.07186" lon="1.42571">
        <ele>405.4</ele>
        <time>2024-06-23T10:15:09Z</time>
      </trkpt>
      <trkpt lat="43.0719" lon="1.42563">
        <ele>405.2</ele>
        <time>2024-06-23T10:15:10Z</time>
      </trkpt>
      <trkpt lat="43.07194" lon="1.42555">
        <ele>405.2</ele>
        <time>2024-06-23T10:15:11Z</time>
      </trkpt>
      <trkpt lat="43.07199" lon="1.42549">
        <ele>405.2</ele>
        <time>2024-06-23T10:15:12Z</time>
      </trkpt>
      <trkpt lat="43.07203" lon="1.42542">
        <ele>405</ele>
        <time>2024-06-23T10:15:13Z</time>
      </trkpt>
      <trkpt lat="43.07208" lon="1.42534">
        <ele>404.6</ele>
        <time>2024-06-23T10:15:14Z</time>
      </trkpt>
      <trkpt lat="43.07211" lon="1.42527">
        <ele>404.4</ele>
        <time>2024-06-23T10:15:15Z</time>
      </trkpt>
      <trkpt lat="43.07214" lon="1.42519">
        <ele>404</ele>
        <time>2024-06-23T10:15:16Z</time>
      </trkpt>
      <trkpt lat="43.07219" lon="1.42511">
        <ele>403.8</ele>
        <time>2024-06-23T10:15:17Z</time>
      </trkpt>
      <trkpt lat="43.07223" lon="1.42503">
        <ele>403.8</ele>
        <time>2024-06-23T10:15:18Z</time>
      </trkpt>
      <trkpt lat="43.07227" lon="1.42495">
        <ele>403.6</ele>
        <time>2024-06-23T10:15:19Z</time>
      </trkpt>
      <trkpt lat="43.07232" lon="1.42487">
        <ele>403.2</ele>
        <time>2024-06-23T10:15:20Z</time>
      </trkpt>
      <trkpt lat="43.07237" lon="1.42479">
        <ele>403</ele>
        <time>2024-06-23T10:15:21Z</time>
      </trkpt>
      <trkpt lat="43.07241" lon="1.42471">
        <ele>403</ele>
        <time>2024-06-23T10:15:22Z</time>
      </trkpt>
      <trkpt lat="43.07246" lon="1.42463">
        <ele>402.6</ele>
        <time>2024-06-23T10:15:23Z</time>
      </trkpt>
      <trkpt lat="43.07249" lon="1.42455">
        <ele>402.2</ele>
        <time>2024-06-23T10:15:24Z</time>
      </trkpt>
      <trkpt lat="43.07253" lon="1.42447">
        <ele>401.8</ele>
        <time>2024-06-23T10:15:25Z</time>
      </trkpt>
      <trkpt lat="43.07256" lon="1.42438">
        <ele>401.8</ele>
        <time>2024-06-23T10:15:26Z</time>
      </trkpt>
      <trkpt lat="43.07259" lon="1.42429">
        <ele>401.4</ele>
        <time>2024-06-23T10:15:27Z</time>
      </trkpt>
      <trkpt lat="43.07262" lon="1.4242">
        <ele>401.2</ele>
        <time>2024-06-23T10:15:28Z</time>
      </trkpt>
      <trkpt lat="43.07266" lon="1.42411">
        <ele>401.2</ele>
        <time>2024-06-23T10:15:29Z</time>
      </trkpt>
      <trkpt lat="43.07269" lon="1.42402">
        <ele>400.8</ele>
        <time>2024-06-23T10:15:30Z</time>
      </trkpt>
      <trkpt lat="43.07272" lon="1.42392">
        <ele>400.6</ele>
        <time>2024-06-23T10:15:31Z</time>
      </trkpt>
      <trkpt lat="43.07275" lon="1.42383">
        <ele>400.4</ele>
        <time>2024-06-23T10:15:32Z</time>
      </trkpt>
      <trkpt lat="43.07278" lon="1.42374">
        <ele>400</ele>
        <time>2024-06-23T10:15:33Z</time>
      </trkpt>
      <trkpt lat="43.07281" lon="1.42365">
        <ele>400</ele>
        <time>2024-06-23T10:15:34Z</time>
      </trkpt>
      <trkpt lat="43.07284" lon="1.42355">
        <ele>399.6</ele>
        <time>2024-06-23T10:15:35Z</time>
      </trkpt>
      <trkpt lat="43.07286" lon="1.42345">
        <ele>399.4</ele>
        <time>2024-06-23T10:15:36Z</time>
      </trkpt>
      <trkpt lat="43.07288" lon="1.42335">
        <ele>399</ele>
        <time>2024-06-23T10:15:37Z</time>
      </trkpt>
      <trkpt lat="43.07289" lon="1.42325">
        <ele>399</ele>
        <time>2024-06-23T10:15:38Z</time>
      </trkpt>
      <trkpt lat="43.0729" lon="1.42315">
        <ele>398.6</ele>
        <time>2024-06-23T10:15:39Z</time>
      </trkpt>
      <trkpt lat="43.07291" lon="1.42304">
        <ele>398.6</ele>
        <time>2024-06-23T10:15:40Z</time>
      </trkpt>
      <trkpt lat="43.07292" lon="1.42294">
        <ele>398.4</ele>
        <time>2024-06-23T10:15:41Z</time>
      </trkpt>
      <trkpt lat="43.07292" lon="1.42284">
        <ele>398.4</ele>
        <time>2024-06-23T10:15:42Z</time>
      </trkpt>
      <trkpt lat="43.07292" lon="1.42274">
        <ele>397.6</ele>
        <time>2024-06-23T10:15:43Z</time>
      </trkpt>
      <trkpt lat="43.07292" lon="1.42263">
        <ele>397.4</ele>
        <time>2024-06-23T10:15:44Z</time>
      </trkpt>
      <trkpt lat="43.07293" lon="1.42253">
        <ele>397.2</ele>
        <time>2024-06-23T10:15:45Z</time>
      </trkpt>
      <trkpt lat="43.07295" lon="1.42242">
        <ele>396.6</ele>
        <time>2024-06-23T10:15:46Z</time>
      </trkpt>
      <trkpt lat="43.07297" lon="1.42232">
        <ele>396.4</ele>
        <time>2024-06-23T10:15:47Z</time>
      </trkpt>
      <trkpt lat="43.073" lon="1.42222">
        <ele>396</ele>
        <time>2024-06-23T10:15:48Z</time>
      </trkpt>
      <trkpt lat="43.07303" lon="1.42212">
        <ele>395.8</ele>
        <time>2024-06-23T10:15:49Z</time>
      </trkpt>
      <trkpt lat="43.07306" lon="1.42203">
        <ele>395.8</ele>
        <time>2024-06-23T10:15:50Z</time>
      </trkpt>
      <trkpt lat="43.0731" lon="1.42194">
        <ele>395.4</ele>
        <time>2024-06-23T10:15:51Z</time>
      </trkpt>
      <trkpt lat="43.07314" lon="1.42184">
        <ele>395</ele>
        <time>2024-06-23T10:15:52Z</time>
      </trkpt>
      <trkpt lat="43.07318" lon="1.42175">
        <ele>395</ele>
        <time>2024-06-23T10:15:53Z</time>
      </trkpt>
      <trkpt lat="43.07321" lon="1.42167">
        <ele>394.8</ele>
        <time>2024-06-23T10:15:54Z</time>
      </trkpt>
      <trkpt lat="43.07325" lon="1.42158">
        <ele>394.4</ele>
        <time>2024-06-23T10:15:55Z</time>
      </trkpt>
      <trkpt lat="43.07328" lon="1.42149">
        <ele>394.4</ele>
        <time>2024-06-23T10:15:56Z</time>
      </trkpt>
      <trkpt lat="43.07331" lon="1.42139">
        <ele>393.8</ele>
        <time>2024-06-23T10:15:57Z</time>
      </trkpt>
      <trkpt lat="43.07333" lon="1.4213">
        <ele>393.4</ele>
        <time>2024-06-23T10:15:58Z</time>
      </trkpt>
      <trkpt lat="43.07335" lon="1.4212">
        <ele>393.2</ele>
        <time>2024-06-23T10:15:59Z</time>
      </trkpt>
      <trkpt lat="43.07338" lon="1.42111">
        <ele>392.8</ele>
        <time>2024-06-23T10:16:00Z</time>
      </trkpt>
      <trkpt lat="43.07341" lon="1.42101">
        <ele>392.6</ele>
        <time>2024-06-23T10:16:01Z</time>
      </trkpt>
      <trkpt lat="43.07344" lon="1.42092">
        <ele>392.4</ele>
        <time>2024-06-23T10:16:02Z</time>
      </trkpt>
      <trkpt lat="43.07347" lon="1.42082">
        <ele>391.8</ele>
        <time>2024-06-23T10:16:03Z</time>
      </trkpt>
      <trkpt lat="43.07351" lon="1.42073">
        <ele>391.4</ele>
        <time>2024-06-23T10:16:04Z</time>
      </trkpt>
      <trkpt lat="43.07356" lon="1.42065">
        <ele>391.4</ele>
        <time>2024-06-23T10:16:05Z</time>
      </trkpt>
      <trkpt lat="43.07361" lon="1.42058">
        <ele>391</ele>
        <time>2024-06-23T10:16:06Z</time>
      </trkpt>
      <trkpt lat="43.07366" lon="1.4205">
        <ele>391</ele>
        <time>2024-06-23T10:16:07Z</time>
      </trkpt>
      <trkpt lat="43.0737" lon="1.42041">
        <ele>390.6</ele>
        <time>2024-06-23T10:16:08Z</time>
      </trkpt>
      <trkpt lat="43.07374" lon="1.42033">
        <ele>390.6</ele>
        <time>2024-06-23T10:16:09Z</time>
      </trkpt>
      <trkpt lat="43.07376" lon="1.42023">
        <ele>390.4</ele>
        <time>2024-06-23T10:16:10Z</time>
      </trkpt>
      <trkpt lat="43.07378" lon="1.42014">
        <ele>390.4</ele>
        <time>2024-06-23T10:16:11Z</time>
      </trkpt>
      <trkpt lat="43.07379" lon="1.42004">
        <ele>390.4</ele>
        <time>2024-06-23T10:16:12Z</time>
      </trkpt>
      <trkpt lat="43.07381" lon="1.41994">
        <ele>389.8</ele>
        <time>2024-06-23T10:16:13Z</time>
      </trkpt>
      <trkpt lat="43.07381" lon="1.41984">
        <ele>389.8</ele>
        <time>2024-06-23T10:16:14Z</time>
      </trkpt>
      <trkpt lat="43.07382" lon="1.41974">
        <ele>389.4</ele>
        <time>2024-06-23T10:16:15Z</time>
      </trkpt>
      <trkpt lat="43.07384" lon="1.41964">
        <ele>389.4</ele>
        <time>2024-06-23T10:16:16Z</time>
      </trkpt>
      <trkpt lat="43.07386" lon="1.41954">
        <ele>388.8</ele>
        <time>2024-06-23T10:16:17Z</time>
      </trkpt>
      <trkpt lat="43.07388" lon="1.41945">
        <ele>388.8</ele>
        <time>2024-06-23T10:16:18Z</time>
      </trkpt>
      <trkpt lat="43.0739" lon="1.41934">
        <ele>388.4</ele>
        <time>2024-06-23T10:16:19Z</time>
      </trkpt>
      <trkpt lat="43.07393" lon="1.41925">
        <ele>388</ele>
        <time>2024-06-23T10:16:20Z</time>
      </trkpt>
      <trkpt lat="43.07396" lon="1.41915">
        <ele>388</ele>
        <time>2024-06-23T10:16:21Z</time>
      </trkpt>
      <trkpt lat="43.07399" lon="1.41904">
        <ele>387.8</ele>
        <time>2024-06-23T10:16:22Z</time>
      </trkpt>
      <trkpt lat="43.07402" lon="1.41895">
        <ele>387.6</ele>
        <time>2024-06-23T10:16:23Z</time>
      </trkpt>
      <trkpt lat="43.07405" lon="1.41886">
        <ele>387.6</ele>
        <time>2024-06-23T10:16:24Z</time>
      </trkpt>
      <trkpt lat="43.07409" lon="1.41877">
        <ele>387.2</ele>
        <time>2024-06-23T10:16:25Z</time>
      </trkpt>
      <trkpt lat="43.07413" lon="1.41869">
        <ele>386.6</ele>
        <time>2024-06-23T10:16:26Z</time>
      </trkpt>
      <trkpt lat="43.07416" lon="1.4186">
        <ele>386.4</ele>
        <time>2024-06-23T10:16:27Z</time>
      </trkpt>
      <trkpt lat="43.0742" lon="1.41851">
        <ele>386</ele>
        <time>2024-06-23T10:16:28Z</time>
      </trkpt>
      <trkpt lat="43.07424" lon="1.41842">
        <ele>385.6</ele>
        <time>2024-06-23T10:16:29Z</time>
      </trkpt>
      <trkpt lat="43.07428" lon="1.41833">
        <ele>385</ele>
        <time>2024-06-23T10:16:30Z</time>
      </trkpt>
      <trkpt lat="43.07432" lon="1.41824">
        <ele>384.8</ele>
        <time>2024-06-23T10:16:31Z</time>
      </trkpt>
      <trkpt lat="43.07434" lon="1.41814">
        <ele>384.8</ele>
        <time>2024-06-23T10:16:32Z</time>
      </trkpt>
      <trkpt lat="43.07441" lon="1.41796">
        <ele>384.4</ele>
        <time>2024-06-23T10:16:33Z</time>
      </trkpt>
      <trkpt lat="43.07445" lon="1.41787">
        <ele>384.4</ele>
        <time>2024-06-23T10:16:34Z</time>
      </trkpt>
      <trkpt lat="43.07448" lon="1.41777">
        <ele>384</ele>
        <time>2024-06-23T10:16:35Z</time>
      </trkpt>
      <trkpt lat="43.07452" lon="1.41768">
        <ele>383.8</ele>
        <time>2024-06-23T10:16:36Z</time>
      </trkpt>
      <trkpt lat="43.07455" lon="1.41759">
        <ele>383.6</ele>
        <time>2024-06-23T10:16:37Z</time>
      </trkpt>
      <trkpt lat="43.07458" lon="1.4175">
        <ele>383.6</ele>
        <time>2024-06-23T10:16:38Z</time>
      </trkpt>
      <trkpt lat="43.07461" lon="1.41741">
        <ele>383.2</ele>
        <time>2024-06-23T10:16:39Z</time>
      </trkpt>
      <trkpt lat="43.07464" lon="1.41732">
        <ele>383</ele>
        <time>2024-06-23T10:16:40Z</time>
      </trkpt>
      <trkpt lat="43.07468" lon="1.41724">
        <ele>382.8</ele>
        <time>2024-06-23T10:16:41Z</time>
      </trkpt>
      <trkpt lat="43.0747" lon="1.41715">
        <ele>382.4</ele>
        <time>2024-06-23T10:16:42Z</time>
      </trkpt>
      <trkpt lat="43.07474" lon="1.41705">
        <ele>382.4</ele>
        <time>2024-06-23T10:16:43Z</time>
      </trkpt>
      <trkpt lat="43.07478" lon="1.41696">
        <ele>382</ele>
        <time>2024-06-23T10:16:44Z</time>
      </trkpt>
      <trkpt lat="43.07482" lon="1.41688">
        <ele>381.8</ele>
        <time>2024-06-23T10:16:45Z</time>
      </trkpt>
      <trkpt lat="43.07487" lon="1.41679">
        <ele>381.8</ele>
        <time>2024-06-23T10:16:46Z</time>
      </trkpt>
      <trkpt lat="43.07491" lon="1.41671">
        <ele>381.4</ele>
        <time>2024-06-23T10:16:47Z</time>
      </trkpt>
      <trkpt lat="43.07497" lon="1.41664">
        <ele>380.8</ele>
        <time>2024-06-23T10:16:48Z</time>
      </trkpt>
      <trkpt lat="43.07503" lon="1.41657">
        <ele>380.6</ele>
        <time>2024-06-23T10:16:49Z</time>
      </trkpt>
      <trkpt lat="43.07508" lon="1.41652">
        <ele>380.4</ele>
        <time>2024-06-23T10:16:50Z</time>
      </trkpt>
      <trkpt lat="43.07514" lon="1.41646">
        <ele>380</ele>
        <time>2024-06-23T10:16:51Z</time>
      </trkpt>
      <trkpt lat="43.07521" lon="1.41642">
        <ele>379.8</ele>
        <time>2024-06-23T10:16:52Z</time>
      </trkpt>
      <trkpt lat="43.07527" lon="1.41638">
        <ele>379.6</ele>
        <time>2024-06-23T10:16:53Z</time>
      </trkpt>
      <trkpt lat="43.07533" lon="1.41634">
        <ele>379</ele>
        <time>2024-06-23T10:16:54Z</time>
      </trkpt>
      <trkpt lat="43.0754" lon="1.41629">
        <ele>379</ele>
        <time>2024-06-23T10:16:55Z</time>
      </trkpt>
      <trkpt lat="43.07546" lon="1.41626">
        <ele>378.6</ele>
        <time>2024-06-23T10:16:56Z</time>
      </trkpt>
      <trkpt lat="43.07553" lon="1.41621">
        <ele>378.2</ele>
        <time>2024-06-23T10:16:57Z</time>
      </trkpt>
      <trkpt lat="43.07559" lon="1.41617">
        <ele>377.8</ele>
        <time>2024-06-23T10:16:58Z</time>
      </trkpt>
      <trkpt lat="43.07566" lon="1.41613">
        <ele>377.8</ele>
        <time>2024-06-23T10:16:59Z</time>
      </trkpt>
      <trkpt lat="43.07571" lon="1.41608">
        <ele>377.4</ele>
        <time>2024-06-23T10:17:00Z</time>
      </trkpt>
      <trkpt lat="43.07577" lon="1.41602">
        <ele>377.2</ele>
        <time>2024-06-23T10:17:01Z</time>
      </trkpt>
      <trkpt lat="43.07583" lon="1.41596">
        <ele>377</ele>
        <time>2024-06-23T10:17:02Z</time>
      </trkpt>
      <trkpt lat="43.07589" lon="1.41589">
        <ele>376.4</ele>
        <time>2024-06-23T10:17:03Z</time>
      </trkpt>
      <trkpt lat="43.07594" lon="1.41582">
        <ele>375.8</ele>
        <time>2024-06-23T10:17:04Z</time>
      </trkpt>
      <trkpt lat="43.07598" lon="1.41574">
        <ele>375.4</ele>
        <time>2024-06-23T10:17:05Z</time>
      </trkpt>
      <trkpt lat="43.07602" lon="1.41567">
        <ele>375.2</ele>
        <time>2024-06-23T10:17:06Z</time>
      </trkpt>
      <trkpt lat="43.07607" lon="1.41558">
        <ele>375.2</ele>
        <time>2024-06-23T10:17:07Z</time>
      </trkpt>
      <trkpt lat="43.07611" lon="1.4155">
        <ele>374.8</ele>
        <time>2024-06-23T10:17:08Z</time>
      </trkpt>
      <trkpt lat="43.07615" lon="1.41542">
        <ele>374.6</ele>
        <time>2024-06-23T10:17:09Z</time>
      </trkpt>
      <trkpt lat="43.0762" lon="1.41534">
        <ele>374.6</ele>
        <time>2024-06-23T10:17:10Z</time>
      </trkpt>
      <trkpt lat="43.07624" lon="1.41526">
        <ele>374</ele>
        <time>2024-06-23T10:17:11Z</time>
      </trkpt>
      <trkpt lat="43.07629" lon="1.41518">
        <ele>374</ele>
        <time>2024-06-23T10:17:12Z</time>
      </trkpt>
      <trkpt lat="43.07633" lon="1.4151">
        <ele>373.6</ele>
        <time>2024-06-23T10:17:13Z</time>
      </trkpt>
      <trkpt lat="43.07638" lon="1.41501">
        <ele>373.4</ele>
        <time>2024-06-23T10:17:14Z</time>
      </trkpt>
      <trkpt lat="43.07642" lon="1.41493">
        <ele>373.2</ele>
        <time>2024-06-23T10:17:15Z</time>
      </trkpt>
      <trkpt lat="43.07647" lon="1.41485">
        <ele>372.8</ele>
        <time>2024-06-23T10:17:16Z</time>
      </trkpt>
      <trkpt lat="43.07652" lon="1.41476">
        <ele>372.8</ele>
        <time>2024-06-23T10:17:17Z</time>
      </trkpt>
      <trkpt lat="43.07656" lon="1.41468">
        <ele>372.4</ele>
        <time>2024-06-23T10:17:18Z</time>
      </trkpt>
      <trkpt lat="43.07661" lon="1.4146">
        <ele>372</ele>
        <time>2024-06-23T10:17:19Z</time>
      </trkpt>
      <trkpt lat="43.07665" lon="1.41451">
        <ele>371.4</ele>
        <time>2024-06-23T10:17:20Z</time>
      </trkpt>
      <trkpt lat="43.07668" lon="1.41442">
        <ele>371.2</ele>
        <time>2024-06-23T10:17:21Z</time>
      </trkpt>
      <trkpt lat="43.07672" lon="1.41433">
        <ele>371</ele>
        <time>2024-06-23T10:17:22Z</time>
      </trkpt>
      <trkpt lat="43.07676" lon="1.41424">
        <ele>370.6</ele>
        <time>2024-06-23T10:17:23Z</time>
      </trkpt>
      <trkpt lat="43.07679" lon="1.41415">
        <ele>370.6</ele>
        <time>2024-06-23T10:17:24Z</time>
      </trkpt>
      <trkpt lat="43.07681" lon="1.41406">
        <ele>370.2</ele>
        <time>2024-06-23T10:17:25Z</time>
      </trkpt>
      <trkpt lat="43.07683" lon="1.41397">
        <ele>370.2</ele>
        <time>2024-06-23T10:17:26Z</time>
      </trkpt>
      <trkpt lat="43.07685" lon="1.41388">
        <ele>369.6</ele>
        <time>2024-06-23T10:17:27Z</time>
      </trkpt>
      <trkpt lat="43.07687" lon="1.41378">
        <ele>369.4</ele>
        <time>2024-06-23T10:17:28Z</time>
      </trkpt>
      <trkpt lat="43.0769" lon="1.41369">
        <ele>369.4</ele>
        <time>2024-06-23T10:17:29Z</time>
      </trkpt>
      <trkpt lat="43.07692" lon="1.4136">
        <ele>369.4</ele>
        <time>2024-06-23T10:17:30Z</time>
      </trkpt>
      <trkpt lat="43.07695" lon="1.4135">
        <ele>368.8</ele>
        <time>2024-06-23T10:17:31Z</time>
      </trkpt>
      <trkpt lat="43.07698" lon="1.41342">
        <ele>368.4</ele>
        <time>2024-06-23T10:17:32Z</time>
      </trkpt>
      <trkpt lat="43.07701" lon="1.41334">
        <ele>368.2</ele>
        <time>2024-06-23T10:17:33Z</time>
      </trkpt>
      <trkpt lat="43.07704" lon="1.41324">
        <ele>367.6</ele>
        <time>2024-06-23T10:17:34Z</time>
      </trkpt>
      <trkpt lat="43.07706" lon="1.41315">
        <ele>367.4</ele>
        <time>2024-06-23T10:17:35Z</time>
      </trkpt>
      <trkpt lat="43.07709" lon="1.41306">
        <ele>366.8</ele>
        <time>2024-06-23T10:17:36Z</time>
      </trkpt>
      <trkpt lat="43.07712" lon="1.41296">
        <ele>366.4</ele>
        <time>2024-06-23T10:17:37Z</time>
      </trkpt>
      <trkpt lat="43.07715" lon="1.41287">
        <ele>365.6</ele>
        <time>2024-06-23T10:17:38Z</time>
      </trkpt>
      <trkpt lat="43.07719" lon="1.41278">
        <ele>365.2</ele>
        <time>2024-06-23T10:17:39Z</time>
      </trkpt>
      <trkpt lat="43.07722" lon="1.41269">
        <ele>365.2</ele>
        <time>2024-06-23T10:17:40Z</time>
      </trkpt>
      <trkpt lat="43.07725" lon="1.41259">
        <ele>364.2</ele>
        <time>2024-06-23T10:17:41Z</time>
      </trkpt>
      <trkpt lat="43.07728" lon="1.4125">
        <ele>364.2</ele>
        <time>2024-06-23T10:17:42Z</time>
      </trkpt>
      <trkpt lat="43.07731" lon="1.41241">
        <ele>364</ele>
        <time>2024-06-23T10:17:43Z</time>
      </trkpt>
      <trkpt lat="43.07735" lon="1.41231">
        <ele>363.8</ele>
        <time>2024-06-23T10:17:44Z</time>
      </trkpt>
      <trkpt lat="43.07738" lon="1.41222">
        <ele>363.2</ele>
        <time>2024-06-23T10:17:45Z</time>
      </trkpt>
      <trkpt lat="43.07741" lon="1.41213">
        <ele>363</ele>
        <time>2024-06-23T10:17:46Z</time>
      </trkpt>
      <trkpt lat="43.07745" lon="1.41204">
        <ele>363</ele>
        <time>2024-06-23T10:17:47Z</time>
      </trkpt>
      <trkpt lat="43.07747" lon="1.41194">
        <ele>362.8</ele>
        <time>2024-06-23T10:17:48Z</time>
      </trkpt>
      <trkpt lat="43.0775" lon="1.41184">
        <ele>362.4</ele>
        <time>2024-06-23T10:17:49Z</time>
      </trkpt>
      <trkpt lat="43.07752" lon="1.41174">
        <ele>362</ele>
        <time>2024-06-23T10:17:50Z</time>
      </trkpt>
      <trkpt lat="43.07754" lon="1.41163">
        <ele>361.6</ele>
        <time>2024-06-23T10:17:51Z</time>
      </trkpt>
      <trkpt lat="43.07756" lon="1.41153">
        <ele>361.2</ele>
        <time>2024-06-23T10:17:52Z</time>
      </trkpt>
      <trkpt lat="43.07758" lon="1.41143">
        <ele>361</ele>
        <time>2024-06-23T10:17:53Z</time>
      </trkpt>
      <trkpt lat="43.0776" lon="1.41132">
        <ele>360.4</ele>
        <time>2024-06-23T10:17:54Z</time>
      </trkpt>
      <trkpt lat="43.07762" lon="1.41121">
        <ele>360</ele>
        <time>2024-06-23T10:17:55Z</time>
      </trkpt>
      <trkpt lat="43.07765" lon="1.4111">
        <ele>360</ele>
        <time>2024-06-23T10:17:56Z</time>
      </trkpt>
      <trkpt lat="43.07768" lon="1.411">
        <ele>359.6</ele>
        <time>2024-06-23T10:17:57Z</time>
      </trkpt>
      <trkpt lat="43.0777" lon="1.4109">
        <ele>359.2</ele>
        <time>2024-06-23T10:17:58Z</time>
      </trkpt>
      <trkpt lat="43.07774" lon="1.4108">
        <ele>359.2</ele>
        <time>2024-06-23T10:17:59Z</time>
      </trkpt>
      <trkpt lat="43.07777" lon="1.4107">
        <ele>358.4</ele>
        <time>2024-06-23T10:18:00Z</time>
      </trkpt>
      <trkpt lat="43.0778" lon="1.4106">
        <ele>358.4</ele>
        <time>2024-06-23T10:18:01Z</time>
      </trkpt>
      <trkpt lat="43.07782" lon="1.41049">
        <ele>358.4</ele>
        <time>2024-06-23T10:18:02Z</time>
      </trkpt>
      <trkpt lat="43.07784" lon="1.41039">
        <ele>358</ele>
        <time>2024-06-23T10:18:03Z</time>
      </trkpt>
      <trkpt lat="43.07786" lon="1.41029">
        <ele>357.8</ele>
        <time>2024-06-23T10:18:04Z</time>
      </trkpt>
      <trkpt lat="43.07787" lon="1.41018">
        <ele>357.8</ele>
        <time>2024-06-23T10:18:05Z</time>
      </trkpt>
      <trkpt lat="43.07788" lon="1.41008">
        <ele>357.4</ele>
        <time>2024-06-23T10:18:06Z</time>
      </trkpt>
      <trkpt lat="43.07787" lon="1.40997">
        <ele>357.4</ele>
        <time>2024-06-23T10:18:07Z</time>
      </trkpt>
      <trkpt lat="43.07786" lon="1.40986">
        <ele>357</ele>
        <time>2024-06-23T10:18:08Z</time>
      </trkpt>
      <trkpt lat="43.07786" lon="1.40975">
        <ele>356.6</ele>
        <time>2024-06-23T10:18:09Z</time>
      </trkpt>
      <trkpt lat="43.07785" lon="1.40964">
        <ele>356.4</ele>
        <time>2024-06-23T10:18:10Z</time>
      </trkpt>
      <trkpt lat="43.07785" lon="1.40953">
        <ele>355.6</ele>
        <time>2024-06-23T10:18:11Z</time>
      </trkpt>
      <trkpt lat="43.07787" lon="1.40942">
        <ele>355.2</ele>
        <time>2024-06-23T10:18:12Z</time>
      </trkpt>
      <trkpt lat="43.07789" lon="1.40932">
        <ele>355</ele>
        <time>2024-06-23T10:18:13Z</time>
      </trkpt>
      <trkpt lat="43.07791" lon="1.40922">
        <ele>354.6</ele>
        <time>2024-06-23T10:18:14Z</time>
      </trkpt>
      <trkpt lat="43.07793" lon="1.40912">
        <ele>354.4</ele>
        <time>2024-06-23T10:18:15Z</time>
      </trkpt>
      <trkpt lat="43.07795" lon="1.40902">
        <ele>354.6</ele>
        <time>2024-06-23T10:18:16Z</time>
      </trkpt>
      <trkpt lat="43.07797" lon="1.40891">
        <ele>354.2</ele>
        <time>2024-06-23T10:18:17Z</time>
      </trkpt>
      <trkpt lat="43.07799" lon="1.40881">
        <ele>354</ele>
        <time>2024-06-23T10:18:18Z</time>
      </trkpt>
      <trkpt lat="43.07802" lon="1.40871">
        <ele>354</ele>
        <time>2024-06-23T10:18:19Z</time>
      </trkpt>
      <trkpt lat="43.07804" lon="1.40861">
        <ele>354.4</ele>
        <time>2024-06-23T10:18:20Z</time>
      </trkpt>
      <trkpt lat="43.07806" lon="1.4085">
        <ele>354</ele>
        <time>2024-06-23T10:18:21Z</time>
      </trkpt>
      <trkpt lat="43.07808" lon="1.4084">
        <ele>353.6</ele>
        <time>2024-06-23T10:18:22Z</time>
      </trkpt>
      <trkpt lat="43.0781" lon="1.40829">
        <ele>353.6</ele>
        <time>2024-06-23T10:18:23Z</time>
      </trkpt>
      <trkpt lat="43.07813" lon="1.40818">
        <ele>354</ele>
        <time>2024-06-23T10:18:24Z</time>
      </trkpt>
      <trkpt lat="43.07814" lon="1.40808">
        <ele>353.8</ele>
        <time>2024-06-23T10:18:25Z</time>
      </trkpt>
      <trkpt lat="43.07817" lon="1.40797">
        <ele>353</ele>
        <time>2024-06-23T10:18:26Z</time>
      </trkpt>
      <trkpt lat="43.0782" lon="1.40787">
        <ele>353</ele>
        <time>2024-06-23T10:18:27Z</time>
      </trkpt>
      <trkpt lat="43.07823" lon="1.40776">
        <ele>352.4</ele>
        <time>2024-06-23T10:18:28Z</time>
      </trkpt>
      <trkpt lat="43.07826" lon="1.40766">
        <ele>351.8</ele>
        <time>2024-06-23T10:18:29Z</time>
      </trkpt>
      <trkpt lat="43.07829" lon="1.40755">
        <ele>351.2</ele>
        <time>2024-06-23T10:18:30Z</time>
      </trkpt>
      <trkpt lat="43.07832" lon="1.40745">
        <ele>351.2</ele>
        <time>2024-06-23T10:18:31Z</time>
      </trkpt>
      <trkpt lat="43.07834" lon="1.40735">
        <ele>350.8</ele>
        <time>2024-06-23T10:18:32Z</time>
      </trkpt>
      <trkpt lat="43.07836" lon="1.40724">
        <ele>350.2</ele>
        <time>2024-06-23T10:18:33Z</time>
      </trkpt>
      <trkpt lat="43.07837" lon="1.40713">
        <ele>350</ele>
        <time>2024-06-23T10:18:34Z</time>
      </trkpt>
      <trkpt lat="43.07839" lon="1.40703">
        <ele>349.8</ele>
        <time>2024-06-23T10:18:35Z</time>
      </trkpt>
      <trkpt lat="43.07839" lon="1.40692">
        <ele>349.4</ele>
        <time>2024-06-23T10:18:36Z</time>
      </trkpt>
      <trkpt lat="43.07838" lon="1.40681">
        <ele>349.4</ele>
        <time>2024-06-23T10:18:37Z</time>
      </trkpt>
      <trkpt lat="43.07836" lon="1.40671">
        <ele>348.6</ele>
        <time>2024-06-23T10:18:38Z</time>
      </trkpt>
      <trkpt lat="43.07833" lon="1.4066">
        <ele>348.4</ele>
        <time>2024-06-23T10:18:39Z</time>
      </trkpt>
      <trkpt lat="43.07832" lon="1.40649">
        <ele>348.4</ele>
        <time>2024-06-23T10:18:40Z</time>
      </trkpt>
      <trkpt lat="43.07831" lon="1.40638">
        <ele>347.6</ele>
        <time>2024-06-23T10:18:41Z</time>
      </trkpt>
      <trkpt lat="43.07832" lon="1.40627">
        <ele>347.6</ele>
        <time>2024-06-23T10:18:42Z</time>
      </trkpt>
      <trkpt lat="43.07832" lon="1.40614">
        <ele>347.6</ele>
        <time>2024-06-23T10:18:43Z</time>
      </trkpt>
      <trkpt lat="43.07833" lon="1.40603">
        <ele>347</ele>
        <time>2024-06-23T10:18:44Z</time>
      </trkpt>
      <trkpt lat="43.07834" lon="1.40592">
        <ele>347</ele>
        <time>2024-06-23T10:18:45Z</time>
      </trkpt>
      <trkpt lat="43.07837" lon="1.40581">
        <ele>347</ele>
        <time>2024-06-23T10:18:46Z</time>
      </trkpt>
      <trkpt lat="43.07838" lon="1.4057">
        <ele>346.6</ele>
        <time>2024-06-23T10:18:47Z</time>
      </trkpt>
      <trkpt lat="43.07841" lon="1.40559">
        <ele>346.6</ele>
        <time>2024-06-23T10:18:48Z</time>
      </trkpt>
      <trkpt lat="43.07844" lon="1.40549">
        <ele>346.4</ele>
        <time>2024-06-23T10:18:49Z</time>
      </trkpt>
      <trkpt lat="43.07848" lon="1.40538">
        <ele>346.2</ele>
        <time>2024-06-23T10:18:50Z</time>
      </trkpt>
      <trkpt lat="43.07851" lon="1.40528">
        <ele>345.8</ele>
        <time>2024-06-23T10:18:51Z</time>
      </trkpt>
      <trkpt lat="43.07855" lon="1.40518">
        <ele>345</ele>
        <time>2024-06-23T10:18:52Z</time>
      </trkpt>
      <trkpt lat="43.07858" lon="1.40508">
        <ele>345</ele>
        <time>2024-06-23T10:18:53Z</time>
      </trkpt>
      <trkpt lat="43.07861" lon="1.40497">
        <ele>344.8</ele>
        <time>2024-06-23T10:18:54Z</time>
      </trkpt>
      <trkpt lat="43.07863" lon="1.40487">
        <ele>344.8</ele>
        <time>2024-06-23T10:18:55Z</time>
      </trkpt>
      <trkpt lat="43.07863" lon="1.40475">
        <ele>344.4</ele>
        <time>2024-06-23T10:18:56Z</time>
      </trkpt>
      <trkpt lat="43.07862" lon="1.40464">
        <ele>344</ele>
        <time>2024-06-23T10:18:57Z</time>
      </trkpt>
      <trkpt lat="43.07861" lon="1.40453">
        <ele>343.8</ele>
        <time>2024-06-23T10:18:58Z</time>
      </trkpt>
      <trkpt lat="43.07859" lon="1.40448">
        <ele>343.4</ele>
        <time>2024-06-23T10:18:59Z</time>
      </trkpt>
      <trkpt lat="43.07858" lon="1.40442">
        <ele>343.4</ele>
        <time>2024-06-23T10:19:00Z</time>
      </trkpt>
      <trkpt lat="43.07857" lon="1.40437">
        <ele>342.8</ele>
        <time>2024-06-23T10:19:01Z</time>
      </trkpt>
      <trkpt lat="43.07853" lon="1.4042">
        <ele>342.2</ele>
        <time>2024-06-23T10:19:02Z</time>
      </trkpt>
      <trkpt lat="43.07853" lon="1.40408">
        <ele>342</ele>
        <time>2024-06-23T10:19:03Z</time>
      </trkpt>
      <trkpt lat="43.07854" lon="1.40396">
        <ele>341.6</ele>
        <time>2024-06-23T10:19:04Z</time>
      </trkpt>
      <trkpt lat="43.07855" lon="1.40385">
        <ele>341.6</ele>
        <time>2024-06-23T10:19:05Z</time>
      </trkpt>
      <trkpt lat="43.07857" lon="1.40374">
        <ele>341</ele>
        <time>2024-06-23T10:19:06Z</time>
      </trkpt>
      <trkpt lat="43.07859" lon="1.40363">
        <ele>340.6</ele>
        <time>2024-06-23T10:19:07Z</time>
      </trkpt>
      <trkpt lat="43.0786" lon="1.40351">
        <ele>340.2</ele>
        <time>2024-06-23T10:19:08Z</time>
      </trkpt>
      <trkpt lat="43.0786" lon="1.4034">
        <ele>340.2</ele>
        <time>2024-06-23T10:19:09Z</time>
      </trkpt>
      <trkpt lat="43.07858" lon="1.40328">
        <ele>340</ele>
        <time>2024-06-23T10:19:10Z</time>
      </trkpt>
      <trkpt lat="43.07855" lon="1.40318">
        <ele>339.6</ele>
        <time>2024-06-23T10:19:11Z</time>
      </trkpt>
      <trkpt lat="43.07851" lon="1.40306">
        <ele>339.6</ele>
        <time>2024-06-23T10:19:12Z</time>
      </trkpt>
      <trkpt lat="43.07848" lon="1.40296">
        <ele>339</ele>
        <time>2024-06-23T10:19:13Z</time>
      </trkpt>
      <trkpt lat="43.07844" lon="1.40285">
        <ele>338.4</ele>
        <time>2024-06-23T10:19:14Z</time>
      </trkpt>
      <trkpt lat="43.0784" lon="1.40274">
        <ele>338</ele>
        <time>2024-06-23T10:19:15Z</time>
      </trkpt>
      <trkpt lat="43.07838" lon="1.40263">
        <ele>337.8</ele>
        <time>2024-06-23T10:19:16Z</time>
      </trkpt>
      <trkpt lat="43.07837" lon="1.40251">
        <ele>337.4</ele>
        <time>2024-06-23T10:19:17Z</time>
      </trkpt>
      <trkpt lat="43.07837" lon="1.4024">
        <ele>337</ele>
        <time>2024-06-23T10:19:18Z</time>
      </trkpt>
      <trkpt lat="43.07837" lon="1.40228">
        <ele>336.6</ele>
        <time>2024-06-23T10:19:19Z</time>
      </trkpt>
      <trkpt lat="43.07837" lon="1.40217">
        <ele>336.2</ele>
        <time>2024-06-23T10:19:20Z</time>
      </trkpt>
      <trkpt lat="43.07837" lon="1.40205">
        <ele>336.2</ele>
        <time>2024-06-23T10:19:21Z</time>
      </trkpt>
      <trkpt lat="43.07838" lon="1.40193">
        <ele>335.6</ele>
        <time>2024-06-23T10:19:22Z</time>
      </trkpt>
      <trkpt lat="43.07838" lon="1.40182">
        <ele>335.4</ele>
        <time>2024-06-23T10:19:23Z</time>
      </trkpt>
      <trkpt lat="43.07837" lon="1.4017">
        <ele>335.4</ele>
        <time>2024-06-23T10:19:24Z</time>
      </trkpt>
      <trkpt lat="43.07837" lon="1.40158">
        <ele>335.2</ele>
        <time>2024-06-23T10:19:25Z</time>
      </trkpt>
      <trkpt lat="43.07836" lon="1.40146">
        <ele>334.8</ele>
        <time>2024-06-23T10:19:26Z</time>
      </trkpt>
      <trkpt lat="43.07835" lon="1.40135">
        <ele>334.6</ele>
        <time>2024-06-23T10:19:27Z</time>
      </trkpt>
      <trkpt lat="43.07833" lon="1.40123">
        <ele>334.4</ele>
        <time>2024-06-23T10:19:28Z</time>
      </trkpt>
      <trkpt lat="43.07829" lon="1.40112">
        <ele>333.8</ele>
        <time>2024-06-23T10:19:29Z</time>
      </trkpt>
      <trkpt lat="43.07824" lon="1.40101">
        <ele>333.8</ele>
        <time>2024-06-23T10:19:30Z</time>
      </trkpt>
      <trkpt lat="43.07818" lon="1.40092">
        <ele>333.6</ele>
        <time>2024-06-23T10:19:31Z</time>
      </trkpt>
      <trkpt lat="43.07812" lon="1.40083">
        <ele>333.2</ele>
        <time>2024-06-23T10:19:32Z</time>
      </trkpt>
      <trkpt lat="43.07805" lon="1.40073">
        <ele>332.8</ele>
        <time>2024-06-23T10:19:33Z</time>
      </trkpt>
      <trkpt lat="43.078" lon="1.40063">
        <ele>332.4</ele>
        <time>2024-06-23T10:19:34Z</time>
      </trkpt>
      <trkpt lat="43.07796" lon="1.4005">
        <ele>331.8</ele>
        <time>2024-06-23T10:19:35Z</time>
      </trkpt>
      <trkpt lat="43.07794" lon="1.40038">
        <ele>331.4</ele>
        <time>2024-06-23T10:19:36Z</time>
      </trkpt>
      <trkpt lat="43.07795" lon="1.40025">
        <ele>331.2</ele>
        <time>2024-06-23T10:19:37Z</time>
      </trkpt>
      <trkpt lat="43.07798" lon="1.40013">
        <ele>330.8</ele>
        <time>2024-06-23T10:19:38Z</time>
      </trkpt>
      <trkpt lat="43.07802" lon="1.40001">
        <ele>330.2</ele>
        <time>2024-06-23T10:19:39Z</time>
      </trkpt>
      <trkpt lat="43.07805" lon="1.3999">
        <ele>329.8</ele>
        <time>2024-06-23T10:19:40Z</time>
      </trkpt>
      <trkpt lat="43.07808" lon="1.39977">
        <ele>329.2</ele>
        <time>2024-06-23T10:19:41Z</time>
      </trkpt>
      <trkpt lat="43.07809" lon="1.39965">
        <ele>328.4</ele>
        <time>2024-06-23T10:19:42Z</time>
      </trkpt>
      <trkpt lat="43.07809" lon="1.39952">
        <ele>328</ele>
        <time>2024-06-23T10:19:43Z</time>
      </trkpt>
      <trkpt lat="43.07808" lon="1.3994">
        <ele>327.4</ele>
        <time>2024-06-23T10:19:44Z</time>
      </trkpt>
      <trkpt lat="43.07806" lon="1.39927">
        <ele>326.8</ele>
        <time>2024-06-23T10:19:45Z</time>
      </trkpt>
      <trkpt lat="43.07803" lon="1.39914">
        <ele>326.2</ele>
        <time>2024-06-23T10:19:46Z</time>
      </trkpt>
      <trkpt lat="43.07801" lon="1.39901">
        <ele>326.2</ele>
        <time>2024-06-23T10:19:47Z</time>
      </trkpt>
      <trkpt lat="43.07798" lon="1.39888">
        <ele>325.6</ele>
        <time>2024-06-23T10:19:48Z</time>
      </trkpt>
      <trkpt lat="43.07796" lon="1.39875">
        <ele>325.2</ele>
        <time>2024-06-23T10:19:49Z</time>
      </trkpt>
      <trkpt lat="43.07793" lon="1.39862">
        <ele>324.8</ele>
        <time>2024-06-23T10:19:50Z</time>
      </trkpt>
      <trkpt lat="43.0779" lon="1.39849">
        <ele>324.4</ele>
        <time>2024-06-23T10:19:51Z</time>
      </trkpt>
      <trkpt lat="43.07788" lon="1.39838">
        <ele>324</ele>
        <time>2024-06-23T10:19:52Z</time>
      </trkpt>
      <trkpt lat="43.07785" lon="1.39825">
        <ele>323.4</ele>
        <time>2024-06-23T10:19:53Z</time>
      </trkpt>
      <trkpt lat="43.07784" lon="1.39813">
        <ele>323.4</ele>
        <time>2024-06-23T10:19:54Z</time>
      </trkpt>
      <trkpt lat="43.0778" lon="1.39801">
        <ele>323</ele>
        <time>2024-06-23T10:19:55Z</time>
      </trkpt>
      <trkpt lat="43.07777" lon="1.39789">
        <ele>322.6</ele>
        <time>2024-06-23T10:19:56Z</time>
      </trkpt>
      <trkpt lat="43.07774" lon="1.39775">
        <ele>322.2</ele>
        <time>2024-06-23T10:19:57Z</time>
      </trkpt>
      <trkpt lat="43.07771" lon="1.39762">
        <ele>322.2</ele>
        <time>2024-06-23T10:19:58Z</time>
      </trkpt>
      <trkpt lat="43.07769" lon="1.39747">
        <ele>321.8</ele>
        <time>2024-06-23T10:19:59Z</time>
      </trkpt>
      <trkpt lat="43.07766" lon="1.39734">
        <ele>320.8</ele>
        <time>2024-06-23T10:20:00Z</time>
      </trkpt>
      <trkpt lat="43.07763" lon="1.3972">
        <ele>320.4</ele>
        <time>2024-06-23T10:20:01Z</time>
      </trkpt>
      <trkpt lat="43.0776" lon="1.39707">
        <ele>320</ele>
        <time>2024-06-23T10:20:02Z</time>
      </trkpt>
      <trkpt lat="43.07756" lon="1.39694">
        <ele>319.6</ele>
        <time>2024-06-23T10:20:03Z</time>
      </trkpt>
      <trkpt lat="43.07752" lon="1.39681">
        <ele>319.2</ele>
        <time>2024-06-23T10:20:04Z</time>
      </trkpt>
      <trkpt lat="43.07747" lon="1.39667">
        <ele>318.6</ele>
        <time>2024-06-23T10:20:05Z</time>
      </trkpt>
      <trkpt lat="43.07743" lon="1.39655">
        <ele>317.8</ele>
        <time>2024-06-23T10:20:06Z</time>
      </trkpt>
      <trkpt lat="43.07738" lon="1.39642">
        <ele>317</ele>
        <time>2024-06-23T10:20:07Z</time>
      </trkpt>
      <trkpt lat="43.07733" lon="1.3963">
        <ele>316.4</ele>
        <time>2024-06-23T10:20:08Z</time>
      </trkpt>
      <trkpt lat="43.07728" lon="1.39618">
        <ele>316</ele>
        <time>2024-06-23T10:20:09Z</time>
      </trkpt>
      <trkpt lat="43.07721" lon="1.39605">
        <ele>316</ele>
        <time>2024-06-23T10:20:10Z</time>
      </trkpt>
      <trkpt lat="43.07714" lon="1.39594">
        <ele>315.2</ele>
        <time>2024-06-23T10:20:11Z</time>
      </trkpt>
      <trkpt lat="43.0771" lon="1.39583">
        <ele>314.6</ele>
        <time>2024-06-23T10:20:12Z</time>
      </trkpt>
      <trkpt lat="43.07706" lon="1.3957">
        <ele>314.2</ele>
        <time>2024-06-23T10:20:13Z</time>
      </trkpt>
      <trkpt lat="43.07702" lon="1.39557">
        <ele>313.6</ele>
        <time>2024-06-23T10:20:14Z</time>
      </trkpt>
      <trkpt lat="43.07698" lon="1.39543">
        <ele>313.4</ele>
        <time>2024-06-23T10:20:15Z</time>
      </trkpt>
      <trkpt lat="43.07695" lon="1.3953">
        <ele>313</ele>
        <time>2024-06-23T10:20:16Z</time>
      </trkpt>
      <trkpt lat="43.07691" lon="1.39517">
        <ele>312.6</ele>
        <time>2024-06-23T10:20:17Z</time>
      </trkpt>
      <trkpt lat="43.07687" lon="1.39504">
        <ele>311.8</ele>
        <time>2024-06-23T10:20:18Z</time>
      </trkpt>
      <trkpt lat="43.07683" lon="1.39492">
        <ele>311.2</ele>
        <time>2024-06-23T10:20:19Z</time>
      </trkpt>
      <trkpt lat="43.07677" lon="1.3948">
        <ele>310.8</ele>
        <time>2024-06-23T10:20:20Z</time>
      </trkpt>
      <trkpt lat="43.07673" lon="1.39468">
        <ele>310.2</ele>
        <time>2024-06-23T10:20:21Z</time>
      </trkpt>
      <trkpt lat="43.07668" lon="1.39456">
        <ele>310.2</ele>
        <time>2024-06-23T10:20:22Z</time>
      </trkpt>
      <trkpt lat="43.07663" lon="1.39444">
        <ele>309.6</ele>
        <time>2024-06-23T10:20:23Z</time>
      </trkpt>
      <trkpt lat="43.0766" lon="1.3943">
        <ele>309.2</ele>
        <time>2024-06-23T10:20:24Z</time>
      </trkpt>
      <trkpt lat="43.07655" lon="1.39417">
        <ele>308.8</ele>
        <time>2024-06-23T10:20:25Z</time>
      </trkpt>
      <trkpt lat="43.07652" lon="1.39404">
        <ele>308.4</ele>
        <time>2024-06-23T10:20:26Z</time>
      </trkpt>
      <trkpt lat="43.07649" lon="1.39391">
        <ele>307.8</ele>
        <time>2024-06-23T10:20:27Z</time>
      </trkpt>
      <trkpt lat="43.07647" lon="1.39376">
        <ele>307</ele>
        <time>2024-06-23T10:20:28Z</time>
      </trkpt>
      <trkpt lat="43.07646" lon="1.39362">
        <ele>306.8</ele>
        <time>2024-06-23T10:20:29Z</time>
      </trkpt>
      <trkpt lat="43.07646" lon="1.39349">
        <ele>306.2</ele>
        <time>2024-06-23T10:20:30Z</time>
      </trkpt>
      <trkpt lat="43.07645" lon="1.39337">
        <ele>306.2</ele>
        <time>2024-06-23T10:20:31Z</time>
      </trkpt>
      <trkpt lat="43.07646" lon="1.39324">
        <ele>306</ele>
        <time>2024-06-23T10:20:32Z</time>
      </trkpt>
      <trkpt lat="43.07643" lon="1.39314">
        <ele>305.4</ele>
        <time>2024-06-23T10:20:33Z</time>
      </trkpt>
      <trkpt lat="43.0764" lon="1.39299">
        <ele>305.4</ele>
        <time>2024-06-23T10:20:34Z</time>
      </trkpt>
      <trkpt lat="43.07637" lon="1.39287">
        <ele>304.8</ele>
        <time>2024-06-23T10:20:35Z</time>
      </trkpt>
      <trkpt lat="43.07633" lon="1.39273">
        <ele>304</ele>
        <time>2024-06-23T10:20:36Z</time>
      </trkpt>
      <trkpt lat="43.07634" lon="1.39262">
        <ele>304</ele>
        <time>2024-06-23T10:20:37Z</time>
      </trkpt>
      <trkpt lat="43.07632" lon="1.39249">
        <ele>302.8</ele>
        <time>2024-06-23T10:20:38Z</time>
      </trkpt>
      <trkpt lat="43.07632" lon="1.39234">
        <ele>302.4</ele>
        <time>2024-06-23T10:20:39Z</time>
      </trkpt>
      <trkpt lat="43.07629" lon="1.39219">
        <ele>301.8</ele>
        <time>2024-06-23T10:20:40Z</time>
      </trkpt>
      <trkpt lat="43.07624" lon="1.39205">
        <ele>301.4</ele>
        <time>2024-06-23T10:20:41Z</time>
      </trkpt>
      <trkpt lat="43.07623" lon="1.39174">
        <ele>300.4</ele>
        <time>2024-06-23T10:20:42Z</time>
      </trkpt>
      <trkpt lat="43.07627" lon="1.39161">
        <ele>299.8</ele>
        <time>2024-06-23T10:20:43Z</time>
      </trkpt>
      <trkpt lat="43.0763" lon="1.39147">
        <ele>298.8</ele>
        <time>2024-06-23T10:20:44Z</time>
      </trkpt>
      <trkpt lat="43.07635" lon="1.39135">
        <ele>298.6</ele>
        <time>2024-06-23T10:20:45Z</time>
      </trkpt>
      <trkpt lat="43.0764" lon="1.39122">
        <ele>298.2</ele>
        <time>2024-06-23T10:20:46Z</time>
      </trkpt>
      <trkpt lat="43.07644" lon="1.39109">
        <ele>298.2</ele>
        <time>2024-06-23T10:20:47Z</time>
      </trkpt>
      <trkpt lat="43.07647" lon="1.39096">
        <ele>298.2</ele>
        <time>2024-06-23T10:20:48Z</time>
      </trkpt>
      <trkpt lat="43.07644" lon="1.39084">
        <ele>298.2</ele>
        <time>2024-06-23T10:20:49Z</time>
      </trkpt>
      <trkpt lat="43.0764" lon="1.39075">
        <ele>297.6</ele>
        <time>2024-06-23T10:20:50Z</time>
      </trkpt>
      <trkpt lat="43.07636" lon="1.39061">
        <ele>297.6</ele>
        <time>2024-06-23T10:20:51Z</time>
      </trkpt>
      <trkpt lat="43.07632" lon="1.39049">
        <ele>297.4</ele>
        <time>2024-06-23T10:20:52Z</time>
      </trkpt>
      <trkpt lat="43.07632" lon="1.39039">
        <ele>297.8</ele>
        <time>2024-06-23T10:20:53Z</time>
      </trkpt>
      <trkpt lat="43.0763" lon="1.39027">
        <ele>297.8</ele>
        <time>2024-06-23T10:20:54Z</time>
      </trkpt>
      <trkpt lat="43.07628" lon="1.39015">
        <ele>297.6</ele>
        <time>2024-06-23T10:20:55Z</time>
      </trkpt>
      <trkpt lat="43.07625" lon="1.39003">
        <ele>297.2</ele>
        <time>2024-06-23T10:20:56Z</time>
      </trkpt>
      <trkpt lat="43.07623" lon="1.38991">
        <ele>297.2</ele>
        <time>2024-06-23T10:20:57Z</time>
      </trkpt>
      <trkpt lat="43.0762" lon="1.3898">
        <ele>297.2</ele>
        <time>2024-06-23T10:20:58Z</time>
      </trkpt>
      <trkpt lat="43.07617" lon="1.38973">
        <ele>296.8</ele>
        <time>2024-06-23T10:20:59Z</time>
      </trkpt>
      <trkpt lat="43.07613" lon="1.38966">
        <ele>296.4</ele>
        <time>2024-06-23T10:21:00Z</time>
      </trkpt>
      <trkpt lat="43.07607" lon="1.38952">
        <ele>296.4</ele>
        <time>2024-06-23T10:21:01Z</time>
      </trkpt>
      <trkpt lat="43.07603" lon="1.38945">
        <ele>296.4</ele>
        <time>2024-06-23T10:21:02Z</time>
      </trkpt>
      <trkpt lat="43.07602" lon="1.38934">
        <ele>296.2</ele>
        <time>2024-06-23T10:21:03Z</time>
      </trkpt>
      <trkpt lat="43.07602" lon="1.38923">
        <ele>296</ele>
        <time>2024-06-23T10:21:04Z</time>
      </trkpt>
      <trkpt lat="43.07603" lon="1.38912">
        <ele>296</ele>
        <time>2024-06-23T10:21:05Z</time>
      </trkpt>
      <trkpt lat="43.07604" lon="1.38902">
        <ele>295.6</ele>
        <time>2024-06-23T10:21:06Z</time>
      </trkpt>
      <trkpt lat="43.07605" lon="1.38891">
        <ele>295.6</ele>
        <time>2024-06-23T10:21:07Z</time>
      </trkpt>
      <trkpt lat="43.07605" lon="1.38881">
        <ele>295.6</ele>
        <time>2024-06-23T10:21:08Z</time>
      </trkpt>
      <trkpt lat="43.07608" lon="1.38871">
        <ele>295.8</ele>
        <time>2024-06-23T10:21:09Z</time>
      </trkpt>
      <trkpt lat="43.07609" lon="1.3886">
        <ele>295.8</ele>
        <time>2024-06-23T10:21:10Z</time>
      </trkpt>
      <trkpt lat="43.0761" lon="1.38849">
        <ele>295.8</ele>
        <time>2024-06-23T10:21:11Z</time>
      </trkpt>
      <trkpt lat="43.07611" lon="1.38838">
        <ele>295.4</ele>
        <time>2024-06-23T10:21:12Z</time>
      </trkpt>
      <trkpt lat="43.07613" lon="1.38828">
        <ele>295.2</ele>
        <time>2024-06-23T10:21:13Z</time>
      </trkpt>
      <trkpt lat="43.07613" lon="1.38818">
        <ele>295</ele>
        <time>2024-06-23T10:21:14Z</time>
      </trkpt>
      <trkpt lat="43.07615" lon="1.38808">
        <ele>295</ele>
        <time>2024-06-23T10:21:15Z</time>
      </trkpt>
      <trkpt lat="43.07618" lon="1.38798">
        <ele>294.8</ele>
        <time>2024-06-23T10:21:16Z</time>
      </trkpt>
      <trkpt lat="43.07622" lon="1.3879">
        <ele>294.8</ele>
        <time>2024-06-23T10:21:17Z</time>
      </trkpt>
      <trkpt lat="43.07625" lon="1.3878">
        <ele>294.8</ele>
        <time>2024-06-23T10:21:18Z</time>
      </trkpt>
      <trkpt lat="43.07628" lon="1.38771">
        <ele>294.8</ele>
        <time>2024-06-23T10:21:19Z</time>
      </trkpt>
      <trkpt lat="43.07631" lon="1.38762">
        <ele>294.8</ele>
        <time>2024-06-23T10:21:20Z</time>
      </trkpt>
      <trkpt lat="43.07634" lon="1.38753">
        <ele>294.6</ele>
        <time>2024-06-23T10:21:21Z</time>
      </trkpt>
      <trkpt lat="43.07638" lon="1.38744">
        <ele>294.6</ele>
        <time>2024-06-23T10:21:22Z</time>
      </trkpt>
      <trkpt lat="43.07641" lon="1.38734">
        <ele>294.6</ele>
        <time>2024-06-23T10:21:23Z</time>
      </trkpt>
      <trkpt lat="43.07643" lon="1.38725">
        <ele>294.6</ele>
        <time>2024-06-23T10:21:24Z</time>
      </trkpt>
      <trkpt lat="43.07646" lon="1.38716">
        <ele>294.6</ele>
        <time>2024-06-23T10:21:25Z</time>
      </trkpt>
      <trkpt lat="43.07649" lon="1.38706">
        <ele>294</ele>
        <time>2024-06-23T10:21:26Z</time>
      </trkpt>
      <trkpt lat="43.07651" lon="1.38697">
        <ele>294</ele>
        <time>2024-06-23T10:21:27Z</time>
      </trkpt>
      <trkpt lat="43.07654" lon="1.38688">
        <ele>294</ele>
        <time>2024-06-23T10:21:28Z</time>
      </trkpt>
      <trkpt lat="43.07657" lon="1.38679">
        <ele>294</ele>
        <time>2024-06-23T10:21:29Z</time>
      </trkpt>
      <trkpt lat="43.07659" lon="1.3867">
        <ele>293.6</ele>
        <time>2024-06-23T10:21:30Z</time>
      </trkpt>
      <trkpt lat="43.07662" lon="1.38661">
        <ele>293.2</ele>
        <time>2024-06-23T10:21:31Z</time>
      </trkpt>
      <trkpt lat="43.07665" lon="1.38652">
        <ele>293.2</ele>
        <time>2024-06-23T10:21:32Z</time>
      </trkpt>
      <trkpt lat="43.07667" lon="1.38643">
        <ele>293.2</ele>
        <time>2024-06-23T10:21:33Z</time>
      </trkpt>
      <trkpt lat="43.07671" lon="1.38636">
        <ele>293.2</ele>
        <time>2024-06-23T10:21:34Z</time>
      </trkpt>
      <trkpt lat="43.07673" lon="1.38627">
        <ele>293.2</ele>
        <time>2024-06-23T10:21:35Z</time>
      </trkpt>
      <trkpt lat="43.07676" lon="1.38618">
        <ele>293</ele>
        <time>2024-06-23T10:21:36Z</time>
      </trkpt>
      <trkpt lat="43.07677" lon="1.38608">
        <ele>293</ele>
        <time>2024-06-23T10:21:37Z</time>
      </trkpt>
      <trkpt lat="43.07679" lon="1.38598">
        <ele>293</ele>
        <time>2024-06-23T10:21:38Z</time>
      </trkpt>
      <trkpt lat="43.07682" lon="1.3859">
        <ele>292.8</ele>
        <time>2024-06-23T10:21:39Z</time>
      </trkpt>
      <trkpt lat="43.07686" lon="1.38581">
        <ele>292.6</ele>
        <time>2024-06-23T10:21:40Z</time>
      </trkpt>
      <trkpt lat="43.07691" lon="1.38573">
        <ele>292.6</ele>
        <time>2024-06-23T10:21:41Z</time>
      </trkpt>
      <trkpt lat="43.07695" lon="1.38566">
        <ele>292.6</ele>
        <time>2024-06-23T10:21:42Z</time>
      </trkpt>
      <trkpt lat="43.077" lon="1.38558">
        <ele>292.6</ele>
        <time>2024-06-23T10:21:43Z</time>
      </trkpt>
      <trkpt lat="43.07704" lon="1.38552">
        <ele>292</ele>
        <time>2024-06-23T10:21:44Z</time>
      </trkpt>
      <trkpt lat="43.0771" lon="1.38545">
        <ele>292</ele>
        <time>2024-06-23T10:21:45Z</time>
      </trkpt>
      <trkpt lat="43.07714" lon="1.38539">
        <ele>292</ele>
        <time>2024-06-23T10:21:46Z</time>
      </trkpt>
      <trkpt lat="43.07719" lon="1.38532">
        <ele>292</ele>
        <time>2024-06-23T10:21:47Z</time>
      </trkpt>
      <trkpt lat="43.07723" lon="1.38525">
        <ele>292.2</ele>
        <time>2024-06-23T10:21:48Z</time>
      </trkpt>
      <trkpt lat="43.07727" lon="1.38519">
        <ele>292.2</ele>
        <time>2024-06-23T10:21:49Z</time>
      </trkpt>
      <trkpt lat="43.07732" lon="1.38511">
        <ele>292.2</ele>
        <time>2024-06-23T10:21:50Z</time>
      </trkpt>
      <trkpt lat="43.07739" lon="1.38504">
        <ele>292.2</ele>
        <time>2024-06-23T10:21:51Z</time>
      </trkpt>
      <trkpt lat="43.07744" lon="1.38497">
        <ele>292.2</ele>
        <time>2024-06-23T10:21:52Z</time>
      </trkpt>
      <trkpt lat="43.0775" lon="1.38489">
        <ele>292.2</ele>
        <time>2024-06-23T10:21:53Z</time>
      </trkpt>
      <trkpt lat="43.07756" lon="1.3848">
        <ele>292</ele>
        <time>2024-06-23T10:21:54Z</time>
      </trkpt>
      <trkpt lat="43.07759" lon="1.38471">
        <ele>292</ele>
        <time>2024-06-23T10:21:55Z</time>
      </trkpt>
      <trkpt lat="43.07764" lon="1.38463">
        <ele>292</ele>
        <time>2024-06-23T10:21:56Z</time>
      </trkpt>
      <trkpt lat="43.07769" lon="1.38455">
        <ele>292</ele>
        <time>2024-06-23T10:21:57Z</time>
      </trkpt>
      <trkpt lat="43.07773" lon="1.38447">
        <ele>291.8</ele>
        <time>2024-06-23T10:21:58Z</time>
      </trkpt>
      <trkpt lat="43.07777" lon="1.38439">
        <ele>291.8</ele>
        <time>2024-06-23T10:21:59Z</time>
      </trkpt>
      <trkpt lat="43.07783" lon="1.38431">
        <ele>291.6</ele>
        <time>2024-06-23T10:22:00Z</time>
      </trkpt>
      <trkpt lat="43.07788" lon="1.38423">
        <ele>291.6</ele>
        <time>2024-06-23T10:22:01Z</time>
      </trkpt>
      <trkpt lat="43.07793" lon="1.38415">
        <ele>291.2</ele>
        <time>2024-06-23T10:22:02Z</time>
      </trkpt>
      <trkpt lat="43.07797" lon="1.38406">
        <ele>291.2</ele>
        <time>2024-06-23T10:22:03Z</time>
      </trkpt>
      <trkpt lat="43.07799" lon="1.38396">
        <ele>291.2</ele>
        <time>2024-06-23T10:22:04Z</time>
      </trkpt>
      <trkpt lat="43.07799" lon="1.38387">
        <ele>291.2</ele>
        <time>2024-06-23T10:22:05Z</time>
      </trkpt>
      <trkpt lat="43.07799" lon="1.38378">
        <ele>291.2</ele>
        <time>2024-06-23T10:22:06Z</time>
      </trkpt>
      <trkpt lat="43.07795" lon="1.3837">
        <ele>291.4</ele>
        <time>2024-06-23T10:22:07Z</time>
      </trkpt>
      <trkpt lat="43.07792" lon="1.38363">
        <ele>291.4</ele>
        <time>2024-06-23T10:22:08Z</time>
      </trkpt>
      <trkpt lat="43.07787" lon="1.38356">
        <ele>291.4</ele>
        <time>2024-06-23T10:22:09Z</time>
      </trkpt>
      <trkpt lat="43.07783" lon="1.3835">
        <ele>291.4</ele>
        <time>2024-06-23T10:22:10Z</time>
      </trkpt>
      <trkpt lat="43.07778" lon="1.38343">
        <ele>291.8</ele>
        <time>2024-06-23T10:22:11Z</time>
      </trkpt>
      <trkpt lat="43.07775" lon="1.38337">
        <ele>291.8</ele>
        <time>2024-06-23T10:22:12Z</time>
      </trkpt>
      <trkpt lat="43.07771" lon="1.3833">
        <ele>291.8</ele>
        <time>2024-06-23T10:22:13Z</time>
      </trkpt>
      <trkpt lat="43.07769" lon="1.38323">
        <ele>291.8</ele>
        <time>2024-06-23T10:22:14Z</time>
      </trkpt>
      <trkpt lat="43.07768" lon="1.38314">
        <ele>291.8</ele>
        <time>2024-06-23T10:22:15Z</time>
      </trkpt>
      <trkpt lat="43.07767" lon="1.38306">
        <ele>291.8</ele>
        <time>2024-06-23T10:22:16Z</time>
      </trkpt>
      <trkpt lat="43.07768" lon="1.38297">
        <ele>291.8</ele>
        <time>2024-06-23T10:22:17Z</time>
      </trkpt>
      <trkpt lat="43.07768" lon="1.38289">
        <ele>291.8</ele>
        <time>2024-06-23T10:22:18Z</time>
      </trkpt>
      <trkpt lat="43.07768" lon="1.3828">
        <ele>291.8</ele>
        <time>2024-06-23T10:22:19Z</time>
      </trkpt>
      <trkpt lat="43.07769" lon="1.38271">
        <ele>291.8</ele>
        <time>2024-06-23T10:22:20Z</time>
      </trkpt>
      <trkpt lat="43.0777" lon="1.38263">
        <ele>291.8</ele>
        <time>2024-06-23T10:22:21Z</time>
      </trkpt>
      <trkpt lat="43.07771" lon="1.38254">
        <ele>291.8</ele>
        <time>2024-06-23T10:22:22Z</time>
      </trkpt>
      <trkpt lat="43.07771" lon="1.38245">
        <ele>291.8</ele>
        <time>2024-06-23T10:22:23Z</time>
      </trkpt>
      <trkpt lat="43.07771" lon="1.38236">
        <ele>291.8</ele>
        <time>2024-06-23T10:22:24Z</time>
      </trkpt>
      <trkpt lat="43.07771" lon="1.38227">
        <ele>291.8</ele>
        <time>2024-06-23T10:22:25Z</time>
      </trkpt>
      <trkpt lat="43.07771" lon="1.38218">
        <ele>292</ele>
        <time>2024-06-23T10:22:26Z</time>
      </trkpt>
      <trkpt lat="43.0777" lon="1.38209">
        <ele>292</ele>
        <time>2024-06-23T10:22:27Z</time>
      </trkpt>
      <trkpt lat="43.07769" lon="1.382">
        <ele>292</ele>
        <time>2024-06-23T10:22:28Z</time>
      </trkpt>
      <trkpt lat="43.07768" lon="1.38191">
        <ele>291.8</ele>
        <time>2024-06-23T10:22:29Z</time>
      </trkpt>
      <trkpt lat="43.07766" lon="1.38183">
        <ele>291.8</ele>
        <time>2024-06-23T10:22:30Z</time>
      </trkpt>
      <trkpt lat="43.07764" lon="1.38174">
        <ele>292</ele>
        <time>2024-06-23T10:22:31Z</time>
      </trkpt>
      <trkpt lat="43.07762" lon="1.38167">
        <ele>292</ele>
        <time>2024-06-23T10:22:32Z</time>
      </trkpt>
      <trkpt lat="43.0776" lon="1.38159">
        <ele>292</ele>
        <time>2024-06-23T10:22:33Z</time>
      </trkpt>
      <trkpt lat="43.07759" lon="1.3815">
        <ele>292</ele>
        <time>2024-06-23T10:22:34Z</time>
      </trkpt>
      <trkpt lat="43.07758" lon="1.38143">
        <ele>292</ele>
        <time>2024-06-23T10:22:35Z</time>
      </trkpt>
      <trkpt lat="43.07757" lon="1.38133">
        <ele>292</ele>
        <time>2024-06-23T10:22:36Z</time>
      </trkpt>
      <trkpt lat="43.07759" lon="1.38126">
        <ele>291.6</ele>
        <time>2024-06-23T10:22:37Z</time>
      </trkpt>
      <trkpt lat="43.0776" lon="1.38117">
        <ele>291.2</ele>
        <time>2024-06-23T10:22:38Z</time>
      </trkpt>
      <trkpt lat="43.07762" lon="1.38108">
        <ele>291.2</ele>
        <time>2024-06-23T10:22:39Z</time>
      </trkpt>
      <trkpt lat="43.07762" lon="1.38098">
        <ele>291.2</ele>
        <time>2024-06-23T10:22:40Z</time>
      </trkpt>
      <trkpt lat="43.07763" lon="1.38089">
        <ele>291.2</ele>
        <time>2024-06-23T10:22:41Z</time>
      </trkpt>
      <trkpt lat="43.07762" lon="1.3808">
        <ele>290.8</ele>
        <time>2024-06-23T10:22:42Z</time>
      </trkpt>
      <trkpt lat="43.07761" lon="1.38071">
        <ele>290.8</ele>
        <time>2024-06-23T10:22:43Z</time>
      </trkpt>
      <trkpt lat="43.07759" lon="1.38061">
        <ele>290.4</ele>
        <time>2024-06-23T10:22:44Z</time>
      </trkpt>
      <trkpt lat="43.07757" lon="1.38053">
        <ele>290.4</ele>
        <time>2024-06-23T10:22:45Z</time>
      </trkpt>
      <trkpt lat="43.07753" lon="1.38044">
        <ele>290.2</ele>
        <time>2024-06-23T10:22:46Z</time>
      </trkpt>
      <trkpt lat="43.07749" lon="1.38037">
        <ele>289.8</ele>
        <time>2024-06-23T10:22:47Z</time>
      </trkpt>
      <trkpt lat="43.07745" lon="1.38029">
        <ele>289.8</ele>
        <time>2024-06-23T10:22:48Z</time>
      </trkpt>
      <trkpt lat="43.07742" lon="1.38022">
        <ele>289.6</ele>
        <time>2024-06-23T10:22:49Z</time>
      </trkpt>
      <trkpt lat="43.07738" lon="1.38015">
        <ele>289.6</ele>
        <time>2024-06-23T10:22:50Z</time>
      </trkpt>
      <trkpt lat="43.07735" lon="1.38007">
        <ele>289.4</ele>
        <time>2024-06-23T10:22:51Z</time>
      </trkpt>
      <trkpt lat="43.07734" lon="1.37999">
        <ele>289.4</ele>
        <time>2024-06-23T10:22:52Z</time>
      </trkpt>
      <trkpt lat="43.07733" lon="1.3799">
        <ele>289.2</ele>
        <time>2024-06-23T10:22:53Z</time>
      </trkpt>
      <trkpt lat="43.07732" lon="1.37981">
        <ele>288.8</ele>
        <time>2024-06-23T10:22:54Z</time>
      </trkpt>
      <trkpt lat="43.07733" lon="1.37974">
        <ele>288.8</ele>
        <time>2024-06-23T10:22:55Z</time>
      </trkpt>
      <trkpt lat="43.07735" lon="1.37966">
        <ele>288.8</ele>
        <time>2024-06-23T10:22:56Z</time>
      </trkpt>
      <trkpt lat="43.07738" lon="1.3796">
        <ele>288.8</ele>
        <time>2024-06-23T10:22:57Z</time>
      </trkpt>
      <trkpt lat="43.07741" lon="1.37953">
        <ele>288.8</ele>
        <time>2024-06-23T10:22:58Z</time>
      </trkpt>
      <trkpt lat="43.07744" lon="1.37948">
        <ele>289.2</ele>
        <time>2024-06-23T10:22:59Z</time>
      </trkpt>
      <trkpt lat="43.07748" lon="1.37943">
        <ele>289.2</ele>
        <time>2024-06-23T10:23:00Z</time>
      </trkpt>
      <trkpt lat="43.07752" lon="1.37938">
        <ele>289.4</ele>
        <time>2024-06-23T10:23:01Z</time>
      </trkpt>
      <trkpt lat="43.07756" lon="1.37933">
        <ele>289.4</ele>
        <time>2024-06-23T10:23:02Z</time>
      </trkpt>
      <trkpt lat="43.0776" lon="1.3793">
        <ele>289.4</ele>
        <time>2024-06-23T10:23:03Z</time>
      </trkpt>
      <trkpt lat="43.07765" lon="1.37926">
        <ele>289.4</ele>
        <time>2024-06-23T10:23:04Z</time>
      </trkpt>
      <trkpt lat="43.07769" lon="1.37922">
        <ele>289.8</ele>
        <time>2024-06-23T10:23:05Z</time>
      </trkpt>
      <trkpt lat="43.07773" lon="1.37919">
        <ele>289.8</ele>
        <time>2024-06-23T10:23:06Z</time>
      </trkpt>
      <trkpt lat="43.07777" lon="1.37915">
        <ele>289.8</ele>
        <time>2024-06-23T10:23:07Z</time>
      </trkpt>
      <trkpt lat="43.07781" lon="1.37912">
        <ele>289.8</ele>
        <time>2024-06-23T10:23:08Z</time>
      </trkpt>
      <trkpt lat="43.07784" lon="1.37905">
        <ele>289.8</ele>
        <time>2024-06-23T10:23:09Z</time>
      </trkpt>
      <trkpt lat="43.07786" lon="1.379">
        <ele>290</ele>
        <time>2024-06-23T10:23:10Z</time>
      </trkpt>
      <trkpt lat="43.07789" lon="1.37892">
        <ele>290</ele>
        <time>2024-06-23T10:23:11Z</time>
      </trkpt>
      <trkpt lat="43.07791" lon="1.37886">
        <ele>290</ele>
        <time>2024-06-23T10:23:12Z</time>
      </trkpt>
      <trkpt lat="43.07793" lon="1.3788">
        <ele>290.4</ele>
        <time>2024-06-23T10:23:13Z</time>
      </trkpt>
      <trkpt lat="43.07793" lon="1.37873">
        <ele>290.4</ele>
        <time>2024-06-23T10:23:14Z</time>
      </trkpt>
      <trkpt lat="43.07793" lon="1.37866">
        <ele>290.4</ele>
        <time>2024-06-23T10:23:15Z</time>
      </trkpt>
      <trkpt lat="43.07792" lon="1.37858">
        <ele>290.4</ele>
        <time>2024-06-23T10:23:16Z</time>
      </trkpt>
      <trkpt lat="43.07792" lon="1.37851">
        <ele>290.6</ele>
        <time>2024-06-23T10:23:17Z</time>
      </trkpt>
      <trkpt lat="43.07791" lon="1.37843">
        <ele>290.6</ele>
        <time>2024-06-23T10:23:18Z</time>
      </trkpt>
      <trkpt lat="43.0779" lon="1.37836">
        <ele>290.8</ele>
        <time>2024-06-23T10:23:19Z</time>
      </trkpt>
      <trkpt lat="43.0779" lon="1.37829">
        <ele>290.8</ele>
        <time>2024-06-23T10:23:20Z</time>
      </trkpt>
      <trkpt lat="43.0779" lon="1.37821">
        <ele>291</ele>
        <time>2024-06-23T10:23:21Z</time>
      </trkpt>
      <trkpt lat="43.07789" lon="1.37814">
        <ele>291</ele>
        <time>2024-06-23T10:23:22Z</time>
      </trkpt>
      <trkpt lat="43.07789" lon="1.37807">
        <ele>291</ele>
        <time>2024-06-23T10:23:23Z</time>
      </trkpt>
      <trkpt lat="43.07789" lon="1.378">
        <ele>291</ele>
        <time>2024-06-23T10:23:24Z</time>
      </trkpt>
      <trkpt lat="43.07789" lon="1.37792">
        <ele>291</ele>
        <time>2024-06-23T10:23:25Z</time>
      </trkpt>
      <trkpt lat="43.07789" lon="1.37785">
        <ele>291</ele>
        <time>2024-06-23T10:23:26Z</time>
      </trkpt>
      <trkpt lat="43.07789" lon="1.37779">
        <ele>291</ele>
        <time>2024-06-23T10:23:27Z</time>
      </trkpt>
      <trkpt lat="43.07789" lon="1.37772">
        <ele>291</ele>
        <time>2024-06-23T10:23:28Z</time>
      </trkpt>
      <trkpt lat="43.07789" lon="1.37765">
        <ele>291</ele>
        <time>2024-06-23T10:23:29Z</time>
      </trkpt>
      <trkpt lat="43.07789" lon="1.37758">
        <ele>291</ele>
        <time>2024-06-23T10:23:30Z</time>
      </trkpt>
      <trkpt lat="43.07789" lon="1.37752">
        <ele>291</ele>
        <time>2024-06-23T10:23:31Z</time>
      </trkpt>
      <trkpt lat="43.07791" lon="1.37746">
        <ele>291</ele>
        <time>2024-06-23T10:23:32Z</time>
      </trkpt>
      <trkpt lat="43.07792" lon="1.37741">
        <ele>291</ele>
        <time>2024-06-23T10:23:33Z</time>
      </trkpt>
      <trkpt lat="43.07794" lon="1.37736">
        <ele>291</ele>
        <time>2024-06-23T10:23:34Z</time>
      </trkpt>
      <trkpt lat="43.07793" lon="1.3773">
        <ele>291</ele>
        <time>2024-06-23T10:23:35Z</time>
      </trkpt>
      <trkpt lat="43.07792" lon="1.37724">
        <ele>291</ele>
        <time>2024-06-23T10:23:36Z</time>
      </trkpt>
      <trkpt lat="43.07791" lon="1.37717">
        <ele>291</ele>
        <time>2024-06-23T10:23:37Z</time>
      </trkpt>
      <trkpt lat="43.0779" lon="1.3771">
        <ele>290.8</ele>
        <time>2024-06-23T10:23:38Z</time>
      </trkpt>
      <trkpt lat="43.07788" lon="1.37703">
        <ele>290.6</ele>
        <time>2024-06-23T10:23:39Z</time>
      </trkpt>
      <trkpt lat="43.07787" lon="1.37697">
        <ele>290.2</ele>
        <time>2024-06-23T10:23:40Z</time>
      </trkpt>
      <trkpt lat="43.07787" lon="1.3769">
        <ele>290.6</ele>
        <time>2024-06-23T10:23:41Z</time>
      </trkpt>
      <trkpt lat="43.07787" lon="1.37683">
        <ele>290.8</ele>
        <time>2024-06-23T10:23:42Z</time>
      </trkpt>
      <trkpt lat="43.07786" lon="1.37676">
        <ele>290.8</ele>
        <time>2024-06-23T10:23:43Z</time>
      </trkpt>
      <trkpt lat="43.07786" lon="1.3767">
        <ele>291</ele>
        <time>2024-06-23T10:23:44Z</time>
      </trkpt>
      <trkpt lat="43.07786" lon="1.37663">
        <ele>291</ele>
        <time>2024-06-23T10:23:45Z</time>
      </trkpt>
      <trkpt lat="43.07786" lon="1.37657">
        <ele>291</ele>
        <time>2024-06-23T10:23:46Z</time>
      </trkpt>
      <trkpt lat="43.07785" lon="1.3765">
        <ele>291</ele>
        <time>2024-06-23T10:23:47Z</time>
      </trkpt>
      <trkpt lat="43.07785" lon="1.37643">
        <ele>291</ele>
        <time>2024-06-23T10:23:48Z</time>
      </trkpt>
      <trkpt lat="43.07786" lon="1.37636">
        <ele>291</ele>
        <time>2024-06-23T10:23:49Z</time>
      </trkpt>
      <trkpt lat="43.07786" lon="1.37628">
        <ele>291.2</ele>
        <time>2024-06-23T10:23:50Z</time>
      </trkpt>
      <trkpt lat="43.07787" lon="1.37621">
        <ele>291.2</ele>
        <time>2024-06-23T10:23:51Z</time>
      </trkpt>
      <trkpt lat="43.07787" lon="1.37614">
        <ele>291.2</ele>
        <time>2024-06-23T10:23:52Z</time>
      </trkpt>
      <trkpt lat="43.07788" lon="1.37607">
        <ele>291.4</ele>
        <time>2024-06-23T10:23:53Z</time>
      </trkpt>
      <trkpt lat="43.07788" lon="1.37601">
        <ele>291.4</ele>
        <time>2024-06-23T10:23:54Z</time>
      </trkpt>
      <trkpt lat="43.07788" lon="1.37593">
        <ele>292</ele>
        <time>2024-06-23T10:23:55Z</time>
      </trkpt>
      <trkpt lat="43.07789" lon="1.37586">
        <ele>292</ele>
        <time>2024-06-23T10:23:56Z</time>
      </trkpt>
      <trkpt lat="43.07789" lon="1.37578">
        <ele>292</ele>
        <time>2024-06-23T10:23:57Z</time>
      </trkpt>
      <trkpt lat="43.0779" lon="1.3757">
        <ele>292</ele>
        <time>2024-06-23T10:23:58Z</time>
      </trkpt>
      <trkpt lat="43.07791" lon="1.37563">
        <ele>292.2</ele>
        <time>2024-06-23T10:23:59Z</time>
      </trkpt>
      <trkpt lat="43.07793" lon="1.37555">
        <ele>292.2</ele>
        <time>2024-06-23T10:24:00Z</time>
      </trkpt>
      <trkpt lat="43.07794" lon="1.37548">
        <ele>292.6</ele>
        <time>2024-06-23T10:24:01Z</time>
      </trkpt>
      <trkpt lat="43.07796" lon="1.3754">
        <ele>292.6</ele>
        <time>2024-06-23T10:24:02Z</time>
      </trkpt>
      <trkpt lat="43.07798" lon="1.37533">
        <ele>292.8</ele>
        <time>2024-06-23T10:24:03Z</time>
      </trkpt>
      <trkpt lat="43.078" lon="1.37526">
        <ele>292.8</ele>
        <time>2024-06-23T10:24:04Z</time>
      </trkpt>
      <trkpt lat="43.07801" lon="1.37518">
        <ele>292.8</ele>
        <time>2024-06-23T10:24:05Z</time>
      </trkpt>
      <trkpt lat="43.07803" lon="1.3751">
        <ele>292.8</ele>
        <time>2024-06-23T10:24:06Z</time>
      </trkpt>
      <trkpt lat="43.07803" lon="1.37502">
        <ele>292.8</ele>
        <time>2024-06-23T10:24:07Z</time>
      </trkpt>
      <trkpt lat="43.07803" lon="1.37495">
        <ele>292.8</ele>
        <time>2024-06-23T10:24:08Z</time>
      </trkpt>
      <trkpt lat="43.07804" lon="1.37487">
        <ele>292.6</ele>
        <time>2024-06-23T10:24:09Z</time>
      </trkpt>
      <trkpt lat="43.07804" lon="1.3748">
        <ele>292.6</ele>
        <time>2024-06-23T10:24:10Z</time>
      </trkpt>
      <trkpt lat="43.07804" lon="1.37472">
        <ele>292.6</ele>
        <time>2024-06-23T10:24:11Z</time>
      </trkpt>
      <trkpt lat="43.07803" lon="1.37465">
        <ele>292.6</ele>
        <time>2024-06-23T10:24:12Z</time>
      </trkpt>
      <trkpt lat="43.07803" lon="1.37457">
        <ele>292.6</ele>
        <time>2024-06-23T10:24:13Z</time>
      </trkpt>
      <trkpt lat="43.07803" lon="1.37449">
        <ele>292.6</ele>
        <time>2024-06-23T10:24:14Z</time>
      </trkpt>
      <trkpt lat="43.07803" lon="1.37441">
        <ele>292.6</ele>
        <time>2024-06-23T10:24:15Z</time>
      </trkpt>
      <trkpt lat="43.07803" lon="1.37432">
        <ele>292.6</ele>
        <time>2024-06-23T10:24:16Z</time>
      </trkpt>
      <trkpt lat="43.07803" lon="1.37424">
        <ele>292.6</ele>
        <time>2024-06-23T10:24:17Z</time>
      </trkpt>
      <trkpt lat="43.07804" lon="1.37417">
        <ele>292.6</ele>
        <time>2024-06-23T10:24:18Z</time>
      </trkpt>
      <trkpt lat="43.07804" lon="1.37408">
        <ele>292.2</ele>
        <time>2024-06-23T10:24:19Z</time>
      </trkpt>
      <trkpt lat="43.07805" lon="1.37401">
        <ele>292.6</ele>
        <time>2024-06-23T10:24:20Z</time>
      </trkpt>
      <trkpt lat="43.07805" lon="1.37393">
        <ele>292.2</ele>
        <time>2024-06-23T10:24:21Z</time>
      </trkpt>
      <trkpt lat="43.07806" lon="1.37385">
        <ele>292.2</ele>
        <time>2024-06-23T10:24:22Z</time>
      </trkpt>
      <trkpt lat="43.07807" lon="1.37378">
        <ele>292.2</ele>
        <time>2024-06-23T10:24:23Z</time>
      </trkpt>
      <trkpt lat="43.07808" lon="1.37369">
        <ele>292.2</ele>
        <time>2024-06-23T10:24:24Z</time>
      </trkpt>
      <trkpt lat="43.0781" lon="1.37362">
        <ele>292.2</ele>
        <time>2024-06-23T10:24:25Z</time>
      </trkpt>
      <trkpt lat="43.07811" lon="1.37354">
        <ele>292.6</ele>
        <time>2024-06-23T10:24:26Z</time>
      </trkpt>
      <trkpt lat="43.07811" lon="1.37346">
        <ele>292.6</ele>
        <time>2024-06-23T10:24:27Z</time>
      </trkpt>
      <trkpt lat="43.07813" lon="1.37338">
        <ele>292.6</ele>
        <time>2024-06-23T10:24:28Z</time>
      </trkpt>
      <trkpt lat="43.07813" lon="1.37329">
        <ele>292.6</ele>
        <time>2024-06-23T10:24:29Z</time>
      </trkpt>
      <trkpt lat="43.07814" lon="1.37321">
        <ele>292.4</ele>
        <time>2024-06-23T10:24:30Z</time>
      </trkpt>
      <trkpt lat="43.07815" lon="1.37313">
        <ele>292.4</ele>
        <time>2024-06-23T10:24:31Z</time>
      </trkpt>
      <trkpt lat="43.07816" lon="1.37305">
        <ele>292.4</ele>
        <time>2024-06-23T10:24:32Z</time>
      </trkpt>
      <trkpt lat="43.07817" lon="1.37297">
        <ele>292</ele>
        <time>2024-06-23T10:24:33Z</time>
      </trkpt>
      <trkpt lat="43.07818" lon="1.3729">
        <ele>291.8</ele>
        <time>2024-06-23T10:24:34Z</time>
      </trkpt>
      <trkpt lat="43.07818" lon="1.37282">
        <ele>291.8</ele>
        <time>2024-06-23T10:24:35Z</time>
      </trkpt>
      <trkpt lat="43.07819" lon="1.37274">
        <ele>291.8</ele>
        <time>2024-06-23T10:24:36Z</time>
      </trkpt>
      <trkpt lat="43.07819" lon="1.37267">
        <ele>291.4</ele>
        <time>2024-06-23T10:24:37Z</time>
      </trkpt>
      <trkpt lat="43.0782" lon="1.37259">
        <ele>291.4</ele>
        <time>2024-06-23T10:24:38Z</time>
      </trkpt>
      <trkpt lat="43.0782" lon="1.37251">
        <ele>291.8</ele>
        <time>2024-06-23T10:24:39Z</time>
      </trkpt>
      <trkpt lat="43.07821" lon="1.37243">
        <ele>291.8</ele>
        <time>2024-06-23T10:24:40Z</time>
      </trkpt>
      <trkpt lat="43.07821" lon="1.37235">
        <ele>291.4</ele>
        <time>2024-06-23T10:24:41Z</time>
      </trkpt>
      <trkpt lat="43.0782" lon="1.37227">
        <ele>291.4</ele>
        <time>2024-06-23T10:24:42Z</time>
      </trkpt>
      <trkpt lat="43.0782" lon="1.37218">
        <ele>291.4</ele>
        <time>2024-06-23T10:24:43Z</time>
      </trkpt>
      <trkpt lat="43.0782" lon="1.3721">
        <ele>291</ele>
        <time>2024-06-23T10:24:44Z</time>
      </trkpt>
      <trkpt lat="43.07819" lon="1.37201">
        <ele>291</ele>
        <time>2024-06-23T10:24:45Z</time>
      </trkpt>
      <trkpt lat="43.07819" lon="1.37193">
        <ele>290.6</ele>
        <time>2024-06-23T10:24:46Z</time>
      </trkpt>
      <trkpt lat="43.07819" lon="1.37184">
        <ele>290.6</ele>
        <time>2024-06-23T10:24:47Z</time>
      </trkpt>
      <trkpt lat="43.07818" lon="1.37175">
        <ele>290.6</ele>
        <time>2024-06-23T10:24:48Z</time>
      </trkpt>
      <trkpt lat="43.07818" lon="1.37167">
        <ele>290.6</ele>
        <time>2024-06-23T10:24:49Z</time>
      </trkpt>
      <trkpt lat="43.07818" lon="1.37158">
        <ele>290.6</ele>
        <time>2024-06-23T10:24:50Z</time>
      </trkpt>
      <trkpt lat="43.07818" lon="1.37149">
        <ele>290.6</ele>
        <time>2024-06-23T10:24:51Z</time>
      </trkpt>
      <trkpt lat="43.07818" lon="1.3714">
        <ele>290.6</ele>
        <time>2024-06-23T10:24:52Z</time>
      </trkpt>
      <trkpt lat="43.07818" lon="1.37131">
        <ele>290.4</ele>
        <time>2024-06-23T10:24:53Z</time>
      </trkpt>
      <trkpt lat="43.07819" lon="1.37123">
        <ele>290.2</ele>
        <time>2024-06-23T10:24:54Z</time>
      </trkpt>
      <trkpt lat="43.07818" lon="1.37114">
        <ele>290.2</ele>
        <time>2024-06-23T10:24:55Z</time>
      </trkpt>
      <trkpt lat="43.07819" lon="1.37105">
        <ele>290.2</ele>
        <time>2024-06-23T10:24:56Z</time>
      </trkpt>
      <trkpt lat="43.07819" lon="1.37096">
        <ele>290.2</ele>
        <time>2024-06-23T10:24:57Z</time>
      </trkpt>
      <trkpt lat="43.0782" lon="1.37087">
        <ele>290.2</ele>
        <time>2024-06-23T10:24:58Z</time>
      </trkpt>
      <trkpt lat="43.07821" lon="1.37078">
        <ele>290.2</ele>
        <time>2024-06-23T10:24:59Z</time>
      </trkpt>
      <trkpt lat="43.07823" lon="1.3707">
        <ele>290.2</ele>
        <time>2024-06-23T10:25:00Z</time>
      </trkpt>
      <trkpt lat="43.07824" lon="1.37062">
        <ele>290.2</ele>
        <time>2024-06-23T10:25:01Z</time>
      </trkpt>
      <trkpt lat="43.07826" lon="1.37055">
        <ele>290</ele>
        <time>2024-06-23T10:25:02Z</time>
      </trkpt>
      <trkpt lat="43.07827" lon="1.37046">
        <ele>290</ele>
        <time>2024-06-23T10:25:03Z</time>
      </trkpt>
      <trkpt lat="43.07828" lon="1.37038">
        <ele>290</ele>
        <time>2024-06-23T10:25:04Z</time>
      </trkpt>
      <trkpt lat="43.07829" lon="1.3703">
        <ele>290</ele>
        <time>2024-06-23T10:25:05Z</time>
      </trkpt>
      <trkpt lat="43.0783" lon="1.37022">
        <ele>290</ele>
        <time>2024-06-23T10:25:06Z</time>
      </trkpt>
      <trkpt lat="43.0783" lon="1.37014">
        <ele>290</ele>
        <time>2024-06-23T10:25:07Z</time>
      </trkpt>
      <trkpt lat="43.0783" lon="1.37005">
        <ele>290</ele>
        <time>2024-06-23T10:25:08Z</time>
      </trkpt>
      <trkpt lat="43.0783" lon="1.36996">
        <ele>290.2</ele>
        <time>2024-06-23T10:25:09Z</time>
      </trkpt>
      <trkpt lat="43.07831" lon="1.36988">
        <ele>290.2</ele>
        <time>2024-06-23T10:25:10Z</time>
      </trkpt>
      <trkpt lat="43.07831" lon="1.3698">
        <ele>290.2</ele>
        <time>2024-06-23T10:25:11Z</time>
      </trkpt>
      <trkpt lat="43.07831" lon="1.36972">
        <ele>290.2</ele>
        <time>2024-06-23T10:25:12Z</time>
      </trkpt>
      <trkpt lat="43.07831" lon="1.36964">
        <ele>290.2</ele>
        <time>2024-06-23T10:25:13Z</time>
      </trkpt>
      <trkpt lat="43.0783" lon="1.36956">
        <ele>290.2</ele>
        <time>2024-06-23T10:25:14Z</time>
      </trkpt>
      <trkpt lat="43.0783" lon="1.36947">
        <ele>290</ele>
        <time>2024-06-23T10:25:15Z</time>
      </trkpt>
      <trkpt lat="43.0783" lon="1.3694">
        <ele>290</ele>
        <time>2024-06-23T10:25:16Z</time>
      </trkpt>
      <trkpt lat="43.0783" lon="1.36932">
        <ele>290.2</ele>
        <time>2024-06-23T10:25:17Z</time>
      </trkpt>
      <trkpt lat="43.07829" lon="1.36924">
        <ele>290.2</ele>
        <time>2024-06-23T10:25:18Z</time>
      </trkpt>
      <trkpt lat="43.07828" lon="1.36916">
        <ele>290.2</ele>
        <time>2024-06-23T10:25:19Z</time>
      </trkpt>
      <trkpt lat="43.07828" lon="1.36908">
        <ele>290.2</ele>
        <time>2024-06-23T10:25:20Z</time>
      </trkpt>
      <trkpt lat="43.07826" lon="1.369">
        <ele>290.4</ele>
        <time>2024-06-23T10:25:21Z</time>
      </trkpt>
      <trkpt lat="43.07825" lon="1.36892">
        <ele>290.4</ele>
        <time>2024-06-23T10:25:22Z</time>
      </trkpt>
      <trkpt lat="43.07824" lon="1.36885">
        <ele>290.4</ele>
        <time>2024-06-23T10:25:23Z</time>
      </trkpt>
      <trkpt lat="43.07824" lon="1.36877">
        <ele>290.2</ele>
        <time>2024-06-23T10:25:24Z</time>
      </trkpt>
      <trkpt lat="43.07823" lon="1.36869">
        <ele>290.2</ele>
        <time>2024-06-23T10:25:25Z</time>
      </trkpt>
      <trkpt lat="43.07823" lon="1.36861">
        <ele>290.2</ele>
        <time>2024-06-23T10:25:26Z</time>
      </trkpt>
      <trkpt lat="43.07822" lon="1.36853">
        <ele>290.2</ele>
        <time>2024-06-23T10:25:27Z</time>
      </trkpt>
      <trkpt lat="43.0782" lon="1.36845">
        <ele>290.2</ele>
        <time>2024-06-23T10:25:28Z</time>
      </trkpt>
      <trkpt lat="43.0782" lon="1.36837">
        <ele>290.2</ele>
        <time>2024-06-23T10:25:29Z</time>
      </trkpt>
      <trkpt lat="43.07818" lon="1.36829">
        <ele>290.2</ele>
        <time>2024-06-23T10:25:30Z</time>
      </trkpt>
      <trkpt lat="43.07818" lon="1.36821">
        <ele>290.4</ele>
        <time>2024-06-23T10:25:31Z</time>
      </trkpt>
      <trkpt lat="43.07817" lon="1.36812">
        <ele>290.4</ele>
        <time>2024-06-23T10:25:32Z</time>
      </trkpt>
      <trkpt lat="43.07817" lon="1.36804">
        <ele>290.4</ele>
        <time>2024-06-23T10:25:33Z</time>
      </trkpt>
      <trkpt lat="43.07817" lon="1.36795">
        <ele>290.4</ele>
        <time>2024-06-23T10:25:34Z</time>
      </trkpt>
      <trkpt lat="43.07818" lon="1.36788">
        <ele>290.4</ele>
        <time>2024-06-23T10:25:35Z</time>
      </trkpt>
      <trkpt lat="43.07818" lon="1.3678">
        <ele>290.4</ele>
        <time>2024-06-23T10:25:36Z</time>
      </trkpt>
      <trkpt lat="43.07819" lon="1.36771">
        <ele>290.4</ele>
        <time>2024-06-23T10:25:37Z</time>
      </trkpt>
      <trkpt lat="43.0782" lon="1.36764">
        <ele>290.4</ele>
        <time>2024-06-23T10:25:38Z</time>
      </trkpt>
      <trkpt lat="43.07821" lon="1.36756">
        <ele>290.4</ele>
        <time>2024-06-23T10:25:39Z</time>
      </trkpt>
      <trkpt lat="43.07823" lon="1.36748">
        <ele>290.4</ele>
        <time>2024-06-23T10:25:40Z</time>
      </trkpt>
      <trkpt lat="43.07824" lon="1.36741">
        <ele>290.4</ele>
        <time>2024-06-23T10:25:41Z</time>
      </trkpt>
      <trkpt lat="43.07826" lon="1.36734">
        <ele>290.6</ele>
        <time>2024-06-23T10:25:42Z</time>
      </trkpt>
      <trkpt lat="43.07828" lon="1.36727">
        <ele>290.6</ele>
        <time>2024-06-23T10:25:43Z</time>
      </trkpt>
      <trkpt lat="43.0783" lon="1.36718">
        <ele>290.6</ele>
        <time>2024-06-23T10:25:44Z</time>
      </trkpt>
      <trkpt lat="43.07831" lon="1.36711">
        <ele>290.6</ele>
        <time>2024-06-23T10:25:45Z</time>
      </trkpt>
      <trkpt lat="43.07834" lon="1.36705">
        <ele>290.6</ele>
        <time>2024-06-23T10:25:46Z</time>
      </trkpt>
      <trkpt lat="43.07836" lon="1.36698">
        <ele>290.6</ele>
        <time>2024-06-23T10:25:47Z</time>
      </trkpt>
      <trkpt lat="43.07837" lon="1.3669">
        <ele>290.6</ele>
        <time>2024-06-23T10:25:48Z</time>
      </trkpt>
      <trkpt lat="43.07839" lon="1.36683">
        <ele>290.6</ele>
        <time>2024-06-23T10:25:49Z</time>
      </trkpt>
      <trkpt lat="43.07842" lon="1.36675">
        <ele>290.6</ele>
        <time>2024-06-23T10:25:50Z</time>
      </trkpt>
      <trkpt lat="43.07845" lon="1.36669">
        <ele>291.6</ele>
        <time>2024-06-23T10:25:51Z</time>
      </trkpt>
      <trkpt lat="43.07848" lon="1.36662">
        <ele>291.6</ele>
        <time>2024-06-23T10:25:52Z</time>
      </trkpt>
      <trkpt lat="43.07851" lon="1.36656">
        <ele>291.2</ele>
        <time>2024-06-23T10:25:53Z</time>
      </trkpt>
      <trkpt lat="43.07856" lon="1.3665">
        <ele>291.2</ele>
        <time>2024-06-23T10:25:54Z</time>
      </trkpt>
      <trkpt lat="43.0786" lon="1.36645">
        <ele>291.2</ele>
        <time>2024-06-23T10:25:55Z</time>
      </trkpt>
      <trkpt lat="43.07865" lon="1.36641">
        <ele>291.2</ele>
        <time>2024-06-23T10:25:56Z</time>
      </trkpt>
      <trkpt lat="43.0787" lon="1.36638">
        <ele>291.2</ele>
        <time>2024-06-23T10:25:57Z</time>
      </trkpt>
      <trkpt lat="43.07875" lon="1.36634">
        <ele>291.2</ele>
        <time>2024-06-23T10:25:58Z</time>
      </trkpt>
      <trkpt lat="43.07881" lon="1.36632">
        <ele>291.2</ele>
        <time>2024-06-23T10:25:59Z</time>
      </trkpt>
      <trkpt lat="43.07887" lon="1.3663">
        <ele>291.4</ele>
        <time>2024-06-23T10:26:00Z</time>
      </trkpt>
      <trkpt lat="43.07893" lon="1.36627">
        <ele>291.6</ele>
        <time>2024-06-23T10:26:01Z</time>
      </trkpt>
      <trkpt lat="43.07899" lon="1.36626">
        <ele>291.6</ele>
        <time>2024-06-23T10:26:02Z</time>
      </trkpt>
      <trkpt lat="43.07905" lon="1.36624">
        <ele>292</ele>
        <time>2024-06-23T10:26:03Z</time>
      </trkpt>
      <trkpt lat="43.07912" lon="1.36623">
        <ele>292</ele>
        <time>2024-06-23T10:26:04Z</time>
      </trkpt>
      <trkpt lat="43.07917" lon="1.36621">
        <ele>292</ele>
        <time>2024-06-23T10:26:05Z</time>
      </trkpt>
      <trkpt lat="43.07922" lon="1.36619">
        <ele>292</ele>
        <time>2024-06-23T10:26:06Z</time>
      </trkpt>
      <trkpt lat="43.07928" lon="1.36617">
        <ele>292</ele>
        <time>2024-06-23T10:26:07Z</time>
      </trkpt>
      <trkpt lat="43.07934" lon="1.36615">
        <ele>291.4</ele>
        <time>2024-06-23T10:26:08Z</time>
      </trkpt>
      <trkpt lat="43.07939" lon="1.36613">
        <ele>291.4</ele>
        <time>2024-06-23T10:26:09Z</time>
      </trkpt>
      <trkpt lat="43.07944" lon="1.36611">
        <ele>291.4</ele>
        <time>2024-06-23T10:26:10Z</time>
      </trkpt>
      <trkpt lat="43.07949" lon="1.36609">
        <ele>291.4</ele>
        <time>2024-06-23T10:26:11Z</time>
      </trkpt>
      <trkpt lat="43.07955" lon="1.36607">
        <ele>291.4</ele>
        <time>2024-06-23T10:26:12Z</time>
      </trkpt>
      <trkpt lat="43.07961" lon="1.36606">
        <ele>291.4</ele>
        <time>2024-06-23T10:26:13Z</time>
      </trkpt>
      <trkpt lat="43.07967" lon="1.36604">
        <ele>291.4</ele>
        <time>2024-06-23T10:26:14Z</time>
      </trkpt>
      <trkpt lat="43.07973" lon="1.36602">
        <ele>291.4</ele>
        <time>2024-06-23T10:26:15Z</time>
      </trkpt>
      <trkpt lat="43.07978" lon="1.366">
        <ele>291.4</ele>
        <time>2024-06-23T10:26:16Z</time>
      </trkpt>
      <trkpt lat="43.07984" lon="1.36599">
        <ele>291.4</ele>
        <time>2024-06-23T10:26:17Z</time>
      </trkpt>
      <trkpt lat="43.07989" lon="1.36597">
        <ele>291.4</ele>
        <time>2024-06-23T10:26:18Z</time>
      </trkpt>
      <trkpt lat="43.07995" lon="1.36595">
        <ele>290.8</ele>
        <time>2024-06-23T10:26:19Z</time>
      </trkpt>
      <trkpt lat="43.08" lon="1.36593">
        <ele>290.8</ele>
        <time>2024-06-23T10:26:20Z</time>
      </trkpt>
      <trkpt lat="43.08006" lon="1.36591">
        <ele>291</ele>
        <time>2024-06-23T10:26:21Z</time>
      </trkpt>
      <trkpt lat="43.08012" lon="1.36589">
        <ele>291</ele>
        <time>2024-06-23T10:26:22Z</time>
      </trkpt>
      <trkpt lat="43.08017" lon="1.36587">
        <ele>291</ele>
        <time>2024-06-23T10:26:23Z</time>
      </trkpt>
      <trkpt lat="43.08023" lon="1.36584">
        <ele>291</ele>
        <time>2024-06-23T10:26:24Z</time>
      </trkpt>
      <trkpt lat="43.08028" lon="1.3658">
        <ele>291.2</ele>
        <time>2024-06-23T10:26:25Z</time>
      </trkpt>
      <trkpt lat="43.08032" lon="1.36576">
        <ele>291.2</ele>
        <time>2024-06-23T10:26:26Z</time>
      </trkpt>
      <trkpt lat="43.08037" lon="1.36571">
        <ele>291.6</ele>
        <time>2024-06-23T10:26:27Z</time>
      </trkpt>
      <trkpt lat="43.08041" lon="1.36564">
        <ele>291.6</ele>
        <time>2024-06-23T10:26:28Z</time>
      </trkpt>
      <trkpt lat="43.08044" lon="1.36558">
        <ele>291.6</ele>
        <time>2024-06-23T10:26:29Z</time>
      </trkpt>
      <trkpt lat="43.08048" lon="1.36551">
        <ele>292.2</ele>
        <time>2024-06-23T10:26:30Z</time>
      </trkpt>
      <trkpt lat="43.08051" lon="1.36545">
        <ele>292.2</ele>
        <time>2024-06-23T10:26:31Z</time>
      </trkpt>
      <trkpt lat="43.08054" lon="1.36538">
        <ele>292.2</ele>
        <time>2024-06-23T10:26:32Z</time>
      </trkpt>
      <trkpt lat="43.08057" lon="1.36532">
        <ele>292.2</ele>
        <time>2024-06-23T10:26:33Z</time>
      </trkpt>
      <trkpt lat="43.0806" lon="1.36526">
        <ele>292.4</ele>
        <time>2024-06-23T10:26:34Z</time>
      </trkpt>
      <trkpt lat="43.08062" lon="1.36519">
        <ele>292.4</ele>
        <time>2024-06-23T10:26:35Z</time>
      </trkpt>
      <trkpt lat="43.08064" lon="1.36512">
        <ele>292.4</ele>
        <time>2024-06-23T10:26:36Z</time>
      </trkpt>
      <trkpt lat="43.08066" lon="1.36505">
        <ele>292.4</ele>
        <time>2024-06-23T10:26:37Z</time>
      </trkpt>
      <trkpt lat="43.08069" lon="1.36498">
        <ele>292.4</ele>
        <time>2024-06-23T10:26:38Z</time>
      </trkpt>
      <trkpt lat="43.08071" lon="1.36491">
        <ele>292.4</ele>
        <time>2024-06-23T10:26:39Z</time>
      </trkpt>
      <trkpt lat="43.08074" lon="1.36484">
        <ele>292.4</ele>
        <time>2024-06-23T10:26:40Z</time>
      </trkpt>
      <trkpt lat="43.08076" lon="1.36477">
        <ele>292.2</ele>
        <time>2024-06-23T10:26:41Z</time>
      </trkpt>
      <trkpt lat="43.08078" lon="1.36469">
        <ele>292.2</ele>
        <time>2024-06-23T10:26:42Z</time>
      </trkpt>
      <trkpt lat="43.08081" lon="1.36462">
        <ele>292.2</ele>
        <time>2024-06-23T10:26:43Z</time>
      </trkpt>
      <trkpt lat="43.08083" lon="1.36455">
        <ele>292.2</ele>
        <time>2024-06-23T10:26:44Z</time>
      </trkpt>
      <trkpt lat="43.08085" lon="1.36447">
        <ele>292.2</ele>
        <time>2024-06-23T10:26:45Z</time>
      </trkpt>
      <trkpt lat="43.08087" lon="1.3644">
        <ele>292.2</ele>
        <time>2024-06-23T10:26:46Z</time>
      </trkpt>
      <trkpt lat="43.08089" lon="1.36432">
        <ele>292.4</ele>
        <time>2024-06-23T10:26:47Z</time>
      </trkpt>
      <trkpt lat="43.08091" lon="1.36425">
        <ele>292.4</ele>
        <time>2024-06-23T10:26:48Z</time>
      </trkpt>
      <trkpt lat="43.08093" lon="1.36417">
        <ele>292.4</ele>
        <time>2024-06-23T10:26:49Z</time>
      </trkpt>
      <trkpt lat="43.08094" lon="1.36409">
        <ele>292.4</ele>
        <time>2024-06-23T10:26:50Z</time>
      </trkpt>
      <trkpt lat="43.08095" lon="1.36401">
        <ele>292.6</ele>
        <time>2024-06-23T10:26:51Z</time>
      </trkpt>
      <trkpt lat="43.08095" lon="1.36393">
        <ele>292.6</ele>
        <time>2024-06-23T10:26:52Z</time>
      </trkpt>
      <trkpt lat="43.08096" lon="1.36384">
        <ele>292.6</ele>
        <time>2024-06-23T10:26:53Z</time>
      </trkpt>
      <trkpt lat="43.08096" lon="1.36376">
        <ele>292.4</ele>
        <time>2024-06-23T10:26:54Z</time>
      </trkpt>
      <trkpt lat="43.08096" lon="1.36369">
        <ele>292.2</ele>
        <time>2024-06-23T10:26:55Z</time>
      </trkpt>
      <trkpt lat="43.08096" lon="1.36361">
        <ele>292.2</ele>
        <time>2024-06-23T10:26:56Z</time>
      </trkpt>
      <trkpt lat="43.08096" lon="1.36353">
        <ele>292.2</ele>
        <time>2024-06-23T10:26:57Z</time>
      </trkpt>
      <trkpt lat="43.08096" lon="1.36353">
        <ele>292.2</ele>
        <time>2024-06-23T10:26:58Z</time>
      </trkpt>
      <trkpt lat="43.08095" lon="1.36346">
        <ele>292.2</ele>
        <time>2024-06-23T10:26:59Z</time>
      </trkpt>
      <trkpt lat="43.08094" lon="1.36338">
        <ele>292.2</ele>
        <time>2024-06-23T10:27:00Z</time>
      </trkpt>
      <trkpt lat="43.08092" lon="1.36331">
        <ele>292.2</ele>
        <time>2024-06-23T10:27:01Z</time>
      </trkpt>
      <trkpt lat="43.08091" lon="1.36324">
        <ele>292.2</ele>
        <time>2024-06-23T10:27:02Z</time>
      </trkpt>
      <trkpt lat="43.0809" lon="1.36317">
        <ele>292</ele>
        <time>2024-06-23T10:27:03Z</time>
      </trkpt>
      <trkpt lat="43.08088" lon="1.36309">
        <ele>292</ele>
        <time>2024-06-23T10:27:04Z</time>
      </trkpt>
      <trkpt lat="43.08087" lon="1.36302">
        <ele>292</ele>
        <time>2024-06-23T10:27:05Z</time>
      </trkpt>
      <trkpt lat="43.08085" lon="1.36294">
        <ele>292</ele>
        <time>2024-06-23T10:27:06Z</time>
      </trkpt>
      <trkpt lat="43.08083" lon="1.36287">
        <ele>292</ele>
        <time>2024-06-23T10:27:07Z</time>
      </trkpt>
      <trkpt lat="43.08082" lon="1.3628">
        <ele>292</ele>
        <time>2024-06-23T10:27:08Z</time>
      </trkpt>
      <trkpt lat="43.08081" lon="1.36273">
        <ele>292</ele>
        <time>2024-06-23T10:27:09Z</time>
      </trkpt>
      <trkpt lat="43.08079" lon="1.36267">
        <ele>292</ele>
        <time>2024-06-23T10:27:10Z</time>
      </trkpt>
      <trkpt lat="43.08077" lon="1.36259">
        <ele>292</ele>
        <time>2024-06-23T10:27:11Z</time>
      </trkpt>
      <trkpt lat="43.08076" lon="1.36253">
        <ele>292</ele>
        <time>2024-06-23T10:27:12Z</time>
      </trkpt>
      <trkpt lat="43.08074" lon="1.36245">
        <ele>292</ele>
        <time>2024-06-23T10:27:13Z</time>
      </trkpt>
      <trkpt lat="43.08073" lon="1.36239">
        <ele>292</ele>
        <time>2024-06-23T10:27:14Z</time>
      </trkpt>
      <trkpt lat="43.08071" lon="1.36232">
        <ele>292</ele>
        <time>2024-06-23T10:27:15Z</time>
      </trkpt>
      <trkpt lat="43.08069" lon="1.36226">
        <ele>292.2</ele>
        <time>2024-06-23T10:27:16Z</time>
      </trkpt>
      <trkpt lat="43.08069" lon="1.3622">
        <ele>292.2</ele>
        <time>2024-06-23T10:27:17Z</time>
      </trkpt>
      <trkpt lat="43.08067" lon="1.36214">
        <ele>292.6</ele>
        <time>2024-06-23T10:27:18Z</time>
      </trkpt>
      <trkpt lat="43.08065" lon="1.36207">
        <ele>292.4</ele>
        <time>2024-06-23T10:27:19Z</time>
      </trkpt>
      <trkpt lat="43.08063" lon="1.36201">
        <ele>292.4</ele>
        <time>2024-06-23T10:27:20Z</time>
      </trkpt>
      <trkpt lat="43.0806" lon="1.36194">
        <ele>292.4</ele>
        <time>2024-06-23T10:27:21Z</time>
      </trkpt>
      <trkpt lat="43.08057" lon="1.36188">
        <ele>292.4</ele>
        <time>2024-06-23T10:27:22Z</time>
      </trkpt>
      <trkpt lat="43.08054" lon="1.36184">
        <ele>292.4</ele>
        <time>2024-06-23T10:27:23Z</time>
      </trkpt>
      <trkpt lat="43.0805" lon="1.36179">
        <ele>292.4</ele>
        <time>2024-06-23T10:27:24Z</time>
      </trkpt>
      <trkpt lat="43.08046" lon="1.36175">
        <ele>292.4</ele>
        <time>2024-06-23T10:27:25Z</time>
      </trkpt>
      <trkpt lat="43.08041" lon="1.36173">
        <ele>292.4</ele>
        <time>2024-06-23T10:27:26Z</time>
      </trkpt>
      <trkpt lat="43.08036" lon="1.3617">
        <ele>292.4</ele>
        <time>2024-06-23T10:27:27Z</time>
      </trkpt>
      <trkpt lat="43.08031" lon="1.36168">
        <ele>292.6</ele>
        <time>2024-06-23T10:27:28Z</time>
      </trkpt>
      <trkpt lat="43.08026" lon="1.36166">
        <ele>292.6</ele>
        <time>2024-06-23T10:27:29Z</time>
      </trkpt>
      <trkpt lat="43.08021" lon="1.36163">
        <ele>292.6</ele>
        <time>2024-06-23T10:27:30Z</time>
      </trkpt>
      <trkpt lat="43.08016" lon="1.36161">
        <ele>292.8</ele>
        <time>2024-06-23T10:27:31Z</time>
      </trkpt>
      <trkpt lat="43.08011" lon="1.36158">
        <ele>292.8</ele>
        <time>2024-06-23T10:27:32Z</time>
      </trkpt>
      <trkpt lat="43.08006" lon="1.36155">
        <ele>292.8</ele>
        <time>2024-06-23T10:27:33Z</time>
      </trkpt>
      <trkpt lat="43.08001" lon="1.36153">
        <ele>293</ele>
        <time>2024-06-23T10:27:34Z</time>
      </trkpt>
      <trkpt lat="43.07997" lon="1.3615">
        <ele>293.4</ele>
        <time>2024-06-23T10:27:35Z</time>
      </trkpt>
      <trkpt lat="43.07991" lon="1.36148">
        <ele>293.4</ele>
        <time>2024-06-23T10:27:36Z</time>
      </trkpt>
      <trkpt lat="43.07987" lon="1.36145">
        <ele>293</ele>
        <time>2024-06-23T10:27:37Z</time>
      </trkpt>
      <trkpt lat="43.07982" lon="1.36143">
        <ele>293</ele>
        <time>2024-06-23T10:27:38Z</time>
      </trkpt>
      <trkpt lat="43.07976" lon="1.36141">
        <ele>293</ele>
        <time>2024-06-23T10:27:39Z</time>
      </trkpt>
      <trkpt lat="43.07972" lon="1.36137">
        <ele>293</ele>
        <time>2024-06-23T10:27:40Z</time>
      </trkpt>
      <trkpt lat="43.07968" lon="1.36134">
        <ele>293.4</ele>
        <time>2024-06-23T10:27:41Z</time>
      </trkpt>
      <trkpt lat="43.07965" lon="1.3613">
        <ele>293.4</ele>
        <time>2024-06-23T10:27:42Z</time>
      </trkpt>
      <trkpt lat="43.07961" lon="1.36125">
        <ele>293.8</ele>
        <time>2024-06-23T10:27:43Z</time>
      </trkpt>
      <trkpt lat="43.07956" lon="1.36119">
        <ele>294</ele>
        <time>2024-06-23T10:27:44Z</time>
      </trkpt>
      <trkpt lat="43.07952" lon="1.36114">
        <ele>294</ele>
        <time>2024-06-23T10:27:45Z</time>
      </trkpt>
      <trkpt lat="43.07947" lon="1.3611">
        <ele>294</ele>
        <time>2024-06-23T10:27:46Z</time>
      </trkpt>
      <trkpt lat="43.07944" lon="1.36106">
        <ele>294.2</ele>
        <time>2024-06-23T10:27:47Z</time>
      </trkpt>
      <trkpt lat="43.0794" lon="1.36102">
        <ele>294.2</ele>
        <time>2024-06-23T10:27:48Z</time>
      </trkpt>
      <trkpt lat="43.07937" lon="1.36098">
        <ele>294.6</ele>
        <time>2024-06-23T10:27:49Z</time>
      </trkpt>
      <trkpt lat="43.07933" lon="1.36093">
        <ele>294.6</ele>
        <time>2024-06-23T10:27:50Z</time>
      </trkpt>
      <trkpt lat="43.07929" lon="1.36088">
        <ele>294.6</ele>
        <time>2024-06-23T10:27:51Z</time>
      </trkpt>
      <trkpt lat="43.07926" lon="1.36084">
        <ele>294.8</ele>
        <time>2024-06-23T10:27:52Z</time>
      </trkpt>
      <trkpt lat="43.07922" lon="1.3608">
        <ele>294.8</ele>
        <time>2024-06-23T10:27:53Z</time>
      </trkpt>
      <trkpt lat="43.07918" lon="1.36076">
        <ele>294</ele>
        <time>2024-06-23T10:27:54Z</time>
      </trkpt>
      <trkpt lat="43.07913" lon="1.36073">
        <ele>294</ele>
        <time>2024-06-23T10:27:55Z</time>
      </trkpt>
      <trkpt lat="43.07909" lon="1.36067">
        <ele>294.4</ele>
        <time>2024-06-23T10:27:56Z</time>
      </trkpt>
      <trkpt lat="43.07906" lon="1.36063">
        <ele>294.6</ele>
        <time>2024-06-23T10:27:57Z</time>
      </trkpt>
      <trkpt lat="43.07902" lon="1.36058">
        <ele>294.6</ele>
        <time>2024-06-23T10:27:58Z</time>
      </trkpt>
      <trkpt lat="43.07898" lon="1.36053">
        <ele>294.6</ele>
        <time>2024-06-23T10:27:59Z</time>
      </trkpt>
      <trkpt lat="43.07894" lon="1.36048">
        <ele>294.8</ele>
        <time>2024-06-23T10:28:00Z</time>
      </trkpt>
      <trkpt lat="43.0789" lon="1.36044">
        <ele>295.2</ele>
        <time>2024-06-23T10:28:01Z</time>
      </trkpt>
      <trkpt lat="43.07886" lon="1.36038">
        <ele>295.2</ele>
        <time>2024-06-23T10:28:02Z</time>
      </trkpt>
      <trkpt lat="43.07881" lon="1.36033">
        <ele>295.2</ele>
        <time>2024-06-23T10:28:03Z</time>
      </trkpt>
      <trkpt lat="43.07876" lon="1.36029">
        <ele>295.2</ele>
        <time>2024-06-23T10:28:04Z</time>
      </trkpt>
      <trkpt lat="43.07872" lon="1.36026">
        <ele>295.2</ele>
        <time>2024-06-23T10:28:05Z</time>
      </trkpt>
      <trkpt lat="43.07866" lon="1.36023">
        <ele>295.2</ele>
        <time>2024-06-23T10:28:06Z</time>
      </trkpt>
      <trkpt lat="43.07861" lon="1.36021">
        <ele>295.2</ele>
        <time>2024-06-23T10:28:07Z</time>
      </trkpt>
      <trkpt lat="43.07855" lon="1.36019">
        <ele>295.2</ele>
        <time>2024-06-23T10:28:08Z</time>
      </trkpt>
      <trkpt lat="43.0785" lon="1.36017">
        <ele>295.2</ele>
        <time>2024-06-23T10:28:09Z</time>
      </trkpt>
      <trkpt lat="43.07844" lon="1.36017">
        <ele>295.2</ele>
        <time>2024-06-23T10:28:10Z</time>
      </trkpt>
      <trkpt lat="43.07839" lon="1.36016">
        <ele>295.2</ele>
        <time>2024-06-23T10:28:11Z</time>
      </trkpt>
      <trkpt lat="43.07833" lon="1.36015">
        <ele>295.2</ele>
        <time>2024-06-23T10:28:12Z</time>
      </trkpt>
      <trkpt lat="43.07828" lon="1.36013">
        <ele>295.2</ele>
        <time>2024-06-23T10:28:13Z</time>
      </trkpt>
      <trkpt lat="43.07823" lon="1.36012">
        <ele>295.2</ele>
        <time>2024-06-23T10:28:14Z</time>
      </trkpt>
      <trkpt lat="43.07818" lon="1.36011">
        <ele>295.2</ele>
        <time>2024-06-23T10:28:15Z</time>
      </trkpt>
      <trkpt lat="43.07814" lon="1.36009">
        <ele>295.6</ele>
        <time>2024-06-23T10:28:16Z</time>
      </trkpt>
      <trkpt lat="43.07808" lon="1.36008">
        <ele>295.6</ele>
        <time>2024-06-23T10:28:17Z</time>
      </trkpt>
      <trkpt lat="43.07803" lon="1.36006">
        <ele>295.6</ele>
        <time>2024-06-23T10:28:18Z</time>
      </trkpt>
      <trkpt lat="43.07798" lon="1.36005">
        <ele>295.8</ele>
        <time>2024-06-23T10:28:19Z</time>
      </trkpt>
      <trkpt lat="43.07794" lon="1.36004">
        <ele>296</ele>
        <time>2024-06-23T10:28:20Z</time>
      </trkpt>
      <trkpt lat="43.0779" lon="1.36004">
        <ele>296</ele>
        <time>2024-06-23T10:28:21Z</time>
      </trkpt>
      <trkpt lat="43.07784" lon="1.36003">
        <ele>296</ele>
        <time>2024-06-23T10:28:22Z</time>
      </trkpt>
      <trkpt lat="43.07781" lon="1.36003">
        <ele>296</ele>
        <time>2024-06-23T10:28:23Z</time>
      </trkpt>
      <trkpt lat="43.07776" lon="1.36001">
        <ele>296</ele>
        <time>2024-06-23T10:28:24Z</time>
      </trkpt>
      <trkpt lat="43.07771" lon="1.35998">
        <ele>296.2</ele>
        <time>2024-06-23T10:28:25Z</time>
      </trkpt>
      <trkpt lat="43.07766" lon="1.35997">
        <ele>296.2</ele>
        <time>2024-06-23T10:28:26Z</time>
      </trkpt>
      <trkpt lat="43.07763" lon="1.35997">
        <ele>296.6</ele>
        <time>2024-06-23T10:28:27Z</time>
      </trkpt>
      <trkpt lat="43.07759" lon="1.35996">
        <ele>296.8</ele>
        <time>2024-06-23T10:28:28Z</time>
      </trkpt>
      <trkpt lat="43.07755" lon="1.35994">
        <ele>297</ele>
        <time>2024-06-23T10:28:29Z</time>
      </trkpt>
      <trkpt lat="43.07751" lon="1.35993">
        <ele>297.2</ele>
        <time>2024-06-23T10:28:30Z</time>
      </trkpt>
      <trkpt lat="43.07747" lon="1.35991">
        <ele>297.4</ele>
        <time>2024-06-23T10:28:31Z</time>
      </trkpt>
      <trkpt lat="43.07743" lon="1.3599">
        <ele>297.4</ele>
        <time>2024-06-23T10:28:32Z</time>
      </trkpt>
      <trkpt lat="43.07738" lon="1.35988">
        <ele>298</ele>
        <time>2024-06-23T10:28:33Z</time>
      </trkpt>
      <trkpt lat="43.07734" lon="1.35987">
        <ele>298.4</ele>
        <time>2024-06-23T10:28:34Z</time>
      </trkpt>
      <trkpt lat="43.0773" lon="1.35986">
        <ele>298.6</ele>
        <time>2024-06-23T10:28:35Z</time>
      </trkpt>
      <trkpt lat="43.07725" lon="1.35985">
        <ele>298.6</ele>
        <time>2024-06-23T10:28:36Z</time>
      </trkpt>
      <trkpt lat="43.07721" lon="1.35984">
        <ele>299</ele>
        <time>2024-06-23T10:28:37Z</time>
      </trkpt>
      <trkpt lat="43.07717" lon="1.35983">
        <ele>299.4</ele>
        <time>2024-06-23T10:28:38Z</time>
      </trkpt>
      <trkpt lat="43.07713" lon="1.35982">
        <ele>299.6</ele>
        <time>2024-06-23T10:28:39Z</time>
      </trkpt>
      <trkpt lat="43.0771" lon="1.35982">
        <ele>300</ele>
        <time>2024-06-23T10:28:40Z</time>
      </trkpt>
      <trkpt lat="43.07706" lon="1.35981">
        <ele>300.2</ele>
        <time>2024-06-23T10:28:41Z</time>
      </trkpt>
      <trkpt lat="43.07702" lon="1.3598">
        <ele>300.4</ele>
        <time>2024-06-23T10:28:42Z</time>
      </trkpt>
      <trkpt lat="43.07698" lon="1.3598">
        <ele>300.8</ele>
        <time>2024-06-23T10:28:43Z</time>
      </trkpt>
      <trkpt lat="43.07694" lon="1.35979">
        <ele>301.2</ele>
        <time>2024-06-23T10:28:44Z</time>
      </trkpt>
      <trkpt lat="43.0769" lon="1.3598">
        <ele>301.4</ele>
        <time>2024-06-23T10:28:45Z</time>
      </trkpt>
      <trkpt lat="43.07687" lon="1.35977">
        <ele>301.4</ele>
        <time>2024-06-23T10:28:46Z</time>
      </trkpt>
      <trkpt lat="43.07683" lon="1.35976">
        <ele>301.6</ele>
        <time>2024-06-23T10:28:47Z</time>
      </trkpt>
      <trkpt lat="43.07679" lon="1.35975">
        <ele>301.8</ele>
        <time>2024-06-23T10:28:48Z</time>
      </trkpt>
      <trkpt lat="43.07675" lon="1.35974">
        <ele>302.2</ele>
        <time>2024-06-23T10:28:49Z</time>
      </trkpt>
      <trkpt lat="43.0767" lon="1.35973">
        <ele>302.6</ele>
        <time>2024-06-23T10:28:50Z</time>
      </trkpt>
      <trkpt lat="43.07666" lon="1.35971">
        <ele>302.6</ele>
        <time>2024-06-23T10:28:51Z</time>
      </trkpt>
      <trkpt lat="43.07661" lon="1.3597">
        <ele>303.2</ele>
        <time>2024-06-23T10:28:52Z</time>
      </trkpt>
      <trkpt lat="43.07657" lon="1.35969">
        <ele>303.6</ele>
        <time>2024-06-23T10:28:53Z</time>
      </trkpt>
      <trkpt lat="43.07653" lon="1.35969">
        <ele>303.6</ele>
        <time>2024-06-23T10:28:54Z</time>
      </trkpt>
      <trkpt lat="43.07648" lon="1.35968">
        <ele>304</ele>
        <time>2024-06-23T10:28:55Z</time>
      </trkpt>
      <trkpt lat="43.07645" lon="1.35969">
        <ele>304.2</ele>
        <time>2024-06-23T10:28:56Z</time>
      </trkpt>
      <trkpt lat="43.07641" lon="1.35967">
        <ele>304.4</ele>
        <time>2024-06-23T10:28:57Z</time>
      </trkpt>
      <trkpt lat="43.07633" lon="1.35967">
        <ele>304.8</ele>
        <time>2024-06-23T10:28:58Z</time>
      </trkpt>
      <trkpt lat="43.07629" lon="1.35966">
        <ele>305</ele>
        <time>2024-06-23T10:28:59Z</time>
      </trkpt>
      <trkpt lat="43.07625" lon="1.35964">
        <ele>305.4</ele>
        <time>2024-06-23T10:29:00Z</time>
      </trkpt>
      <trkpt lat="43.0762" lon="1.35963">
        <ele>305.6</ele>
        <time>2024-06-23T10:29:01Z</time>
      </trkpt>
      <trkpt lat="43.07617" lon="1.35964">
        <ele>305.6</ele>
        <time>2024-06-23T10:29:02Z</time>
      </trkpt>
      <trkpt lat="43.07612" lon="1.35962">
        <ele>306</ele>
        <time>2024-06-23T10:29:03Z</time>
      </trkpt>
      <trkpt lat="43.07607" lon="1.3596">
        <ele>306</ele>
        <time>2024-06-23T10:29:04Z</time>
      </trkpt>
      <trkpt lat="43.07602" lon="1.35959">
        <ele>306.4</ele>
        <time>2024-06-23T10:29:05Z</time>
      </trkpt>
      <trkpt lat="43.07597" lon="1.35957">
        <ele>306.4</ele>
        <time>2024-06-23T10:29:06Z</time>
      </trkpt>
      <trkpt lat="43.07593" lon="1.35956">
        <ele>306.8</ele>
        <time>2024-06-23T10:29:07Z</time>
      </trkpt>
      <trkpt lat="43.07589" lon="1.35954">
        <ele>307.4</ele>
        <time>2024-06-23T10:29:08Z</time>
      </trkpt>
      <trkpt lat="43.07585" lon="1.35952">
        <ele>307.6</ele>
        <time>2024-06-23T10:29:09Z</time>
      </trkpt>
      <trkpt lat="43.07582" lon="1.35951">
        <ele>307.6</ele>
        <time>2024-06-23T10:29:10Z</time>
      </trkpt>
      <trkpt lat="43.07578" lon="1.35948">
        <ele>308.2</ele>
        <time>2024-06-23T10:29:11Z</time>
      </trkpt>
      <trkpt lat="43.07575" lon="1.35945">
        <ele>308.4</ele>
        <time>2024-06-23T10:29:12Z</time>
      </trkpt>
      <trkpt lat="43.07572" lon="1.35942">
        <ele>309</ele>
        <time>2024-06-23T10:29:13Z</time>
      </trkpt>
      <trkpt lat="43.07567" lon="1.35938">
        <ele>309</ele>
        <time>2024-06-23T10:29:14Z</time>
      </trkpt>
      <trkpt lat="43.07563" lon="1.35934">
        <ele>309</ele>
        <time>2024-06-23T10:29:15Z</time>
      </trkpt>
      <trkpt lat="43.0756" lon="1.35929">
        <ele>309</ele>
        <time>2024-06-23T10:29:16Z</time>
      </trkpt>
      <trkpt lat="43.07556" lon="1.35924">
        <ele>309</ele>
        <time>2024-06-23T10:29:17Z</time>
      </trkpt>
      <trkpt lat="43.07552" lon="1.35918">
        <ele>309</ele>
        <time>2024-06-23T10:29:18Z</time>
      </trkpt>
      <trkpt lat="43.07549" lon="1.35913">
        <ele>309</ele>
        <time>2024-06-23T10:29:19Z</time>
      </trkpt>
      <trkpt lat="43.07544" lon="1.35907">
        <ele>309</ele>
        <time>2024-06-23T10:29:20Z</time>
      </trkpt>
      <trkpt lat="43.07541" lon="1.35902">
        <ele>309</ele>
        <time>2024-06-23T10:29:21Z</time>
      </trkpt>
      <trkpt lat="43.07536" lon="1.35897">
        <ele>309</ele>
        <time>2024-06-23T10:29:22Z</time>
      </trkpt>
      <trkpt lat="43.07532" lon="1.35892">
        <ele>309</ele>
        <time>2024-06-23T10:29:23Z</time>
      </trkpt>
      <trkpt lat="43.07528" lon="1.35887">
        <ele>309</ele>
        <time>2024-06-23T10:29:24Z</time>
      </trkpt>
      <trkpt lat="43.07524" lon="1.35881">
        <ele>309.4</ele>
        <time>2024-06-23T10:29:25Z</time>
      </trkpt>
      <trkpt lat="43.0752" lon="1.35876">
        <ele>309.4</ele>
        <time>2024-06-23T10:29:26Z</time>
      </trkpt>
      <trkpt lat="43.07515" lon="1.3587">
        <ele>309.4</ele>
        <time>2024-06-23T10:29:27Z</time>
      </trkpt>
      <trkpt lat="43.07511" lon="1.35866">
        <ele>309.6</ele>
        <time>2024-06-23T10:29:28Z</time>
      </trkpt>
      <trkpt lat="43.07506" lon="1.35862">
        <ele>309.6</ele>
        <time>2024-06-23T10:29:29Z</time>
      </trkpt>
      <trkpt lat="43.07501" lon="1.35858">
        <ele>309.6</ele>
        <time>2024-06-23T10:29:30Z</time>
      </trkpt>
      <trkpt lat="43.07495" lon="1.35854">
        <ele>309.6</ele>
        <time>2024-06-23T10:29:31Z</time>
      </trkpt>
      <trkpt lat="43.0749" lon="1.3585">
        <ele>309.6</ele>
        <time>2024-06-23T10:29:32Z</time>
      </trkpt>
      <trkpt lat="43.07484" lon="1.35846">
        <ele>309.6</ele>
        <time>2024-06-23T10:29:33Z</time>
      </trkpt>
      <trkpt lat="43.07479" lon="1.35841">
        <ele>309.6</ele>
        <time>2024-06-23T10:29:34Z</time>
      </trkpt>
      <trkpt lat="43.07471" lon="1.35838">
        <ele>309.6</ele>
        <time>2024-06-23T10:29:35Z</time>
      </trkpt>
      <trkpt lat="43.07466" lon="1.35832">
        <ele>309.6</ele>
        <time>2024-06-23T10:29:36Z</time>
      </trkpt>
      <trkpt lat="43.0746" lon="1.35827">
        <ele>309.4</ele>
        <time>2024-06-23T10:29:37Z</time>
      </trkpt>
      <trkpt lat="43.07453" lon="1.35822">
        <ele>309.4</ele>
        <time>2024-06-23T10:29:38Z</time>
      </trkpt>
      <trkpt lat="43.07447" lon="1.35817">
        <ele>309.4</ele>
        <time>2024-06-23T10:29:39Z</time>
      </trkpt>
      <trkpt lat="43.07441" lon="1.35812">
        <ele>309.4</ele>
        <time>2024-06-23T10:29:40Z</time>
      </trkpt>
      <trkpt lat="43.07435" lon="1.35807">
        <ele>309.2</ele>
        <time>2024-06-23T10:29:41Z</time>
      </trkpt>
      <trkpt lat="43.0743" lon="1.35803">
        <ele>309.2</ele>
        <time>2024-06-23T10:29:42Z</time>
      </trkpt>
      <trkpt lat="43.07424" lon="1.358">
        <ele>309.2</ele>
        <time>2024-06-23T10:29:43Z</time>
      </trkpt>
      <trkpt lat="43.07418" lon="1.35795">
        <ele>309.2</ele>
        <time>2024-06-23T10:29:44Z</time>
      </trkpt>
      <trkpt lat="43.07412" lon="1.35791">
        <ele>308.8</ele>
        <time>2024-06-23T10:29:45Z</time>
      </trkpt>
      <trkpt lat="43.07406" lon="1.35785">
        <ele>308.8</ele>
        <time>2024-06-23T10:29:46Z</time>
      </trkpt>
      <trkpt lat="43.07401" lon="1.35781">
        <ele>308.8</ele>
        <time>2024-06-23T10:29:47Z</time>
      </trkpt>
      <trkpt lat="43.07394" lon="1.35777">
        <ele>308.8</ele>
        <time>2024-06-23T10:29:48Z</time>
      </trkpt>
      <trkpt lat="43.0739" lon="1.35773">
        <ele>308.8</ele>
        <time>2024-06-23T10:29:49Z</time>
      </trkpt>
      <trkpt lat="43.07384" lon="1.35769">
        <ele>308.8</ele>
        <time>2024-06-23T10:29:50Z</time>
      </trkpt>
      <trkpt lat="43.07379" lon="1.35765">
        <ele>308.8</ele>
        <time>2024-06-23T10:29:51Z</time>
      </trkpt>
      <trkpt lat="43.07375" lon="1.35762">
        <ele>309.2</ele>
        <time>2024-06-23T10:29:52Z</time>
      </trkpt>
      <trkpt lat="43.07371" lon="1.35758">
        <ele>309.4</ele>
        <time>2024-06-23T10:29:53Z</time>
      </trkpt>
      <trkpt lat="43.07367" lon="1.35755">
        <ele>309.4</ele>
        <time>2024-06-23T10:29:54Z</time>
      </trkpt>
      <trkpt lat="43.07362" lon="1.3575">
        <ele>309.4</ele>
        <time>2024-06-23T10:29:55Z</time>
      </trkpt>
      <trkpt lat="43.07358" lon="1.35747">
        <ele>309.4</ele>
        <time>2024-06-23T10:29:56Z</time>
      </trkpt>
      <trkpt lat="43.07354" lon="1.35743">
        <ele>309.6</ele>
        <time>2024-06-23T10:29:57Z</time>
      </trkpt>
      <trkpt lat="43.07352" lon="1.35739">
        <ele>309.6</ele>
        <time>2024-06-23T10:29:58Z</time>
      </trkpt>
      <trkpt lat="43.07349" lon="1.35736">
        <ele>309.8</ele>
        <time>2024-06-23T10:29:59Z</time>
      </trkpt>
      <trkpt lat="43.07344" lon="1.35732">
        <ele>310.2</ele>
        <time>2024-06-23T10:30:00Z</time>
      </trkpt>
      <trkpt lat="43.07341" lon="1.35729">
        <ele>310.2</ele>
        <time>2024-06-23T10:30:01Z</time>
      </trkpt>
      <trkpt lat="43.07338" lon="1.35725">
        <ele>310.2</ele>
        <time>2024-06-23T10:30:02Z</time>
      </trkpt>
      <trkpt lat="43.07333" lon="1.35722">
        <ele>310.2</ele>
        <time>2024-06-23T10:30:03Z</time>
      </trkpt>
      <trkpt lat="43.07331" lon="1.35716">
        <ele>310.4</ele>
        <time>2024-06-23T10:30:04Z</time>
      </trkpt>
      <trkpt lat="43.07329" lon="1.35713">
        <ele>310.4</ele>
        <time>2024-06-23T10:30:05Z</time>
      </trkpt>
      <trkpt lat="43.07326" lon="1.35709">
        <ele>310.8</ele>
        <time>2024-06-23T10:30:06Z</time>
      </trkpt>
      <trkpt lat="43.07323" lon="1.35704">
        <ele>311</ele>
        <time>2024-06-23T10:30:07Z</time>
      </trkpt>
      <trkpt lat="43.0732" lon="1.35699">
        <ele>311</ele>
        <time>2024-06-23T10:30:08Z</time>
      </trkpt>
      <trkpt lat="43.07317" lon="1.35696">
        <ele>311</ele>
        <time>2024-06-23T10:30:09Z</time>
      </trkpt>
      <trkpt lat="43.07315" lon="1.35691">
        <ele>311.2</ele>
        <time>2024-06-23T10:30:10Z</time>
      </trkpt>
      <trkpt lat="43.07311" lon="1.35687">
        <ele>311.2</ele>
        <time>2024-06-23T10:30:11Z</time>
      </trkpt>
      <trkpt lat="43.07308" lon="1.35683">
        <ele>311.2</ele>
        <time>2024-06-23T10:30:12Z</time>
      </trkpt>
      <trkpt lat="43.07304" lon="1.35679">
        <ele>311.6</ele>
        <time>2024-06-23T10:30:13Z</time>
      </trkpt>
      <trkpt lat="43.073" lon="1.35676">
        <ele>311.6</ele>
        <time>2024-06-23T10:30:14Z</time>
      </trkpt>
      <trkpt lat="43.07296" lon="1.35673">
        <ele>311.6</ele>
        <time>2024-06-23T10:30:15Z</time>
      </trkpt>
      <trkpt lat="43.07292" lon="1.3567">
        <ele>311.6</ele>
        <time>2024-06-23T10:30:16Z</time>
      </trkpt>
      <trkpt lat="43.07287" lon="1.35669">
        <ele>312</ele>
        <time>2024-06-23T10:30:17Z</time>
      </trkpt>
      <trkpt lat="43.07283" lon="1.35666">
        <ele>312</ele>
        <time>2024-06-23T10:30:18Z</time>
      </trkpt>
      <trkpt lat="43.07279" lon="1.35665">
        <ele>312.6</ele>
        <time>2024-06-23T10:30:19Z</time>
      </trkpt>
      <trkpt lat="43.07275" lon="1.35663">
        <ele>312.8</ele>
        <time>2024-06-23T10:30:20Z</time>
      </trkpt>
      <trkpt lat="43.0727" lon="1.35663">
        <ele>312.8</ele>
        <time>2024-06-23T10:30:21Z</time>
      </trkpt>
      <trkpt lat="43.07266" lon="1.35662">
        <ele>312.8</ele>
        <time>2024-06-23T10:30:22Z</time>
      </trkpt>
      <trkpt lat="43.07262" lon="1.35661">
        <ele>312.8</ele>
        <time>2024-06-23T10:30:23Z</time>
      </trkpt>
      <trkpt lat="43.07257" lon="1.35661">
        <ele>312.8</ele>
        <time>2024-06-23T10:30:24Z</time>
      </trkpt>
      <trkpt lat="43.07253" lon="1.35661">
        <ele>312.8</ele>
        <time>2024-06-23T10:30:25Z</time>
      </trkpt>
      <trkpt lat="43.07248" lon="1.3566">
        <ele>312.8</ele>
        <time>2024-06-23T10:30:26Z</time>
      </trkpt>
      <trkpt lat="43.07244" lon="1.35659">
        <ele>312.8</ele>
        <time>2024-06-23T10:30:27Z</time>
      </trkpt>
      <trkpt lat="43.07239" lon="1.35659">
        <ele>312.8</ele>
        <time>2024-06-23T10:30:28Z</time>
      </trkpt>
      <trkpt lat="43.07234" lon="1.35658">
        <ele>312.8</ele>
        <time>2024-06-23T10:30:29Z</time>
      </trkpt>
      <trkpt lat="43.07229" lon="1.35658">
        <ele>312.8</ele>
        <time>2024-06-23T10:30:30Z</time>
      </trkpt>
      <trkpt lat="43.07225" lon="1.35657">
        <ele>312.8</ele>
        <time>2024-06-23T10:30:31Z</time>
      </trkpt>
      <trkpt lat="43.0722" lon="1.35657">
        <ele>312.8</ele>
        <time>2024-06-23T10:30:32Z</time>
      </trkpt>
      <trkpt lat="43.07215" lon="1.35656">
        <ele>312.8</ele>
        <time>2024-06-23T10:30:33Z</time>
      </trkpt>
      <trkpt lat="43.0721" lon="1.35655">
        <ele>313.2</ele>
        <time>2024-06-23T10:30:34Z</time>
      </trkpt>
      <trkpt lat="43.07205" lon="1.35656">
        <ele>312.8</ele>
        <time>2024-06-23T10:30:35Z</time>
      </trkpt>
      <trkpt lat="43.072" lon="1.35655">
        <ele>312.8</ele>
        <time>2024-06-23T10:30:36Z</time>
      </trkpt>
      <trkpt lat="43.07195" lon="1.35654">
        <ele>312.6</ele>
        <time>2024-06-23T10:30:37Z</time>
      </trkpt>
      <trkpt lat="43.0719" lon="1.35653">
        <ele>312.8</ele>
        <time>2024-06-23T10:30:38Z</time>
      </trkpt>
      <trkpt lat="43.07185" lon="1.35652">
        <ele>312.8</ele>
        <time>2024-06-23T10:30:39Z</time>
      </trkpt>
      <trkpt lat="43.0718" lon="1.35651">
        <ele>313.2</ele>
        <time>2024-06-23T10:30:40Z</time>
      </trkpt>
      <trkpt lat="43.07175" lon="1.35651">
        <ele>313.4</ele>
        <time>2024-06-23T10:30:41Z</time>
      </trkpt>
      <trkpt lat="43.0717" lon="1.35651">
        <ele>313.4</ele>
        <time>2024-06-23T10:30:42Z</time>
      </trkpt>
      <trkpt lat="43.07166" lon="1.35651">
        <ele>313.4</ele>
        <time>2024-06-23T10:30:43Z</time>
      </trkpt>
      <trkpt lat="43.07161" lon="1.3565">
        <ele>313.4</ele>
        <time>2024-06-23T10:30:44Z</time>
      </trkpt>
      <trkpt lat="43.07157" lon="1.3565">
        <ele>314</ele>
        <time>2024-06-23T10:30:45Z</time>
      </trkpt>
      <trkpt lat="43.07153" lon="1.3565">
        <ele>314</ele>
        <time>2024-06-23T10:30:46Z</time>
      </trkpt>
      <trkpt lat="43.07149" lon="1.3565">
        <ele>314</ele>
        <time>2024-06-23T10:30:47Z</time>
      </trkpt>
      <trkpt lat="43.07145" lon="1.35648">
        <ele>314</ele>
        <time>2024-06-23T10:30:48Z</time>
      </trkpt>
      <trkpt lat="43.07141" lon="1.35647">
        <ele>314.4</ele>
        <time>2024-06-23T10:30:49Z</time>
      </trkpt>
      <trkpt lat="43.07137" lon="1.35646">
        <ele>314.4</ele>
        <time>2024-06-23T10:30:50Z</time>
      </trkpt>
      <trkpt lat="43.07132" lon="1.35644">
        <ele>314.6</ele>
        <time>2024-06-23T10:30:51Z</time>
      </trkpt>
      <trkpt lat="43.07127" lon="1.3564">
        <ele>314.6</ele>
        <time>2024-06-23T10:30:52Z</time>
      </trkpt>
      <trkpt lat="43.07124" lon="1.35636">
        <ele>314.6</ele>
        <time>2024-06-23T10:30:53Z</time>
      </trkpt>
      <trkpt lat="43.0712" lon="1.3563">
        <ele>314.8</ele>
        <time>2024-06-23T10:30:54Z</time>
      </trkpt>
      <trkpt lat="43.07117" lon="1.35625">
        <ele>314.8</ele>
        <time>2024-06-23T10:30:55Z</time>
      </trkpt>
      <trkpt lat="43.07115" lon="1.3562">
        <ele>314.8</ele>
        <time>2024-06-23T10:30:56Z</time>
      </trkpt>
      <trkpt lat="43.07113" lon="1.35616">
        <ele>314.8</ele>
        <time>2024-06-23T10:30:57Z</time>
      </trkpt>
      <trkpt lat="43.07111" lon="1.35612">
        <ele>314.8</ele>
        <time>2024-06-23T10:30:58Z</time>
      </trkpt>
      <trkpt lat="43.07109" lon="1.35608">
        <ele>315.2</ele>
        <time>2024-06-23T10:30:59Z</time>
      </trkpt>
      <trkpt lat="43.0711" lon="1.35604">
        <ele>315.2</ele>
        <time>2024-06-23T10:31:00Z</time>
      </trkpt>
      <trkpt lat="43.0711" lon="1.35601">
        <ele>315.2</ele>
        <time>2024-06-23T10:31:01Z</time>
      </trkpt>
      <trkpt lat="43.07109" lon="1.35598">
        <ele>315.4</ele>
        <time>2024-06-23T10:31:02Z</time>
      </trkpt>
      <trkpt lat="43.07107" lon="1.35602">
        <ele>315.4</ele>
        <time>2024-06-23T10:31:03Z</time>
      </trkpt>
      <trkpt lat="43.0711" lon="1.35605">
        <ele>315.4</ele>
        <time>2024-06-23T10:31:04Z</time>
      </trkpt>
      <trkpt lat="43.0711" lon="1.35608">
        <ele>315.4</ele>
        <time>2024-06-23T10:31:05Z</time>
      </trkpt>
      <trkpt lat="43.0711" lon="1.35613">
        <ele>315.4</ele>
        <time>2024-06-23T10:31:06Z</time>
      </trkpt>
      <trkpt lat="43.0711" lon="1.35618">
        <ele>315.4</ele>
        <time>2024-06-23T10:31:07Z</time>
      </trkpt>
      <trkpt lat="43.07113" lon="1.35624">
        <ele>315.4</ele>
        <time>2024-06-23T10:31:08Z</time>
      </trkpt>
      <trkpt lat="43.07115" lon="1.3563">
        <ele>315.4</ele>
        <time>2024-06-23T10:31:09Z</time>
      </trkpt>
      <trkpt lat="43.07118" lon="1.35635">
        <ele>315.4</ele>
        <time>2024-06-23T10:31:10Z</time>
      </trkpt>
      <trkpt lat="43.07123" lon="1.3564">
        <ele>315.4</ele>
        <time>2024-06-23T10:31:11Z</time>
      </trkpt>
      <trkpt lat="43.07127" lon="1.35641">
        <ele>315.4</ele>
        <time>2024-06-23T10:31:12Z</time>
      </trkpt>
      <trkpt lat="43.07133" lon="1.35642">
        <ele>315.4</ele>
        <time>2024-06-23T10:31:13Z</time>
      </trkpt>
      <trkpt lat="43.07139" lon="1.35644">
        <ele>315.4</ele>
        <time>2024-06-23T10:31:14Z</time>
      </trkpt>
      <trkpt lat="43.07141" lon="1.35645">
        <ele>315.4</ele>
        <time>2024-06-23T10:31:15Z</time>
      </trkpt>
      <trkpt lat="43.07145" lon="1.35649">
        <ele>315.2</ele>
        <time>2024-06-23T10:31:16Z</time>
      </trkpt>
      <trkpt lat="43.07149" lon="1.35651">
        <ele>315.2</ele>
        <time>2024-06-23T10:31:17Z</time>
      </trkpt>
      <trkpt lat="43.07155" lon="1.35652">
        <ele>315</ele>
        <time>2024-06-23T10:31:18Z</time>
      </trkpt>
      <trkpt lat="43.07158" lon="1.35653">
        <ele>315</ele>
        <time>2024-06-23T10:31:19Z</time>
      </trkpt>
      <trkpt lat="43.07161" lon="1.35654">
        <ele>314.8</ele>
        <time>2024-06-23T10:31:20Z</time>
      </trkpt>
      <trkpt lat="43.07165" lon="1.35655">
        <ele>314.8</ele>
        <time>2024-06-23T10:31:21Z</time>
      </trkpt>
      <trkpt lat="43.07166" lon="1.35654">
        <ele>314.6</ele>
        <time>2024-06-23T10:31:22Z</time>
      </trkpt>
      <trkpt lat="43.07167" lon="1.35654">
        <ele>314.6</ele>
        <time>2024-06-23T10:31:23Z</time>
      </trkpt>
      <trkpt lat="43.07169" lon="1.35655">
        <ele>314.4</ele>
        <time>2024-06-23T10:31:24Z</time>
      </trkpt>
      <trkpt lat="43.07169" lon="1.35655">
        <ele>314.4</ele>
        <time>2024-06-23T10:31:25Z</time>
      </trkpt>
      <trkpt lat="43.07169" lon="1.35655">
        <ele>314.4</ele>
        <time>2024-06-23T10:31:26Z</time>
      </trkpt>
      <trkpt lat="43.07169" lon="1.35655">
        <ele>314.4</ele>
        <time>2024-06-23T10:31:27Z</time>
      </trkpt>
      <trkpt lat="43.0717" lon="1.35652">
        <ele>314.2</ele>
        <time>2024-06-23T10:31:31Z</time>
      </trkpt>
      <trkpt lat="43.07168" lon="1.35649">
        <ele>314.2</ele>
        <time>2024-06-23T10:31:32Z</time>
      </trkpt>
      <trkpt lat="43.07167" lon="1.35648">
        <ele>314.2</ele>
        <time>2024-06-23T10:31:33Z</time>
      </trkpt>
      <trkpt lat="43.07167" lon="1.35648">
        <ele>314.2</ele>
        <time>2024-06-23T10:31:34Z</time>
      </trkpt>
      <trkpt lat="43.07167" lon="1.35649">
        <ele>314.2</ele>
        <time>2024-06-23T10:31:35Z</time>
      </trkpt>
      <trkpt lat="43.07167" lon="1.35649">
        <ele>314</ele>
        <time>2024-06-23T10:31:36Z</time>
      </trkpt>
      <trkpt lat="43.07167" lon="1.35648">
        <ele>314</ele>
        <time>2024-06-23T10:31:41Z</time>
      </trkpt>
      <trkpt lat="43.07167" lon="1.35648">
        <ele>314</ele>
        <time>2024-06-23T10:31:42Z</time>
      </trkpt>
      <trkpt lat="43.07166" lon="1.35647">
        <ele>314</ele>
        <time>2024-06-23T10:31:43Z</time>
      </trkpt>
      <trkpt lat="43.07165" lon="1.35647">
        <ele>314</ele>
        <time>2024-06-23T10:31:44Z</time>
      </trkpt>
      <trkpt lat="43.07165" lon="1.35647">
        <ele>314</ele>
        <time>2024-06-23T10:31:45Z</time>
      </trkpt>
      <trkpt lat="43.07165" lon="1.35647">
        <ele>314</ele>
        <time>2024-06-23T10:31:46Z</time>
      </trkpt>
      <trkpt lat="43.07164" lon="1.35646">
        <ele>313.8</ele>
        <time>2024-06-23T10:31:47Z</time>
      </trkpt>
      <trkpt lat="43.07165" lon="1.35645">
        <ele>313.8</ele>
        <time>2024-06-23T10:31:48Z</time>
      </trkpt>
      <trkpt lat="43.07165" lon="1.35643">
        <ele>313.6</ele>
        <time>2024-06-23T10:31:49Z</time>
      </trkpt>
      <trkpt lat="43.07165" lon="1.35642">
        <ele>313.2</ele>
        <time>2024-06-23T10:31:50Z</time>
      </trkpt>
      <trkpt lat="43.07164" lon="1.3564">
        <ele>312.8</ele>
        <time>2024-06-23T10:31:51Z</time>
      </trkpt>
      <trkpt lat="43.07163" lon="1.35639">
        <ele>312.8</ele>
        <time>2024-06-23T10:31:52Z</time>
      </trkpt>
      <trkpt lat="43.07162" lon="1.35639">
        <ele>312.6</ele>
        <time>2024-06-23T10:31:53Z</time>
      </trkpt>
      <trkpt lat="43.0716" lon="1.35638">
        <ele>312.2</ele>
        <time>2024-06-23T10:31:54Z</time>
      </trkpt>
      <trkpt lat="43.07159" lon="1.35638">
        <ele>312.2</ele>
        <time>2024-06-23T10:31:55Z</time>
      </trkpt>
      <trkpt lat="43.07158" lon="1.35638">
        <ele>312.2</ele>
        <time>2024-06-23T10:31:56Z</time>
      </trkpt>
      <trkpt lat="43.07158" lon="1.35638">
        <ele>312.2</ele>
        <time>2024-06-23T10:31:57Z</time>
      </trkpt>
      <trkpt lat="43.07158" lon="1.35638">
        <ele>312.2</ele>
        <time>2024-06-23T10:31:58Z</time>
      </trkpt>
      <trkpt lat="43.07158" lon="1.35638">
        <ele>312.2</ele>
        <time>2024-06-23T10:31:59Z</time>
      </trkpt>
      <trkpt lat="43.07153" lon="1.3563">
        <ele>314.2</ele>
        <time>2024-06-23T10:39:36Z</time>
      </trkpt>
      <trkpt lat="43.07153" lon="1.3563">
        <ele>314.2</ele>
        <time>2024-06-23T10:39:37Z</time>
      </trkpt>
      <trkpt lat="43.07153" lon="1.3563">
        <ele>314.2</ele>
        <time>2024-06-23T10:39:38Z</time>
      </trkpt>
      <trkpt lat="43.07151" lon="1.35631">
        <ele>314.2</ele>
        <time>2024-06-23T10:39:50Z</time>
      </trkpt>
      <trkpt lat="43.0715" lon="1.35632">
        <ele>314.2</ele>
        <time>2024-06-23T10:39:51Z</time>
      </trkpt>
      <trkpt lat="43.07147" lon="1.35632">
        <ele>314.2</ele>
        <time>2024-06-23T10:39:52Z</time>
      </trkpt>
      <trkpt lat="43.07144" lon="1.35633">
        <ele>314.2</ele>
        <time>2024-06-23T10:39:53Z</time>
      </trkpt>
      <trkpt lat="43.07141" lon="1.35633">
        <ele>314.2</ele>
        <time>2024-06-23T10:39:54Z</time>
      </trkpt>
      <trkpt lat="43.07139" lon="1.35633">
        <ele>314.2</ele>
        <time>2024-06-23T10:39:55Z</time>
      </trkpt>
      <trkpt lat="43.07137" lon="1.35633">
        <ele>314.2</ele>
        <time>2024-06-23T10:39:56Z</time>
      </trkpt>
      <trkpt lat="43.07134" lon="1.35632">
        <ele>314.2</ele>
        <time>2024-06-23T10:39:57Z</time>
      </trkpt>
      <trkpt lat="43.07131" lon="1.35631">
        <ele>314.2</ele>
        <time>2024-06-23T10:39:58Z</time>
      </trkpt>
      <trkpt lat="43.07129" lon="1.3563">
        <ele>314.2</ele>
        <time>2024-06-23T10:39:59Z</time>
      </trkpt>
      <trkpt lat="43.07127" lon="1.35628">
        <ele>314.4</ele>
        <time>2024-06-23T10:40:00Z</time>
      </trkpt>
      <trkpt lat="43.07125" lon="1.35625">
        <ele>314.2</ele>
        <time>2024-06-23T10:40:01Z</time>
      </trkpt>
      <trkpt lat="43.07122" lon="1.35622">
        <ele>314.6</ele>
        <time>2024-06-23T10:40:02Z</time>
      </trkpt>
      <trkpt lat="43.0712" lon="1.35618">
        <ele>314.6</ele>
        <time>2024-06-23T10:40:03Z</time>
      </trkpt>
      <trkpt lat="43.07118" lon="1.35614">
        <ele>314.6</ele>
        <time>2024-06-23T10:40:04Z</time>
      </trkpt>
      <trkpt lat="43.07117" lon="1.35611">
        <ele>314.6</ele>
        <time>2024-06-23T10:40:05Z</time>
      </trkpt>
      <trkpt lat="43.07116" lon="1.35607">
        <ele>314.2</ele>
        <time>2024-06-23T10:40:06Z</time>
      </trkpt>
      <trkpt lat="43.07116" lon="1.35602">
        <ele>314.2</ele>
        <time>2024-06-23T10:40:07Z</time>
      </trkpt>
      <trkpt lat="43.07115" lon="1.35597">
        <ele>314.4</ele>
        <time>2024-06-23T10:40:08Z</time>
      </trkpt>
      <trkpt lat="43.07114" lon="1.35592">
        <ele>314.4</ele>
        <time>2024-06-23T10:40:09Z</time>
      </trkpt>
      <trkpt lat="43.07113" lon="1.35588">
        <ele>314.4</ele>
        <time>2024-06-23T10:40:10Z</time>
      </trkpt>
      <trkpt lat="43.07112" lon="1.35584">
        <ele>314.4</ele>
        <time>2024-06-23T10:40:11Z</time>
      </trkpt>
      <trkpt lat="43.07111" lon="1.3558">
        <ele>314.4</ele>
        <time>2024-06-23T10:40:12Z</time>
      </trkpt>
      <trkpt lat="43.07111" lon="1.35576">
        <ele>314.4</ele>
        <time>2024-06-23T10:40:13Z</time>
      </trkpt>
      <trkpt lat="43.0711" lon="1.35572">
        <ele>314.4</ele>
        <time>2024-06-23T10:40:14Z</time>
      </trkpt>
      <trkpt lat="43.0711" lon="1.35568">
        <ele>314.4</ele>
        <time>2024-06-23T10:40:15Z</time>
      </trkpt>
      <trkpt lat="43.07109" lon="1.35563">
        <ele>314.4</ele>
        <time>2024-06-23T10:40:16Z</time>
      </trkpt>
      <trkpt lat="43.07109" lon="1.35559">
        <ele>314.4</ele>
        <time>2024-06-23T10:40:17Z</time>
      </trkpt>
      <trkpt lat="43.07108" lon="1.35555">
        <ele>314.4</ele>
        <time>2024-06-23T10:40:18Z</time>
      </trkpt>
      <trkpt lat="43.07107" lon="1.35551">
        <ele>314.4</ele>
        <time>2024-06-23T10:40:19Z</time>
      </trkpt>
      <trkpt lat="43.07107" lon="1.35547">
        <ele>314.4</ele>
        <time>2024-06-23T10:40:20Z</time>
      </trkpt>
      <trkpt lat="43.07106" lon="1.35543">
        <ele>314.4</ele>
        <time>2024-06-23T10:40:21Z</time>
      </trkpt>
      <trkpt lat="43.07106" lon="1.3554">
        <ele>314.8</ele>
        <time>2024-06-23T10:40:22Z</time>
      </trkpt>
      <trkpt lat="43.07106" lon="1.35538">
        <ele>314.8</ele>
        <time>2024-06-23T10:40:23Z</time>
      </trkpt>
      <trkpt lat="43.07105" lon="1.35537">
        <ele>314.8</ele>
        <time>2024-06-23T10:40:24Z</time>
      </trkpt>
      <trkpt lat="43.07104" lon="1.35537">
        <ele>314.8</ele>
        <time>2024-06-23T10:40:25Z</time>
      </trkpt>
      <trkpt lat="43.07104" lon="1.35537">
        <ele>314.8</ele>
        <time>2024-06-23T10:40:26Z</time>
      </trkpt>
      <trkpt lat="43.07104" lon="1.35538">
        <ele>314.8</ele>
        <time>2024-06-23T10:40:27Z</time>
      </trkpt>
      <trkpt lat="43.07102" lon="1.35538">
        <ele>314.8</ele>
        <time>2024-06-23T10:40:30Z</time>
      </trkpt>
      <trkpt lat="43.07102" lon="1.35538">
        <ele>314.8</ele>
        <time>2024-06-23T10:40:31Z</time>
      </trkpt>
      <trkpt lat="43.07103" lon="1.35538">
        <ele>315.4</ele>
        <time>2024-06-23T10:40:32Z</time>
      </trkpt>
      <trkpt lat="43.07102" lon="1.35537">
        <ele>315.6</ele>
        <time>2024-06-23T10:40:33Z</time>
      </trkpt>
      <trkpt lat="43.07102" lon="1.35537">
        <ele>315.8</ele>
        <time>2024-06-23T10:40:34Z</time>
      </trkpt>
      <trkpt lat="43.07102" lon="1.35537">
        <ele>316.2</ele>
        <time>2024-06-23T10:40:35Z</time>
      </trkpt>
      <trkpt lat="43.07102" lon="1.35536">
        <ele>316.4</ele>
        <time>2024-06-23T10:40:36Z</time>
      </trkpt>
      <trkpt lat="43.07102" lon="1.35536">
        <ele>316.4</ele>
        <time>2024-06-23T10:40:37Z</time>
      </trkpt>
      <trkpt lat="43.07102" lon="1.35535">
        <ele>316.8</ele>
        <time>2024-06-23T10:40:38Z</time>
      </trkpt>
      <trkpt lat="43.07102" lon="1.35534">
        <ele>316.8</ele>
        <time>2024-06-23T10:40:39Z</time>
      </trkpt>
      <trkpt lat="43.07102" lon="1.35533">
        <ele>317</ele>
        <time>2024-06-23T10:40:40Z</time>
      </trkpt>
      <trkpt lat="43.07102" lon="1.35532">
        <ele>317.4</ele>
        <time>2024-06-23T10:40:41Z</time>
      </trkpt>
      <trkpt lat="43.07102" lon="1.35532">
        <ele>317.6</ele>
        <time>2024-06-23T10:40:42Z</time>
      </trkpt>
      <trkpt lat="43.07102" lon="1.35531">
        <ele>317.8</ele>
        <time>2024-06-23T10:40:43Z</time>
      </trkpt>
      <trkpt lat="43.07102" lon="1.35531">
        <ele>318.2</ele>
        <time>2024-06-23T10:40:44Z</time>
      </trkpt>
      <trkpt lat="43.07102" lon="1.35531">
        <ele>318.4</ele>
        <time>2024-06-23T10:40:45Z</time>
      </trkpt>
      <trkpt lat="43.07102" lon="1.3553">
        <ele>318.6</ele>
        <time>2024-06-23T10:40:46Z</time>
      </trkpt>
      <trkpt lat="43.07102" lon="1.3553">
        <ele>318.6</ele>
        <time>2024-06-23T10:40:47Z</time>
      </trkpt>
      <trkpt lat="43.07102" lon="1.35529">
        <ele>318.6</ele>
        <time>2024-06-23T10:40:48Z</time>
      </trkpt>
      <trkpt lat="43.07102" lon="1.35528">
        <ele>319</ele>
        <time>2024-06-23T10:40:49Z</time>
      </trkpt>
      <trkpt lat="43.07102" lon="1.35528">
        <ele>319</ele>
        <time>2024-06-23T10:40:50Z</time>
      </trkpt>
      <trkpt lat="43.07102" lon="1.35528">
        <ele>319</ele>
        <time>2024-06-23T10:40:51Z</time>
      </trkpt>
      <trkpt lat="43.07097" lon="1.35522">
        <ele>320.2</ele>
        <time>2024-06-23T10:42:04Z</time>
      </trkpt>
      <trkpt lat="43.07097" lon="1.35521">
        <ele>320.2</ele>
        <time>2024-06-23T10:42:05Z</time>
      </trkpt>
      <trkpt lat="43.07097" lon="1.3552">
        <ele>320.2</ele>
        <time>2024-06-23T10:42:06Z</time>
      </trkpt>
      <trkpt lat="43.07098" lon="1.35519">
        <ele>320.2</ele>
        <time>2024-06-23T10:42:07Z</time>
      </trkpt>
      <trkpt lat="43.07097" lon="1.35517">
        <ele>320.2</ele>
        <time>2024-06-23T10:42:08Z</time>
      </trkpt>
      <trkpt lat="43.07097" lon="1.35516">
        <ele>320.2</ele>
        <time>2024-06-23T10:42:09Z</time>
      </trkpt>
      <trkpt lat="43.07097" lon="1.35514">
        <ele>320.2</ele>
        <time>2024-06-23T10:42:10Z</time>
      </trkpt>
      <trkpt lat="43.07096" lon="1.35512">
        <ele>320.2</ele>
        <time>2024-06-23T10:42:11Z</time>
      </trkpt>
      <trkpt lat="43.07095" lon="1.3551">
        <ele>320.2</ele>
        <time>2024-06-23T10:42:12Z</time>
      </trkpt>
      <trkpt lat="43.07093" lon="1.35508">
        <ele>320.2</ele>
        <time>2024-06-23T10:42:13Z</time>
      </trkpt>
      <trkpt lat="43.07092" lon="1.35507">
        <ele>320.2</ele>
        <time>2024-06-23T10:42:14Z</time>
      </trkpt>
      <trkpt lat="43.07091" lon="1.35504">
        <ele>320.2</ele>
        <time>2024-06-23T10:42:15Z</time>
      </trkpt>
      <trkpt lat="43.0709" lon="1.35502">
        <ele>319.8</ele>
        <time>2024-06-23T10:42:16Z</time>
      </trkpt>
      <trkpt lat="43.07089" lon="1.35499">
        <ele>319.6</ele>
        <time>2024-06-23T10:42:17Z</time>
      </trkpt>
      <trkpt lat="43.07089" lon="1.35498">
        <ele>319.6</ele>
        <time>2024-06-23T10:42:18Z</time>
      </trkpt>
      <trkpt lat="43.07089" lon="1.35496">
        <ele>319.6</ele>
        <time>2024-06-23T10:42:19Z</time>
      </trkpt>
      <trkpt lat="43.07089" lon="1.35496">
        <ele>319.6</ele>
        <time>2024-06-23T10:42:20Z</time>
      </trkpt>
      <trkpt lat="43.07089" lon="1.35498">
        <ele>319.6</ele>
        <time>2024-06-23T10:42:21Z</time>
      </trkpt>
      <trkpt lat="43.07089" lon="1.355">
        <ele>319.6</ele>
        <time>2024-06-23T10:42:22Z</time>
      </trkpt>
      <trkpt lat="43.07089" lon="1.35511">
        <ele>319.8</ele>
        <time>2024-06-23T10:42:45Z</time>
      </trkpt>
      <trkpt lat="43.07088" lon="1.35513">
        <ele>319.8</ele>
        <time>2024-06-23T10:42:46Z</time>
      </trkpt>
      <trkpt lat="43.07088" lon="1.35515">
        <ele>319.8</ele>
        <time>2024-06-23T10:42:47Z</time>
      </trkpt>
      <trkpt lat="43.07087" lon="1.35519">
        <ele>319.8</ele>
        <time>2024-06-23T10:42:48Z</time>
      </trkpt>
      <trkpt lat="43.07087" lon="1.35521">
        <ele>319.8</ele>
        <time>2024-06-23T10:42:49Z</time>
      </trkpt>
      <trkpt lat="43.07086" lon="1.35522">
        <ele>319.8</ele>
        <time>2024-06-23T10:42:50Z</time>
      </trkpt>
      <trkpt lat="43.07085" lon="1.35524">
        <ele>319.8</ele>
        <time>2024-06-23T10:42:51Z</time>
      </trkpt>
      <trkpt lat="43.07084" lon="1.35525">
        <ele>319.8</ele>
        <time>2024-06-23T10:42:52Z</time>
      </trkpt>
      <trkpt lat="43.07082" lon="1.35527">
        <ele>319.8</ele>
        <time>2024-06-23T10:42:53Z</time>
      </trkpt>
      <trkpt lat="43.07081" lon="1.35528">
        <ele>319.8</ele>
        <time>2024-06-23T10:42:54Z</time>
      </trkpt>
      <trkpt lat="43.07079" lon="1.35529">
        <ele>320</ele>
        <time>2024-06-23T10:42:55Z</time>
      </trkpt>
      <trkpt lat="43.07079" lon="1.3553">
        <ele>320</ele>
        <time>2024-06-23T10:42:56Z</time>
      </trkpt>
      <trkpt lat="43.07078" lon="1.35531">
        <ele>320</ele>
        <time>2024-06-23T10:42:57Z</time>
      </trkpt>
      <trkpt lat="43.07078" lon="1.35533">
        <ele>320</ele>
        <time>2024-06-23T10:42:58Z</time>
      </trkpt>
      <trkpt lat="43.07079" lon="1.35533">
        <ele>320</ele>
        <time>2024-06-23T10:42:59Z</time>
      </trkpt>
      <trkpt lat="43.07079" lon="1.35533">
        <ele>320</ele>
        <time>2024-06-23T10:43:00Z</time>
      </trkpt>
      <trkpt lat="43.06805" lon="1.35453">
        <ele>337.6</ele>
        <time>2024-06-23T10:44:20Z</time>
      </trkpt>
      <trkpt lat="43.06804" lon="1.35456">
        <ele>337.6</ele>
        <time>2024-06-23T10:44:21Z</time>
      </trkpt>
      <trkpt lat="43.06804" lon="1.35461">
        <ele>338</ele>
        <time>2024-06-23T10:44:22Z</time>
      </trkpt>
      <trkpt lat="43.06803" lon="1.35465">
        <ele>338.2</ele>
        <time>2024-06-23T10:44:23Z</time>
      </trkpt>
      <trkpt lat="43.06803" lon="1.3547">
        <ele>338.6</ele>
        <time>2024-06-23T10:44:24Z</time>
      </trkpt>
      <trkpt lat="43.06803" lon="1.35475">
        <ele>338.6</ele>
        <time>2024-06-23T10:44:25Z</time>
      </trkpt>
      <trkpt lat="43.06803" lon="1.3548">
        <ele>338.6</ele>
        <time>2024-06-23T10:44:26Z</time>
      </trkpt>
      <trkpt lat="43.06803" lon="1.35485">
        <ele>338.6</ele>
        <time>2024-06-23T10:44:27Z</time>
      </trkpt>
      <trkpt lat="43.06803" lon="1.35491">
        <ele>338.8</ele>
        <time>2024-06-23T10:44:28Z</time>
      </trkpt>
      <trkpt lat="43.06804" lon="1.35497">
        <ele>339</ele>
        <time>2024-06-23T10:44:29Z</time>
      </trkpt>
      <trkpt lat="43.06804" lon="1.35502">
        <ele>339</ele>
        <time>2024-06-23T10:44:30Z</time>
      </trkpt>
      <trkpt lat="43.06804" lon="1.35507">
        <ele>339.4</ele>
        <time>2024-06-23T10:44:31Z</time>
      </trkpt>
      <trkpt lat="43.06804" lon="1.35512">
        <ele>339.4</ele>
        <time>2024-06-23T10:44:32Z</time>
      </trkpt>
      <trkpt lat="43.06804" lon="1.35518">
        <ele>339</ele>
        <time>2024-06-23T10:44:33Z</time>
      </trkpt>
      <trkpt lat="43.06803" lon="1.35523">
        <ele>339</ele>
        <time>2024-06-23T10:44:34Z</time>
      </trkpt>
      <trkpt lat="43.06802" lon="1.35527">
        <ele>339</ele>
        <time>2024-06-23T10:44:35Z</time>
      </trkpt>
      <trkpt lat="43.068" lon="1.35532">
        <ele>339</ele>
        <time>2024-06-23T10:44:36Z</time>
      </trkpt>
      <trkpt lat="43.06798" lon="1.35537">
        <ele>339.2</ele>
        <time>2024-06-23T10:44:37Z</time>
      </trkpt>
      <trkpt lat="43.06795" lon="1.35542">
        <ele>339</ele>
        <time>2024-06-23T10:44:38Z</time>
      </trkpt>
      <trkpt lat="43.06792" lon="1.35546">
        <ele>339</ele>
        <time>2024-06-23T10:44:39Z</time>
      </trkpt>
      <trkpt lat="43.06789" lon="1.3555">
        <ele>338.8</ele>
        <time>2024-06-23T10:44:40Z</time>
      </trkpt>
      <trkpt lat="43.06783" lon="1.35553">
        <ele>338.8</ele>
        <time>2024-06-23T10:44:41Z</time>
      </trkpt>
      <trkpt lat="43.06779" lon="1.35556">
        <ele>338.8</ele>
        <time>2024-06-23T10:44:42Z</time>
      </trkpt>
      <trkpt lat="43.06775" lon="1.35559">
        <ele>338.6</ele>
        <time>2024-06-23T10:44:43Z</time>
      </trkpt>
      <trkpt lat="43.06771" lon="1.3556">
        <ele>338.6</ele>
        <time>2024-06-23T10:44:44Z</time>
      </trkpt>
      <trkpt lat="43.06766" lon="1.3556">
        <ele>338.2</ele>
        <time>2024-06-23T10:44:45Z</time>
      </trkpt>
      <trkpt lat="43.06761" lon="1.3556">
        <ele>338.2</ele>
        <time>2024-06-23T10:44:46Z</time>
      </trkpt>
      <trkpt lat="43.06756" lon="1.3556">
        <ele>338.2</ele>
        <time>2024-06-23T10:44:47Z</time>
      </trkpt>
      <trkpt lat="43.0675" lon="1.35559">
        <ele>338.2</ele>
        <time>2024-06-23T10:44:48Z</time>
      </trkpt>
      <trkpt lat="43.06745" lon="1.35557">
        <ele>338.2</ele>
        <time>2024-06-23T10:44:49Z</time>
      </trkpt>
      <trkpt lat="43.0674" lon="1.35555">
        <ele>338.2</ele>
        <time>2024-06-23T10:44:50Z</time>
      </trkpt>
      <trkpt lat="43.06735" lon="1.35553">
        <ele>338.2</ele>
        <time>2024-06-23T10:44:51Z</time>
      </trkpt>
      <trkpt lat="43.06729" lon="1.35551">
        <ele>338</ele>
        <time>2024-06-23T10:44:52Z</time>
      </trkpt>
      <trkpt lat="43.06724" lon="1.35549">
        <ele>338</ele>
        <time>2024-06-23T10:44:53Z</time>
      </trkpt>
      <trkpt lat="43.06719" lon="1.35546">
        <ele>338</ele>
        <time>2024-06-23T10:44:54Z</time>
      </trkpt>
      <trkpt lat="43.06714" lon="1.35543">
        <ele>338</ele>
        <time>2024-06-23T10:44:55Z</time>
      </trkpt>
      <trkpt lat="43.0671" lon="1.3554">
        <ele>338.2</ele>
        <time>2024-06-23T10:44:56Z</time>
      </trkpt>
      <trkpt lat="43.06707" lon="1.35537">
        <ele>338.2</ele>
        <time>2024-06-23T10:44:57Z</time>
      </trkpt>
      <trkpt lat="43.06703" lon="1.35534">
        <ele>338.2</ele>
        <time>2024-06-23T10:44:58Z</time>
      </trkpt>
      <trkpt lat="43.06699" lon="1.35531">
        <ele>338.2</ele>
        <time>2024-06-23T10:44:59Z</time>
      </trkpt>
      <trkpt lat="43.06695" lon="1.35528">
        <ele>338.2</ele>
        <time>2024-06-23T10:45:00Z</time>
      </trkpt>
      <trkpt lat="43.06692" lon="1.35524">
        <ele>338.2</ele>
        <time>2024-06-23T10:45:01Z</time>
      </trkpt>
      <trkpt lat="43.06688" lon="1.35518">
        <ele>338.2</ele>
        <time>2024-06-23T10:45:02Z</time>
      </trkpt>
      <trkpt lat="43.06684" lon="1.35514">
        <ele>338.2</ele>
        <time>2024-06-23T10:45:03Z</time>
      </trkpt>
      <trkpt lat="43.06682" lon="1.35508">
        <ele>338.2</ele>
        <time>2024-06-23T10:45:04Z</time>
      </trkpt>
      <trkpt lat="43.06679" lon="1.35504">
        <ele>338.2</ele>
        <time>2024-06-23T10:45:05Z</time>
      </trkpt>
      <trkpt lat="43.06676" lon="1.35499">
        <ele>338.2</ele>
        <time>2024-06-23T10:45:06Z</time>
      </trkpt>
      <trkpt lat="43.06673" lon="1.35493">
        <ele>338.2</ele>
        <time>2024-06-23T10:45:07Z</time>
      </trkpt>
      <trkpt lat="43.06671" lon="1.35488">
        <ele>338.2</ele>
        <time>2024-06-23T10:45:08Z</time>
      </trkpt>
      <trkpt lat="43.06668" lon="1.35483">
        <ele>338.8</ele>
        <time>2024-06-23T10:45:09Z</time>
      </trkpt>
      <trkpt lat="43.06665" lon="1.35478">
        <ele>338.8</ele>
        <time>2024-06-23T10:45:10Z</time>
      </trkpt>
      <trkpt lat="43.06663" lon="1.35473">
        <ele>338.8</ele>
        <time>2024-06-23T10:45:11Z</time>
      </trkpt>
      <trkpt lat="43.0666" lon="1.35469">
        <ele>338.8</ele>
        <time>2024-06-23T10:45:12Z</time>
      </trkpt>
      <trkpt lat="43.06657" lon="1.35464">
        <ele>338.8</ele>
        <time>2024-06-23T10:45:13Z</time>
      </trkpt>
      <trkpt lat="43.06655" lon="1.35459">
        <ele>339</ele>
        <time>2024-06-23T10:45:14Z</time>
      </trkpt>
      <trkpt lat="43.06653" lon="1.35454">
        <ele>339.2</ele>
        <time>2024-06-23T10:45:15Z</time>
      </trkpt>
      <trkpt lat="43.0665" lon="1.35448">
        <ele>339.2</ele>
        <time>2024-06-23T10:45:16Z</time>
      </trkpt>
      <trkpt lat="43.06647" lon="1.35443">
        <ele>339.2</ele>
        <time>2024-06-23T10:45:17Z</time>
      </trkpt>
      <trkpt lat="43.06643" lon="1.35437">
        <ele>339.2</ele>
        <time>2024-06-23T10:45:18Z</time>
      </trkpt>
      <trkpt lat="43.0664" lon="1.35432">
        <ele>339.4</ele>
        <time>2024-06-23T10:45:19Z</time>
      </trkpt>
      <trkpt lat="43.06637" lon="1.35425">
        <ele>339</ele>
        <time>2024-06-23T10:45:20Z</time>
      </trkpt>
      <trkpt lat="43.06634" lon="1.3542">
        <ele>338.8</ele>
        <time>2024-06-23T10:45:21Z</time>
      </trkpt>
      <trkpt lat="43.06631" lon="1.35414">
        <ele>338.8</ele>
        <time>2024-06-23T10:45:22Z</time>
      </trkpt>
      <trkpt lat="43.06628" lon="1.35408">
        <ele>338.8</ele>
        <time>2024-06-23T10:45:23Z</time>
      </trkpt>
      <trkpt lat="43.06625" lon="1.35403">
        <ele>338.8</ele>
        <time>2024-06-23T10:45:24Z</time>
      </trkpt>
      <trkpt lat="43.06621" lon="1.35397">
        <ele>338.8</ele>
        <time>2024-06-23T10:45:25Z</time>
      </trkpt>
      <trkpt lat="43.06618" lon="1.35391">
        <ele>338.8</ele>
        <time>2024-06-23T10:45:26Z</time>
      </trkpt>
      <trkpt lat="43.06615" lon="1.35385">
        <ele>338.6</ele>
        <time>2024-06-23T10:45:27Z</time>
      </trkpt>
      <trkpt lat="43.06612" lon="1.3538">
        <ele>338.6</ele>
        <time>2024-06-23T10:45:28Z</time>
      </trkpt>
      <trkpt lat="43.06609" lon="1.35374">
        <ele>338.6</ele>
        <time>2024-06-23T10:45:29Z</time>
      </trkpt>
      <trkpt lat="43.06606" lon="1.35368">
        <ele>338.6</ele>
        <time>2024-06-23T10:45:30Z</time>
      </trkpt>
      <trkpt lat="43.06603" lon="1.35362">
        <ele>338.4</ele>
        <time>2024-06-23T10:45:31Z</time>
      </trkpt>
      <trkpt lat="43.066" lon="1.35357">
        <ele>338.4</ele>
        <time>2024-06-23T10:45:32Z</time>
      </trkpt>
      <trkpt lat="43.06597" lon="1.3535">
        <ele>338.4</ele>
        <time>2024-06-23T10:45:33Z</time>
      </trkpt>
      <trkpt lat="43.06593" lon="1.35345">
        <ele>338.4</ele>
        <time>2024-06-23T10:45:34Z</time>
      </trkpt>
      <trkpt lat="43.0659" lon="1.35339">
        <ele>338</ele>
        <time>2024-06-23T10:45:35Z</time>
      </trkpt>
      <trkpt lat="43.06587" lon="1.35333">
        <ele>338</ele>
        <time>2024-06-23T10:45:36Z</time>
      </trkpt>
      <trkpt lat="43.06584" lon="1.35328">
        <ele>337.8</ele>
        <time>2024-06-23T10:45:37Z</time>
      </trkpt>
      <trkpt lat="43.0658" lon="1.35322">
        <ele>337.8</ele>
        <time>2024-06-23T10:45:38Z</time>
      </trkpt>
      <trkpt lat="43.06577" lon="1.35316">
        <ele>338.2</ele>
        <time>2024-06-23T10:45:39Z</time>
      </trkpt>
      <trkpt lat="43.06574" lon="1.3531">
        <ele>338</ele>
        <time>2024-06-23T10:45:40Z</time>
      </trkpt>
      <trkpt lat="43.0657" lon="1.35304">
        <ele>338</ele>
        <time>2024-06-23T10:45:41Z</time>
      </trkpt>
      <trkpt lat="43.06567" lon="1.35297">
        <ele>338</ele>
        <time>2024-06-23T10:45:42Z</time>
      </trkpt>
      <trkpt lat="43.06564" lon="1.35292">
        <ele>337.6</ele>
        <time>2024-06-23T10:45:43Z</time>
      </trkpt>
      <trkpt lat="43.0656" lon="1.35286">
        <ele>337.6</ele>
        <time>2024-06-23T10:45:44Z</time>
      </trkpt>
      <trkpt lat="43.06557" lon="1.3528">
        <ele>338</ele>
        <time>2024-06-23T10:45:45Z</time>
      </trkpt>
      <trkpt lat="43.06554" lon="1.35273">
        <ele>338</ele>
        <time>2024-06-23T10:45:46Z</time>
      </trkpt>
      <trkpt lat="43.0655" lon="1.35266">
        <ele>338</ele>
        <time>2024-06-23T10:45:47Z</time>
      </trkpt>
      <trkpt lat="43.06547" lon="1.3526">
        <ele>338</ele>
        <time>2024-06-23T10:45:48Z</time>
      </trkpt>
      <trkpt lat="43.06544" lon="1.35254">
        <ele>338</ele>
        <time>2024-06-23T10:45:49Z</time>
      </trkpt>
      <trkpt lat="43.06541" lon="1.35248">
        <ele>338</ele>
        <time>2024-06-23T10:45:50Z</time>
      </trkpt>
      <trkpt lat="43.06538" lon="1.35241">
        <ele>338</ele>
        <time>2024-06-23T10:45:51Z</time>
      </trkpt>
      <trkpt lat="43.06535" lon="1.35235">
        <ele>338</ele>
        <time>2024-06-23T10:45:52Z</time>
      </trkpt>
      <trkpt lat="43.06532" lon="1.35229">
        <ele>338</ele>
        <time>2024-06-23T10:45:53Z</time>
      </trkpt>
      <trkpt lat="43.06529" lon="1.35223">
        <ele>338</ele>
        <time>2024-06-23T10:45:54Z</time>
      </trkpt>
      <trkpt lat="43.06526" lon="1.35216">
        <ele>338</ele>
        <time>2024-06-23T10:45:55Z</time>
      </trkpt>
      <trkpt lat="43.06523" lon="1.3521">
        <ele>338</ele>
        <time>2024-06-23T10:45:56Z</time>
      </trkpt>
      <trkpt lat="43.0652" lon="1.35203">
        <ele>338</ele>
        <time>2024-06-23T10:45:57Z</time>
      </trkpt>
      <trkpt lat="43.06518" lon="1.35197">
        <ele>338</ele>
        <time>2024-06-23T10:45:58Z</time>
      </trkpt>
      <trkpt lat="43.06516" lon="1.3519">
        <ele>338</ele>
        <time>2024-06-23T10:45:59Z</time>
      </trkpt>
      <trkpt lat="43.06512" lon="1.35182">
        <ele>338</ele>
        <time>2024-06-23T10:46:00Z</time>
      </trkpt>
      <trkpt lat="43.0651" lon="1.35174">
        <ele>338.2</ele>
        <time>2024-06-23T10:46:01Z</time>
      </trkpt>
      <trkpt lat="43.06508" lon="1.35167">
        <ele>338.2</ele>
        <time>2024-06-23T10:46:02Z</time>
      </trkpt>
      <trkpt lat="43.06506" lon="1.35159">
        <ele>338.2</ele>
        <time>2024-06-23T10:46:03Z</time>
      </trkpt>
      <trkpt lat="43.06503" lon="1.35152">
        <ele>338.2</ele>
        <time>2024-06-23T10:46:04Z</time>
      </trkpt>
      <trkpt lat="43.06501" lon="1.35144">
        <ele>338.2</ele>
        <time>2024-06-23T10:46:05Z</time>
      </trkpt>
      <trkpt lat="43.06499" lon="1.35137">
        <ele>338.4</ele>
        <time>2024-06-23T10:46:06Z</time>
      </trkpt>
      <trkpt lat="43.06497" lon="1.35129">
        <ele>338.4</ele>
        <time>2024-06-23T10:46:07Z</time>
      </trkpt>
      <trkpt lat="43.06496" lon="1.35123">
        <ele>338.6</ele>
        <time>2024-06-23T10:46:08Z</time>
      </trkpt>
      <trkpt lat="43.06494" lon="1.35115">
        <ele>338.6</ele>
        <time>2024-06-23T10:46:09Z</time>
      </trkpt>
      <trkpt lat="43.06492" lon="1.35107">
        <ele>338.6</ele>
        <time>2024-06-23T10:46:10Z</time>
      </trkpt>
      <trkpt lat="43.06491" lon="1.351">
        <ele>339</ele>
        <time>2024-06-23T10:46:11Z</time>
      </trkpt>
      <trkpt lat="43.06487" lon="1.35093">
        <ele>339</ele>
        <time>2024-06-23T10:46:12Z</time>
      </trkpt>
      <trkpt lat="43.06485" lon="1.35086">
        <ele>339.2</ele>
        <time>2024-06-23T10:46:13Z</time>
      </trkpt>
      <trkpt lat="43.06483" lon="1.35079">
        <ele>339.2</ele>
        <time>2024-06-23T10:46:14Z</time>
      </trkpt>
      <trkpt lat="43.06481" lon="1.35073">
        <ele>339.4</ele>
        <time>2024-06-23T10:46:15Z</time>
      </trkpt>
      <trkpt lat="43.06479" lon="1.35066">
        <ele>339.4</ele>
        <time>2024-06-23T10:46:16Z</time>
      </trkpt>
      <trkpt lat="43.06478" lon="1.35059">
        <ele>339.4</ele>
        <time>2024-06-23T10:46:17Z</time>
      </trkpt>
      <trkpt lat="43.06476" lon="1.35051">
        <ele>339.8</ele>
        <time>2024-06-23T10:46:18Z</time>
      </trkpt>
      <trkpt lat="43.06474" lon="1.35045">
        <ele>340</ele>
        <time>2024-06-23T10:46:19Z</time>
      </trkpt>
      <trkpt lat="43.06472" lon="1.35038">
        <ele>340</ele>
        <time>2024-06-23T10:46:20Z</time>
      </trkpt>
      <trkpt lat="43.06469" lon="1.35031">
        <ele>340</ele>
        <time>2024-06-23T10:46:21Z</time>
      </trkpt>
      <trkpt lat="43.06469" lon="1.35026">
        <ele>340</ele>
        <time>2024-06-23T10:46:22Z</time>
      </trkpt>
      <trkpt lat="43.06466" lon="1.3502">
        <ele>340</ele>
        <time>2024-06-23T10:46:23Z</time>
      </trkpt>
      <trkpt lat="43.06464" lon="1.35013">
        <ele>340</ele>
        <time>2024-06-23T10:46:24Z</time>
      </trkpt>
      <trkpt lat="43.06461" lon="1.35006">
        <ele>340</ele>
        <time>2024-06-23T10:46:25Z</time>
      </trkpt>
      <trkpt lat="43.06459" lon="1.35">
        <ele>340</ele>
        <time>2024-06-23T10:46:26Z</time>
      </trkpt>
      <trkpt lat="43.06456" lon="1.34994">
        <ele>340.4</ele>
        <time>2024-06-23T10:46:27Z</time>
      </trkpt>
      <trkpt lat="43.06453" lon="1.34988">
        <ele>340.4</ele>
        <time>2024-06-23T10:46:28Z</time>
      </trkpt>
      <trkpt lat="43.0645" lon="1.3498">
        <ele>340.6</ele>
        <time>2024-06-23T10:46:29Z</time>
      </trkpt>
      <trkpt lat="43.06447" lon="1.34974">
        <ele>340.6</ele>
        <time>2024-06-23T10:46:30Z</time>
      </trkpt>
      <trkpt lat="43.06444" lon="1.34967">
        <ele>341.2</ele>
        <time>2024-06-23T10:46:31Z</time>
      </trkpt>
      <trkpt lat="43.06442" lon="1.34961">
        <ele>341.2</ele>
        <time>2024-06-23T10:46:32Z</time>
      </trkpt>
      <trkpt lat="43.06439" lon="1.34954">
        <ele>341</ele>
        <time>2024-06-23T10:46:33Z</time>
      </trkpt>
      <trkpt lat="43.06436" lon="1.34947">
        <ele>341</ele>
        <time>2024-06-23T10:46:34Z</time>
      </trkpt>
      <trkpt lat="43.06434" lon="1.34941">
        <ele>341.2</ele>
        <time>2024-06-23T10:46:35Z</time>
      </trkpt>
      <trkpt lat="43.0643" lon="1.34934">
        <ele>341.2</ele>
        <time>2024-06-23T10:46:36Z</time>
      </trkpt>
      <trkpt lat="43.06428" lon="1.34927">
        <ele>341.2</ele>
        <time>2024-06-23T10:46:37Z</time>
      </trkpt>
      <trkpt lat="43.06424" lon="1.34919">
        <ele>341.6</ele>
        <time>2024-06-23T10:46:38Z</time>
      </trkpt>
      <trkpt lat="43.06424" lon="1.34915">
        <ele>341.6</ele>
        <time>2024-06-23T10:46:39Z</time>
      </trkpt>
      <trkpt lat="43.06421" lon="1.34907">
        <ele>341.6</ele>
        <time>2024-06-23T10:46:40Z</time>
      </trkpt>
      <trkpt lat="43.06418" lon="1.349">
        <ele>341.6</ele>
        <time>2024-06-23T10:46:41Z</time>
      </trkpt>
      <trkpt lat="43.06416" lon="1.34893">
        <ele>341.6</ele>
        <time>2024-06-23T10:46:42Z</time>
      </trkpt>
      <trkpt lat="43.06413" lon="1.34887">
        <ele>341.2</ele>
        <time>2024-06-23T10:46:43Z</time>
      </trkpt>
      <trkpt lat="43.06411" lon="1.34881">
        <ele>341.2</ele>
        <time>2024-06-23T10:46:44Z</time>
      </trkpt>
      <trkpt lat="43.06408" lon="1.34874">
        <ele>341.2</ele>
        <time>2024-06-23T10:46:45Z</time>
      </trkpt>
      <trkpt lat="43.06406" lon="1.34867">
        <ele>341.6</ele>
        <time>2024-06-23T10:46:46Z</time>
      </trkpt>
      <trkpt lat="43.06403" lon="1.3486">
        <ele>341.6</ele>
        <time>2024-06-23T10:46:47Z</time>
      </trkpt>
      <trkpt lat="43.06399" lon="1.34854">
        <ele>341.6</ele>
        <time>2024-06-23T10:46:48Z</time>
      </trkpt>
      <trkpt lat="43.06397" lon="1.34847">
        <ele>341.6</ele>
        <time>2024-06-23T10:46:49Z</time>
      </trkpt>
      <trkpt lat="43.06394" lon="1.3484">
        <ele>341.8</ele>
        <time>2024-06-23T10:46:50Z</time>
      </trkpt>
      <trkpt lat="43.06391" lon="1.34833">
        <ele>341.8</ele>
        <time>2024-06-23T10:46:51Z</time>
      </trkpt>
      <trkpt lat="43.06388" lon="1.34827">
        <ele>341.6</ele>
        <time>2024-06-23T10:46:52Z</time>
      </trkpt>
      <trkpt lat="43.06386" lon="1.3482">
        <ele>341.6</ele>
        <time>2024-06-23T10:46:53Z</time>
      </trkpt>
      <trkpt lat="43.06384" lon="1.34813">
        <ele>341.2</ele>
        <time>2024-06-23T10:46:54Z</time>
      </trkpt>
      <trkpt lat="43.06382" lon="1.34807">
        <ele>341.2</ele>
        <time>2024-06-23T10:46:55Z</time>
      </trkpt>
      <trkpt lat="43.06378" lon="1.348">
        <ele>341.2</ele>
        <time>2024-06-23T10:46:56Z</time>
      </trkpt>
      <trkpt lat="43.06375" lon="1.34793">
        <ele>341.6</ele>
        <time>2024-06-23T10:46:57Z</time>
      </trkpt>
      <trkpt lat="43.06372" lon="1.34786">
        <ele>341.6</ele>
        <time>2024-06-23T10:46:58Z</time>
      </trkpt>
      <trkpt lat="43.06368" lon="1.3478">
        <ele>342.4</ele>
        <time>2024-06-23T10:46:59Z</time>
      </trkpt>
      <trkpt lat="43.06365" lon="1.34775">
        <ele>342.4</ele>
        <time>2024-06-23T10:47:00Z</time>
      </trkpt>
      <trkpt lat="43.06363" lon="1.3477">
        <ele>342.4</ele>
        <time>2024-06-23T10:47:01Z</time>
      </trkpt>
      <trkpt lat="43.06359" lon="1.34764">
        <ele>342.4</ele>
        <time>2024-06-23T10:47:02Z</time>
      </trkpt>
      <trkpt lat="43.06354" lon="1.34759">
        <ele>342.4</ele>
        <time>2024-06-23T10:47:03Z</time>
      </trkpt>
      <trkpt lat="43.0635" lon="1.34755">
        <ele>342</ele>
        <time>2024-06-23T10:47:04Z</time>
      </trkpt>
      <trkpt lat="43.06345" lon="1.34751">
        <ele>342</ele>
        <time>2024-06-23T10:47:05Z</time>
      </trkpt>
      <trkpt lat="43.0634" lon="1.34747">
        <ele>342</ele>
        <time>2024-06-23T10:47:06Z</time>
      </trkpt>
      <trkpt lat="43.06333" lon="1.34744">
        <ele>342</ele>
        <time>2024-06-23T10:47:07Z</time>
      </trkpt>
      <trkpt lat="43.06329" lon="1.3474">
        <ele>341.8</ele>
        <time>2024-06-23T10:47:08Z</time>
      </trkpt>
      <trkpt lat="43.06323" lon="1.34736">
        <ele>341.8</ele>
        <time>2024-06-23T10:47:09Z</time>
      </trkpt>
      <trkpt lat="43.06318" lon="1.34733">
        <ele>341.8</ele>
        <time>2024-06-23T10:47:10Z</time>
      </trkpt>
      <trkpt lat="43.06313" lon="1.34729">
        <ele>341.4</ele>
        <time>2024-06-23T10:47:11Z</time>
      </trkpt>
      <trkpt lat="43.06307" lon="1.34724">
        <ele>341.4</ele>
        <time>2024-06-23T10:47:12Z</time>
      </trkpt>
      <trkpt lat="43.06302" lon="1.34721">
        <ele>341.2</ele>
        <time>2024-06-23T10:47:13Z</time>
      </trkpt>
      <trkpt lat="43.06297" lon="1.34719">
        <ele>341.2</ele>
        <time>2024-06-23T10:47:14Z</time>
      </trkpt>
      <trkpt lat="43.06292" lon="1.34715">
        <ele>341.2</ele>
        <time>2024-06-23T10:47:15Z</time>
      </trkpt>
      <trkpt lat="43.06286" lon="1.34711">
        <ele>341.2</ele>
        <time>2024-06-23T10:47:16Z</time>
      </trkpt>
      <trkpt lat="43.06282" lon="1.34709">
        <ele>341</ele>
        <time>2024-06-23T10:47:17Z</time>
      </trkpt>
      <trkpt lat="43.06277" lon="1.34705">
        <ele>341</ele>
        <time>2024-06-23T10:47:18Z</time>
      </trkpt>
      <trkpt lat="43.06273" lon="1.34702">
        <ele>341</ele>
        <time>2024-06-23T10:47:19Z</time>
      </trkpt>
      <trkpt lat="43.06268" lon="1.34699">
        <ele>341.2</ele>
        <time>2024-06-23T10:47:20Z</time>
      </trkpt>
      <trkpt lat="43.06263" lon="1.34697">
        <ele>341.2</ele>
        <time>2024-06-23T10:47:21Z</time>
      </trkpt>
      <trkpt lat="43.06258" lon="1.34693">
        <ele>341.2</ele>
        <time>2024-06-23T10:47:22Z</time>
      </trkpt>
      <trkpt lat="43.06253" lon="1.3469">
        <ele>341.2</ele>
        <time>2024-06-23T10:47:23Z</time>
      </trkpt>
      <trkpt lat="43.06248" lon="1.34688">
        <ele>341.2</ele>
        <time>2024-06-23T10:47:24Z</time>
      </trkpt>
      <trkpt lat="43.06242" lon="1.34684">
        <ele>341.2</ele>
        <time>2024-06-23T10:47:25Z</time>
      </trkpt>
      <trkpt lat="43.06237" lon="1.34682">
        <ele>341.2</ele>
        <time>2024-06-23T10:47:26Z</time>
      </trkpt>
      <trkpt lat="43.06233" lon="1.34679">
        <ele>341</ele>
        <time>2024-06-23T10:47:27Z</time>
      </trkpt>
      <trkpt lat="43.06228" lon="1.34675">
        <ele>341</ele>
        <time>2024-06-23T10:47:28Z</time>
      </trkpt>
      <trkpt lat="43.06223" lon="1.34671">
        <ele>341</ele>
        <time>2024-06-23T10:47:29Z</time>
      </trkpt>
      <trkpt lat="43.06217" lon="1.34668">
        <ele>341.2</ele>
        <time>2024-06-23T10:47:30Z</time>
      </trkpt>
      <trkpt lat="43.06213" lon="1.34664">
        <ele>341.2</ele>
        <time>2024-06-23T10:47:31Z</time>
      </trkpt>
      <trkpt lat="43.06208" lon="1.34662">
        <ele>341.2</ele>
        <time>2024-06-23T10:47:32Z</time>
      </trkpt>
      <trkpt lat="43.06203" lon="1.34659">
        <ele>341.6</ele>
        <time>2024-06-23T10:47:33Z</time>
      </trkpt>
      <trkpt lat="43.06197" lon="1.34655">
        <ele>341.6</ele>
        <time>2024-06-23T10:47:34Z</time>
      </trkpt>
      <trkpt lat="43.06192" lon="1.34653">
        <ele>341.6</ele>
        <time>2024-06-23T10:47:35Z</time>
      </trkpt>
      <trkpt lat="43.06187" lon="1.3465">
        <ele>341.6</ele>
        <time>2024-06-23T10:47:36Z</time>
      </trkpt>
      <trkpt lat="43.06182" lon="1.34646">
        <ele>341.6</ele>
        <time>2024-06-23T10:47:37Z</time>
      </trkpt>
      <trkpt lat="43.06177" lon="1.34643">
        <ele>341.8</ele>
        <time>2024-06-23T10:47:38Z</time>
      </trkpt>
      <trkpt lat="43.06172" lon="1.34639">
        <ele>341.8</ele>
        <time>2024-06-23T10:47:39Z</time>
      </trkpt>
      <trkpt lat="43.06167" lon="1.34636">
        <ele>341.8</ele>
        <time>2024-06-23T10:47:40Z</time>
      </trkpt>
      <trkpt lat="43.06162" lon="1.34633">
        <ele>341.8</ele>
        <time>2024-06-23T10:47:41Z</time>
      </trkpt>
      <trkpt lat="43.06158" lon="1.3463">
        <ele>341.8</ele>
        <time>2024-06-23T10:47:42Z</time>
      </trkpt>
      <trkpt lat="43.06153" lon="1.34626">
        <ele>341.8</ele>
        <time>2024-06-23T10:47:43Z</time>
      </trkpt>
      <trkpt lat="43.06149" lon="1.34621">
        <ele>341.8</ele>
        <time>2024-06-23T10:47:44Z</time>
      </trkpt>
      <trkpt lat="43.06146" lon="1.34616">
        <ele>341.8</ele>
        <time>2024-06-23T10:47:45Z</time>
      </trkpt>
      <trkpt lat="43.06141" lon="1.3461">
        <ele>341.8</ele>
        <time>2024-06-23T10:47:46Z</time>
      </trkpt>
      <trkpt lat="43.06137" lon="1.34605">
        <ele>341.8</ele>
        <time>2024-06-23T10:47:47Z</time>
      </trkpt>
      <trkpt lat="43.06134" lon="1.34599">
        <ele>341.8</ele>
        <time>2024-06-23T10:47:48Z</time>
      </trkpt>
      <trkpt lat="43.06131" lon="1.34593">
        <ele>342</ele>
        <time>2024-06-23T10:47:49Z</time>
      </trkpt>
      <trkpt lat="43.06129" lon="1.34588">
        <ele>342</ele>
        <time>2024-06-23T10:47:50Z</time>
      </trkpt>
      <trkpt lat="43.06126" lon="1.34583">
        <ele>342.2</ele>
        <time>2024-06-23T10:47:51Z</time>
      </trkpt>
      <trkpt lat="43.06124" lon="1.34578">
        <ele>342.2</ele>
        <time>2024-06-23T10:47:52Z</time>
      </trkpt>
      <trkpt lat="43.06122" lon="1.34572">
        <ele>342.8</ele>
        <time>2024-06-23T10:47:53Z</time>
      </trkpt>
      <trkpt lat="43.0612" lon="1.34566">
        <ele>343</ele>
        <time>2024-06-23T10:47:54Z</time>
      </trkpt>
      <trkpt lat="43.06118" lon="1.3456">
        <ele>343.2</ele>
        <time>2024-06-23T10:47:55Z</time>
      </trkpt>
      <trkpt lat="43.06116" lon="1.34554">
        <ele>343.2</ele>
        <time>2024-06-23T10:47:56Z</time>
      </trkpt>
      <trkpt lat="43.06116" lon="1.34554">
        <ele>343.6</ele>
        <time>2024-06-23T10:47:57Z</time>
      </trkpt>
      <trkpt lat="43.06113" lon="1.34549">
        <ele>343.6</ele>
        <time>2024-06-23T10:47:58Z</time>
      </trkpt>
      <trkpt lat="43.06111" lon="1.34544">
        <ele>344</ele>
        <time>2024-06-23T10:47:59Z</time>
      </trkpt>
      <trkpt lat="43.0611" lon="1.34539">
        <ele>344.2</ele>
        <time>2024-06-23T10:48:00Z</time>
      </trkpt>
      <trkpt lat="43.06107" lon="1.34533">
        <ele>344.6</ele>
        <time>2024-06-23T10:48:01Z</time>
      </trkpt>
      <trkpt lat="43.06104" lon="1.34527">
        <ele>344.8</ele>
        <time>2024-06-23T10:48:02Z</time>
      </trkpt>
      <trkpt lat="43.061" lon="1.34522">
        <ele>345</ele>
        <time>2024-06-23T10:48:03Z</time>
      </trkpt>
      <trkpt lat="43.061" lon="1.34517">
        <ele>345.4</ele>
        <time>2024-06-23T10:48:04Z</time>
      </trkpt>
      <trkpt lat="43.06097" lon="1.34512">
        <ele>345.4</ele>
        <time>2024-06-23T10:48:05Z</time>
      </trkpt>
      <trkpt lat="43.06095" lon="1.34506">
        <ele>345.6</ele>
        <time>2024-06-23T10:48:06Z</time>
      </trkpt>
      <trkpt lat="43.06094" lon="1.34501">
        <ele>346</ele>
        <time>2024-06-23T10:48:07Z</time>
      </trkpt>
      <trkpt lat="43.06091" lon="1.34494">
        <ele>346</ele>
        <time>2024-06-23T10:48:08Z</time>
      </trkpt>
      <trkpt lat="43.0609" lon="1.34487">
        <ele>346</ele>
        <time>2024-06-23T10:48:09Z</time>
      </trkpt>
      <trkpt lat="43.06088" lon="1.3448">
        <ele>346</ele>
        <time>2024-06-23T10:48:10Z</time>
      </trkpt>
      <trkpt lat="43.06086" lon="1.34473">
        <ele>345.8</ele>
        <time>2024-06-23T10:48:11Z</time>
      </trkpt>
      <trkpt lat="43.06085" lon="1.34466">
        <ele>345.8</ele>
        <time>2024-06-23T10:48:12Z</time>
      </trkpt>
      <trkpt lat="43.06082" lon="1.34458">
        <ele>345.6</ele>
        <time>2024-06-23T10:48:13Z</time>
      </trkpt>
      <trkpt lat="43.0608" lon="1.34451">
        <ele>345.6</ele>
        <time>2024-06-23T10:48:14Z</time>
      </trkpt>
      <trkpt lat="43.06078" lon="1.34443">
        <ele>345.2</ele>
        <time>2024-06-23T10:48:15Z</time>
      </trkpt>
      <trkpt lat="43.06077" lon="1.34435">
        <ele>345.2</ele>
        <time>2024-06-23T10:48:16Z</time>
      </trkpt>
      <trkpt lat="43.06075" lon="1.34427">
        <ele>345</ele>
        <time>2024-06-23T10:48:17Z</time>
      </trkpt>
      <trkpt lat="43.06072" lon="1.3442">
        <ele>345</ele>
        <time>2024-06-23T10:48:18Z</time>
      </trkpt>
      <trkpt lat="43.0607" lon="1.34412">
        <ele>345</ele>
        <time>2024-06-23T10:48:19Z</time>
      </trkpt>
      <trkpt lat="43.06068" lon="1.34405">
        <ele>344.6</ele>
        <time>2024-06-23T10:48:20Z</time>
      </trkpt>
      <trkpt lat="43.06067" lon="1.34398">
        <ele>344.6</ele>
        <time>2024-06-23T10:48:21Z</time>
      </trkpt>
      <trkpt lat="43.06065" lon="1.3439">
        <ele>344.4</ele>
        <time>2024-06-23T10:48:22Z</time>
      </trkpt>
      <trkpt lat="43.06063" lon="1.34383">
        <ele>344.4</ele>
        <time>2024-06-23T10:48:23Z</time>
      </trkpt>
      <trkpt lat="43.06061" lon="1.34376">
        <ele>344.4</ele>
        <time>2024-06-23T10:48:24Z</time>
      </trkpt>
      <trkpt lat="43.06059" lon="1.34368">
        <ele>344.4</ele>
        <time>2024-06-23T10:48:25Z</time>
      </trkpt>
      <trkpt lat="43.06058" lon="1.34361">
        <ele>344.2</ele>
        <time>2024-06-23T10:48:26Z</time>
      </trkpt>
      <trkpt lat="43.06056" lon="1.34353">
        <ele>344.2</ele>
        <time>2024-06-23T10:48:27Z</time>
      </trkpt>
      <trkpt lat="43.06054" lon="1.34346">
        <ele>343.8</ele>
        <time>2024-06-23T10:48:28Z</time>
      </trkpt>
      <trkpt lat="43.06052" lon="1.34338">
        <ele>343.8</ele>
        <time>2024-06-23T10:48:29Z</time>
      </trkpt>
      <trkpt lat="43.0605" lon="1.3433">
        <ele>343.8</ele>
        <time>2024-06-23T10:48:30Z</time>
      </trkpt>
      <trkpt lat="43.06048" lon="1.34323">
        <ele>343.8</ele>
        <time>2024-06-23T10:48:31Z</time>
      </trkpt>
      <trkpt lat="43.06046" lon="1.34314">
        <ele>343.8</ele>
        <time>2024-06-23T10:48:32Z</time>
      </trkpt>
      <trkpt lat="43.06044" lon="1.34307">
        <ele>343.8</ele>
        <time>2024-06-23T10:48:33Z</time>
      </trkpt>
      <trkpt lat="43.06042" lon="1.34299">
        <ele>343.8</ele>
        <time>2024-06-23T10:48:34Z</time>
      </trkpt>
      <trkpt lat="43.0604" lon="1.34291">
        <ele>343.8</ele>
        <time>2024-06-23T10:48:35Z</time>
      </trkpt>
      <trkpt lat="43.06037" lon="1.34284">
        <ele>343.8</ele>
        <time>2024-06-23T10:48:36Z</time>
      </trkpt>
      <trkpt lat="43.06035" lon="1.34276">
        <ele>343.8</ele>
        <time>2024-06-23T10:48:37Z</time>
      </trkpt>
      <trkpt lat="43.06033" lon="1.34269">
        <ele>343.8</ele>
        <time>2024-06-23T10:48:38Z</time>
      </trkpt>
      <trkpt lat="43.06032" lon="1.34262">
        <ele>344</ele>
        <time>2024-06-23T10:48:39Z</time>
      </trkpt>
      <trkpt lat="43.0603" lon="1.34254">
        <ele>344</ele>
        <time>2024-06-23T10:48:40Z</time>
      </trkpt>
      <trkpt lat="43.06028" lon="1.34247">
        <ele>344</ele>
        <time>2024-06-23T10:48:41Z</time>
      </trkpt>
      <trkpt lat="43.06027" lon="1.34239">
        <ele>344</ele>
        <time>2024-06-23T10:48:42Z</time>
      </trkpt>
      <trkpt lat="43.06025" lon="1.34232">
        <ele>343.8</ele>
        <time>2024-06-23T10:48:43Z</time>
      </trkpt>
      <trkpt lat="43.06023" lon="1.34224">
        <ele>343.8</ele>
        <time>2024-06-23T10:48:44Z</time>
      </trkpt>
      <trkpt lat="43.06021" lon="1.34217">
        <ele>343.8</ele>
        <time>2024-06-23T10:48:45Z</time>
      </trkpt>
      <trkpt lat="43.0602" lon="1.34209">
        <ele>343.8</ele>
        <time>2024-06-23T10:48:46Z</time>
      </trkpt>
      <trkpt lat="43.06018" lon="1.34202">
        <ele>343.8</ele>
        <time>2024-06-23T10:48:47Z</time>
      </trkpt>
      <trkpt lat="43.06017" lon="1.34195">
        <ele>343.8</ele>
        <time>2024-06-23T10:48:48Z</time>
      </trkpt>
      <trkpt lat="43.06015" lon="1.34188">
        <ele>343.8</ele>
        <time>2024-06-23T10:48:49Z</time>
      </trkpt>
      <trkpt lat="43.06014" lon="1.34181">
        <ele>343.8</ele>
        <time>2024-06-23T10:48:50Z</time>
      </trkpt>
      <trkpt lat="43.06013" lon="1.34175">
        <ele>343.8</ele>
        <time>2024-06-23T10:48:51Z</time>
      </trkpt>
      <trkpt lat="43.06011" lon="1.34167">
        <ele>343.8</ele>
        <time>2024-06-23T10:48:52Z</time>
      </trkpt>
      <trkpt lat="43.06011" lon="1.3416">
        <ele>343.8</ele>
        <time>2024-06-23T10:48:53Z</time>
      </trkpt>
      <trkpt lat="43.06009" lon="1.34153">
        <ele>343.8</ele>
        <time>2024-06-23T10:48:54Z</time>
      </trkpt>
      <trkpt lat="43.06008" lon="1.34145">
        <ele>343.8</ele>
        <time>2024-06-23T10:48:55Z</time>
      </trkpt>
      <trkpt lat="43.06007" lon="1.34139">
        <ele>343.8</ele>
        <time>2024-06-23T10:48:56Z</time>
      </trkpt>
      <trkpt lat="43.06006" lon="1.34132">
        <ele>343.8</ele>
        <time>2024-06-23T10:48:57Z</time>
      </trkpt>
      <trkpt lat="43.06004" lon="1.34125">
        <ele>343.8</ele>
        <time>2024-06-23T10:48:58Z</time>
      </trkpt>
      <trkpt lat="43.06003" lon="1.34118">
        <ele>344</ele>
        <time>2024-06-23T10:48:59Z</time>
      </trkpt>
      <trkpt lat="43.06002" lon="1.34111">
        <ele>344</ele>
        <time>2024-06-23T10:49:00Z</time>
      </trkpt>
      <trkpt lat="43.06" lon="1.34104">
        <ele>344</ele>
        <time>2024-06-23T10:49:01Z</time>
      </trkpt>
      <trkpt lat="43.05999" lon="1.34097">
        <ele>344</ele>
        <time>2024-06-23T10:49:02Z</time>
      </trkpt>
      <trkpt lat="43.05998" lon="1.3409">
        <ele>343.6</ele>
        <time>2024-06-23T10:49:03Z</time>
      </trkpt>
      <trkpt lat="43.05997" lon="1.34083">
        <ele>343.8</ele>
        <time>2024-06-23T10:49:04Z</time>
      </trkpt>
      <trkpt lat="43.05995" lon="1.34075">
        <ele>343.8</ele>
        <time>2024-06-23T10:49:05Z</time>
      </trkpt>
      <trkpt lat="43.05994" lon="1.34068">
        <ele>343.8</ele>
        <time>2024-06-23T10:49:06Z</time>
      </trkpt>
      <trkpt lat="43.05993" lon="1.34061">
        <ele>343.8</ele>
        <time>2024-06-23T10:49:07Z</time>
      </trkpt>
      <trkpt lat="43.05991" lon="1.34054">
        <ele>343.8</ele>
        <time>2024-06-23T10:49:08Z</time>
      </trkpt>
      <trkpt lat="43.0599" lon="1.34047">
        <ele>344.2</ele>
        <time>2024-06-23T10:49:09Z</time>
      </trkpt>
      <trkpt lat="43.05989" lon="1.3404">
        <ele>344.2</ele>
        <time>2024-06-23T10:49:10Z</time>
      </trkpt>
      <trkpt lat="43.05988" lon="1.34033">
        <ele>344.2</ele>
        <time>2024-06-23T10:49:11Z</time>
      </trkpt>
      <trkpt lat="43.05987" lon="1.34027">
        <ele>344.2</ele>
        <time>2024-06-23T10:49:12Z</time>
      </trkpt>
      <trkpt lat="43.05986" lon="1.3402">
        <ele>344.2</ele>
        <time>2024-06-23T10:49:13Z</time>
      </trkpt>
      <trkpt lat="43.05985" lon="1.34013">
        <ele>344.2</ele>
        <time>2024-06-23T10:49:14Z</time>
      </trkpt>
      <trkpt lat="43.05983" lon="1.34006">
        <ele>344.2</ele>
        <time>2024-06-23T10:49:15Z</time>
      </trkpt>
      <trkpt lat="43.05982" lon="1.34">
        <ele>344.2</ele>
        <time>2024-06-23T10:49:16Z</time>
      </trkpt>
      <trkpt lat="43.05981" lon="1.33993">
        <ele>344.2</ele>
        <time>2024-06-23T10:49:17Z</time>
      </trkpt>
      <trkpt lat="43.0598" lon="1.33986">
        <ele>344.2</ele>
        <time>2024-06-23T10:49:18Z</time>
      </trkpt>
      <trkpt lat="43.05979" lon="1.33979">
        <ele>344.2</ele>
        <time>2024-06-23T10:49:19Z</time>
      </trkpt>
      <trkpt lat="43.05977" lon="1.33972">
        <ele>344.2</ele>
        <time>2024-06-23T10:49:20Z</time>
      </trkpt>
      <trkpt lat="43.05976" lon="1.33966">
        <ele>344.2</ele>
        <time>2024-06-23T10:49:21Z</time>
      </trkpt>
      <trkpt lat="43.05975" lon="1.33959">
        <ele>344.2</ele>
        <time>2024-06-23T10:49:22Z</time>
      </trkpt>
      <trkpt lat="43.05974" lon="1.33952">
        <ele>344.2</ele>
        <time>2024-06-23T10:49:23Z</time>
      </trkpt>
      <trkpt lat="43.05973" lon="1.33945">
        <ele>344.2</ele>
        <time>2024-06-23T10:49:24Z</time>
      </trkpt>
      <trkpt lat="43.05971" lon="1.33932">
        <ele>344.4</ele>
        <time>2024-06-23T10:49:25Z</time>
      </trkpt>
      <trkpt lat="43.0597" lon="1.33925">
        <ele>344.2</ele>
        <time>2024-06-23T10:49:26Z</time>
      </trkpt>
      <trkpt lat="43.05968" lon="1.33918">
        <ele>344.2</ele>
        <time>2024-06-23T10:49:27Z</time>
      </trkpt>
      <trkpt lat="43.05967" lon="1.33911">
        <ele>344.2</ele>
        <time>2024-06-23T10:49:28Z</time>
      </trkpt>
      <trkpt lat="43.05966" lon="1.33904">
        <ele>344.2</ele>
        <time>2024-06-23T10:49:29Z</time>
      </trkpt>
      <trkpt lat="43.05965" lon="1.33897">
        <ele>344.2</ele>
        <time>2024-06-23T10:49:30Z</time>
      </trkpt>
      <trkpt lat="43.05964" lon="1.3389">
        <ele>344.2</ele>
        <time>2024-06-23T10:49:31Z</time>
      </trkpt>
      <trkpt lat="43.05963" lon="1.33884">
        <ele>344.4</ele>
        <time>2024-06-23T10:49:32Z</time>
      </trkpt>
      <trkpt lat="43.05962" lon="1.33878">
        <ele>344.2</ele>
        <time>2024-06-23T10:49:33Z</time>
      </trkpt>
      <trkpt lat="43.05961" lon="1.33872">
        <ele>344.6</ele>
        <time>2024-06-23T10:49:34Z</time>
      </trkpt>
      <trkpt lat="43.05959" lon="1.33866">
        <ele>345.2</ele>
        <time>2024-06-23T10:49:35Z</time>
      </trkpt>
      <trkpt lat="43.05958" lon="1.3386">
        <ele>344.8</ele>
        <time>2024-06-23T10:49:36Z</time>
      </trkpt>
      <trkpt lat="43.05958" lon="1.33854">
        <ele>345.2</ele>
        <time>2024-06-23T10:49:37Z</time>
      </trkpt>
      <trkpt lat="43.05957" lon="1.33849">
        <ele>345.2</ele>
        <time>2024-06-23T10:49:38Z</time>
      </trkpt>
      <trkpt lat="43.05958" lon="1.33843">
        <ele>345.2</ele>
        <time>2024-06-23T10:49:39Z</time>
      </trkpt>
      <trkpt lat="43.05961" lon="1.33839">
        <ele>345.2</ele>
        <time>2024-06-23T10:49:40Z</time>
      </trkpt>
      <trkpt lat="43.05965" lon="1.33836">
        <ele>345.2</ele>
        <time>2024-06-23T10:49:41Z</time>
      </trkpt>
      <trkpt lat="43.05969" lon="1.33834">
        <ele>345.4</ele>
        <time>2024-06-23T10:49:42Z</time>
      </trkpt>
      <trkpt lat="43.05973" lon="1.33833">
        <ele>345.4</ele>
        <time>2024-06-23T10:49:43Z</time>
      </trkpt>
      <trkpt lat="43.05978" lon="1.33832">
        <ele>345.4</ele>
        <time>2024-06-23T10:49:44Z</time>
      </trkpt>
      <trkpt lat="43.05983" lon="1.3383">
        <ele>344.8</ele>
        <time>2024-06-23T10:49:45Z</time>
      </trkpt>
      <trkpt lat="43.05987" lon="1.3383">
        <ele>345.4</ele>
        <time>2024-06-23T10:49:46Z</time>
      </trkpt>
      <trkpt lat="43.05992" lon="1.33828">
        <ele>345.4</ele>
        <time>2024-06-23T10:49:47Z</time>
      </trkpt>
      <trkpt lat="43.05996" lon="1.33827">
        <ele>345.4</ele>
        <time>2024-06-23T10:49:48Z</time>
      </trkpt>
      <trkpt lat="43.06" lon="1.33826">
        <ele>345.4</ele>
        <time>2024-06-23T10:49:49Z</time>
      </trkpt>
      <trkpt lat="43.06005" lon="1.33826">
        <ele>345.4</ele>
        <time>2024-06-23T10:49:50Z</time>
      </trkpt>
      <trkpt lat="43.06009" lon="1.33825">
        <ele>345.8</ele>
        <time>2024-06-23T10:49:51Z</time>
      </trkpt>
      <trkpt lat="43.06013" lon="1.33824">
        <ele>345.8</ele>
        <time>2024-06-23T10:49:52Z</time>
      </trkpt>
      <trkpt lat="43.06017" lon="1.33823">
        <ele>346</ele>
        <time>2024-06-23T10:49:53Z</time>
      </trkpt>
      <trkpt lat="43.06021" lon="1.33822">
        <ele>346.4</ele>
        <time>2024-06-23T10:49:54Z</time>
      </trkpt>
      <trkpt lat="43.06025" lon="1.33821">
        <ele>346.8</ele>
        <time>2024-06-23T10:49:55Z</time>
      </trkpt>
      <trkpt lat="43.0603" lon="1.33822">
        <ele>346.8</ele>
        <time>2024-06-23T10:49:56Z</time>
      </trkpt>
      <trkpt lat="43.06034" lon="1.3382">
        <ele>346.8</ele>
        <time>2024-06-23T10:49:57Z</time>
      </trkpt>
      <trkpt lat="43.06038" lon="1.3382">
        <ele>346.8</ele>
        <time>2024-06-23T10:49:58Z</time>
      </trkpt>
      <trkpt lat="43.06043" lon="1.33818">
        <ele>346.8</ele>
        <time>2024-06-23T10:49:59Z</time>
      </trkpt>
      <trkpt lat="43.06048" lon="1.33817">
        <ele>346.8</ele>
        <time>2024-06-23T10:50:00Z</time>
      </trkpt>
      <trkpt lat="43.06053" lon="1.33816">
        <ele>347.2</ele>
        <time>2024-06-23T10:50:01Z</time>
      </trkpt>
      <trkpt lat="43.06057" lon="1.33815">
        <ele>347.4</ele>
        <time>2024-06-23T10:50:02Z</time>
      </trkpt>
      <trkpt lat="43.06062" lon="1.33815">
        <ele>347.4</ele>
        <time>2024-06-23T10:50:03Z</time>
      </trkpt>
      <trkpt lat="43.06067" lon="1.33815">
        <ele>347.4</ele>
        <time>2024-06-23T10:50:04Z</time>
      </trkpt>
      <trkpt lat="43.06072" lon="1.33816">
        <ele>347.6</ele>
        <time>2024-06-23T10:50:05Z</time>
      </trkpt>
      <trkpt lat="43.06077" lon="1.33817">
        <ele>347.6</ele>
        <time>2024-06-23T10:50:06Z</time>
      </trkpt>
      <trkpt lat="43.06082" lon="1.33819">
        <ele>347.6</ele>
        <time>2024-06-23T10:50:07Z</time>
      </trkpt>
      <trkpt lat="43.06087" lon="1.33822">
        <ele>347.6</ele>
        <time>2024-06-23T10:50:08Z</time>
      </trkpt>
      <trkpt lat="43.06091" lon="1.33824">
        <ele>347.6</ele>
        <time>2024-06-23T10:50:09Z</time>
      </trkpt>
      <trkpt lat="43.06095" lon="1.33828">
        <ele>348</ele>
        <time>2024-06-23T10:50:10Z</time>
      </trkpt>
      <trkpt lat="43.061" lon="1.33832">
        <ele>348</ele>
        <time>2024-06-23T10:50:11Z</time>
      </trkpt>
      <trkpt lat="43.06104" lon="1.33836">
        <ele>348</ele>
        <time>2024-06-23T10:50:12Z</time>
      </trkpt>
      <trkpt lat="43.06108" lon="1.3384">
        <ele>348.2</ele>
        <time>2024-06-23T10:50:13Z</time>
      </trkpt>
      <trkpt lat="43.06111" lon="1.33845">
        <ele>348.6</ele>
        <time>2024-06-23T10:50:14Z</time>
      </trkpt>
      <trkpt lat="43.06114" lon="1.3385">
        <ele>348.6</ele>
        <time>2024-06-23T10:50:15Z</time>
      </trkpt>
      <trkpt lat="43.06118" lon="1.33856">
        <ele>348.6</ele>
        <time>2024-06-23T10:50:16Z</time>
      </trkpt>
      <trkpt lat="43.0612" lon="1.33861">
        <ele>348.2</ele>
        <time>2024-06-23T10:50:17Z</time>
      </trkpt>
      <trkpt lat="43.06122" lon="1.33867">
        <ele>348.6</ele>
        <time>2024-06-23T10:50:18Z</time>
      </trkpt>
      <trkpt lat="43.06125" lon="1.33873">
        <ele>348.6</ele>
        <time>2024-06-23T10:50:19Z</time>
      </trkpt>
      <trkpt lat="43.06127" lon="1.33879">
        <ele>348.6</ele>
        <time>2024-06-23T10:50:20Z</time>
      </trkpt>
      <trkpt lat="43.06129" lon="1.33885">
        <ele>348.6</ele>
        <time>2024-06-23T10:50:21Z</time>
      </trkpt>
      <trkpt lat="43.06129" lon="1.33892">
        <ele>349</ele>
        <time>2024-06-23T10:50:22Z</time>
      </trkpt>
      <trkpt lat="43.06131" lon="1.33898">
        <ele>349.2</ele>
        <time>2024-06-23T10:50:23Z</time>
      </trkpt>
      <trkpt lat="43.06133" lon="1.33904">
        <ele>349.2</ele>
        <time>2024-06-23T10:50:24Z</time>
      </trkpt>
      <trkpt lat="43.06134" lon="1.33911">
        <ele>349.4</ele>
        <time>2024-06-23T10:50:25Z</time>
      </trkpt>
      <trkpt lat="43.06136" lon="1.33917">
        <ele>349.4</ele>
        <time>2024-06-23T10:50:26Z</time>
      </trkpt>
      <trkpt lat="43.06138" lon="1.33924">
        <ele>349.6</ele>
        <time>2024-06-23T10:50:27Z</time>
      </trkpt>
      <trkpt lat="43.0614" lon="1.33929">
        <ele>349.6</ele>
        <time>2024-06-23T10:50:28Z</time>
      </trkpt>
      <trkpt lat="43.06142" lon="1.33936">
        <ele>350.2</ele>
        <time>2024-06-23T10:50:29Z</time>
      </trkpt>
      <trkpt lat="43.06144" lon="1.33943">
        <ele>350.2</ele>
        <time>2024-06-23T10:50:30Z</time>
      </trkpt>
      <trkpt lat="43.06146" lon="1.33949">
        <ele>350.2</ele>
        <time>2024-06-23T10:50:31Z</time>
      </trkpt>
      <trkpt lat="43.06149" lon="1.33955">
        <ele>350.2</ele>
        <time>2024-06-23T10:50:32Z</time>
      </trkpt>
      <trkpt lat="43.06152" lon="1.3396">
        <ele>350.2</ele>
        <time>2024-06-23T10:50:33Z</time>
      </trkpt>
      <trkpt lat="43.06155" lon="1.33965">
        <ele>350.2</ele>
        <time>2024-06-23T10:50:34Z</time>
      </trkpt>
      <trkpt lat="43.06158" lon="1.33971">
        <ele>350.2</ele>
        <time>2024-06-23T10:50:35Z</time>
      </trkpt>
      <trkpt lat="43.06162" lon="1.33976">
        <ele>350.2</ele>
        <time>2024-06-23T10:50:36Z</time>
      </trkpt>
      <trkpt lat="43.06166" lon="1.3398">
        <ele>350.2</ele>
        <time>2024-06-23T10:50:37Z</time>
      </trkpt>
      <trkpt lat="43.06169" lon="1.33985">
        <ele>349.6</ele>
        <time>2024-06-23T10:50:38Z</time>
      </trkpt>
      <trkpt lat="43.06174" lon="1.33988">
        <ele>349.6</ele>
        <time>2024-06-23T10:50:39Z</time>
      </trkpt>
      <trkpt lat="43.06178" lon="1.33991">
        <ele>350</ele>
        <time>2024-06-23T10:50:40Z</time>
      </trkpt>
      <trkpt lat="43.06183" lon="1.33993">
        <ele>350</ele>
        <time>2024-06-23T10:50:41Z</time>
      </trkpt>
      <trkpt lat="43.06187" lon="1.33996">
        <ele>350.4</ele>
        <time>2024-06-23T10:50:42Z</time>
      </trkpt>
      <trkpt lat="43.06192" lon="1.33998">
        <ele>350.6</ele>
        <time>2024-06-23T10:50:43Z</time>
      </trkpt>
      <trkpt lat="43.06196" lon="1.33999">
        <ele>350.6</ele>
        <time>2024-06-23T10:50:44Z</time>
      </trkpt>
      <trkpt lat="43.06201" lon="1.34001">
        <ele>350.6</ele>
        <time>2024-06-23T10:50:45Z</time>
      </trkpt>
      <trkpt lat="43.06206" lon="1.34001">
        <ele>350.6</ele>
        <time>2024-06-23T10:50:46Z</time>
      </trkpt>
      <trkpt lat="43.06211" lon="1.34001">
        <ele>351</ele>
        <time>2024-06-23T10:50:47Z</time>
      </trkpt>
      <trkpt lat="43.06216" lon="1.34">
        <ele>351</ele>
        <time>2024-06-23T10:50:48Z</time>
      </trkpt>
      <trkpt lat="43.06221" lon="1.33998">
        <ele>350.8</ele>
        <time>2024-06-23T10:50:49Z</time>
      </trkpt>
      <trkpt lat="43.06226" lon="1.33997">
        <ele>350.8</ele>
        <time>2024-06-23T10:50:50Z</time>
      </trkpt>
      <trkpt lat="43.06231" lon="1.33995">
        <ele>350.8</ele>
        <time>2024-06-23T10:50:51Z</time>
      </trkpt>
      <trkpt lat="43.06236" lon="1.33993">
        <ele>350.8</ele>
        <time>2024-06-23T10:50:52Z</time>
      </trkpt>
      <trkpt lat="43.06241" lon="1.3399">
        <ele>350.8</ele>
        <time>2024-06-23T10:50:53Z</time>
      </trkpt>
      <trkpt lat="43.06245" lon="1.33987">
        <ele>350.8</ele>
        <time>2024-06-23T10:50:54Z</time>
      </trkpt>
      <trkpt lat="43.06249" lon="1.33983">
        <ele>350.8</ele>
        <time>2024-06-23T10:50:55Z</time>
      </trkpt>
      <trkpt lat="43.06253" lon="1.33979">
        <ele>350.4</ele>
        <time>2024-06-23T10:50:56Z</time>
      </trkpt>
      <trkpt lat="43.06257" lon="1.33975">
        <ele>350.6</ele>
        <time>2024-06-23T10:50:57Z</time>
      </trkpt>
      <trkpt lat="43.06261" lon="1.33971">
        <ele>350.6</ele>
        <time>2024-06-23T10:50:58Z</time>
      </trkpt>
      <trkpt lat="43.06264" lon="1.33966">
        <ele>350.6</ele>
        <time>2024-06-23T10:50:59Z</time>
      </trkpt>
      <trkpt lat="43.06268" lon="1.33962">
        <ele>351</ele>
        <time>2024-06-23T10:51:00Z</time>
      </trkpt>
      <trkpt lat="43.06272" lon="1.33957">
        <ele>351.2</ele>
        <time>2024-06-23T10:51:01Z</time>
      </trkpt>
      <trkpt lat="43.06276" lon="1.33953">
        <ele>351.2</ele>
        <time>2024-06-23T10:51:02Z</time>
      </trkpt>
      <trkpt lat="43.06279" lon="1.33948">
        <ele>351.2</ele>
        <time>2024-06-23T10:51:03Z</time>
      </trkpt>
      <trkpt lat="43.06283" lon="1.33944">
        <ele>351.2</ele>
        <time>2024-06-23T10:51:04Z</time>
      </trkpt>
      <trkpt lat="43.06287" lon="1.33939">
        <ele>351.2</ele>
        <time>2024-06-23T10:51:05Z</time>
      </trkpt>
      <trkpt lat="43.0629" lon="1.33934">
        <ele>351.2</ele>
        <time>2024-06-23T10:51:06Z</time>
      </trkpt>
      <trkpt lat="43.06294" lon="1.33929">
        <ele>351.2</ele>
        <time>2024-06-23T10:51:07Z</time>
      </trkpt>
      <trkpt lat="43.06297" lon="1.33924">
        <ele>351.4</ele>
        <time>2024-06-23T10:51:08Z</time>
      </trkpt>
      <trkpt lat="43.06301" lon="1.3392">
        <ele>351.4</ele>
        <time>2024-06-23T10:51:09Z</time>
      </trkpt>
      <trkpt lat="43.06305" lon="1.33915">
        <ele>351.8</ele>
        <time>2024-06-23T10:51:10Z</time>
      </trkpt>
      <trkpt lat="43.06308" lon="1.33911">
        <ele>352</ele>
        <time>2024-06-23T10:51:11Z</time>
      </trkpt>
      <trkpt lat="43.06312" lon="1.33906">
        <ele>352.4</ele>
        <time>2024-06-23T10:51:12Z</time>
      </trkpt>
      <trkpt lat="43.06316" lon="1.33901">
        <ele>352.4</ele>
        <time>2024-06-23T10:51:13Z</time>
      </trkpt>
      <trkpt lat="43.06319" lon="1.33897">
        <ele>352.4</ele>
        <time>2024-06-23T10:51:14Z</time>
      </trkpt>
      <trkpt lat="43.06323" lon="1.33892">
        <ele>352.2</ele>
        <time>2024-06-23T10:51:15Z</time>
      </trkpt>
      <trkpt lat="43.06326" lon="1.33887">
        <ele>352.2</ele>
        <time>2024-06-23T10:51:16Z</time>
      </trkpt>
      <trkpt lat="43.0633" lon="1.33883">
        <ele>352.2</ele>
        <time>2024-06-23T10:51:17Z</time>
      </trkpt>
      <trkpt lat="43.06333" lon="1.33878">
        <ele>352.2</ele>
        <time>2024-06-23T10:51:18Z</time>
      </trkpt>
      <trkpt lat="43.06337" lon="1.33873">
        <ele>352.2</ele>
        <time>2024-06-23T10:51:19Z</time>
      </trkpt>
      <trkpt lat="43.0634" lon="1.33868">
        <ele>352.2</ele>
        <time>2024-06-23T10:51:20Z</time>
      </trkpt>
      <trkpt lat="43.06343" lon="1.33864">
        <ele>352.2</ele>
        <time>2024-06-23T10:51:21Z</time>
      </trkpt>
      <trkpt lat="43.06347" lon="1.33859">
        <ele>352.2</ele>
        <time>2024-06-23T10:51:22Z</time>
      </trkpt>
      <trkpt lat="43.06351" lon="1.33855">
        <ele>352.2</ele>
        <time>2024-06-23T10:51:23Z</time>
      </trkpt>
      <trkpt lat="43.06355" lon="1.3385">
        <ele>352.2</ele>
        <time>2024-06-23T10:51:24Z</time>
      </trkpt>
      <trkpt lat="43.06359" lon="1.33846">
        <ele>352.2</ele>
        <time>2024-06-23T10:51:25Z</time>
      </trkpt>
      <trkpt lat="43.06363" lon="1.33841">
        <ele>352.2</ele>
        <time>2024-06-23T10:51:26Z</time>
      </trkpt>
      <trkpt lat="43.06366" lon="1.33836">
        <ele>352.2</ele>
        <time>2024-06-23T10:51:27Z</time>
      </trkpt>
      <trkpt lat="43.0637" lon="1.33831">
        <ele>352.4</ele>
        <time>2024-06-23T10:51:28Z</time>
      </trkpt>
      <trkpt lat="43.06374" lon="1.33826">
        <ele>352.4</ele>
        <time>2024-06-23T10:51:29Z</time>
      </trkpt>
      <trkpt lat="43.06378" lon="1.33821">
        <ele>352.4</ele>
        <time>2024-06-23T10:51:30Z</time>
      </trkpt>
      <trkpt lat="43.06382" lon="1.33817">
        <ele>352.4</ele>
        <time>2024-06-23T10:51:31Z</time>
      </trkpt>
      <trkpt lat="43.06386" lon="1.33812">
        <ele>352.4</ele>
        <time>2024-06-23T10:51:32Z</time>
      </trkpt>
      <trkpt lat="43.06389" lon="1.33807">
        <ele>352.4</ele>
        <time>2024-06-23T10:51:33Z</time>
      </trkpt>
      <trkpt lat="43.06393" lon="1.33802">
        <ele>352.4</ele>
        <time>2024-06-23T10:51:34Z</time>
      </trkpt>
      <trkpt lat="43.06397" lon="1.33798">
        <ele>352.4</ele>
        <time>2024-06-23T10:51:35Z</time>
      </trkpt>
      <trkpt lat="43.06401" lon="1.33792">
        <ele>352.4</ele>
        <time>2024-06-23T10:51:36Z</time>
      </trkpt>
      <trkpt lat="43.06404" lon="1.33788">
        <ele>352.6</ele>
        <time>2024-06-23T10:51:37Z</time>
      </trkpt>
      <trkpt lat="43.06408" lon="1.33783">
        <ele>352.6</ele>
        <time>2024-06-23T10:51:38Z</time>
      </trkpt>
      <trkpt lat="43.06411" lon="1.33778">
        <ele>352.6</ele>
        <time>2024-06-23T10:51:39Z</time>
      </trkpt>
      <trkpt lat="43.06415" lon="1.33773">
        <ele>352.6</ele>
        <time>2024-06-23T10:51:40Z</time>
      </trkpt>
      <trkpt lat="43.06419" lon="1.33768">
        <ele>352.6</ele>
        <time>2024-06-23T10:51:41Z</time>
      </trkpt>
      <trkpt lat="43.06422" lon="1.33763">
        <ele>352.6</ele>
        <time>2024-06-23T10:51:42Z</time>
      </trkpt>
      <trkpt lat="43.06426" lon="1.33758">
        <ele>352.6</ele>
        <time>2024-06-23T10:51:43Z</time>
      </trkpt>
      <trkpt lat="43.06429" lon="1.33753">
        <ele>352.6</ele>
        <time>2024-06-23T10:51:44Z</time>
      </trkpt>
      <trkpt lat="43.06429" lon="1.33753">
        <ele>352.6</ele>
        <time>2024-06-23T10:51:45Z</time>
      </trkpt>
      <trkpt lat="43.06433" lon="1.33748">
        <ele>352.6</ele>
        <time>2024-06-23T10:51:46Z</time>
      </trkpt>
      <trkpt lat="43.06437" lon="1.33744">
        <ele>352.6</ele>
        <time>2024-06-23T10:51:47Z</time>
      </trkpt>
      <trkpt lat="43.0644" lon="1.33739">
        <ele>352.6</ele>
        <time>2024-06-23T10:51:48Z</time>
      </trkpt>
      <trkpt lat="43.06444" lon="1.33734">
        <ele>352.8</ele>
        <time>2024-06-23T10:51:49Z</time>
      </trkpt>
      <trkpt lat="43.06448" lon="1.33729">
        <ele>352.8</ele>
        <time>2024-06-23T10:51:50Z</time>
      </trkpt>
      <trkpt lat="43.06451" lon="1.33725">
        <ele>352.8</ele>
        <time>2024-06-23T10:51:51Z</time>
      </trkpt>
      <trkpt lat="43.06455" lon="1.3372">
        <ele>352.8</ele>
        <time>2024-06-23T10:51:52Z</time>
      </trkpt>
      <trkpt lat="43.06458" lon="1.33715">
        <ele>352.8</ele>
        <time>2024-06-23T10:51:53Z</time>
      </trkpt>
      <trkpt lat="43.06462" lon="1.3371">
        <ele>352.8</ele>
        <time>2024-06-23T10:51:54Z</time>
      </trkpt>
      <trkpt lat="43.06466" lon="1.33705">
        <ele>353.2</ele>
        <time>2024-06-23T10:51:55Z</time>
      </trkpt>
      <trkpt lat="43.06469" lon="1.33701">
        <ele>353.2</ele>
        <time>2024-06-23T10:51:56Z</time>
      </trkpt>
      <trkpt lat="43.06473" lon="1.33696">
        <ele>353.2</ele>
        <time>2024-06-23T10:51:57Z</time>
      </trkpt>
      <trkpt lat="43.06476" lon="1.33691">
        <ele>353.4</ele>
        <time>2024-06-23T10:51:58Z</time>
      </trkpt>
      <trkpt lat="43.0648" lon="1.33686">
        <ele>353.4</ele>
        <time>2024-06-23T10:51:59Z</time>
      </trkpt>
      <trkpt lat="43.06483" lon="1.33681">
        <ele>353.8</ele>
        <time>2024-06-23T10:52:00Z</time>
      </trkpt>
      <trkpt lat="43.06487" lon="1.33677">
        <ele>353.8</ele>
        <time>2024-06-23T10:52:01Z</time>
      </trkpt>
      <trkpt lat="43.06491" lon="1.33672">
        <ele>353.8</ele>
        <time>2024-06-23T10:52:02Z</time>
      </trkpt>
      <trkpt lat="43.06494" lon="1.33668">
        <ele>353.8</ele>
        <time>2024-06-23T10:52:03Z</time>
      </trkpt>
      <trkpt lat="43.06498" lon="1.33663">
        <ele>354</ele>
        <time>2024-06-23T10:52:04Z</time>
      </trkpt>
      <trkpt lat="43.06502" lon="1.33659">
        <ele>354</ele>
        <time>2024-06-23T10:52:05Z</time>
      </trkpt>
      <trkpt lat="43.06506" lon="1.33654">
        <ele>354.2</ele>
        <time>2024-06-23T10:52:06Z</time>
      </trkpt>
      <trkpt lat="43.06509" lon="1.33649">
        <ele>354.2</ele>
        <time>2024-06-23T10:52:07Z</time>
      </trkpt>
      <trkpt lat="43.06513" lon="1.33645">
        <ele>354.2</ele>
        <time>2024-06-23T10:52:08Z</time>
      </trkpt>
      <trkpt lat="43.06517" lon="1.33639">
        <ele>354.2</ele>
        <time>2024-06-23T10:52:09Z</time>
      </trkpt>
      <trkpt lat="43.0652" lon="1.33634">
        <ele>354.2</ele>
        <time>2024-06-23T10:52:10Z</time>
      </trkpt>
      <trkpt lat="43.06524" lon="1.3363">
        <ele>354.2</ele>
        <time>2024-06-23T10:52:11Z</time>
      </trkpt>
      <trkpt lat="43.06527" lon="1.33625">
        <ele>354.2</ele>
        <time>2024-06-23T10:52:12Z</time>
      </trkpt>
      <trkpt lat="43.06531" lon="1.3362">
        <ele>354.6</ele>
        <time>2024-06-23T10:52:13Z</time>
      </trkpt>
      <trkpt lat="43.06534" lon="1.33616">
        <ele>354.6</ele>
        <time>2024-06-23T10:52:14Z</time>
      </trkpt>
      <trkpt lat="43.06538" lon="1.33611">
        <ele>354.6</ele>
        <time>2024-06-23T10:52:15Z</time>
      </trkpt>
      <trkpt lat="43.06541" lon="1.33606">
        <ele>354.6</ele>
        <time>2024-06-23T10:52:16Z</time>
      </trkpt>
      <trkpt lat="43.06544" lon="1.33602">
        <ele>354.6</ele>
        <time>2024-06-23T10:52:17Z</time>
      </trkpt>
      <trkpt lat="43.06548" lon="1.33597">
        <ele>354.6</ele>
        <time>2024-06-23T10:52:18Z</time>
      </trkpt>
      <trkpt lat="43.06552" lon="1.33593">
        <ele>355</ele>
        <time>2024-06-23T10:52:19Z</time>
      </trkpt>
      <trkpt lat="43.06555" lon="1.33588">
        <ele>355</ele>
        <time>2024-06-23T10:52:20Z</time>
      </trkpt>
      <trkpt lat="43.06558" lon="1.33583">
        <ele>355</ele>
        <time>2024-06-23T10:52:21Z</time>
      </trkpt>
      <trkpt lat="43.06562" lon="1.33579">
        <ele>355</ele>
        <time>2024-06-23T10:52:22Z</time>
      </trkpt>
      <trkpt lat="43.06565" lon="1.33574">
        <ele>355</ele>
        <time>2024-06-23T10:52:23Z</time>
      </trkpt>
      <trkpt lat="43.06569" lon="1.33569">
        <ele>355</ele>
        <time>2024-06-23T10:52:24Z</time>
      </trkpt>
      <trkpt lat="43.06573" lon="1.33565">
        <ele>355.2</ele>
        <time>2024-06-23T10:52:25Z</time>
      </trkpt>
      <trkpt lat="43.06576" lon="1.3356">
        <ele>355.2</ele>
        <time>2024-06-23T10:52:26Z</time>
      </trkpt>
      <trkpt lat="43.0658" lon="1.33555">
        <ele>355.2</ele>
        <time>2024-06-23T10:52:27Z</time>
      </trkpt>
      <trkpt lat="43.06584" lon="1.33551">
        <ele>355.4</ele>
        <time>2024-06-23T10:52:28Z</time>
      </trkpt>
      <trkpt lat="43.06588" lon="1.33546">
        <ele>355.4</ele>
        <time>2024-06-23T10:52:29Z</time>
      </trkpt>
      <trkpt lat="43.06591" lon="1.33541">
        <ele>355.4</ele>
        <time>2024-06-23T10:52:30Z</time>
      </trkpt>
      <trkpt lat="43.06594" lon="1.33536">
        <ele>355.4</ele>
        <time>2024-06-23T10:52:31Z</time>
      </trkpt>
      <trkpt lat="43.06597" lon="1.33531">
        <ele>355.4</ele>
        <time>2024-06-23T10:52:32Z</time>
      </trkpt>
      <trkpt lat="43.06601" lon="1.33526">
        <ele>355.4</ele>
        <time>2024-06-23T10:52:33Z</time>
      </trkpt>
      <trkpt lat="43.06605" lon="1.33521">
        <ele>355.6</ele>
        <time>2024-06-23T10:52:34Z</time>
      </trkpt>
      <trkpt lat="43.06608" lon="1.33516">
        <ele>355.6</ele>
        <time>2024-06-23T10:52:35Z</time>
      </trkpt>
      <trkpt lat="43.06612" lon="1.33512">
        <ele>355.6</ele>
        <time>2024-06-23T10:52:36Z</time>
      </trkpt>
      <trkpt lat="43.06616" lon="1.33507">
        <ele>355.6</ele>
        <time>2024-06-23T10:52:37Z</time>
      </trkpt>
      <trkpt lat="43.06619" lon="1.33502">
        <ele>355.6</ele>
        <time>2024-06-23T10:52:38Z</time>
      </trkpt>
      <trkpt lat="43.06623" lon="1.33498">
        <ele>355.6</ele>
        <time>2024-06-23T10:52:39Z</time>
      </trkpt>
      <trkpt lat="43.06626" lon="1.33493">
        <ele>355.8</ele>
        <time>2024-06-23T10:52:40Z</time>
      </trkpt>
      <trkpt lat="43.0663" lon="1.33489">
        <ele>356.2</ele>
        <time>2024-06-23T10:52:41Z</time>
      </trkpt>
      <trkpt lat="43.06633" lon="1.33484">
        <ele>356.2</ele>
        <time>2024-06-23T10:52:42Z</time>
      </trkpt>
      <trkpt lat="43.06636" lon="1.3348">
        <ele>356.2</ele>
        <time>2024-06-23T10:52:43Z</time>
      </trkpt>
      <trkpt lat="43.0664" lon="1.33475">
        <ele>356.4</ele>
        <time>2024-06-23T10:52:44Z</time>
      </trkpt>
      <trkpt lat="43.06643" lon="1.3347">
        <ele>356.4</ele>
        <time>2024-06-23T10:52:45Z</time>
      </trkpt>
      <trkpt lat="43.06647" lon="1.33465">
        <ele>356.4</ele>
        <time>2024-06-23T10:52:46Z</time>
      </trkpt>
      <trkpt lat="43.06651" lon="1.33461">
        <ele>356.8</ele>
        <time>2024-06-23T10:52:47Z</time>
      </trkpt>
      <trkpt lat="43.06655" lon="1.33456">
        <ele>356.8</ele>
        <time>2024-06-23T10:52:48Z</time>
      </trkpt>
      <trkpt lat="43.06658" lon="1.33452">
        <ele>357</ele>
        <time>2024-06-23T10:52:49Z</time>
      </trkpt>
      <trkpt lat="43.06662" lon="1.33447">
        <ele>357</ele>
        <time>2024-06-23T10:52:50Z</time>
      </trkpt>
      <trkpt lat="43.06666" lon="1.33442">
        <ele>357</ele>
        <time>2024-06-23T10:52:51Z</time>
      </trkpt>
      <trkpt lat="43.06669" lon="1.33438">
        <ele>357</ele>
        <time>2024-06-23T10:52:52Z</time>
      </trkpt>
      <trkpt lat="43.06672" lon="1.33433">
        <ele>357</ele>
        <time>2024-06-23T10:52:53Z</time>
      </trkpt>
      <trkpt lat="43.06676" lon="1.33429">
        <ele>357</ele>
        <time>2024-06-23T10:52:54Z</time>
      </trkpt>
      <trkpt lat="43.0668" lon="1.33424">
        <ele>357</ele>
        <time>2024-06-23T10:52:55Z</time>
      </trkpt>
      <trkpt lat="43.06683" lon="1.33419">
        <ele>357</ele>
        <time>2024-06-23T10:52:56Z</time>
      </trkpt>
      <trkpt lat="43.06687" lon="1.33414">
        <ele>357</ele>
        <time>2024-06-23T10:52:57Z</time>
      </trkpt>
      <trkpt lat="43.06691" lon="1.3341">
        <ele>357</ele>
        <time>2024-06-23T10:52:58Z</time>
      </trkpt>
      <trkpt lat="43.06696" lon="1.33402">
        <ele>357</ele>
        <time>2024-06-23T10:52:59Z</time>
      </trkpt>
      <trkpt lat="43.06699" lon="1.33398">
        <ele>357</ele>
        <time>2024-06-23T10:53:00Z</time>
      </trkpt>
      <trkpt lat="43.06704" lon="1.33391">
        <ele>357</ele>
        <time>2024-06-23T10:53:01Z</time>
      </trkpt>
      <trkpt lat="43.06708" lon="1.33386">
        <ele>357</ele>
        <time>2024-06-23T10:53:02Z</time>
      </trkpt>
      <trkpt lat="43.06711" lon="1.33381">
        <ele>357</ele>
        <time>2024-06-23T10:53:03Z</time>
      </trkpt>
      <trkpt lat="43.06714" lon="1.33376">
        <ele>357</ele>
        <time>2024-06-23T10:53:04Z</time>
      </trkpt>
      <trkpt lat="43.06718" lon="1.33372">
        <ele>357.2</ele>
        <time>2024-06-23T10:53:05Z</time>
      </trkpt>
      <trkpt lat="43.06722" lon="1.33367">
        <ele>356.6</ele>
        <time>2024-06-23T10:53:06Z</time>
      </trkpt>
      <trkpt lat="43.06725" lon="1.33363">
        <ele>356.8</ele>
        <time>2024-06-23T10:53:07Z</time>
      </trkpt>
      <trkpt lat="43.06729" lon="1.33358">
        <ele>356.8</ele>
        <time>2024-06-23T10:53:08Z</time>
      </trkpt>
      <trkpt lat="43.06732" lon="1.33353">
        <ele>357</ele>
        <time>2024-06-23T10:53:09Z</time>
      </trkpt>
      <trkpt lat="43.06736" lon="1.33349">
        <ele>357</ele>
        <time>2024-06-23T10:53:10Z</time>
      </trkpt>
      <trkpt lat="43.06739" lon="1.33344">
        <ele>357.2</ele>
        <time>2024-06-23T10:53:11Z</time>
      </trkpt>
      <trkpt lat="43.06743" lon="1.33339">
        <ele>357.2</ele>
        <time>2024-06-23T10:53:12Z</time>
      </trkpt>
      <trkpt lat="43.06747" lon="1.33334">
        <ele>357.2</ele>
        <time>2024-06-23T10:53:13Z</time>
      </trkpt>
      <trkpt lat="43.0675" lon="1.33329">
        <ele>357.2</ele>
        <time>2024-06-23T10:53:14Z</time>
      </trkpt>
      <trkpt lat="43.06753" lon="1.33324">
        <ele>357.6</ele>
        <time>2024-06-23T10:53:15Z</time>
      </trkpt>
      <trkpt lat="43.06757" lon="1.33319">
        <ele>357.6</ele>
        <time>2024-06-23T10:53:16Z</time>
      </trkpt>
      <trkpt lat="43.06761" lon="1.33314">
        <ele>357.6</ele>
        <time>2024-06-23T10:53:17Z</time>
      </trkpt>
      <trkpt lat="43.06764" lon="1.33309">
        <ele>357.8</ele>
        <time>2024-06-23T10:53:18Z</time>
      </trkpt>
      <trkpt lat="43.06768" lon="1.33304">
        <ele>357.8</ele>
        <time>2024-06-23T10:53:19Z</time>
      </trkpt>
      <trkpt lat="43.06772" lon="1.333">
        <ele>357.8</ele>
        <time>2024-06-23T10:53:20Z</time>
      </trkpt>
      <trkpt lat="43.06775" lon="1.33294">
        <ele>357.8</ele>
        <time>2024-06-23T10:53:21Z</time>
      </trkpt>
      <trkpt lat="43.06779" lon="1.3329">
        <ele>357.8</ele>
        <time>2024-06-23T10:53:22Z</time>
      </trkpt>
      <trkpt lat="43.06783" lon="1.33284">
        <ele>358.2</ele>
        <time>2024-06-23T10:53:23Z</time>
      </trkpt>
      <trkpt lat="43.06786" lon="1.3328">
        <ele>358.2</ele>
        <time>2024-06-23T10:53:24Z</time>
      </trkpt>
      <trkpt lat="43.0679" lon="1.33275">
        <ele>358.2</ele>
        <time>2024-06-23T10:53:25Z</time>
      </trkpt>
      <trkpt lat="43.06793" lon="1.3327">
        <ele>358.2</ele>
        <time>2024-06-23T10:53:26Z</time>
      </trkpt>
      <trkpt lat="43.06797" lon="1.33266">
        <ele>358.2</ele>
        <time>2024-06-23T10:53:27Z</time>
      </trkpt>
      <trkpt lat="43.068" lon="1.33261">
        <ele>358.2</ele>
        <time>2024-06-23T10:53:28Z</time>
      </trkpt>
      <trkpt lat="43.06804" lon="1.33256">
        <ele>358.2</ele>
        <time>2024-06-23T10:53:29Z</time>
      </trkpt>
      <trkpt lat="43.06807" lon="1.33252">
        <ele>358.2</ele>
        <time>2024-06-23T10:53:30Z</time>
      </trkpt>
      <trkpt lat="43.06811" lon="1.33248">
        <ele>358.4</ele>
        <time>2024-06-23T10:53:31Z</time>
      </trkpt>
      <trkpt lat="43.06814" lon="1.33243">
        <ele>358.4</ele>
        <time>2024-06-23T10:53:32Z</time>
      </trkpt>
      <trkpt lat="43.06818" lon="1.33238">
        <ele>358.4</ele>
        <time>2024-06-23T10:53:33Z</time>
      </trkpt>
      <trkpt lat="43.06821" lon="1.33233">
        <ele>358.4</ele>
        <time>2024-06-23T10:53:34Z</time>
      </trkpt>
      <trkpt lat="43.06825" lon="1.33229">
        <ele>358.4</ele>
        <time>2024-06-23T10:53:35Z</time>
      </trkpt>
      <trkpt lat="43.06828" lon="1.33224">
        <ele>358.6</ele>
        <time>2024-06-23T10:53:36Z</time>
      </trkpt>
      <trkpt lat="43.06832" lon="1.33219">
        <ele>358.6</ele>
        <time>2024-06-23T10:53:37Z</time>
      </trkpt>
      <trkpt lat="43.06835" lon="1.33215">
        <ele>358.6</ele>
        <time>2024-06-23T10:53:38Z</time>
      </trkpt>
      <trkpt lat="43.06839" lon="1.3321">
        <ele>358.6</ele>
        <time>2024-06-23T10:53:39Z</time>
      </trkpt>
      <trkpt lat="43.06842" lon="1.33205">
        <ele>359</ele>
        <time>2024-06-23T10:53:40Z</time>
      </trkpt>
      <trkpt lat="43.06846" lon="1.33201">
        <ele>359.2</ele>
        <time>2024-06-23T10:53:41Z</time>
      </trkpt>
      <trkpt lat="43.06849" lon="1.33196">
        <ele>359.2</ele>
        <time>2024-06-23T10:53:42Z</time>
      </trkpt>
      <trkpt lat="43.06853" lon="1.33192">
        <ele>359.2</ele>
        <time>2024-06-23T10:53:43Z</time>
      </trkpt>
      <trkpt lat="43.06856" lon="1.33188">
        <ele>359.2</ele>
        <time>2024-06-23T10:53:44Z</time>
      </trkpt>
      <trkpt lat="43.06859" lon="1.33183">
        <ele>359.4</ele>
        <time>2024-06-23T10:53:45Z</time>
      </trkpt>
      <trkpt lat="43.06862" lon="1.33178">
        <ele>359.4</ele>
        <time>2024-06-23T10:53:46Z</time>
      </trkpt>
      <trkpt lat="43.06865" lon="1.33173">
        <ele>359.4</ele>
        <time>2024-06-23T10:53:47Z</time>
      </trkpt>
      <trkpt lat="43.06869" lon="1.33171">
        <ele>359.4</ele>
        <time>2024-06-23T10:53:48Z</time>
      </trkpt>
      <trkpt lat="43.06872" lon="1.33167">
        <ele>359.6</ele>
        <time>2024-06-23T10:53:49Z</time>
      </trkpt>
      <trkpt lat="43.06875" lon="1.33162">
        <ele>359.6</ele>
        <time>2024-06-23T10:53:50Z</time>
      </trkpt>
      <trkpt lat="43.06879" lon="1.33158">
        <ele>359.6</ele>
        <time>2024-06-23T10:53:51Z</time>
      </trkpt>
      <trkpt lat="43.06882" lon="1.33153">
        <ele>359.6</ele>
        <time>2024-06-23T10:53:52Z</time>
      </trkpt>
      <trkpt lat="43.06885" lon="1.33148">
        <ele>359.6</ele>
        <time>2024-06-23T10:53:53Z</time>
      </trkpt>
      <trkpt lat="43.06889" lon="1.33144">
        <ele>360</ele>
        <time>2024-06-23T10:53:54Z</time>
      </trkpt>
      <trkpt lat="43.06892" lon="1.3314">
        <ele>360</ele>
        <time>2024-06-23T10:53:55Z</time>
      </trkpt>
      <trkpt lat="43.06895" lon="1.33135">
        <ele>360</ele>
        <time>2024-06-23T10:53:56Z</time>
      </trkpt>
      <trkpt lat="43.06899" lon="1.33131">
        <ele>360</ele>
        <time>2024-06-23T10:53:57Z</time>
      </trkpt>
      <trkpt lat="43.06902" lon="1.33127">
        <ele>360</ele>
        <time>2024-06-23T10:53:58Z</time>
      </trkpt>
      <trkpt lat="43.06905" lon="1.33122">
        <ele>360</ele>
        <time>2024-06-23T10:53:59Z</time>
      </trkpt>
      <trkpt lat="43.06908" lon="1.33118">
        <ele>360</ele>
        <time>2024-06-23T10:54:00Z</time>
      </trkpt>
      <trkpt lat="43.06912" lon="1.33114">
        <ele>360</ele>
        <time>2024-06-23T10:54:01Z</time>
      </trkpt>
      <trkpt lat="43.06915" lon="1.33109">
        <ele>360</ele>
        <time>2024-06-23T10:54:02Z</time>
      </trkpt>
      <trkpt lat="43.06918" lon="1.33105">
        <ele>360</ele>
        <time>2024-06-23T10:54:03Z</time>
      </trkpt>
      <trkpt lat="43.06922" lon="1.33101">
        <ele>360.2</ele>
        <time>2024-06-23T10:54:04Z</time>
      </trkpt>
      <trkpt lat="43.06925" lon="1.33096">
        <ele>360.2</ele>
        <time>2024-06-23T10:54:05Z</time>
      </trkpt>
      <trkpt lat="43.06928" lon="1.33092">
        <ele>360.2</ele>
        <time>2024-06-23T10:54:06Z</time>
      </trkpt>
      <trkpt lat="43.06931" lon="1.33087">
        <ele>360.2</ele>
        <time>2024-06-23T10:54:07Z</time>
      </trkpt>
      <trkpt lat="43.06935" lon="1.33083">
        <ele>360.2</ele>
        <time>2024-06-23T10:54:08Z</time>
      </trkpt>
      <trkpt lat="43.06938" lon="1.33078">
        <ele>360.2</ele>
        <time>2024-06-23T10:54:09Z</time>
      </trkpt>
      <trkpt lat="43.06942" lon="1.33074">
        <ele>360.2</ele>
        <time>2024-06-23T10:54:10Z</time>
      </trkpt>
      <trkpt lat="43.06945" lon="1.33069">
        <ele>360.2</ele>
        <time>2024-06-23T10:54:11Z</time>
      </trkpt>
      <trkpt lat="43.06949" lon="1.33065">
        <ele>360.2</ele>
        <time>2024-06-23T10:54:12Z</time>
      </trkpt>
      <trkpt lat="43.06952" lon="1.33061">
        <ele>360.8</ele>
        <time>2024-06-23T10:54:13Z</time>
      </trkpt>
      <trkpt lat="43.06955" lon="1.33056">
        <ele>360.8</ele>
        <time>2024-06-23T10:54:14Z</time>
      </trkpt>
      <trkpt lat="43.06959" lon="1.33052">
        <ele>361</ele>
        <time>2024-06-23T10:54:15Z</time>
      </trkpt>
      <trkpt lat="43.06962" lon="1.33048">
        <ele>361</ele>
        <time>2024-06-23T10:54:16Z</time>
      </trkpt>
      <trkpt lat="43.06965" lon="1.33043">
        <ele>361</ele>
        <time>2024-06-23T10:54:17Z</time>
      </trkpt>
      <trkpt lat="43.06968" lon="1.33038">
        <ele>361</ele>
        <time>2024-06-23T10:54:18Z</time>
      </trkpt>
      <trkpt lat="43.06972" lon="1.33035">
        <ele>361</ele>
        <time>2024-06-23T10:54:19Z</time>
      </trkpt>
      <trkpt lat="43.06975" lon="1.3303">
        <ele>361</ele>
        <time>2024-06-23T10:54:20Z</time>
      </trkpt>
      <trkpt lat="43.06979" lon="1.33025">
        <ele>361</ele>
        <time>2024-06-23T10:54:21Z</time>
      </trkpt>
      <trkpt lat="43.06982" lon="1.33021">
        <ele>361</ele>
        <time>2024-06-23T10:54:22Z</time>
      </trkpt>
      <trkpt lat="43.06985" lon="1.33016">
        <ele>361</ele>
        <time>2024-06-23T10:54:23Z</time>
      </trkpt>
      <trkpt lat="43.06989" lon="1.33012">
        <ele>361.2</ele>
        <time>2024-06-23T10:54:24Z</time>
      </trkpt>
      <trkpt lat="43.06992" lon="1.33007">
        <ele>361.2</ele>
        <time>2024-06-23T10:54:25Z</time>
      </trkpt>
      <trkpt lat="43.06995" lon="1.33003">
        <ele>361.6</ele>
        <time>2024-06-23T10:54:26Z</time>
      </trkpt>
      <trkpt lat="43.06999" lon="1.32998">
        <ele>361.6</ele>
        <time>2024-06-23T10:54:27Z</time>
      </trkpt>
      <trkpt lat="43.07002" lon="1.32994">
        <ele>361.6</ele>
        <time>2024-06-23T10:54:28Z</time>
      </trkpt>
      <trkpt lat="43.07005" lon="1.32989">
        <ele>361.6</ele>
        <time>2024-06-23T10:54:29Z</time>
      </trkpt>
      <trkpt lat="43.07009" lon="1.32985">
        <ele>361.6</ele>
        <time>2024-06-23T10:54:30Z</time>
      </trkpt>
      <trkpt lat="43.07012" lon="1.32981">
        <ele>361.6</ele>
        <time>2024-06-23T10:54:31Z</time>
      </trkpt>
      <trkpt lat="43.07016" lon="1.32976">
        <ele>361.8</ele>
        <time>2024-06-23T10:54:32Z</time>
      </trkpt>
      <trkpt lat="43.0702" lon="1.32972">
        <ele>362</ele>
        <time>2024-06-23T10:54:33Z</time>
      </trkpt>
      <trkpt lat="43.07023" lon="1.32967">
        <ele>362</ele>
        <time>2024-06-23T10:54:34Z</time>
      </trkpt>
      <trkpt lat="43.07026" lon="1.32963">
        <ele>362</ele>
        <time>2024-06-23T10:54:35Z</time>
      </trkpt>
      <trkpt lat="43.0703" lon="1.32958">
        <ele>362</ele>
        <time>2024-06-23T10:54:36Z</time>
      </trkpt>
      <trkpt lat="43.07033" lon="1.32954">
        <ele>362.4</ele>
        <time>2024-06-23T10:54:37Z</time>
      </trkpt>
      <trkpt lat="43.07037" lon="1.3295">
        <ele>362.4</ele>
        <time>2024-06-23T10:54:38Z</time>
      </trkpt>
      <trkpt lat="43.0704" lon="1.32945">
        <ele>362.4</ele>
        <time>2024-06-23T10:54:39Z</time>
      </trkpt>
      <trkpt lat="43.07044" lon="1.32941">
        <ele>362.4</ele>
        <time>2024-06-23T10:54:40Z</time>
      </trkpt>
      <trkpt lat="43.07047" lon="1.32936">
        <ele>362.4</ele>
        <time>2024-06-23T10:54:41Z</time>
      </trkpt>
      <trkpt lat="43.07051" lon="1.32931">
        <ele>362.4</ele>
        <time>2024-06-23T10:54:42Z</time>
      </trkpt>
      <trkpt lat="43.07054" lon="1.32926">
        <ele>362.8</ele>
        <time>2024-06-23T10:54:43Z</time>
      </trkpt>
      <trkpt lat="43.07057" lon="1.32922">
        <ele>362.8</ele>
        <time>2024-06-23T10:54:44Z</time>
      </trkpt>
      <trkpt lat="43.07061" lon="1.32918">
        <ele>362.8</ele>
        <time>2024-06-23T10:54:45Z</time>
      </trkpt>
      <trkpt lat="43.07064" lon="1.32914">
        <ele>363</ele>
        <time>2024-06-23T10:54:46Z</time>
      </trkpt>
      <trkpt lat="43.07067" lon="1.32909">
        <ele>363</ele>
        <time>2024-06-23T10:54:47Z</time>
      </trkpt>
      <trkpt lat="43.0707" lon="1.32904">
        <ele>363</ele>
        <time>2024-06-23T10:54:48Z</time>
      </trkpt>
      <trkpt lat="43.07073" lon="1.329">
        <ele>363</ele>
        <time>2024-06-23T10:54:49Z</time>
      </trkpt>
      <trkpt lat="43.07077" lon="1.32896">
        <ele>363</ele>
        <time>2024-06-23T10:54:50Z</time>
      </trkpt>
      <trkpt lat="43.0708" lon="1.32892">
        <ele>362.8</ele>
        <time>2024-06-23T10:54:51Z</time>
      </trkpt>
      <trkpt lat="43.07083" lon="1.32888">
        <ele>362.8</ele>
        <time>2024-06-23T10:54:52Z</time>
      </trkpt>
      <trkpt lat="43.07087" lon="1.32884">
        <ele>362.8</ele>
        <time>2024-06-23T10:54:53Z</time>
      </trkpt>
      <trkpt lat="43.0709" lon="1.32879">
        <ele>363</ele>
        <time>2024-06-23T10:54:54Z</time>
      </trkpt>
      <trkpt lat="43.07093" lon="1.32875">
        <ele>363.2</ele>
        <time>2024-06-23T10:54:55Z</time>
      </trkpt>
      <trkpt lat="43.07096" lon="1.32871">
        <ele>363.2</ele>
        <time>2024-06-23T10:54:56Z</time>
      </trkpt>
      <trkpt lat="43.071" lon="1.32867">
        <ele>363.2</ele>
        <time>2024-06-23T10:54:57Z</time>
      </trkpt>
      <trkpt lat="43.07103" lon="1.32862">
        <ele>363.2</ele>
        <time>2024-06-23T10:54:58Z</time>
      </trkpt>
      <trkpt lat="43.07107" lon="1.32858">
        <ele>363.2</ele>
        <time>2024-06-23T10:54:59Z</time>
      </trkpt>
      <trkpt lat="43.0711" lon="1.32853">
        <ele>363.2</ele>
        <time>2024-06-23T10:55:00Z</time>
      </trkpt>
      <trkpt lat="43.07114" lon="1.32848">
        <ele>363.2</ele>
        <time>2024-06-23T10:55:01Z</time>
      </trkpt>
      <trkpt lat="43.07117" lon="1.32844">
        <ele>363.2</ele>
        <time>2024-06-23T10:55:02Z</time>
      </trkpt>
      <trkpt lat="43.07121" lon="1.32839">
        <ele>363.2</ele>
        <time>2024-06-23T10:55:03Z</time>
      </trkpt>
      <trkpt lat="43.07124" lon="1.32834">
        <ele>363.2</ele>
        <time>2024-06-23T10:55:04Z</time>
      </trkpt>
      <trkpt lat="43.07128" lon="1.3283">
        <ele>363.4</ele>
        <time>2024-06-23T10:55:05Z</time>
      </trkpt>
      <trkpt lat="43.07131" lon="1.32825">
        <ele>363.4</ele>
        <time>2024-06-23T10:55:06Z</time>
      </trkpt>
      <trkpt lat="43.07135" lon="1.3282">
        <ele>363.8</ele>
        <time>2024-06-23T10:55:07Z</time>
      </trkpt>
      <trkpt lat="43.07138" lon="1.32815">
        <ele>364</ele>
        <time>2024-06-23T10:55:08Z</time>
      </trkpt>
      <trkpt lat="43.07142" lon="1.32811">
        <ele>364</ele>
        <time>2024-06-23T10:55:09Z</time>
      </trkpt>
      <trkpt lat="43.07146" lon="1.32806">
        <ele>364</ele>
        <time>2024-06-23T10:55:10Z</time>
      </trkpt>
      <trkpt lat="43.07149" lon="1.32801">
        <ele>364</ele>
        <time>2024-06-23T10:55:11Z</time>
      </trkpt>
      <trkpt lat="43.07153" lon="1.32796">
        <ele>364.2</ele>
        <time>2024-06-23T10:55:12Z</time>
      </trkpt>
      <trkpt lat="43.07157" lon="1.32792">
        <ele>364.2</ele>
        <time>2024-06-23T10:55:13Z</time>
      </trkpt>
      <trkpt lat="43.0716" lon="1.32787">
        <ele>364.4</ele>
        <time>2024-06-23T10:55:14Z</time>
      </trkpt>
      <trkpt lat="43.07164" lon="1.32782">
        <ele>364.4</ele>
        <time>2024-06-23T10:55:15Z</time>
      </trkpt>
      <trkpt lat="43.07168" lon="1.32778">
        <ele>364.4</ele>
        <time>2024-06-23T10:55:16Z</time>
      </trkpt>
      <trkpt lat="43.07171" lon="1.32774">
        <ele>364.8</ele>
        <time>2024-06-23T10:55:17Z</time>
      </trkpt>
      <trkpt lat="43.07174" lon="1.3277">
        <ele>364.8</ele>
        <time>2024-06-23T10:55:18Z</time>
      </trkpt>
      <trkpt lat="43.07178" lon="1.32765">
        <ele>364.8</ele>
        <time>2024-06-23T10:55:19Z</time>
      </trkpt>
      <trkpt lat="43.07181" lon="1.3276">
        <ele>364.8</ele>
        <time>2024-06-23T10:55:20Z</time>
      </trkpt>
      <trkpt lat="43.07185" lon="1.32756">
        <ele>364.8</ele>
        <time>2024-06-23T10:55:21Z</time>
      </trkpt>
      <trkpt lat="43.07187" lon="1.32751">
        <ele>364.8</ele>
        <time>2024-06-23T10:55:22Z</time>
      </trkpt>
      <trkpt lat="43.0719" lon="1.32747">
        <ele>365</ele>
        <time>2024-06-23T10:55:23Z</time>
      </trkpt>
      <trkpt lat="43.07194" lon="1.32743">
        <ele>365</ele>
        <time>2024-06-23T10:55:24Z</time>
      </trkpt>
      <trkpt lat="43.07197" lon="1.32739">
        <ele>365.2</ele>
        <time>2024-06-23T10:55:25Z</time>
      </trkpt>
      <trkpt lat="43.07201" lon="1.32734">
        <ele>365.2</ele>
        <time>2024-06-23T10:55:26Z</time>
      </trkpt>
      <trkpt lat="43.07204" lon="1.32729">
        <ele>365.2</ele>
        <time>2024-06-23T10:55:27Z</time>
      </trkpt>
      <trkpt lat="43.07208" lon="1.32724">
        <ele>365.2</ele>
        <time>2024-06-23T10:55:28Z</time>
      </trkpt>
      <trkpt lat="43.07212" lon="1.32719">
        <ele>365.6</ele>
        <time>2024-06-23T10:55:29Z</time>
      </trkpt>
      <trkpt lat="43.07215" lon="1.32714">
        <ele>365.6</ele>
        <time>2024-06-23T10:55:30Z</time>
      </trkpt>
      <trkpt lat="43.07218" lon="1.3271">
        <ele>366</ele>
        <time>2024-06-23T10:55:31Z</time>
      </trkpt>
      <trkpt lat="43.07222" lon="1.32706">
        <ele>366</ele>
        <time>2024-06-23T10:55:32Z</time>
      </trkpt>
      <trkpt lat="43.07225" lon="1.32702">
        <ele>366.2</ele>
        <time>2024-06-23T10:55:33Z</time>
      </trkpt>
      <trkpt lat="43.07228" lon="1.32697">
        <ele>366.2</ele>
        <time>2024-06-23T10:55:34Z</time>
      </trkpt>
      <trkpt lat="43.07232" lon="1.32693">
        <ele>366.2</ele>
        <time>2024-06-23T10:55:35Z</time>
      </trkpt>
      <trkpt lat="43.07235" lon="1.32689">
        <ele>366.6</ele>
        <time>2024-06-23T10:55:36Z</time>
      </trkpt>
      <trkpt lat="43.07239" lon="1.32685">
        <ele>366.6</ele>
        <time>2024-06-23T10:55:37Z</time>
      </trkpt>
      <trkpt lat="43.07242" lon="1.32681">
        <ele>366.8</ele>
        <time>2024-06-23T10:55:38Z</time>
      </trkpt>
      <trkpt lat="43.07245" lon="1.32676">
        <ele>366.8</ele>
        <time>2024-06-23T10:55:39Z</time>
      </trkpt>
      <trkpt lat="43.07249" lon="1.32672">
        <ele>367.2</ele>
        <time>2024-06-23T10:55:40Z</time>
      </trkpt>
      <trkpt lat="43.07252" lon="1.32668">
        <ele>367.2</ele>
        <time>2024-06-23T10:55:41Z</time>
      </trkpt>
      <trkpt lat="43.07252" lon="1.32668">
        <ele>367.6</ele>
        <time>2024-06-23T10:55:42Z</time>
      </trkpt>
      <trkpt lat="43.07255" lon="1.32663">
        <ele>367.6</ele>
        <time>2024-06-23T10:55:43Z</time>
      </trkpt>
      <trkpt lat="43.07259" lon="1.32659">
        <ele>367.6</ele>
        <time>2024-06-23T10:55:44Z</time>
      </trkpt>
      <trkpt lat="43.07262" lon="1.32654">
        <ele>367.8</ele>
        <time>2024-06-23T10:55:45Z</time>
      </trkpt>
      <trkpt lat="43.07266" lon="1.3265">
        <ele>367.8</ele>
        <time>2024-06-23T10:55:46Z</time>
      </trkpt>
      <trkpt lat="43.07269" lon="1.32645">
        <ele>367.8</ele>
        <time>2024-06-23T10:55:47Z</time>
      </trkpt>
      <trkpt lat="43.07273" lon="1.32641">
        <ele>367.8</ele>
        <time>2024-06-23T10:55:48Z</time>
      </trkpt>
      <trkpt lat="43.07276" lon="1.32636">
        <ele>367.8</ele>
        <time>2024-06-23T10:55:49Z</time>
      </trkpt>
      <trkpt lat="43.0728" lon="1.32631">
        <ele>368</ele>
        <time>2024-06-23T10:55:50Z</time>
      </trkpt>
      <trkpt lat="43.07283" lon="1.32626">
        <ele>368</ele>
        <time>2024-06-23T10:55:51Z</time>
      </trkpt>
      <trkpt lat="43.07287" lon="1.32621">
        <ele>368</ele>
        <time>2024-06-23T10:55:52Z</time>
      </trkpt>
      <trkpt lat="43.0729" lon="1.32616">
        <ele>368.4</ele>
        <time>2024-06-23T10:55:53Z</time>
      </trkpt>
      <trkpt lat="43.07295" lon="1.32611">
        <ele>368.4</ele>
        <time>2024-06-23T10:55:54Z</time>
      </trkpt>
      <trkpt lat="43.07298" lon="1.32606">
        <ele>368.6</ele>
        <time>2024-06-23T10:55:55Z</time>
      </trkpt>
      <trkpt lat="43.07302" lon="1.32601">
        <ele>368.6</ele>
        <time>2024-06-23T10:55:56Z</time>
      </trkpt>
      <trkpt lat="43.07306" lon="1.32596">
        <ele>368.8</ele>
        <time>2024-06-23T10:55:57Z</time>
      </trkpt>
      <trkpt lat="43.0731" lon="1.32591">
        <ele>368.8</ele>
        <time>2024-06-23T10:55:58Z</time>
      </trkpt>
      <trkpt lat="43.07313" lon="1.32587">
        <ele>368.8</ele>
        <time>2024-06-23T10:55:59Z</time>
      </trkpt>
      <trkpt lat="43.07317" lon="1.32582">
        <ele>368.8</ele>
        <time>2024-06-23T10:56:00Z</time>
      </trkpt>
      <trkpt lat="43.07321" lon="1.32578">
        <ele>369</ele>
        <time>2024-06-23T10:56:01Z</time>
      </trkpt>
      <trkpt lat="43.07324" lon="1.32573">
        <ele>369</ele>
        <time>2024-06-23T10:56:02Z</time>
      </trkpt>
      <trkpt lat="43.07327" lon="1.32569">
        <ele>369</ele>
        <time>2024-06-23T10:56:03Z</time>
      </trkpt>
      <trkpt lat="43.07331" lon="1.32565">
        <ele>369</ele>
        <time>2024-06-23T10:56:04Z</time>
      </trkpt>
      <trkpt lat="43.07334" lon="1.3256">
        <ele>369.4</ele>
        <time>2024-06-23T10:56:05Z</time>
      </trkpt>
      <trkpt lat="43.07337" lon="1.32556">
        <ele>369.4</ele>
        <time>2024-06-23T10:56:06Z</time>
      </trkpt>
      <trkpt lat="43.07341" lon="1.32551">
        <ele>369.4</ele>
        <time>2024-06-23T10:56:07Z</time>
      </trkpt>
      <trkpt lat="43.07344" lon="1.32546">
        <ele>369.4</ele>
        <time>2024-06-23T10:56:08Z</time>
      </trkpt>
      <trkpt lat="43.07348" lon="1.32542">
        <ele>369.6</ele>
        <time>2024-06-23T10:56:09Z</time>
      </trkpt>
      <trkpt lat="43.07352" lon="1.32537">
        <ele>369.6</ele>
        <time>2024-06-23T10:56:10Z</time>
      </trkpt>
      <trkpt lat="43.07355" lon="1.32532">
        <ele>369.6</ele>
        <time>2024-06-23T10:56:11Z</time>
      </trkpt>
      <trkpt lat="43.07358" lon="1.32528">
        <ele>369.8</ele>
        <time>2024-06-23T10:56:12Z</time>
      </trkpt>
      <trkpt lat="43.07361" lon="1.32524">
        <ele>369.8</ele>
        <time>2024-06-23T10:56:13Z</time>
      </trkpt>
      <trkpt lat="43.07365" lon="1.3252">
        <ele>370.2</ele>
        <time>2024-06-23T10:56:14Z</time>
      </trkpt>
      <trkpt lat="43.07368" lon="1.32516">
        <ele>370.2</ele>
        <time>2024-06-23T10:56:15Z</time>
      </trkpt>
      <trkpt lat="43.07371" lon="1.32511">
        <ele>370.4</ele>
        <time>2024-06-23T10:56:16Z</time>
      </trkpt>
      <trkpt lat="43.07375" lon="1.32508">
        <ele>370.6</ele>
        <time>2024-06-23T10:56:17Z</time>
      </trkpt>
      <trkpt lat="43.07378" lon="1.32504">
        <ele>371</ele>
        <time>2024-06-23T10:56:18Z</time>
      </trkpt>
      <trkpt lat="43.07382" lon="1.325">
        <ele>371</ele>
        <time>2024-06-23T10:56:19Z</time>
      </trkpt>
      <trkpt lat="43.07385" lon="1.32494">
        <ele>371</ele>
        <time>2024-06-23T10:56:20Z</time>
      </trkpt>
      <trkpt lat="43.07388" lon="1.3249">
        <ele>371.2</ele>
        <time>2024-06-23T10:56:21Z</time>
      </trkpt>
      <trkpt lat="43.07392" lon="1.32486">
        <ele>371.2</ele>
        <time>2024-06-23T10:56:22Z</time>
      </trkpt>
      <trkpt lat="43.07395" lon="1.32482">
        <ele>371.4</ele>
        <time>2024-06-23T10:56:23Z</time>
      </trkpt>
      <trkpt lat="43.07398" lon="1.32478">
        <ele>371.4</ele>
        <time>2024-06-23T10:56:24Z</time>
      </trkpt>
      <trkpt lat="43.07401" lon="1.32474">
        <ele>371.8</ele>
        <time>2024-06-23T10:56:25Z</time>
      </trkpt>
      <trkpt lat="43.07405" lon="1.3247">
        <ele>371.8</ele>
        <time>2024-06-23T10:56:26Z</time>
      </trkpt>
      <trkpt lat="43.07408" lon="1.32467">
        <ele>372</ele>
        <time>2024-06-23T10:56:27Z</time>
      </trkpt>
      <trkpt lat="43.07411" lon="1.32463">
        <ele>372</ele>
        <time>2024-06-23T10:56:28Z</time>
      </trkpt>
      <trkpt lat="43.07413" lon="1.32459">
        <ele>372.2</ele>
        <time>2024-06-23T10:56:29Z</time>
      </trkpt>
      <trkpt lat="43.07416" lon="1.32455">
        <ele>372.2</ele>
        <time>2024-06-23T10:56:30Z</time>
      </trkpt>
      <trkpt lat="43.07418" lon="1.32451">
        <ele>372.2</ele>
        <time>2024-06-23T10:56:31Z</time>
      </trkpt>
      <trkpt lat="43.0742" lon="1.32446">
        <ele>372.2</ele>
        <time>2024-06-23T10:56:32Z</time>
      </trkpt>
      <trkpt lat="43.07421" lon="1.3244">
        <ele>372.2</ele>
        <time>2024-06-23T10:56:33Z</time>
      </trkpt>
      <trkpt lat="43.0742" lon="1.32433">
        <ele>372.2</ele>
        <time>2024-06-23T10:56:34Z</time>
      </trkpt>
      <trkpt lat="43.07419" lon="1.32427">
        <ele>372.2</ele>
        <time>2024-06-23T10:56:35Z</time>
      </trkpt>
      <trkpt lat="43.07417" lon="1.32421">
        <ele>371.8</ele>
        <time>2024-06-23T10:56:36Z</time>
      </trkpt>
      <trkpt lat="43.07414" lon="1.32414">
        <ele>371.8</ele>
        <time>2024-06-23T10:56:37Z</time>
      </trkpt>
      <trkpt lat="43.07412" lon="1.32409">
        <ele>371.8</ele>
        <time>2024-06-23T10:56:38Z</time>
      </trkpt>
      <trkpt lat="43.07409" lon="1.32403">
        <ele>371.8</ele>
        <time>2024-06-23T10:56:39Z</time>
      </trkpt>
      <trkpt lat="43.07407" lon="1.32397">
        <ele>371.8</ele>
        <time>2024-06-23T10:56:40Z</time>
      </trkpt>
      <trkpt lat="43.07404" lon="1.32391">
        <ele>371.8</ele>
        <time>2024-06-23T10:56:41Z</time>
      </trkpt>
      <trkpt lat="43.07401" lon="1.32385">
        <ele>371.8</ele>
        <time>2024-06-23T10:56:42Z</time>
      </trkpt>
      <trkpt lat="43.07399" lon="1.32378">
        <ele>371.8</ele>
        <time>2024-06-23T10:56:43Z</time>
      </trkpt>
      <trkpt lat="43.07397" lon="1.32371">
        <ele>371.8</ele>
        <time>2024-06-23T10:56:44Z</time>
      </trkpt>
      <trkpt lat="43.07396" lon="1.32365">
        <ele>371.8</ele>
        <time>2024-06-23T10:56:45Z</time>
      </trkpt>
      <trkpt lat="43.07394" lon="1.32359">
        <ele>371.6</ele>
        <time>2024-06-23T10:56:46Z</time>
      </trkpt>
      <trkpt lat="43.07394" lon="1.32352">
        <ele>371.6</ele>
        <time>2024-06-23T10:56:47Z</time>
      </trkpt>
      <trkpt lat="43.07392" lon="1.32346">
        <ele>371.6</ele>
        <time>2024-06-23T10:56:48Z</time>
      </trkpt>
      <trkpt lat="43.07391" lon="1.32339">
        <ele>371.2</ele>
        <time>2024-06-23T10:56:49Z</time>
      </trkpt>
      <trkpt lat="43.0739" lon="1.32333">
        <ele>371.2</ele>
        <time>2024-06-23T10:56:50Z</time>
      </trkpt>
      <trkpt lat="43.0739" lon="1.32326">
        <ele>371.2</ele>
        <time>2024-06-23T10:56:51Z</time>
      </trkpt>
      <trkpt lat="43.07389" lon="1.3232">
        <ele>371.2</ele>
        <time>2024-06-23T10:56:52Z</time>
      </trkpt>
      <trkpt lat="43.07389" lon="1.32314">
        <ele>371.2</ele>
        <time>2024-06-23T10:56:53Z</time>
      </trkpt>
      <trkpt lat="43.07389" lon="1.32308">
        <ele>371.2</ele>
        <time>2024-06-23T10:56:54Z</time>
      </trkpt>
      <trkpt lat="43.07388" lon="1.32302">
        <ele>371.2</ele>
        <time>2024-06-23T10:56:55Z</time>
      </trkpt>
      <trkpt lat="43.07387" lon="1.32296">
        <ele>371.6</ele>
        <time>2024-06-23T10:56:56Z</time>
      </trkpt>
      <trkpt lat="43.07387" lon="1.32291">
        <ele>371.8</ele>
        <time>2024-06-23T10:56:57Z</time>
      </trkpt>
      <trkpt lat="43.07387" lon="1.32286">
        <ele>371.8</ele>
        <time>2024-06-23T10:56:58Z</time>
      </trkpt>
      <trkpt lat="43.07387" lon="1.3228">
        <ele>372</ele>
        <time>2024-06-23T10:56:59Z</time>
      </trkpt>
      <trkpt lat="43.07386" lon="1.32275">
        <ele>372</ele>
        <time>2024-06-23T10:57:00Z</time>
      </trkpt>
      <trkpt lat="43.07386" lon="1.3227">
        <ele>372.4</ele>
        <time>2024-06-23T10:57:01Z</time>
      </trkpt>
      <trkpt lat="43.07385" lon="1.32265">
        <ele>372.4</ele>
        <time>2024-06-23T10:57:02Z</time>
      </trkpt>
      <trkpt lat="43.07385" lon="1.32261">
        <ele>372.6</ele>
        <time>2024-06-23T10:57:03Z</time>
      </trkpt>
      <trkpt lat="43.07385" lon="1.32256">
        <ele>372.6</ele>
        <time>2024-06-23T10:57:04Z</time>
      </trkpt>
      <trkpt lat="43.07385" lon="1.32252">
        <ele>372.6</ele>
        <time>2024-06-23T10:57:05Z</time>
      </trkpt>
      <trkpt lat="43.07384" lon="1.32247">
        <ele>373</ele>
        <time>2024-06-23T10:57:06Z</time>
      </trkpt>
      <trkpt lat="43.07384" lon="1.32242">
        <ele>373.2</ele>
        <time>2024-06-23T10:57:07Z</time>
      </trkpt>
      <trkpt lat="43.07383" lon="1.32237">
        <ele>373.2</ele>
        <time>2024-06-23T10:57:08Z</time>
      </trkpt>
      <trkpt lat="43.07383" lon="1.32232">
        <ele>373.6</ele>
        <time>2024-06-23T10:57:09Z</time>
      </trkpt>
      <trkpt lat="43.07382" lon="1.32227">
        <ele>373.8</ele>
        <time>2024-06-23T10:57:10Z</time>
      </trkpt>
      <trkpt lat="43.07382" lon="1.32223">
        <ele>374</ele>
        <time>2024-06-23T10:57:11Z</time>
      </trkpt>
      <trkpt lat="43.07381" lon="1.32219">
        <ele>374</ele>
        <time>2024-06-23T10:57:12Z</time>
      </trkpt>
      <trkpt lat="43.07381" lon="1.32215">
        <ele>374.4</ele>
        <time>2024-06-23T10:57:13Z</time>
      </trkpt>
      <trkpt lat="43.07381" lon="1.32211">
        <ele>374.6</ele>
        <time>2024-06-23T10:57:14Z</time>
      </trkpt>
      <trkpt lat="43.07381" lon="1.32207">
        <ele>374.6</ele>
        <time>2024-06-23T10:57:15Z</time>
      </trkpt>
      <trkpt lat="43.07381" lon="1.32204">
        <ele>374.8</ele>
        <time>2024-06-23T10:57:16Z</time>
      </trkpt>
      <trkpt lat="43.0738" lon="1.322">
        <ele>375.2</ele>
        <time>2024-06-23T10:57:17Z</time>
      </trkpt>
      <trkpt lat="43.0738" lon="1.32196">
        <ele>375.2</ele>
        <time>2024-06-23T10:57:18Z</time>
      </trkpt>
      <trkpt lat="43.07379" lon="1.32192">
        <ele>375.6</ele>
        <time>2024-06-23T10:57:19Z</time>
      </trkpt>
      <trkpt lat="43.07379" lon="1.32188">
        <ele>375.8</ele>
        <time>2024-06-23T10:57:20Z</time>
      </trkpt>
      <trkpt lat="43.07378" lon="1.32184">
        <ele>375.8</ele>
        <time>2024-06-23T10:57:21Z</time>
      </trkpt>
      <trkpt lat="43.07378" lon="1.3218">
        <ele>375.8</ele>
        <time>2024-06-23T10:57:22Z</time>
      </trkpt>
      <trkpt lat="43.07377" lon="1.32176">
        <ele>376.4</ele>
        <time>2024-06-23T10:57:23Z</time>
      </trkpt>
      <trkpt lat="43.07377" lon="1.32172">
        <ele>376.6</ele>
        <time>2024-06-23T10:57:24Z</time>
      </trkpt>
      <trkpt lat="43.07377" lon="1.32168">
        <ele>376.8</ele>
        <time>2024-06-23T10:57:25Z</time>
      </trkpt>
      <trkpt lat="43.07377" lon="1.32163">
        <ele>377.2</ele>
        <time>2024-06-23T10:57:26Z</time>
      </trkpt>
      <trkpt lat="43.07377" lon="1.32159">
        <ele>377.2</ele>
        <time>2024-06-23T10:57:27Z</time>
      </trkpt>
      <trkpt lat="43.07376" lon="1.32154">
        <ele>377.6</ele>
        <time>2024-06-23T10:57:28Z</time>
      </trkpt>
      <trkpt lat="43.07376" lon="1.3215">
        <ele>378</ele>
        <time>2024-06-23T10:57:29Z</time>
      </trkpt>
      <trkpt lat="43.07375" lon="1.32146">
        <ele>378</ele>
        <time>2024-06-23T10:57:30Z</time>
      </trkpt>
      <trkpt lat="43.07375" lon="1.32141">
        <ele>378.2</ele>
        <time>2024-06-23T10:57:31Z</time>
      </trkpt>
      <trkpt lat="43.07374" lon="1.32137">
        <ele>378.4</ele>
        <time>2024-06-23T10:57:32Z</time>
      </trkpt>
      <trkpt lat="43.07373" lon="1.32132">
        <ele>378.4</ele>
        <time>2024-06-23T10:57:33Z</time>
      </trkpt>
      <trkpt lat="43.07373" lon="1.32128">
        <ele>378.6</ele>
        <time>2024-06-23T10:57:34Z</time>
      </trkpt>
      <trkpt lat="43.07372" lon="1.32123">
        <ele>378.6</ele>
        <time>2024-06-23T10:57:35Z</time>
      </trkpt>
      <trkpt lat="43.07372" lon="1.32119">
        <ele>379</ele>
        <time>2024-06-23T10:57:36Z</time>
      </trkpt>
      <trkpt lat="43.07372" lon="1.32114">
        <ele>379.2</ele>
        <time>2024-06-23T10:57:37Z</time>
      </trkpt>
      <trkpt lat="43.07371" lon="1.32109">
        <ele>379.4</ele>
        <time>2024-06-23T10:57:38Z</time>
      </trkpt>
      <trkpt lat="43.07371" lon="1.32105">
        <ele>379.8</ele>
        <time>2024-06-23T10:57:39Z</time>
      </trkpt>
      <trkpt lat="43.07371" lon="1.321">
        <ele>379.8</ele>
        <time>2024-06-23T10:57:40Z</time>
      </trkpt>
      <trkpt lat="43.07371" lon="1.32096">
        <ele>379.8</ele>
        <time>2024-06-23T10:57:41Z</time>
      </trkpt>
      <trkpt lat="43.0737" lon="1.32091">
        <ele>380</ele>
        <time>2024-06-23T10:57:42Z</time>
      </trkpt>
      <trkpt lat="43.0737" lon="1.32086">
        <ele>380</ele>
        <time>2024-06-23T10:57:43Z</time>
      </trkpt>
      <trkpt lat="43.07369" lon="1.32081">
        <ele>380.4</ele>
        <time>2024-06-23T10:57:44Z</time>
      </trkpt>
      <trkpt lat="43.07369" lon="1.32076">
        <ele>380.4</ele>
        <time>2024-06-23T10:57:45Z</time>
      </trkpt>
      <trkpt lat="43.07369" lon="1.32071">
        <ele>380.4</ele>
        <time>2024-06-23T10:57:46Z</time>
      </trkpt>
      <trkpt lat="43.0737" lon="1.32066">
        <ele>380.4</ele>
        <time>2024-06-23T10:57:47Z</time>
      </trkpt>
      <trkpt lat="43.0737" lon="1.32061">
        <ele>380.6</ele>
        <time>2024-06-23T10:57:48Z</time>
      </trkpt>
      <trkpt lat="43.0737" lon="1.32056">
        <ele>380.8</ele>
        <time>2024-06-23T10:57:49Z</time>
      </trkpt>
      <trkpt lat="43.07371" lon="1.32051">
        <ele>380.8</ele>
        <time>2024-06-23T10:57:50Z</time>
      </trkpt>
      <trkpt lat="43.07372" lon="1.32046">
        <ele>380.6</ele>
        <time>2024-06-23T10:57:51Z</time>
      </trkpt>
      <trkpt lat="43.07372" lon="1.32041">
        <ele>380.6</ele>
        <time>2024-06-23T10:57:52Z</time>
      </trkpt>
      <trkpt lat="43.07373" lon="1.32035">
        <ele>380.6</ele>
        <time>2024-06-23T10:57:53Z</time>
      </trkpt>
      <trkpt lat="43.07373" lon="1.3203">
        <ele>380.6</ele>
        <time>2024-06-23T10:57:54Z</time>
      </trkpt>
      <trkpt lat="43.07374" lon="1.32024">
        <ele>380.6</ele>
        <time>2024-06-23T10:57:55Z</time>
      </trkpt>
      <trkpt lat="43.07374" lon="1.32019">
        <ele>381</ele>
        <time>2024-06-23T10:57:56Z</time>
      </trkpt>
      <trkpt lat="43.07375" lon="1.32014">
        <ele>381</ele>
        <time>2024-06-23T10:57:57Z</time>
      </trkpt>
      <trkpt lat="43.07375" lon="1.32008">
        <ele>381.2</ele>
        <time>2024-06-23T10:57:58Z</time>
      </trkpt>
      <trkpt lat="43.07376" lon="1.32003">
        <ele>381.2</ele>
        <time>2024-06-23T10:57:59Z</time>
      </trkpt>
      <trkpt lat="43.07376" lon="1.31997">
        <ele>381.4</ele>
        <time>2024-06-23T10:58:00Z</time>
      </trkpt>
      <trkpt lat="43.07377" lon="1.31992">
        <ele>381.2</ele>
        <time>2024-06-23T10:58:01Z</time>
      </trkpt>
      <trkpt lat="43.07378" lon="1.31987">
        <ele>381.2</ele>
        <time>2024-06-23T10:58:02Z</time>
      </trkpt>
      <trkpt lat="43.07379" lon="1.31981">
        <ele>381.2</ele>
        <time>2024-06-23T10:58:03Z</time>
      </trkpt>
      <trkpt lat="43.07379" lon="1.31976">
        <ele>381.2</ele>
        <time>2024-06-23T10:58:04Z</time>
      </trkpt>
      <trkpt lat="43.0738" lon="1.31971">
        <ele>381.2</ele>
        <time>2024-06-23T10:58:05Z</time>
      </trkpt>
      <trkpt lat="43.0738" lon="1.3196">
        <ele>381.2</ele>
        <time>2024-06-23T10:58:06Z</time>
      </trkpt>
      <trkpt lat="43.07381" lon="1.31955">
        <ele>381.2</ele>
        <time>2024-06-23T10:58:07Z</time>
      </trkpt>
      <trkpt lat="43.07381" lon="1.3195">
        <ele>381.4</ele>
        <time>2024-06-23T10:58:08Z</time>
      </trkpt>
      <trkpt lat="43.07381" lon="1.31944">
        <ele>381.4</ele>
        <time>2024-06-23T10:58:09Z</time>
      </trkpt>
      <trkpt lat="43.07381" lon="1.3194">
        <ele>381.4</ele>
        <time>2024-06-23T10:58:10Z</time>
      </trkpt>
      <trkpt lat="43.07382" lon="1.31935">
        <ele>381.8</ele>
        <time>2024-06-23T10:58:11Z</time>
      </trkpt>
      <trkpt lat="43.07382" lon="1.3193">
        <ele>381.8</ele>
        <time>2024-06-23T10:58:12Z</time>
      </trkpt>
      <trkpt lat="43.07382" lon="1.31925">
        <ele>382.2</ele>
        <time>2024-06-23T10:58:13Z</time>
      </trkpt>
      <trkpt lat="43.07382" lon="1.31921">
        <ele>382.4</ele>
        <time>2024-06-23T10:58:14Z</time>
      </trkpt>
      <trkpt lat="43.07382" lon="1.31916">
        <ele>382.4</ele>
        <time>2024-06-23T10:58:15Z</time>
      </trkpt>
      <trkpt lat="43.07382" lon="1.31912">
        <ele>382.6</ele>
        <time>2024-06-23T10:58:16Z</time>
      </trkpt>
      <trkpt lat="43.07382" lon="1.31907">
        <ele>382.6</ele>
        <time>2024-06-23T10:58:17Z</time>
      </trkpt>
      <trkpt lat="43.07383" lon="1.31902">
        <ele>383.2</ele>
        <time>2024-06-23T10:58:18Z</time>
      </trkpt>
      <trkpt lat="43.07382" lon="1.31898">
        <ele>383.6</ele>
        <time>2024-06-23T10:58:19Z</time>
      </trkpt>
      <trkpt lat="43.07382" lon="1.31893">
        <ele>383.8</ele>
        <time>2024-06-23T10:58:20Z</time>
      </trkpt>
      <trkpt lat="43.07382" lon="1.31889">
        <ele>383.8</ele>
        <time>2024-06-23T10:58:21Z</time>
      </trkpt>
      <trkpt lat="43.07381" lon="1.31884">
        <ele>384.4</ele>
        <time>2024-06-23T10:58:22Z</time>
      </trkpt>
      <trkpt lat="43.07381" lon="1.3188">
        <ele>384.4</ele>
        <time>2024-06-23T10:58:23Z</time>
      </trkpt>
      <trkpt lat="43.0738" lon="1.31875">
        <ele>384.6</ele>
        <time>2024-06-23T10:58:24Z</time>
      </trkpt>
      <trkpt lat="43.0738" lon="1.3187">
        <ele>384.6</ele>
        <time>2024-06-23T10:58:25Z</time>
      </trkpt>
      <trkpt lat="43.0738" lon="1.31865">
        <ele>384.8</ele>
        <time>2024-06-23T10:58:26Z</time>
      </trkpt>
      <trkpt lat="43.0738" lon="1.3186">
        <ele>384.8</ele>
        <time>2024-06-23T10:58:27Z</time>
      </trkpt>
      <trkpt lat="43.0738" lon="1.31855">
        <ele>385.2</ele>
        <time>2024-06-23T10:58:28Z</time>
      </trkpt>
      <trkpt lat="43.0738" lon="1.31851">
        <ele>385.4</ele>
        <time>2024-06-23T10:58:29Z</time>
      </trkpt>
      <trkpt lat="43.0738" lon="1.31847">
        <ele>385.6</ele>
        <time>2024-06-23T10:58:30Z</time>
      </trkpt>
      <trkpt lat="43.0738" lon="1.31843">
        <ele>386</ele>
        <time>2024-06-23T10:58:31Z</time>
      </trkpt>
      <trkpt lat="43.07379" lon="1.31839">
        <ele>386.2</ele>
        <time>2024-06-23T10:58:32Z</time>
      </trkpt>
      <trkpt lat="43.07378" lon="1.31834">
        <ele>386.4</ele>
        <time>2024-06-23T10:58:33Z</time>
      </trkpt>
      <trkpt lat="43.07377" lon="1.3183">
        <ele>386.6</ele>
        <time>2024-06-23T10:58:34Z</time>
      </trkpt>
      <trkpt lat="43.07376" lon="1.31825">
        <ele>386.6</ele>
        <time>2024-06-23T10:58:35Z</time>
      </trkpt>
      <trkpt lat="43.07374" lon="1.31822">
        <ele>387</ele>
        <time>2024-06-23T10:58:36Z</time>
      </trkpt>
      <trkpt lat="43.07371" lon="1.31819">
        <ele>387.2</ele>
        <time>2024-06-23T10:58:37Z</time>
      </trkpt>
      <trkpt lat="43.07369" lon="1.31816">
        <ele>387.2</ele>
        <time>2024-06-23T10:58:38Z</time>
      </trkpt>
      <trkpt lat="43.07366" lon="1.31813">
        <ele>387.2</ele>
        <time>2024-06-23T10:58:39Z</time>
      </trkpt>
      <trkpt lat="43.07364" lon="1.3181">
        <ele>387.6</ele>
        <time>2024-06-23T10:58:40Z</time>
      </trkpt>
      <trkpt lat="43.07362" lon="1.31807">
        <ele>387.6</ele>
        <time>2024-06-23T10:58:41Z</time>
      </trkpt>
      <trkpt lat="43.07359" lon="1.31805">
        <ele>388</ele>
        <time>2024-06-23T10:58:42Z</time>
      </trkpt>
      <trkpt lat="43.07356" lon="1.31803">
        <ele>388</ele>
        <time>2024-06-23T10:58:43Z</time>
      </trkpt>
      <trkpt lat="43.07354" lon="1.31801">
        <ele>388.2</ele>
        <time>2024-06-23T10:58:44Z</time>
      </trkpt>
      <trkpt lat="43.07351" lon="1.318">
        <ele>388.6</ele>
        <time>2024-06-23T10:58:45Z</time>
      </trkpt>
      <trkpt lat="43.07349" lon="1.31798">
        <ele>388.8</ele>
        <time>2024-06-23T10:58:46Z</time>
      </trkpt>
      <trkpt lat="43.07347" lon="1.31796">
        <ele>389</ele>
        <time>2024-06-23T10:58:47Z</time>
      </trkpt>
      <trkpt lat="43.07344" lon="1.31794">
        <ele>389.2</ele>
        <time>2024-06-23T10:58:48Z</time>
      </trkpt>
      <trkpt lat="43.07342" lon="1.31791">
        <ele>389.4</ele>
        <time>2024-06-23T10:58:49Z</time>
      </trkpt>
      <trkpt lat="43.07339" lon="1.31789">
        <ele>389.4</ele>
        <time>2024-06-23T10:58:50Z</time>
      </trkpt>
      <trkpt lat="43.07336" lon="1.31786">
        <ele>389.8</ele>
        <time>2024-06-23T10:58:51Z</time>
      </trkpt>
      <trkpt lat="43.07334" lon="1.31784">
        <ele>389.8</ele>
        <time>2024-06-23T10:58:52Z</time>
      </trkpt>
      <trkpt lat="43.07331" lon="1.31782">
        <ele>390.2</ele>
        <time>2024-06-23T10:58:53Z</time>
      </trkpt>
      <trkpt lat="43.07329" lon="1.31779">
        <ele>390.4</ele>
        <time>2024-06-23T10:58:54Z</time>
      </trkpt>
      <trkpt lat="43.07326" lon="1.31777">
        <ele>390.6</ele>
        <time>2024-06-23T10:58:55Z</time>
      </trkpt>
      <trkpt lat="43.07322" lon="1.31776">
        <ele>390.6</ele>
        <time>2024-06-23T10:58:56Z</time>
      </trkpt>
      <trkpt lat="43.07319" lon="1.31774">
        <ele>391</ele>
        <time>2024-06-23T10:58:57Z</time>
      </trkpt>
      <trkpt lat="43.07315" lon="1.31773">
        <ele>391.2</ele>
        <time>2024-06-23T10:58:58Z</time>
      </trkpt>
      <trkpt lat="43.07311" lon="1.31772">
        <ele>391.6</ele>
        <time>2024-06-23T10:58:59Z</time>
      </trkpt>
      <trkpt lat="43.07308" lon="1.31772">
        <ele>391.6</ele>
        <time>2024-06-23T10:59:00Z</time>
      </trkpt>
      <trkpt lat="43.07304" lon="1.31772">
        <ele>392</ele>
        <time>2024-06-23T10:59:01Z</time>
      </trkpt>
      <trkpt lat="43.07301" lon="1.31772">
        <ele>392.2</ele>
        <time>2024-06-23T10:59:02Z</time>
      </trkpt>
      <trkpt lat="43.07297" lon="1.3177">
        <ele>392.2</ele>
        <time>2024-06-23T10:59:03Z</time>
      </trkpt>
      <trkpt lat="43.07294" lon="1.31767">
        <ele>392.8</ele>
        <time>2024-06-23T10:59:04Z</time>
      </trkpt>
      <trkpt lat="43.07292" lon="1.31764">
        <ele>393</ele>
        <time>2024-06-23T10:59:05Z</time>
      </trkpt>
      <trkpt lat="43.07291" lon="1.31759">
        <ele>393.2</ele>
        <time>2024-06-23T10:59:06Z</time>
      </trkpt>
      <trkpt lat="43.0729" lon="1.31754">
        <ele>393.2</ele>
        <time>2024-06-23T10:59:07Z</time>
      </trkpt>
      <trkpt lat="43.07291" lon="1.31749">
        <ele>393.6</ele>
        <time>2024-06-23T10:59:08Z</time>
      </trkpt>
      <trkpt lat="43.07293" lon="1.31744">
        <ele>393.8</ele>
        <time>2024-06-23T10:59:09Z</time>
      </trkpt>
      <trkpt lat="43.07295" lon="1.3174">
        <ele>394.2</ele>
        <time>2024-06-23T10:59:10Z</time>
      </trkpt>
      <trkpt lat="43.07297" lon="1.31735">
        <ele>394.2</ele>
        <time>2024-06-23T10:59:11Z</time>
      </trkpt>
      <trkpt lat="43.07299" lon="1.31732">
        <ele>394.6</ele>
        <time>2024-06-23T10:59:12Z</time>
      </trkpt>
      <trkpt lat="43.07301" lon="1.31728">
        <ele>394.6</ele>
        <time>2024-06-23T10:59:13Z</time>
      </trkpt>
      <trkpt lat="43.07304" lon="1.31724">
        <ele>395</ele>
        <time>2024-06-23T10:59:14Z</time>
      </trkpt>
      <trkpt lat="43.07306" lon="1.31721">
        <ele>395</ele>
        <time>2024-06-23T10:59:15Z</time>
      </trkpt>
      <trkpt lat="43.07308" lon="1.31717">
        <ele>395.4</ele>
        <time>2024-06-23T10:59:16Z</time>
      </trkpt>
      <trkpt lat="43.0731" lon="1.31714">
        <ele>395.8</ele>
        <time>2024-06-23T10:59:17Z</time>
      </trkpt>
      <trkpt lat="43.07312" lon="1.3171">
        <ele>396</ele>
        <time>2024-06-23T10:59:18Z</time>
      </trkpt>
      <trkpt lat="43.07315" lon="1.31706">
        <ele>396</ele>
        <time>2024-06-23T10:59:19Z</time>
      </trkpt>
      <trkpt lat="43.07317" lon="1.31702">
        <ele>396.4</ele>
        <time>2024-06-23T10:59:20Z</time>
      </trkpt>
      <trkpt lat="43.07319" lon="1.31698">
        <ele>396.4</ele>
        <time>2024-06-23T10:59:21Z</time>
      </trkpt>
      <trkpt lat="43.07322" lon="1.31694">
        <ele>396.8</ele>
        <time>2024-06-23T10:59:22Z</time>
      </trkpt>
      <trkpt lat="43.07324" lon="1.3169">
        <ele>396.8</ele>
        <time>2024-06-23T10:59:23Z</time>
      </trkpt>
      <trkpt lat="43.07327" lon="1.31686">
        <ele>396.8</ele>
        <time>2024-06-23T10:59:24Z</time>
      </trkpt>
      <trkpt lat="43.07329" lon="1.31682">
        <ele>396.8</ele>
        <time>2024-06-23T10:59:25Z</time>
      </trkpt>
      <trkpt lat="43.07331" lon="1.31678">
        <ele>396.8</ele>
        <time>2024-06-23T10:59:26Z</time>
      </trkpt>
      <trkpt lat="43.07334" lon="1.31674">
        <ele>396.8</ele>
        <time>2024-06-23T10:59:27Z</time>
      </trkpt>
      <trkpt lat="43.07336" lon="1.31669">
        <ele>397</ele>
        <time>2024-06-23T10:59:28Z</time>
      </trkpt>
      <trkpt lat="43.07338" lon="1.31665">
        <ele>397</ele>
        <time>2024-06-23T10:59:29Z</time>
      </trkpt>
      <trkpt lat="43.07341" lon="1.31661">
        <ele>397</ele>
        <time>2024-06-23T10:59:30Z</time>
      </trkpt>
      <trkpt lat="43.07343" lon="1.31656">
        <ele>397.4</ele>
        <time>2024-06-23T10:59:31Z</time>
      </trkpt>
      <trkpt lat="43.07345" lon="1.31651">
        <ele>397.4</ele>
        <time>2024-06-23T10:59:32Z</time>
      </trkpt>
      <trkpt lat="43.07348" lon="1.31647">
        <ele>397.8</ele>
        <time>2024-06-23T10:59:33Z</time>
      </trkpt>
      <trkpt lat="43.0735" lon="1.31643">
        <ele>397.8</ele>
        <time>2024-06-23T10:59:34Z</time>
      </trkpt>
      <trkpt lat="43.07352" lon="1.31639">
        <ele>397.8</ele>
        <time>2024-06-23T10:59:35Z</time>
      </trkpt>
      <trkpt lat="43.07355" lon="1.31634">
        <ele>397.8</ele>
        <time>2024-06-23T10:59:36Z</time>
      </trkpt>
      <trkpt lat="43.07357" lon="1.3163">
        <ele>398.4</ele>
        <time>2024-06-23T10:59:37Z</time>
      </trkpt>
      <trkpt lat="43.0736" lon="1.31625">
        <ele>398.8</ele>
        <time>2024-06-23T10:59:38Z</time>
      </trkpt>
      <trkpt lat="43.07362" lon="1.31621">
        <ele>398.8</ele>
        <time>2024-06-23T10:59:39Z</time>
      </trkpt>
      <trkpt lat="43.07364" lon="1.31616">
        <ele>398.8</ele>
        <time>2024-06-23T10:59:40Z</time>
      </trkpt>
      <trkpt lat="43.07367" lon="1.31612">
        <ele>398.8</ele>
        <time>2024-06-23T10:59:41Z</time>
      </trkpt>
      <trkpt lat="43.07369" lon="1.31608">
        <ele>399.2</ele>
        <time>2024-06-23T10:59:42Z</time>
      </trkpt>
      <trkpt lat="43.07372" lon="1.31604">
        <ele>399.4</ele>
        <time>2024-06-23T10:59:43Z</time>
      </trkpt>
      <trkpt lat="43.07374" lon="1.316">
        <ele>399.4</ele>
        <time>2024-06-23T10:59:44Z</time>
      </trkpt>
      <trkpt lat="43.07376" lon="1.31595">
        <ele>400</ele>
        <time>2024-06-23T10:59:45Z</time>
      </trkpt>
      <trkpt lat="43.07379" lon="1.31591">
        <ele>400.2</ele>
        <time>2024-06-23T10:59:46Z</time>
      </trkpt>
      <trkpt lat="43.07381" lon="1.31587">
        <ele>400.2</ele>
        <time>2024-06-23T10:59:47Z</time>
      </trkpt>
      <trkpt lat="43.07383" lon="1.31583">
        <ele>400.2</ele>
        <time>2024-06-23T10:59:48Z</time>
      </trkpt>
      <trkpt lat="43.07386" lon="1.31579">
        <ele>400.2</ele>
        <time>2024-06-23T10:59:49Z</time>
      </trkpt>
      <trkpt lat="43.07388" lon="1.31574">
        <ele>399.8</ele>
        <time>2024-06-23T10:59:50Z</time>
      </trkpt>
      <trkpt lat="43.0739" lon="1.3157">
        <ele>399.8</ele>
        <time>2024-06-23T10:59:51Z</time>
      </trkpt>
      <trkpt lat="43.07393" lon="1.31565">
        <ele>400.2</ele>
        <time>2024-06-23T10:59:52Z</time>
      </trkpt>
      <trkpt lat="43.07395" lon="1.31561">
        <ele>400.2</ele>
        <time>2024-06-23T10:59:53Z</time>
      </trkpt>
      <trkpt lat="43.07398" lon="1.31557">
        <ele>400.4</ele>
        <time>2024-06-23T10:59:54Z</time>
      </trkpt>
      <trkpt lat="43.074" lon="1.31552">
        <ele>400.4</ele>
        <time>2024-06-23T10:59:55Z</time>
      </trkpt>
      <trkpt lat="43.07402" lon="1.31548">
        <ele>400.4</ele>
        <time>2024-06-23T10:59:56Z</time>
      </trkpt>
      <trkpt lat="43.07404" lon="1.31543">
        <ele>400.4</ele>
        <time>2024-06-23T10:59:57Z</time>
      </trkpt>
      <trkpt lat="43.07406" lon="1.31539">
        <ele>400.4</ele>
        <time>2024-06-23T10:59:58Z</time>
      </trkpt>
      <trkpt lat="43.07409" lon="1.31534">
        <ele>400.6</ele>
        <time>2024-06-23T10:59:59Z</time>
      </trkpt>
      <trkpt lat="43.07411" lon="1.3153">
        <ele>400.6</ele>
        <time>2024-06-23T11:00:00Z</time>
      </trkpt>
      <trkpt lat="43.07413" lon="1.31526">
        <ele>400.8</ele>
        <time>2024-06-23T11:00:01Z</time>
      </trkpt>
      <trkpt lat="43.07415" lon="1.31521">
        <ele>401</ele>
        <time>2024-06-23T11:00:02Z</time>
      </trkpt>
      <trkpt lat="43.07417" lon="1.31517">
        <ele>401.2</ele>
        <time>2024-06-23T11:00:03Z</time>
      </trkpt>
      <trkpt lat="43.07418" lon="1.31512">
        <ele>401.2</ele>
        <time>2024-06-23T11:00:04Z</time>
      </trkpt>
      <trkpt lat="43.0742" lon="1.31508">
        <ele>401.6</ele>
        <time>2024-06-23T11:00:05Z</time>
      </trkpt>
      <trkpt lat="43.07421" lon="1.31503">
        <ele>401.6</ele>
        <time>2024-06-23T11:00:06Z</time>
      </trkpt>
      <trkpt lat="43.07421" lon="1.31498">
        <ele>402</ele>
        <time>2024-06-23T11:00:07Z</time>
      </trkpt>
      <trkpt lat="43.07421" lon="1.31493">
        <ele>402.2</ele>
        <time>2024-06-23T11:00:08Z</time>
      </trkpt>
      <trkpt lat="43.07421" lon="1.31488">
        <ele>402.2</ele>
        <time>2024-06-23T11:00:09Z</time>
      </trkpt>
      <trkpt lat="43.0742" lon="1.31484">
        <ele>402.8</ele>
        <time>2024-06-23T11:00:10Z</time>
      </trkpt>
      <trkpt lat="43.07419" lon="1.31479">
        <ele>403</ele>
        <time>2024-06-23T11:00:11Z</time>
      </trkpt>
      <trkpt lat="43.07418" lon="1.31473">
        <ele>403</ele>
        <time>2024-06-23T11:00:12Z</time>
      </trkpt>
      <trkpt lat="43.07417" lon="1.31468">
        <ele>403.4</ele>
        <time>2024-06-23T11:00:13Z</time>
      </trkpt>
      <trkpt lat="43.07416" lon="1.31463">
        <ele>404.2</ele>
        <time>2024-06-23T11:00:14Z</time>
      </trkpt>
      <trkpt lat="43.07414" lon="1.31457">
        <ele>404.2</ele>
        <time>2024-06-23T11:00:15Z</time>
      </trkpt>
      <trkpt lat="43.07413" lon="1.31452">
        <ele>404.2</ele>
        <time>2024-06-23T11:00:16Z</time>
      </trkpt>
      <trkpt lat="43.07412" lon="1.31447">
        <ele>403.8</ele>
        <time>2024-06-23T11:00:17Z</time>
      </trkpt>
      <trkpt lat="43.07411" lon="1.31441">
        <ele>403.8</ele>
        <time>2024-06-23T11:00:18Z</time>
      </trkpt>
      <trkpt lat="43.07409" lon="1.31436">
        <ele>404</ele>
        <time>2024-06-23T11:00:19Z</time>
      </trkpt>
      <trkpt lat="43.07408" lon="1.3143">
        <ele>403.8</ele>
        <time>2024-06-23T11:00:20Z</time>
      </trkpt>
      <trkpt lat="43.07407" lon="1.31425">
        <ele>403.8</ele>
        <time>2024-06-23T11:00:21Z</time>
      </trkpt>
      <trkpt lat="43.07405" lon="1.3142">
        <ele>403.8</ele>
        <time>2024-06-23T11:00:22Z</time>
      </trkpt>
      <trkpt lat="43.07404" lon="1.31414">
        <ele>403.8</ele>
        <time>2024-06-23T11:00:23Z</time>
      </trkpt>
      <trkpt lat="43.07403" lon="1.31409">
        <ele>403.8</ele>
        <time>2024-06-23T11:00:24Z</time>
      </trkpt>
      <trkpt lat="43.07402" lon="1.31404">
        <ele>403.8</ele>
        <time>2024-06-23T11:00:25Z</time>
      </trkpt>
      <trkpt lat="43.074" lon="1.31398">
        <ele>404.4</ele>
        <time>2024-06-23T11:00:26Z</time>
      </trkpt>
      <trkpt lat="43.07399" lon="1.31393">
        <ele>404.6</ele>
        <time>2024-06-23T11:00:27Z</time>
      </trkpt>
      <trkpt lat="43.07399" lon="1.31393">
        <ele>404.6</ele>
        <time>2024-06-23T11:00:28Z</time>
      </trkpt>
      <trkpt lat="43.07398" lon="1.31387">
        <ele>404.6</ele>
        <time>2024-06-23T11:00:29Z</time>
      </trkpt>
      <trkpt lat="43.07397" lon="1.31382">
        <ele>404.6</ele>
        <time>2024-06-23T11:00:30Z</time>
      </trkpt>
      <trkpt lat="43.07397" lon="1.31377">
        <ele>405</ele>
        <time>2024-06-23T11:00:31Z</time>
      </trkpt>
      <trkpt lat="43.07396" lon="1.31372">
        <ele>405.4</ele>
        <time>2024-06-23T11:00:32Z</time>
      </trkpt>
      <trkpt lat="43.07395" lon="1.31367">
        <ele>405.8</ele>
        <time>2024-06-23T11:00:33Z</time>
      </trkpt>
      <trkpt lat="43.07394" lon="1.31362">
        <ele>406</ele>
        <time>2024-06-23T11:00:34Z</time>
      </trkpt>
      <trkpt lat="43.07394" lon="1.31356">
        <ele>406.4</ele>
        <time>2024-06-23T11:00:35Z</time>
      </trkpt>
      <trkpt lat="43.07393" lon="1.31352">
        <ele>406.4</ele>
        <time>2024-06-23T11:00:36Z</time>
      </trkpt>
      <trkpt lat="43.07393" lon="1.31348">
        <ele>406.6</ele>
        <time>2024-06-23T11:00:37Z</time>
      </trkpt>
      <trkpt lat="43.07392" lon="1.31344">
        <ele>406.6</ele>
        <time>2024-06-23T11:00:38Z</time>
      </trkpt>
      <trkpt lat="43.07392" lon="1.31339">
        <ele>407</ele>
        <time>2024-06-23T11:00:39Z</time>
      </trkpt>
      <trkpt lat="43.07393" lon="1.31335">
        <ele>407</ele>
        <time>2024-06-23T11:00:40Z</time>
      </trkpt>
      <trkpt lat="43.07393" lon="1.31332">
        <ele>407.2</ele>
        <time>2024-06-23T11:00:41Z</time>
      </trkpt>
      <trkpt lat="43.07393" lon="1.31327">
        <ele>407.4</ele>
        <time>2024-06-23T11:00:42Z</time>
      </trkpt>
      <trkpt lat="43.07393" lon="1.31322">
        <ele>407.4</ele>
        <time>2024-06-23T11:00:43Z</time>
      </trkpt>
      <trkpt lat="43.07393" lon="1.31318">
        <ele>407.8</ele>
        <time>2024-06-23T11:00:44Z</time>
      </trkpt>
      <trkpt lat="43.07393" lon="1.31314">
        <ele>407.8</ele>
        <time>2024-06-23T11:00:45Z</time>
      </trkpt>
      <trkpt lat="43.07392" lon="1.31308">
        <ele>408</ele>
        <time>2024-06-23T11:00:46Z</time>
      </trkpt>
      <trkpt lat="43.07392" lon="1.31303">
        <ele>408</ele>
        <time>2024-06-23T11:00:47Z</time>
      </trkpt>
      <trkpt lat="43.07391" lon="1.31298">
        <ele>408.4</ele>
        <time>2024-06-23T11:00:48Z</time>
      </trkpt>
      <trkpt lat="43.0739" lon="1.31293">
        <ele>408.8</ele>
        <time>2024-06-23T11:00:49Z</time>
      </trkpt>
      <trkpt lat="43.0739" lon="1.31289">
        <ele>409</ele>
        <time>2024-06-23T11:00:50Z</time>
      </trkpt>
      <trkpt lat="43.0739" lon="1.31284">
        <ele>409.2</ele>
        <time>2024-06-23T11:00:51Z</time>
      </trkpt>
      <trkpt lat="43.07389" lon="1.31279">
        <ele>409.4</ele>
        <time>2024-06-23T11:00:52Z</time>
      </trkpt>
      <trkpt lat="43.07389" lon="1.31275">
        <ele>409.4</ele>
        <time>2024-06-23T11:00:53Z</time>
      </trkpt>
      <trkpt lat="43.07388" lon="1.31271">
        <ele>409.6</ele>
        <time>2024-06-23T11:00:54Z</time>
      </trkpt>
      <trkpt lat="43.07387" lon="1.31266">
        <ele>410</ele>
        <time>2024-06-23T11:00:55Z</time>
      </trkpt>
      <trkpt lat="43.07386" lon="1.31262">
        <ele>410.2</ele>
        <time>2024-06-23T11:00:56Z</time>
      </trkpt>
      <trkpt lat="43.07385" lon="1.31259">
        <ele>410.2</ele>
        <time>2024-06-23T11:00:57Z</time>
      </trkpt>
      <trkpt lat="43.07383" lon="1.31255">
        <ele>410.4</ele>
        <time>2024-06-23T11:00:58Z</time>
      </trkpt>
      <trkpt lat="43.07381" lon="1.31249">
        <ele>410.6</ele>
        <time>2024-06-23T11:00:59Z</time>
      </trkpt>
      <trkpt lat="43.0738" lon="1.31244">
        <ele>411</ele>
        <time>2024-06-23T11:01:00Z</time>
      </trkpt>
      <trkpt lat="43.07379" lon="1.3124">
        <ele>411</ele>
        <time>2024-06-23T11:01:01Z</time>
      </trkpt>
      <trkpt lat="43.07378" lon="1.31236">
        <ele>411.2</ele>
        <time>2024-06-23T11:01:02Z</time>
      </trkpt>
      <trkpt lat="43.07378" lon="1.31231">
        <ele>411.4</ele>
        <time>2024-06-23T11:01:03Z</time>
      </trkpt>
      <trkpt lat="43.07377" lon="1.31227">
        <ele>411.4</ele>
        <time>2024-06-23T11:01:04Z</time>
      </trkpt>
      <trkpt lat="43.07377" lon="1.31223">
        <ele>411.8</ele>
        <time>2024-06-23T11:01:05Z</time>
      </trkpt>
      <trkpt lat="43.07377" lon="1.31218">
        <ele>412</ele>
        <time>2024-06-23T11:01:06Z</time>
      </trkpt>
      <trkpt lat="43.07378" lon="1.31215">
        <ele>412</ele>
        <time>2024-06-23T11:01:07Z</time>
      </trkpt>
      <trkpt lat="43.07378" lon="1.31211">
        <ele>412.4</ele>
        <time>2024-06-23T11:01:08Z</time>
      </trkpt>
      <trkpt lat="43.07379" lon="1.31206">
        <ele>412.6</ele>
        <time>2024-06-23T11:01:09Z</time>
      </trkpt>
      <trkpt lat="43.0738" lon="1.31202">
        <ele>412.8</ele>
        <time>2024-06-23T11:01:10Z</time>
      </trkpt>
      <trkpt lat="43.07381" lon="1.31198">
        <ele>412.8</ele>
        <time>2024-06-23T11:01:11Z</time>
      </trkpt>
      <trkpt lat="43.07382" lon="1.31193">
        <ele>413</ele>
        <time>2024-06-23T11:01:12Z</time>
      </trkpt>
      <trkpt lat="43.07383" lon="1.31189">
        <ele>413</ele>
        <time>2024-06-23T11:01:13Z</time>
      </trkpt>
      <trkpt lat="43.07384" lon="1.31186">
        <ele>413.4</ele>
        <time>2024-06-23T11:01:14Z</time>
      </trkpt>
      <trkpt lat="43.07384" lon="1.31182">
        <ele>413.4</ele>
        <time>2024-06-23T11:01:15Z</time>
      </trkpt>
      <trkpt lat="43.07385" lon="1.31178">
        <ele>413.8</ele>
        <time>2024-06-23T11:01:16Z</time>
      </trkpt>
      <trkpt lat="43.07385" lon="1.31174">
        <ele>413.8</ele>
        <time>2024-06-23T11:01:17Z</time>
      </trkpt>
      <trkpt lat="43.07386" lon="1.3117">
        <ele>414.2</ele>
        <time>2024-06-23T11:01:18Z</time>
      </trkpt>
      <trkpt lat="43.07386" lon="1.31166">
        <ele>414.2</ele>
        <time>2024-06-23T11:01:19Z</time>
      </trkpt>
      <trkpt lat="43.07387" lon="1.31163">
        <ele>414.4</ele>
        <time>2024-06-23T11:01:20Z</time>
      </trkpt>
      <trkpt lat="43.07387" lon="1.31159">
        <ele>414.4</ele>
        <time>2024-06-23T11:01:21Z</time>
      </trkpt>
      <trkpt lat="43.07388" lon="1.31155">
        <ele>414.8</ele>
        <time>2024-06-23T11:01:22Z</time>
      </trkpt>
      <trkpt lat="43.07388" lon="1.31151">
        <ele>414.8</ele>
        <time>2024-06-23T11:01:23Z</time>
      </trkpt>
      <trkpt lat="43.07388" lon="1.31146">
        <ele>415</ele>
        <time>2024-06-23T11:01:24Z</time>
      </trkpt>
      <trkpt lat="43.07388" lon="1.31142">
        <ele>415.4</ele>
        <time>2024-06-23T11:01:25Z</time>
      </trkpt>
      <trkpt lat="43.07388" lon="1.31137">
        <ele>415.8</ele>
        <time>2024-06-23T11:01:26Z</time>
      </trkpt>
      <trkpt lat="43.07388" lon="1.31133">
        <ele>416</ele>
        <time>2024-06-23T11:01:27Z</time>
      </trkpt>
      <trkpt lat="43.07388" lon="1.31129">
        <ele>416</ele>
        <time>2024-06-23T11:01:28Z</time>
      </trkpt>
      <trkpt lat="43.07387" lon="1.31125">
        <ele>416.4</ele>
        <time>2024-06-23T11:01:29Z</time>
      </trkpt>
      <trkpt lat="43.07386" lon="1.31121">
        <ele>416.4</ele>
        <time>2024-06-23T11:01:30Z</time>
      </trkpt>
      <trkpt lat="43.07384" lon="1.31117">
        <ele>416.8</ele>
        <time>2024-06-23T11:01:31Z</time>
      </trkpt>
      <trkpt lat="43.07383" lon="1.31114">
        <ele>417</ele>
        <time>2024-06-23T11:01:32Z</time>
      </trkpt>
      <trkpt lat="43.07382" lon="1.3111">
        <ele>417</ele>
        <time>2024-06-23T11:01:33Z</time>
      </trkpt>
      <trkpt lat="43.0738" lon="1.31107">
        <ele>417.4</ele>
        <time>2024-06-23T11:01:34Z</time>
      </trkpt>
      <trkpt lat="43.07378" lon="1.31104">
        <ele>417.8</ele>
        <time>2024-06-23T11:01:35Z</time>
      </trkpt>
      <trkpt lat="43.07376" lon="1.311">
        <ele>418</ele>
        <time>2024-06-23T11:01:36Z</time>
      </trkpt>
      <trkpt lat="43.07374" lon="1.31097">
        <ele>418</ele>
        <time>2024-06-23T11:01:37Z</time>
      </trkpt>
      <trkpt lat="43.07372" lon="1.31095">
        <ele>418.4</ele>
        <time>2024-06-23T11:01:38Z</time>
      </trkpt>
      <trkpt lat="43.07369" lon="1.31092">
        <ele>418.4</ele>
        <time>2024-06-23T11:01:39Z</time>
      </trkpt>
      <trkpt lat="43.07367" lon="1.3109">
        <ele>418.6</ele>
        <time>2024-06-23T11:01:40Z</time>
      </trkpt>
      <trkpt lat="43.07364" lon="1.31088">
        <ele>419</ele>
        <time>2024-06-23T11:01:41Z</time>
      </trkpt>
      <trkpt lat="43.07362" lon="1.31085">
        <ele>419.2</ele>
        <time>2024-06-23T11:01:42Z</time>
      </trkpt>
      <trkpt lat="43.0736" lon="1.31082">
        <ele>419.2</ele>
        <time>2024-06-23T11:01:43Z</time>
      </trkpt>
      <trkpt lat="43.07358" lon="1.31079">
        <ele>419.8</ele>
        <time>2024-06-23T11:01:44Z</time>
      </trkpt>
      <trkpt lat="43.07356" lon="1.31076">
        <ele>419.8</ele>
        <time>2024-06-23T11:01:45Z</time>
      </trkpt>
      <trkpt lat="43.07354" lon="1.31072">
        <ele>420.2</ele>
        <time>2024-06-23T11:01:46Z</time>
      </trkpt>
      <trkpt lat="43.07352" lon="1.31068">
        <ele>420.2</ele>
        <time>2024-06-23T11:01:47Z</time>
      </trkpt>
      <trkpt lat="43.07352" lon="1.31065">
        <ele>420.6</ele>
        <time>2024-06-23T11:01:48Z</time>
      </trkpt>
      <trkpt lat="43.07351" lon="1.31062">
        <ele>420.6</ele>
        <time>2024-06-23T11:01:49Z</time>
      </trkpt>
      <trkpt lat="43.07351" lon="1.31058">
        <ele>421</ele>
        <time>2024-06-23T11:01:50Z</time>
      </trkpt>
      <trkpt lat="43.07351" lon="1.31054">
        <ele>421</ele>
        <time>2024-06-23T11:01:51Z</time>
      </trkpt>
      <trkpt lat="43.07351" lon="1.31044">
        <ele>421.2</ele>
        <time>2024-06-23T11:01:52Z</time>
      </trkpt>
      <trkpt lat="43.0735" lon="1.31039">
        <ele>421.2</ele>
        <time>2024-06-23T11:01:53Z</time>
      </trkpt>
      <trkpt lat="43.0735" lon="1.31035">
        <ele>421.6</ele>
        <time>2024-06-23T11:01:54Z</time>
      </trkpt>
      <trkpt lat="43.0735" lon="1.31031">
        <ele>421.8</ele>
        <time>2024-06-23T11:01:55Z</time>
      </trkpt>
      <trkpt lat="43.07349" lon="1.31027">
        <ele>421.8</ele>
        <time>2024-06-23T11:01:56Z</time>
      </trkpt>
      <trkpt lat="43.07349" lon="1.31023">
        <ele>422.2</ele>
        <time>2024-06-23T11:01:57Z</time>
      </trkpt>
      <trkpt lat="43.07349" lon="1.31019">
        <ele>422.6</ele>
        <time>2024-06-23T11:01:58Z</time>
      </trkpt>
      <trkpt lat="43.07348" lon="1.31014">
        <ele>422.8</ele>
        <time>2024-06-23T11:01:59Z</time>
      </trkpt>
      <trkpt lat="43.07348" lon="1.3101">
        <ele>423.2</ele>
        <time>2024-06-23T11:02:00Z</time>
      </trkpt>
      <trkpt lat="43.07347" lon="1.31006">
        <ele>423.4</ele>
        <time>2024-06-23T11:02:01Z</time>
      </trkpt>
      <trkpt lat="43.07346" lon="1.31003">
        <ele>423.8</ele>
        <time>2024-06-23T11:02:02Z</time>
      </trkpt>
      <trkpt lat="43.07345" lon="1.30999">
        <ele>423.8</ele>
        <time>2024-06-23T11:02:03Z</time>
      </trkpt>
      <trkpt lat="43.07344" lon="1.30995">
        <ele>424</ele>
        <time>2024-06-23T11:02:04Z</time>
      </trkpt>
      <trkpt lat="43.07342" lon="1.30991">
        <ele>424.2</ele>
        <time>2024-06-23T11:02:05Z</time>
      </trkpt>
      <trkpt lat="43.07341" lon="1.30988">
        <ele>424.2</ele>
        <time>2024-06-23T11:02:06Z</time>
      </trkpt>
      <trkpt lat="43.07338" lon="1.30984">
        <ele>424.4</ele>
        <time>2024-06-23T11:02:07Z</time>
      </trkpt>
      <trkpt lat="43.07337" lon="1.30982">
        <ele>424.6</ele>
        <time>2024-06-23T11:02:08Z</time>
      </trkpt>
      <trkpt lat="43.07335" lon="1.30979">
        <ele>424.6</ele>
        <time>2024-06-23T11:02:09Z</time>
      </trkpt>
      <trkpt lat="43.07333" lon="1.30976">
        <ele>424.6</ele>
        <time>2024-06-23T11:02:10Z</time>
      </trkpt>
      <trkpt lat="43.07332" lon="1.30973">
        <ele>425</ele>
        <time>2024-06-23T11:02:11Z</time>
      </trkpt>
      <trkpt lat="43.0733" lon="1.30969">
        <ele>425.4</ele>
        <time>2024-06-23T11:02:12Z</time>
      </trkpt>
      <trkpt lat="43.07329" lon="1.30967">
        <ele>425.6</ele>
        <time>2024-06-23T11:02:13Z</time>
      </trkpt>
      <trkpt lat="43.07327" lon="1.30964">
        <ele>425.6</ele>
        <time>2024-06-23T11:02:14Z</time>
      </trkpt>
      <trkpt lat="43.07326" lon="1.30961">
        <ele>425.6</ele>
        <time>2024-06-23T11:02:15Z</time>
      </trkpt>
      <trkpt lat="43.07324" lon="1.30959">
        <ele>426</ele>
        <time>2024-06-23T11:02:16Z</time>
      </trkpt>
      <trkpt lat="43.07322" lon="1.30956">
        <ele>426</ele>
        <time>2024-06-23T11:02:17Z</time>
      </trkpt>
      <trkpt lat="43.0732" lon="1.30953">
        <ele>426.4</ele>
        <time>2024-06-23T11:02:18Z</time>
      </trkpt>
      <trkpt lat="43.07318" lon="1.30949">
        <ele>426.4</ele>
        <time>2024-06-23T11:02:19Z</time>
      </trkpt>
      <trkpt lat="43.07316" lon="1.30945">
        <ele>426.4</ele>
        <time>2024-06-23T11:02:20Z</time>
      </trkpt>
      <trkpt lat="43.07313" lon="1.30941">
        <ele>426.8</ele>
        <time>2024-06-23T11:02:21Z</time>
      </trkpt>
      <trkpt lat="43.07311" lon="1.30938">
        <ele>427.2</ele>
        <time>2024-06-23T11:02:22Z</time>
      </trkpt>
      <trkpt lat="43.0731" lon="1.30935">
        <ele>427.2</ele>
        <time>2024-06-23T11:02:23Z</time>
      </trkpt>
      <trkpt lat="43.07309" lon="1.30931">
        <ele>427.6</ele>
        <time>2024-06-23T11:02:24Z</time>
      </trkpt>
      <trkpt lat="43.07307" lon="1.30927">
        <ele>427.6</ele>
        <time>2024-06-23T11:02:25Z</time>
      </trkpt>
      <trkpt lat="43.07305" lon="1.30922">
        <ele>428</ele>
        <time>2024-06-23T11:02:26Z</time>
      </trkpt>
      <trkpt lat="43.07303" lon="1.30917">
        <ele>428</ele>
        <time>2024-06-23T11:02:27Z</time>
      </trkpt>
      <trkpt lat="43.07302" lon="1.30913">
        <ele>428</ele>
        <time>2024-06-23T11:02:28Z</time>
      </trkpt>
      <trkpt lat="43.073" lon="1.30909">
        <ele>428.4</ele>
        <time>2024-06-23T11:02:29Z</time>
      </trkpt>
      <trkpt lat="43.07299" lon="1.30905">
        <ele>428.4</ele>
        <time>2024-06-23T11:02:30Z</time>
      </trkpt>
      <trkpt lat="43.07298" lon="1.30901">
        <ele>428.8</ele>
        <time>2024-06-23T11:02:31Z</time>
      </trkpt>
      <trkpt lat="43.07297" lon="1.30897">
        <ele>429</ele>
        <time>2024-06-23T11:02:32Z</time>
      </trkpt>
      <trkpt lat="43.07295" lon="1.30893">
        <ele>429</ele>
        <time>2024-06-23T11:02:33Z</time>
      </trkpt>
      <trkpt lat="43.07294" lon="1.30889">
        <ele>429.2</ele>
        <time>2024-06-23T11:02:34Z</time>
      </trkpt>
      <trkpt lat="43.07292" lon="1.30886">
        <ele>429.2</ele>
        <time>2024-06-23T11:02:35Z</time>
      </trkpt>
      <trkpt lat="43.07291" lon="1.30884">
        <ele>429.2</ele>
        <time>2024-06-23T11:02:36Z</time>
      </trkpt>
      <trkpt lat="43.07289" lon="1.3088">
        <ele>429.2</ele>
        <time>2024-06-23T11:02:37Z</time>
      </trkpt>
      <trkpt lat="43.07288" lon="1.30876">
        <ele>429.4</ele>
        <time>2024-06-23T11:02:38Z</time>
      </trkpt>
      <trkpt lat="43.07286" lon="1.30872">
        <ele>429.4</ele>
        <time>2024-06-23T11:02:39Z</time>
      </trkpt>
      <trkpt lat="43.07284" lon="1.30869">
        <ele>430</ele>
        <time>2024-06-23T11:02:40Z</time>
      </trkpt>
      <trkpt lat="43.07282" lon="1.30865">
        <ele>430</ele>
        <time>2024-06-23T11:02:41Z</time>
      </trkpt>
      <trkpt lat="43.0728" lon="1.30862">
        <ele>430.6</ele>
        <time>2024-06-23T11:02:42Z</time>
      </trkpt>
      <trkpt lat="43.07279" lon="1.30858">
        <ele>431</ele>
        <time>2024-06-23T11:02:43Z</time>
      </trkpt>
      <trkpt lat="43.07277" lon="1.30853">
        <ele>431.2</ele>
        <time>2024-06-23T11:02:44Z</time>
      </trkpt>
      <trkpt lat="43.07276" lon="1.30849">
        <ele>431.4</ele>
        <time>2024-06-23T11:02:45Z</time>
      </trkpt>
      <trkpt lat="43.07274" lon="1.30846">
        <ele>431.6</ele>
        <time>2024-06-23T11:02:46Z</time>
      </trkpt>
      <trkpt lat="43.07273" lon="1.30842">
        <ele>431.6</ele>
        <time>2024-06-23T11:02:47Z</time>
      </trkpt>
      <trkpt lat="43.07271" lon="1.30838">
        <ele>431.6</ele>
        <time>2024-06-23T11:02:48Z</time>
      </trkpt>
      <trkpt lat="43.07269" lon="1.30834">
        <ele>432</ele>
        <time>2024-06-23T11:02:49Z</time>
      </trkpt>
      <trkpt lat="43.07268" lon="1.30831">
        <ele>432</ele>
        <time>2024-06-23T11:02:50Z</time>
      </trkpt>
      <trkpt lat="43.07266" lon="1.30828">
        <ele>432.4</ele>
        <time>2024-06-23T11:02:51Z</time>
      </trkpt>
      <trkpt lat="43.07264" lon="1.30825">
        <ele>432.4</ele>
        <time>2024-06-23T11:02:52Z</time>
      </trkpt>
      <trkpt lat="43.07263" lon="1.30822">
        <ele>432.8</ele>
        <time>2024-06-23T11:02:53Z</time>
      </trkpt>
      <trkpt lat="43.07262" lon="1.30819">
        <ele>433.2</ele>
        <time>2024-06-23T11:02:54Z</time>
      </trkpt>
      <trkpt lat="43.07261" lon="1.30816">
        <ele>433.2</ele>
        <time>2024-06-23T11:02:55Z</time>
      </trkpt>
      <trkpt lat="43.0726" lon="1.30812">
        <ele>433.6</ele>
        <time>2024-06-23T11:02:56Z</time>
      </trkpt>
      <trkpt lat="43.07258" lon="1.3081">
        <ele>433.8</ele>
        <time>2024-06-23T11:02:57Z</time>
      </trkpt>
      <trkpt lat="43.07257" lon="1.30806">
        <ele>434</ele>
        <time>2024-06-23T11:02:58Z</time>
      </trkpt>
      <trkpt lat="43.07254" lon="1.30803">
        <ele>434.2</ele>
        <time>2024-06-23T11:02:59Z</time>
      </trkpt>
      <trkpt lat="43.07251" lon="1.308">
        <ele>434.6</ele>
        <time>2024-06-23T11:03:00Z</time>
      </trkpt>
      <trkpt lat="43.07249" lon="1.30797">
        <ele>434.6</ele>
        <time>2024-06-23T11:03:01Z</time>
      </trkpt>
      <trkpt lat="43.07247" lon="1.30794">
        <ele>434.8</ele>
        <time>2024-06-23T11:03:02Z</time>
      </trkpt>
      <trkpt lat="43.07244" lon="1.3079">
        <ele>434.8</ele>
        <time>2024-06-23T11:03:03Z</time>
      </trkpt>
      <trkpt lat="43.07241" lon="1.30787">
        <ele>435</ele>
        <time>2024-06-23T11:03:04Z</time>
      </trkpt>
      <trkpt lat="43.07239" lon="1.30785">
        <ele>435</ele>
        <time>2024-06-23T11:03:05Z</time>
      </trkpt>
      <trkpt lat="43.07237" lon="1.30783">
        <ele>435</ele>
        <time>2024-06-23T11:03:06Z</time>
      </trkpt>
      <trkpt lat="43.07234" lon="1.3078">
        <ele>435.4</ele>
        <time>2024-06-23T11:03:07Z</time>
      </trkpt>
      <trkpt lat="43.07231" lon="1.30778">
        <ele>435.6</ele>
        <time>2024-06-23T11:03:08Z</time>
      </trkpt>
      <trkpt lat="43.07228" lon="1.30776">
        <ele>436</ele>
        <time>2024-06-23T11:03:09Z</time>
      </trkpt>
      <trkpt lat="43.07225" lon="1.30774">
        <ele>436</ele>
        <time>2024-06-23T11:03:10Z</time>
      </trkpt>
      <trkpt lat="43.07222" lon="1.30773">
        <ele>436</ele>
        <time>2024-06-23T11:03:11Z</time>
      </trkpt>
      <trkpt lat="43.07219" lon="1.30772">
        <ele>436.2</ele>
        <time>2024-06-23T11:03:12Z</time>
      </trkpt>
      <trkpt lat="43.07216" lon="1.30771">
        <ele>436.2</ele>
        <time>2024-06-23T11:03:13Z</time>
      </trkpt>
      <trkpt lat="43.07212" lon="1.30771">
        <ele>436.6</ele>
        <time>2024-06-23T11:03:14Z</time>
      </trkpt>
      <trkpt lat="43.07208" lon="1.30771">
        <ele>437</ele>
        <time>2024-06-23T11:03:15Z</time>
      </trkpt>
      <trkpt lat="43.07205" lon="1.3077">
        <ele>437</ele>
        <time>2024-06-23T11:03:16Z</time>
      </trkpt>
      <trkpt lat="43.07201" lon="1.3077">
        <ele>437</ele>
        <time>2024-06-23T11:03:17Z</time>
      </trkpt>
      <trkpt lat="43.07198" lon="1.30769">
        <ele>437</ele>
        <time>2024-06-23T11:03:18Z</time>
      </trkpt>
      <trkpt lat="43.07194" lon="1.30769">
        <ele>437.2</ele>
        <time>2024-06-23T11:03:19Z</time>
      </trkpt>
      <trkpt lat="43.0719" lon="1.30769">
        <ele>437.2</ele>
        <time>2024-06-23T11:03:20Z</time>
      </trkpt>
      <trkpt lat="43.07187" lon="1.3077">
        <ele>437.2</ele>
        <time>2024-06-23T11:03:21Z</time>
      </trkpt>
      <trkpt lat="43.07183" lon="1.3077">
        <ele>437.2</ele>
        <time>2024-06-23T11:03:22Z</time>
      </trkpt>
      <trkpt lat="43.07179" lon="1.30771">
        <ele>437.4</ele>
        <time>2024-06-23T11:03:23Z</time>
      </trkpt>
      <trkpt lat="43.07176" lon="1.30771">
        <ele>437.4</ele>
        <time>2024-06-23T11:03:24Z</time>
      </trkpt>
      <trkpt lat="43.07172" lon="1.30771">
        <ele>437.4</ele>
        <time>2024-06-23T11:03:25Z</time>
      </trkpt>
      <trkpt lat="43.07168" lon="1.30771">
        <ele>437.4</ele>
        <time>2024-06-23T11:03:26Z</time>
      </trkpt>
      <trkpt lat="43.07165" lon="1.30771">
        <ele>437.4</ele>
        <time>2024-06-23T11:03:27Z</time>
      </trkpt>
      <trkpt lat="43.07161" lon="1.30772">
        <ele>437.6</ele>
        <time>2024-06-23T11:03:28Z</time>
      </trkpt>
      <trkpt lat="43.07157" lon="1.30772">
        <ele>437.6</ele>
        <time>2024-06-23T11:03:29Z</time>
      </trkpt>
      <trkpt lat="43.07154" lon="1.30771">
        <ele>437.6</ele>
        <time>2024-06-23T11:03:30Z</time>
      </trkpt>
      <trkpt lat="43.0715" lon="1.30772">
        <ele>438</ele>
        <time>2024-06-23T11:03:31Z</time>
      </trkpt>
      <trkpt lat="43.07146" lon="1.30772">
        <ele>438</ele>
        <time>2024-06-23T11:03:32Z</time>
      </trkpt>
      <trkpt lat="43.07143" lon="1.30771">
        <ele>438.4</ele>
        <time>2024-06-23T11:03:33Z</time>
      </trkpt>
      <trkpt lat="43.0714" lon="1.30771">
        <ele>438.4</ele>
        <time>2024-06-23T11:03:34Z</time>
      </trkpt>
      <trkpt lat="43.07137" lon="1.3077">
        <ele>438.6</ele>
        <time>2024-06-23T11:03:35Z</time>
      </trkpt>
      <trkpt lat="43.07133" lon="1.30769">
        <ele>438.6</ele>
        <time>2024-06-23T11:03:36Z</time>
      </trkpt>
      <trkpt lat="43.0713" lon="1.3077">
        <ele>438.6</ele>
        <time>2024-06-23T11:03:37Z</time>
      </trkpt>
      <trkpt lat="43.07126" lon="1.3077">
        <ele>438.8</ele>
        <time>2024-06-23T11:03:38Z</time>
      </trkpt>
      <trkpt lat="43.07123" lon="1.3077">
        <ele>438.8</ele>
        <time>2024-06-23T11:03:39Z</time>
      </trkpt>
      <trkpt lat="43.0712" lon="1.3077">
        <ele>439</ele>
        <time>2024-06-23T11:03:40Z</time>
      </trkpt>
      <trkpt lat="43.07117" lon="1.3077">
        <ele>439.2</ele>
        <time>2024-06-23T11:03:41Z</time>
      </trkpt>
      <trkpt lat="43.07114" lon="1.3077">
        <ele>439.2</ele>
        <time>2024-06-23T11:03:42Z</time>
      </trkpt>
      <trkpt lat="43.0711" lon="1.30771">
        <ele>439.6</ele>
        <time>2024-06-23T11:03:43Z</time>
      </trkpt>
      <trkpt lat="43.07107" lon="1.30771">
        <ele>439.6</ele>
        <time>2024-06-23T11:03:44Z</time>
      </trkpt>
      <trkpt lat="43.07105" lon="1.30771">
        <ele>439.8</ele>
        <time>2024-06-23T11:03:45Z</time>
      </trkpt>
      <trkpt lat="43.07102" lon="1.3077">
        <ele>439.8</ele>
        <time>2024-06-23T11:03:46Z</time>
      </trkpt>
      <trkpt lat="43.07098" lon="1.30771">
        <ele>440.2</ele>
        <time>2024-06-23T11:03:47Z</time>
      </trkpt>
      <trkpt lat="43.07095" lon="1.30771">
        <ele>440.4</ele>
        <time>2024-06-23T11:03:48Z</time>
      </trkpt>
      <trkpt lat="43.07092" lon="1.30771">
        <ele>440.4</ele>
        <time>2024-06-23T11:03:49Z</time>
      </trkpt>
      <trkpt lat="43.07089" lon="1.3077">
        <ele>440.4</ele>
        <time>2024-06-23T11:03:50Z</time>
      </trkpt>
      <trkpt lat="43.07085" lon="1.3077">
        <ele>440.4</ele>
        <time>2024-06-23T11:03:51Z</time>
      </trkpt>
      <trkpt lat="43.07082" lon="1.30769">
        <ele>440.4</ele>
        <time>2024-06-23T11:03:52Z</time>
      </trkpt>
      <trkpt lat="43.07078" lon="1.30769">
        <ele>440.8</ele>
        <time>2024-06-23T11:03:53Z</time>
      </trkpt>
      <trkpt lat="43.07075" lon="1.30769">
        <ele>440.8</ele>
        <time>2024-06-23T11:03:54Z</time>
      </trkpt>
      <trkpt lat="43.07071" lon="1.30768">
        <ele>440.8</ele>
        <time>2024-06-23T11:03:55Z</time>
      </trkpt>
      <trkpt lat="43.07068" lon="1.30767">
        <ele>440.8</ele>
        <time>2024-06-23T11:03:56Z</time>
      </trkpt>
      <trkpt lat="43.07064" lon="1.30766">
        <ele>441</ele>
        <time>2024-06-23T11:03:57Z</time>
      </trkpt>
      <trkpt lat="43.07064" lon="1.30766">
        <ele>441</ele>
        <time>2024-06-23T11:03:58Z</time>
      </trkpt>
      <trkpt lat="43.07058" lon="1.30763">
        <ele>441</ele>
        <time>2024-06-23T11:03:59Z</time>
      </trkpt>
      <trkpt lat="43.07058" lon="1.30763">
        <ele>441.2</ele>
        <time>2024-06-23T11:04:00Z</time>
      </trkpt>
      <trkpt lat="43.07055" lon="1.30762">
        <ele>441.2</ele>
        <time>2024-06-23T11:04:01Z</time>
      </trkpt>
      <trkpt lat="43.07052" lon="1.3076">
        <ele>441.8</ele>
        <time>2024-06-23T11:04:02Z</time>
      </trkpt>
      <trkpt lat="43.0705" lon="1.30757">
        <ele>441.8</ele>
        <time>2024-06-23T11:04:03Z</time>
      </trkpt>
      <trkpt lat="43.07047" lon="1.30755">
        <ele>441.8</ele>
        <time>2024-06-23T11:04:04Z</time>
      </trkpt>
      <trkpt lat="43.07045" lon="1.30753">
        <ele>441.8</ele>
        <time>2024-06-23T11:04:05Z</time>
      </trkpt>
      <trkpt lat="43.07042" lon="1.3075">
        <ele>441.8</ele>
        <time>2024-06-23T11:04:06Z</time>
      </trkpt>
      <trkpt lat="43.0704" lon="1.30747">
        <ele>442</ele>
        <time>2024-06-23T11:04:07Z</time>
      </trkpt>
      <trkpt lat="43.07037" lon="1.30743">
        <ele>442.4</ele>
        <time>2024-06-23T11:04:08Z</time>
      </trkpt>
      <trkpt lat="43.07035" lon="1.3074">
        <ele>442.6</ele>
        <time>2024-06-23T11:04:09Z</time>
      </trkpt>
      <trkpt lat="43.07033" lon="1.30737">
        <ele>442.6</ele>
        <time>2024-06-23T11:04:10Z</time>
      </trkpt>
      <trkpt lat="43.07031" lon="1.30734">
        <ele>442.8</ele>
        <time>2024-06-23T11:04:11Z</time>
      </trkpt>
      <trkpt lat="43.07029" lon="1.30731">
        <ele>443</ele>
        <time>2024-06-23T11:04:12Z</time>
      </trkpt>
      <trkpt lat="43.07026" lon="1.30727">
        <ele>443</ele>
        <time>2024-06-23T11:04:13Z</time>
      </trkpt>
      <trkpt lat="43.07024" lon="1.30724">
        <ele>443.4</ele>
        <time>2024-06-23T11:04:14Z</time>
      </trkpt>
      <trkpt lat="43.07021" lon="1.30721">
        <ele>443.4</ele>
        <time>2024-06-23T11:04:15Z</time>
      </trkpt>
      <trkpt lat="43.07019" lon="1.30718">
        <ele>443.8</ele>
        <time>2024-06-23T11:04:16Z</time>
      </trkpt>
      <trkpt lat="43.07018" lon="1.30717">
        <ele>443.8</ele>
        <time>2024-06-23T11:04:17Z</time>
      </trkpt>
      <trkpt lat="43.07016" lon="1.30716">
        <ele>444.2</ele>
        <time>2024-06-23T11:04:18Z</time>
      </trkpt>
      <trkpt lat="43.07014" lon="1.30714">
        <ele>444.6</ele>
        <time>2024-06-23T11:04:19Z</time>
      </trkpt>
      <trkpt lat="43.07011" lon="1.30712">
        <ele>444.6</ele>
        <time>2024-06-23T11:04:20Z</time>
      </trkpt>
      <trkpt lat="43.07007" lon="1.30711">
        <ele>444.6</ele>
        <time>2024-06-23T11:04:21Z</time>
      </trkpt>
      <trkpt lat="43.07003" lon="1.30709">
        <ele>444.8</ele>
        <time>2024-06-23T11:04:22Z</time>
      </trkpt>
      <trkpt lat="43.07" lon="1.30708">
        <ele>444.8</ele>
        <time>2024-06-23T11:04:23Z</time>
      </trkpt>
      <trkpt lat="43.06997" lon="1.30707">
        <ele>444.8</ele>
        <time>2024-06-23T11:04:24Z</time>
      </trkpt>
      <trkpt lat="43.06994" lon="1.30706">
        <ele>445.2</ele>
        <time>2024-06-23T11:04:25Z</time>
      </trkpt>
      <trkpt lat="43.0699" lon="1.30704">
        <ele>445.4</ele>
        <time>2024-06-23T11:04:26Z</time>
      </trkpt>
      <trkpt lat="43.06987" lon="1.30702">
        <ele>445.4</ele>
        <time>2024-06-23T11:04:27Z</time>
      </trkpt>
      <trkpt lat="43.06984" lon="1.30699">
        <ele>445.6</ele>
        <time>2024-06-23T11:04:28Z</time>
      </trkpt>
      <trkpt lat="43.06981" lon="1.30696">
        <ele>445.6</ele>
        <time>2024-06-23T11:04:29Z</time>
      </trkpt>
      <trkpt lat="43.06979" lon="1.30693">
        <ele>445.6</ele>
        <time>2024-06-23T11:04:30Z</time>
      </trkpt>
      <trkpt lat="43.06977" lon="1.30689">
        <ele>445.8</ele>
        <time>2024-06-23T11:04:31Z</time>
      </trkpt>
      <trkpt lat="43.06975" lon="1.30685">
        <ele>445.8</ele>
        <time>2024-06-23T11:04:32Z</time>
      </trkpt>
      <trkpt lat="43.06973" lon="1.30681">
        <ele>446.2</ele>
        <time>2024-06-23T11:04:33Z</time>
      </trkpt>
      <trkpt lat="43.06972" lon="1.30676">
        <ele>446.2</ele>
        <time>2024-06-23T11:04:34Z</time>
      </trkpt>
      <trkpt lat="43.06971" lon="1.30671">
        <ele>446.2</ele>
        <time>2024-06-23T11:04:35Z</time>
      </trkpt>
      <trkpt lat="43.06971" lon="1.30667">
        <ele>446.4</ele>
        <time>2024-06-23T11:04:36Z</time>
      </trkpt>
      <trkpt lat="43.0697" lon="1.30663">
        <ele>446.4</ele>
        <time>2024-06-23T11:04:37Z</time>
      </trkpt>
      <trkpt lat="43.06969" lon="1.30658">
        <ele>446.4</ele>
        <time>2024-06-23T11:04:38Z</time>
      </trkpt>
      <trkpt lat="43.06969" lon="1.30654">
        <ele>446.8</ele>
        <time>2024-06-23T11:04:39Z</time>
      </trkpt>
      <trkpt lat="43.06968" lon="1.30651">
        <ele>447</ele>
        <time>2024-06-23T11:04:40Z</time>
      </trkpt>
      <trkpt lat="43.06968" lon="1.30648">
        <ele>447.2</ele>
        <time>2024-06-23T11:04:41Z</time>
      </trkpt>
      <trkpt lat="43.06968" lon="1.30644">
        <ele>447.4</ele>
        <time>2024-06-23T11:04:42Z</time>
      </trkpt>
      <trkpt lat="43.06967" lon="1.3064">
        <ele>447.8</ele>
        <time>2024-06-23T11:04:43Z</time>
      </trkpt>
      <trkpt lat="43.06967" lon="1.30637">
        <ele>448</ele>
        <time>2024-06-23T11:04:44Z</time>
      </trkpt>
      <trkpt lat="43.06966" lon="1.30633">
        <ele>448.2</ele>
        <time>2024-06-23T11:04:45Z</time>
      </trkpt>
      <trkpt lat="43.06965" lon="1.30629">
        <ele>448.2</ele>
        <time>2024-06-23T11:04:46Z</time>
      </trkpt>
      <trkpt lat="43.06964" lon="1.30625">
        <ele>448.4</ele>
        <time>2024-06-23T11:04:47Z</time>
      </trkpt>
      <trkpt lat="43.06962" lon="1.30621">
        <ele>448.6</ele>
        <time>2024-06-23T11:04:48Z</time>
      </trkpt>
      <trkpt lat="43.0696" lon="1.30618">
        <ele>448.8</ele>
        <time>2024-06-23T11:04:49Z</time>
      </trkpt>
      <trkpt lat="43.06958" lon="1.30615">
        <ele>448.8</ele>
        <time>2024-06-23T11:04:50Z</time>
      </trkpt>
      <trkpt lat="43.06955" lon="1.30612">
        <ele>449.4</ele>
        <time>2024-06-23T11:04:51Z</time>
      </trkpt>
      <trkpt lat="43.06952" lon="1.30611">
        <ele>449.8</ele>
        <time>2024-06-23T11:04:52Z</time>
      </trkpt>
      <trkpt lat="43.06949" lon="1.30611">
        <ele>450</ele>
        <time>2024-06-23T11:04:53Z</time>
      </trkpt>
      <trkpt lat="43.06946" lon="1.30611">
        <ele>450</ele>
        <time>2024-06-23T11:04:54Z</time>
      </trkpt>
      <trkpt lat="43.06943" lon="1.30611">
        <ele>450.6</ele>
        <time>2024-06-23T11:04:55Z</time>
      </trkpt>
      <trkpt lat="43.06941" lon="1.30612">
        <ele>450.8</ele>
        <time>2024-06-23T11:04:56Z</time>
      </trkpt>
      <trkpt lat="43.06939" lon="1.30612">
        <ele>450.8</ele>
        <time>2024-06-23T11:04:57Z</time>
      </trkpt>
      <trkpt lat="43.06936" lon="1.30613">
        <ele>451.2</ele>
        <time>2024-06-23T11:04:58Z</time>
      </trkpt>
      <trkpt lat="43.06933" lon="1.30613">
        <ele>451.4</ele>
        <time>2024-06-23T11:04:59Z</time>
      </trkpt>
      <trkpt lat="43.06931" lon="1.30614">
        <ele>451.6</ele>
        <time>2024-06-23T11:05:00Z</time>
      </trkpt>
      <trkpt lat="43.06929" lon="1.30615">
        <ele>451.6</ele>
        <time>2024-06-23T11:05:01Z</time>
      </trkpt>
      <trkpt lat="43.06926" lon="1.30616">
        <ele>452</ele>
        <time>2024-06-23T11:05:02Z</time>
      </trkpt>
      <trkpt lat="43.06923" lon="1.30616">
        <ele>452</ele>
        <time>2024-06-23T11:05:03Z</time>
      </trkpt>
      <trkpt lat="43.06921" lon="1.30617">
        <ele>452.4</ele>
        <time>2024-06-23T11:05:04Z</time>
      </trkpt>
      <trkpt lat="43.06918" lon="1.30617">
        <ele>452.8</ele>
        <time>2024-06-23T11:05:05Z</time>
      </trkpt>
      <trkpt lat="43.06916" lon="1.30617">
        <ele>452.8</ele>
        <time>2024-06-23T11:05:06Z</time>
      </trkpt>
      <trkpt lat="43.06913" lon="1.30617">
        <ele>453.2</ele>
        <time>2024-06-23T11:05:07Z</time>
      </trkpt>
      <trkpt lat="43.0691" lon="1.30618">
        <ele>453.2</ele>
        <time>2024-06-23T11:05:08Z</time>
      </trkpt>
      <trkpt lat="43.06908" lon="1.30618">
        <ele>453.4</ele>
        <time>2024-06-23T11:05:09Z</time>
      </trkpt>
      <trkpt lat="43.06905" lon="1.30618">
        <ele>453.4</ele>
        <time>2024-06-23T11:05:10Z</time>
      </trkpt>
      <trkpt lat="43.06902" lon="1.30618">
        <ele>454</ele>
        <time>2024-06-23T11:05:11Z</time>
      </trkpt>
      <trkpt lat="43.069" lon="1.30618">
        <ele>454.4</ele>
        <time>2024-06-23T11:05:12Z</time>
      </trkpt>
      <trkpt lat="43.06898" lon="1.30618">
        <ele>454.4</ele>
        <time>2024-06-23T11:05:13Z</time>
      </trkpt>
      <trkpt lat="43.06895" lon="1.30617">
        <ele>454.4</ele>
        <time>2024-06-23T11:05:14Z</time>
      </trkpt>
      <trkpt lat="43.06892" lon="1.30616">
        <ele>454.6</ele>
        <time>2024-06-23T11:05:15Z</time>
      </trkpt>
      <trkpt lat="43.06889" lon="1.30615">
        <ele>454.6</ele>
        <time>2024-06-23T11:05:16Z</time>
      </trkpt>
      <trkpt lat="43.06887" lon="1.30614">
        <ele>455</ele>
        <time>2024-06-23T11:05:17Z</time>
      </trkpt>
      <trkpt lat="43.06884" lon="1.30612">
        <ele>455</ele>
        <time>2024-06-23T11:05:18Z</time>
      </trkpt>
      <trkpt lat="43.06881" lon="1.30611">
        <ele>455.4</ele>
        <time>2024-06-23T11:05:19Z</time>
      </trkpt>
      <trkpt lat="43.06879" lon="1.3061">
        <ele>455.6</ele>
        <time>2024-06-23T11:05:20Z</time>
      </trkpt>
      <trkpt lat="43.06877" lon="1.30608">
        <ele>455.6</ele>
        <time>2024-06-23T11:05:21Z</time>
      </trkpt>
      <trkpt lat="43.06874" lon="1.30606">
        <ele>455.8</ele>
        <time>2024-06-23T11:05:22Z</time>
      </trkpt>
      <trkpt lat="43.06871" lon="1.30604">
        <ele>455.8</ele>
        <time>2024-06-23T11:05:23Z</time>
      </trkpt>
      <trkpt lat="43.0687" lon="1.30602">
        <ele>456.2</ele>
        <time>2024-06-23T11:05:24Z</time>
      </trkpt>
      <trkpt lat="43.06866" lon="1.30597">
        <ele>456.4</ele>
        <time>2024-06-23T11:05:25Z</time>
      </trkpt>
      <trkpt lat="43.06864" lon="1.30594">
        <ele>456.4</ele>
        <time>2024-06-23T11:05:26Z</time>
      </trkpt>
      <trkpt lat="43.06862" lon="1.30591">
        <ele>456.8</ele>
        <time>2024-06-23T11:05:27Z</time>
      </trkpt>
      <trkpt lat="43.06861" lon="1.30588">
        <ele>456.8</ele>
        <time>2024-06-23T11:05:28Z</time>
      </trkpt>
      <trkpt lat="43.06859" lon="1.30584">
        <ele>457.2</ele>
        <time>2024-06-23T11:05:29Z</time>
      </trkpt>
      <trkpt lat="43.06858" lon="1.30581">
        <ele>457.2</ele>
        <time>2024-06-23T11:05:30Z</time>
      </trkpt>
      <trkpt lat="43.06857" lon="1.30578">
        <ele>457.2</ele>
        <time>2024-06-23T11:05:31Z</time>
      </trkpt>
      <trkpt lat="43.06856" lon="1.30574">
        <ele>457.6</ele>
        <time>2024-06-23T11:05:32Z</time>
      </trkpt>
      <trkpt lat="43.06854" lon="1.3057">
        <ele>457.6</ele>
        <time>2024-06-23T11:05:33Z</time>
      </trkpt>
      <trkpt lat="43.06853" lon="1.30567">
        <ele>457.6</ele>
        <time>2024-06-23T11:05:34Z</time>
      </trkpt>
      <trkpt lat="43.06851" lon="1.30563">
        <ele>458</ele>
        <time>2024-06-23T11:05:35Z</time>
      </trkpt>
      <trkpt lat="43.0685" lon="1.30559">
        <ele>458.2</ele>
        <time>2024-06-23T11:05:36Z</time>
      </trkpt>
      <trkpt lat="43.06849" lon="1.30555">
        <ele>458.2</ele>
        <time>2024-06-23T11:05:37Z</time>
      </trkpt>
      <trkpt lat="43.06848" lon="1.30552">
        <ele>458.6</ele>
        <time>2024-06-23T11:05:38Z</time>
      </trkpt>
      <trkpt lat="43.06846" lon="1.30549">
        <ele>458.8</ele>
        <time>2024-06-23T11:05:39Z</time>
      </trkpt>
      <trkpt lat="43.06845" lon="1.30545">
        <ele>458.8</ele>
        <time>2024-06-23T11:05:40Z</time>
      </trkpt>
      <trkpt lat="43.06844" lon="1.30541">
        <ele>459.2</ele>
        <time>2024-06-23T11:05:41Z</time>
      </trkpt>
      <trkpt lat="43.06844" lon="1.30538">
        <ele>459.4</ele>
        <time>2024-06-23T11:05:42Z</time>
      </trkpt>
      <trkpt lat="43.06843" lon="1.30534">
        <ele>459.4</ele>
        <time>2024-06-23T11:05:43Z</time>
      </trkpt>
      <trkpt lat="43.06842" lon="1.30531">
        <ele>459.6</ele>
        <time>2024-06-23T11:05:44Z</time>
      </trkpt>
      <trkpt lat="43.0684" lon="1.30527">
        <ele>459.6</ele>
        <time>2024-06-23T11:05:45Z</time>
      </trkpt>
      <trkpt lat="43.06839" lon="1.30524">
        <ele>460</ele>
        <time>2024-06-23T11:05:46Z</time>
      </trkpt>
      <trkpt lat="43.06838" lon="1.30521">
        <ele>460</ele>
        <time>2024-06-23T11:05:47Z</time>
      </trkpt>
      <trkpt lat="43.06837" lon="1.30517">
        <ele>460</ele>
        <time>2024-06-23T11:05:48Z</time>
      </trkpt>
      <trkpt lat="43.06836" lon="1.30513">
        <ele>460.4</ele>
        <time>2024-06-23T11:05:49Z</time>
      </trkpt>
      <trkpt lat="43.06835" lon="1.30509">
        <ele>460.4</ele>
        <time>2024-06-23T11:05:50Z</time>
      </trkpt>
      <trkpt lat="43.06834" lon="1.30505">
        <ele>460.6</ele>
        <time>2024-06-23T11:05:51Z</time>
      </trkpt>
      <trkpt lat="43.06833" lon="1.30502">
        <ele>460.6</ele>
        <time>2024-06-23T11:05:52Z</time>
      </trkpt>
      <trkpt lat="43.06832" lon="1.30498">
        <ele>461</ele>
        <time>2024-06-23T11:05:53Z</time>
      </trkpt>
      <trkpt lat="43.06831" lon="1.30494">
        <ele>461.4</ele>
        <time>2024-06-23T11:05:54Z</time>
      </trkpt>
      <trkpt lat="43.0683" lon="1.30491">
        <ele>461.6</ele>
        <time>2024-06-23T11:05:55Z</time>
      </trkpt>
      <trkpt lat="43.06829" lon="1.30487">
        <ele>462</ele>
        <time>2024-06-23T11:05:56Z</time>
      </trkpt>
      <trkpt lat="43.06828" lon="1.30483">
        <ele>462.2</ele>
        <time>2024-06-23T11:05:57Z</time>
      </trkpt>
      <trkpt lat="43.06827" lon="1.30479">
        <ele>462.2</ele>
        <time>2024-06-23T11:05:58Z</time>
      </trkpt>
      <trkpt lat="43.06826" lon="1.30476">
        <ele>462.6</ele>
        <time>2024-06-23T11:05:59Z</time>
      </trkpt>
      <trkpt lat="43.06825" lon="1.30472">
        <ele>462.6</ele>
        <time>2024-06-23T11:06:00Z</time>
      </trkpt>
      <trkpt lat="43.06825" lon="1.30468">
        <ele>462.8</ele>
        <time>2024-06-23T11:06:01Z</time>
      </trkpt>
      <trkpt lat="43.06824" lon="1.30464">
        <ele>463.2</ele>
        <time>2024-06-23T11:06:02Z</time>
      </trkpt>
      <trkpt lat="43.06823" lon="1.3046">
        <ele>463.2</ele>
        <time>2024-06-23T11:06:03Z</time>
      </trkpt>
      <trkpt lat="43.06823" lon="1.30456">
        <ele>463.6</ele>
        <time>2024-06-23T11:06:04Z</time>
      </trkpt>
      <trkpt lat="43.06822" lon="1.30452">
        <ele>463.6</ele>
        <time>2024-06-23T11:06:05Z</time>
      </trkpt>
      <trkpt lat="43.06822" lon="1.30448">
        <ele>463.8</ele>
        <time>2024-06-23T11:06:06Z</time>
      </trkpt>
      <trkpt lat="43.06822" lon="1.30444">
        <ele>463.8</ele>
        <time>2024-06-23T11:06:07Z</time>
      </trkpt>
      <trkpt lat="43.06822" lon="1.30439">
        <ele>463.8</ele>
        <time>2024-06-23T11:06:08Z</time>
      </trkpt>
      <trkpt lat="43.06822" lon="1.30435">
        <ele>464.2</ele>
        <time>2024-06-23T11:06:09Z</time>
      </trkpt>
      <trkpt lat="43.06821" lon="1.3043">
        <ele>464.4</ele>
        <time>2024-06-23T11:06:10Z</time>
      </trkpt>
      <trkpt lat="43.06821" lon="1.30426">
        <ele>464.4</ele>
        <time>2024-06-23T11:06:11Z</time>
      </trkpt>
      <trkpt lat="43.06821" lon="1.30422">
        <ele>464.8</ele>
        <time>2024-06-23T11:06:12Z</time>
      </trkpt>
      <trkpt lat="43.06821" lon="1.30418">
        <ele>464.8</ele>
        <time>2024-06-23T11:06:13Z</time>
      </trkpt>
      <trkpt lat="43.0682" lon="1.30414">
        <ele>465</ele>
        <time>2024-06-23T11:06:14Z</time>
      </trkpt>
      <trkpt lat="43.0682" lon="1.3041">
        <ele>465</ele>
        <time>2024-06-23T11:06:15Z</time>
      </trkpt>
      <trkpt lat="43.0682" lon="1.30406">
        <ele>465.4</ele>
        <time>2024-06-23T11:06:16Z</time>
      </trkpt>
      <trkpt lat="43.0682" lon="1.30401">
        <ele>465.8</ele>
        <time>2024-06-23T11:06:17Z</time>
      </trkpt>
      <trkpt lat="43.06819" lon="1.30397">
        <ele>466</ele>
        <time>2024-06-23T11:06:18Z</time>
      </trkpt>
      <trkpt lat="43.06819" lon="1.30393">
        <ele>466</ele>
        <time>2024-06-23T11:06:19Z</time>
      </trkpt>
      <trkpt lat="43.0682" lon="1.30389">
        <ele>466</ele>
        <time>2024-06-23T11:06:20Z</time>
      </trkpt>
      <trkpt lat="43.0682" lon="1.30384">
        <ele>466</ele>
        <time>2024-06-23T11:06:21Z</time>
      </trkpt>
      <trkpt lat="43.06819" lon="1.30379">
        <ele>466.4</ele>
        <time>2024-06-23T11:06:22Z</time>
      </trkpt>
      <trkpt lat="43.06819" lon="1.30376">
        <ele>466.4</ele>
        <time>2024-06-23T11:06:23Z</time>
      </trkpt>
      <trkpt lat="43.06818" lon="1.30372">
        <ele>466.4</ele>
        <time>2024-06-23T11:06:24Z</time>
      </trkpt>
      <trkpt lat="43.06817" lon="1.30369">
        <ele>466.4</ele>
        <time>2024-06-23T11:06:25Z</time>
      </trkpt>
      <trkpt lat="43.06816" lon="1.30365">
        <ele>466.6</ele>
        <time>2024-06-23T11:06:26Z</time>
      </trkpt>
      <trkpt lat="43.06814" lon="1.30362">
        <ele>466.8</ele>
        <time>2024-06-23T11:06:27Z</time>
      </trkpt>
      <trkpt lat="43.06812" lon="1.30359">
        <ele>467</ele>
        <time>2024-06-23T11:06:28Z</time>
      </trkpt>
      <trkpt lat="43.06811" lon="1.30357">
        <ele>467</ele>
        <time>2024-06-23T11:06:29Z</time>
      </trkpt>
      <trkpt lat="43.06809" lon="1.30355">
        <ele>467.4</ele>
        <time>2024-06-23T11:06:30Z</time>
      </trkpt>
      <trkpt lat="43.06807" lon="1.30354">
        <ele>467.4</ele>
        <time>2024-06-23T11:06:31Z</time>
      </trkpt>
      <trkpt lat="43.06803" lon="1.30353">
        <ele>467.6</ele>
        <time>2024-06-23T11:06:32Z</time>
      </trkpt>
      <trkpt lat="43.068" lon="1.30352">
        <ele>467.6</ele>
        <time>2024-06-23T11:06:33Z</time>
      </trkpt>
      <trkpt lat="43.06797" lon="1.30352">
        <ele>467.6</ele>
        <time>2024-06-23T11:06:34Z</time>
      </trkpt>
      <trkpt lat="43.06794" lon="1.30353">
        <ele>467.6</ele>
        <time>2024-06-23T11:06:35Z</time>
      </trkpt>
      <trkpt lat="43.06791" lon="1.30353">
        <ele>468.2</ele>
        <time>2024-06-23T11:06:36Z</time>
      </trkpt>
      <trkpt lat="43.06788" lon="1.30354">
        <ele>468.4</ele>
        <time>2024-06-23T11:06:37Z</time>
      </trkpt>
      <trkpt lat="43.06785" lon="1.30354">
        <ele>468.6</ele>
        <time>2024-06-23T11:06:38Z</time>
      </trkpt>
      <trkpt lat="43.06782" lon="1.30354">
        <ele>468.6</ele>
        <time>2024-06-23T11:06:39Z</time>
      </trkpt>
      <trkpt lat="43.0678" lon="1.30354">
        <ele>469</ele>
        <time>2024-06-23T11:06:40Z</time>
      </trkpt>
      <trkpt lat="43.06779" lon="1.30354">
        <ele>469.2</ele>
        <time>2024-06-23T11:06:41Z</time>
      </trkpt>
      <trkpt lat="43.06777" lon="1.30353">
        <ele>469.4</ele>
        <time>2024-06-23T11:06:42Z</time>
      </trkpt>
      <trkpt lat="43.06774" lon="1.30351">
        <ele>469.4</ele>
        <time>2024-06-23T11:06:43Z</time>
      </trkpt>
      <trkpt lat="43.06773" lon="1.30349">
        <ele>470</ele>
        <time>2024-06-23T11:06:44Z</time>
      </trkpt>
      <trkpt lat="43.06772" lon="1.30347">
        <ele>470.2</ele>
        <time>2024-06-23T11:06:45Z</time>
      </trkpt>
      <trkpt lat="43.06771" lon="1.30344">
        <ele>470.8</ele>
        <time>2024-06-23T11:06:46Z</time>
      </trkpt>
      <trkpt lat="43.06769" lon="1.30341">
        <ele>471.2</ele>
        <time>2024-06-23T11:06:47Z</time>
      </trkpt>
      <trkpt lat="43.06768" lon="1.30337">
        <ele>471.4</ele>
        <time>2024-06-23T11:06:48Z</time>
      </trkpt>
      <trkpt lat="43.06767" lon="1.30335">
        <ele>471.8</ele>
        <time>2024-06-23T11:06:49Z</time>
      </trkpt>
      <trkpt lat="43.06766" lon="1.30332">
        <ele>472</ele>
        <time>2024-06-23T11:06:50Z</time>
      </trkpt>
      <trkpt lat="43.06764" lon="1.30329">
        <ele>472.2</ele>
        <time>2024-06-23T11:06:51Z</time>
      </trkpt>
      <trkpt lat="43.06763" lon="1.30326">
        <ele>472.2</ele>
        <time>2024-06-23T11:06:52Z</time>
      </trkpt>
      <trkpt lat="43.06762" lon="1.30323">
        <ele>473</ele>
        <time>2024-06-23T11:06:53Z</time>
      </trkpt>
      <trkpt lat="43.06761" lon="1.30321">
        <ele>473.2</ele>
        <time>2024-06-23T11:06:54Z</time>
      </trkpt>
      <trkpt lat="43.06761" lon="1.30318">
        <ele>473.2</ele>
        <time>2024-06-23T11:06:55Z</time>
      </trkpt>
      <trkpt lat="43.0676" lon="1.30315">
        <ele>473.6</ele>
        <time>2024-06-23T11:06:56Z</time>
      </trkpt>
      <trkpt lat="43.0676" lon="1.30312">
        <ele>473.8</ele>
        <time>2024-06-23T11:06:57Z</time>
      </trkpt>
      <trkpt lat="43.0676" lon="1.3031">
        <ele>473.8</ele>
        <time>2024-06-23T11:06:58Z</time>
      </trkpt>
      <trkpt lat="43.0676" lon="1.30308">
        <ele>474</ele>
        <time>2024-06-23T11:06:59Z</time>
      </trkpt>
      <trkpt lat="43.0676" lon="1.30307">
        <ele>474.4</ele>
        <time>2024-06-23T11:07:00Z</time>
      </trkpt>
      <trkpt lat="43.06761" lon="1.30305">
        <ele>474.6</ele>
        <time>2024-06-23T11:07:01Z</time>
      </trkpt>
      <trkpt lat="43.06762" lon="1.30302">
        <ele>474.6</ele>
        <time>2024-06-23T11:07:02Z</time>
      </trkpt>
      <trkpt lat="43.06763" lon="1.30297">
        <ele>475</ele>
        <time>2024-06-23T11:07:03Z</time>
      </trkpt>
      <trkpt lat="43.06763" lon="1.30293">
        <ele>475.2</ele>
        <time>2024-06-23T11:07:04Z</time>
      </trkpt>
      <trkpt lat="43.06762" lon="1.3029">
        <ele>475.2</ele>
        <time>2024-06-23T11:07:05Z</time>
      </trkpt>
      <trkpt lat="43.06762" lon="1.30286">
        <ele>475.4</ele>
        <time>2024-06-23T11:07:06Z</time>
      </trkpt>
      <trkpt lat="43.06763" lon="1.30282">
        <ele>475.4</ele>
        <time>2024-06-23T11:07:07Z</time>
      </trkpt>
      <trkpt lat="43.06763" lon="1.30279">
        <ele>475.8</ele>
        <time>2024-06-23T11:07:08Z</time>
      </trkpt>
      <trkpt lat="43.06763" lon="1.30274">
        <ele>475.8</ele>
        <time>2024-06-23T11:07:09Z</time>
      </trkpt>
      <trkpt lat="43.06763" lon="1.3027">
        <ele>476.2</ele>
        <time>2024-06-23T11:07:10Z</time>
      </trkpt>
      <trkpt lat="43.06763" lon="1.30267">
        <ele>476.2</ele>
        <time>2024-06-23T11:07:11Z</time>
      </trkpt>
      <trkpt lat="43.06763" lon="1.30263">
        <ele>476.4</ele>
        <time>2024-06-23T11:07:12Z</time>
      </trkpt>
      <trkpt lat="43.06764" lon="1.3026">
        <ele>476.4</ele>
        <time>2024-06-23T11:07:13Z</time>
      </trkpt>
      <trkpt lat="43.06764" lon="1.30255">
        <ele>476.8</ele>
        <time>2024-06-23T11:07:14Z</time>
      </trkpt>
      <trkpt lat="43.06764" lon="1.30251">
        <ele>476.8</ele>
        <time>2024-06-23T11:07:15Z</time>
      </trkpt>
      <trkpt lat="43.06764" lon="1.30247">
        <ele>477</ele>
        <time>2024-06-23T11:07:16Z</time>
      </trkpt>
      <trkpt lat="43.06764" lon="1.30244">
        <ele>477</ele>
        <time>2024-06-23T11:07:17Z</time>
      </trkpt>
      <trkpt lat="43.06764" lon="1.3024">
        <ele>477.6</ele>
        <time>2024-06-23T11:07:18Z</time>
      </trkpt>
      <trkpt lat="43.06763" lon="1.30236">
        <ele>477.8</ele>
        <time>2024-06-23T11:07:19Z</time>
      </trkpt>
      <trkpt lat="43.06763" lon="1.30232">
        <ele>478</ele>
        <time>2024-06-23T11:07:20Z</time>
      </trkpt>
      <trkpt lat="43.06764" lon="1.30229">
        <ele>478</ele>
        <time>2024-06-23T11:07:21Z</time>
      </trkpt>
      <trkpt lat="43.06764" lon="1.30225">
        <ele>478.2</ele>
        <time>2024-06-23T11:07:22Z</time>
      </trkpt>
      <trkpt lat="43.06765" lon="1.30222">
        <ele>478.4</ele>
        <time>2024-06-23T11:07:23Z</time>
      </trkpt>
      <trkpt lat="43.06765" lon="1.30219">
        <ele>478.8</ele>
        <time>2024-06-23T11:07:24Z</time>
      </trkpt>
      <trkpt lat="43.06765" lon="1.30215">
        <ele>479</ele>
        <time>2024-06-23T11:07:25Z</time>
      </trkpt>
      <trkpt lat="43.06765" lon="1.30212">
        <ele>479.2</ele>
        <time>2024-06-23T11:07:26Z</time>
      </trkpt>
      <trkpt lat="43.06765" lon="1.30208">
        <ele>479.6</ele>
        <time>2024-06-23T11:07:27Z</time>
      </trkpt>
      <trkpt lat="43.06765" lon="1.30204">
        <ele>479.8</ele>
        <time>2024-06-23T11:07:28Z</time>
      </trkpt>
      <trkpt lat="43.06764" lon="1.30201">
        <ele>480</ele>
        <time>2024-06-23T11:07:29Z</time>
      </trkpt>
      <trkpt lat="43.06763" lon="1.30197">
        <ele>480.2</ele>
        <time>2024-06-23T11:07:30Z</time>
      </trkpt>
      <trkpt lat="43.06762" lon="1.30195">
        <ele>480.6</ele>
        <time>2024-06-23T11:07:31Z</time>
      </trkpt>
      <trkpt lat="43.06761" lon="1.30192">
        <ele>480.6</ele>
        <time>2024-06-23T11:07:32Z</time>
      </trkpt>
      <trkpt lat="43.0676" lon="1.30189">
        <ele>481</ele>
        <time>2024-06-23T11:07:33Z</time>
      </trkpt>
      <trkpt lat="43.0676" lon="1.30189">
        <ele>481</ele>
        <time>2024-06-23T11:07:34Z</time>
      </trkpt>
      <trkpt lat="43.06759" lon="1.30186">
        <ele>481.2</ele>
        <time>2024-06-23T11:07:35Z</time>
      </trkpt>
      <trkpt lat="43.06759" lon="1.30183">
        <ele>481.4</ele>
        <time>2024-06-23T11:07:36Z</time>
      </trkpt>
      <trkpt lat="43.06758" lon="1.30182">
        <ele>481.4</ele>
        <time>2024-06-23T11:07:37Z</time>
      </trkpt>
      <trkpt lat="43.06757" lon="1.30179">
        <ele>481.4</ele>
        <time>2024-06-23T11:07:38Z</time>
      </trkpt>
      <trkpt lat="43.06755" lon="1.30175">
        <ele>481.8</ele>
        <time>2024-06-23T11:07:39Z</time>
      </trkpt>
      <trkpt lat="43.06753" lon="1.30173">
        <ele>481.8</ele>
        <time>2024-06-23T11:07:40Z</time>
      </trkpt>
      <trkpt lat="43.06752" lon="1.30171">
        <ele>482.2</ele>
        <time>2024-06-23T11:07:41Z</time>
      </trkpt>
      <trkpt lat="43.0675" lon="1.30169">
        <ele>482.2</ele>
        <time>2024-06-23T11:07:42Z</time>
      </trkpt>
      <trkpt lat="43.06747" lon="1.30166">
        <ele>482.6</ele>
        <time>2024-06-23T11:07:43Z</time>
      </trkpt>
      <trkpt lat="43.06745" lon="1.30163">
        <ele>482.6</ele>
        <time>2024-06-23T11:07:44Z</time>
      </trkpt>
      <trkpt lat="43.06743" lon="1.30161">
        <ele>483</ele>
        <time>2024-06-23T11:07:45Z</time>
      </trkpt>
      <trkpt lat="43.06742" lon="1.30157">
        <ele>483.4</ele>
        <time>2024-06-23T11:07:46Z</time>
      </trkpt>
      <trkpt lat="43.06741" lon="1.30154">
        <ele>483.6</ele>
        <time>2024-06-23T11:07:47Z</time>
      </trkpt>
      <trkpt lat="43.06739" lon="1.3015">
        <ele>483.6</ele>
        <time>2024-06-23T11:07:48Z</time>
      </trkpt>
      <trkpt lat="43.06738" lon="1.30147">
        <ele>484</ele>
        <time>2024-06-23T11:07:49Z</time>
      </trkpt>
      <trkpt lat="43.06736" lon="1.30144">
        <ele>484</ele>
        <time>2024-06-23T11:07:50Z</time>
      </trkpt>
      <trkpt lat="43.06735" lon="1.30141">
        <ele>484.6</ele>
        <time>2024-06-23T11:07:51Z</time>
      </trkpt>
      <trkpt lat="43.06734" lon="1.30138">
        <ele>485</ele>
        <time>2024-06-23T11:07:52Z</time>
      </trkpt>
      <trkpt lat="43.06733" lon="1.30135">
        <ele>485.2</ele>
        <time>2024-06-23T11:07:53Z</time>
      </trkpt>
      <trkpt lat="43.06732" lon="1.30133">
        <ele>485.2</ele>
        <time>2024-06-23T11:07:54Z</time>
      </trkpt>
      <trkpt lat="43.0673" lon="1.30131">
        <ele>485.6</ele>
        <time>2024-06-23T11:07:55Z</time>
      </trkpt>
      <trkpt lat="43.06729" lon="1.30127">
        <ele>485.8</ele>
        <time>2024-06-23T11:07:56Z</time>
      </trkpt>
      <trkpt lat="43.06728" lon="1.30124">
        <ele>485.8</ele>
        <time>2024-06-23T11:07:57Z</time>
      </trkpt>
      <trkpt lat="43.06727" lon="1.30121">
        <ele>486.2</ele>
        <time>2024-06-23T11:07:58Z</time>
      </trkpt>
      <trkpt lat="43.06725" lon="1.30116">
        <ele>486.4</ele>
        <time>2024-06-23T11:07:59Z</time>
      </trkpt>
      <trkpt lat="43.06724" lon="1.30114">
        <ele>486.4</ele>
        <time>2024-06-23T11:08:00Z</time>
      </trkpt>
      <trkpt lat="43.06723" lon="1.30112">
        <ele>486.8</ele>
        <time>2024-06-23T11:08:01Z</time>
      </trkpt>
      <trkpt lat="43.06722" lon="1.30108">
        <ele>486.8</ele>
        <time>2024-06-23T11:08:02Z</time>
      </trkpt>
      <trkpt lat="43.06721" lon="1.30105">
        <ele>487.2</ele>
        <time>2024-06-23T11:08:03Z</time>
      </trkpt>
      <trkpt lat="43.0672" lon="1.30102">
        <ele>487.2</ele>
        <time>2024-06-23T11:08:04Z</time>
      </trkpt>
      <trkpt lat="43.06719" lon="1.30099">
        <ele>487.4</ele>
        <time>2024-06-23T11:08:05Z</time>
      </trkpt>
      <trkpt lat="43.06718" lon="1.30097">
        <ele>487.6</ele>
        <time>2024-06-23T11:08:06Z</time>
      </trkpt>
      <trkpt lat="43.06717" lon="1.30093">
        <ele>487.6</ele>
        <time>2024-06-23T11:08:07Z</time>
      </trkpt>
      <trkpt lat="43.06717" lon="1.3009">
        <ele>488</ele>
        <time>2024-06-23T11:08:08Z</time>
      </trkpt>
      <trkpt lat="43.06715" lon="1.30084">
        <ele>488.4</ele>
        <time>2024-06-23T11:08:09Z</time>
      </trkpt>
      <trkpt lat="43.06715" lon="1.30081">
        <ele>488.4</ele>
        <time>2024-06-23T11:08:10Z</time>
      </trkpt>
      <trkpt lat="43.06714" lon="1.30078">
        <ele>488.8</ele>
        <time>2024-06-23T11:08:11Z</time>
      </trkpt>
      <trkpt lat="43.06713" lon="1.30075">
        <ele>488.8</ele>
        <time>2024-06-23T11:08:12Z</time>
      </trkpt>
      <trkpt lat="43.06712" lon="1.30072">
        <ele>489.2</ele>
        <time>2024-06-23T11:08:13Z</time>
      </trkpt>
      <trkpt lat="43.06711" lon="1.30069">
        <ele>489.6</ele>
        <time>2024-06-23T11:08:14Z</time>
      </trkpt>
      <trkpt lat="43.06711" lon="1.30066">
        <ele>489.6</ele>
        <time>2024-06-23T11:08:15Z</time>
      </trkpt>
      <trkpt lat="43.06711" lon="1.30064">
        <ele>489.8</ele>
        <time>2024-06-23T11:08:16Z</time>
      </trkpt>
      <trkpt lat="43.06711" lon="1.30063">
        <ele>489.8</ele>
        <time>2024-06-23T11:08:17Z</time>
      </trkpt>
      <trkpt lat="43.06711" lon="1.3006">
        <ele>490</ele>
        <time>2024-06-23T11:08:18Z</time>
      </trkpt>
      <trkpt lat="43.06711" lon="1.30057">
        <ele>490</ele>
        <time>2024-06-23T11:08:19Z</time>
      </trkpt>
      <trkpt lat="43.06712" lon="1.30055">
        <ele>490.4</ele>
        <time>2024-06-23T11:08:20Z</time>
      </trkpt>
      <trkpt lat="43.06714" lon="1.30052">
        <ele>490.4</ele>
        <time>2024-06-23T11:08:21Z</time>
      </trkpt>
      <trkpt lat="43.06717" lon="1.3005">
        <ele>490.8</ele>
        <time>2024-06-23T11:08:22Z</time>
      </trkpt>
      <trkpt lat="43.06719" lon="1.30049">
        <ele>491.2</ele>
        <time>2024-06-23T11:08:23Z</time>
      </trkpt>
      <trkpt lat="43.06721" lon="1.30048">
        <ele>491.6</ele>
        <time>2024-06-23T11:08:24Z</time>
      </trkpt>
      <trkpt lat="43.06723" lon="1.30048">
        <ele>491.8</ele>
        <time>2024-06-23T11:08:25Z</time>
      </trkpt>
      <trkpt lat="43.06725" lon="1.30048">
        <ele>492.2</ele>
        <time>2024-06-23T11:08:26Z</time>
      </trkpt>
      <trkpt lat="43.06727" lon="1.3005">
        <ele>492.4</ele>
        <time>2024-06-23T11:08:27Z</time>
      </trkpt>
      <trkpt lat="43.06729" lon="1.30052">
        <ele>492.8</ele>
        <time>2024-06-23T11:08:28Z</time>
      </trkpt>
      <trkpt lat="43.06729" lon="1.30054">
        <ele>493</ele>
        <time>2024-06-23T11:08:29Z</time>
      </trkpt>
      <trkpt lat="43.06731" lon="1.30056">
        <ele>493.4</ele>
        <time>2024-06-23T11:08:30Z</time>
      </trkpt>
      <trkpt lat="43.06733" lon="1.30059">
        <ele>493.8</ele>
        <time>2024-06-23T11:08:31Z</time>
      </trkpt>
      <trkpt lat="43.06735" lon="1.30061">
        <ele>493.8</ele>
        <time>2024-06-23T11:08:32Z</time>
      </trkpt>
      <trkpt lat="43.06738" lon="1.30063">
        <ele>494</ele>
        <time>2024-06-23T11:08:33Z</time>
      </trkpt>
      <trkpt lat="43.0674" lon="1.30065">
        <ele>494</ele>
        <time>2024-06-23T11:08:34Z</time>
      </trkpt>
      <trkpt lat="43.06741" lon="1.30066">
        <ele>494.4</ele>
        <time>2024-06-23T11:08:35Z</time>
      </trkpt>
      <trkpt lat="43.06743" lon="1.30067">
        <ele>494.4</ele>
        <time>2024-06-23T11:08:36Z</time>
      </trkpt>
      <trkpt lat="43.06744" lon="1.30068">
        <ele>494.8</ele>
        <time>2024-06-23T11:08:37Z</time>
      </trkpt>
      <trkpt lat="43.06747" lon="1.3007">
        <ele>494.8</ele>
        <time>2024-06-23T11:08:38Z</time>
      </trkpt>
      <trkpt lat="43.06749" lon="1.30071">
        <ele>495</ele>
        <time>2024-06-23T11:08:39Z</time>
      </trkpt>
      <trkpt lat="43.06751" lon="1.30072">
        <ele>495</ele>
        <time>2024-06-23T11:08:40Z</time>
      </trkpt>
      <trkpt lat="43.06752" lon="1.30072">
        <ele>495</ele>
        <time>2024-06-23T11:08:41Z</time>
      </trkpt>
      <trkpt lat="43.06753" lon="1.30072">
        <ele>495</ele>
        <time>2024-06-23T11:08:42Z</time>
      </trkpt>
      <trkpt lat="43.06756" lon="1.30071">
        <ele>495.4</ele>
        <time>2024-06-23T11:08:43Z</time>
      </trkpt>
      <trkpt lat="43.06758" lon="1.30071">
        <ele>495.4</ele>
        <time>2024-06-23T11:08:44Z</time>
      </trkpt>
      <trkpt lat="43.06761" lon="1.3007">
        <ele>495.8</ele>
        <time>2024-06-23T11:08:45Z</time>
      </trkpt>
      <trkpt lat="43.06763" lon="1.3007">
        <ele>496</ele>
        <time>2024-06-23T11:08:46Z</time>
      </trkpt>
      <trkpt lat="43.06765" lon="1.3007">
        <ele>496</ele>
        <time>2024-06-23T11:08:47Z</time>
      </trkpt>
      <trkpt lat="43.06767" lon="1.3007">
        <ele>496.6</ele>
        <time>2024-06-23T11:08:48Z</time>
      </trkpt>
      <trkpt lat="43.06769" lon="1.3007">
        <ele>496.6</ele>
        <time>2024-06-23T11:08:49Z</time>
      </trkpt>
      <trkpt lat="43.06771" lon="1.30067">
        <ele>497</ele>
        <time>2024-06-23T11:08:50Z</time>
      </trkpt>
      <trkpt lat="43.06773" lon="1.30065">
        <ele>497</ele>
        <time>2024-06-23T11:08:51Z</time>
      </trkpt>
      <trkpt lat="43.06776" lon="1.30064">
        <ele>497.2</ele>
        <time>2024-06-23T11:08:52Z</time>
      </trkpt>
      <trkpt lat="43.06779" lon="1.30063">
        <ele>497.2</ele>
        <time>2024-06-23T11:08:53Z</time>
      </trkpt>
      <trkpt lat="43.06782" lon="1.30062">
        <ele>497.4</ele>
        <time>2024-06-23T11:08:54Z</time>
      </trkpt>
      <trkpt lat="43.06784" lon="1.30061">
        <ele>497.4</ele>
        <time>2024-06-23T11:08:55Z</time>
      </trkpt>
      <trkpt lat="43.06787" lon="1.3006">
        <ele>497.6</ele>
        <time>2024-06-23T11:08:56Z</time>
      </trkpt>
      <trkpt lat="43.0679" lon="1.30059">
        <ele>498.2</ele>
        <time>2024-06-23T11:08:57Z</time>
      </trkpt>
      <trkpt lat="43.06793" lon="1.30057">
        <ele>498.2</ele>
        <time>2024-06-23T11:08:58Z</time>
      </trkpt>
      <trkpt lat="43.06795" lon="1.30055">
        <ele>498.6</ele>
        <time>2024-06-23T11:08:59Z</time>
      </trkpt>
      <trkpt lat="43.06797" lon="1.30052">
        <ele>499</ele>
        <time>2024-06-23T11:09:00Z</time>
      </trkpt>
      <trkpt lat="43.06799" lon="1.3005">
        <ele>499.2</ele>
        <time>2024-06-23T11:09:01Z</time>
      </trkpt>
      <trkpt lat="43.06802" lon="1.30048">
        <ele>499.2</ele>
        <time>2024-06-23T11:09:02Z</time>
      </trkpt>
      <trkpt lat="43.06803" lon="1.30047">
        <ele>499.6</ele>
        <time>2024-06-23T11:09:03Z</time>
      </trkpt>
      <trkpt lat="43.06805" lon="1.30045">
        <ele>499.6</ele>
        <time>2024-06-23T11:09:04Z</time>
      </trkpt>
      <trkpt lat="43.06807" lon="1.30043">
        <ele>499.6</ele>
        <time>2024-06-23T11:09:05Z</time>
      </trkpt>
      <trkpt lat="43.06808" lon="1.30041">
        <ele>499.8</ele>
        <time>2024-06-23T11:09:06Z</time>
      </trkpt>
      <trkpt lat="43.0681" lon="1.30038">
        <ele>499.8</ele>
        <time>2024-06-23T11:09:07Z</time>
      </trkpt>
      <trkpt lat="43.06812" lon="1.30036">
        <ele>499.8</ele>
        <time>2024-06-23T11:09:08Z</time>
      </trkpt>
      <trkpt lat="43.06814" lon="1.30034">
        <ele>500.2</ele>
        <time>2024-06-23T11:09:09Z</time>
      </trkpt>
      <trkpt lat="43.06816" lon="1.30032">
        <ele>500.2</ele>
        <time>2024-06-23T11:09:10Z</time>
      </trkpt>
      <trkpt lat="43.06819" lon="1.30032">
        <ele>500.6</ele>
        <time>2024-06-23T11:09:11Z</time>
      </trkpt>
      <trkpt lat="43.06822" lon="1.30031">
        <ele>500.8</ele>
        <time>2024-06-23T11:09:12Z</time>
      </trkpt>
      <trkpt lat="43.06826" lon="1.3003">
        <ele>500.8</ele>
        <time>2024-06-23T11:09:13Z</time>
      </trkpt>
      <trkpt lat="43.06829" lon="1.30028">
        <ele>501.2</ele>
        <time>2024-06-23T11:09:14Z</time>
      </trkpt>
      <trkpt lat="43.06831" lon="1.30026">
        <ele>501.4</ele>
        <time>2024-06-23T11:09:15Z</time>
      </trkpt>
      <trkpt lat="43.06833" lon="1.30024">
        <ele>501.4</ele>
        <time>2024-06-23T11:09:16Z</time>
      </trkpt>
      <trkpt lat="43.06835" lon="1.30023">
        <ele>501.8</ele>
        <time>2024-06-23T11:09:17Z</time>
      </trkpt>
      <trkpt lat="43.06837" lon="1.30022">
        <ele>501.8</ele>
        <time>2024-06-23T11:09:18Z</time>
      </trkpt>
      <trkpt lat="43.06839" lon="1.3002">
        <ele>502.2</ele>
        <time>2024-06-23T11:09:19Z</time>
      </trkpt>
      <trkpt lat="43.0684" lon="1.30018">
        <ele>502.2</ele>
        <time>2024-06-23T11:09:20Z</time>
      </trkpt>
      <trkpt lat="43.06842" lon="1.30016">
        <ele>502.6</ele>
        <time>2024-06-23T11:09:21Z</time>
      </trkpt>
      <trkpt lat="43.06844" lon="1.30014">
        <ele>502.8</ele>
        <time>2024-06-23T11:09:22Z</time>
      </trkpt>
      <trkpt lat="43.06846" lon="1.30012">
        <ele>503</ele>
        <time>2024-06-23T11:09:23Z</time>
      </trkpt>
      <trkpt lat="43.06848" lon="1.3001">
        <ele>503</ele>
        <time>2024-06-23T11:09:24Z</time>
      </trkpt>
      <trkpt lat="43.0685" lon="1.30009">
        <ele>503</ele>
        <time>2024-06-23T11:09:25Z</time>
      </trkpt>
      <trkpt lat="43.06851" lon="1.30007">
        <ele>503.4</ele>
        <time>2024-06-23T11:09:26Z</time>
      </trkpt>
      <trkpt lat="43.06852" lon="1.30004">
        <ele>503.6</ele>
        <time>2024-06-23T11:09:27Z</time>
      </trkpt>
      <trkpt lat="43.06853" lon="1.30002">
        <ele>503.8</ele>
        <time>2024-06-23T11:09:28Z</time>
      </trkpt>
      <trkpt lat="43.06855" lon="1.3">
        <ele>503.8</ele>
        <time>2024-06-23T11:09:29Z</time>
      </trkpt>
      <trkpt lat="43.06858" lon="1.29997">
        <ele>503.8</ele>
        <time>2024-06-23T11:09:30Z</time>
      </trkpt>
      <trkpt lat="43.06861" lon="1.29996">
        <ele>504</ele>
        <time>2024-06-23T11:09:31Z</time>
      </trkpt>
      <trkpt lat="43.06864" lon="1.29994">
        <ele>504.2</ele>
        <time>2024-06-23T11:09:32Z</time>
      </trkpt>
      <trkpt lat="43.06866" lon="1.29992">
        <ele>504.6</ele>
        <time>2024-06-23T11:09:33Z</time>
      </trkpt>
      <trkpt lat="43.06868" lon="1.29991">
        <ele>504.6</ele>
        <time>2024-06-23T11:09:34Z</time>
      </trkpt>
      <trkpt lat="43.06871" lon="1.2999">
        <ele>504.8</ele>
        <time>2024-06-23T11:09:35Z</time>
      </trkpt>
      <trkpt lat="43.06874" lon="1.29989">
        <ele>505.2</ele>
        <time>2024-06-23T11:09:36Z</time>
      </trkpt>
      <trkpt lat="43.06877" lon="1.29988">
        <ele>505.4</ele>
        <time>2024-06-23T11:09:37Z</time>
      </trkpt>
      <trkpt lat="43.0688" lon="1.29988">
        <ele>505.4</ele>
        <time>2024-06-23T11:09:38Z</time>
      </trkpt>
      <trkpt lat="43.06883" lon="1.29989">
        <ele>505.6</ele>
        <time>2024-06-23T11:09:39Z</time>
      </trkpt>
      <trkpt lat="43.06885" lon="1.2999">
        <ele>506</ele>
        <time>2024-06-23T11:09:40Z</time>
      </trkpt>
      <trkpt lat="43.06888" lon="1.29992">
        <ele>506.2</ele>
        <time>2024-06-23T11:09:41Z</time>
      </trkpt>
      <trkpt lat="43.06889" lon="1.29993">
        <ele>506.2</ele>
        <time>2024-06-23T11:09:42Z</time>
      </trkpt>
      <trkpt lat="43.0689" lon="1.29994">
        <ele>506.6</ele>
        <time>2024-06-23T11:09:43Z</time>
      </trkpt>
      <trkpt lat="43.06892" lon="1.29995">
        <ele>506.8</ele>
        <time>2024-06-23T11:09:44Z</time>
      </trkpt>
      <trkpt lat="43.06895" lon="1.29996">
        <ele>507</ele>
        <time>2024-06-23T11:09:45Z</time>
      </trkpt>
      <trkpt lat="43.06897" lon="1.29998">
        <ele>507.4</ele>
        <time>2024-06-23T11:09:46Z</time>
      </trkpt>
      <trkpt lat="43.06899" lon="1.29999">
        <ele>507.4</ele>
        <time>2024-06-23T11:09:47Z</time>
      </trkpt>
      <trkpt lat="43.06901" lon="1.3">
        <ele>507.4</ele>
        <time>2024-06-23T11:09:48Z</time>
      </trkpt>
      <trkpt lat="43.06903" lon="1.30001">
        <ele>507.6</ele>
        <time>2024-06-23T11:09:49Z</time>
      </trkpt>
      <trkpt lat="43.06905" lon="1.30003">
        <ele>508</ele>
        <time>2024-06-23T11:09:50Z</time>
      </trkpt>
      <trkpt lat="43.06908" lon="1.30004">
        <ele>508</ele>
        <time>2024-06-23T11:09:51Z</time>
      </trkpt>
      <trkpt lat="43.06909" lon="1.30006">
        <ele>508.4</ele>
        <time>2024-06-23T11:09:52Z</time>
      </trkpt>
      <trkpt lat="43.06911" lon="1.30007">
        <ele>508.4</ele>
        <time>2024-06-23T11:09:53Z</time>
      </trkpt>
      <trkpt lat="43.06913" lon="1.30009">
        <ele>508.4</ele>
        <time>2024-06-23T11:09:54Z</time>
      </trkpt>
      <trkpt lat="43.06915" lon="1.3001">
        <ele>508.8</ele>
        <time>2024-06-23T11:09:55Z</time>
      </trkpt>
      <trkpt lat="43.06917" lon="1.30011">
        <ele>508.8</ele>
        <time>2024-06-23T11:09:56Z</time>
      </trkpt>
      <trkpt lat="43.06919" lon="1.30013">
        <ele>509.2</ele>
        <time>2024-06-23T11:09:57Z</time>
      </trkpt>
      <trkpt lat="43.06921" lon="1.30015">
        <ele>509.2</ele>
        <time>2024-06-23T11:09:58Z</time>
      </trkpt>
      <trkpt lat="43.06922" lon="1.30016">
        <ele>509.6</ele>
        <time>2024-06-23T11:09:59Z</time>
      </trkpt>
      <trkpt lat="43.06924" lon="1.30018">
        <ele>509.6</ele>
        <time>2024-06-23T11:10:00Z</time>
      </trkpt>
      <trkpt lat="43.06925" lon="1.30019">
        <ele>510</ele>
        <time>2024-06-23T11:10:01Z</time>
      </trkpt>
      <trkpt lat="43.06927" lon="1.30021">
        <ele>510</ele>
        <time>2024-06-23T11:10:02Z</time>
      </trkpt>
      <trkpt lat="43.06929" lon="1.30022">
        <ele>510.4</ele>
        <time>2024-06-23T11:10:03Z</time>
      </trkpt>
      <trkpt lat="43.06931" lon="1.30024">
        <ele>510.4</ele>
        <time>2024-06-23T11:10:04Z</time>
      </trkpt>
      <trkpt lat="43.06933" lon="1.30025">
        <ele>510.6</ele>
        <time>2024-06-23T11:10:05Z</time>
      </trkpt>
      <trkpt lat="43.06935" lon="1.30027">
        <ele>510.6</ele>
        <time>2024-06-23T11:10:06Z</time>
      </trkpt>
      <trkpt lat="43.06937" lon="1.30028">
        <ele>511</ele>
        <time>2024-06-23T11:10:07Z</time>
      </trkpt>
      <trkpt lat="43.06939" lon="1.3003">
        <ele>511.4</ele>
        <time>2024-06-23T11:10:08Z</time>
      </trkpt>
      <trkpt lat="43.06941" lon="1.30031">
        <ele>511.8</ele>
        <time>2024-06-23T11:10:09Z</time>
      </trkpt>
      <trkpt lat="43.06943" lon="1.30033">
        <ele>511.8</ele>
        <time>2024-06-23T11:10:10Z</time>
      </trkpt>
      <trkpt lat="43.06945" lon="1.30035">
        <ele>511.8</ele>
        <time>2024-06-23T11:10:11Z</time>
      </trkpt>
      <trkpt lat="43.06947" lon="1.30037">
        <ele>512.2</ele>
        <time>2024-06-23T11:10:12Z</time>
      </trkpt>
      <trkpt lat="43.06948" lon="1.30038">
        <ele>512.4</ele>
        <time>2024-06-23T11:10:13Z</time>
      </trkpt>
      <trkpt lat="43.0695" lon="1.30039">
        <ele>512.6</ele>
        <time>2024-06-23T11:10:14Z</time>
      </trkpt>
      <trkpt lat="43.06953" lon="1.3004">
        <ele>512.6</ele>
        <time>2024-06-23T11:10:15Z</time>
      </trkpt>
      <trkpt lat="43.06955" lon="1.30042">
        <ele>513.2</ele>
        <time>2024-06-23T11:10:16Z</time>
      </trkpt>
      <trkpt lat="43.06955" lon="1.30042">
        <ele>513.2</ele>
        <time>2024-06-23T11:10:17Z</time>
      </trkpt>
      <trkpt lat="43.06956" lon="1.30043">
        <ele>513.2</ele>
        <time>2024-06-23T11:10:18Z</time>
      </trkpt>
      <trkpt lat="43.06958" lon="1.30045">
        <ele>513.4</ele>
        <time>2024-06-23T11:10:19Z</time>
      </trkpt>
      <trkpt lat="43.06961" lon="1.30047">
        <ele>513.6</ele>
        <time>2024-06-23T11:10:20Z</time>
      </trkpt>
      <trkpt lat="43.06963" lon="1.30049">
        <ele>513.6</ele>
        <time>2024-06-23T11:10:21Z</time>
      </trkpt>
      <trkpt lat="43.06965" lon="1.30051">
        <ele>514</ele>
        <time>2024-06-23T11:10:22Z</time>
      </trkpt>
      <trkpt lat="43.06967" lon="1.30052">
        <ele>514</ele>
        <time>2024-06-23T11:10:23Z</time>
      </trkpt>
      <trkpt lat="43.06969" lon="1.30054">
        <ele>514.4</ele>
        <time>2024-06-23T11:10:24Z</time>
      </trkpt>
      <trkpt lat="43.0697" lon="1.30057">
        <ele>514.4</ele>
        <time>2024-06-23T11:10:25Z</time>
      </trkpt>
      <trkpt lat="43.06972" lon="1.30059">
        <ele>514.4</ele>
        <time>2024-06-23T11:10:26Z</time>
      </trkpt>
      <trkpt lat="43.06974" lon="1.30063">
        <ele>514.6</ele>
        <time>2024-06-23T11:10:27Z</time>
      </trkpt>
      <trkpt lat="43.06975" lon="1.30066">
        <ele>515</ele>
        <time>2024-06-23T11:10:28Z</time>
      </trkpt>
      <trkpt lat="43.06976" lon="1.30069">
        <ele>515</ele>
        <time>2024-06-23T11:10:29Z</time>
      </trkpt>
      <trkpt lat="43.06977" lon="1.30072">
        <ele>515.4</ele>
        <time>2024-06-23T11:10:30Z</time>
      </trkpt>
      <trkpt lat="43.06978" lon="1.30075">
        <ele>515.6</ele>
        <time>2024-06-23T11:10:31Z</time>
      </trkpt>
      <trkpt lat="43.06979" lon="1.30077">
        <ele>515.6</ele>
        <time>2024-06-23T11:10:32Z</time>
      </trkpt>
      <trkpt lat="43.06979" lon="1.3008">
        <ele>516</ele>
        <time>2024-06-23T11:10:33Z</time>
      </trkpt>
      <trkpt lat="43.0698" lon="1.30083">
        <ele>516</ele>
        <time>2024-06-23T11:10:34Z</time>
      </trkpt>
      <trkpt lat="43.06981" lon="1.30085">
        <ele>516.2</ele>
        <time>2024-06-23T11:10:35Z</time>
      </trkpt>
      <trkpt lat="43.06982" lon="1.30087">
        <ele>516.4</ele>
        <time>2024-06-23T11:10:36Z</time>
      </trkpt>
      <trkpt lat="43.06983" lon="1.3009">
        <ele>516.8</ele>
        <time>2024-06-23T11:10:37Z</time>
      </trkpt>
      <trkpt lat="43.06985" lon="1.30093">
        <ele>517</ele>
        <time>2024-06-23T11:10:38Z</time>
      </trkpt>
      <trkpt lat="43.06986" lon="1.30095">
        <ele>517</ele>
        <time>2024-06-23T11:10:39Z</time>
      </trkpt>
      <trkpt lat="43.06988" lon="1.30097">
        <ele>517.2</ele>
        <time>2024-06-23T11:10:40Z</time>
      </trkpt>
      <trkpt lat="43.0699" lon="1.30098">
        <ele>517.6</ele>
        <time>2024-06-23T11:10:41Z</time>
      </trkpt>
      <trkpt lat="43.06992" lon="1.30098">
        <ele>517.6</ele>
        <time>2024-06-23T11:10:42Z</time>
      </trkpt>
      <trkpt lat="43.06995" lon="1.30098">
        <ele>518</ele>
        <time>2024-06-23T11:10:43Z</time>
      </trkpt>
      <trkpt lat="43.06998" lon="1.30098">
        <ele>518.4</ele>
        <time>2024-06-23T11:10:44Z</time>
      </trkpt>
      <trkpt lat="43.07" lon="1.30098">
        <ele>518.4</ele>
        <time>2024-06-23T11:10:45Z</time>
      </trkpt>
      <trkpt lat="43.07003" lon="1.30097">
        <ele>518.8</ele>
        <time>2024-06-23T11:10:46Z</time>
      </trkpt>
      <trkpt lat="43.07005" lon="1.30096">
        <ele>518.8</ele>
        <time>2024-06-23T11:10:47Z</time>
      </trkpt>
      <trkpt lat="43.07008" lon="1.30095">
        <ele>519.2</ele>
        <time>2024-06-23T11:10:48Z</time>
      </trkpt>
      <trkpt lat="43.0701" lon="1.30095">
        <ele>519.4</ele>
        <time>2024-06-23T11:10:49Z</time>
      </trkpt>
      <trkpt lat="43.07013" lon="1.30095">
        <ele>519.6</ele>
        <time>2024-06-23T11:10:50Z</time>
      </trkpt>
      <trkpt lat="43.07015" lon="1.30093">
        <ele>519.6</ele>
        <time>2024-06-23T11:10:51Z</time>
      </trkpt>
      <trkpt lat="43.07017" lon="1.30091">
        <ele>519.6</ele>
        <time>2024-06-23T11:10:52Z</time>
      </trkpt>
      <trkpt lat="43.0702" lon="1.3009">
        <ele>519.6</ele>
        <time>2024-06-23T11:10:53Z</time>
      </trkpt>
      <trkpt lat="43.07022" lon="1.30089">
        <ele>519.8</ele>
        <time>2024-06-23T11:10:54Z</time>
      </trkpt>
      <trkpt lat="43.07025" lon="1.30089">
        <ele>520</ele>
        <time>2024-06-23T11:10:55Z</time>
      </trkpt>
      <trkpt lat="43.07028" lon="1.30088">
        <ele>520</ele>
        <time>2024-06-23T11:10:56Z</time>
      </trkpt>
      <trkpt lat="43.0703" lon="1.30087">
        <ele>520.4</ele>
        <time>2024-06-23T11:10:57Z</time>
      </trkpt>
      <trkpt lat="43.07032" lon="1.30085">
        <ele>520.4</ele>
        <time>2024-06-23T11:10:58Z</time>
      </trkpt>
      <trkpt lat="43.07034" lon="1.30083">
        <ele>520.8</ele>
        <time>2024-06-23T11:10:59Z</time>
      </trkpt>
      <trkpt lat="43.07036" lon="1.30081">
        <ele>520.8</ele>
        <time>2024-06-23T11:11:00Z</time>
      </trkpt>
      <trkpt lat="43.07039" lon="1.30079">
        <ele>521.2</ele>
        <time>2024-06-23T11:11:01Z</time>
      </trkpt>
      <trkpt lat="43.07041" lon="1.30077">
        <ele>521.6</ele>
        <time>2024-06-23T11:11:02Z</time>
      </trkpt>
      <trkpt lat="43.07043" lon="1.30075">
        <ele>521.6</ele>
        <time>2024-06-23T11:11:03Z</time>
      </trkpt>
      <trkpt lat="43.07044" lon="1.30072">
        <ele>522</ele>
        <time>2024-06-23T11:11:04Z</time>
      </trkpt>
      <trkpt lat="43.07045" lon="1.3007">
        <ele>522</ele>
        <time>2024-06-23T11:11:05Z</time>
      </trkpt>
      <trkpt lat="43.07046" lon="1.30067">
        <ele>522.4</ele>
        <time>2024-06-23T11:11:06Z</time>
      </trkpt>
      <trkpt lat="43.07047" lon="1.30064">
        <ele>522.4</ele>
        <time>2024-06-23T11:11:07Z</time>
      </trkpt>
      <trkpt lat="43.07048" lon="1.30061">
        <ele>522.4</ele>
        <time>2024-06-23T11:11:08Z</time>
      </trkpt>
      <trkpt lat="43.07048" lon="1.30059">
        <ele>522.4</ele>
        <time>2024-06-23T11:11:09Z</time>
      </trkpt>
      <trkpt lat="43.07048" lon="1.30056">
        <ele>522.8</ele>
        <time>2024-06-23T11:11:10Z</time>
      </trkpt>
      <trkpt lat="43.07049" lon="1.30054">
        <ele>522.8</ele>
        <time>2024-06-23T11:11:11Z</time>
      </trkpt>
      <trkpt lat="43.07049" lon="1.30052">
        <ele>523.2</ele>
        <time>2024-06-23T11:11:12Z</time>
      </trkpt>
      <trkpt lat="43.07049" lon="1.30049">
        <ele>523.4</ele>
        <time>2024-06-23T11:11:13Z</time>
      </trkpt>
      <trkpt lat="43.0705" lon="1.30045">
        <ele>523.8</ele>
        <time>2024-06-23T11:11:14Z</time>
      </trkpt>
      <trkpt lat="43.0705" lon="1.30042">
        <ele>524</ele>
        <time>2024-06-23T11:11:15Z</time>
      </trkpt>
      <trkpt lat="43.0705" lon="1.30039">
        <ele>524.2</ele>
        <time>2024-06-23T11:11:16Z</time>
      </trkpt>
      <trkpt lat="43.0705" lon="1.30035">
        <ele>524.2</ele>
        <time>2024-06-23T11:11:17Z</time>
      </trkpt>
      <trkpt lat="43.0705" lon="1.30031">
        <ele>524.8</ele>
        <time>2024-06-23T11:11:18Z</time>
      </trkpt>
      <trkpt lat="43.0705" lon="1.30028">
        <ele>524.8</ele>
        <time>2024-06-23T11:11:19Z</time>
      </trkpt>
      <trkpt lat="43.07051" lon="1.30026">
        <ele>525</ele>
        <time>2024-06-23T11:11:20Z</time>
      </trkpt>
      <trkpt lat="43.07051" lon="1.30023">
        <ele>525.4</ele>
        <time>2024-06-23T11:11:21Z</time>
      </trkpt>
      <trkpt lat="43.07051" lon="1.3002">
        <ele>525.6</ele>
        <time>2024-06-23T11:11:22Z</time>
      </trkpt>
      <trkpt lat="43.0705" lon="1.30018">
        <ele>525.6</ele>
        <time>2024-06-23T11:11:23Z</time>
      </trkpt>
      <trkpt lat="43.0705" lon="1.30015">
        <ele>525.8</ele>
        <time>2024-06-23T11:11:24Z</time>
      </trkpt>
      <trkpt lat="43.0705" lon="1.30012">
        <ele>525.8</ele>
        <time>2024-06-23T11:11:25Z</time>
      </trkpt>
      <trkpt lat="43.07049" lon="1.30009">
        <ele>526.4</ele>
        <time>2024-06-23T11:11:26Z</time>
      </trkpt>
      <trkpt lat="43.0705" lon="1.30007">
        <ele>526.4</ele>
        <time>2024-06-23T11:11:27Z</time>
      </trkpt>
      <trkpt lat="43.0705" lon="1.30004">
        <ele>526.8</ele>
        <time>2024-06-23T11:11:28Z</time>
      </trkpt>
      <trkpt lat="43.0705" lon="1.30001">
        <ele>526.8</ele>
        <time>2024-06-23T11:11:29Z</time>
      </trkpt>
      <trkpt lat="43.0705" lon="1.29998">
        <ele>527</ele>
        <time>2024-06-23T11:11:30Z</time>
      </trkpt>
      <trkpt lat="43.0705" lon="1.29995">
        <ele>527.2</ele>
        <time>2024-06-23T11:11:31Z</time>
      </trkpt>
      <trkpt lat="43.07051" lon="1.29992">
        <ele>527.6</ele>
        <time>2024-06-23T11:11:32Z</time>
      </trkpt>
      <trkpt lat="43.07051" lon="1.29988">
        <ele>528</ele>
        <time>2024-06-23T11:11:33Z</time>
      </trkpt>
      <trkpt lat="43.07051" lon="1.29984">
        <ele>528</ele>
        <time>2024-06-23T11:11:34Z</time>
      </trkpt>
      <trkpt lat="43.07051" lon="1.29981">
        <ele>528.4</ele>
        <time>2024-06-23T11:11:35Z</time>
      </trkpt>
      <trkpt lat="43.07051" lon="1.29977">
        <ele>528.4</ele>
        <time>2024-06-23T11:11:36Z</time>
      </trkpt>
      <trkpt lat="43.07051" lon="1.29974">
        <ele>528.6</ele>
        <time>2024-06-23T11:11:37Z</time>
      </trkpt>
      <trkpt lat="43.07051" lon="1.29971">
        <ele>528.6</ele>
        <time>2024-06-23T11:11:38Z</time>
      </trkpt>
      <trkpt lat="43.07051" lon="1.29967">
        <ele>529</ele>
        <time>2024-06-23T11:11:39Z</time>
      </trkpt>
      <trkpt lat="43.07051" lon="1.29964">
        <ele>529</ele>
        <time>2024-06-23T11:11:40Z</time>
      </trkpt>
      <trkpt lat="43.07051" lon="1.2996">
        <ele>529.2</ele>
        <time>2024-06-23T11:11:41Z</time>
      </trkpt>
      <trkpt lat="43.07051" lon="1.29957">
        <ele>529.6</ele>
        <time>2024-06-23T11:11:42Z</time>
      </trkpt>
      <trkpt lat="43.07051" lon="1.29954">
        <ele>529.6</ele>
        <time>2024-06-23T11:11:43Z</time>
      </trkpt>
      <trkpt lat="43.07051" lon="1.2995">
        <ele>529.8</ele>
        <time>2024-06-23T11:11:44Z</time>
      </trkpt>
      <trkpt lat="43.07051" lon="1.29946">
        <ele>530</ele>
        <time>2024-06-23T11:11:45Z</time>
      </trkpt>
      <trkpt lat="43.07051" lon="1.29943">
        <ele>530.2</ele>
        <time>2024-06-23T11:11:46Z</time>
      </trkpt>
      <trkpt lat="43.07051" lon="1.2994">
        <ele>530.2</ele>
        <time>2024-06-23T11:11:47Z</time>
      </trkpt>
      <trkpt lat="43.07051" lon="1.29937">
        <ele>530.6</ele>
        <time>2024-06-23T11:11:48Z</time>
      </trkpt>
      <trkpt lat="43.07051" lon="1.29934">
        <ele>530.6</ele>
        <time>2024-06-23T11:11:49Z</time>
      </trkpt>
      <trkpt lat="43.07052" lon="1.2993">
        <ele>530.8</ele>
        <time>2024-06-23T11:11:50Z</time>
      </trkpt>
      <trkpt lat="43.07052" lon="1.29926">
        <ele>530.8</ele>
        <time>2024-06-23T11:11:51Z</time>
      </trkpt>
      <trkpt lat="43.07052" lon="1.29923">
        <ele>531.4</ele>
        <time>2024-06-23T11:11:52Z</time>
      </trkpt>
      <trkpt lat="43.07052" lon="1.29919">
        <ele>531.4</ele>
        <time>2024-06-23T11:11:53Z</time>
      </trkpt>
      <trkpt lat="43.07052" lon="1.29915">
        <ele>531.8</ele>
        <time>2024-06-23T11:11:54Z</time>
      </trkpt>
      <trkpt lat="43.07051" lon="1.29911">
        <ele>531.8</ele>
        <time>2024-06-23T11:11:55Z</time>
      </trkpt>
      <trkpt lat="43.07051" lon="1.29908">
        <ele>532.2</ele>
        <time>2024-06-23T11:11:56Z</time>
      </trkpt>
      <trkpt lat="43.0705" lon="1.29904">
        <ele>532.6</ele>
        <time>2024-06-23T11:11:57Z</time>
      </trkpt>
      <trkpt lat="43.07049" lon="1.29901">
        <ele>532.8</ele>
        <time>2024-06-23T11:11:58Z</time>
      </trkpt>
      <trkpt lat="43.07048" lon="1.29897">
        <ele>532.8</ele>
        <time>2024-06-23T11:11:59Z</time>
      </trkpt>
      <trkpt lat="43.07049" lon="1.29892">
        <ele>533.2</ele>
        <time>2024-06-23T11:12:00Z</time>
      </trkpt>
      <trkpt lat="43.0705" lon="1.2989">
        <ele>533.2</ele>
        <time>2024-06-23T11:12:01Z</time>
      </trkpt>
      <trkpt lat="43.0705" lon="1.29887">
        <ele>533.2</ele>
        <time>2024-06-23T11:12:02Z</time>
      </trkpt>
      <trkpt lat="43.0705" lon="1.29884">
        <ele>533.6</ele>
        <time>2024-06-23T11:12:03Z</time>
      </trkpt>
      <trkpt lat="43.0705" lon="1.29882">
        <ele>533.6</ele>
        <time>2024-06-23T11:12:04Z</time>
      </trkpt>
      <trkpt lat="43.0705" lon="1.29879">
        <ele>533.6</ele>
        <time>2024-06-23T11:12:05Z</time>
      </trkpt>
      <trkpt lat="43.0705" lon="1.29876">
        <ele>533.8</ele>
        <time>2024-06-23T11:12:06Z</time>
      </trkpt>
      <trkpt lat="43.0705" lon="1.29873">
        <ele>534</ele>
        <time>2024-06-23T11:12:07Z</time>
      </trkpt>
      <trkpt lat="43.0705" lon="1.2987">
        <ele>534</ele>
        <time>2024-06-23T11:12:08Z</time>
      </trkpt>
      <trkpt lat="43.0705" lon="1.29867">
        <ele>534.2</ele>
        <time>2024-06-23T11:12:09Z</time>
      </trkpt>
      <trkpt lat="43.07049" lon="1.29863">
        <ele>534.6</ele>
        <time>2024-06-23T11:12:10Z</time>
      </trkpt>
      <trkpt lat="43.07049" lon="1.29859">
        <ele>535</ele>
        <time>2024-06-23T11:12:11Z</time>
      </trkpt>
      <trkpt lat="43.07048" lon="1.29856">
        <ele>535.2</ele>
        <time>2024-06-23T11:12:12Z</time>
      </trkpt>
      <trkpt lat="43.07047" lon="1.29852">
        <ele>535.6</ele>
        <time>2024-06-23T11:12:13Z</time>
      </trkpt>
      <trkpt lat="43.07047" lon="1.29849">
        <ele>535.8</ele>
        <time>2024-06-23T11:12:14Z</time>
      </trkpt>
      <trkpt lat="43.07047" lon="1.29845">
        <ele>536.2</ele>
        <time>2024-06-23T11:12:15Z</time>
      </trkpt>
      <trkpt lat="43.07047" lon="1.29842">
        <ele>536.2</ele>
        <time>2024-06-23T11:12:16Z</time>
      </trkpt>
      <trkpt lat="43.07047" lon="1.29839">
        <ele>536.6</ele>
        <time>2024-06-23T11:12:17Z</time>
      </trkpt>
      <trkpt lat="43.07047" lon="1.29837">
        <ele>537</ele>
        <time>2024-06-23T11:12:18Z</time>
      </trkpt>
      <trkpt lat="43.07047" lon="1.29834">
        <ele>537</ele>
        <time>2024-06-23T11:12:19Z</time>
      </trkpt>
      <trkpt lat="43.07047" lon="1.29832">
        <ele>537.4</ele>
        <time>2024-06-23T11:12:20Z</time>
      </trkpt>
      <trkpt lat="43.07047" lon="1.2983">
        <ele>537.4</ele>
        <time>2024-06-23T11:12:21Z</time>
      </trkpt>
      <trkpt lat="43.07048" lon="1.29827">
        <ele>537.8</ele>
        <time>2024-06-23T11:12:22Z</time>
      </trkpt>
      <trkpt lat="43.07047" lon="1.29823">
        <ele>538</ele>
        <time>2024-06-23T11:12:23Z</time>
      </trkpt>
      <trkpt lat="43.07047" lon="1.29819">
        <ele>538.2</ele>
        <time>2024-06-23T11:12:24Z</time>
      </trkpt>
      <trkpt lat="43.07046" lon="1.29815">
        <ele>538.4</ele>
        <time>2024-06-23T11:12:25Z</time>
      </trkpt>
      <trkpt lat="43.07045" lon="1.29812">
        <ele>538.8</ele>
        <time>2024-06-23T11:12:26Z</time>
      </trkpt>
      <trkpt lat="43.07045" lon="1.29808">
        <ele>538.8</ele>
        <time>2024-06-23T11:12:27Z</time>
      </trkpt>
      <trkpt lat="43.07044" lon="1.29805">
        <ele>539.2</ele>
        <time>2024-06-23T11:12:28Z</time>
      </trkpt>
      <trkpt lat="43.07043" lon="1.29802">
        <ele>539.4</ele>
        <time>2024-06-23T11:12:29Z</time>
      </trkpt>
      <trkpt lat="43.07042" lon="1.29798">
        <ele>539.4</ele>
        <time>2024-06-23T11:12:30Z</time>
      </trkpt>
      <trkpt lat="43.07041" lon="1.29795">
        <ele>539.6</ele>
        <time>2024-06-23T11:12:31Z</time>
      </trkpt>
      <trkpt lat="43.07039" lon="1.29791">
        <ele>539.6</ele>
        <time>2024-06-23T11:12:32Z</time>
      </trkpt>
      <trkpt lat="43.07038" lon="1.29789">
        <ele>540</ele>
        <time>2024-06-23T11:12:33Z</time>
      </trkpt>
      <trkpt lat="43.07036" lon="1.29787">
        <ele>540</ele>
        <time>2024-06-23T11:12:34Z</time>
      </trkpt>
      <trkpt lat="43.07034" lon="1.29784">
        <ele>540.4</ele>
        <time>2024-06-23T11:12:35Z</time>
      </trkpt>
      <trkpt lat="43.07032" lon="1.29781">
        <ele>540.4</ele>
        <time>2024-06-23T11:12:36Z</time>
      </trkpt>
      <trkpt lat="43.07031" lon="1.29779">
        <ele>540.8</ele>
        <time>2024-06-23T11:12:37Z</time>
      </trkpt>
      <trkpt lat="43.07029" lon="1.29777">
        <ele>540.8</ele>
        <time>2024-06-23T11:12:38Z</time>
      </trkpt>
      <trkpt lat="43.07027" lon="1.29776">
        <ele>541</ele>
        <time>2024-06-23T11:12:39Z</time>
      </trkpt>
      <trkpt lat="43.07025" lon="1.29774">
        <ele>541.4</ele>
        <time>2024-06-23T11:12:40Z</time>
      </trkpt>
      <trkpt lat="43.07022" lon="1.29773">
        <ele>541.6</ele>
        <time>2024-06-23T11:12:41Z</time>
      </trkpt>
      <trkpt lat="43.0702" lon="1.29773">
        <ele>542</ele>
        <time>2024-06-23T11:12:42Z</time>
      </trkpt>
      <trkpt lat="43.07017" lon="1.29773">
        <ele>542.2</ele>
        <time>2024-06-23T11:12:43Z</time>
      </trkpt>
      <trkpt lat="43.07015" lon="1.29773">
        <ele>542.2</ele>
        <time>2024-06-23T11:12:44Z</time>
      </trkpt>
      <trkpt lat="43.07012" lon="1.29773">
        <ele>542.4</ele>
        <time>2024-06-23T11:12:45Z</time>
      </trkpt>
      <trkpt lat="43.0701" lon="1.29773">
        <ele>542.4</ele>
        <time>2024-06-23T11:12:46Z</time>
      </trkpt>
      <trkpt lat="43.07007" lon="1.29774">
        <ele>542.8</ele>
        <time>2024-06-23T11:12:47Z</time>
      </trkpt>
      <trkpt lat="43.07005" lon="1.29775">
        <ele>542.8</ele>
        <time>2024-06-23T11:12:48Z</time>
      </trkpt>
      <trkpt lat="43.07002" lon="1.29776">
        <ele>543</ele>
        <time>2024-06-23T11:12:49Z</time>
      </trkpt>
      <trkpt lat="43.06999" lon="1.29777">
        <ele>543</ele>
        <time>2024-06-23T11:12:50Z</time>
      </trkpt>
      <trkpt lat="43.06997" lon="1.29779">
        <ele>543</ele>
        <time>2024-06-23T11:12:51Z</time>
      </trkpt>
      <trkpt lat="43.06994" lon="1.2978">
        <ele>543</ele>
        <time>2024-06-23T11:12:52Z</time>
      </trkpt>
      <trkpt lat="43.06992" lon="1.29782">
        <ele>543</ele>
        <time>2024-06-23T11:12:53Z</time>
      </trkpt>
      <trkpt lat="43.06989" lon="1.29783">
        <ele>543</ele>
        <time>2024-06-23T11:12:54Z</time>
      </trkpt>
      <trkpt lat="43.06987" lon="1.29785">
        <ele>543</ele>
        <time>2024-06-23T11:12:55Z</time>
      </trkpt>
      <trkpt lat="43.06985" lon="1.29787">
        <ele>543.2</ele>
        <time>2024-06-23T11:12:56Z</time>
      </trkpt>
      <trkpt lat="43.06981" lon="1.29789">
        <ele>543.2</ele>
        <time>2024-06-23T11:12:57Z</time>
      </trkpt>
      <trkpt lat="43.06978" lon="1.2979">
        <ele>543.2</ele>
        <time>2024-06-23T11:12:58Z</time>
      </trkpt>
      <trkpt lat="43.06976" lon="1.29792">
        <ele>543.2</ele>
        <time>2024-06-23T11:12:59Z</time>
      </trkpt>
      <trkpt lat="43.06974" lon="1.29794">
        <ele>543.2</ele>
        <time>2024-06-23T11:13:00Z</time>
      </trkpt>
      <trkpt lat="43.06971" lon="1.29796">
        <ele>543.2</ele>
        <time>2024-06-23T11:13:01Z</time>
      </trkpt>
      <trkpt lat="43.06968" lon="1.29798">
        <ele>543.2</ele>
        <time>2024-06-23T11:13:02Z</time>
      </trkpt>
      <trkpt lat="43.06966" lon="1.29801">
        <ele>543.2</ele>
        <time>2024-06-23T11:13:03Z</time>
      </trkpt>
      <trkpt lat="43.06963" lon="1.29803">
        <ele>543.2</ele>
        <time>2024-06-23T11:13:04Z</time>
      </trkpt>
      <trkpt lat="43.06961" lon="1.29805">
        <ele>543.2</ele>
        <time>2024-06-23T11:13:05Z</time>
      </trkpt>
      <trkpt lat="43.06958" lon="1.29808">
        <ele>543.2</ele>
        <time>2024-06-23T11:13:06Z</time>
      </trkpt>
      <trkpt lat="43.06952" lon="1.29813">
        <ele>543.2</ele>
        <time>2024-06-23T11:13:07Z</time>
      </trkpt>
      <trkpt lat="43.06949" lon="1.29815">
        <ele>543.2</ele>
        <time>2024-06-23T11:13:08Z</time>
      </trkpt>
      <trkpt lat="43.06946" lon="1.29817">
        <ele>543.2</ele>
        <time>2024-06-23T11:13:09Z</time>
      </trkpt>
      <trkpt lat="43.06944" lon="1.29819">
        <ele>543.2</ele>
        <time>2024-06-23T11:13:10Z</time>
      </trkpt>
      <trkpt lat="43.06942" lon="1.29821">
        <ele>543.2</ele>
        <time>2024-06-23T11:13:11Z</time>
      </trkpt>
      <trkpt lat="43.06939" lon="1.29823">
        <ele>543.2</ele>
        <time>2024-06-23T11:13:12Z</time>
      </trkpt>
      <trkpt lat="43.06935" lon="1.29825">
        <ele>543.2</ele>
        <time>2024-06-23T11:13:13Z</time>
      </trkpt>
      <trkpt lat="43.06933" lon="1.29827">
        <ele>543.2</ele>
        <time>2024-06-23T11:13:14Z</time>
      </trkpt>
      <trkpt lat="43.06929" lon="1.29828">
        <ele>543.2</ele>
        <time>2024-06-23T11:13:15Z</time>
      </trkpt>
      <trkpt lat="43.06926" lon="1.2983">
        <ele>543.2</ele>
        <time>2024-06-23T11:13:16Z</time>
      </trkpt>
      <trkpt lat="43.06922" lon="1.29831">
        <ele>543.4</ele>
        <time>2024-06-23T11:13:17Z</time>
      </trkpt>
      <trkpt lat="43.06919" lon="1.29832">
        <ele>543.4</ele>
        <time>2024-06-23T11:13:18Z</time>
      </trkpt>
      <trkpt lat="43.06915" lon="1.29833">
        <ele>543.4</ele>
        <time>2024-06-23T11:13:19Z</time>
      </trkpt>
      <trkpt lat="43.06912" lon="1.29833">
        <ele>543.8</ele>
        <time>2024-06-23T11:13:20Z</time>
      </trkpt>
      <trkpt lat="43.06908" lon="1.29834">
        <ele>543.8</ele>
        <time>2024-06-23T11:13:21Z</time>
      </trkpt>
      <trkpt lat="43.06905" lon="1.29834">
        <ele>543.8</ele>
        <time>2024-06-23T11:13:22Z</time>
      </trkpt>
      <trkpt lat="43.06901" lon="1.29833">
        <ele>544</ele>
        <time>2024-06-23T11:13:23Z</time>
      </trkpt>
      <trkpt lat="43.06898" lon="1.29833">
        <ele>544</ele>
        <time>2024-06-23T11:13:24Z</time>
      </trkpt>
      <trkpt lat="43.06895" lon="1.29833">
        <ele>544.2</ele>
        <time>2024-06-23T11:13:25Z</time>
      </trkpt>
      <trkpt lat="43.06892" lon="1.29832">
        <ele>544.2</ele>
        <time>2024-06-23T11:13:26Z</time>
      </trkpt>
      <trkpt lat="43.06888" lon="1.29832">
        <ele>544.2</ele>
        <time>2024-06-23T11:13:27Z</time>
      </trkpt>
      <trkpt lat="43.06885" lon="1.29832">
        <ele>544.2</ele>
        <time>2024-06-23T11:13:28Z</time>
      </trkpt>
      <trkpt lat="43.06882" lon="1.29832">
        <ele>544.2</ele>
        <time>2024-06-23T11:13:29Z</time>
      </trkpt>
      <trkpt lat="43.06879" lon="1.29832">
        <ele>544.2</ele>
        <time>2024-06-23T11:13:30Z</time>
      </trkpt>
      <trkpt lat="43.06876" lon="1.29832">
        <ele>544.2</ele>
        <time>2024-06-23T11:13:31Z</time>
      </trkpt>
      <trkpt lat="43.06873" lon="1.29832">
        <ele>544.6</ele>
        <time>2024-06-23T11:13:32Z</time>
      </trkpt>
      <trkpt lat="43.0687" lon="1.29832">
        <ele>544.6</ele>
        <time>2024-06-23T11:13:33Z</time>
      </trkpt>
      <trkpt lat="43.06867" lon="1.29832">
        <ele>545</ele>
        <time>2024-06-23T11:13:34Z</time>
      </trkpt>
      <trkpt lat="43.06864" lon="1.29832">
        <ele>545.2</ele>
        <time>2024-06-23T11:13:35Z</time>
      </trkpt>
      <trkpt lat="43.06861" lon="1.29832">
        <ele>545.4</ele>
        <time>2024-06-23T11:13:36Z</time>
      </trkpt>
      <trkpt lat="43.06858" lon="1.29831">
        <ele>545.4</ele>
        <time>2024-06-23T11:13:37Z</time>
      </trkpt>
      <trkpt lat="43.06856" lon="1.29831">
        <ele>545.8</ele>
        <time>2024-06-23T11:13:38Z</time>
      </trkpt>
      <trkpt lat="43.06853" lon="1.29831">
        <ele>546</ele>
        <time>2024-06-23T11:13:39Z</time>
      </trkpt>
      <trkpt lat="43.06851" lon="1.29831">
        <ele>546</ele>
        <time>2024-06-23T11:13:40Z</time>
      </trkpt>
      <trkpt lat="43.06848" lon="1.29831">
        <ele>546.6</ele>
        <time>2024-06-23T11:13:41Z</time>
      </trkpt>
      <trkpt lat="43.06846" lon="1.29831">
        <ele>546.8</ele>
        <time>2024-06-23T11:13:42Z</time>
      </trkpt>
      <trkpt lat="43.06843" lon="1.29831">
        <ele>546.8</ele>
        <time>2024-06-23T11:13:43Z</time>
      </trkpt>
      <trkpt lat="43.06841" lon="1.29831">
        <ele>547.2</ele>
        <time>2024-06-23T11:13:44Z</time>
      </trkpt>
      <trkpt lat="43.06838" lon="1.2983">
        <ele>547.6</ele>
        <time>2024-06-23T11:13:45Z</time>
      </trkpt>
      <trkpt lat="43.06835" lon="1.29829">
        <ele>547.6</ele>
        <time>2024-06-23T11:13:46Z</time>
      </trkpt>
      <trkpt lat="43.06833" lon="1.29829">
        <ele>547.6</ele>
        <time>2024-06-23T11:13:47Z</time>
      </trkpt>
      <trkpt lat="43.0683" lon="1.29828">
        <ele>548</ele>
        <time>2024-06-23T11:13:48Z</time>
      </trkpt>
      <trkpt lat="43.06828" lon="1.29827">
        <ele>548.4</ele>
        <time>2024-06-23T11:13:49Z</time>
      </trkpt>
      <trkpt lat="43.06825" lon="1.29826">
        <ele>548.8</ele>
        <time>2024-06-23T11:13:50Z</time>
      </trkpt>
      <trkpt lat="43.06823" lon="1.29825">
        <ele>548.8</ele>
        <time>2024-06-23T11:13:51Z</time>
      </trkpt>
      <trkpt lat="43.0682" lon="1.29824">
        <ele>549</ele>
        <time>2024-06-23T11:13:52Z</time>
      </trkpt>
      <trkpt lat="43.06818" lon="1.29823">
        <ele>549.6</ele>
        <time>2024-06-23T11:13:53Z</time>
      </trkpt>
      <trkpt lat="43.06815" lon="1.29822">
        <ele>550</ele>
        <time>2024-06-23T11:13:54Z</time>
      </trkpt>
      <trkpt lat="43.06812" lon="1.29821">
        <ele>550.2</ele>
        <time>2024-06-23T11:13:55Z</time>
      </trkpt>
      <trkpt lat="43.0681" lon="1.2982">
        <ele>550.6</ele>
        <time>2024-06-23T11:13:56Z</time>
      </trkpt>
      <trkpt lat="43.06808" lon="1.29819">
        <ele>550.8</ele>
        <time>2024-06-23T11:13:57Z</time>
      </trkpt>
      <trkpt lat="43.06805" lon="1.29818">
        <ele>550.8</ele>
        <time>2024-06-23T11:13:58Z</time>
      </trkpt>
      <trkpt lat="43.06803" lon="1.29817">
        <ele>550.8</ele>
        <time>2024-06-23T11:13:59Z</time>
      </trkpt>
      <trkpt lat="43.06801" lon="1.29816">
        <ele>550.8</ele>
        <time>2024-06-23T11:14:00Z</time>
      </trkpt>
      <trkpt lat="43.06798" lon="1.29815">
        <ele>551.2</ele>
        <time>2024-06-23T11:14:01Z</time>
      </trkpt>
      <trkpt lat="43.06796" lon="1.29813">
        <ele>551.6</ele>
        <time>2024-06-23T11:14:02Z</time>
      </trkpt>
      <trkpt lat="43.06793" lon="1.29812">
        <ele>551.6</ele>
        <time>2024-06-23T11:14:03Z</time>
      </trkpt>
      <trkpt lat="43.06791" lon="1.2981">
        <ele>551.6</ele>
        <time>2024-06-23T11:14:04Z</time>
      </trkpt>
      <trkpt lat="43.06789" lon="1.29808">
        <ele>552</ele>
        <time>2024-06-23T11:14:05Z</time>
      </trkpt>
      <trkpt lat="43.06787" lon="1.29806">
        <ele>552.2</ele>
        <time>2024-06-23T11:14:06Z</time>
      </trkpt>
      <trkpt lat="43.06784" lon="1.29805">
        <ele>552.6</ele>
        <time>2024-06-23T11:14:07Z</time>
      </trkpt>
      <trkpt lat="43.06782" lon="1.29803">
        <ele>552.8</ele>
        <time>2024-06-23T11:14:08Z</time>
      </trkpt>
      <trkpt lat="43.0678" lon="1.29802">
        <ele>552.8</ele>
        <time>2024-06-23T11:14:09Z</time>
      </trkpt>
      <trkpt lat="43.06777" lon="1.29801">
        <ele>552.8</ele>
        <time>2024-06-23T11:14:10Z</time>
      </trkpt>
      <trkpt lat="43.06775" lon="1.29799">
        <ele>553.4</ele>
        <time>2024-06-23T11:14:11Z</time>
      </trkpt>
      <trkpt lat="43.06772" lon="1.29798">
        <ele>553.4</ele>
        <time>2024-06-23T11:14:12Z</time>
      </trkpt>
      <trkpt lat="43.0677" lon="1.29796">
        <ele>553.4</ele>
        <time>2024-06-23T11:14:13Z</time>
      </trkpt>
      <trkpt lat="43.06768" lon="1.29794">
        <ele>553.8</ele>
        <time>2024-06-23T11:14:14Z</time>
      </trkpt>
      <trkpt lat="43.06765" lon="1.29792">
        <ele>553.8</ele>
        <time>2024-06-23T11:14:15Z</time>
      </trkpt>
      <trkpt lat="43.06763" lon="1.29791">
        <ele>554.2</ele>
        <time>2024-06-23T11:14:16Z</time>
      </trkpt>
      <trkpt lat="43.0676" lon="1.29789">
        <ele>554.2</ele>
        <time>2024-06-23T11:14:17Z</time>
      </trkpt>
      <trkpt lat="43.06758" lon="1.29788">
        <ele>554.2</ele>
        <time>2024-06-23T11:14:18Z</time>
      </trkpt>
      <trkpt lat="43.06756" lon="1.29787">
        <ele>554.4</ele>
        <time>2024-06-23T11:14:19Z</time>
      </trkpt>
      <trkpt lat="43.06753" lon="1.29786">
        <ele>554.4</ele>
        <time>2024-06-23T11:14:20Z</time>
      </trkpt>
      <trkpt lat="43.06751" lon="1.29784">
        <ele>554.8</ele>
        <time>2024-06-23T11:14:21Z</time>
      </trkpt>
      <trkpt lat="43.06748" lon="1.29783">
        <ele>554.8</ele>
        <time>2024-06-23T11:14:22Z</time>
      </trkpt>
      <trkpt lat="43.06746" lon="1.29782">
        <ele>555.2</ele>
        <time>2024-06-23T11:14:23Z</time>
      </trkpt>
      <trkpt lat="43.06743" lon="1.29781">
        <ele>555.2</ele>
        <time>2024-06-23T11:14:24Z</time>
      </trkpt>
      <trkpt lat="43.06741" lon="1.2978">
        <ele>555.4</ele>
        <time>2024-06-23T11:14:25Z</time>
      </trkpt>
      <trkpt lat="43.06739" lon="1.29779">
        <ele>555.4</ele>
        <time>2024-06-23T11:14:26Z</time>
      </trkpt>
      <trkpt lat="43.06736" lon="1.29779">
        <ele>555.8</ele>
        <time>2024-06-23T11:14:27Z</time>
      </trkpt>
      <trkpt lat="43.06734" lon="1.29778">
        <ele>556</ele>
        <time>2024-06-23T11:14:28Z</time>
      </trkpt>
      <trkpt lat="43.06732" lon="1.29778">
        <ele>556</ele>
        <time>2024-06-23T11:14:29Z</time>
      </trkpt>
      <trkpt lat="43.0673" lon="1.29777">
        <ele>556.2</ele>
        <time>2024-06-23T11:14:30Z</time>
      </trkpt>
      <trkpt lat="43.06727" lon="1.29775">
        <ele>556.2</ele>
        <time>2024-06-23T11:14:31Z</time>
      </trkpt>
      <trkpt lat="43.06725" lon="1.29774">
        <ele>556.6</ele>
        <time>2024-06-23T11:14:32Z</time>
      </trkpt>
      <trkpt lat="43.06723" lon="1.29772">
        <ele>556.8</ele>
        <time>2024-06-23T11:14:33Z</time>
      </trkpt>
      <trkpt lat="43.06721" lon="1.29771">
        <ele>556.8</ele>
        <time>2024-06-23T11:14:34Z</time>
      </trkpt>
      <trkpt lat="43.06719" lon="1.29771">
        <ele>557.2</ele>
        <time>2024-06-23T11:14:35Z</time>
      </trkpt>
      <trkpt lat="43.06717" lon="1.2977">
        <ele>557.6</ele>
        <time>2024-06-23T11:14:36Z</time>
      </trkpt>
      <trkpt lat="43.06715" lon="1.29769">
        <ele>557.6</ele>
        <time>2024-06-23T11:14:37Z</time>
      </trkpt>
      <trkpt lat="43.06712" lon="1.29767">
        <ele>558</ele>
        <time>2024-06-23T11:14:38Z</time>
      </trkpt>
      <trkpt lat="43.0671" lon="1.29765">
        <ele>558</ele>
        <time>2024-06-23T11:14:39Z</time>
      </trkpt>
      <trkpt lat="43.06709" lon="1.29762">
        <ele>558.4</ele>
        <time>2024-06-23T11:14:40Z</time>
      </trkpt>
      <trkpt lat="43.06708" lon="1.29759">
        <ele>558.6</ele>
        <time>2024-06-23T11:14:41Z</time>
      </trkpt>
      <trkpt lat="43.06706" lon="1.29757">
        <ele>558.6</ele>
        <time>2024-06-23T11:14:42Z</time>
      </trkpt>
      <trkpt lat="43.06704" lon="1.29754">
        <ele>559</ele>
        <time>2024-06-23T11:14:43Z</time>
      </trkpt>
      <trkpt lat="43.06703" lon="1.29752">
        <ele>559.2</ele>
        <time>2024-06-23T11:14:44Z</time>
      </trkpt>
      <trkpt lat="43.06701" lon="1.2975">
        <ele>559.2</ele>
        <time>2024-06-23T11:14:45Z</time>
      </trkpt>
      <trkpt lat="43.06699" lon="1.29747">
        <ele>559.6</ele>
        <time>2024-06-23T11:14:46Z</time>
      </trkpt>
      <trkpt lat="43.06697" lon="1.29745">
        <ele>559.6</ele>
        <time>2024-06-23T11:14:47Z</time>
      </trkpt>
      <trkpt lat="43.06695" lon="1.29743">
        <ele>560</ele>
        <time>2024-06-23T11:14:48Z</time>
      </trkpt>
      <trkpt lat="43.06693" lon="1.29741">
        <ele>560</ele>
        <time>2024-06-23T11:14:49Z</time>
      </trkpt>
      <trkpt lat="43.06691" lon="1.29738">
        <ele>560.2</ele>
        <time>2024-06-23T11:14:50Z</time>
      </trkpt>
      <trkpt lat="43.0669" lon="1.29735">
        <ele>560.6</ele>
        <time>2024-06-23T11:14:51Z</time>
      </trkpt>
      <trkpt lat="43.06688" lon="1.29732">
        <ele>560.6</ele>
        <time>2024-06-23T11:14:52Z</time>
      </trkpt>
      <trkpt lat="43.06685" lon="1.2973">
        <ele>560.6</ele>
        <time>2024-06-23T11:14:53Z</time>
      </trkpt>
      <trkpt lat="43.06683" lon="1.29727">
        <ele>560.8</ele>
        <time>2024-06-23T11:14:54Z</time>
      </trkpt>
      <trkpt lat="43.06681" lon="1.29725">
        <ele>561</ele>
        <time>2024-06-23T11:14:55Z</time>
      </trkpt>
      <trkpt lat="43.06679" lon="1.29723">
        <ele>561</ele>
        <time>2024-06-23T11:14:56Z</time>
      </trkpt>
      <trkpt lat="43.06676" lon="1.2972">
        <ele>561.2</ele>
        <time>2024-06-23T11:14:57Z</time>
      </trkpt>
      <trkpt lat="43.06674" lon="1.29717">
        <ele>561.4</ele>
        <time>2024-06-23T11:14:58Z</time>
      </trkpt>
      <trkpt lat="43.06672" lon="1.29714">
        <ele>561.4</ele>
        <time>2024-06-23T11:14:59Z</time>
      </trkpt>
      <trkpt lat="43.0667" lon="1.29712">
        <ele>561.6</ele>
        <time>2024-06-23T11:15:00Z</time>
      </trkpt>
      <trkpt lat="43.06668" lon="1.29709">
        <ele>561.8</ele>
        <time>2024-06-23T11:15:01Z</time>
      </trkpt>
      <trkpt lat="43.06666" lon="1.29707">
        <ele>561.8</ele>
        <time>2024-06-23T11:15:02Z</time>
      </trkpt>
      <trkpt lat="43.06664" lon="1.29705">
        <ele>561.8</ele>
        <time>2024-06-23T11:15:03Z</time>
      </trkpt>
      <trkpt lat="43.06662" lon="1.29702">
        <ele>562.4</ele>
        <time>2024-06-23T11:15:04Z</time>
      </trkpt>
      <trkpt lat="43.06661" lon="1.29699">
        <ele>562.8</ele>
        <time>2024-06-23T11:15:05Z</time>
      </trkpt>
      <trkpt lat="43.06658" lon="1.29696">
        <ele>562.8</ele>
        <time>2024-06-23T11:15:06Z</time>
      </trkpt>
      <trkpt lat="43.06656" lon="1.29693">
        <ele>563.2</ele>
        <time>2024-06-23T11:15:07Z</time>
      </trkpt>
      <trkpt lat="43.06654" lon="1.2969">
        <ele>563.4</ele>
        <time>2024-06-23T11:15:08Z</time>
      </trkpt>
      <trkpt lat="43.06653" lon="1.29687">
        <ele>563.4</ele>
        <time>2024-06-23T11:15:09Z</time>
      </trkpt>
      <trkpt lat="43.06651" lon="1.29684">
        <ele>563.8</ele>
        <time>2024-06-23T11:15:10Z</time>
      </trkpt>
      <trkpt lat="43.06649" lon="1.29681">
        <ele>563.8</ele>
        <time>2024-06-23T11:15:11Z</time>
      </trkpt>
      <trkpt lat="43.06648" lon="1.29678">
        <ele>563.8</ele>
        <time>2024-06-23T11:15:12Z</time>
      </trkpt>
      <trkpt lat="43.06646" lon="1.29674">
        <ele>564.2</ele>
        <time>2024-06-23T11:15:13Z</time>
      </trkpt>
      <trkpt lat="43.06645" lon="1.2967">
        <ele>564.2</ele>
        <time>2024-06-23T11:15:14Z</time>
      </trkpt>
      <trkpt lat="43.06644" lon="1.29667">
        <ele>564.2</ele>
        <time>2024-06-23T11:15:15Z</time>
      </trkpt>
      <trkpt lat="43.06643" lon="1.29664">
        <ele>564.4</ele>
        <time>2024-06-23T11:15:16Z</time>
      </trkpt>
      <trkpt lat="43.06642" lon="1.29661">
        <ele>564.6</ele>
        <time>2024-06-23T11:15:17Z</time>
      </trkpt>
      <trkpt lat="43.06641" lon="1.29658">
        <ele>564.6</ele>
        <time>2024-06-23T11:15:18Z</time>
      </trkpt>
      <trkpt lat="43.06639" lon="1.29655">
        <ele>565</ele>
        <time>2024-06-23T11:15:19Z</time>
      </trkpt>
      <trkpt lat="43.06637" lon="1.29652">
        <ele>565</ele>
        <time>2024-06-23T11:15:20Z</time>
      </trkpt>
      <trkpt lat="43.06635" lon="1.29649">
        <ele>565</ele>
        <time>2024-06-23T11:15:21Z</time>
      </trkpt>
      <trkpt lat="43.06635" lon="1.29649">
        <ele>565.4</ele>
        <time>2024-06-23T11:15:22Z</time>
      </trkpt>
      <trkpt lat="43.06633" lon="1.29646">
        <ele>565.6</ele>
        <time>2024-06-23T11:15:23Z</time>
      </trkpt>
      <trkpt lat="43.06631" lon="1.29643">
        <ele>565.8</ele>
        <time>2024-06-23T11:15:24Z</time>
      </trkpt>
      <trkpt lat="43.06629" lon="1.29641">
        <ele>565.8</ele>
        <time>2024-06-23T11:15:25Z</time>
      </trkpt>
      <trkpt lat="43.06628" lon="1.29638">
        <ele>566.2</ele>
        <time>2024-06-23T11:15:26Z</time>
      </trkpt>
      <trkpt lat="43.06626" lon="1.29635">
        <ele>566.8</ele>
        <time>2024-06-23T11:15:27Z</time>
      </trkpt>
      <trkpt lat="43.06625" lon="1.29632">
        <ele>567</ele>
        <time>2024-06-23T11:15:28Z</time>
      </trkpt>
      <trkpt lat="43.06624" lon="1.29629">
        <ele>567</ele>
        <time>2024-06-23T11:15:29Z</time>
      </trkpt>
      <trkpt lat="43.06623" lon="1.29625">
        <ele>567</ele>
        <time>2024-06-23T11:15:30Z</time>
      </trkpt>
      <trkpt lat="43.06622" lon="1.29622">
        <ele>567</ele>
        <time>2024-06-23T11:15:31Z</time>
      </trkpt>
      <trkpt lat="43.0662" lon="1.29619">
        <ele>567.6</ele>
        <time>2024-06-23T11:15:32Z</time>
      </trkpt>
      <trkpt lat="43.06619" lon="1.29615">
        <ele>567.8</ele>
        <time>2024-06-23T11:15:33Z</time>
      </trkpt>
      <trkpt lat="43.06617" lon="1.29612">
        <ele>567.8</ele>
        <time>2024-06-23T11:15:34Z</time>
      </trkpt>
      <trkpt lat="43.06616" lon="1.29608">
        <ele>568.2</ele>
        <time>2024-06-23T11:15:35Z</time>
      </trkpt>
      <trkpt lat="43.06615" lon="1.29605">
        <ele>568.2</ele>
        <time>2024-06-23T11:15:36Z</time>
      </trkpt>
      <trkpt lat="43.06614" lon="1.29602">
        <ele>568.2</ele>
        <time>2024-06-23T11:15:37Z</time>
      </trkpt>
      <trkpt lat="43.06612" lon="1.29599">
        <ele>568.6</ele>
        <time>2024-06-23T11:15:38Z</time>
      </trkpt>
      <trkpt lat="43.06611" lon="1.29596">
        <ele>568.6</ele>
        <time>2024-06-23T11:15:39Z</time>
      </trkpt>
      <trkpt lat="43.0661" lon="1.29593">
        <ele>568.8</ele>
        <time>2024-06-23T11:15:40Z</time>
      </trkpt>
      <trkpt lat="43.06608" lon="1.2959">
        <ele>568.8</ele>
        <time>2024-06-23T11:15:41Z</time>
      </trkpt>
      <trkpt lat="43.06606" lon="1.29587">
        <ele>568.8</ele>
        <time>2024-06-23T11:15:42Z</time>
      </trkpt>
      <trkpt lat="43.06605" lon="1.29584">
        <ele>568.8</ele>
        <time>2024-06-23T11:15:43Z</time>
      </trkpt>
      <trkpt lat="43.06603" lon="1.29582">
        <ele>569.2</ele>
        <time>2024-06-23T11:15:44Z</time>
      </trkpt>
      <trkpt lat="43.06602" lon="1.2958">
        <ele>569.2</ele>
        <time>2024-06-23T11:15:45Z</time>
      </trkpt>
      <trkpt lat="43.06601" lon="1.29577">
        <ele>569.6</ele>
        <time>2024-06-23T11:15:46Z</time>
      </trkpt>
      <trkpt lat="43.066" lon="1.29574">
        <ele>569.6</ele>
        <time>2024-06-23T11:15:47Z</time>
      </trkpt>
      <trkpt lat="43.06599" lon="1.29571">
        <ele>570</ele>
        <time>2024-06-23T11:15:48Z</time>
      </trkpt>
      <trkpt lat="43.06597" lon="1.29567">
        <ele>570</ele>
        <time>2024-06-23T11:15:49Z</time>
      </trkpt>
      <trkpt lat="43.06596" lon="1.29564">
        <ele>570.4</ele>
        <time>2024-06-23T11:15:50Z</time>
      </trkpt>
      <trkpt lat="43.06594" lon="1.29561">
        <ele>570.6</ele>
        <time>2024-06-23T11:15:51Z</time>
      </trkpt>
      <trkpt lat="43.06592" lon="1.29558">
        <ele>571</ele>
        <time>2024-06-23T11:15:52Z</time>
      </trkpt>
      <trkpt lat="43.06589" lon="1.29555">
        <ele>571.2</ele>
        <time>2024-06-23T11:15:53Z</time>
      </trkpt>
      <trkpt lat="43.06587" lon="1.29552">
        <ele>571.2</ele>
        <time>2024-06-23T11:15:54Z</time>
      </trkpt>
      <trkpt lat="43.06585" lon="1.2955">
        <ele>571.6</ele>
        <time>2024-06-23T11:15:55Z</time>
      </trkpt>
      <trkpt lat="43.06583" lon="1.29548">
        <ele>571.8</ele>
        <time>2024-06-23T11:15:56Z</time>
      </trkpt>
      <trkpt lat="43.06581" lon="1.29547">
        <ele>571.8</ele>
        <time>2024-06-23T11:15:57Z</time>
      </trkpt>
      <trkpt lat="43.06578" lon="1.29546">
        <ele>572</ele>
        <time>2024-06-23T11:15:58Z</time>
      </trkpt>
      <trkpt lat="43.06575" lon="1.29546">
        <ele>572</ele>
        <time>2024-06-23T11:15:59Z</time>
      </trkpt>
      <trkpt lat="43.06572" lon="1.29545">
        <ele>572.2</ele>
        <time>2024-06-23T11:16:00Z</time>
      </trkpt>
      <trkpt lat="43.0657" lon="1.29544">
        <ele>572.2</ele>
        <time>2024-06-23T11:16:01Z</time>
      </trkpt>
      <trkpt lat="43.06567" lon="1.29543">
        <ele>572.4</ele>
        <time>2024-06-23T11:16:02Z</time>
      </trkpt>
      <trkpt lat="43.06565" lon="1.29542">
        <ele>572.4</ele>
        <time>2024-06-23T11:16:03Z</time>
      </trkpt>
      <trkpt lat="43.06563" lon="1.29542">
        <ele>572.6</ele>
        <time>2024-06-23T11:16:04Z</time>
      </trkpt>
      <trkpt lat="43.06561" lon="1.29541">
        <ele>572.6</ele>
        <time>2024-06-23T11:16:05Z</time>
      </trkpt>
      <trkpt lat="43.06559" lon="1.2954">
        <ele>573</ele>
        <time>2024-06-23T11:16:06Z</time>
      </trkpt>
      <trkpt lat="43.06556" lon="1.2954">
        <ele>573</ele>
        <time>2024-06-23T11:16:07Z</time>
      </trkpt>
      <trkpt lat="43.06553" lon="1.29539">
        <ele>573.4</ele>
        <time>2024-06-23T11:16:08Z</time>
      </trkpt>
      <trkpt lat="43.0655" lon="1.29539">
        <ele>573.4</ele>
        <time>2024-06-23T11:16:09Z</time>
      </trkpt>
      <trkpt lat="43.06547" lon="1.29538">
        <ele>573.6</ele>
        <time>2024-06-23T11:16:10Z</time>
      </trkpt>
      <trkpt lat="43.06545" lon="1.29537">
        <ele>573.6</ele>
        <time>2024-06-23T11:16:11Z</time>
      </trkpt>
      <trkpt lat="43.06542" lon="1.29537">
        <ele>574.2</ele>
        <time>2024-06-23T11:16:12Z</time>
      </trkpt>
      <trkpt lat="43.0654" lon="1.29536">
        <ele>574.4</ele>
        <time>2024-06-23T11:16:13Z</time>
      </trkpt>
      <trkpt lat="43.06538" lon="1.29535">
        <ele>574.4</ele>
        <time>2024-06-23T11:16:14Z</time>
      </trkpt>
      <trkpt lat="43.06535" lon="1.29534">
        <ele>574.8</ele>
        <time>2024-06-23T11:16:15Z</time>
      </trkpt>
      <trkpt lat="43.06533" lon="1.29532">
        <ele>574.8</ele>
        <time>2024-06-23T11:16:16Z</time>
      </trkpt>
      <trkpt lat="43.0653" lon="1.2953">
        <ele>575</ele>
        <time>2024-06-23T11:16:17Z</time>
      </trkpt>
      <trkpt lat="43.06527" lon="1.29528">
        <ele>575.2</ele>
        <time>2024-06-23T11:16:18Z</time>
      </trkpt>
      <trkpt lat="43.06525" lon="1.29527">
        <ele>575.2</ele>
        <time>2024-06-23T11:16:19Z</time>
      </trkpt>
      <trkpt lat="43.06522" lon="1.29526">
        <ele>575.2</ele>
        <time>2024-06-23T11:16:20Z</time>
      </trkpt>
      <trkpt lat="43.06519" lon="1.29524">
        <ele>575.4</ele>
        <time>2024-06-23T11:16:21Z</time>
      </trkpt>
      <trkpt lat="43.06517" lon="1.29522">
        <ele>575.6</ele>
        <time>2024-06-23T11:16:22Z</time>
      </trkpt>
      <trkpt lat="43.06514" lon="1.29519">
        <ele>576.2</ele>
        <time>2024-06-23T11:16:23Z</time>
      </trkpt>
      <trkpt lat="43.06512" lon="1.29517">
        <ele>576.2</ele>
        <time>2024-06-23T11:16:24Z</time>
      </trkpt>
      <trkpt lat="43.0651" lon="1.29515">
        <ele>576.6</ele>
        <time>2024-06-23T11:16:25Z</time>
      </trkpt>
      <trkpt lat="43.06508" lon="1.29514">
        <ele>576.6</ele>
        <time>2024-06-23T11:16:26Z</time>
      </trkpt>
      <trkpt lat="43.06505" lon="1.29512">
        <ele>576.6</ele>
        <time>2024-06-23T11:16:27Z</time>
      </trkpt>
      <trkpt lat="43.06503" lon="1.29511">
        <ele>577</ele>
        <time>2024-06-23T11:16:28Z</time>
      </trkpt>
      <trkpt lat="43.065" lon="1.2951">
        <ele>577</ele>
        <time>2024-06-23T11:16:29Z</time>
      </trkpt>
      <trkpt lat="43.06497" lon="1.29509">
        <ele>577</ele>
        <time>2024-06-23T11:16:30Z</time>
      </trkpt>
      <trkpt lat="43.06494" lon="1.29508">
        <ele>577.2</ele>
        <time>2024-06-23T11:16:31Z</time>
      </trkpt>
      <trkpt lat="43.06491" lon="1.29508">
        <ele>577.2</ele>
        <time>2024-06-23T11:16:32Z</time>
      </trkpt>
      <trkpt lat="43.06488" lon="1.29507">
        <ele>577.6</ele>
        <time>2024-06-23T11:16:33Z</time>
      </trkpt>
      <trkpt lat="43.06485" lon="1.29507">
        <ele>577.8</ele>
        <time>2024-06-23T11:16:34Z</time>
      </trkpt>
      <trkpt lat="43.06481" lon="1.29507">
        <ele>577.8</ele>
        <time>2024-06-23T11:16:35Z</time>
      </trkpt>
      <trkpt lat="43.06478" lon="1.29508">
        <ele>578.2</ele>
        <time>2024-06-23T11:16:36Z</time>
      </trkpt>
      <trkpt lat="43.06475" lon="1.29509">
        <ele>578.2</ele>
        <time>2024-06-23T11:16:37Z</time>
      </trkpt>
      <trkpt lat="43.06472" lon="1.2951">
        <ele>578.4</ele>
        <time>2024-06-23T11:16:38Z</time>
      </trkpt>
      <trkpt lat="43.06469" lon="1.29511">
        <ele>578.4</ele>
        <time>2024-06-23T11:16:39Z</time>
      </trkpt>
      <trkpt lat="43.06466" lon="1.29512">
        <ele>578.4</ele>
        <time>2024-06-23T11:16:40Z</time>
      </trkpt>
      <trkpt lat="43.06463" lon="1.29513">
        <ele>578.4</ele>
        <time>2024-06-23T11:16:41Z</time>
      </trkpt>
      <trkpt lat="43.0646" lon="1.29514">
        <ele>578.8</ele>
        <time>2024-06-23T11:16:42Z</time>
      </trkpt>
      <trkpt lat="43.06457" lon="1.29515">
        <ele>579</ele>
        <time>2024-06-23T11:16:43Z</time>
      </trkpt>
      <trkpt lat="43.06454" lon="1.29516">
        <ele>579.2</ele>
        <time>2024-06-23T11:16:44Z</time>
      </trkpt>
      <trkpt lat="43.06451" lon="1.29517">
        <ele>579.6</ele>
        <time>2024-06-23T11:16:45Z</time>
      </trkpt>
      <trkpt lat="43.06448" lon="1.29518">
        <ele>579.8</ele>
        <time>2024-06-23T11:16:46Z</time>
      </trkpt>
      <trkpt lat="43.06445" lon="1.29518">
        <ele>579.8</ele>
        <time>2024-06-23T11:16:47Z</time>
      </trkpt>
      <trkpt lat="43.06442" lon="1.29519">
        <ele>580</ele>
        <time>2024-06-23T11:16:48Z</time>
      </trkpt>
      <trkpt lat="43.0644" lon="1.2952">
        <ele>580</ele>
        <time>2024-06-23T11:16:49Z</time>
      </trkpt>
      <trkpt lat="43.06435" lon="1.29521">
        <ele>580</ele>
        <time>2024-06-23T11:16:50Z</time>
      </trkpt>
      <trkpt lat="43.06432" lon="1.29522">
        <ele>580.4</ele>
        <time>2024-06-23T11:16:51Z</time>
      </trkpt>
      <trkpt lat="43.0643" lon="1.29522">
        <ele>580.4</ele>
        <time>2024-06-23T11:16:52Z</time>
      </trkpt>
      <trkpt lat="43.06428" lon="1.29522">
        <ele>580.6</ele>
        <time>2024-06-23T11:16:53Z</time>
      </trkpt>
      <trkpt lat="43.06425" lon="1.29522">
        <ele>580.6</ele>
        <time>2024-06-23T11:16:54Z</time>
      </trkpt>
      <trkpt lat="43.06422" lon="1.29521">
        <ele>580.8</ele>
        <time>2024-06-23T11:16:55Z</time>
      </trkpt>
      <trkpt lat="43.06419" lon="1.2952">
        <ele>581</ele>
        <time>2024-06-23T11:16:56Z</time>
      </trkpt>
      <trkpt lat="43.06416" lon="1.29519">
        <ele>581</ele>
        <time>2024-06-23T11:16:57Z</time>
      </trkpt>
      <trkpt lat="43.06413" lon="1.29518">
        <ele>581</ele>
        <time>2024-06-23T11:16:58Z</time>
      </trkpt>
      <trkpt lat="43.06411" lon="1.29517">
        <ele>581.4</ele>
        <time>2024-06-23T11:16:59Z</time>
      </trkpt>
      <trkpt lat="43.06408" lon="1.29515">
        <ele>581.4</ele>
        <time>2024-06-23T11:17:00Z</time>
      </trkpt>
      <trkpt lat="43.06406" lon="1.29514">
        <ele>581.6</ele>
        <time>2024-06-23T11:17:01Z</time>
      </trkpt>
      <trkpt lat="43.06404" lon="1.29512">
        <ele>581.6</ele>
        <time>2024-06-23T11:17:02Z</time>
      </trkpt>
      <trkpt lat="43.06403" lon="1.2951">
        <ele>581.8</ele>
        <time>2024-06-23T11:17:03Z</time>
      </trkpt>
      <trkpt lat="43.06401" lon="1.29507">
        <ele>581.8</ele>
        <time>2024-06-23T11:17:04Z</time>
      </trkpt>
      <trkpt lat="43.06399" lon="1.29504">
        <ele>582.2</ele>
        <time>2024-06-23T11:17:05Z</time>
      </trkpt>
      <trkpt lat="43.06397" lon="1.29501">
        <ele>582.2</ele>
        <time>2024-06-23T11:17:06Z</time>
      </trkpt>
      <trkpt lat="43.06394" lon="1.29497">
        <ele>582.6</ele>
        <time>2024-06-23T11:17:07Z</time>
      </trkpt>
      <trkpt lat="43.0639" lon="1.29492">
        <ele>582.6</ele>
        <time>2024-06-23T11:17:08Z</time>
      </trkpt>
      <trkpt lat="43.06388" lon="1.29489">
        <ele>582.8</ele>
        <time>2024-06-23T11:17:09Z</time>
      </trkpt>
      <trkpt lat="43.06386" lon="1.29487">
        <ele>582.8</ele>
        <time>2024-06-23T11:17:10Z</time>
      </trkpt>
      <trkpt lat="43.06384" lon="1.29486">
        <ele>583.2</ele>
        <time>2024-06-23T11:17:11Z</time>
      </trkpt>
      <trkpt lat="43.06382" lon="1.29484">
        <ele>583.2</ele>
        <time>2024-06-23T11:17:12Z</time>
      </trkpt>
      <trkpt lat="43.06379" lon="1.29481">
        <ele>583.6</ele>
        <time>2024-06-23T11:17:13Z</time>
      </trkpt>
      <trkpt lat="43.06377" lon="1.29479">
        <ele>583.6</ele>
        <time>2024-06-23T11:17:14Z</time>
      </trkpt>
      <trkpt lat="43.06374" lon="1.29476">
        <ele>583.6</ele>
        <time>2024-06-23T11:17:15Z</time>
      </trkpt>
      <trkpt lat="43.06371" lon="1.29474">
        <ele>584.2</ele>
        <time>2024-06-23T11:17:16Z</time>
      </trkpt>
      <trkpt lat="43.06369" lon="1.29473">
        <ele>584.2</ele>
        <time>2024-06-23T11:17:17Z</time>
      </trkpt>
      <trkpt lat="43.06367" lon="1.29472">
        <ele>584.4</ele>
        <time>2024-06-23T11:17:18Z</time>
      </trkpt>
      <trkpt lat="43.06364" lon="1.29471">
        <ele>585</ele>
        <time>2024-06-23T11:17:19Z</time>
      </trkpt>
      <trkpt lat="43.06361" lon="1.2947">
        <ele>585</ele>
        <time>2024-06-23T11:17:20Z</time>
      </trkpt>
      <trkpt lat="43.06358" lon="1.29469">
        <ele>585.2</ele>
        <time>2024-06-23T11:17:21Z</time>
      </trkpt>
      <trkpt lat="43.06355" lon="1.29468">
        <ele>585.6</ele>
        <time>2024-06-23T11:17:22Z</time>
      </trkpt>
      <trkpt lat="43.06352" lon="1.29467">
        <ele>585.6</ele>
        <time>2024-06-23T11:17:23Z</time>
      </trkpt>
      <trkpt lat="43.06349" lon="1.29467">
        <ele>585.8</ele>
        <time>2024-06-23T11:17:24Z</time>
      </trkpt>
      <trkpt lat="43.06347" lon="1.29467">
        <ele>585.8</ele>
        <time>2024-06-23T11:17:25Z</time>
      </trkpt>
      <trkpt lat="43.06344" lon="1.29468">
        <ele>586</ele>
        <time>2024-06-23T11:17:26Z</time>
      </trkpt>
      <trkpt lat="43.06341" lon="1.29468">
        <ele>586</ele>
        <time>2024-06-23T11:17:27Z</time>
      </trkpt>
      <trkpt lat="43.06339" lon="1.29467">
        <ele>586.4</ele>
        <time>2024-06-23T11:17:28Z</time>
      </trkpt>
      <trkpt lat="43.06336" lon="1.29467">
        <ele>586.6</ele>
        <time>2024-06-23T11:17:29Z</time>
      </trkpt>
      <trkpt lat="43.06333" lon="1.29467">
        <ele>586.8</ele>
        <time>2024-06-23T11:17:30Z</time>
      </trkpt>
      <trkpt lat="43.0633" lon="1.29467">
        <ele>586.8</ele>
        <time>2024-06-23T11:17:31Z</time>
      </trkpt>
      <trkpt lat="43.06327" lon="1.29468">
        <ele>587</ele>
        <time>2024-06-23T11:17:32Z</time>
      </trkpt>
      <trkpt lat="43.06324" lon="1.29468">
        <ele>587.4</ele>
        <time>2024-06-23T11:17:33Z</time>
      </trkpt>
      <trkpt lat="43.06321" lon="1.29468">
        <ele>587.4</ele>
        <time>2024-06-23T11:17:34Z</time>
      </trkpt>
      <trkpt lat="43.06318" lon="1.29468">
        <ele>587.4</ele>
        <time>2024-06-23T11:17:35Z</time>
      </trkpt>
      <trkpt lat="43.06315" lon="1.29468">
        <ele>587.4</ele>
        <time>2024-06-23T11:17:36Z</time>
      </trkpt>
      <trkpt lat="43.06312" lon="1.29468">
        <ele>587.6</ele>
        <time>2024-06-23T11:17:37Z</time>
      </trkpt>
      <trkpt lat="43.06309" lon="1.29468">
        <ele>588</ele>
        <time>2024-06-23T11:17:38Z</time>
      </trkpt>
      <trkpt lat="43.06306" lon="1.29467">
        <ele>588</ele>
        <time>2024-06-23T11:17:39Z</time>
      </trkpt>
      <trkpt lat="43.06303" lon="1.29467">
        <ele>588.4</ele>
        <time>2024-06-23T11:17:40Z</time>
      </trkpt>
      <trkpt lat="43.063" lon="1.29467">
        <ele>588.6</ele>
        <time>2024-06-23T11:17:41Z</time>
      </trkpt>
      <trkpt lat="43.06298" lon="1.29468">
        <ele>588.6</ele>
        <time>2024-06-23T11:17:42Z</time>
      </trkpt>
      <trkpt lat="43.06296" lon="1.29468">
        <ele>588.8</ele>
        <time>2024-06-23T11:17:43Z</time>
      </trkpt>
      <trkpt lat="43.06292" lon="1.29468">
        <ele>588.8</ele>
        <time>2024-06-23T11:17:44Z</time>
      </trkpt>
      <trkpt lat="43.06289" lon="1.29468">
        <ele>589.2</ele>
        <time>2024-06-23T11:17:45Z</time>
      </trkpt>
      <trkpt lat="43.06286" lon="1.29468">
        <ele>589.2</ele>
        <time>2024-06-23T11:17:46Z</time>
      </trkpt>
      <trkpt lat="43.06283" lon="1.29468">
        <ele>589.4</ele>
        <time>2024-06-23T11:17:47Z</time>
      </trkpt>
      <trkpt lat="43.0628" lon="1.29468">
        <ele>589.8</ele>
        <time>2024-06-23T11:17:48Z</time>
      </trkpt>
      <trkpt lat="43.06278" lon="1.29468">
        <ele>589.8</ele>
        <time>2024-06-23T11:17:49Z</time>
      </trkpt>
      <trkpt lat="43.06275" lon="1.29468">
        <ele>590</ele>
        <time>2024-06-23T11:17:50Z</time>
      </trkpt>
      <trkpt lat="43.06272" lon="1.29468">
        <ele>590.2</ele>
        <time>2024-06-23T11:17:51Z</time>
      </trkpt>
      <trkpt lat="43.06269" lon="1.29468">
        <ele>590.4</ele>
        <time>2024-06-23T11:17:52Z</time>
      </trkpt>
      <trkpt lat="43.06267" lon="1.29469">
        <ele>590.4</ele>
        <time>2024-06-23T11:17:53Z</time>
      </trkpt>
      <trkpt lat="43.06264" lon="1.2947">
        <ele>590.6</ele>
        <time>2024-06-23T11:17:54Z</time>
      </trkpt>
      <trkpt lat="43.06261" lon="1.2947">
        <ele>590.6</ele>
        <time>2024-06-23T11:17:55Z</time>
      </trkpt>
      <trkpt lat="43.06259" lon="1.29471">
        <ele>590.8</ele>
        <time>2024-06-23T11:17:56Z</time>
      </trkpt>
      <trkpt lat="43.06256" lon="1.29472">
        <ele>590.8</ele>
        <time>2024-06-23T11:17:57Z</time>
      </trkpt>
      <trkpt lat="43.06253" lon="1.29473">
        <ele>591</ele>
        <time>2024-06-23T11:17:58Z</time>
      </trkpt>
      <trkpt lat="43.06251" lon="1.29474">
        <ele>591.4</ele>
        <time>2024-06-23T11:17:59Z</time>
      </trkpt>
      <trkpt lat="43.06248" lon="1.29475">
        <ele>591.4</ele>
        <time>2024-06-23T11:18:00Z</time>
      </trkpt>
      <trkpt lat="43.06246" lon="1.29477">
        <ele>591.4</ele>
        <time>2024-06-23T11:18:01Z</time>
      </trkpt>
      <trkpt lat="43.06243" lon="1.29478">
        <ele>591.6</ele>
        <time>2024-06-23T11:18:02Z</time>
      </trkpt>
      <trkpt lat="43.0624" lon="1.29479">
        <ele>591.6</ele>
        <time>2024-06-23T11:18:03Z</time>
      </trkpt>
      <trkpt lat="43.06237" lon="1.29481">
        <ele>592</ele>
        <time>2024-06-23T11:18:04Z</time>
      </trkpt>
      <trkpt lat="43.06235" lon="1.29483">
        <ele>592.2</ele>
        <time>2024-06-23T11:18:05Z</time>
      </trkpt>
      <trkpt lat="43.06233" lon="1.29485">
        <ele>592.4</ele>
        <time>2024-06-23T11:18:06Z</time>
      </trkpt>
      <trkpt lat="43.0623" lon="1.29488">
        <ele>592.4</ele>
        <time>2024-06-23T11:18:07Z</time>
      </trkpt>
      <trkpt lat="43.06228" lon="1.2949">
        <ele>592.8</ele>
        <time>2024-06-23T11:18:08Z</time>
      </trkpt>
      <trkpt lat="43.06225" lon="1.29492">
        <ele>593</ele>
        <time>2024-06-23T11:18:09Z</time>
      </trkpt>
      <trkpt lat="43.06222" lon="1.29493">
        <ele>593</ele>
        <time>2024-06-23T11:18:10Z</time>
      </trkpt>
      <trkpt lat="43.0622" lon="1.29494">
        <ele>593</ele>
        <time>2024-06-23T11:18:11Z</time>
      </trkpt>
      <trkpt lat="43.06217" lon="1.29496">
        <ele>593.4</ele>
        <time>2024-06-23T11:18:12Z</time>
      </trkpt>
      <trkpt lat="43.06214" lon="1.29497">
        <ele>593.4</ele>
        <time>2024-06-23T11:18:13Z</time>
      </trkpt>
      <trkpt lat="43.06211" lon="1.29498">
        <ele>594</ele>
        <time>2024-06-23T11:18:14Z</time>
      </trkpt>
      <trkpt lat="43.06208" lon="1.29499">
        <ele>594</ele>
        <time>2024-06-23T11:18:15Z</time>
      </trkpt>
      <trkpt lat="43.06205" lon="1.295">
        <ele>594</ele>
        <time>2024-06-23T11:18:16Z</time>
      </trkpt>
      <trkpt lat="43.06202" lon="1.295">
        <ele>594.2</ele>
        <time>2024-06-23T11:18:17Z</time>
      </trkpt>
      <trkpt lat="43.06198" lon="1.29501">
        <ele>594.2</ele>
        <time>2024-06-23T11:18:18Z</time>
      </trkpt>
      <trkpt lat="43.06195" lon="1.29501">
        <ele>594.2</ele>
        <time>2024-06-23T11:18:19Z</time>
      </trkpt>
      <trkpt lat="43.06192" lon="1.29501">
        <ele>594.2</ele>
        <time>2024-06-23T11:18:20Z</time>
      </trkpt>
      <trkpt lat="43.06189" lon="1.29501">
        <ele>594.2</ele>
        <time>2024-06-23T11:18:21Z</time>
      </trkpt>
      <trkpt lat="43.06185" lon="1.29501">
        <ele>594.2</ele>
        <time>2024-06-23T11:18:22Z</time>
      </trkpt>
      <trkpt lat="43.06182" lon="1.29501">
        <ele>594.4</ele>
        <time>2024-06-23T11:18:23Z</time>
      </trkpt>
      <trkpt lat="43.06179" lon="1.29501">
        <ele>594.4</ele>
        <time>2024-06-23T11:18:24Z</time>
      </trkpt>
      <trkpt lat="43.06176" lon="1.29501">
        <ele>594.6</ele>
        <time>2024-06-23T11:18:25Z</time>
      </trkpt>
      <trkpt lat="43.06173" lon="1.295">
        <ele>594.6</ele>
        <time>2024-06-23T11:18:26Z</time>
      </trkpt>
      <trkpt lat="43.0617" lon="1.295">
        <ele>594.6</ele>
        <time>2024-06-23T11:18:27Z</time>
      </trkpt>
      <trkpt lat="43.06167" lon="1.29498">
        <ele>594.6</ele>
        <time>2024-06-23T11:18:28Z</time>
      </trkpt>
      <trkpt lat="43.06164" lon="1.29497">
        <ele>595</ele>
        <time>2024-06-23T11:18:29Z</time>
      </trkpt>
      <trkpt lat="43.06161" lon="1.29496">
        <ele>595</ele>
        <time>2024-06-23T11:18:30Z</time>
      </trkpt>
      <trkpt lat="43.06159" lon="1.29494">
        <ele>595</ele>
        <time>2024-06-23T11:18:31Z</time>
      </trkpt>
      <trkpt lat="43.06156" lon="1.29493">
        <ele>595.2</ele>
        <time>2024-06-23T11:18:32Z</time>
      </trkpt>
      <trkpt lat="43.06153" lon="1.29492">
        <ele>595.2</ele>
        <time>2024-06-23T11:18:33Z</time>
      </trkpt>
      <trkpt lat="43.06151" lon="1.2949">
        <ele>595.6</ele>
        <time>2024-06-23T11:18:34Z</time>
      </trkpt>
      <trkpt lat="43.06148" lon="1.29489">
        <ele>595.6</ele>
        <time>2024-06-23T11:18:35Z</time>
      </trkpt>
      <trkpt lat="43.06146" lon="1.29487">
        <ele>595.6</ele>
        <time>2024-06-23T11:18:36Z</time>
      </trkpt>
      <trkpt lat="43.06143" lon="1.29485">
        <ele>596</ele>
        <time>2024-06-23T11:18:37Z</time>
      </trkpt>
      <trkpt lat="43.06141" lon="1.29483">
        <ele>596</ele>
        <time>2024-06-23T11:18:38Z</time>
      </trkpt>
      <trkpt lat="43.06139" lon="1.29481">
        <ele>596.2</ele>
        <time>2024-06-23T11:18:39Z</time>
      </trkpt>
      <trkpt lat="43.06137" lon="1.29479">
        <ele>596.4</ele>
        <time>2024-06-23T11:18:40Z</time>
      </trkpt>
      <trkpt lat="43.06134" lon="1.29478">
        <ele>596.8</ele>
        <time>2024-06-23T11:18:41Z</time>
      </trkpt>
      <trkpt lat="43.06132" lon="1.29476">
        <ele>596.8</ele>
        <time>2024-06-23T11:18:42Z</time>
      </trkpt>
      <trkpt lat="43.0613" lon="1.29474">
        <ele>597</ele>
        <time>2024-06-23T11:18:43Z</time>
      </trkpt>
      <trkpt lat="43.06128" lon="1.29471">
        <ele>597</ele>
        <time>2024-06-23T11:18:44Z</time>
      </trkpt>
      <trkpt lat="43.06126" lon="1.29468">
        <ele>597</ele>
        <time>2024-06-23T11:18:45Z</time>
      </trkpt>
      <trkpt lat="43.06123" lon="1.29465">
        <ele>597.4</ele>
        <time>2024-06-23T11:18:46Z</time>
      </trkpt>
      <trkpt lat="43.06121" lon="1.29463">
        <ele>597.6</ele>
        <time>2024-06-23T11:18:47Z</time>
      </trkpt>
      <trkpt lat="43.06119" lon="1.29461">
        <ele>597.6</ele>
        <time>2024-06-23T11:18:48Z</time>
      </trkpt>
      <trkpt lat="43.06117" lon="1.29458">
        <ele>598</ele>
        <time>2024-06-23T11:18:49Z</time>
      </trkpt>
      <trkpt lat="43.06115" lon="1.29456">
        <ele>598.2</ele>
        <time>2024-06-23T11:18:50Z</time>
      </trkpt>
      <trkpt lat="43.06113" lon="1.29453">
        <ele>598.2</ele>
        <time>2024-06-23T11:18:51Z</time>
      </trkpt>
      <trkpt lat="43.06111" lon="1.29451">
        <ele>598.4</ele>
        <time>2024-06-23T11:18:52Z</time>
      </trkpt>
      <trkpt lat="43.0611" lon="1.29449">
        <ele>598.4</ele>
        <time>2024-06-23T11:18:53Z</time>
      </trkpt>
      <trkpt lat="43.06108" lon="1.29447">
        <ele>598.4</ele>
        <time>2024-06-23T11:18:54Z</time>
      </trkpt>
      <trkpt lat="43.06106" lon="1.29445">
        <ele>598.4</ele>
        <time>2024-06-23T11:18:55Z</time>
      </trkpt>
      <trkpt lat="43.06104" lon="1.29442">
        <ele>598.8</ele>
        <time>2024-06-23T11:18:56Z</time>
      </trkpt>
      <trkpt lat="43.06102" lon="1.29439">
        <ele>599</ele>
        <time>2024-06-23T11:18:57Z</time>
      </trkpt>
      <trkpt lat="43.06101" lon="1.29436">
        <ele>599</ele>
        <time>2024-06-23T11:18:58Z</time>
      </trkpt>
      <trkpt lat="43.06099" lon="1.29434">
        <ele>599.4</ele>
        <time>2024-06-23T11:18:59Z</time>
      </trkpt>
      <trkpt lat="43.06098" lon="1.29431">
        <ele>599.4</ele>
        <time>2024-06-23T11:19:00Z</time>
      </trkpt>
      <trkpt lat="43.06096" lon="1.29428">
        <ele>599.4</ele>
        <time>2024-06-23T11:19:01Z</time>
      </trkpt>
      <trkpt lat="43.06096" lon="1.29428">
        <ele>599.8</ele>
        <time>2024-06-23T11:19:02Z</time>
      </trkpt>
      <trkpt lat="43.06094" lon="1.29425">
        <ele>599.8</ele>
        <time>2024-06-23T11:19:03Z</time>
      </trkpt>
      <trkpt lat="43.06092" lon="1.29422">
        <ele>600.2</ele>
        <time>2024-06-23T11:19:04Z</time>
      </trkpt>
      <trkpt lat="43.0609" lon="1.29419">
        <ele>600.2</ele>
        <time>2024-06-23T11:19:05Z</time>
      </trkpt>
      <trkpt lat="43.06089" lon="1.29417">
        <ele>600.2</ele>
        <time>2024-06-23T11:19:06Z</time>
      </trkpt>
      <trkpt lat="43.06088" lon="1.29413">
        <ele>600.4</ele>
        <time>2024-06-23T11:19:07Z</time>
      </trkpt>
      <trkpt lat="43.06087" lon="1.29409">
        <ele>600.4</ele>
        <time>2024-06-23T11:19:08Z</time>
      </trkpt>
      <trkpt lat="43.06086" lon="1.29405">
        <ele>600.6</ele>
        <time>2024-06-23T11:19:09Z</time>
      </trkpt>
      <trkpt lat="43.06085" lon="1.29402">
        <ele>600.6</ele>
        <time>2024-06-23T11:19:10Z</time>
      </trkpt>
      <trkpt lat="43.06084" lon="1.29398">
        <ele>600.8</ele>
        <time>2024-06-23T11:19:11Z</time>
      </trkpt>
      <trkpt lat="43.06083" lon="1.29394">
        <ele>601</ele>
        <time>2024-06-23T11:19:12Z</time>
      </trkpt>
      <trkpt lat="43.06082" lon="1.2939">
        <ele>601</ele>
        <time>2024-06-23T11:19:13Z</time>
      </trkpt>
      <trkpt lat="43.06082" lon="1.29386">
        <ele>601.6</ele>
        <time>2024-06-23T11:19:14Z</time>
      </trkpt>
      <trkpt lat="43.06081" lon="1.29382">
        <ele>601.8</ele>
        <time>2024-06-23T11:19:15Z</time>
      </trkpt>
      <trkpt lat="43.06081" lon="1.29378">
        <ele>602.2</ele>
        <time>2024-06-23T11:19:16Z</time>
      </trkpt>
      <trkpt lat="43.0608" lon="1.29374">
        <ele>602.6</ele>
        <time>2024-06-23T11:19:17Z</time>
      </trkpt>
      <trkpt lat="43.0608" lon="1.2937">
        <ele>602.6</ele>
        <time>2024-06-23T11:19:18Z</time>
      </trkpt>
      <trkpt lat="43.06079" lon="1.29366">
        <ele>602.8</ele>
        <time>2024-06-23T11:19:19Z</time>
      </trkpt>
      <trkpt lat="43.06079" lon="1.29362">
        <ele>603</ele>
        <time>2024-06-23T11:19:20Z</time>
      </trkpt>
      <trkpt lat="43.06078" lon="1.29359">
        <ele>603.2</ele>
        <time>2024-06-23T11:19:21Z</time>
      </trkpt>
      <trkpt lat="43.06078" lon="1.29355">
        <ele>603.6</ele>
        <time>2024-06-23T11:19:22Z</time>
      </trkpt>
      <trkpt lat="43.06078" lon="1.29351">
        <ele>603.8</ele>
        <time>2024-06-23T11:19:23Z</time>
      </trkpt>
      <trkpt lat="43.06078" lon="1.29348">
        <ele>603.8</ele>
        <time>2024-06-23T11:19:24Z</time>
      </trkpt>
      <trkpt lat="43.06077" lon="1.29346">
        <ele>604</ele>
        <time>2024-06-23T11:19:25Z</time>
      </trkpt>
      <trkpt lat="43.06077" lon="1.29342">
        <ele>604.2</ele>
        <time>2024-06-23T11:19:26Z</time>
      </trkpt>
      <trkpt lat="43.06076" lon="1.29338">
        <ele>604.2</ele>
        <time>2024-06-23T11:19:27Z</time>
      </trkpt>
      <trkpt lat="43.06075" lon="1.29333">
        <ele>604.2</ele>
        <time>2024-06-23T11:19:28Z</time>
      </trkpt>
      <trkpt lat="43.06075" lon="1.29329">
        <ele>604.4</ele>
        <time>2024-06-23T11:19:29Z</time>
      </trkpt>
      <trkpt lat="43.06075" lon="1.29325">
        <ele>604.6</ele>
        <time>2024-06-23T11:19:30Z</time>
      </trkpt>
      <trkpt lat="43.06074" lon="1.29321">
        <ele>604.6</ele>
        <time>2024-06-23T11:19:31Z</time>
      </trkpt>
      <trkpt lat="43.06074" lon="1.29318">
        <ele>604.6</ele>
        <time>2024-06-23T11:19:32Z</time>
      </trkpt>
      <trkpt lat="43.06074" lon="1.29314">
        <ele>605</ele>
        <time>2024-06-23T11:19:33Z</time>
      </trkpt>
      <trkpt lat="43.06074" lon="1.29311">
        <ele>605</ele>
        <time>2024-06-23T11:19:34Z</time>
      </trkpt>
      <trkpt lat="43.06074" lon="1.29307">
        <ele>605.2</ele>
        <time>2024-06-23T11:19:35Z</time>
      </trkpt>
      <trkpt lat="43.06074" lon="1.29303">
        <ele>605.2</ele>
        <time>2024-06-23T11:19:36Z</time>
      </trkpt>
      <trkpt lat="43.06073" lon="1.29298">
        <ele>605.2</ele>
        <time>2024-06-23T11:19:37Z</time>
      </trkpt>
      <trkpt lat="43.06073" lon="1.29293">
        <ele>605.4</ele>
        <time>2024-06-23T11:19:38Z</time>
      </trkpt>
      <trkpt lat="43.06074" lon="1.29289">
        <ele>605.4</ele>
        <time>2024-06-23T11:19:39Z</time>
      </trkpt>
      <trkpt lat="43.06074" lon="1.29284">
        <ele>605.4</ele>
        <time>2024-06-23T11:19:40Z</time>
      </trkpt>
      <trkpt lat="43.06075" lon="1.2928">
        <ele>605.8</ele>
        <time>2024-06-23T11:19:41Z</time>
      </trkpt>
      <trkpt lat="43.06075" lon="1.29275">
        <ele>605.8</ele>
        <time>2024-06-23T11:19:42Z</time>
      </trkpt>
      <trkpt lat="43.06077" lon="1.2927">
        <ele>605.8</ele>
        <time>2024-06-23T11:19:43Z</time>
      </trkpt>
      <trkpt lat="43.06078" lon="1.29265">
        <ele>605.4</ele>
        <time>2024-06-23T11:19:44Z</time>
      </trkpt>
      <trkpt lat="43.0608" lon="1.2926">
        <ele>605.4</ele>
        <time>2024-06-23T11:19:45Z</time>
      </trkpt>
      <trkpt lat="43.06082" lon="1.29256">
        <ele>605.4</ele>
        <time>2024-06-23T11:19:46Z</time>
      </trkpt>
      <trkpt lat="43.06083" lon="1.2925">
        <ele>605.4</ele>
        <time>2024-06-23T11:19:47Z</time>
      </trkpt>
      <trkpt lat="43.06085" lon="1.29245">
        <ele>605</ele>
        <time>2024-06-23T11:19:48Z</time>
      </trkpt>
      <trkpt lat="43.06087" lon="1.2924">
        <ele>605</ele>
        <time>2024-06-23T11:19:49Z</time>
      </trkpt>
      <trkpt lat="43.0609" lon="1.29234">
        <ele>605</ele>
        <time>2024-06-23T11:19:50Z</time>
      </trkpt>
      <trkpt lat="43.06092" lon="1.29228">
        <ele>605</ele>
        <time>2024-06-23T11:19:51Z</time>
      </trkpt>
      <trkpt lat="43.06093" lon="1.29223">
        <ele>604.8</ele>
        <time>2024-06-23T11:19:52Z</time>
      </trkpt>
      <trkpt lat="43.06095" lon="1.29217">
        <ele>604.8</ele>
        <time>2024-06-23T11:19:53Z</time>
      </trkpt>
      <trkpt lat="43.06097" lon="1.29211">
        <ele>604.4</ele>
        <time>2024-06-23T11:19:54Z</time>
      </trkpt>
      <trkpt lat="43.06099" lon="1.29206">
        <ele>604.4</ele>
        <time>2024-06-23T11:19:55Z</time>
      </trkpt>
      <trkpt lat="43.06101" lon="1.29199">
        <ele>604.4</ele>
        <time>2024-06-23T11:19:56Z</time>
      </trkpt>
      <trkpt lat="43.06103" lon="1.29194">
        <ele>604</ele>
        <time>2024-06-23T11:19:57Z</time>
      </trkpt>
      <trkpt lat="43.06104" lon="1.29186">
        <ele>604</ele>
        <time>2024-06-23T11:19:58Z</time>
      </trkpt>
      <trkpt lat="43.06106" lon="1.29179">
        <ele>603.4</ele>
        <time>2024-06-23T11:19:59Z</time>
      </trkpt>
      <trkpt lat="43.06108" lon="1.29172">
        <ele>603</ele>
        <time>2024-06-23T11:20:00Z</time>
      </trkpt>
      <trkpt lat="43.0611" lon="1.29164">
        <ele>602.6</ele>
        <time>2024-06-23T11:20:01Z</time>
      </trkpt>
      <trkpt lat="43.06112" lon="1.29156">
        <ele>602.6</ele>
        <time>2024-06-23T11:20:02Z</time>
      </trkpt>
      <trkpt lat="43.06114" lon="1.2915">
        <ele>602.4</ele>
        <time>2024-06-23T11:20:03Z</time>
      </trkpt>
      <trkpt lat="43.06117" lon="1.29141">
        <ele>602.4</ele>
        <time>2024-06-23T11:20:04Z</time>
      </trkpt>
      <trkpt lat="43.06119" lon="1.29133">
        <ele>602.2</ele>
        <time>2024-06-23T11:20:05Z</time>
      </trkpt>
      <trkpt lat="43.06121" lon="1.29126">
        <ele>602.2</ele>
        <time>2024-06-23T11:20:06Z</time>
      </trkpt>
      <trkpt lat="43.06124" lon="1.29118">
        <ele>602</ele>
        <time>2024-06-23T11:20:07Z</time>
      </trkpt>
      <trkpt lat="43.06127" lon="1.2911">
        <ele>602</ele>
        <time>2024-06-23T11:20:08Z</time>
      </trkpt>
      <trkpt lat="43.06129" lon="1.29102">
        <ele>601.6</ele>
        <time>2024-06-23T11:20:09Z</time>
      </trkpt>
      <trkpt lat="43.06132" lon="1.29095">
        <ele>601.4</ele>
        <time>2024-06-23T11:20:10Z</time>
      </trkpt>
      <trkpt lat="43.06135" lon="1.29088">
        <ele>601.4</ele>
        <time>2024-06-23T11:20:11Z</time>
      </trkpt>
      <trkpt lat="43.06139" lon="1.2908">
        <ele>601</ele>
        <time>2024-06-23T11:20:12Z</time>
      </trkpt>
      <trkpt lat="43.06143" lon="1.29074">
        <ele>600.4</ele>
        <time>2024-06-23T11:20:13Z</time>
      </trkpt>
      <trkpt lat="43.06147" lon="1.29067">
        <ele>600.2</ele>
        <time>2024-06-23T11:20:14Z</time>
      </trkpt>
      <trkpt lat="43.0615" lon="1.2906">
        <ele>599.6</ele>
        <time>2024-06-23T11:20:15Z</time>
      </trkpt>
      <trkpt lat="43.06153" lon="1.29053">
        <ele>599.6</ele>
        <time>2024-06-23T11:20:16Z</time>
      </trkpt>
      <trkpt lat="43.06157" lon="1.29046">
        <ele>599</ele>
        <time>2024-06-23T11:20:17Z</time>
      </trkpt>
      <trkpt lat="43.0616" lon="1.2904">
        <ele>599</ele>
        <time>2024-06-23T11:20:18Z</time>
      </trkpt>
      <trkpt lat="43.06164" lon="1.29032">
        <ele>599</ele>
        <time>2024-06-23T11:20:19Z</time>
      </trkpt>
      <trkpt lat="43.06167" lon="1.29023">
        <ele>598.6</ele>
        <time>2024-06-23T11:20:20Z</time>
      </trkpt>
      <trkpt lat="43.06169" lon="1.29015">
        <ele>598.6</ele>
        <time>2024-06-23T11:20:21Z</time>
      </trkpt>
      <trkpt lat="43.06171" lon="1.29006">
        <ele>598.2</ele>
        <time>2024-06-23T11:20:22Z</time>
      </trkpt>
      <trkpt lat="43.06174" lon="1.28998">
        <ele>598.2</ele>
        <time>2024-06-23T11:20:23Z</time>
      </trkpt>
      <trkpt lat="43.06176" lon="1.2899">
        <ele>597.8</ele>
        <time>2024-06-23T11:20:24Z</time>
      </trkpt>
      <trkpt lat="43.0618" lon="1.28971">
        <ele>597.8</ele>
        <time>2024-06-23T11:20:25Z</time>
      </trkpt>
      <trkpt lat="43.06182" lon="1.28962">
        <ele>597.8</ele>
        <time>2024-06-23T11:20:26Z</time>
      </trkpt>
      <trkpt lat="43.06184" lon="1.28954">
        <ele>597.6</ele>
        <time>2024-06-23T11:20:27Z</time>
      </trkpt>
      <trkpt lat="43.06186" lon="1.28945">
        <ele>597.2</ele>
        <time>2024-06-23T11:20:28Z</time>
      </trkpt>
      <trkpt lat="43.06188" lon="1.28936">
        <ele>597.2</ele>
        <time>2024-06-23T11:20:29Z</time>
      </trkpt>
      <trkpt lat="43.0619" lon="1.28927">
        <ele>597</ele>
        <time>2024-06-23T11:20:30Z</time>
      </trkpt>
      <trkpt lat="43.06195" lon="1.28917">
        <ele>596.6</ele>
        <time>2024-06-23T11:20:31Z</time>
      </trkpt>
      <trkpt lat="43.06197" lon="1.28908">
        <ele>596.2</ele>
        <time>2024-06-23T11:20:32Z</time>
      </trkpt>
      <trkpt lat="43.06198" lon="1.28898">
        <ele>596.2</ele>
        <time>2024-06-23T11:20:33Z</time>
      </trkpt>
      <trkpt lat="43.062" lon="1.28889">
        <ele>595.8</ele>
        <time>2024-06-23T11:20:34Z</time>
      </trkpt>
      <trkpt lat="43.06201" lon="1.28879">
        <ele>595.2</ele>
        <time>2024-06-23T11:20:35Z</time>
      </trkpt>
      <trkpt lat="43.06203" lon="1.2887">
        <ele>595</ele>
        <time>2024-06-23T11:20:36Z</time>
      </trkpt>
      <trkpt lat="43.06205" lon="1.28861">
        <ele>594.8</ele>
        <time>2024-06-23T11:20:37Z</time>
      </trkpt>
      <trkpt lat="43.06206" lon="1.28851">
        <ele>594.6</ele>
        <time>2024-06-23T11:20:38Z</time>
      </trkpt>
      <trkpt lat="43.06207" lon="1.28841">
        <ele>594.6</ele>
        <time>2024-06-23T11:20:39Z</time>
      </trkpt>
      <trkpt lat="43.06208" lon="1.28831">
        <ele>594.2</ele>
        <time>2024-06-23T11:20:40Z</time>
      </trkpt>
      <trkpt lat="43.0621" lon="1.28821">
        <ele>594.2</ele>
        <time>2024-06-23T11:20:41Z</time>
      </trkpt>
      <trkpt lat="43.06211" lon="1.28812">
        <ele>594.2</ele>
        <time>2024-06-23T11:20:42Z</time>
      </trkpt>
      <trkpt lat="43.06212" lon="1.28802">
        <ele>594</ele>
        <time>2024-06-23T11:20:43Z</time>
      </trkpt>
      <trkpt lat="43.06213" lon="1.28792">
        <ele>593.8</ele>
        <time>2024-06-23T11:20:44Z</time>
      </trkpt>
      <trkpt lat="43.06214" lon="1.28783">
        <ele>593.8</ele>
        <time>2024-06-23T11:20:45Z</time>
      </trkpt>
      <trkpt lat="43.06216" lon="1.28774">
        <ele>593.4</ele>
        <time>2024-06-23T11:20:46Z</time>
      </trkpt>
      <trkpt lat="43.06217" lon="1.28766">
        <ele>593.4</ele>
        <time>2024-06-23T11:20:47Z</time>
      </trkpt>
      <trkpt lat="43.06218" lon="1.28757">
        <ele>593.2</ele>
        <time>2024-06-23T11:20:48Z</time>
      </trkpt>
      <trkpt lat="43.06219" lon="1.28749">
        <ele>592.8</ele>
        <time>2024-06-23T11:20:49Z</time>
      </trkpt>
      <trkpt lat="43.0622" lon="1.2874">
        <ele>592.8</ele>
        <time>2024-06-23T11:20:50Z</time>
      </trkpt>
      <trkpt lat="43.06221" lon="1.28733">
        <ele>592.8</ele>
        <time>2024-06-23T11:20:51Z</time>
      </trkpt>
      <trkpt lat="43.06223" lon="1.28726">
        <ele>592.8</ele>
        <time>2024-06-23T11:20:52Z</time>
      </trkpt>
      <trkpt lat="43.06224" lon="1.28718">
        <ele>592.8</ele>
        <time>2024-06-23T11:20:53Z</time>
      </trkpt>
      <trkpt lat="43.06225" lon="1.28712">
        <ele>592.8</ele>
        <time>2024-06-23T11:20:54Z</time>
      </trkpt>
      <trkpt lat="43.06227" lon="1.28706">
        <ele>593</ele>
        <time>2024-06-23T11:20:55Z</time>
      </trkpt>
      <trkpt lat="43.06228" lon="1.287">
        <ele>593</ele>
        <time>2024-06-23T11:20:56Z</time>
      </trkpt>
      <trkpt lat="43.06229" lon="1.28694">
        <ele>593.2</ele>
        <time>2024-06-23T11:20:57Z</time>
      </trkpt>
      <trkpt lat="43.0623" lon="1.28689">
        <ele>593.4</ele>
        <time>2024-06-23T11:20:58Z</time>
      </trkpt>
      <trkpt lat="43.06231" lon="1.28684">
        <ele>593.4</ele>
        <time>2024-06-23T11:20:59Z</time>
      </trkpt>
      <trkpt lat="43.06232" lon="1.28679">
        <ele>593.8</ele>
        <time>2024-06-23T11:21:00Z</time>
      </trkpt>
      <trkpt lat="43.06233" lon="1.28674">
        <ele>593.8</ele>
        <time>2024-06-23T11:21:01Z</time>
      </trkpt>
      <trkpt lat="43.06233" lon="1.28669">
        <ele>594</ele>
        <time>2024-06-23T11:21:02Z</time>
      </trkpt>
      <trkpt lat="43.06235" lon="1.28665">
        <ele>594</ele>
        <time>2024-06-23T11:21:03Z</time>
      </trkpt>
      <trkpt lat="43.06236" lon="1.28661">
        <ele>594.2</ele>
        <time>2024-06-23T11:21:04Z</time>
      </trkpt>
      <trkpt lat="43.06237" lon="1.28657">
        <ele>594.2</ele>
        <time>2024-06-23T11:21:05Z</time>
      </trkpt>
      <trkpt lat="43.06238" lon="1.28653">
        <ele>594.6</ele>
        <time>2024-06-23T11:21:06Z</time>
      </trkpt>
      <trkpt lat="43.06239" lon="1.28649">
        <ele>594.6</ele>
        <time>2024-06-23T11:21:07Z</time>
      </trkpt>
      <trkpt lat="43.06241" lon="1.28645">
        <ele>595</ele>
        <time>2024-06-23T11:21:08Z</time>
      </trkpt>
      <trkpt lat="43.06244" lon="1.28641">
        <ele>595</ele>
        <time>2024-06-23T11:21:09Z</time>
      </trkpt>
      <trkpt lat="43.06244" lon="1.28639">
        <ele>595</ele>
        <time>2024-06-23T11:21:10Z</time>
      </trkpt>
      <trkpt lat="43.06246" lon="1.28636">
        <ele>595.4</ele>
        <time>2024-06-23T11:21:11Z</time>
      </trkpt>
      <trkpt lat="43.06247" lon="1.28632">
        <ele>595.6</ele>
        <time>2024-06-23T11:21:12Z</time>
      </trkpt>
      <trkpt lat="43.06249" lon="1.2863">
        <ele>595.6</ele>
        <time>2024-06-23T11:21:13Z</time>
      </trkpt>
      <trkpt lat="43.06251" lon="1.28627">
        <ele>596</ele>
        <time>2024-06-23T11:21:14Z</time>
      </trkpt>
      <trkpt lat="43.06252" lon="1.28624">
        <ele>596.2</ele>
        <time>2024-06-23T11:21:15Z</time>
      </trkpt>
      <trkpt lat="43.06254" lon="1.28623">
        <ele>596.4</ele>
        <time>2024-06-23T11:21:16Z</time>
      </trkpt>
      <trkpt lat="43.06256" lon="1.2862">
        <ele>596.8</ele>
        <time>2024-06-23T11:21:17Z</time>
      </trkpt>
      <trkpt lat="43.06258" lon="1.28618">
        <ele>597</ele>
        <time>2024-06-23T11:21:18Z</time>
      </trkpt>
      <trkpt lat="43.0626" lon="1.28615">
        <ele>597.2</ele>
        <time>2024-06-23T11:21:19Z</time>
      </trkpt>
      <trkpt lat="43.06263" lon="1.28612">
        <ele>597.6</ele>
        <time>2024-06-23T11:21:20Z</time>
      </trkpt>
      <trkpt lat="43.06265" lon="1.2861">
        <ele>597.6</ele>
        <time>2024-06-23T11:21:21Z</time>
      </trkpt>
      <trkpt lat="43.06267" lon="1.28607">
        <ele>597.8</ele>
        <time>2024-06-23T11:21:22Z</time>
      </trkpt>
      <trkpt lat="43.06269" lon="1.28605">
        <ele>597.8</ele>
        <time>2024-06-23T11:21:23Z</time>
      </trkpt>
      <trkpt lat="43.06271" lon="1.28603">
        <ele>598</ele>
        <time>2024-06-23T11:21:24Z</time>
      </trkpt>
      <trkpt lat="43.06274" lon="1.28601">
        <ele>598.2</ele>
        <time>2024-06-23T11:21:25Z</time>
      </trkpt>
      <trkpt lat="43.06276" lon="1.28599">
        <ele>598.6</ele>
        <time>2024-06-23T11:21:26Z</time>
      </trkpt>
      <trkpt lat="43.06278" lon="1.28598">
        <ele>598.6</ele>
        <time>2024-06-23T11:21:27Z</time>
      </trkpt>
      <trkpt lat="43.0628" lon="1.28595">
        <ele>599</ele>
        <time>2024-06-23T11:21:28Z</time>
      </trkpt>
      <trkpt lat="43.06283" lon="1.28593">
        <ele>599</ele>
        <time>2024-06-23T11:21:29Z</time>
      </trkpt>
      <trkpt lat="43.06285" lon="1.28591">
        <ele>599.6</ele>
        <time>2024-06-23T11:21:30Z</time>
      </trkpt>
      <trkpt lat="43.06287" lon="1.2859">
        <ele>600</ele>
        <time>2024-06-23T11:21:31Z</time>
      </trkpt>
      <trkpt lat="43.06289" lon="1.28588">
        <ele>600.2</ele>
        <time>2024-06-23T11:21:32Z</time>
      </trkpt>
      <trkpt lat="43.06292" lon="1.28587">
        <ele>600.4</ele>
        <time>2024-06-23T11:21:33Z</time>
      </trkpt>
      <trkpt lat="43.06294" lon="1.28586">
        <ele>600.8</ele>
        <time>2024-06-23T11:21:34Z</time>
      </trkpt>
      <trkpt lat="43.06296" lon="1.28585">
        <ele>601</ele>
        <time>2024-06-23T11:21:35Z</time>
      </trkpt>
      <trkpt lat="43.06298" lon="1.28584">
        <ele>601.2</ele>
        <time>2024-06-23T11:21:36Z</time>
      </trkpt>
      <trkpt lat="43.063" lon="1.28582">
        <ele>601.2</ele>
        <time>2024-06-23T11:21:37Z</time>
      </trkpt>
      <trkpt lat="43.06302" lon="1.28581">
        <ele>601.6</ele>
        <time>2024-06-23T11:21:38Z</time>
      </trkpt>
      <trkpt lat="43.06304" lon="1.28579">
        <ele>601.8</ele>
        <time>2024-06-23T11:21:39Z</time>
      </trkpt>
      <trkpt lat="43.06306" lon="1.28577">
        <ele>602</ele>
        <time>2024-06-23T11:21:40Z</time>
      </trkpt>
      <trkpt lat="43.06309" lon="1.28575">
        <ele>602</ele>
        <time>2024-06-23T11:21:41Z</time>
      </trkpt>
      <trkpt lat="43.06311" lon="1.28574">
        <ele>602.4</ele>
        <time>2024-06-23T11:21:42Z</time>
      </trkpt>
      <trkpt lat="43.06313" lon="1.28572">
        <ele>602.4</ele>
        <time>2024-06-23T11:21:43Z</time>
      </trkpt>
      <trkpt lat="43.06315" lon="1.28569">
        <ele>603.2</ele>
        <time>2024-06-23T11:21:44Z</time>
      </trkpt>
      <trkpt lat="43.06316" lon="1.28566">
        <ele>603.4</ele>
        <time>2024-06-23T11:21:45Z</time>
      </trkpt>
      <trkpt lat="43.06317" lon="1.28564">
        <ele>603.4</ele>
        <time>2024-06-23T11:21:46Z</time>
      </trkpt>
      <trkpt lat="43.06317" lon="1.28561">
        <ele>603.8</ele>
        <time>2024-06-23T11:21:47Z</time>
      </trkpt>
      <trkpt lat="43.06317" lon="1.28558">
        <ele>604</ele>
        <time>2024-06-23T11:21:48Z</time>
      </trkpt>
      <trkpt lat="43.06317" lon="1.28554">
        <ele>604.2</ele>
        <time>2024-06-23T11:21:49Z</time>
      </trkpt>
      <trkpt lat="43.06317" lon="1.28551">
        <ele>604.4</ele>
        <time>2024-06-23T11:21:50Z</time>
      </trkpt>
      <trkpt lat="43.06317" lon="1.28548">
        <ele>604.4</ele>
        <time>2024-06-23T11:21:51Z</time>
      </trkpt>
      <trkpt lat="43.06316" lon="1.28544">
        <ele>604.8</ele>
        <time>2024-06-23T11:21:52Z</time>
      </trkpt>
      <trkpt lat="43.06315" lon="1.28541">
        <ele>605.2</ele>
        <time>2024-06-23T11:21:53Z</time>
      </trkpt>
      <trkpt lat="43.06313" lon="1.28538">
        <ele>605.4</ele>
        <time>2024-06-23T11:21:54Z</time>
      </trkpt>
      <trkpt lat="43.06312" lon="1.28535">
        <ele>605.6</ele>
        <time>2024-06-23T11:21:55Z</time>
      </trkpt>
      <trkpt lat="43.0631" lon="1.28532">
        <ele>606</ele>
        <time>2024-06-23T11:21:56Z</time>
      </trkpt>
      <trkpt lat="43.06309" lon="1.2853">
        <ele>606.2</ele>
        <time>2024-06-23T11:21:57Z</time>
      </trkpt>
      <trkpt lat="43.06307" lon="1.28527">
        <ele>606.2</ele>
        <time>2024-06-23T11:21:58Z</time>
      </trkpt>
      <trkpt lat="43.06306" lon="1.28525">
        <ele>606.6</ele>
        <time>2024-06-23T11:21:59Z</time>
      </trkpt>
      <trkpt lat="43.06304" lon="1.28522">
        <ele>606.6</ele>
        <time>2024-06-23T11:22:00Z</time>
      </trkpt>
      <trkpt lat="43.06303" lon="1.2852">
        <ele>606.6</ele>
        <time>2024-06-23T11:22:01Z</time>
      </trkpt>
      <trkpt lat="43.06301" lon="1.28518">
        <ele>607</ele>
        <time>2024-06-23T11:22:02Z</time>
      </trkpt>
      <trkpt lat="43.06299" lon="1.28516">
        <ele>607</ele>
        <time>2024-06-23T11:22:03Z</time>
      </trkpt>
      <trkpt lat="43.06298" lon="1.28513">
        <ele>607.2</ele>
        <time>2024-06-23T11:22:04Z</time>
      </trkpt>
      <trkpt lat="43.06296" lon="1.28511">
        <ele>607.4</ele>
        <time>2024-06-23T11:22:05Z</time>
      </trkpt>
      <trkpt lat="43.06295" lon="1.28508">
        <ele>607.4</ele>
        <time>2024-06-23T11:22:06Z</time>
      </trkpt>
      <trkpt lat="43.06294" lon="1.28506">
        <ele>607.4</ele>
        <time>2024-06-23T11:22:07Z</time>
      </trkpt>
      <trkpt lat="43.06293" lon="1.28503">
        <ele>607.8</ele>
        <time>2024-06-23T11:22:08Z</time>
      </trkpt>
      <trkpt lat="43.06292" lon="1.285">
        <ele>608</ele>
        <time>2024-06-23T11:22:09Z</time>
      </trkpt>
      <trkpt lat="43.06291" lon="1.28497">
        <ele>608</ele>
        <time>2024-06-23T11:22:10Z</time>
      </trkpt>
      <trkpt lat="43.0629" lon="1.28494">
        <ele>608.4</ele>
        <time>2024-06-23T11:22:11Z</time>
      </trkpt>
      <trkpt lat="43.06289" lon="1.28491">
        <ele>608.6</ele>
        <time>2024-06-23T11:22:12Z</time>
      </trkpt>
      <trkpt lat="43.06288" lon="1.28488">
        <ele>609</ele>
        <time>2024-06-23T11:22:13Z</time>
      </trkpt>
      <trkpt lat="43.06287" lon="1.28485">
        <ele>609.2</ele>
        <time>2024-06-23T11:22:14Z</time>
      </trkpt>
      <trkpt lat="43.06286" lon="1.28481">
        <ele>609.6</ele>
        <time>2024-06-23T11:22:15Z</time>
      </trkpt>
      <trkpt lat="43.06285" lon="1.28478">
        <ele>609.6</ele>
        <time>2024-06-23T11:22:16Z</time>
      </trkpt>
      <trkpt lat="43.06285" lon="1.28475">
        <ele>610</ele>
        <time>2024-06-23T11:22:17Z</time>
      </trkpt>
      <trkpt lat="43.06284" lon="1.28472">
        <ele>610</ele>
        <time>2024-06-23T11:22:18Z</time>
      </trkpt>
      <trkpt lat="43.06283" lon="1.28469">
        <ele>610</ele>
        <time>2024-06-23T11:22:19Z</time>
      </trkpt>
      <trkpt lat="43.06283" lon="1.28466">
        <ele>610.2</ele>
        <time>2024-06-23T11:22:20Z</time>
      </trkpt>
      <trkpt lat="43.06282" lon="1.28463">
        <ele>610.6</ele>
        <time>2024-06-23T11:22:21Z</time>
      </trkpt>
      <trkpt lat="43.06281" lon="1.2846">
        <ele>610.8</ele>
        <time>2024-06-23T11:22:22Z</time>
      </trkpt>
      <trkpt lat="43.0628" lon="1.28457">
        <ele>610.8</ele>
        <time>2024-06-23T11:22:23Z</time>
      </trkpt>
      <trkpt lat="43.06279" lon="1.28454">
        <ele>610.8</ele>
        <time>2024-06-23T11:22:24Z</time>
      </trkpt>
      <trkpt lat="43.06278" lon="1.28451">
        <ele>611</ele>
        <time>2024-06-23T11:22:25Z</time>
      </trkpt>
      <trkpt lat="43.06278" lon="1.28448">
        <ele>611</ele>
        <time>2024-06-23T11:22:26Z</time>
      </trkpt>
      <trkpt lat="43.06277" lon="1.28445">
        <ele>611.4</ele>
        <time>2024-06-23T11:22:27Z</time>
      </trkpt>
      <trkpt lat="43.06276" lon="1.28442">
        <ele>611.6</ele>
        <time>2024-06-23T11:22:28Z</time>
      </trkpt>
      <trkpt lat="43.06276" lon="1.28439">
        <ele>611.8</ele>
        <time>2024-06-23T11:22:29Z</time>
      </trkpt>
      <trkpt lat="43.06275" lon="1.28437">
        <ele>611.8</ele>
        <time>2024-06-23T11:22:30Z</time>
      </trkpt>
      <trkpt lat="43.06275" lon="1.28433">
        <ele>612.4</ele>
        <time>2024-06-23T11:22:31Z</time>
      </trkpt>
      <trkpt lat="43.06273" lon="1.2843">
        <ele>612.4</ele>
        <time>2024-06-23T11:22:32Z</time>
      </trkpt>
      <trkpt lat="43.06273" lon="1.28427">
        <ele>612.8</ele>
        <time>2024-06-23T11:22:33Z</time>
      </trkpt>
      <trkpt lat="43.06271" lon="1.28423">
        <ele>612.8</ele>
        <time>2024-06-23T11:22:34Z</time>
      </trkpt>
      <trkpt lat="43.0627" lon="1.2842">
        <ele>613.2</ele>
        <time>2024-06-23T11:22:35Z</time>
      </trkpt>
      <trkpt lat="43.0627" lon="1.2842">
        <ele>613.2</ele>
        <time>2024-06-23T11:22:36Z</time>
      </trkpt>
      <trkpt lat="43.06269" lon="1.28417">
        <ele>613.8</ele>
        <time>2024-06-23T11:22:37Z</time>
      </trkpt>
      <trkpt lat="43.06268" lon="1.28413">
        <ele>613.8</ele>
        <time>2024-06-23T11:22:38Z</time>
      </trkpt>
      <trkpt lat="43.06268" lon="1.2841">
        <ele>614</ele>
        <time>2024-06-23T11:22:39Z</time>
      </trkpt>
      <trkpt lat="43.06267" lon="1.28406">
        <ele>614.4</ele>
        <time>2024-06-23T11:22:40Z</time>
      </trkpt>
      <trkpt lat="43.06266" lon="1.28403">
        <ele>614.8</ele>
        <time>2024-06-23T11:22:41Z</time>
      </trkpt>
      <trkpt lat="43.06265" lon="1.28399">
        <ele>615.2</ele>
        <time>2024-06-23T11:22:42Z</time>
      </trkpt>
      <trkpt lat="43.06264" lon="1.28396">
        <ele>615.2</ele>
        <time>2024-06-23T11:22:43Z</time>
      </trkpt>
      <trkpt lat="43.06263" lon="1.28393">
        <ele>615.8</ele>
        <time>2024-06-23T11:22:44Z</time>
      </trkpt>
      <trkpt lat="43.06262" lon="1.2839">
        <ele>616.2</ele>
        <time>2024-06-23T11:22:45Z</time>
      </trkpt>
      <trkpt lat="43.06261" lon="1.28387">
        <ele>616.4</ele>
        <time>2024-06-23T11:22:46Z</time>
      </trkpt>
      <trkpt lat="43.0626" lon="1.28384">
        <ele>616.6</ele>
        <time>2024-06-23T11:22:47Z</time>
      </trkpt>
      <trkpt lat="43.06259" lon="1.28381">
        <ele>617</ele>
        <time>2024-06-23T11:22:48Z</time>
      </trkpt>
      <trkpt lat="43.06258" lon="1.28378">
        <ele>617</ele>
        <time>2024-06-23T11:22:49Z</time>
      </trkpt>
      <trkpt lat="43.06257" lon="1.28375">
        <ele>617.2</ele>
        <time>2024-06-23T11:22:50Z</time>
      </trkpt>
      <trkpt lat="43.06256" lon="1.28372">
        <ele>617.4</ele>
        <time>2024-06-23T11:22:51Z</time>
      </trkpt>
      <trkpt lat="43.06255" lon="1.28369">
        <ele>617.8</ele>
        <time>2024-06-23T11:22:52Z</time>
      </trkpt>
      <trkpt lat="43.06254" lon="1.28366">
        <ele>618</ele>
        <time>2024-06-23T11:22:53Z</time>
      </trkpt>
      <trkpt lat="43.06253" lon="1.28363">
        <ele>618</ele>
        <time>2024-06-23T11:22:54Z</time>
      </trkpt>
      <trkpt lat="43.06252" lon="1.2836">
        <ele>618.4</ele>
        <time>2024-06-23T11:22:55Z</time>
      </trkpt>
      <trkpt lat="43.06251" lon="1.28357">
        <ele>618.6</ele>
        <time>2024-06-23T11:22:56Z</time>
      </trkpt>
      <trkpt lat="43.0625" lon="1.28354">
        <ele>618.8</ele>
        <time>2024-06-23T11:22:57Z</time>
      </trkpt>
      <trkpt lat="43.0625" lon="1.28351">
        <ele>619.2</ele>
        <time>2024-06-23T11:22:58Z</time>
      </trkpt>
      <trkpt lat="43.06248" lon="1.28344">
        <ele>619.4</ele>
        <time>2024-06-23T11:22:59Z</time>
      </trkpt>
      <trkpt lat="43.06248" lon="1.28341">
        <ele>619.4</ele>
        <time>2024-06-23T11:23:00Z</time>
      </trkpt>
      <trkpt lat="43.06247" lon="1.28338">
        <ele>619.8</ele>
        <time>2024-06-23T11:23:01Z</time>
      </trkpt>
      <trkpt lat="43.06246" lon="1.28335">
        <ele>619.8</ele>
        <time>2024-06-23T11:23:02Z</time>
      </trkpt>
      <trkpt lat="43.06245" lon="1.28332">
        <ele>620</ele>
        <time>2024-06-23T11:23:03Z</time>
      </trkpt>
      <trkpt lat="43.06244" lon="1.28329">
        <ele>620</ele>
        <time>2024-06-23T11:23:04Z</time>
      </trkpt>
      <trkpt lat="43.06243" lon="1.28325">
        <ele>620.6</ele>
        <time>2024-06-23T11:23:05Z</time>
      </trkpt>
      <trkpt lat="43.06242" lon="1.28322">
        <ele>620.6</ele>
        <time>2024-06-23T11:23:06Z</time>
      </trkpt>
      <trkpt lat="43.06242" lon="1.28319">
        <ele>621</ele>
        <time>2024-06-23T11:23:07Z</time>
      </trkpt>
      <trkpt lat="43.06241" lon="1.28315">
        <ele>621.4</ele>
        <time>2024-06-23T11:23:08Z</time>
      </trkpt>
      <trkpt lat="43.0624" lon="1.28312">
        <ele>621.6</ele>
        <time>2024-06-23T11:23:09Z</time>
      </trkpt>
      <trkpt lat="43.0624" lon="1.28308">
        <ele>621.6</ele>
        <time>2024-06-23T11:23:10Z</time>
      </trkpt>
      <trkpt lat="43.06239" lon="1.28306">
        <ele>622</ele>
        <time>2024-06-23T11:23:11Z</time>
      </trkpt>
      <trkpt lat="43.06238" lon="1.28303">
        <ele>622.4</ele>
        <time>2024-06-23T11:23:12Z</time>
      </trkpt>
      <trkpt lat="43.06238" lon="1.28299">
        <ele>622.8</ele>
        <time>2024-06-23T11:23:13Z</time>
      </trkpt>
      <trkpt lat="43.06238" lon="1.28296">
        <ele>623</ele>
        <time>2024-06-23T11:23:14Z</time>
      </trkpt>
      <trkpt lat="43.06238" lon="1.28293">
        <ele>623.2</ele>
        <time>2024-06-23T11:23:15Z</time>
      </trkpt>
      <trkpt lat="43.06238" lon="1.28289">
        <ele>623.2</ele>
        <time>2024-06-23T11:23:16Z</time>
      </trkpt>
      <trkpt lat="43.06238" lon="1.28286">
        <ele>623.4</ele>
        <time>2024-06-23T11:23:17Z</time>
      </trkpt>
      <trkpt lat="43.06238" lon="1.28283">
        <ele>623.8</ele>
        <time>2024-06-23T11:23:18Z</time>
      </trkpt>
      <trkpt lat="43.06237" lon="1.28279">
        <ele>623.8</ele>
        <time>2024-06-23T11:23:19Z</time>
      </trkpt>
      <trkpt lat="43.06237" lon="1.28276">
        <ele>624.2</ele>
        <time>2024-06-23T11:23:20Z</time>
      </trkpt>
      <trkpt lat="43.06237" lon="1.28272">
        <ele>624.4</ele>
        <time>2024-06-23T11:23:21Z</time>
      </trkpt>
      <trkpt lat="43.06237" lon="1.28269">
        <ele>624.4</ele>
        <time>2024-06-23T11:23:22Z</time>
      </trkpt>
      <trkpt lat="43.06238" lon="1.28266">
        <ele>624.6</ele>
        <time>2024-06-23T11:23:23Z</time>
      </trkpt>
      <trkpt lat="43.06238" lon="1.28263">
        <ele>625</ele>
        <time>2024-06-23T11:23:24Z</time>
      </trkpt>
      <trkpt lat="43.06238" lon="1.2826">
        <ele>625</ele>
        <time>2024-06-23T11:23:25Z</time>
      </trkpt>
      <trkpt lat="43.06239" lon="1.28257">
        <ele>625.4</ele>
        <time>2024-06-23T11:23:26Z</time>
      </trkpt>
      <trkpt lat="43.06239" lon="1.28253">
        <ele>625.4</ele>
        <time>2024-06-23T11:23:27Z</time>
      </trkpt>
      <trkpt lat="43.0624" lon="1.2825">
        <ele>625.8</ele>
        <time>2024-06-23T11:23:28Z</time>
      </trkpt>
      <trkpt lat="43.06241" lon="1.28246">
        <ele>626</ele>
        <time>2024-06-23T11:23:29Z</time>
      </trkpt>
      <trkpt lat="43.06241" lon="1.28243">
        <ele>626.6</ele>
        <time>2024-06-23T11:23:30Z</time>
      </trkpt>
      <trkpt lat="43.06242" lon="1.2824">
        <ele>627</ele>
        <time>2024-06-23T11:23:31Z</time>
      </trkpt>
      <trkpt lat="43.06242" lon="1.28236">
        <ele>627</ele>
        <time>2024-06-23T11:23:32Z</time>
      </trkpt>
      <trkpt lat="43.06243" lon="1.28233">
        <ele>627.4</ele>
        <time>2024-06-23T11:23:33Z</time>
      </trkpt>
      <trkpt lat="43.06243" lon="1.2823">
        <ele>627.6</ele>
        <time>2024-06-23T11:23:34Z</time>
      </trkpt>
      <trkpt lat="43.06244" lon="1.28227">
        <ele>627.6</ele>
        <time>2024-06-23T11:23:35Z</time>
      </trkpt>
      <trkpt lat="43.06244" lon="1.28225">
        <ele>628.2</ele>
        <time>2024-06-23T11:23:36Z</time>
      </trkpt>
      <trkpt lat="43.06245" lon="1.28221">
        <ele>628.4</ele>
        <time>2024-06-23T11:23:37Z</time>
      </trkpt>
      <trkpt lat="43.06246" lon="1.28218">
        <ele>628.8</ele>
        <time>2024-06-23T11:23:38Z</time>
      </trkpt>
      <trkpt lat="43.06247" lon="1.28215">
        <ele>628.8</ele>
        <time>2024-06-23T11:23:39Z</time>
      </trkpt>
      <trkpt lat="43.06248" lon="1.28213">
        <ele>629</ele>
        <time>2024-06-23T11:23:40Z</time>
      </trkpt>
      <trkpt lat="43.0625" lon="1.2821">
        <ele>629.2</ele>
        <time>2024-06-23T11:23:41Z</time>
      </trkpt>
      <trkpt lat="43.06251" lon="1.28207">
        <ele>629.6</ele>
        <time>2024-06-23T11:23:42Z</time>
      </trkpt>
      <trkpt lat="43.06252" lon="1.28204">
        <ele>629.8</ele>
        <time>2024-06-23T11:23:43Z</time>
      </trkpt>
      <trkpt lat="43.06252" lon="1.28201">
        <ele>630</ele>
        <time>2024-06-23T11:23:44Z</time>
      </trkpt>
      <trkpt lat="43.06254" lon="1.28198">
        <ele>630</ele>
        <time>2024-06-23T11:23:45Z</time>
      </trkpt>
      <trkpt lat="43.06254" lon="1.28196">
        <ele>630.2</ele>
        <time>2024-06-23T11:23:46Z</time>
      </trkpt>
      <trkpt lat="43.06255" lon="1.28193">
        <ele>630.6</ele>
        <time>2024-06-23T11:23:47Z</time>
      </trkpt>
      <trkpt lat="43.06256" lon="1.28189">
        <ele>630.6</ele>
        <time>2024-06-23T11:23:48Z</time>
      </trkpt>
      <trkpt lat="43.06256" lon="1.28187">
        <ele>630.8</ele>
        <time>2024-06-23T11:23:49Z</time>
      </trkpt>
      <trkpt lat="43.06257" lon="1.28184">
        <ele>631</ele>
        <time>2024-06-23T11:23:50Z</time>
      </trkpt>
      <trkpt lat="43.06258" lon="1.28181">
        <ele>631</ele>
        <time>2024-06-23T11:23:51Z</time>
      </trkpt>
      <trkpt lat="43.06259" lon="1.28178">
        <ele>631.4</ele>
        <time>2024-06-23T11:23:52Z</time>
      </trkpt>
      <trkpt lat="43.0626" lon="1.28176">
        <ele>631.4</ele>
        <time>2024-06-23T11:23:53Z</time>
      </trkpt>
      <trkpt lat="43.06262" lon="1.28173">
        <ele>631.8</ele>
        <time>2024-06-23T11:23:54Z</time>
      </trkpt>
      <trkpt lat="43.06263" lon="1.28171">
        <ele>631.8</ele>
        <time>2024-06-23T11:23:55Z</time>
      </trkpt>
      <trkpt lat="43.06264" lon="1.28168">
        <ele>632.2</ele>
        <time>2024-06-23T11:23:56Z</time>
      </trkpt>
      <trkpt lat="43.06266" lon="1.28165">
        <ele>632.2</ele>
        <time>2024-06-23T11:23:57Z</time>
      </trkpt>
      <trkpt lat="43.06267" lon="1.28162">
        <ele>632.6</ele>
        <time>2024-06-23T11:23:58Z</time>
      </trkpt>
      <trkpt lat="43.06269" lon="1.28159">
        <ele>632.6</ele>
        <time>2024-06-23T11:23:59Z</time>
      </trkpt>
      <trkpt lat="43.0627" lon="1.28155">
        <ele>633</ele>
        <time>2024-06-23T11:24:00Z</time>
      </trkpt>
      <trkpt lat="43.06272" lon="1.28152">
        <ele>633</ele>
        <time>2024-06-23T11:24:01Z</time>
      </trkpt>
      <trkpt lat="43.06273" lon="1.28149">
        <ele>633.4</ele>
        <time>2024-06-23T11:24:02Z</time>
      </trkpt>
      <trkpt lat="43.06275" lon="1.28145">
        <ele>633.6</ele>
        <time>2024-06-23T11:24:03Z</time>
      </trkpt>
      <trkpt lat="43.06276" lon="1.28142">
        <ele>633.8</ele>
        <time>2024-06-23T11:24:04Z</time>
      </trkpt>
      <trkpt lat="43.06277" lon="1.2814">
        <ele>633.8</ele>
        <time>2024-06-23T11:24:05Z</time>
      </trkpt>
      <trkpt lat="43.06278" lon="1.28137">
        <ele>634.4</ele>
        <time>2024-06-23T11:24:06Z</time>
      </trkpt>
      <trkpt lat="43.06279" lon="1.28134">
        <ele>634.4</ele>
        <time>2024-06-23T11:24:07Z</time>
      </trkpt>
      <trkpt lat="43.0628" lon="1.28131">
        <ele>634.8</ele>
        <time>2024-06-23T11:24:08Z</time>
      </trkpt>
      <trkpt lat="43.06281" lon="1.28127">
        <ele>635.2</ele>
        <time>2024-06-23T11:24:09Z</time>
      </trkpt>
      <trkpt lat="43.06282" lon="1.28125">
        <ele>635.4</ele>
        <time>2024-06-23T11:24:10Z</time>
      </trkpt>
      <trkpt lat="43.06283" lon="1.28122">
        <ele>635.4</ele>
        <time>2024-06-23T11:24:11Z</time>
      </trkpt>
      <trkpt lat="43.06284" lon="1.28119">
        <ele>635.8</ele>
        <time>2024-06-23T11:24:12Z</time>
      </trkpt>
      <trkpt lat="43.06285" lon="1.28115">
        <ele>635.8</ele>
        <time>2024-06-23T11:24:13Z</time>
      </trkpt>
      <trkpt lat="43.06286" lon="1.28113">
        <ele>636.2</ele>
        <time>2024-06-23T11:24:14Z</time>
      </trkpt>
      <trkpt lat="43.06288" lon="1.2811">
        <ele>636.6</ele>
        <time>2024-06-23T11:24:15Z</time>
      </trkpt>
      <trkpt lat="43.06289" lon="1.28107">
        <ele>636.8</ele>
        <time>2024-06-23T11:24:16Z</time>
      </trkpt>
      <trkpt lat="43.0629" lon="1.28105">
        <ele>637.2</ele>
        <time>2024-06-23T11:24:17Z</time>
      </trkpt>
      <trkpt lat="43.06291" lon="1.28102">
        <ele>637.2</ele>
        <time>2024-06-23T11:24:18Z</time>
      </trkpt>
      <trkpt lat="43.06292" lon="1.28098">
        <ele>637.6</ele>
        <time>2024-06-23T11:24:19Z</time>
      </trkpt>
      <trkpt lat="43.06293" lon="1.28095">
        <ele>637.6</ele>
        <time>2024-06-23T11:24:20Z</time>
      </trkpt>
      <trkpt lat="43.06295" lon="1.28091">
        <ele>638</ele>
        <time>2024-06-23T11:24:21Z</time>
      </trkpt>
      <trkpt lat="43.06298" lon="1.28088">
        <ele>638.4</ele>
        <time>2024-06-23T11:24:22Z</time>
      </trkpt>
      <trkpt lat="43.063" lon="1.28086">
        <ele>638.6</ele>
        <time>2024-06-23T11:24:23Z</time>
      </trkpt>
      <trkpt lat="43.06302" lon="1.28084">
        <ele>638.6</ele>
        <time>2024-06-23T11:24:24Z</time>
      </trkpt>
      <trkpt lat="43.06304" lon="1.28082">
        <ele>638.6</ele>
        <time>2024-06-23T11:24:25Z</time>
      </trkpt>
      <trkpt lat="43.06305" lon="1.2808">
        <ele>638.8</ele>
        <time>2024-06-23T11:24:26Z</time>
      </trkpt>
      <trkpt lat="43.06307" lon="1.28077">
        <ele>639.2</ele>
        <time>2024-06-23T11:24:27Z</time>
      </trkpt>
      <trkpt lat="43.06309" lon="1.28074">
        <ele>639.2</ele>
        <time>2024-06-23T11:24:28Z</time>
      </trkpt>
      <trkpt lat="43.06311" lon="1.28071">
        <ele>639.4</ele>
        <time>2024-06-23T11:24:29Z</time>
      </trkpt>
      <trkpt lat="43.06314" lon="1.28069">
        <ele>639.8</ele>
        <time>2024-06-23T11:24:30Z</time>
      </trkpt>
      <trkpt lat="43.06316" lon="1.28067">
        <ele>640</ele>
        <time>2024-06-23T11:24:31Z</time>
      </trkpt>
      <trkpt lat="43.06319" lon="1.28065">
        <ele>640</ele>
        <time>2024-06-23T11:24:32Z</time>
      </trkpt>
      <trkpt lat="43.06322" lon="1.28063">
        <ele>640.4</ele>
        <time>2024-06-23T11:24:33Z</time>
      </trkpt>
      <trkpt lat="43.06325" lon="1.2806">
        <ele>640.6</ele>
        <time>2024-06-23T11:24:34Z</time>
      </trkpt>
      <trkpt lat="43.06328" lon="1.28058">
        <ele>641.2</ele>
        <time>2024-06-23T11:24:35Z</time>
      </trkpt>
      <trkpt lat="43.0633" lon="1.28055">
        <ele>641.2</ele>
        <time>2024-06-23T11:24:36Z</time>
      </trkpt>
      <trkpt lat="43.06332" lon="1.28051">
        <ele>641.6</ele>
        <time>2024-06-23T11:24:37Z</time>
      </trkpt>
      <trkpt lat="43.06334" lon="1.28049">
        <ele>641.6</ele>
        <time>2024-06-23T11:24:38Z</time>
      </trkpt>
      <trkpt lat="43.06336" lon="1.28046">
        <ele>641.6</ele>
        <time>2024-06-23T11:24:39Z</time>
      </trkpt>
      <trkpt lat="43.06338" lon="1.28044">
        <ele>642</ele>
        <time>2024-06-23T11:24:40Z</time>
      </trkpt>
      <trkpt lat="43.06339" lon="1.28041">
        <ele>642</ele>
        <time>2024-06-23T11:24:41Z</time>
      </trkpt>
      <trkpt lat="43.0634" lon="1.28037">
        <ele>642.4</ele>
        <time>2024-06-23T11:24:42Z</time>
      </trkpt>
      <trkpt lat="43.06341" lon="1.28034">
        <ele>642.4</ele>
        <time>2024-06-23T11:24:43Z</time>
      </trkpt>
      <trkpt lat="43.06342" lon="1.2803">
        <ele>642.8</ele>
        <time>2024-06-23T11:24:44Z</time>
      </trkpt>
      <trkpt lat="43.06343" lon="1.28026">
        <ele>643</ele>
        <time>2024-06-23T11:24:45Z</time>
      </trkpt>
      <trkpt lat="43.06343" lon="1.28021">
        <ele>643</ele>
        <time>2024-06-23T11:24:46Z</time>
      </trkpt>
      <trkpt lat="43.06343" lon="1.28018">
        <ele>643.2</ele>
        <time>2024-06-23T11:24:47Z</time>
      </trkpt>
      <trkpt lat="43.06343" lon="1.28014">
        <ele>643.4</ele>
        <time>2024-06-23T11:24:48Z</time>
      </trkpt>
      <trkpt lat="43.06344" lon="1.2801">
        <ele>643.4</ele>
        <time>2024-06-23T11:24:49Z</time>
      </trkpt>
      <trkpt lat="43.06344" lon="1.28007">
        <ele>643.8</ele>
        <time>2024-06-23T11:24:50Z</time>
      </trkpt>
      <trkpt lat="43.06343" lon="1.28003">
        <ele>644.2</ele>
        <time>2024-06-23T11:24:51Z</time>
      </trkpt>
      <trkpt lat="43.06343" lon="1.28">
        <ele>644.4</ele>
        <time>2024-06-23T11:24:52Z</time>
      </trkpt>
      <trkpt lat="43.06342" lon="1.27996">
        <ele>644.4</ele>
        <time>2024-06-23T11:24:53Z</time>
      </trkpt>
      <trkpt lat="43.06342" lon="1.27993">
        <ele>644.6</ele>
        <time>2024-06-23T11:24:54Z</time>
      </trkpt>
      <trkpt lat="43.06341" lon="1.27989">
        <ele>644.6</ele>
        <time>2024-06-23T11:24:55Z</time>
      </trkpt>
      <trkpt lat="43.0634" lon="1.27986">
        <ele>645</ele>
        <time>2024-06-23T11:24:56Z</time>
      </trkpt>
      <trkpt lat="43.06339" lon="1.27982">
        <ele>645</ele>
        <time>2024-06-23T11:24:57Z</time>
      </trkpt>
      <trkpt lat="43.06338" lon="1.27978">
        <ele>645.4</ele>
        <time>2024-06-23T11:24:58Z</time>
      </trkpt>
      <trkpt lat="43.06337" lon="1.27974">
        <ele>645.4</ele>
        <time>2024-06-23T11:24:59Z</time>
      </trkpt>
      <trkpt lat="43.06336" lon="1.2797">
        <ele>645.8</ele>
        <time>2024-06-23T11:25:00Z</time>
      </trkpt>
      <trkpt lat="43.06335" lon="1.27967">
        <ele>645.8</ele>
        <time>2024-06-23T11:25:01Z</time>
      </trkpt>
      <trkpt lat="43.06334" lon="1.27963">
        <ele>646</ele>
        <time>2024-06-23T11:25:02Z</time>
      </trkpt>
      <trkpt lat="43.06333" lon="1.2796">
        <ele>646</ele>
        <time>2024-06-23T11:25:03Z</time>
      </trkpt>
      <trkpt lat="43.06332" lon="1.27956">
        <ele>646.4</ele>
        <time>2024-06-23T11:25:04Z</time>
      </trkpt>
      <trkpt lat="43.06331" lon="1.27952">
        <ele>646.6</ele>
        <time>2024-06-23T11:25:05Z</time>
      </trkpt>
      <trkpt lat="43.06331" lon="1.27949">
        <ele>646.6</ele>
        <time>2024-06-23T11:25:06Z</time>
      </trkpt>
      <trkpt lat="43.06331" lon="1.27945">
        <ele>647</ele>
        <time>2024-06-23T11:25:07Z</time>
      </trkpt>
      <trkpt lat="43.0633" lon="1.27941">
        <ele>647</ele>
        <time>2024-06-23T11:25:08Z</time>
      </trkpt>
      <trkpt lat="43.0633" lon="1.27938">
        <ele>647.2</ele>
        <time>2024-06-23T11:25:09Z</time>
      </trkpt>
      <trkpt lat="43.06329" lon="1.27934">
        <ele>647.6</ele>
        <time>2024-06-23T11:25:10Z</time>
      </trkpt>
      <trkpt lat="43.06329" lon="1.27931">
        <ele>647.6</ele>
        <time>2024-06-23T11:25:11Z</time>
      </trkpt>
      <trkpt lat="43.06329" lon="1.27927">
        <ele>647.6</ele>
        <time>2024-06-23T11:25:12Z</time>
      </trkpt>
      <trkpt lat="43.06328" lon="1.27923">
        <ele>648</ele>
        <time>2024-06-23T11:25:13Z</time>
      </trkpt>
      <trkpt lat="43.06328" lon="1.2792">
        <ele>648.2</ele>
        <time>2024-06-23T11:25:14Z</time>
      </trkpt>
      <trkpt lat="43.06328" lon="1.27917">
        <ele>648.4</ele>
        <time>2024-06-23T11:25:15Z</time>
      </trkpt>
      <trkpt lat="43.06328" lon="1.27914">
        <ele>648.4</ele>
        <time>2024-06-23T11:25:16Z</time>
      </trkpt>
      <trkpt lat="43.06327" lon="1.2791">
        <ele>648.8</ele>
        <time>2024-06-23T11:25:17Z</time>
      </trkpt>
      <trkpt lat="43.06328" lon="1.27907">
        <ele>648.8</ele>
        <time>2024-06-23T11:25:18Z</time>
      </trkpt>
      <trkpt lat="43.06328" lon="1.27904">
        <ele>649</ele>
        <time>2024-06-23T11:25:19Z</time>
      </trkpt>
      <trkpt lat="43.06327" lon="1.279">
        <ele>649</ele>
        <time>2024-06-23T11:25:20Z</time>
      </trkpt>
      <trkpt lat="43.06327" lon="1.27897">
        <ele>649.2</ele>
        <time>2024-06-23T11:25:21Z</time>
      </trkpt>
      <trkpt lat="43.06327" lon="1.27893">
        <ele>649.2</ele>
        <time>2024-06-23T11:25:22Z</time>
      </trkpt>
      <trkpt lat="43.06327" lon="1.2789">
        <ele>649.2</ele>
        <time>2024-06-23T11:25:23Z</time>
      </trkpt>
      <trkpt lat="43.06326" lon="1.27887">
        <ele>649.8</ele>
        <time>2024-06-23T11:25:24Z</time>
      </trkpt>
      <trkpt lat="43.06326" lon="1.27883">
        <ele>650.2</ele>
        <time>2024-06-23T11:25:25Z</time>
      </trkpt>
      <trkpt lat="43.06326" lon="1.2788">
        <ele>650.2</ele>
        <time>2024-06-23T11:25:26Z</time>
      </trkpt>
      <trkpt lat="43.06327" lon="1.27875">
        <ele>650.6</ele>
        <time>2024-06-23T11:25:27Z</time>
      </trkpt>
      <trkpt lat="43.06328" lon="1.27871">
        <ele>650.6</ele>
        <time>2024-06-23T11:25:28Z</time>
      </trkpt>
      <trkpt lat="43.06328" lon="1.27867">
        <ele>651</ele>
        <time>2024-06-23T11:25:29Z</time>
      </trkpt>
      <trkpt lat="43.06328" lon="1.27864">
        <ele>651</ele>
        <time>2024-06-23T11:25:30Z</time>
      </trkpt>
      <trkpt lat="43.06329" lon="1.27861">
        <ele>651.4</ele>
        <time>2024-06-23T11:25:31Z</time>
      </trkpt>
      <trkpt lat="43.06329" lon="1.27859">
        <ele>651.8</ele>
        <time>2024-06-23T11:25:32Z</time>
      </trkpt>
      <trkpt lat="43.0633" lon="1.27856">
        <ele>651.8</ele>
        <time>2024-06-23T11:25:33Z</time>
      </trkpt>
      <trkpt lat="43.0633" lon="1.27853">
        <ele>652</ele>
        <time>2024-06-23T11:25:34Z</time>
      </trkpt>
      <trkpt lat="43.06331" lon="1.27849">
        <ele>652.4</ele>
        <time>2024-06-23T11:25:35Z</time>
      </trkpt>
      <trkpt lat="43.06331" lon="1.27846">
        <ele>652.4</ele>
        <time>2024-06-23T11:25:36Z</time>
      </trkpt>
      <trkpt lat="43.06332" lon="1.27841">
        <ele>652.8</ele>
        <time>2024-06-23T11:25:37Z</time>
      </trkpt>
      <trkpt lat="43.06332" lon="1.27841">
        <ele>652.8</ele>
        <time>2024-06-23T11:25:38Z</time>
      </trkpt>
      <trkpt lat="43.06333" lon="1.27838">
        <ele>652.8</ele>
        <time>2024-06-23T11:25:39Z</time>
      </trkpt>
      <trkpt lat="43.06333" lon="1.27834">
        <ele>652.8</ele>
        <time>2024-06-23T11:25:40Z</time>
      </trkpt>
      <trkpt lat="43.06334" lon="1.27829">
        <ele>653.4</ele>
        <time>2024-06-23T11:25:41Z</time>
      </trkpt>
      <trkpt lat="43.06335" lon="1.27826">
        <ele>653.4</ele>
        <time>2024-06-23T11:25:42Z</time>
      </trkpt>
      <trkpt lat="43.06335" lon="1.27823">
        <ele>653.4</ele>
        <time>2024-06-23T11:25:43Z</time>
      </trkpt>
      <trkpt lat="43.06336" lon="1.27819">
        <ele>653.8</ele>
        <time>2024-06-23T11:25:44Z</time>
      </trkpt>
      <trkpt lat="43.06337" lon="1.27816">
        <ele>654</ele>
        <time>2024-06-23T11:25:45Z</time>
      </trkpt>
      <trkpt lat="43.06337" lon="1.27812">
        <ele>654</ele>
        <time>2024-06-23T11:25:46Z</time>
      </trkpt>
      <trkpt lat="43.06337" lon="1.27809">
        <ele>654.2</ele>
        <time>2024-06-23T11:25:47Z</time>
      </trkpt>
      <trkpt lat="43.06338" lon="1.27806">
        <ele>654.4</ele>
        <time>2024-06-23T11:25:48Z</time>
      </trkpt>
      <trkpt lat="43.06339" lon="1.27802">
        <ele>654.6</ele>
        <time>2024-06-23T11:25:49Z</time>
      </trkpt>
      <trkpt lat="43.06339" lon="1.27799">
        <ele>654.6</ele>
        <time>2024-06-23T11:25:50Z</time>
      </trkpt>
      <trkpt lat="43.0634" lon="1.27795">
        <ele>655</ele>
        <time>2024-06-23T11:25:51Z</time>
      </trkpt>
      <trkpt lat="43.06341" lon="1.27793">
        <ele>655.4</ele>
        <time>2024-06-23T11:25:52Z</time>
      </trkpt>
      <trkpt lat="43.06342" lon="1.27789">
        <ele>655.4</ele>
        <time>2024-06-23T11:25:53Z</time>
      </trkpt>
      <trkpt lat="43.06343" lon="1.27786">
        <ele>655.6</ele>
        <time>2024-06-23T11:25:54Z</time>
      </trkpt>
      <trkpt lat="43.06344" lon="1.27782">
        <ele>656</ele>
        <time>2024-06-23T11:25:55Z</time>
      </trkpt>
      <trkpt lat="43.06345" lon="1.27778">
        <ele>656.2</ele>
        <time>2024-06-23T11:25:56Z</time>
      </trkpt>
      <trkpt lat="43.06346" lon="1.27774">
        <ele>656.4</ele>
        <time>2024-06-23T11:25:57Z</time>
      </trkpt>
      <trkpt lat="43.06346" lon="1.2777">
        <ele>656.6</ele>
        <time>2024-06-23T11:25:58Z</time>
      </trkpt>
      <trkpt lat="43.06347" lon="1.27766">
        <ele>656.6</ele>
        <time>2024-06-23T11:25:59Z</time>
      </trkpt>
      <trkpt lat="43.06348" lon="1.27762">
        <ele>657</ele>
        <time>2024-06-23T11:26:00Z</time>
      </trkpt>
      <trkpt lat="43.06349" lon="1.27759">
        <ele>657</ele>
        <time>2024-06-23T11:26:01Z</time>
      </trkpt>
      <trkpt lat="43.06351" lon="1.27756">
        <ele>657.4</ele>
        <time>2024-06-23T11:26:02Z</time>
      </trkpt>
      <trkpt lat="43.06352" lon="1.27753">
        <ele>657.4</ele>
        <time>2024-06-23T11:26:03Z</time>
      </trkpt>
      <trkpt lat="43.06354" lon="1.2775">
        <ele>657.4</ele>
        <time>2024-06-23T11:26:04Z</time>
      </trkpt>
      <trkpt lat="43.06355" lon="1.27747">
        <ele>658</ele>
        <time>2024-06-23T11:26:05Z</time>
      </trkpt>
      <trkpt lat="43.06357" lon="1.27744">
        <ele>658</ele>
        <time>2024-06-23T11:26:06Z</time>
      </trkpt>
      <trkpt lat="43.06358" lon="1.27742">
        <ele>658.2</ele>
        <time>2024-06-23T11:26:07Z</time>
      </trkpt>
      <trkpt lat="43.0636" lon="1.27739">
        <ele>658.2</ele>
        <time>2024-06-23T11:26:08Z</time>
      </trkpt>
      <trkpt lat="43.06361" lon="1.27737">
        <ele>658.6</ele>
        <time>2024-06-23T11:26:09Z</time>
      </trkpt>
      <trkpt lat="43.06363" lon="1.27734">
        <ele>658.6</ele>
        <time>2024-06-23T11:26:10Z</time>
      </trkpt>
      <trkpt lat="43.06365" lon="1.27732">
        <ele>658.8</ele>
        <time>2024-06-23T11:26:11Z</time>
      </trkpt>
      <trkpt lat="43.06367" lon="1.27729">
        <ele>659</ele>
        <time>2024-06-23T11:26:12Z</time>
      </trkpt>
      <trkpt lat="43.0637" lon="1.27727">
        <ele>659</ele>
        <time>2024-06-23T11:26:13Z</time>
      </trkpt>
      <trkpt lat="43.06372" lon="1.27724">
        <ele>659.4</ele>
        <time>2024-06-23T11:26:14Z</time>
      </trkpt>
      <trkpt lat="43.06375" lon="1.27722">
        <ele>659.6</ele>
        <time>2024-06-23T11:26:15Z</time>
      </trkpt>
      <trkpt lat="43.06377" lon="1.27718">
        <ele>659.8</ele>
        <time>2024-06-23T11:26:16Z</time>
      </trkpt>
      <trkpt lat="43.06379" lon="1.27715">
        <ele>660</ele>
        <time>2024-06-23T11:26:17Z</time>
      </trkpt>
      <trkpt lat="43.06382" lon="1.27713">
        <ele>660.4</ele>
        <time>2024-06-23T11:26:18Z</time>
      </trkpt>
      <trkpt lat="43.06384" lon="1.27711">
        <ele>660.4</ele>
        <time>2024-06-23T11:26:19Z</time>
      </trkpt>
      <trkpt lat="43.06386" lon="1.2771">
        <ele>660.4</ele>
        <time>2024-06-23T11:26:20Z</time>
      </trkpt>
      <trkpt lat="43.06388" lon="1.27708">
        <ele>660.6</ele>
        <time>2024-06-23T11:26:21Z</time>
      </trkpt>
      <trkpt lat="43.0639" lon="1.27707">
        <ele>660.8</ele>
        <time>2024-06-23T11:26:22Z</time>
      </trkpt>
      <trkpt lat="43.06392" lon="1.27706">
        <ele>661.2</ele>
        <time>2024-06-23T11:26:23Z</time>
      </trkpt>
      <trkpt lat="43.06394" lon="1.27704">
        <ele>661.2</ele>
        <time>2024-06-23T11:26:24Z</time>
      </trkpt>
      <trkpt lat="43.06396" lon="1.27702">
        <ele>661.6</ele>
        <time>2024-06-23T11:26:25Z</time>
      </trkpt>
      <trkpt lat="43.06397" lon="1.277">
        <ele>661.8</ele>
        <time>2024-06-23T11:26:26Z</time>
      </trkpt>
      <trkpt lat="43.06399" lon="1.27697">
        <ele>661.8</ele>
        <time>2024-06-23T11:26:27Z</time>
      </trkpt>
      <trkpt lat="43.06402" lon="1.27694">
        <ele>661.8</ele>
        <time>2024-06-23T11:26:28Z</time>
      </trkpt>
      <trkpt lat="43.06404" lon="1.27691">
        <ele>661.8</ele>
        <time>2024-06-23T11:26:29Z</time>
      </trkpt>
      <trkpt lat="43.06406" lon="1.27687">
        <ele>662.2</ele>
        <time>2024-06-23T11:26:30Z</time>
      </trkpt>
      <trkpt lat="43.06407" lon="1.27684">
        <ele>662.6</ele>
        <time>2024-06-23T11:26:31Z</time>
      </trkpt>
      <trkpt lat="43.06408" lon="1.2768">
        <ele>662.8</ele>
        <time>2024-06-23T11:26:32Z</time>
      </trkpt>
      <trkpt lat="43.06409" lon="1.27677">
        <ele>662.8</ele>
        <time>2024-06-23T11:26:33Z</time>
      </trkpt>
      <trkpt lat="43.06409" lon="1.27673">
        <ele>663</ele>
        <time>2024-06-23T11:26:34Z</time>
      </trkpt>
      <trkpt lat="43.0641" lon="1.27669">
        <ele>663.2</ele>
        <time>2024-06-23T11:26:35Z</time>
      </trkpt>
      <trkpt lat="43.06411" lon="1.27666">
        <ele>663.4</ele>
        <time>2024-06-23T11:26:36Z</time>
      </trkpt>
      <trkpt lat="43.06412" lon="1.27662">
        <ele>663.8</ele>
        <time>2024-06-23T11:26:37Z</time>
      </trkpt>
      <trkpt lat="43.06413" lon="1.27659">
        <ele>664</ele>
        <time>2024-06-23T11:26:38Z</time>
      </trkpt>
      <trkpt lat="43.06413" lon="1.27656">
        <ele>664</ele>
        <time>2024-06-23T11:26:39Z</time>
      </trkpt>
      <trkpt lat="43.06414" lon="1.27652">
        <ele>664.4</ele>
        <time>2024-06-23T11:26:40Z</time>
      </trkpt>
      <trkpt lat="43.06415" lon="1.27649">
        <ele>664.4</ele>
        <time>2024-06-23T11:26:41Z</time>
      </trkpt>
      <trkpt lat="43.06415" lon="1.27645">
        <ele>664.8</ele>
        <time>2024-06-23T11:26:42Z</time>
      </trkpt>
      <trkpt lat="43.06416" lon="1.27642">
        <ele>664.8</ele>
        <time>2024-06-23T11:26:43Z</time>
      </trkpt>
      <trkpt lat="43.06416" lon="1.27638">
        <ele>665</ele>
        <time>2024-06-23T11:26:44Z</time>
      </trkpt>
      <trkpt lat="43.06416" lon="1.27634">
        <ele>665</ele>
        <time>2024-06-23T11:26:45Z</time>
      </trkpt>
      <trkpt lat="43.06417" lon="1.2763">
        <ele>665.2</ele>
        <time>2024-06-23T11:26:46Z</time>
      </trkpt>
      <trkpt lat="43.06417" lon="1.27626">
        <ele>665.2</ele>
        <time>2024-06-23T11:26:47Z</time>
      </trkpt>
      <trkpt lat="43.06418" lon="1.27622">
        <ele>665.6</ele>
        <time>2024-06-23T11:26:48Z</time>
      </trkpt>
      <trkpt lat="43.06419" lon="1.27618">
        <ele>665.6</ele>
        <time>2024-06-23T11:26:49Z</time>
      </trkpt>
      <trkpt lat="43.0642" lon="1.27614">
        <ele>665.8</ele>
        <time>2024-06-23T11:26:50Z</time>
      </trkpt>
      <trkpt lat="43.06421" lon="1.2761">
        <ele>666</ele>
        <time>2024-06-23T11:26:51Z</time>
      </trkpt>
      <trkpt lat="43.06422" lon="1.27606">
        <ele>666</ele>
        <time>2024-06-23T11:26:52Z</time>
      </trkpt>
      <trkpt lat="43.06423" lon="1.27602">
        <ele>666</ele>
        <time>2024-06-23T11:26:53Z</time>
      </trkpt>
      <trkpt lat="43.06424" lon="1.27599">
        <ele>666.4</ele>
        <time>2024-06-23T11:26:54Z</time>
      </trkpt>
      <trkpt lat="43.06426" lon="1.27596">
        <ele>666.6</ele>
        <time>2024-06-23T11:26:55Z</time>
      </trkpt>
      <trkpt lat="43.06427" lon="1.27593">
        <ele>667</ele>
        <time>2024-06-23T11:26:56Z</time>
      </trkpt>
      <trkpt lat="43.06428" lon="1.2759">
        <ele>667.2</ele>
        <time>2024-06-23T11:26:57Z</time>
      </trkpt>
      <trkpt lat="43.0643" lon="1.27588">
        <ele>667.2</ele>
        <time>2024-06-23T11:26:58Z</time>
      </trkpt>
      <trkpt lat="43.06431" lon="1.27585">
        <ele>667.6</ele>
        <time>2024-06-23T11:26:59Z</time>
      </trkpt>
      <trkpt lat="43.06434" lon="1.27583">
        <ele>667.6</ele>
        <time>2024-06-23T11:27:00Z</time>
      </trkpt>
      <trkpt lat="43.06436" lon="1.27581">
        <ele>667.6</ele>
        <time>2024-06-23T11:27:01Z</time>
      </trkpt>
      <trkpt lat="43.06439" lon="1.27579">
        <ele>668</ele>
        <time>2024-06-23T11:27:02Z</time>
      </trkpt>
      <trkpt lat="43.06441" lon="1.27577">
        <ele>668.4</ele>
        <time>2024-06-23T11:27:03Z</time>
      </trkpt>
      <trkpt lat="43.06444" lon="1.27575">
        <ele>668.6</ele>
        <time>2024-06-23T11:27:04Z</time>
      </trkpt>
      <trkpt lat="43.06446" lon="1.27573">
        <ele>668.8</ele>
        <time>2024-06-23T11:27:05Z</time>
      </trkpt>
      <trkpt lat="43.06449" lon="1.27571">
        <ele>669</ele>
        <time>2024-06-23T11:27:06Z</time>
      </trkpt>
      <trkpt lat="43.06451" lon="1.27569">
        <ele>669</ele>
        <time>2024-06-23T11:27:07Z</time>
      </trkpt>
      <trkpt lat="43.06454" lon="1.27567">
        <ele>669.4</ele>
        <time>2024-06-23T11:27:08Z</time>
      </trkpt>
      <trkpt lat="43.06456" lon="1.27564">
        <ele>669.6</ele>
        <time>2024-06-23T11:27:09Z</time>
      </trkpt>
      <trkpt lat="43.06459" lon="1.27562">
        <ele>669.6</ele>
        <time>2024-06-23T11:27:10Z</time>
      </trkpt>
      <trkpt lat="43.06462" lon="1.2756">
        <ele>669.6</ele>
        <time>2024-06-23T11:27:11Z</time>
      </trkpt>
      <trkpt lat="43.06465" lon="1.27558">
        <ele>670</ele>
        <time>2024-06-23T11:27:12Z</time>
      </trkpt>
      <trkpt lat="43.06467" lon="1.27556">
        <ele>670</ele>
        <time>2024-06-23T11:27:13Z</time>
      </trkpt>
      <trkpt lat="43.0647" lon="1.27553">
        <ele>670.4</ele>
        <time>2024-06-23T11:27:14Z</time>
      </trkpt>
      <trkpt lat="43.06472" lon="1.2755">
        <ele>670.6</ele>
        <time>2024-06-23T11:27:15Z</time>
      </trkpt>
      <trkpt lat="43.06474" lon="1.27547">
        <ele>671</ele>
        <time>2024-06-23T11:27:16Z</time>
      </trkpt>
      <trkpt lat="43.06476" lon="1.27543">
        <ele>671</ele>
        <time>2024-06-23T11:27:17Z</time>
      </trkpt>
      <trkpt lat="43.06477" lon="1.2754">
        <ele>671.2</ele>
        <time>2024-06-23T11:27:18Z</time>
      </trkpt>
      <trkpt lat="43.06479" lon="1.27536">
        <ele>671.2</ele>
        <time>2024-06-23T11:27:19Z</time>
      </trkpt>
      <trkpt lat="43.06481" lon="1.27533">
        <ele>671.4</ele>
        <time>2024-06-23T11:27:20Z</time>
      </trkpt>
      <trkpt lat="43.06482" lon="1.2753">
        <ele>671.4</ele>
        <time>2024-06-23T11:27:21Z</time>
      </trkpt>
      <trkpt lat="43.06484" lon="1.27526">
        <ele>671.4</ele>
        <time>2024-06-23T11:27:22Z</time>
      </trkpt>
      <trkpt lat="43.06484" lon="1.27522">
        <ele>671.8</ele>
        <time>2024-06-23T11:27:23Z</time>
      </trkpt>
      <trkpt lat="43.06485" lon="1.27518">
        <ele>672</ele>
        <time>2024-06-23T11:27:24Z</time>
      </trkpt>
      <trkpt lat="43.06486" lon="1.27514">
        <ele>672.4</ele>
        <time>2024-06-23T11:27:25Z</time>
      </trkpt>
      <trkpt lat="43.06486" lon="1.27509">
        <ele>672.4</ele>
        <time>2024-06-23T11:27:26Z</time>
      </trkpt>
      <trkpt lat="43.06487" lon="1.27504">
        <ele>672.6</ele>
        <time>2024-06-23T11:27:27Z</time>
      </trkpt>
      <trkpt lat="43.06487" lon="1.27499">
        <ele>672.6</ele>
        <time>2024-06-23T11:27:28Z</time>
      </trkpt>
      <trkpt lat="43.06487" lon="1.27495">
        <ele>673</ele>
        <time>2024-06-23T11:27:29Z</time>
      </trkpt>
      <trkpt lat="43.06487" lon="1.2749">
        <ele>673</ele>
        <time>2024-06-23T11:27:30Z</time>
      </trkpt>
      <trkpt lat="43.06487" lon="1.27486">
        <ele>673.2</ele>
        <time>2024-06-23T11:27:31Z</time>
      </trkpt>
      <trkpt lat="43.06486" lon="1.27482">
        <ele>673.2</ele>
        <time>2024-06-23T11:27:32Z</time>
      </trkpt>
      <trkpt lat="43.06485" lon="1.27477">
        <ele>673.4</ele>
        <time>2024-06-23T11:27:33Z</time>
      </trkpt>
      <trkpt lat="43.06484" lon="1.27473">
        <ele>673.4</ele>
        <time>2024-06-23T11:27:34Z</time>
      </trkpt>
      <trkpt lat="43.06483" lon="1.27469">
        <ele>673.6</ele>
        <time>2024-06-23T11:27:35Z</time>
      </trkpt>
      <trkpt lat="43.06482" lon="1.27465">
        <ele>673.6</ele>
        <time>2024-06-23T11:27:36Z</time>
      </trkpt>
      <trkpt lat="43.06481" lon="1.27461">
        <ele>673.6</ele>
        <time>2024-06-23T11:27:37Z</time>
      </trkpt>
      <trkpt lat="43.06479" lon="1.27457">
        <ele>673.6</ele>
        <time>2024-06-23T11:27:38Z</time>
      </trkpt>
      <trkpt lat="43.06478" lon="1.27453">
        <ele>673.8</ele>
        <time>2024-06-23T11:27:39Z</time>
      </trkpt>
      <trkpt lat="43.06476" lon="1.2745">
        <ele>673.8</ele>
        <time>2024-06-23T11:27:40Z</time>
      </trkpt>
      <trkpt lat="43.06474" lon="1.27446">
        <ele>673.8</ele>
        <time>2024-06-23T11:27:41Z</time>
      </trkpt>
      <trkpt lat="43.06471" lon="1.27443">
        <ele>673.8</ele>
        <time>2024-06-23T11:27:42Z</time>
      </trkpt>
      <trkpt lat="43.06469" lon="1.2744">
        <ele>674.2</ele>
        <time>2024-06-23T11:27:43Z</time>
      </trkpt>
      <trkpt lat="43.06467" lon="1.27437">
        <ele>674.2</ele>
        <time>2024-06-23T11:27:44Z</time>
      </trkpt>
      <trkpt lat="43.06464" lon="1.27434">
        <ele>674.2</ele>
        <time>2024-06-23T11:27:45Z</time>
      </trkpt>
      <trkpt lat="43.06462" lon="1.27431">
        <ele>674.6</ele>
        <time>2024-06-23T11:27:46Z</time>
      </trkpt>
      <trkpt lat="43.06459" lon="1.27428">
        <ele>674.6</ele>
        <time>2024-06-23T11:27:47Z</time>
      </trkpt>
      <trkpt lat="43.06456" lon="1.27425">
        <ele>674.6</ele>
        <time>2024-06-23T11:27:48Z</time>
      </trkpt>
      <trkpt lat="43.06454" lon="1.27422">
        <ele>674.8</ele>
        <time>2024-06-23T11:27:49Z</time>
      </trkpt>
      <trkpt lat="43.06451" lon="1.27419">
        <ele>674.8</ele>
        <time>2024-06-23T11:27:50Z</time>
      </trkpt>
      <trkpt lat="43.06446" lon="1.27412">
        <ele>675</ele>
        <time>2024-06-23T11:27:51Z</time>
      </trkpt>
      <trkpt lat="43.06444" lon="1.27409">
        <ele>675</ele>
        <time>2024-06-23T11:27:52Z</time>
      </trkpt>
      <trkpt lat="43.06441" lon="1.27406">
        <ele>675</ele>
        <time>2024-06-23T11:27:53Z</time>
      </trkpt>
      <trkpt lat="43.06439" lon="1.27403">
        <ele>675</ele>
        <time>2024-06-23T11:27:54Z</time>
      </trkpt>
      <trkpt lat="43.06436" lon="1.274">
        <ele>675</ele>
        <time>2024-06-23T11:27:55Z</time>
      </trkpt>
      <trkpt lat="43.06433" lon="1.27397">
        <ele>675.4</ele>
        <time>2024-06-23T11:27:56Z</time>
      </trkpt>
      <trkpt lat="43.0643" lon="1.27393">
        <ele>675.4</ele>
        <time>2024-06-23T11:27:57Z</time>
      </trkpt>
      <trkpt lat="43.06427" lon="1.2739">
        <ele>675.4</ele>
        <time>2024-06-23T11:27:58Z</time>
      </trkpt>
      <trkpt lat="43.06424" lon="1.27387">
        <ele>675</ele>
        <time>2024-06-23T11:27:59Z</time>
      </trkpt>
      <trkpt lat="43.06421" lon="1.27383">
        <ele>674.8</ele>
        <time>2024-06-23T11:28:00Z</time>
      </trkpt>
      <trkpt lat="43.06418" lon="1.27379">
        <ele>674.8</ele>
        <time>2024-06-23T11:28:01Z</time>
      </trkpt>
      <trkpt lat="43.06416" lon="1.27375">
        <ele>674.8</ele>
        <time>2024-06-23T11:28:02Z</time>
      </trkpt>
      <trkpt lat="43.06414" lon="1.27372">
        <ele>674.6</ele>
        <time>2024-06-23T11:28:03Z</time>
      </trkpt>
      <trkpt lat="43.06412" lon="1.2737">
        <ele>674.6</ele>
        <time>2024-06-23T11:28:04Z</time>
      </trkpt>
      <trkpt lat="43.06412" lon="1.2737">
        <ele>674.6</ele>
        <time>2024-06-23T11:28:05Z</time>
      </trkpt>
      <trkpt lat="43.06412" lon="1.2737">
        <ele>674.6</ele>
        <time>2024-06-23T11:28:06Z</time>
      </trkpt>
      <trkpt lat="43.06412" lon="1.2737">
        <ele>674.4</ele>
        <time>2024-06-23T11:28:07Z</time>
      </trkpt>
      <trkpt lat="43.06411" lon="1.27369">
        <ele>674.4</ele>
        <time>2024-06-23T11:28:08Z</time>
      </trkpt>
      <trkpt lat="43.06411" lon="1.27368">
        <ele>674.4</ele>
        <time>2024-06-23T11:28:09Z</time>
      </trkpt>
      <trkpt lat="43.06411" lon="1.27368">
        <ele>674.4</ele>
        <time>2024-06-23T11:28:10Z</time>
      </trkpt>
      <trkpt lat="43.06411" lon="1.27368">
        <ele>674.2</ele>
        <time>2024-06-23T11:28:11Z</time>
      </trkpt>
      <trkpt lat="43.06411" lon="1.27368">
        <ele>674.2</ele>
        <time>2024-06-23T11:28:12Z</time>
      </trkpt>
      <trkpt lat="43.06408" lon="1.27365">
        <ele>676</ele>
        <time>2024-06-23T11:30:24Z</time>
      </trkpt>
      <trkpt lat="43.06406" lon="1.27364">
        <ele>676</ele>
        <time>2024-06-23T11:30:25Z</time>
      </trkpt>
      <trkpt lat="43.06405" lon="1.27362">
        <ele>676</ele>
        <time>2024-06-23T11:30:26Z</time>
      </trkpt>
      <trkpt lat="43.06402" lon="1.2736">
        <ele>676</ele>
        <time>2024-06-23T11:30:27Z</time>
      </trkpt>
      <trkpt lat="43.064" lon="1.27356">
        <ele>676</ele>
        <time>2024-06-23T11:30:28Z</time>
      </trkpt>
      <trkpt lat="43.06397" lon="1.27352">
        <ele>676</ele>
        <time>2024-06-23T11:30:29Z</time>
      </trkpt>
      <trkpt lat="43.06394" lon="1.27349">
        <ele>676</ele>
        <time>2024-06-23T11:30:30Z</time>
      </trkpt>
      <trkpt lat="43.06391" lon="1.27345">
        <ele>675.6</ele>
        <time>2024-06-23T11:30:31Z</time>
      </trkpt>
      <trkpt lat="43.06386" lon="1.27342">
        <ele>675.6</ele>
        <time>2024-06-23T11:30:32Z</time>
      </trkpt>
      <trkpt lat="43.06383" lon="1.27338">
        <ele>675.6</ele>
        <time>2024-06-23T11:30:33Z</time>
      </trkpt>
      <trkpt lat="43.06379" lon="1.27334">
        <ele>675.4</ele>
        <time>2024-06-23T11:30:34Z</time>
      </trkpt>
      <trkpt lat="43.06374" lon="1.2733">
        <ele>675</ele>
        <time>2024-06-23T11:30:35Z</time>
      </trkpt>
      <trkpt lat="43.0637" lon="1.27326">
        <ele>675</ele>
        <time>2024-06-23T11:30:36Z</time>
      </trkpt>
      <trkpt lat="43.06365" lon="1.27321">
        <ele>675</ele>
        <time>2024-06-23T11:30:37Z</time>
      </trkpt>
      <trkpt lat="43.06361" lon="1.27317">
        <ele>674.6</ele>
        <time>2024-06-23T11:30:38Z</time>
      </trkpt>
      <trkpt lat="43.06356" lon="1.27313">
        <ele>674.4</ele>
        <time>2024-06-23T11:30:39Z</time>
      </trkpt>
      <trkpt lat="43.06356" lon="1.27313">
        <ele>674</ele>
        <time>2024-06-23T11:30:40Z</time>
      </trkpt>
      <trkpt lat="43.0635" lon="1.27308">
        <ele>673.6</ele>
        <time>2024-06-23T11:30:41Z</time>
      </trkpt>
      <trkpt lat="43.06345" lon="1.27303">
        <ele>673.6</ele>
        <time>2024-06-23T11:30:42Z</time>
      </trkpt>
      <trkpt lat="43.0634" lon="1.27299">
        <ele>673.6</ele>
        <time>2024-06-23T11:30:43Z</time>
      </trkpt>
      <trkpt lat="43.06335" lon="1.27294">
        <ele>673</ele>
        <time>2024-06-23T11:30:44Z</time>
      </trkpt>
      <trkpt lat="43.06329" lon="1.27289">
        <ele>673</ele>
        <time>2024-06-23T11:30:45Z</time>
      </trkpt>
      <trkpt lat="43.06324" lon="1.27284">
        <ele>673</ele>
        <time>2024-06-23T11:30:46Z</time>
      </trkpt>
      <trkpt lat="43.06318" lon="1.27279">
        <ele>673</ele>
        <time>2024-06-23T11:30:47Z</time>
      </trkpt>
      <trkpt lat="43.06313" lon="1.27274">
        <ele>673</ele>
        <time>2024-06-23T11:30:48Z</time>
      </trkpt>
      <trkpt lat="43.06307" lon="1.27269">
        <ele>672.6</ele>
        <time>2024-06-23T11:30:49Z</time>
      </trkpt>
      <trkpt lat="43.06302" lon="1.27264">
        <ele>672.6</ele>
        <time>2024-06-23T11:30:50Z</time>
      </trkpt>
      <trkpt lat="43.06297" lon="1.27257">
        <ele>672.2</ele>
        <time>2024-06-23T11:30:51Z</time>
      </trkpt>
      <trkpt lat="43.06291" lon="1.27252">
        <ele>672</ele>
        <time>2024-06-23T11:30:52Z</time>
      </trkpt>
      <trkpt lat="43.06286" lon="1.27245">
        <ele>672</ele>
        <time>2024-06-23T11:30:53Z</time>
      </trkpt>
      <trkpt lat="43.06281" lon="1.27238">
        <ele>672</ele>
        <time>2024-06-23T11:30:54Z</time>
      </trkpt>
      <trkpt lat="43.06276" lon="1.27232">
        <ele>671.8</ele>
        <time>2024-06-23T11:30:55Z</time>
      </trkpt>
      <trkpt lat="43.06271" lon="1.27225">
        <ele>671.8</ele>
        <time>2024-06-23T11:30:56Z</time>
      </trkpt>
      <trkpt lat="43.06267" lon="1.27219">
        <ele>671.8</ele>
        <time>2024-06-23T11:30:57Z</time>
      </trkpt>
      <trkpt lat="43.06262" lon="1.27212">
        <ele>671.4</ele>
        <time>2024-06-23T11:30:58Z</time>
      </trkpt>
      <trkpt lat="43.06258" lon="1.27205">
        <ele>671.2</ele>
        <time>2024-06-23T11:30:59Z</time>
      </trkpt>
      <trkpt lat="43.06254" lon="1.27198">
        <ele>671</ele>
        <time>2024-06-23T11:31:00Z</time>
      </trkpt>
      <trkpt lat="43.0625" lon="1.27191">
        <ele>671</ele>
        <time>2024-06-23T11:31:01Z</time>
      </trkpt>
      <trkpt lat="43.06245" lon="1.27184">
        <ele>670.8</ele>
        <time>2024-06-23T11:31:02Z</time>
      </trkpt>
      <trkpt lat="43.06241" lon="1.27177">
        <ele>670.4</ele>
        <time>2024-06-23T11:31:03Z</time>
      </trkpt>
      <trkpt lat="43.06237" lon="1.27171">
        <ele>670.4</ele>
        <time>2024-06-23T11:31:04Z</time>
      </trkpt>
      <trkpt lat="43.06232" lon="1.27163">
        <ele>670</ele>
        <time>2024-06-23T11:31:05Z</time>
      </trkpt>
      <trkpt lat="43.06229" lon="1.27157">
        <ele>670</ele>
        <time>2024-06-23T11:31:06Z</time>
      </trkpt>
      <trkpt lat="43.06225" lon="1.2715">
        <ele>670</ele>
        <time>2024-06-23T11:31:07Z</time>
      </trkpt>
      <trkpt lat="43.06221" lon="1.27143">
        <ele>669.8</ele>
        <time>2024-06-23T11:31:08Z</time>
      </trkpt>
      <trkpt lat="43.06217" lon="1.27136">
        <ele>669.8</ele>
        <time>2024-06-23T11:31:09Z</time>
      </trkpt>
      <trkpt lat="43.06214" lon="1.27131">
        <ele>669.8</ele>
        <time>2024-06-23T11:31:10Z</time>
      </trkpt>
      <trkpt lat="43.06211" lon="1.27126">
        <ele>669.4</ele>
        <time>2024-06-23T11:31:11Z</time>
      </trkpt>
      <trkpt lat="43.06208" lon="1.27121">
        <ele>669.4</ele>
        <time>2024-06-23T11:31:12Z</time>
      </trkpt>
      <trkpt lat="43.06205" lon="1.27116">
        <ele>669.4</ele>
        <time>2024-06-23T11:31:13Z</time>
      </trkpt>
      <trkpt lat="43.06202" lon="1.27111">
        <ele>669.2</ele>
        <time>2024-06-23T11:31:14Z</time>
      </trkpt>
      <trkpt lat="43.06201" lon="1.27108">
        <ele>669.2</ele>
        <time>2024-06-23T11:31:15Z</time>
      </trkpt>
      <trkpt lat="43.062" lon="1.27107">
        <ele>669.2</ele>
        <time>2024-06-23T11:31:16Z</time>
      </trkpt>
      <trkpt lat="43.06199" lon="1.27106">
        <ele>669.2</ele>
        <time>2024-06-23T11:31:17Z</time>
      </trkpt>
      <trkpt lat="43.06199" lon="1.27105">
        <ele>669.2</ele>
        <time>2024-06-23T11:31:18Z</time>
      </trkpt>
      <trkpt lat="43.06199" lon="1.27106">
        <ele>669.2</ele>
        <time>2024-06-23T11:31:19Z</time>
      </trkpt>
      <trkpt lat="43.062" lon="1.27105">
        <ele>669.2</ele>
        <time>2024-06-23T11:32:30Z</time>
      </trkpt>
      <trkpt lat="43.06199" lon="1.27102">
        <ele>669</ele>
        <time>2024-06-23T11:32:31Z</time>
      </trkpt>
      <trkpt lat="43.06197" lon="1.271">
        <ele>669</ele>
        <time>2024-06-23T11:32:32Z</time>
      </trkpt>
      <trkpt lat="43.06195" lon="1.27096">
        <ele>669</ele>
        <time>2024-06-23T11:32:33Z</time>
      </trkpt>
      <trkpt lat="43.06193" lon="1.27092">
        <ele>669</ele>
        <time>2024-06-23T11:32:34Z</time>
      </trkpt>
      <trkpt lat="43.06191" lon="1.27088">
        <ele>669</ele>
        <time>2024-06-23T11:32:35Z</time>
      </trkpt>
      <trkpt lat="43.06188" lon="1.27082">
        <ele>668.6</ele>
        <time>2024-06-23T11:32:36Z</time>
      </trkpt>
      <trkpt lat="43.06186" lon="1.27077">
        <ele>668.6</ele>
        <time>2024-06-23T11:32:37Z</time>
      </trkpt>
      <trkpt lat="43.06179" lon="1.27063">
        <ele>668.6</ele>
        <time>2024-06-23T11:32:38Z</time>
      </trkpt>
      <trkpt lat="43.06176" lon="1.27057">
        <ele>668.6</ele>
        <time>2024-06-23T11:32:39Z</time>
      </trkpt>
      <trkpt lat="43.06172" lon="1.27052">
        <ele>668.6</ele>
        <time>2024-06-23T11:32:40Z</time>
      </trkpt>
      <trkpt lat="43.06168" lon="1.27047">
        <ele>668.2</ele>
        <time>2024-06-23T11:32:41Z</time>
      </trkpt>
      <trkpt lat="43.06163" lon="1.27043">
        <ele>668.2</ele>
        <time>2024-06-23T11:32:42Z</time>
      </trkpt>
      <trkpt lat="43.06158" lon="1.27039">
        <ele>668</ele>
        <time>2024-06-23T11:32:43Z</time>
      </trkpt>
      <trkpt lat="43.06152" lon="1.27036">
        <ele>668</ele>
        <time>2024-06-23T11:32:44Z</time>
      </trkpt>
      <trkpt lat="43.06147" lon="1.27033">
        <ele>668</ele>
        <time>2024-06-23T11:32:45Z</time>
      </trkpt>
      <trkpt lat="43.06141" lon="1.27031">
        <ele>668</ele>
        <time>2024-06-23T11:32:46Z</time>
      </trkpt>
      <trkpt lat="43.06136" lon="1.27029">
        <ele>667.2</ele>
        <time>2024-06-23T11:32:47Z</time>
      </trkpt>
      <trkpt lat="43.0613" lon="1.27027">
        <ele>667</ele>
        <time>2024-06-23T11:32:48Z</time>
      </trkpt>
      <trkpt lat="43.06124" lon="1.27024">
        <ele>667</ele>
        <time>2024-06-23T11:32:49Z</time>
      </trkpt>
      <trkpt lat="43.06118" lon="1.27022">
        <ele>667</ele>
        <time>2024-06-23T11:32:50Z</time>
      </trkpt>
      <trkpt lat="43.06112" lon="1.2702">
        <ele>666.8</ele>
        <time>2024-06-23T11:32:51Z</time>
      </trkpt>
      <trkpt lat="43.06106" lon="1.27016">
        <ele>666.8</ele>
        <time>2024-06-23T11:32:52Z</time>
      </trkpt>
      <trkpt lat="43.06101" lon="1.27013">
        <ele>666.8</ele>
        <time>2024-06-23T11:32:53Z</time>
      </trkpt>
      <trkpt lat="43.06095" lon="1.2701">
        <ele>666.8</ele>
        <time>2024-06-23T11:32:54Z</time>
      </trkpt>
      <trkpt lat="43.06089" lon="1.27005">
        <ele>666.4</ele>
        <time>2024-06-23T11:32:55Z</time>
      </trkpt>
      <trkpt lat="43.06085" lon="1.27001">
        <ele>666</ele>
        <time>2024-06-23T11:32:56Z</time>
      </trkpt>
      <trkpt lat="43.06079" lon="1.26997">
        <ele>666</ele>
        <time>2024-06-23T11:32:57Z</time>
      </trkpt>
      <trkpt lat="43.06075" lon="1.26992">
        <ele>666</ele>
        <time>2024-06-23T11:32:58Z</time>
      </trkpt>
      <trkpt lat="43.06071" lon="1.26986">
        <ele>666</ele>
        <time>2024-06-23T11:32:59Z</time>
      </trkpt>
      <trkpt lat="43.06067" lon="1.26981">
        <ele>666.4</ele>
        <time>2024-06-23T11:33:00Z</time>
      </trkpt>
      <trkpt lat="43.06065" lon="1.26976">
        <ele>666.4</ele>
        <time>2024-06-23T11:33:01Z</time>
      </trkpt>
      <trkpt lat="43.06061" lon="1.2697">
        <ele>666.4</ele>
        <time>2024-06-23T11:33:02Z</time>
      </trkpt>
      <trkpt lat="43.06058" lon="1.26965">
        <ele>666.4</ele>
        <time>2024-06-23T11:33:03Z</time>
      </trkpt>
      <trkpt lat="43.06056" lon="1.26959">
        <ele>666.6</ele>
        <time>2024-06-23T11:33:04Z</time>
      </trkpt>
      <trkpt lat="43.06054" lon="1.26952">
        <ele>667</ele>
        <time>2024-06-23T11:33:05Z</time>
      </trkpt>
      <trkpt lat="43.06053" lon="1.26945">
        <ele>667.4</ele>
        <time>2024-06-23T11:33:06Z</time>
      </trkpt>
      <trkpt lat="43.06051" lon="1.26938">
        <ele>667.4</ele>
        <time>2024-06-23T11:33:07Z</time>
      </trkpt>
      <trkpt lat="43.0605" lon="1.2693">
        <ele>667.8</ele>
        <time>2024-06-23T11:33:08Z</time>
      </trkpt>
      <trkpt lat="43.06048" lon="1.26924">
        <ele>668</ele>
        <time>2024-06-23T11:33:09Z</time>
      </trkpt>
      <trkpt lat="43.06046" lon="1.26917">
        <ele>668.4</ele>
        <time>2024-06-23T11:33:10Z</time>
      </trkpt>
      <trkpt lat="43.06045" lon="1.26911">
        <ele>668.6</ele>
        <time>2024-06-23T11:33:11Z</time>
      </trkpt>
      <trkpt lat="43.06043" lon="1.26904">
        <ele>668.8</ele>
        <time>2024-06-23T11:33:12Z</time>
      </trkpt>
      <trkpt lat="43.06041" lon="1.26898">
        <ele>668.8</ele>
        <time>2024-06-23T11:33:13Z</time>
      </trkpt>
      <trkpt lat="43.06039" lon="1.26892">
        <ele>669.2</ele>
        <time>2024-06-23T11:33:14Z</time>
      </trkpt>
      <trkpt lat="43.06037" lon="1.26887">
        <ele>669.2</ele>
        <time>2024-06-23T11:33:15Z</time>
      </trkpt>
      <trkpt lat="43.06035" lon="1.26881">
        <ele>670</ele>
        <time>2024-06-23T11:33:16Z</time>
      </trkpt>
      <trkpt lat="43.06032" lon="1.26876">
        <ele>670</ele>
        <time>2024-06-23T11:33:17Z</time>
      </trkpt>
      <trkpt lat="43.0603" lon="1.26871">
        <ele>670.4</ele>
        <time>2024-06-23T11:33:18Z</time>
      </trkpt>
      <trkpt lat="43.06028" lon="1.26867">
        <ele>670.4</ele>
        <time>2024-06-23T11:33:19Z</time>
      </trkpt>
      <trkpt lat="43.06025" lon="1.26862">
        <ele>670.8</ele>
        <time>2024-06-23T11:33:20Z</time>
      </trkpt>
      <trkpt lat="43.06022" lon="1.26858">
        <ele>671.4</ele>
        <time>2024-06-23T11:33:21Z</time>
      </trkpt>
      <trkpt lat="43.06019" lon="1.26854">
        <ele>671.4</ele>
        <time>2024-06-23T11:33:22Z</time>
      </trkpt>
      <trkpt lat="43.06016" lon="1.2685">
        <ele>671.8</ele>
        <time>2024-06-23T11:33:23Z</time>
      </trkpt>
      <trkpt lat="43.06013" lon="1.26846">
        <ele>672.4</ele>
        <time>2024-06-23T11:33:24Z</time>
      </trkpt>
      <trkpt lat="43.0601" lon="1.26842">
        <ele>672.4</ele>
        <time>2024-06-23T11:33:25Z</time>
      </trkpt>
      <trkpt lat="43.06007" lon="1.26838">
        <ele>672.6</ele>
        <time>2024-06-23T11:33:26Z</time>
      </trkpt>
      <trkpt lat="43.06003" lon="1.26835">
        <ele>672.6</ele>
        <time>2024-06-23T11:33:27Z</time>
      </trkpt>
      <trkpt lat="43.06" lon="1.26832">
        <ele>673</ele>
        <time>2024-06-23T11:33:28Z</time>
      </trkpt>
      <trkpt lat="43.05996" lon="1.26828">
        <ele>673.2</ele>
        <time>2024-06-23T11:33:29Z</time>
      </trkpt>
      <trkpt lat="43.05992" lon="1.26826">
        <ele>673.4</ele>
        <time>2024-06-23T11:33:30Z</time>
      </trkpt>
      <trkpt lat="43.05989" lon="1.26823">
        <ele>673.4</ele>
        <time>2024-06-23T11:33:31Z</time>
      </trkpt>
      <trkpt lat="43.05986" lon="1.26821">
        <ele>674.2</ele>
        <time>2024-06-23T11:33:32Z</time>
      </trkpt>
      <trkpt lat="43.05982" lon="1.26819">
        <ele>674.6</ele>
        <time>2024-06-23T11:33:33Z</time>
      </trkpt>
      <trkpt lat="43.05979" lon="1.26818">
        <ele>674.8</ele>
        <time>2024-06-23T11:33:34Z</time>
      </trkpt>
      <trkpt lat="43.05975" lon="1.26815">
        <ele>675</ele>
        <time>2024-06-23T11:33:35Z</time>
      </trkpt>
      <trkpt lat="43.05972" lon="1.26813">
        <ele>674.6</ele>
        <time>2024-06-23T11:33:36Z</time>
      </trkpt>
      <trkpt lat="43.05968" lon="1.26811">
        <ele>674.6</ele>
        <time>2024-06-23T11:33:37Z</time>
      </trkpt>
      <trkpt lat="43.05965" lon="1.26809">
        <ele>674.8</ele>
        <time>2024-06-23T11:33:38Z</time>
      </trkpt>
      <trkpt lat="43.05961" lon="1.26808">
        <ele>675.2</ele>
        <time>2024-06-23T11:33:39Z</time>
      </trkpt>
      <trkpt lat="43.05957" lon="1.26807">
        <ele>675.2</ele>
        <time>2024-06-23T11:33:40Z</time>
      </trkpt>
      <trkpt lat="43.05953" lon="1.26806">
        <ele>674.8</ele>
        <time>2024-06-23T11:33:41Z</time>
      </trkpt>
      <trkpt lat="43.05949" lon="1.26805">
        <ele>674.8</ele>
        <time>2024-06-23T11:33:42Z</time>
      </trkpt>
      <trkpt lat="43.05945" lon="1.26804">
        <ele>674.8</ele>
        <time>2024-06-23T11:33:43Z</time>
      </trkpt>
      <trkpt lat="43.0594" lon="1.26803">
        <ele>674.8</ele>
        <time>2024-06-23T11:33:44Z</time>
      </trkpt>
      <trkpt lat="43.05935" lon="1.26802">
        <ele>674.8</ele>
        <time>2024-06-23T11:33:45Z</time>
      </trkpt>
      <trkpt lat="43.0593" lon="1.26801">
        <ele>674.6</ele>
        <time>2024-06-23T11:33:46Z</time>
      </trkpt>
      <trkpt lat="43.05925" lon="1.268">
        <ele>674.6</ele>
        <time>2024-06-23T11:33:47Z</time>
      </trkpt>
      <trkpt lat="43.05919" lon="1.268">
        <ele>674.4</ele>
        <time>2024-06-23T11:33:48Z</time>
      </trkpt>
      <trkpt lat="43.05913" lon="1.26799">
        <ele>674.4</ele>
        <time>2024-06-23T11:33:49Z</time>
      </trkpt>
      <trkpt lat="43.05907" lon="1.26798">
        <ele>673.8</ele>
        <time>2024-06-23T11:33:50Z</time>
      </trkpt>
      <trkpt lat="43.059" lon="1.26797">
        <ele>673.4</ele>
        <time>2024-06-23T11:33:51Z</time>
      </trkpt>
      <trkpt lat="43.05894" lon="1.26796">
        <ele>672.8</ele>
        <time>2024-06-23T11:33:52Z</time>
      </trkpt>
      <trkpt lat="43.05886" lon="1.26795">
        <ele>672.8</ele>
        <time>2024-06-23T11:33:53Z</time>
      </trkpt>
      <trkpt lat="43.05879" lon="1.26794">
        <ele>672.2</ele>
        <time>2024-06-23T11:33:54Z</time>
      </trkpt>
      <trkpt lat="43.05871" lon="1.26793">
        <ele>672</ele>
        <time>2024-06-23T11:33:55Z</time>
      </trkpt>
      <trkpt lat="43.05864" lon="1.26791">
        <ele>671.4</ele>
        <time>2024-06-23T11:33:56Z</time>
      </trkpt>
      <trkpt lat="43.05857" lon="1.2679">
        <ele>671.4</ele>
        <time>2024-06-23T11:33:57Z</time>
      </trkpt>
      <trkpt lat="43.0585" lon="1.26789">
        <ele>671</ele>
        <time>2024-06-23T11:33:58Z</time>
      </trkpt>
      <trkpt lat="43.05843" lon="1.26788">
        <ele>671</ele>
        <time>2024-06-23T11:33:59Z</time>
      </trkpt>
      <trkpt lat="43.05836" lon="1.26786">
        <ele>671</ele>
        <time>2024-06-23T11:34:00Z</time>
      </trkpt>
      <trkpt lat="43.0583" lon="1.26784">
        <ele>670.4</ele>
        <time>2024-06-23T11:34:01Z</time>
      </trkpt>
      <trkpt lat="43.05822" lon="1.26783">
        <ele>670.8</ele>
        <time>2024-06-23T11:34:02Z</time>
      </trkpt>
      <trkpt lat="43.05815" lon="1.26782">
        <ele>670.8</ele>
        <time>2024-06-23T11:34:03Z</time>
      </trkpt>
      <trkpt lat="43.05808" lon="1.2678">
        <ele>670.8</ele>
        <time>2024-06-23T11:34:04Z</time>
      </trkpt>
      <trkpt lat="43.05801" lon="1.26779">
        <ele>670.8</ele>
        <time>2024-06-23T11:34:05Z</time>
      </trkpt>
      <trkpt lat="43.05795" lon="1.26777">
        <ele>670.2</ele>
        <time>2024-06-23T11:34:06Z</time>
      </trkpt>
      <trkpt lat="43.05787" lon="1.26776">
        <ele>670.6</ele>
        <time>2024-06-23T11:34:07Z</time>
      </trkpt>
      <trkpt lat="43.05781" lon="1.26775">
        <ele>670.4</ele>
        <time>2024-06-23T11:34:08Z</time>
      </trkpt>
      <trkpt lat="43.05774" lon="1.26774">
        <ele>670.4</ele>
        <time>2024-06-23T11:34:09Z</time>
      </trkpt>
      <trkpt lat="43.05767" lon="1.26772">
        <ele>670.4</ele>
        <time>2024-06-23T11:34:10Z</time>
      </trkpt>
      <trkpt lat="43.05761" lon="1.26771">
        <ele>670</ele>
        <time>2024-06-23T11:34:11Z</time>
      </trkpt>
      <trkpt lat="43.05754" lon="1.2677">
        <ele>670</ele>
        <time>2024-06-23T11:34:12Z</time>
      </trkpt>
      <trkpt lat="43.05748" lon="1.26769">
        <ele>670</ele>
        <time>2024-06-23T11:34:13Z</time>
      </trkpt>
      <trkpt lat="43.05741" lon="1.26768">
        <ele>670.2</ele>
        <time>2024-06-23T11:34:14Z</time>
      </trkpt>
      <trkpt lat="43.05735" lon="1.26767">
        <ele>670.2</ele>
        <time>2024-06-23T11:34:15Z</time>
      </trkpt>
      <trkpt lat="43.05729" lon="1.26766">
        <ele>670</ele>
        <time>2024-06-23T11:34:16Z</time>
      </trkpt>
      <trkpt lat="43.05722" lon="1.26764">
        <ele>669.6</ele>
        <time>2024-06-23T11:34:17Z</time>
      </trkpt>
      <trkpt lat="43.05716" lon="1.26763">
        <ele>669.4</ele>
        <time>2024-06-23T11:34:18Z</time>
      </trkpt>
      <trkpt lat="43.0571" lon="1.26762">
        <ele>669.4</ele>
        <time>2024-06-23T11:34:19Z</time>
      </trkpt>
      <trkpt lat="43.05704" lon="1.26761">
        <ele>669.6</ele>
        <time>2024-06-23T11:34:20Z</time>
      </trkpt>
      <trkpt lat="43.05698" lon="1.26761">
        <ele>669.6</ele>
        <time>2024-06-23T11:34:21Z</time>
      </trkpt>
      <trkpt lat="43.05692" lon="1.2676">
        <ele>670</ele>
        <time>2024-06-23T11:34:22Z</time>
      </trkpt>
      <trkpt lat="43.05687" lon="1.2676">
        <ele>670</ele>
        <time>2024-06-23T11:34:23Z</time>
      </trkpt>
      <trkpt lat="43.05681" lon="1.2676">
        <ele>670</ele>
        <time>2024-06-23T11:34:24Z</time>
      </trkpt>
      <trkpt lat="43.05676" lon="1.2676">
        <ele>670.4</ele>
        <time>2024-06-23T11:34:25Z</time>
      </trkpt>
      <trkpt lat="43.05671" lon="1.26761">
        <ele>670.8</ele>
        <time>2024-06-23T11:34:26Z</time>
      </trkpt>
      <trkpt lat="43.05665" lon="1.26761">
        <ele>670.8</ele>
        <time>2024-06-23T11:34:27Z</time>
      </trkpt>
      <trkpt lat="43.05661" lon="1.26762">
        <ele>670.8</ele>
        <time>2024-06-23T11:34:28Z</time>
      </trkpt>
      <trkpt lat="43.05656" lon="1.26763">
        <ele>671.4</ele>
        <time>2024-06-23T11:34:29Z</time>
      </trkpt>
      <trkpt lat="43.05651" lon="1.26763">
        <ele>671.4</ele>
        <time>2024-06-23T11:34:30Z</time>
      </trkpt>
      <trkpt lat="43.05646" lon="1.26764">
        <ele>671.4</ele>
        <time>2024-06-23T11:34:31Z</time>
      </trkpt>
      <trkpt lat="43.05642" lon="1.26765">
        <ele>671.4</ele>
        <time>2024-06-23T11:34:32Z</time>
      </trkpt>
      <trkpt lat="43.05637" lon="1.26766">
        <ele>671.8</ele>
        <time>2024-06-23T11:34:33Z</time>
      </trkpt>
      <trkpt lat="43.05633" lon="1.26768">
        <ele>672.2</ele>
        <time>2024-06-23T11:34:34Z</time>
      </trkpt>
      <trkpt lat="43.05628" lon="1.26768">
        <ele>672.2</ele>
        <time>2024-06-23T11:34:35Z</time>
      </trkpt>
      <trkpt lat="43.05623" lon="1.26769">
        <ele>672</ele>
        <time>2024-06-23T11:34:36Z</time>
      </trkpt>
      <trkpt lat="43.05619" lon="1.2677">
        <ele>672.2</ele>
        <time>2024-06-23T11:34:37Z</time>
      </trkpt>
      <trkpt lat="43.05614" lon="1.26772">
        <ele>672.6</ele>
        <time>2024-06-23T11:34:38Z</time>
      </trkpt>
      <trkpt lat="43.0561" lon="1.26773">
        <ele>672.6</ele>
        <time>2024-06-23T11:34:39Z</time>
      </trkpt>
      <trkpt lat="43.05606" lon="1.26777">
        <ele>672.6</ele>
        <time>2024-06-23T11:34:40Z</time>
      </trkpt>
      <trkpt lat="43.05602" lon="1.26781">
        <ele>672.6</ele>
        <time>2024-06-23T11:34:41Z</time>
      </trkpt>
      <trkpt lat="43.05599" lon="1.26785">
        <ele>672.6</ele>
        <time>2024-06-23T11:34:42Z</time>
      </trkpt>
      <trkpt lat="43.05596" lon="1.26791">
        <ele>672.6</ele>
        <time>2024-06-23T11:34:43Z</time>
      </trkpt>
      <trkpt lat="43.05594" lon="1.26797">
        <ele>672.2</ele>
        <time>2024-06-23T11:34:44Z</time>
      </trkpt>
      <trkpt lat="43.05593" lon="1.26804">
        <ele>672.2</ele>
        <time>2024-06-23T11:34:45Z</time>
      </trkpt>
      <trkpt lat="43.05592" lon="1.26811">
        <ele>672.2</ele>
        <time>2024-06-23T11:34:46Z</time>
      </trkpt>
      <trkpt lat="43.05591" lon="1.26818">
        <ele>672.4</ele>
        <time>2024-06-23T11:34:47Z</time>
      </trkpt>
      <trkpt lat="43.0559" lon="1.26825">
        <ele>672.4</ele>
        <time>2024-06-23T11:34:48Z</time>
      </trkpt>
      <trkpt lat="43.05589" lon="1.26832">
        <ele>672.4</ele>
        <time>2024-06-23T11:34:49Z</time>
      </trkpt>
      <trkpt lat="43.05589" lon="1.2684">
        <ele>672.4</ele>
        <time>2024-06-23T11:34:50Z</time>
      </trkpt>
      <trkpt lat="43.05588" lon="1.26846">
        <ele>672.4</ele>
        <time>2024-06-23T11:34:51Z</time>
      </trkpt>
      <trkpt lat="43.05588" lon="1.26851">
        <ele>672.4</ele>
        <time>2024-06-23T11:34:52Z</time>
      </trkpt>
      <trkpt lat="43.05587" lon="1.26855">
        <ele>672.4</ele>
        <time>2024-06-23T11:34:53Z</time>
      </trkpt>
      <trkpt lat="43.05587" lon="1.2686">
        <ele>672</ele>
        <time>2024-06-23T11:34:54Z</time>
      </trkpt>
      <trkpt lat="43.05586" lon="1.26864">
        <ele>672</ele>
        <time>2024-06-23T11:34:55Z</time>
      </trkpt>
      <trkpt lat="43.05584" lon="1.2687">
        <ele>672.2</ele>
        <time>2024-06-23T11:34:56Z</time>
      </trkpt>
      <trkpt lat="43.05582" lon="1.26877">
        <ele>672.2</ele>
        <time>2024-06-23T11:34:57Z</time>
      </trkpt>
      <trkpt lat="43.0558" lon="1.26882">
        <ele>671.8</ele>
        <time>2024-06-23T11:34:58Z</time>
      </trkpt>
      <trkpt lat="43.05578" lon="1.26888">
        <ele>671.8</ele>
        <time>2024-06-23T11:34:59Z</time>
      </trkpt>
      <trkpt lat="43.05575" lon="1.26893">
        <ele>671.4</ele>
        <time>2024-06-23T11:35:00Z</time>
      </trkpt>
      <trkpt lat="43.05572" lon="1.26897">
        <ele>671.2</ele>
        <time>2024-06-23T11:35:01Z</time>
      </trkpt>
      <trkpt lat="43.05569" lon="1.26901">
        <ele>670.8</ele>
        <time>2024-06-23T11:35:02Z</time>
      </trkpt>
      <trkpt lat="43.05569" lon="1.26901">
        <ele>670.6</ele>
        <time>2024-06-23T11:35:03Z</time>
      </trkpt>
      <trkpt lat="43.05565" lon="1.26904">
        <ele>670.4</ele>
        <time>2024-06-23T11:35:04Z</time>
      </trkpt>
      <trkpt lat="43.0556" lon="1.26908">
        <ele>670.4</ele>
        <time>2024-06-23T11:35:05Z</time>
      </trkpt>
      <trkpt lat="43.05555" lon="1.26912">
        <ele>670</ele>
        <time>2024-06-23T11:35:06Z</time>
      </trkpt>
      <trkpt lat="43.0555" lon="1.26917">
        <ele>669.8</ele>
        <time>2024-06-23T11:35:07Z</time>
      </trkpt>
      <trkpt lat="43.05545" lon="1.26921">
        <ele>669.8</ele>
        <time>2024-06-23T11:35:08Z</time>
      </trkpt>
      <trkpt lat="43.0554" lon="1.26926">
        <ele>669</ele>
        <time>2024-06-23T11:35:09Z</time>
      </trkpt>
      <trkpt lat="43.05534" lon="1.26931">
        <ele>669</ele>
        <time>2024-06-23T11:35:10Z</time>
      </trkpt>
      <trkpt lat="43.05529" lon="1.26936">
        <ele>668.6</ele>
        <time>2024-06-23T11:35:11Z</time>
      </trkpt>
      <trkpt lat="43.05523" lon="1.2694">
        <ele>668.2</ele>
        <time>2024-06-23T11:35:12Z</time>
      </trkpt>
      <trkpt lat="43.05517" lon="1.26944">
        <ele>667.8</ele>
        <time>2024-06-23T11:35:13Z</time>
      </trkpt>
      <trkpt lat="43.05511" lon="1.26948">
        <ele>667.2</ele>
        <time>2024-06-23T11:35:14Z</time>
      </trkpt>
      <trkpt lat="43.05504" lon="1.26952">
        <ele>667</ele>
        <time>2024-06-23T11:35:15Z</time>
      </trkpt>
      <trkpt lat="43.05498" lon="1.26955">
        <ele>666.4</ele>
        <time>2024-06-23T11:35:16Z</time>
      </trkpt>
      <trkpt lat="43.05491" lon="1.26959">
        <ele>666.4</ele>
        <time>2024-06-23T11:35:17Z</time>
      </trkpt>
      <trkpt lat="43.05484" lon="1.26962">
        <ele>666</ele>
        <time>2024-06-23T11:35:18Z</time>
      </trkpt>
      <trkpt lat="43.05477" lon="1.26966">
        <ele>665.4</ele>
        <time>2024-06-23T11:35:19Z</time>
      </trkpt>
      <trkpt lat="43.05469" lon="1.2697">
        <ele>665.2</ele>
        <time>2024-06-23T11:35:20Z</time>
      </trkpt>
      <trkpt lat="43.05462" lon="1.26975">
        <ele>664.6</ele>
        <time>2024-06-23T11:35:21Z</time>
      </trkpt>
      <trkpt lat="43.05455" lon="1.26978">
        <ele>664.6</ele>
        <time>2024-06-23T11:35:22Z</time>
      </trkpt>
      <trkpt lat="43.05448" lon="1.26981">
        <ele>664</ele>
        <time>2024-06-23T11:35:23Z</time>
      </trkpt>
      <trkpt lat="43.0544" lon="1.26985">
        <ele>663.6</ele>
        <time>2024-06-23T11:35:24Z</time>
      </trkpt>
      <trkpt lat="43.05431" lon="1.26987">
        <ele>662.8</ele>
        <time>2024-06-23T11:35:25Z</time>
      </trkpt>
      <trkpt lat="43.05422" lon="1.26989">
        <ele>662.2</ele>
        <time>2024-06-23T11:35:26Z</time>
      </trkpt>
      <trkpt lat="43.05413" lon="1.26988">
        <ele>661.4</ele>
        <time>2024-06-23T11:35:27Z</time>
      </trkpt>
      <trkpt lat="43.05404" lon="1.26987">
        <ele>660.8</ele>
        <time>2024-06-23T11:35:28Z</time>
      </trkpt>
      <trkpt lat="43.05394" lon="1.26985">
        <ele>660</ele>
        <time>2024-06-23T11:35:29Z</time>
      </trkpt>
      <trkpt lat="43.05385" lon="1.26983">
        <ele>659.4</ele>
        <time>2024-06-23T11:35:30Z</time>
      </trkpt>
      <trkpt lat="43.05374" lon="1.26982">
        <ele>658.4</ele>
        <time>2024-06-23T11:35:31Z</time>
      </trkpt>
      <trkpt lat="43.05365" lon="1.26979">
        <ele>657.8</ele>
        <time>2024-06-23T11:35:32Z</time>
      </trkpt>
      <trkpt lat="43.05355" lon="1.26975">
        <ele>656.4</ele>
        <time>2024-06-23T11:35:33Z</time>
      </trkpt>
      <trkpt lat="43.05346" lon="1.26969">
        <ele>655.4</ele>
        <time>2024-06-23T11:35:34Z</time>
      </trkpt>
      <trkpt lat="43.05338" lon="1.26962">
        <ele>655</ele>
        <time>2024-06-23T11:35:35Z</time>
      </trkpt>
      <trkpt lat="43.05332" lon="1.26952">
        <ele>654.4</ele>
        <time>2024-06-23T11:35:36Z</time>
      </trkpt>
      <trkpt lat="43.05326" lon="1.26942">
        <ele>653.8</ele>
        <time>2024-06-23T11:35:37Z</time>
      </trkpt>
      <trkpt lat="43.05321" lon="1.2693">
        <ele>652.8</ele>
        <time>2024-06-23T11:35:38Z</time>
      </trkpt>
      <trkpt lat="43.05317" lon="1.26918">
        <ele>652.2</ele>
        <time>2024-06-23T11:35:39Z</time>
      </trkpt>
      <trkpt lat="43.05314" lon="1.26905">
        <ele>651.6</ele>
        <time>2024-06-23T11:35:40Z</time>
      </trkpt>
      <trkpt lat="43.05313" lon="1.26892">
        <ele>652</ele>
        <time>2024-06-23T11:35:41Z</time>
      </trkpt>
      <trkpt lat="43.05311" lon="1.26879">
        <ele>650.8</ele>
        <time>2024-06-23T11:35:42Z</time>
      </trkpt>
      <trkpt lat="43.05311" lon="1.26865">
        <ele>649.8</ele>
        <time>2024-06-23T11:35:43Z</time>
      </trkpt>
      <trkpt lat="43.05312" lon="1.26852">
        <ele>649</ele>
        <time>2024-06-23T11:35:44Z</time>
      </trkpt>
      <trkpt lat="43.05311" lon="1.26838">
        <ele>648.2</ele>
        <time>2024-06-23T11:35:45Z</time>
      </trkpt>
      <trkpt lat="43.05311" lon="1.26824">
        <ele>647.6</ele>
        <time>2024-06-23T11:35:46Z</time>
      </trkpt>
      <trkpt lat="43.05311" lon="1.2681">
        <ele>646.6</ele>
        <time>2024-06-23T11:35:47Z</time>
      </trkpt>
      <trkpt lat="43.05311" lon="1.26796">
        <ele>645.2</ele>
        <time>2024-06-23T11:35:48Z</time>
      </trkpt>
      <trkpt lat="43.05311" lon="1.26782">
        <ele>644.6</ele>
        <time>2024-06-23T11:35:49Z</time>
      </trkpt>
      <trkpt lat="43.0531" lon="1.26768">
        <ele>643.6</ele>
        <time>2024-06-23T11:35:50Z</time>
      </trkpt>
      <trkpt lat="43.05311" lon="1.26754">
        <ele>643</ele>
        <time>2024-06-23T11:35:51Z</time>
      </trkpt>
      <trkpt lat="43.0531" lon="1.26739">
        <ele>642.8</ele>
        <time>2024-06-23T11:35:52Z</time>
      </trkpt>
      <trkpt lat="43.05311" lon="1.26725">
        <ele>641</ele>
        <time>2024-06-23T11:35:53Z</time>
      </trkpt>
      <trkpt lat="43.0531" lon="1.26711">
        <ele>640.8</ele>
        <time>2024-06-23T11:35:54Z</time>
      </trkpt>
      <trkpt lat="43.0531" lon="1.26697">
        <ele>640.4</ele>
        <time>2024-06-23T11:35:55Z</time>
      </trkpt>
      <trkpt lat="43.0531" lon="1.26683">
        <ele>640</ele>
        <time>2024-06-23T11:35:56Z</time>
      </trkpt>
      <trkpt lat="43.0531" lon="1.26669">
        <ele>639</ele>
        <time>2024-06-23T11:35:57Z</time>
      </trkpt>
      <trkpt lat="43.0531" lon="1.26655">
        <ele>638.2</ele>
        <time>2024-06-23T11:35:58Z</time>
      </trkpt>
      <trkpt lat="43.0531" lon="1.26641">
        <ele>638.2</ele>
        <time>2024-06-23T11:35:59Z</time>
      </trkpt>
      <trkpt lat="43.0531" lon="1.26627">
        <ele>637.8</ele>
        <time>2024-06-23T11:36:00Z</time>
      </trkpt>
      <trkpt lat="43.05309" lon="1.26614">
        <ele>637</ele>
        <time>2024-06-23T11:36:01Z</time>
      </trkpt>
      <trkpt lat="43.05308" lon="1.266">
        <ele>636</ele>
        <time>2024-06-23T11:36:02Z</time>
      </trkpt>
      <trkpt lat="43.05304" lon="1.26587">
        <ele>635.2</ele>
        <time>2024-06-23T11:36:03Z</time>
      </trkpt>
      <trkpt lat="43.05299" lon="1.26576">
        <ele>633.6</ele>
        <time>2024-06-23T11:36:04Z</time>
      </trkpt>
      <trkpt lat="43.05292" lon="1.26566">
        <ele>633</ele>
        <time>2024-06-23T11:36:05Z</time>
      </trkpt>
      <trkpt lat="43.05283" lon="1.26559">
        <ele>632</ele>
        <time>2024-06-23T11:36:06Z</time>
      </trkpt>
      <trkpt lat="43.05274" lon="1.26554">
        <ele>631.4</ele>
        <time>2024-06-23T11:36:07Z</time>
      </trkpt>
      <trkpt lat="43.05265" lon="1.26549">
        <ele>629.8</ele>
        <time>2024-06-23T11:36:08Z</time>
      </trkpt>
      <trkpt lat="43.05256" lon="1.26544">
        <ele>628.8</ele>
        <time>2024-06-23T11:36:09Z</time>
      </trkpt>
      <trkpt lat="43.05247" lon="1.2654">
        <ele>628.4</ele>
        <time>2024-06-23T11:36:10Z</time>
      </trkpt>
      <trkpt lat="43.05237" lon="1.26536">
        <ele>627.6</ele>
        <time>2024-06-23T11:36:11Z</time>
      </trkpt>
      <trkpt lat="43.05227" lon="1.26533">
        <ele>626.8</ele>
        <time>2024-06-23T11:36:12Z</time>
      </trkpt>
      <trkpt lat="43.05217" lon="1.2653">
        <ele>626.4</ele>
        <time>2024-06-23T11:36:13Z</time>
      </trkpt>
      <trkpt lat="43.05207" lon="1.26528">
        <ele>625.6</ele>
        <time>2024-06-23T11:36:14Z</time>
      </trkpt>
      <trkpt lat="43.05197" lon="1.26525">
        <ele>624.8</ele>
        <time>2024-06-23T11:36:15Z</time>
      </trkpt>
      <trkpt lat="43.05186" lon="1.26522">
        <ele>624.4</ele>
        <time>2024-06-23T11:36:16Z</time>
      </trkpt>
      <trkpt lat="43.05176" lon="1.26519">
        <ele>624.2</ele>
        <time>2024-06-23T11:36:17Z</time>
      </trkpt>
      <trkpt lat="43.05166" lon="1.26513">
        <ele>623.8</ele>
        <time>2024-06-23T11:36:18Z</time>
      </trkpt>
      <trkpt lat="43.05157" lon="1.26505">
        <ele>623.4</ele>
        <time>2024-06-23T11:36:19Z</time>
      </trkpt>
      <trkpt lat="43.05148" lon="1.26498">
        <ele>623</ele>
        <time>2024-06-23T11:36:20Z</time>
      </trkpt>
      <trkpt lat="43.0514" lon="1.2649">
        <ele>622.6</ele>
        <time>2024-06-23T11:36:21Z</time>
      </trkpt>
      <trkpt lat="43.05133" lon="1.26483">
        <ele>622</ele>
        <time>2024-06-23T11:36:22Z</time>
      </trkpt>
      <trkpt lat="43.05125" lon="1.26476">
        <ele>621.4</ele>
        <time>2024-06-23T11:36:23Z</time>
      </trkpt>
      <trkpt lat="43.05118" lon="1.26469">
        <ele>621.4</ele>
        <time>2024-06-23T11:36:24Z</time>
      </trkpt>
      <trkpt lat="43.05111" lon="1.26462">
        <ele>621.2</ele>
        <time>2024-06-23T11:36:25Z</time>
      </trkpt>
      <trkpt lat="43.05105" lon="1.26456">
        <ele>621.4</ele>
        <time>2024-06-23T11:36:26Z</time>
      </trkpt>
      <trkpt lat="43.05099" lon="1.26448">
        <ele>621.2</ele>
        <time>2024-06-23T11:36:27Z</time>
      </trkpt>
      <trkpt lat="43.05093" lon="1.26441">
        <ele>621.2</ele>
        <time>2024-06-23T11:36:28Z</time>
      </trkpt>
      <trkpt lat="43.05088" lon="1.26434">
        <ele>621.2</ele>
        <time>2024-06-23T11:36:29Z</time>
      </trkpt>
      <trkpt lat="43.05083" lon="1.26426">
        <ele>621.2</ele>
        <time>2024-06-23T11:36:30Z</time>
      </trkpt>
      <trkpt lat="43.0508" lon="1.2642">
        <ele>621.2</ele>
        <time>2024-06-23T11:36:31Z</time>
      </trkpt>
      <trkpt lat="43.05075" lon="1.26413">
        <ele>621.2</ele>
        <time>2024-06-23T11:36:32Z</time>
      </trkpt>
      <trkpt lat="43.05072" lon="1.26406">
        <ele>621.8</ele>
        <time>2024-06-23T11:36:33Z</time>
      </trkpt>
      <trkpt lat="43.05069" lon="1.264">
        <ele>622</ele>
        <time>2024-06-23T11:36:34Z</time>
      </trkpt>
      <trkpt lat="43.05066" lon="1.26393">
        <ele>622.6</ele>
        <time>2024-06-23T11:36:35Z</time>
      </trkpt>
      <trkpt lat="43.05065" lon="1.26387">
        <ele>622.8</ele>
        <time>2024-06-23T11:36:36Z</time>
      </trkpt>
      <trkpt lat="43.05064" lon="1.26381">
        <ele>623</ele>
        <time>2024-06-23T11:36:37Z</time>
      </trkpt>
      <trkpt lat="43.05063" lon="1.26375">
        <ele>623.4</ele>
        <time>2024-06-23T11:36:38Z</time>
      </trkpt>
      <trkpt lat="43.05062" lon="1.26368">
        <ele>623.4</ele>
        <time>2024-06-23T11:36:39Z</time>
      </trkpt>
      <trkpt lat="43.05063" lon="1.26355">
        <ele>624</ele>
        <time>2024-06-23T11:36:40Z</time>
      </trkpt>
      <trkpt lat="43.05063" lon="1.2635">
        <ele>624.4</ele>
        <time>2024-06-23T11:36:41Z</time>
      </trkpt>
      <trkpt lat="43.05065" lon="1.26344">
        <ele>624.8</ele>
        <time>2024-06-23T11:36:42Z</time>
      </trkpt>
      <trkpt lat="43.05067" lon="1.26339">
        <ele>624.8</ele>
        <time>2024-06-23T11:36:43Z</time>
      </trkpt>
      <trkpt lat="43.05069" lon="1.26333">
        <ele>625.4</ele>
        <time>2024-06-23T11:36:44Z</time>
      </trkpt>
      <trkpt lat="43.05071" lon="1.26328">
        <ele>625.4</ele>
        <time>2024-06-23T11:36:45Z</time>
      </trkpt>
      <trkpt lat="43.05074" lon="1.26322">
        <ele>625.8</ele>
        <time>2024-06-23T11:36:46Z</time>
      </trkpt>
      <trkpt lat="43.05076" lon="1.26316">
        <ele>626.2</ele>
        <time>2024-06-23T11:36:47Z</time>
      </trkpt>
      <trkpt lat="43.05078" lon="1.2631">
        <ele>626.6</ele>
        <time>2024-06-23T11:36:48Z</time>
      </trkpt>
      <trkpt lat="43.05079" lon="1.26305">
        <ele>626.6</ele>
        <time>2024-06-23T11:36:49Z</time>
      </trkpt>
      <trkpt lat="43.0508" lon="1.263">
        <ele>626.6</ele>
        <time>2024-06-23T11:36:50Z</time>
      </trkpt>
      <trkpt lat="43.05081" lon="1.26294">
        <ele>627.2</ele>
        <time>2024-06-23T11:36:51Z</time>
      </trkpt>
      <trkpt lat="43.05082" lon="1.26289">
        <ele>627.4</ele>
        <time>2024-06-23T11:36:52Z</time>
      </trkpt>
      <trkpt lat="43.05083" lon="1.26283">
        <ele>627.4</ele>
        <time>2024-06-23T11:36:53Z</time>
      </trkpt>
      <trkpt lat="43.05083" lon="1.26278">
        <ele>628</ele>
        <time>2024-06-23T11:36:54Z</time>
      </trkpt>
      <trkpt lat="43.05083" lon="1.26272">
        <ele>628.4</ele>
        <time>2024-06-23T11:36:55Z</time>
      </trkpt>
      <trkpt lat="43.05083" lon="1.26267">
        <ele>628.6</ele>
        <time>2024-06-23T11:36:56Z</time>
      </trkpt>
      <trkpt lat="43.05083" lon="1.26263">
        <ele>629</ele>
        <time>2024-06-23T11:36:57Z</time>
      </trkpt>
      <trkpt lat="43.05082" lon="1.26259">
        <ele>629</ele>
        <time>2024-06-23T11:36:58Z</time>
      </trkpt>
      <trkpt lat="43.05081" lon="1.26252">
        <ele>629.2</ele>
        <time>2024-06-23T11:36:59Z</time>
      </trkpt>
      <trkpt lat="43.05081" lon="1.26247">
        <ele>629.6</ele>
        <time>2024-06-23T11:37:00Z</time>
      </trkpt>
      <trkpt lat="43.05081" lon="1.26242">
        <ele>629.8</ele>
        <time>2024-06-23T11:37:01Z</time>
      </trkpt>
      <trkpt lat="43.05081" lon="1.26237">
        <ele>629.8</ele>
        <time>2024-06-23T11:37:02Z</time>
      </trkpt>
      <trkpt lat="43.05082" lon="1.26231">
        <ele>630</ele>
        <time>2024-06-23T11:37:03Z</time>
      </trkpt>
      <trkpt lat="43.05082" lon="1.26226">
        <ele>630.4</ele>
        <time>2024-06-23T11:37:04Z</time>
      </trkpt>
      <trkpt lat="43.05082" lon="1.26221">
        <ele>630.8</ele>
        <time>2024-06-23T11:37:05Z</time>
      </trkpt>
      <trkpt lat="43.05082" lon="1.26216">
        <ele>630.8</ele>
        <time>2024-06-23T11:37:06Z</time>
      </trkpt>
      <trkpt lat="43.05083" lon="1.26211">
        <ele>631</ele>
        <time>2024-06-23T11:37:07Z</time>
      </trkpt>
      <trkpt lat="43.05083" lon="1.26206">
        <ele>631.2</ele>
        <time>2024-06-23T11:37:08Z</time>
      </trkpt>
      <trkpt lat="43.05084" lon="1.26202">
        <ele>631.4</ele>
        <time>2024-06-23T11:37:09Z</time>
      </trkpt>
      <trkpt lat="43.05085" lon="1.26197">
        <ele>631.8</ele>
        <time>2024-06-23T11:37:10Z</time>
      </trkpt>
      <trkpt lat="43.05086" lon="1.26193">
        <ele>631.8</ele>
        <time>2024-06-23T11:37:11Z</time>
      </trkpt>
      <trkpt lat="43.05087" lon="1.26189">
        <ele>632</ele>
        <time>2024-06-23T11:37:12Z</time>
      </trkpt>
      <trkpt lat="43.05088" lon="1.26185">
        <ele>632.4</ele>
        <time>2024-06-23T11:37:13Z</time>
      </trkpt>
      <trkpt lat="43.0509" lon="1.26182">
        <ele>632.4</ele>
        <time>2024-06-23T11:37:14Z</time>
      </trkpt>
      <trkpt lat="43.05091" lon="1.26178">
        <ele>632.8</ele>
        <time>2024-06-23T11:37:15Z</time>
      </trkpt>
      <trkpt lat="43.05093" lon="1.26175">
        <ele>633.2</ele>
        <time>2024-06-23T11:37:16Z</time>
      </trkpt>
      <trkpt lat="43.05094" lon="1.26172">
        <ele>633.2</ele>
        <time>2024-06-23T11:37:17Z</time>
      </trkpt>
      <trkpt lat="43.05096" lon="1.26168">
        <ele>633.6</ele>
        <time>2024-06-23T11:37:18Z</time>
      </trkpt>
      <trkpt lat="43.05097" lon="1.26165">
        <ele>633.6</ele>
        <time>2024-06-23T11:37:19Z</time>
      </trkpt>
      <trkpt lat="43.05099" lon="1.26161">
        <ele>633.8</ele>
        <time>2024-06-23T11:37:20Z</time>
      </trkpt>
      <trkpt lat="43.05101" lon="1.26158">
        <ele>633.8</ele>
        <time>2024-06-23T11:37:21Z</time>
      </trkpt>
      <trkpt lat="43.05102" lon="1.26155">
        <ele>634.2</ele>
        <time>2024-06-23T11:37:22Z</time>
      </trkpt>
      <trkpt lat="43.05103" lon="1.26152">
        <ele>634.4</ele>
        <time>2024-06-23T11:37:23Z</time>
      </trkpt>
      <trkpt lat="43.05105" lon="1.26149">
        <ele>634.4</ele>
        <time>2024-06-23T11:37:24Z</time>
      </trkpt>
      <trkpt lat="43.05106" lon="1.26145">
        <ele>634.6</ele>
        <time>2024-06-23T11:37:25Z</time>
      </trkpt>
      <trkpt lat="43.05108" lon="1.26143">
        <ele>635</ele>
        <time>2024-06-23T11:37:26Z</time>
      </trkpt>
      <trkpt lat="43.05109" lon="1.26139">
        <ele>635</ele>
        <time>2024-06-23T11:37:27Z</time>
      </trkpt>
      <trkpt lat="43.05111" lon="1.26135">
        <ele>635.6</ele>
        <time>2024-06-23T11:37:28Z</time>
      </trkpt>
      <trkpt lat="43.05113" lon="1.26131">
        <ele>635.6</ele>
        <time>2024-06-23T11:37:29Z</time>
      </trkpt>
      <trkpt lat="43.05114" lon="1.26126">
        <ele>635.6</ele>
        <time>2024-06-23T11:37:30Z</time>
      </trkpt>
      <trkpt lat="43.05116" lon="1.26122">
        <ele>636</ele>
        <time>2024-06-23T11:37:31Z</time>
      </trkpt>
      <trkpt lat="43.05117" lon="1.26118">
        <ele>636</ele>
        <time>2024-06-23T11:37:32Z</time>
      </trkpt>
      <trkpt lat="43.05118" lon="1.26114">
        <ele>636.2</ele>
        <time>2024-06-23T11:37:33Z</time>
      </trkpt>
      <trkpt lat="43.05119" lon="1.26109">
        <ele>636.2</ele>
        <time>2024-06-23T11:37:34Z</time>
      </trkpt>
      <trkpt lat="43.0512" lon="1.26105">
        <ele>636.2</ele>
        <time>2024-06-23T11:37:35Z</time>
      </trkpt>
      <trkpt lat="43.0512" lon="1.261">
        <ele>636.2</ele>
        <time>2024-06-23T11:37:36Z</time>
      </trkpt>
      <trkpt lat="43.05121" lon="1.26096">
        <ele>636.6</ele>
        <time>2024-06-23T11:37:37Z</time>
      </trkpt>
      <trkpt lat="43.05121" lon="1.26092">
        <ele>636.6</ele>
        <time>2024-06-23T11:37:38Z</time>
      </trkpt>
      <trkpt lat="43.05122" lon="1.26088">
        <ele>636.8</ele>
        <time>2024-06-23T11:37:39Z</time>
      </trkpt>
      <trkpt lat="43.05122" lon="1.26083">
        <ele>636.8</ele>
        <time>2024-06-23T11:37:40Z</time>
      </trkpt>
      <trkpt lat="43.05122" lon="1.26079">
        <ele>637.2</ele>
        <time>2024-06-23T11:37:41Z</time>
      </trkpt>
      <trkpt lat="43.05122" lon="1.26075">
        <ele>637.2</ele>
        <time>2024-06-23T11:37:42Z</time>
      </trkpt>
      <trkpt lat="43.05122" lon="1.2607">
        <ele>637.2</ele>
        <time>2024-06-23T11:37:43Z</time>
      </trkpt>
      <trkpt lat="43.05121" lon="1.26065">
        <ele>637.4</ele>
        <time>2024-06-23T11:37:44Z</time>
      </trkpt>
      <trkpt lat="43.05121" lon="1.26059">
        <ele>637.4</ele>
        <time>2024-06-23T11:37:45Z</time>
      </trkpt>
      <trkpt lat="43.05119" lon="1.26053">
        <ele>637.4</ele>
        <time>2024-06-23T11:37:46Z</time>
      </trkpt>
      <trkpt lat="43.05118" lon="1.26046">
        <ele>637.4</ele>
        <time>2024-06-23T11:37:47Z</time>
      </trkpt>
      <trkpt lat="43.05117" lon="1.2604">
        <ele>637.4</ele>
        <time>2024-06-23T11:37:48Z</time>
      </trkpt>
      <trkpt lat="43.05116" lon="1.26032">
        <ele>637.2</ele>
        <time>2024-06-23T11:37:49Z</time>
      </trkpt>
      <trkpt lat="43.05115" lon="1.26024">
        <ele>637</ele>
        <time>2024-06-23T11:37:50Z</time>
      </trkpt>
      <trkpt lat="43.05114" lon="1.26016">
        <ele>636.4</ele>
        <time>2024-06-23T11:37:51Z</time>
      </trkpt>
      <trkpt lat="43.05112" lon="1.26006">
        <ele>635.8</ele>
        <time>2024-06-23T11:37:52Z</time>
      </trkpt>
      <trkpt lat="43.05111" lon="1.25996">
        <ele>635.2</ele>
        <time>2024-06-23T11:37:53Z</time>
      </trkpt>
      <trkpt lat="43.0511" lon="1.25986">
        <ele>634.8</ele>
        <time>2024-06-23T11:37:54Z</time>
      </trkpt>
      <trkpt lat="43.05109" lon="1.25975">
        <ele>634.6</ele>
        <time>2024-06-23T11:37:55Z</time>
      </trkpt>
      <trkpt lat="43.05108" lon="1.25965">
        <ele>633.8</ele>
        <time>2024-06-23T11:37:56Z</time>
      </trkpt>
      <trkpt lat="43.05106" lon="1.25953">
        <ele>632.8</ele>
        <time>2024-06-23T11:37:57Z</time>
      </trkpt>
      <trkpt lat="43.05104" lon="1.25941">
        <ele>632.4</ele>
        <time>2024-06-23T11:37:58Z</time>
      </trkpt>
      <trkpt lat="43.05103" lon="1.25932">
        <ele>632</ele>
        <time>2024-06-23T11:37:59Z</time>
      </trkpt>
      <trkpt lat="43.05102" lon="1.25924">
        <ele>631.4</ele>
        <time>2024-06-23T11:38:00Z</time>
      </trkpt>
      <trkpt lat="43.051" lon="1.25915">
        <ele>631</ele>
        <time>2024-06-23T11:38:01Z</time>
      </trkpt>
      <trkpt lat="43.05096" lon="1.2589">
        <ele>630</ele>
        <time>2024-06-23T11:38:02Z</time>
      </trkpt>
      <trkpt lat="43.05092" lon="1.25876">
        <ele>629.4</ele>
        <time>2024-06-23T11:38:03Z</time>
      </trkpt>
      <trkpt lat="43.05088" lon="1.25864">
        <ele>628.6</ele>
        <time>2024-06-23T11:38:04Z</time>
      </trkpt>
      <trkpt lat="43.05084" lon="1.2585">
        <ele>628</ele>
        <time>2024-06-23T11:38:05Z</time>
      </trkpt>
      <trkpt lat="43.05081" lon="1.25839">
        <ele>626.6</ele>
        <time>2024-06-23T11:38:06Z</time>
      </trkpt>
      <trkpt lat="43.05078" lon="1.25824">
        <ele>626</ele>
        <time>2024-06-23T11:38:07Z</time>
      </trkpt>
      <trkpt lat="43.05076" lon="1.25807">
        <ele>625.6</ele>
        <time>2024-06-23T11:38:08Z</time>
      </trkpt>
      <trkpt lat="43.05075" lon="1.25792">
        <ele>624.4</ele>
        <time>2024-06-23T11:38:09Z</time>
      </trkpt>
      <trkpt lat="43.05072" lon="1.25777">
        <ele>623.6</ele>
        <time>2024-06-23T11:38:10Z</time>
      </trkpt>
      <trkpt lat="43.05068" lon="1.25766">
        <ele>623.6</ele>
        <time>2024-06-23T11:38:11Z</time>
      </trkpt>
      <trkpt lat="43.05063" lon="1.25754">
        <ele>623</ele>
        <time>2024-06-23T11:38:12Z</time>
      </trkpt>
      <trkpt lat="43.05058" lon="1.25743">
        <ele>622.4</ele>
        <time>2024-06-23T11:38:13Z</time>
      </trkpt>
      <trkpt lat="43.05053" lon="1.25731">
        <ele>622</ele>
        <time>2024-06-23T11:38:14Z</time>
      </trkpt>
      <trkpt lat="43.05047" lon="1.2572">
        <ele>621.2</ele>
        <time>2024-06-23T11:38:15Z</time>
      </trkpt>
      <trkpt lat="43.05042" lon="1.25709">
        <ele>620.6</ele>
        <time>2024-06-23T11:38:16Z</time>
      </trkpt>
      <trkpt lat="43.05036" lon="1.25699">
        <ele>620</ele>
        <time>2024-06-23T11:38:17Z</time>
      </trkpt>
      <trkpt lat="43.0503" lon="1.25689">
        <ele>619.6</ele>
        <time>2024-06-23T11:38:18Z</time>
      </trkpt>
      <trkpt lat="43.05026" lon="1.25678">
        <ele>619.2</ele>
        <time>2024-06-23T11:38:19Z</time>
      </trkpt>
      <trkpt lat="43.05021" lon="1.25667">
        <ele>618.6</ele>
        <time>2024-06-23T11:38:20Z</time>
      </trkpt>
      <trkpt lat="43.05017" lon="1.25656">
        <ele>618.2</ele>
        <time>2024-06-23T11:38:21Z</time>
      </trkpt>
      <trkpt lat="43.05014" lon="1.25644">
        <ele>617.8</ele>
        <time>2024-06-23T11:38:22Z</time>
      </trkpt>
      <trkpt lat="43.05011" lon="1.25633">
        <ele>617.4</ele>
        <time>2024-06-23T11:38:23Z</time>
      </trkpt>
      <trkpt lat="43.05008" lon="1.25621">
        <ele>617.4</ele>
        <time>2024-06-23T11:38:24Z</time>
      </trkpt>
      <trkpt lat="43.05006" lon="1.25609">
        <ele>616.8</ele>
        <time>2024-06-23T11:38:25Z</time>
      </trkpt>
      <trkpt lat="43.05002" lon="1.25598">
        <ele>616</ele>
        <time>2024-06-23T11:38:26Z</time>
      </trkpt>
      <trkpt lat="43.04998" lon="1.25586">
        <ele>615.2</ele>
        <time>2024-06-23T11:38:27Z</time>
      </trkpt>
      <trkpt lat="43.04993" lon="1.25575">
        <ele>614.2</ele>
        <time>2024-06-23T11:38:28Z</time>
      </trkpt>
      <trkpt lat="43.04987" lon="1.25564">
        <ele>613.6</ele>
        <time>2024-06-23T11:38:29Z</time>
      </trkpt>
      <trkpt lat="43.0498" lon="1.25555">
        <ele>613.2</ele>
        <time>2024-06-23T11:38:30Z</time>
      </trkpt>
      <trkpt lat="43.04972" lon="1.25547">
        <ele>612.4</ele>
        <time>2024-06-23T11:38:31Z</time>
      </trkpt>
      <trkpt lat="43.04963" lon="1.2554">
        <ele>611.6</ele>
        <time>2024-06-23T11:38:32Z</time>
      </trkpt>
      <trkpt lat="43.04955" lon="1.25533">
        <ele>611.2</ele>
        <time>2024-06-23T11:38:33Z</time>
      </trkpt>
      <trkpt lat="43.04946" lon="1.25527">
        <ele>610.4</ele>
        <time>2024-06-23T11:38:34Z</time>
      </trkpt>
      <trkpt lat="43.04936" lon="1.25523">
        <ele>609.8</ele>
        <time>2024-06-23T11:38:35Z</time>
      </trkpt>
      <trkpt lat="43.04926" lon="1.25523">
        <ele>609.2</ele>
        <time>2024-06-23T11:38:36Z</time>
      </trkpt>
      <trkpt lat="43.04916" lon="1.25525">
        <ele>608.4</ele>
        <time>2024-06-23T11:38:37Z</time>
      </trkpt>
      <trkpt lat="43.04906" lon="1.25526">
        <ele>608</ele>
        <time>2024-06-23T11:38:38Z</time>
      </trkpt>
      <trkpt lat="43.04897" lon="1.25526">
        <ele>607.2</ele>
        <time>2024-06-23T11:38:39Z</time>
      </trkpt>
      <trkpt lat="43.04888" lon="1.25524">
        <ele>606.8</ele>
        <time>2024-06-23T11:38:40Z</time>
      </trkpt>
      <trkpt lat="43.04883" lon="1.25513">
        <ele>606</ele>
        <time>2024-06-23T11:38:41Z</time>
      </trkpt>
      <trkpt lat="43.04879" lon="1.25502">
        <ele>605.4</ele>
        <time>2024-06-23T11:38:42Z</time>
      </trkpt>
      <trkpt lat="43.04876" lon="1.25491">
        <ele>604.8</ele>
        <time>2024-06-23T11:38:43Z</time>
      </trkpt>
      <trkpt lat="43.04874" lon="1.2548">
        <ele>604</ele>
        <time>2024-06-23T11:38:44Z</time>
      </trkpt>
      <trkpt lat="43.04873" lon="1.25467">
        <ele>603.2</ele>
        <time>2024-06-23T11:38:45Z</time>
      </trkpt>
      <trkpt lat="43.04871" lon="1.25455">
        <ele>602.6</ele>
        <time>2024-06-23T11:38:46Z</time>
      </trkpt>
      <trkpt lat="43.04867" lon="1.25443">
        <ele>602.4</ele>
        <time>2024-06-23T11:38:47Z</time>
      </trkpt>
      <trkpt lat="43.04862" lon="1.25432">
        <ele>601.6</ele>
        <time>2024-06-23T11:38:48Z</time>
      </trkpt>
      <trkpt lat="43.04857" lon="1.25421">
        <ele>600.8</ele>
        <time>2024-06-23T11:38:49Z</time>
      </trkpt>
      <trkpt lat="43.0485" lon="1.25411">
        <ele>600.2</ele>
        <time>2024-06-23T11:38:50Z</time>
      </trkpt>
      <trkpt lat="43.04844" lon="1.25401">
        <ele>599.8</ele>
        <time>2024-06-23T11:38:51Z</time>
      </trkpt>
      <trkpt lat="43.04836" lon="1.25392">
        <ele>599</ele>
        <time>2024-06-23T11:38:52Z</time>
      </trkpt>
      <trkpt lat="43.04829" lon="1.25383">
        <ele>598.6</ele>
        <time>2024-06-23T11:38:53Z</time>
      </trkpt>
      <trkpt lat="43.04821" lon="1.25374">
        <ele>597.8</ele>
        <time>2024-06-23T11:38:54Z</time>
      </trkpt>
      <trkpt lat="43.04814" lon="1.25365">
        <ele>597.6</ele>
        <time>2024-06-23T11:38:55Z</time>
      </trkpt>
      <trkpt lat="43.04807" lon="1.25357">
        <ele>597</ele>
        <time>2024-06-23T11:38:56Z</time>
      </trkpt>
      <trkpt lat="43.04799" lon="1.25348">
        <ele>596.2</ele>
        <time>2024-06-23T11:38:57Z</time>
      </trkpt>
      <trkpt lat="43.04792" lon="1.2534">
        <ele>595.6</ele>
        <time>2024-06-23T11:38:58Z</time>
      </trkpt>
      <trkpt lat="43.04784" lon="1.25331">
        <ele>595</ele>
        <time>2024-06-23T11:38:59Z</time>
      </trkpt>
      <trkpt lat="43.04778" lon="1.25325">
        <ele>594.4</ele>
        <time>2024-06-23T11:39:00Z</time>
      </trkpt>
      <trkpt lat="43.04773" lon="1.25319">
        <ele>594</ele>
        <time>2024-06-23T11:39:01Z</time>
      </trkpt>
      <trkpt lat="43.04769" lon="1.25313">
        <ele>593.8</ele>
        <time>2024-06-23T11:39:02Z</time>
      </trkpt>
      <trkpt lat="43.04767" lon="1.25307">
        <ele>593.4</ele>
        <time>2024-06-23T11:39:03Z</time>
      </trkpt>
      <trkpt lat="43.04767" lon="1.25301">
        <ele>593.4</ele>
        <time>2024-06-23T11:39:04Z</time>
      </trkpt>
      <trkpt lat="43.04768" lon="1.25296">
        <ele>593.2</ele>
        <time>2024-06-23T11:39:05Z</time>
      </trkpt>
      <trkpt lat="43.0477" lon="1.25292">
        <ele>593.2</ele>
        <time>2024-06-23T11:39:06Z</time>
      </trkpt>
      <trkpt lat="43.04772" lon="1.25287">
        <ele>593.2</ele>
        <time>2024-06-23T11:39:07Z</time>
      </trkpt>
      <trkpt lat="43.04774" lon="1.25282">
        <ele>593.2</ele>
        <time>2024-06-23T11:39:08Z</time>
      </trkpt>
      <trkpt lat="43.04775" lon="1.25277">
        <ele>593.4</ele>
        <time>2024-06-23T11:39:09Z</time>
      </trkpt>
      <trkpt lat="43.04778" lon="1.25272">
        <ele>593.4</ele>
        <time>2024-06-23T11:39:10Z</time>
      </trkpt>
      <trkpt lat="43.0478" lon="1.25268">
        <ele>593.4</ele>
        <time>2024-06-23T11:39:11Z</time>
      </trkpt>
      <trkpt lat="43.04782" lon="1.25263">
        <ele>593.8</ele>
        <time>2024-06-23T11:39:12Z</time>
      </trkpt>
      <trkpt lat="43.04785" lon="1.25258">
        <ele>593.4</ele>
        <time>2024-06-23T11:39:13Z</time>
      </trkpt>
      <trkpt lat="43.04787" lon="1.25253">
        <ele>593.4</ele>
        <time>2024-06-23T11:39:14Z</time>
      </trkpt>
      <trkpt lat="43.04789" lon="1.25248">
        <ele>593.4</ele>
        <time>2024-06-23T11:39:15Z</time>
      </trkpt>
      <trkpt lat="43.04791" lon="1.25243">
        <ele>593.4</ele>
        <time>2024-06-23T11:39:16Z</time>
      </trkpt>
      <trkpt lat="43.04793" lon="1.25237">
        <ele>593.8</ele>
        <time>2024-06-23T11:39:17Z</time>
      </trkpt>
      <trkpt lat="43.04796" lon="1.25233">
        <ele>593.8</ele>
        <time>2024-06-23T11:39:18Z</time>
      </trkpt>
      <trkpt lat="43.04799" lon="1.25228">
        <ele>593.6</ele>
        <time>2024-06-23T11:39:19Z</time>
      </trkpt>
      <trkpt lat="43.04801" lon="1.25223">
        <ele>593.6</ele>
        <time>2024-06-23T11:39:20Z</time>
      </trkpt>
      <trkpt lat="43.04804" lon="1.25218">
        <ele>593.6</ele>
        <time>2024-06-23T11:39:21Z</time>
      </trkpt>
      <trkpt lat="43.04807" lon="1.25212">
        <ele>593.6</ele>
        <time>2024-06-23T11:39:22Z</time>
      </trkpt>
      <trkpt lat="43.0481" lon="1.25206">
        <ele>593.6</ele>
        <time>2024-06-23T11:39:23Z</time>
      </trkpt>
      <trkpt lat="43.04813" lon="1.25201">
        <ele>593.2</ele>
        <time>2024-06-23T11:39:24Z</time>
      </trkpt>
      <trkpt lat="43.04817" lon="1.25195">
        <ele>593.2</ele>
        <time>2024-06-23T11:39:25Z</time>
      </trkpt>
      <trkpt lat="43.0482" lon="1.25189">
        <ele>592.8</ele>
        <time>2024-06-23T11:39:26Z</time>
      </trkpt>
      <trkpt lat="43.04824" lon="1.25182">
        <ele>592.4</ele>
        <time>2024-06-23T11:39:27Z</time>
      </trkpt>
      <trkpt lat="43.04828" lon="1.25176">
        <ele>592.4</ele>
        <time>2024-06-23T11:39:28Z</time>
      </trkpt>
      <trkpt lat="43.04831" lon="1.25169">
        <ele>592.4</ele>
        <time>2024-06-23T11:39:29Z</time>
      </trkpt>
      <trkpt lat="43.04835" lon="1.25163">
        <ele>591.8</ele>
        <time>2024-06-23T11:39:30Z</time>
      </trkpt>
      <trkpt lat="43.04839" lon="1.25156">
        <ele>591.8</ele>
        <time>2024-06-23T11:39:31Z</time>
      </trkpt>
      <trkpt lat="43.04843" lon="1.2515">
        <ele>591.6</ele>
        <time>2024-06-23T11:39:32Z</time>
      </trkpt>
      <trkpt lat="43.04847" lon="1.25143">
        <ele>591.6</ele>
        <time>2024-06-23T11:39:33Z</time>
      </trkpt>
      <trkpt lat="43.04851" lon="1.25136">
        <ele>591.6</ele>
        <time>2024-06-23T11:39:34Z</time>
      </trkpt>
      <trkpt lat="43.04855" lon="1.25129">
        <ele>591.6</ele>
        <time>2024-06-23T11:39:35Z</time>
      </trkpt>
      <trkpt lat="43.04858" lon="1.25122">
        <ele>591.4</ele>
        <time>2024-06-23T11:39:36Z</time>
      </trkpt>
      <trkpt lat="43.04862" lon="1.25116">
        <ele>591.2</ele>
        <time>2024-06-23T11:39:37Z</time>
      </trkpt>
      <trkpt lat="43.04865" lon="1.25109">
        <ele>591.2</ele>
        <time>2024-06-23T11:39:38Z</time>
      </trkpt>
      <trkpt lat="43.04869" lon="1.25103">
        <ele>590.8</ele>
        <time>2024-06-23T11:39:39Z</time>
      </trkpt>
      <trkpt lat="43.04873" lon="1.25096">
        <ele>590.8</ele>
        <time>2024-06-23T11:39:40Z</time>
      </trkpt>
      <trkpt lat="43.04877" lon="1.25089">
        <ele>590.6</ele>
        <time>2024-06-23T11:39:41Z</time>
      </trkpt>
      <trkpt lat="43.04881" lon="1.25083">
        <ele>590.4</ele>
        <time>2024-06-23T11:39:42Z</time>
      </trkpt>
      <trkpt lat="43.04885" lon="1.25077">
        <ele>590</ele>
        <time>2024-06-23T11:39:43Z</time>
      </trkpt>
      <trkpt lat="43.0489" lon="1.25071">
        <ele>589.6</ele>
        <time>2024-06-23T11:39:44Z</time>
      </trkpt>
      <trkpt lat="43.04895" lon="1.25065">
        <ele>589.4</ele>
        <time>2024-06-23T11:39:45Z</time>
      </trkpt>
      <trkpt lat="43.049" lon="1.25058">
        <ele>589.4</ele>
        <time>2024-06-23T11:39:46Z</time>
      </trkpt>
      <trkpt lat="43.04905" lon="1.25052">
        <ele>589.4</ele>
        <time>2024-06-23T11:39:47Z</time>
      </trkpt>
      <trkpt lat="43.04911" lon="1.25046">
        <ele>588.8</ele>
        <time>2024-06-23T11:39:48Z</time>
      </trkpt>
      <trkpt lat="43.04916" lon="1.2504">
        <ele>588.4</ele>
        <time>2024-06-23T11:39:49Z</time>
      </trkpt>
      <trkpt lat="43.04921" lon="1.25035">
        <ele>588.2</ele>
        <time>2024-06-23T11:39:50Z</time>
      </trkpt>
      <trkpt lat="43.04927" lon="1.2503">
        <ele>587.8</ele>
        <time>2024-06-23T11:39:51Z</time>
      </trkpt>
      <trkpt lat="43.04932" lon="1.25025">
        <ele>587.4</ele>
        <time>2024-06-23T11:39:52Z</time>
      </trkpt>
      <trkpt lat="43.04938" lon="1.25021">
        <ele>587.2</ele>
        <time>2024-06-23T11:39:53Z</time>
      </trkpt>
      <trkpt lat="43.04945" lon="1.25017">
        <ele>587</ele>
        <time>2024-06-23T11:39:54Z</time>
      </trkpt>
      <trkpt lat="43.04952" lon="1.25015">
        <ele>586.6</ele>
        <time>2024-06-23T11:39:55Z</time>
      </trkpt>
      <trkpt lat="43.04958" lon="1.25012">
        <ele>586.6</ele>
        <time>2024-06-23T11:39:56Z</time>
      </trkpt>
      <trkpt lat="43.04965" lon="1.25011">
        <ele>586.4</ele>
        <time>2024-06-23T11:39:57Z</time>
      </trkpt>
      <trkpt lat="43.04972" lon="1.25011">
        <ele>586</ele>
        <time>2024-06-23T11:39:58Z</time>
      </trkpt>
      <trkpt lat="43.0498" lon="1.25011">
        <ele>585.6</ele>
        <time>2024-06-23T11:39:59Z</time>
      </trkpt>
      <trkpt lat="43.04987" lon="1.25011">
        <ele>585.6</ele>
        <time>2024-06-23T11:40:00Z</time>
      </trkpt>
      <trkpt lat="43.04994" lon="1.25011">
        <ele>585.6</ele>
        <time>2024-06-23T11:40:01Z</time>
      </trkpt>
      <trkpt lat="43.05" lon="1.2501">
        <ele>585.4</ele>
        <time>2024-06-23T11:40:02Z</time>
      </trkpt>
      <trkpt lat="43.05006" lon="1.25008">
        <ele>585.2</ele>
        <time>2024-06-23T11:40:03Z</time>
      </trkpt>
      <trkpt lat="43.05014" lon="1.25006">
        <ele>584.8</ele>
        <time>2024-06-23T11:40:04Z</time>
      </trkpt>
      <trkpt lat="43.0502" lon="1.25002">
        <ele>584.8</ele>
        <time>2024-06-23T11:40:05Z</time>
      </trkpt>
      <trkpt lat="43.05026" lon="1.24998">
        <ele>584.6</ele>
        <time>2024-06-23T11:40:06Z</time>
      </trkpt>
      <trkpt lat="43.05032" lon="1.24995">
        <ele>584.6</ele>
        <time>2024-06-23T11:40:07Z</time>
      </trkpt>
      <trkpt lat="43.05039" lon="1.24993">
        <ele>584.2</ele>
        <time>2024-06-23T11:40:08Z</time>
      </trkpt>
      <trkpt lat="43.05044" lon="1.24992">
        <ele>584</ele>
        <time>2024-06-23T11:40:09Z</time>
      </trkpt>
      <trkpt lat="43.05051" lon="1.24993">
        <ele>584</ele>
        <time>2024-06-23T11:40:10Z</time>
      </trkpt>
      <trkpt lat="43.05058" lon="1.24999">
        <ele>583.8</ele>
        <time>2024-06-23T11:40:11Z</time>
      </trkpt>
      <trkpt lat="43.05064" lon="1.25003">
        <ele>583.2</ele>
        <time>2024-06-23T11:40:12Z</time>
      </trkpt>
      <trkpt lat="43.0507" lon="1.25011">
        <ele>582.8</ele>
        <time>2024-06-23T11:40:13Z</time>
      </trkpt>
      <trkpt lat="43.05079" lon="1.25016">
        <ele>582.4</ele>
        <time>2024-06-23T11:40:14Z</time>
      </trkpt>
      <trkpt lat="43.05086" lon="1.25015">
        <ele>581.8</ele>
        <time>2024-06-23T11:40:15Z</time>
      </trkpt>
      <trkpt lat="43.05092" lon="1.2501">
        <ele>581.4</ele>
        <time>2024-06-23T11:40:16Z</time>
      </trkpt>
      <trkpt lat="43.05098" lon="1.25003">
        <ele>580.2</ele>
        <time>2024-06-23T11:40:17Z</time>
      </trkpt>
      <trkpt lat="43.05099" lon="1.24993">
        <ele>580.2</ele>
        <time>2024-06-23T11:40:18Z</time>
      </trkpt>
      <trkpt lat="43.05098" lon="1.24985">
        <ele>580.4</ele>
        <time>2024-06-23T11:40:19Z</time>
      </trkpt>
      <trkpt lat="43.05096" lon="1.24978">
        <ele>580.4</ele>
        <time>2024-06-23T11:40:20Z</time>
      </trkpt>
      <trkpt lat="43.05095" lon="1.24974">
        <ele>580.4</ele>
        <time>2024-06-23T11:40:21Z</time>
      </trkpt>
      <trkpt lat="43.05093" lon="1.2497">
        <ele>580.8</ele>
        <time>2024-06-23T11:40:22Z</time>
      </trkpt>
      <trkpt lat="43.0509" lon="1.24967">
        <ele>581.4</ele>
        <time>2024-06-23T11:40:23Z</time>
      </trkpt>
      <trkpt lat="43.05087" lon="1.24966">
        <ele>582</ele>
        <time>2024-06-23T11:40:24Z</time>
      </trkpt>
      <trkpt lat="43.05084" lon="1.24963">
        <ele>582.4</ele>
        <time>2024-06-23T11:40:25Z</time>
      </trkpt>
      <trkpt lat="43.05081" lon="1.24959">
        <ele>582.6</ele>
        <time>2024-06-23T11:40:26Z</time>
      </trkpt>
      <trkpt lat="43.05077" lon="1.24959">
        <ele>583</ele>
        <time>2024-06-23T11:40:27Z</time>
      </trkpt>
      <trkpt lat="43.05073" lon="1.24955">
        <ele>583</ele>
        <time>2024-06-23T11:40:28Z</time>
      </trkpt>
      <trkpt lat="43.05071" lon="1.24953">
        <ele>583.2</ele>
        <time>2024-06-23T11:40:29Z</time>
      </trkpt>
      <trkpt lat="43.05068" lon="1.24951">
        <ele>583.4</ele>
        <time>2024-06-23T11:40:30Z</time>
      </trkpt>
      <trkpt lat="43.05065" lon="1.24949">
        <ele>584</ele>
        <time>2024-06-23T11:40:31Z</time>
      </trkpt>
      <trkpt lat="43.05062" lon="1.24944">
        <ele>584</ele>
        <time>2024-06-23T11:40:32Z</time>
      </trkpt>
      <trkpt lat="43.0506" lon="1.2494">
        <ele>584.2</ele>
        <time>2024-06-23T11:40:33Z</time>
      </trkpt>
      <trkpt lat="43.05058" lon="1.24935">
        <ele>584.6</ele>
        <time>2024-06-23T11:40:34Z</time>
      </trkpt>
      <trkpt lat="43.05057" lon="1.24929">
        <ele>584.6</ele>
        <time>2024-06-23T11:40:35Z</time>
      </trkpt>
      <trkpt lat="43.05057" lon="1.24922">
        <ele>584.8</ele>
        <time>2024-06-23T11:40:36Z</time>
      </trkpt>
      <trkpt lat="43.05056" lon="1.24918">
        <ele>585.4</ele>
        <time>2024-06-23T11:40:37Z</time>
      </trkpt>
      <trkpt lat="43.05056" lon="1.24915">
        <ele>585.4</ele>
        <time>2024-06-23T11:40:38Z</time>
      </trkpt>
      <trkpt lat="43.05056" lon="1.24912">
        <ele>585.6</ele>
        <time>2024-06-23T11:40:39Z</time>
      </trkpt>
      <trkpt lat="43.05055" lon="1.24909">
        <ele>585.6</ele>
        <time>2024-06-23T11:40:40Z</time>
      </trkpt>
      <trkpt lat="43.05054" lon="1.24906">
        <ele>586</ele>
        <time>2024-06-23T11:40:41Z</time>
      </trkpt>
      <trkpt lat="43.05053" lon="1.24902">
        <ele>586.4</ele>
        <time>2024-06-23T11:40:42Z</time>
      </trkpt>
      <trkpt lat="43.05049" lon="1.24892">
        <ele>586.8</ele>
        <time>2024-06-23T11:40:43Z</time>
      </trkpt>
      <trkpt lat="43.05048" lon="1.24889">
        <ele>587.4</ele>
        <time>2024-06-23T11:40:44Z</time>
      </trkpt>
      <trkpt lat="43.05047" lon="1.24886">
        <ele>587.6</ele>
        <time>2024-06-23T11:40:45Z</time>
      </trkpt>
      <trkpt lat="43.05046" lon="1.2488">
        <ele>588</ele>
        <time>2024-06-23T11:40:46Z</time>
      </trkpt>
      <trkpt lat="43.05044" lon="1.24877">
        <ele>588.2</ele>
        <time>2024-06-23T11:40:47Z</time>
      </trkpt>
      <trkpt lat="43.05042" lon="1.24871">
        <ele>588.6</ele>
        <time>2024-06-23T11:40:48Z</time>
      </trkpt>
      <trkpt lat="43.05039" lon="1.24869">
        <ele>588.6</ele>
        <time>2024-06-23T11:40:49Z</time>
      </trkpt>
      <trkpt lat="43.05038" lon="1.24864">
        <ele>589</ele>
        <time>2024-06-23T11:40:50Z</time>
      </trkpt>
      <trkpt lat="43.05037" lon="1.24861">
        <ele>589.2</ele>
        <time>2024-06-23T11:40:51Z</time>
      </trkpt>
      <trkpt lat="43.05036" lon="1.24857">
        <ele>589.4</ele>
        <time>2024-06-23T11:40:52Z</time>
      </trkpt>
      <trkpt lat="43.05036" lon="1.24854">
        <ele>589.6</ele>
        <time>2024-06-23T11:40:53Z</time>
      </trkpt>
      <trkpt lat="43.05035" lon="1.24851">
        <ele>590</ele>
        <time>2024-06-23T11:40:54Z</time>
      </trkpt>
      <trkpt lat="43.05034" lon="1.24847">
        <ele>590</ele>
        <time>2024-06-23T11:40:55Z</time>
      </trkpt>
      <trkpt lat="43.05033" lon="1.24844">
        <ele>590.2</ele>
        <time>2024-06-23T11:40:56Z</time>
      </trkpt>
      <trkpt lat="43.05032" lon="1.2484">
        <ele>590.6</ele>
        <time>2024-06-23T11:40:57Z</time>
      </trkpt>
      <trkpt lat="43.0503" lon="1.24837">
        <ele>590.8</ele>
        <time>2024-06-23T11:40:58Z</time>
      </trkpt>
      <trkpt lat="43.05029" lon="1.24832">
        <ele>591</ele>
        <time>2024-06-23T11:40:59Z</time>
      </trkpt>
      <trkpt lat="43.05028" lon="1.24828">
        <ele>591.4</ele>
        <time>2024-06-23T11:41:00Z</time>
      </trkpt>
      <trkpt lat="43.05028" lon="1.24824">
        <ele>591.4</ele>
        <time>2024-06-23T11:41:01Z</time>
      </trkpt>
      <trkpt lat="43.05028" lon="1.2482">
        <ele>591.6</ele>
        <time>2024-06-23T11:41:02Z</time>
      </trkpt>
      <trkpt lat="43.05028" lon="1.24817">
        <ele>591.6</ele>
        <time>2024-06-23T11:41:03Z</time>
      </trkpt>
      <trkpt lat="43.05028" lon="1.24814">
        <ele>592</ele>
        <time>2024-06-23T11:41:04Z</time>
      </trkpt>
      <trkpt lat="43.05028" lon="1.2481">
        <ele>592.2</ele>
        <time>2024-06-23T11:41:05Z</time>
      </trkpt>
      <trkpt lat="43.05029" lon="1.24807">
        <ele>592.4</ele>
        <time>2024-06-23T11:41:06Z</time>
      </trkpt>
      <trkpt lat="43.05029" lon="1.24804">
        <ele>592.6</ele>
        <time>2024-06-23T11:41:07Z</time>
      </trkpt>
      <trkpt lat="43.0503" lon="1.24801">
        <ele>592.6</ele>
        <time>2024-06-23T11:41:08Z</time>
      </trkpt>
      <trkpt lat="43.0503" lon="1.24798">
        <ele>593</ele>
        <time>2024-06-23T11:41:09Z</time>
      </trkpt>
      <trkpt lat="43.05031" lon="1.24795">
        <ele>593.4</ele>
        <time>2024-06-23T11:41:10Z</time>
      </trkpt>
      <trkpt lat="43.05032" lon="1.24792">
        <ele>593.8</ele>
        <time>2024-06-23T11:41:11Z</time>
      </trkpt>
      <trkpt lat="43.05033" lon="1.24789">
        <ele>594</ele>
        <time>2024-06-23T11:41:12Z</time>
      </trkpt>
      <trkpt lat="43.05033" lon="1.24785">
        <ele>594</ele>
        <time>2024-06-23T11:41:13Z</time>
      </trkpt>
      <trkpt lat="43.05033" lon="1.24781">
        <ele>594.6</ele>
        <time>2024-06-23T11:41:14Z</time>
      </trkpt>
      <trkpt lat="43.05033" lon="1.24781">
        <ele>594.6</ele>
        <time>2024-06-23T11:41:15Z</time>
      </trkpt>
      <trkpt lat="43.05033" lon="1.24777">
        <ele>595</ele>
        <time>2024-06-23T11:41:16Z</time>
      </trkpt>
      <trkpt lat="43.05033" lon="1.24773">
        <ele>595.2</ele>
        <time>2024-06-23T11:41:17Z</time>
      </trkpt>
      <trkpt lat="43.05034" lon="1.24768">
        <ele>595.2</ele>
        <time>2024-06-23T11:41:18Z</time>
      </trkpt>
      <trkpt lat="43.05034" lon="1.24763">
        <ele>595.2</ele>
        <time>2024-06-23T11:41:19Z</time>
      </trkpt>
      <trkpt lat="43.05035" lon="1.24759">
        <ele>595.6</ele>
        <time>2024-06-23T11:41:20Z</time>
      </trkpt>
      <trkpt lat="43.05035" lon="1.24755">
        <ele>595.6</ele>
        <time>2024-06-23T11:41:21Z</time>
      </trkpt>
      <trkpt lat="43.05035" lon="1.24751">
        <ele>595.6</ele>
        <time>2024-06-23T11:41:22Z</time>
      </trkpt>
      <trkpt lat="43.05035" lon="1.24747">
        <ele>595.6</ele>
        <time>2024-06-23T11:41:23Z</time>
      </trkpt>
      <trkpt lat="43.05035" lon="1.24743">
        <ele>595.8</ele>
        <time>2024-06-23T11:41:24Z</time>
      </trkpt>
      <trkpt lat="43.05036" lon="1.24739">
        <ele>596.4</ele>
        <time>2024-06-23T11:41:25Z</time>
      </trkpt>
      <trkpt lat="43.05036" lon="1.24734">
        <ele>596.6</ele>
        <time>2024-06-23T11:41:26Z</time>
      </trkpt>
      <trkpt lat="43.05037" lon="1.2473">
        <ele>596.6</ele>
        <time>2024-06-23T11:41:27Z</time>
      </trkpt>
      <trkpt lat="43.05038" lon="1.24727">
        <ele>596.8</ele>
        <time>2024-06-23T11:41:28Z</time>
      </trkpt>
      <trkpt lat="43.05038" lon="1.24723">
        <ele>596.8</ele>
        <time>2024-06-23T11:41:29Z</time>
      </trkpt>
      <trkpt lat="43.05038" lon="1.24719">
        <ele>597.2</ele>
        <time>2024-06-23T11:41:30Z</time>
      </trkpt>
      <trkpt lat="43.05038" lon="1.24715">
        <ele>597.4</ele>
        <time>2024-06-23T11:41:31Z</time>
      </trkpt>
      <trkpt lat="43.05039" lon="1.24711">
        <ele>597.8</ele>
        <time>2024-06-23T11:41:32Z</time>
      </trkpt>
      <trkpt lat="43.05039" lon="1.24706">
        <ele>597.8</ele>
        <time>2024-06-23T11:41:33Z</time>
      </trkpt>
      <trkpt lat="43.05039" lon="1.24703">
        <ele>598</ele>
        <time>2024-06-23T11:41:34Z</time>
      </trkpt>
      <trkpt lat="43.05039" lon="1.24699">
        <ele>598.6</ele>
        <time>2024-06-23T11:41:35Z</time>
      </trkpt>
      <trkpt lat="43.05038" lon="1.24694">
        <ele>598.6</ele>
        <time>2024-06-23T11:41:36Z</time>
      </trkpt>
      <trkpt lat="43.05038" lon="1.2469">
        <ele>598.6</ele>
        <time>2024-06-23T11:41:37Z</time>
      </trkpt>
      <trkpt lat="43.05038" lon="1.24686">
        <ele>598.6</ele>
        <time>2024-06-23T11:41:38Z</time>
      </trkpt>
      <trkpt lat="43.05037" lon="1.24682">
        <ele>598.8</ele>
        <time>2024-06-23T11:41:39Z</time>
      </trkpt>
      <trkpt lat="43.05037" lon="1.24677">
        <ele>598.8</ele>
        <time>2024-06-23T11:41:40Z</time>
      </trkpt>
      <trkpt lat="43.05037" lon="1.24673">
        <ele>598.8</ele>
        <time>2024-06-23T11:41:41Z</time>
      </trkpt>
      <trkpt lat="43.05037" lon="1.24669">
        <ele>598.8</ele>
        <time>2024-06-23T11:41:42Z</time>
      </trkpt>
      <trkpt lat="43.05037" lon="1.24665">
        <ele>599</ele>
        <time>2024-06-23T11:41:43Z</time>
      </trkpt>
      <trkpt lat="43.05037" lon="1.2466">
        <ele>599.2</ele>
        <time>2024-06-23T11:41:44Z</time>
      </trkpt>
      <trkpt lat="43.05036" lon="1.24656">
        <ele>599.4</ele>
        <time>2024-06-23T11:41:45Z</time>
      </trkpt>
      <trkpt lat="43.05036" lon="1.24652">
        <ele>599.4</ele>
        <time>2024-06-23T11:41:46Z</time>
      </trkpt>
      <trkpt lat="43.05036" lon="1.24648">
        <ele>599.4</ele>
        <time>2024-06-23T11:41:47Z</time>
      </trkpt>
      <trkpt lat="43.05035" lon="1.24644">
        <ele>599.4</ele>
        <time>2024-06-23T11:41:48Z</time>
      </trkpt>
      <trkpt lat="43.05035" lon="1.24639">
        <ele>599.8</ele>
        <time>2024-06-23T11:41:49Z</time>
      </trkpt>
      <trkpt lat="43.05035" lon="1.24635">
        <ele>599.8</ele>
        <time>2024-06-23T11:41:50Z</time>
      </trkpt>
      <trkpt lat="43.05035" lon="1.24631">
        <ele>599.8</ele>
        <time>2024-06-23T11:41:51Z</time>
      </trkpt>
      <trkpt lat="43.05035" lon="1.24627">
        <ele>600.2</ele>
        <time>2024-06-23T11:41:52Z</time>
      </trkpt>
      <trkpt lat="43.05034" lon="1.24623">
        <ele>600.2</ele>
        <time>2024-06-23T11:41:53Z</time>
      </trkpt>
      <trkpt lat="43.05034" lon="1.24619">
        <ele>600.6</ele>
        <time>2024-06-23T11:41:54Z</time>
      </trkpt>
      <trkpt lat="43.05034" lon="1.24615">
        <ele>600.8</ele>
        <time>2024-06-23T11:41:55Z</time>
      </trkpt>
      <trkpt lat="43.05034" lon="1.24611">
        <ele>600.8</ele>
        <time>2024-06-23T11:41:56Z</time>
      </trkpt>
      <trkpt lat="43.05034" lon="1.24606">
        <ele>601.2</ele>
        <time>2024-06-23T11:41:57Z</time>
      </trkpt>
      <trkpt lat="43.05034" lon="1.24602">
        <ele>601.2</ele>
        <time>2024-06-23T11:41:58Z</time>
      </trkpt>
      <trkpt lat="43.05035" lon="1.24597">
        <ele>601.2</ele>
        <time>2024-06-23T11:41:59Z</time>
      </trkpt>
      <trkpt lat="43.05036" lon="1.24593">
        <ele>601.2</ele>
        <time>2024-06-23T11:42:00Z</time>
      </trkpt>
      <trkpt lat="43.05037" lon="1.24588">
        <ele>601.4</ele>
        <time>2024-06-23T11:42:01Z</time>
      </trkpt>
      <trkpt lat="43.05037" lon="1.24583">
        <ele>601.4</ele>
        <time>2024-06-23T11:42:02Z</time>
      </trkpt>
      <trkpt lat="43.05039" lon="1.24579">
        <ele>601.4</ele>
        <time>2024-06-23T11:42:03Z</time>
      </trkpt>
      <trkpt lat="43.0504" lon="1.24574">
        <ele>601.4</ele>
        <time>2024-06-23T11:42:04Z</time>
      </trkpt>
      <trkpt lat="43.0504" lon="1.24569">
        <ele>601.4</ele>
        <time>2024-06-23T11:42:05Z</time>
      </trkpt>
      <trkpt lat="43.05041" lon="1.24564">
        <ele>601.6</ele>
        <time>2024-06-23T11:42:06Z</time>
      </trkpt>
      <trkpt lat="43.05041" lon="1.24558">
        <ele>601.6</ele>
        <time>2024-06-23T11:42:07Z</time>
      </trkpt>
      <trkpt lat="43.0504" lon="1.24552">
        <ele>601.4</ele>
        <time>2024-06-23T11:42:08Z</time>
      </trkpt>
      <trkpt lat="43.05039" lon="1.24546">
        <ele>601.4</ele>
        <time>2024-06-23T11:42:09Z</time>
      </trkpt>
      <trkpt lat="43.05038" lon="1.24541">
        <ele>601.2</ele>
        <time>2024-06-23T11:42:10Z</time>
      </trkpt>
      <trkpt lat="43.05036" lon="1.24536">
        <ele>600.8</ele>
        <time>2024-06-23T11:42:11Z</time>
      </trkpt>
      <trkpt lat="43.05034" lon="1.24531">
        <ele>600.8</ele>
        <time>2024-06-23T11:42:12Z</time>
      </trkpt>
      <trkpt lat="43.05033" lon="1.24526">
        <ele>601.2</ele>
        <time>2024-06-23T11:42:13Z</time>
      </trkpt>
      <trkpt lat="43.05031" lon="1.24521">
        <ele>601</ele>
        <time>2024-06-23T11:42:14Z</time>
      </trkpt>
      <trkpt lat="43.05029" lon="1.24515">
        <ele>601</ele>
        <time>2024-06-23T11:42:15Z</time>
      </trkpt>
      <trkpt lat="43.05027" lon="1.2451">
        <ele>601</ele>
        <time>2024-06-23T11:42:16Z</time>
      </trkpt>
      <trkpt lat="43.05026" lon="1.24505">
        <ele>600.6</ele>
        <time>2024-06-23T11:42:17Z</time>
      </trkpt>
      <trkpt lat="43.05025" lon="1.24499">
        <ele>600.6</ele>
        <time>2024-06-23T11:42:18Z</time>
      </trkpt>
      <trkpt lat="43.05024" lon="1.24494">
        <ele>600.6</ele>
        <time>2024-06-23T11:42:19Z</time>
      </trkpt>
      <trkpt lat="43.05023" lon="1.24488">
        <ele>600.6</ele>
        <time>2024-06-23T11:42:20Z</time>
      </trkpt>
      <trkpt lat="43.05022" lon="1.24483">
        <ele>600.6</ele>
        <time>2024-06-23T11:42:21Z</time>
      </trkpt>
      <trkpt lat="43.05022" lon="1.24476">
        <ele>600.4</ele>
        <time>2024-06-23T11:42:22Z</time>
      </trkpt>
      <trkpt lat="43.05022" lon="1.2447">
        <ele>600</ele>
        <time>2024-06-23T11:42:23Z</time>
      </trkpt>
      <trkpt lat="43.05022" lon="1.24463">
        <ele>600</ele>
        <time>2024-06-23T11:42:24Z</time>
      </trkpt>
      <trkpt lat="43.05022" lon="1.24456">
        <ele>600</ele>
        <time>2024-06-23T11:42:25Z</time>
      </trkpt>
      <trkpt lat="43.05023" lon="1.24449">
        <ele>599.8</ele>
        <time>2024-06-23T11:42:26Z</time>
      </trkpt>
      <trkpt lat="43.05023" lon="1.24441">
        <ele>599.8</ele>
        <time>2024-06-23T11:42:27Z</time>
      </trkpt>
      <trkpt lat="43.05024" lon="1.24433">
        <ele>599.8</ele>
        <time>2024-06-23T11:42:28Z</time>
      </trkpt>
      <trkpt lat="43.05024" lon="1.24426">
        <ele>599.4</ele>
        <time>2024-06-23T11:42:29Z</time>
      </trkpt>
      <trkpt lat="43.05024" lon="1.24416">
        <ele>599</ele>
        <time>2024-06-23T11:42:30Z</time>
      </trkpt>
      <trkpt lat="43.05024" lon="1.24407">
        <ele>598.8</ele>
        <time>2024-06-23T11:42:31Z</time>
      </trkpt>
      <trkpt lat="43.05024" lon="1.24398">
        <ele>598.6</ele>
        <time>2024-06-23T11:42:32Z</time>
      </trkpt>
      <trkpt lat="43.05026" lon="1.24388">
        <ele>597.8</ele>
        <time>2024-06-23T11:42:33Z</time>
      </trkpt>
      <trkpt lat="43.05027" lon="1.24377">
        <ele>597.6</ele>
        <time>2024-06-23T11:42:34Z</time>
      </trkpt>
      <trkpt lat="43.05028" lon="1.24367">
        <ele>597</ele>
        <time>2024-06-23T11:42:35Z</time>
      </trkpt>
      <trkpt lat="43.05029" lon="1.24357">
        <ele>597</ele>
        <time>2024-06-23T11:42:36Z</time>
      </trkpt>
      <trkpt lat="43.0503" lon="1.24348">
        <ele>596.2</ele>
        <time>2024-06-23T11:42:37Z</time>
      </trkpt>
      <trkpt lat="43.05031" lon="1.24337">
        <ele>595.8</ele>
        <time>2024-06-23T11:42:38Z</time>
      </trkpt>
      <trkpt lat="43.05032" lon="1.24326">
        <ele>595.2</ele>
        <time>2024-06-23T11:42:39Z</time>
      </trkpt>
      <trkpt lat="43.05034" lon="1.24316">
        <ele>594.6</ele>
        <time>2024-06-23T11:42:40Z</time>
      </trkpt>
      <trkpt lat="43.05035" lon="1.24306">
        <ele>594</ele>
        <time>2024-06-23T11:42:41Z</time>
      </trkpt>
      <trkpt lat="43.05035" lon="1.24294">
        <ele>593.4</ele>
        <time>2024-06-23T11:42:42Z</time>
      </trkpt>
      <trkpt lat="43.05036" lon="1.24282">
        <ele>592.8</ele>
        <time>2024-06-23T11:42:43Z</time>
      </trkpt>
      <trkpt lat="43.05036" lon="1.24272">
        <ele>592</ele>
        <time>2024-06-23T11:42:44Z</time>
      </trkpt>
      <trkpt lat="43.05036" lon="1.24261">
        <ele>591.6</ele>
        <time>2024-06-23T11:42:45Z</time>
      </trkpt>
      <trkpt lat="43.05038" lon="1.24251">
        <ele>591.2</ele>
        <time>2024-06-23T11:42:46Z</time>
      </trkpt>
      <trkpt lat="43.05039" lon="1.24237">
        <ele>590.6</ele>
        <time>2024-06-23T11:42:47Z</time>
      </trkpt>
      <trkpt lat="43.05041" lon="1.24224">
        <ele>590.2</ele>
        <time>2024-06-23T11:42:48Z</time>
      </trkpt>
      <trkpt lat="43.05044" lon="1.2421">
        <ele>589.4</ele>
        <time>2024-06-23T11:42:49Z</time>
      </trkpt>
      <trkpt lat="43.05046" lon="1.24196">
        <ele>588.6</ele>
        <time>2024-06-23T11:42:50Z</time>
      </trkpt>
      <trkpt lat="43.05048" lon="1.24182">
        <ele>587.8</ele>
        <time>2024-06-23T11:42:51Z</time>
      </trkpt>
      <trkpt lat="43.0505" lon="1.24168">
        <ele>587</ele>
        <time>2024-06-23T11:42:52Z</time>
      </trkpt>
      <trkpt lat="43.05051" lon="1.24155">
        <ele>586.4</ele>
        <time>2024-06-23T11:42:53Z</time>
      </trkpt>
      <trkpt lat="43.0505" lon="1.24143">
        <ele>585</ele>
        <time>2024-06-23T11:42:54Z</time>
      </trkpt>
      <trkpt lat="43.05048" lon="1.24129">
        <ele>584.4</ele>
        <time>2024-06-23T11:42:55Z</time>
      </trkpt>
      <trkpt lat="43.05047" lon="1.24115">
        <ele>583.4</ele>
        <time>2024-06-23T11:42:56Z</time>
      </trkpt>
      <trkpt lat="43.05044" lon="1.24101">
        <ele>582.2</ele>
        <time>2024-06-23T11:42:57Z</time>
      </trkpt>
      <trkpt lat="43.05038" lon="1.24089">
        <ele>581.6</ele>
        <time>2024-06-23T11:42:58Z</time>
      </trkpt>
      <trkpt lat="43.05033" lon="1.24075">
        <ele>580.2</ele>
        <time>2024-06-23T11:42:59Z</time>
      </trkpt>
      <trkpt lat="43.05027" lon="1.24066">
        <ele>580</ele>
        <time>2024-06-23T11:43:00Z</time>
      </trkpt>
      <trkpt lat="43.0502" lon="1.24055">
        <ele>578.8</ele>
        <time>2024-06-23T11:43:01Z</time>
      </trkpt>
      <trkpt lat="43.05014" lon="1.24043">
        <ele>578.4</ele>
        <time>2024-06-23T11:43:02Z</time>
      </trkpt>
      <trkpt lat="43.05006" lon="1.24032">
        <ele>577.4</ele>
        <time>2024-06-23T11:43:03Z</time>
      </trkpt>
      <trkpt lat="43.04999" lon="1.24021">
        <ele>576.8</ele>
        <time>2024-06-23T11:43:04Z</time>
      </trkpt>
      <trkpt lat="43.04993" lon="1.24012">
        <ele>576.4</ele>
        <time>2024-06-23T11:43:05Z</time>
      </trkpt>
      <trkpt lat="43.04987" lon="1.24006">
        <ele>576</ele>
        <time>2024-06-23T11:43:06Z</time>
      </trkpt>
      <trkpt lat="43.04978" lon="1.24003">
        <ele>575.2</ele>
        <time>2024-06-23T11:43:07Z</time>
      </trkpt>
      <trkpt lat="43.04968" lon="1.23999">
        <ele>574.2</ele>
        <time>2024-06-23T11:43:08Z</time>
      </trkpt>
      <trkpt lat="43.0496" lon="1.23997">
        <ele>573.6</ele>
        <time>2024-06-23T11:43:09Z</time>
      </trkpt>
      <trkpt lat="43.0495" lon="1.23997">
        <ele>572.6</ele>
        <time>2024-06-23T11:43:10Z</time>
      </trkpt>
      <trkpt lat="43.04942" lon="1.23995">
        <ele>572</ele>
        <time>2024-06-23T11:43:11Z</time>
      </trkpt>
      <trkpt lat="43.04933" lon="1.23997">
        <ele>571.2</ele>
        <time>2024-06-23T11:43:12Z</time>
      </trkpt>
      <trkpt lat="43.04928" lon="1.24014">
        <ele>570.6</ele>
        <time>2024-06-23T11:43:13Z</time>
      </trkpt>
      <trkpt lat="43.0492" lon="1.24021">
        <ele>569.6</ele>
        <time>2024-06-23T11:43:14Z</time>
      </trkpt>
      <trkpt lat="43.04911" lon="1.24025">
        <ele>569</ele>
        <time>2024-06-23T11:43:15Z</time>
      </trkpt>
      <trkpt lat="43.04904" lon="1.24029">
        <ele>568.2</ele>
        <time>2024-06-23T11:43:16Z</time>
      </trkpt>
      <trkpt lat="43.04898" lon="1.2403">
        <ele>567.8</ele>
        <time>2024-06-23T11:43:17Z</time>
      </trkpt>
      <trkpt lat="43.04893" lon="1.24024">
        <ele>567.6</ele>
        <time>2024-06-23T11:43:18Z</time>
      </trkpt>
      <trkpt lat="43.0489" lon="1.24016">
        <ele>567.2</ele>
        <time>2024-06-23T11:43:19Z</time>
      </trkpt>
      <trkpt lat="43.04889" lon="1.24008">
        <ele>566.4</ele>
        <time>2024-06-23T11:43:20Z</time>
      </trkpt>
      <trkpt lat="43.04889" lon="1.23997">
        <ele>566</ele>
        <time>2024-06-23T11:43:21Z</time>
      </trkpt>
      <trkpt lat="43.04889" lon="1.23987">
        <ele>565.4</ele>
        <time>2024-06-23T11:43:22Z</time>
      </trkpt>
      <trkpt lat="43.04888" lon="1.23981">
        <ele>565</ele>
        <time>2024-06-23T11:43:23Z</time>
      </trkpt>
      <trkpt lat="43.04887" lon="1.23972">
        <ele>564.6</ele>
        <time>2024-06-23T11:43:24Z</time>
      </trkpt>
      <trkpt lat="43.04883" lon="1.23961">
        <ele>564</ele>
        <time>2024-06-23T11:43:25Z</time>
      </trkpt>
      <trkpt lat="43.04878" lon="1.23956">
        <ele>563.4</ele>
        <time>2024-06-23T11:43:26Z</time>
      </trkpt>
      <trkpt lat="43.04873" lon="1.23952">
        <ele>563</ele>
        <time>2024-06-23T11:43:27Z</time>
      </trkpt>
      <trkpt lat="43.04869" lon="1.23944">
        <ele>562</ele>
        <time>2024-06-23T11:43:28Z</time>
      </trkpt>
      <trkpt lat="43.04865" lon="1.23936">
        <ele>561.4</ele>
        <time>2024-06-23T11:43:29Z</time>
      </trkpt>
      <trkpt lat="43.04862" lon="1.23926">
        <ele>560.8</ele>
        <time>2024-06-23T11:43:30Z</time>
      </trkpt>
      <trkpt lat="43.04857" lon="1.23918">
        <ele>560.6</ele>
        <time>2024-06-23T11:43:31Z</time>
      </trkpt>
      <trkpt lat="43.04854" lon="1.2391">
        <ele>560.4</ele>
        <time>2024-06-23T11:43:32Z</time>
      </trkpt>
      <trkpt lat="43.04849" lon="1.23915">
        <ele>559.8</ele>
        <time>2024-06-23T11:43:33Z</time>
      </trkpt>
      <trkpt lat="43.04844" lon="1.23919">
        <ele>559.4</ele>
        <time>2024-06-23T11:43:34Z</time>
      </trkpt>
      <trkpt lat="43.04839" lon="1.23922">
        <ele>559</ele>
        <time>2024-06-23T11:43:35Z</time>
      </trkpt>
      <trkpt lat="43.04833" lon="1.23926">
        <ele>558.6</ele>
        <time>2024-06-23T11:43:36Z</time>
      </trkpt>
      <trkpt lat="43.04826" lon="1.23928">
        <ele>558.4</ele>
        <time>2024-06-23T11:43:37Z</time>
      </trkpt>
      <trkpt lat="43.0482" lon="1.23927">
        <ele>557.6</ele>
        <time>2024-06-23T11:43:38Z</time>
      </trkpt>
      <trkpt lat="43.04813" lon="1.23923">
        <ele>557.2</ele>
        <time>2024-06-23T11:43:39Z</time>
      </trkpt>
      <trkpt lat="43.04807" lon="1.23916">
        <ele>556.8</ele>
        <time>2024-06-23T11:43:40Z</time>
      </trkpt>
      <trkpt lat="43.04805" lon="1.23909">
        <ele>556.6</ele>
        <time>2024-06-23T11:43:41Z</time>
      </trkpt>
      <trkpt lat="43.048" lon="1.23897">
        <ele>555.8</ele>
        <time>2024-06-23T11:43:42Z</time>
      </trkpt>
      <trkpt lat="43.04795" lon="1.23888">
        <ele>555.6</ele>
        <time>2024-06-23T11:43:43Z</time>
      </trkpt>
      <trkpt lat="43.0479" lon="1.23879">
        <ele>555</ele>
        <time>2024-06-23T11:43:44Z</time>
      </trkpt>
      <trkpt lat="43.04784" lon="1.23872">
        <ele>554.6</ele>
        <time>2024-06-23T11:43:45Z</time>
      </trkpt>
      <trkpt lat="43.04776" lon="1.2387">
        <ele>553.4</ele>
        <time>2024-06-23T11:43:46Z</time>
      </trkpt>
      <trkpt lat="43.04765" lon="1.23871">
        <ele>552.8</ele>
        <time>2024-06-23T11:43:47Z</time>
      </trkpt>
      <trkpt lat="43.04756" lon="1.23872">
        <ele>552</ele>
        <time>2024-06-23T11:43:48Z</time>
      </trkpt>
      <trkpt lat="43.04747" lon="1.23874">
        <ele>551.2</ele>
        <time>2024-06-23T11:43:49Z</time>
      </trkpt>
      <trkpt lat="43.04737" lon="1.23877">
        <ele>550.2</ele>
        <time>2024-06-23T11:43:50Z</time>
      </trkpt>
      <trkpt lat="43.04727" lon="1.2388">
        <ele>549.4</ele>
        <time>2024-06-23T11:43:51Z</time>
      </trkpt>
      <trkpt lat="43.04717" lon="1.23885">
        <ele>548.6</ele>
        <time>2024-06-23T11:43:52Z</time>
      </trkpt>
      <trkpt lat="43.04708" lon="1.23892">
        <ele>548</ele>
        <time>2024-06-23T11:43:53Z</time>
      </trkpt>
      <trkpt lat="43.04699" lon="1.23898">
        <ele>547.4</ele>
        <time>2024-06-23T11:43:54Z</time>
      </trkpt>
      <trkpt lat="43.04691" lon="1.23905">
        <ele>546.8</ele>
        <time>2024-06-23T11:43:55Z</time>
      </trkpt>
      <trkpt lat="43.04684" lon="1.23911">
        <ele>546.2</ele>
        <time>2024-06-23T11:43:56Z</time>
      </trkpt>
      <trkpt lat="43.04676" lon="1.23917">
        <ele>544.8</ele>
        <time>2024-06-23T11:43:57Z</time>
      </trkpt>
      <trkpt lat="43.0467" lon="1.23918">
        <ele>544</ele>
        <time>2024-06-23T11:43:58Z</time>
      </trkpt>
      <trkpt lat="43.04664" lon="1.23901">
        <ele>542.8</ele>
        <time>2024-06-23T11:43:59Z</time>
      </trkpt>
      <trkpt lat="43.04659" lon="1.23892">
        <ele>542.4</ele>
        <time>2024-06-23T11:44:00Z</time>
      </trkpt>
      <trkpt lat="43.04656" lon="1.23881">
        <ele>541.6</ele>
        <time>2024-06-23T11:44:01Z</time>
      </trkpt>
      <trkpt lat="43.04652" lon="1.23871">
        <ele>541.6</ele>
        <time>2024-06-23T11:44:02Z</time>
      </trkpt>
      <trkpt lat="43.04646" lon="1.23863">
        <ele>541.2</ele>
        <time>2024-06-23T11:44:03Z</time>
      </trkpt>
      <trkpt lat="43.04639" lon="1.23861">
        <ele>540.6</ele>
        <time>2024-06-23T11:44:04Z</time>
      </trkpt>
      <trkpt lat="43.04631" lon="1.23859">
        <ele>539.8</ele>
        <time>2024-06-23T11:44:05Z</time>
      </trkpt>
      <trkpt lat="43.04623" lon="1.2386">
        <ele>539.8</ele>
        <time>2024-06-23T11:44:06Z</time>
      </trkpt>
      <trkpt lat="43.04613" lon="1.23859">
        <ele>539.2</ele>
        <time>2024-06-23T11:44:07Z</time>
      </trkpt>
      <trkpt lat="43.04603" lon="1.23856">
        <ele>538</ele>
        <time>2024-06-23T11:44:08Z</time>
      </trkpt>
      <trkpt lat="43.04594" lon="1.23857">
        <ele>537</ele>
        <time>2024-06-23T11:44:09Z</time>
      </trkpt>
      <trkpt lat="43.04584" lon="1.23852">
        <ele>536.4</ele>
        <time>2024-06-23T11:44:10Z</time>
      </trkpt>
      <trkpt lat="43.04577" lon="1.23847">
        <ele>536</ele>
        <time>2024-06-23T11:44:11Z</time>
      </trkpt>
      <trkpt lat="43.04568" lon="1.23841">
        <ele>535.2</ele>
        <time>2024-06-23T11:44:12Z</time>
      </trkpt>
      <trkpt lat="43.04561" lon="1.23834">
        <ele>534.6</ele>
        <time>2024-06-23T11:44:13Z</time>
      </trkpt>
      <trkpt lat="43.04554" lon="1.23825">
        <ele>533</ele>
        <time>2024-06-23T11:44:14Z</time>
      </trkpt>
      <trkpt lat="43.0455" lon="1.23816">
        <ele>532.4</ele>
        <time>2024-06-23T11:44:15Z</time>
      </trkpt>
      <trkpt lat="43.0455" lon="1.23806">
        <ele>532</ele>
        <time>2024-06-23T11:44:16Z</time>
      </trkpt>
      <trkpt lat="43.04556" lon="1.23802">
        <ele>532</ele>
        <time>2024-06-23T11:44:17Z</time>
      </trkpt>
      <trkpt lat="43.04558" lon="1.23798">
        <ele>531.6</ele>
        <time>2024-06-23T11:44:18Z</time>
      </trkpt>
      <trkpt lat="43.04561" lon="1.23791">
        <ele>531.2</ele>
        <time>2024-06-23T11:44:19Z</time>
      </trkpt>
      <trkpt lat="43.04562" lon="1.23784">
        <ele>531.2</ele>
        <time>2024-06-23T11:44:20Z</time>
      </trkpt>
      <trkpt lat="43.04564" lon="1.23778">
        <ele>531.4</ele>
        <time>2024-06-23T11:44:21Z</time>
      </trkpt>
      <trkpt lat="43.04564" lon="1.23774">
        <ele>531.4</ele>
        <time>2024-06-23T11:44:22Z</time>
      </trkpt>
      <trkpt lat="43.04563" lon="1.2377">
        <ele>531.4</ele>
        <time>2024-06-23T11:44:23Z</time>
      </trkpt>
      <trkpt lat="43.04558" lon="1.23765">
        <ele>531.4</ele>
        <time>2024-06-23T11:44:24Z</time>
      </trkpt>
      <trkpt lat="43.04554" lon="1.2376">
        <ele>531.6</ele>
        <time>2024-06-23T11:44:25Z</time>
      </trkpt>
      <trkpt lat="43.0455" lon="1.23755">
        <ele>531.6</ele>
        <time>2024-06-23T11:44:26Z</time>
      </trkpt>
      <trkpt lat="43.04546" lon="1.2375">
        <ele>531.6</ele>
        <time>2024-06-23T11:44:27Z</time>
      </trkpt>
      <trkpt lat="43.04543" lon="1.23746">
        <ele>532.6</ele>
        <time>2024-06-23T11:44:28Z</time>
      </trkpt>
      <trkpt lat="43.0454" lon="1.23741">
        <ele>532.6</ele>
        <time>2024-06-23T11:44:29Z</time>
      </trkpt>
      <trkpt lat="43.04536" lon="1.23737">
        <ele>532.8</ele>
        <time>2024-06-23T11:44:30Z</time>
      </trkpt>
      <trkpt lat="43.04532" lon="1.23731">
        <ele>532.8</ele>
        <time>2024-06-23T11:44:31Z</time>
      </trkpt>
      <trkpt lat="43.04528" lon="1.23726">
        <ele>532.8</ele>
        <time>2024-06-23T11:44:32Z</time>
      </trkpt>
      <trkpt lat="43.04525" lon="1.23722">
        <ele>532.8</ele>
        <time>2024-06-23T11:44:33Z</time>
      </trkpt>
      <trkpt lat="43.04522" lon="1.23717">
        <ele>533.2</ele>
        <time>2024-06-23T11:44:34Z</time>
      </trkpt>
      <trkpt lat="43.04518" lon="1.23713">
        <ele>533.2</ele>
        <time>2024-06-23T11:44:35Z</time>
      </trkpt>
      <trkpt lat="43.04514" lon="1.23708">
        <ele>533.2</ele>
        <time>2024-06-23T11:44:36Z</time>
      </trkpt>
      <trkpt lat="43.04511" lon="1.23703">
        <ele>533.2</ele>
        <time>2024-06-23T11:44:37Z</time>
      </trkpt>
      <trkpt lat="43.04507" lon="1.23699">
        <ele>533.2</ele>
        <time>2024-06-23T11:44:38Z</time>
      </trkpt>
      <trkpt lat="43.04504" lon="1.23695">
        <ele>533.2</ele>
        <time>2024-06-23T11:44:39Z</time>
      </trkpt>
      <trkpt lat="43.045" lon="1.2369">
        <ele>533.6</ele>
        <time>2024-06-23T11:44:40Z</time>
      </trkpt>
      <trkpt lat="43.04496" lon="1.23686">
        <ele>533.6</ele>
        <time>2024-06-23T11:44:41Z</time>
      </trkpt>
      <trkpt lat="43.04493" lon="1.23683">
        <ele>533.6</ele>
        <time>2024-06-23T11:44:42Z</time>
      </trkpt>
      <trkpt lat="43.04491" lon="1.23678">
        <ele>533.6</ele>
        <time>2024-06-23T11:44:43Z</time>
      </trkpt>
      <trkpt lat="43.04488" lon="1.23675">
        <ele>533.8</ele>
        <time>2024-06-23T11:44:44Z</time>
      </trkpt>
      <trkpt lat="43.04484" lon="1.23673">
        <ele>533.8</ele>
        <time>2024-06-23T11:44:45Z</time>
      </trkpt>
      <trkpt lat="43.0448" lon="1.2367">
        <ele>533.8</ele>
        <time>2024-06-23T11:44:46Z</time>
      </trkpt>
      <trkpt lat="43.04475" lon="1.2367">
        <ele>533.4</ele>
        <time>2024-06-23T11:44:47Z</time>
      </trkpt>
      <trkpt lat="43.04471" lon="1.2367">
        <ele>533.4</ele>
        <time>2024-06-23T11:44:48Z</time>
      </trkpt>
      <trkpt lat="43.04466" lon="1.23668">
        <ele>533</ele>
        <time>2024-06-23T11:44:49Z</time>
      </trkpt>
      <trkpt lat="43.0446" lon="1.23668">
        <ele>532.8</ele>
        <time>2024-06-23T11:44:50Z</time>
      </trkpt>
      <trkpt lat="43.04454" lon="1.23669">
        <ele>532.6</ele>
        <time>2024-06-23T11:44:51Z</time>
      </trkpt>
      <trkpt lat="43.04448" lon="1.23669">
        <ele>532.2</ele>
        <time>2024-06-23T11:44:52Z</time>
      </trkpt>
      <trkpt lat="43.04442" lon="1.2367">
        <ele>532</ele>
        <time>2024-06-23T11:44:53Z</time>
      </trkpt>
      <trkpt lat="43.04436" lon="1.2367">
        <ele>531.8</ele>
        <time>2024-06-23T11:44:54Z</time>
      </trkpt>
      <trkpt lat="43.0443" lon="1.23669">
        <ele>531.8</ele>
        <time>2024-06-23T11:44:55Z</time>
      </trkpt>
      <trkpt lat="43.04423" lon="1.23669">
        <ele>531.4</ele>
        <time>2024-06-23T11:44:56Z</time>
      </trkpt>
      <trkpt lat="43.04417" lon="1.23667">
        <ele>531.2</ele>
        <time>2024-06-23T11:44:57Z</time>
      </trkpt>
      <trkpt lat="43.0441" lon="1.23664">
        <ele>530.8</ele>
        <time>2024-06-23T11:44:58Z</time>
      </trkpt>
      <trkpt lat="43.04403" lon="1.23661">
        <ele>530.4</ele>
        <time>2024-06-23T11:44:59Z</time>
      </trkpt>
      <trkpt lat="43.04396" lon="1.23656">
        <ele>530</ele>
        <time>2024-06-23T11:45:00Z</time>
      </trkpt>
      <trkpt lat="43.0439" lon="1.23651">
        <ele>530</ele>
        <time>2024-06-23T11:45:01Z</time>
      </trkpt>
      <trkpt lat="43.04383" lon="1.23647">
        <ele>529.4</ele>
        <time>2024-06-23T11:45:02Z</time>
      </trkpt>
      <trkpt lat="43.04377" lon="1.23642">
        <ele>529.4</ele>
        <time>2024-06-23T11:45:03Z</time>
      </trkpt>
      <trkpt lat="43.0437" lon="1.23637">
        <ele>528.8</ele>
        <time>2024-06-23T11:45:04Z</time>
      </trkpt>
      <trkpt lat="43.04363" lon="1.23633">
        <ele>528.8</ele>
        <time>2024-06-23T11:45:05Z</time>
      </trkpt>
      <trkpt lat="43.04357" lon="1.23628">
        <ele>528.2</ele>
        <time>2024-06-23T11:45:06Z</time>
      </trkpt>
      <trkpt lat="43.04351" lon="1.23621">
        <ele>528.2</ele>
        <time>2024-06-23T11:45:07Z</time>
      </trkpt>
      <trkpt lat="43.04345" lon="1.23615">
        <ele>528</ele>
        <time>2024-06-23T11:45:08Z</time>
      </trkpt>
      <trkpt lat="43.04341" lon="1.23607">
        <ele>528</ele>
        <time>2024-06-23T11:45:09Z</time>
      </trkpt>
      <trkpt lat="43.04337" lon="1.23599">
        <ele>528</ele>
        <time>2024-06-23T11:45:10Z</time>
      </trkpt>
      <trkpt lat="43.04332" lon="1.23591">
        <ele>527.6</ele>
        <time>2024-06-23T11:45:11Z</time>
      </trkpt>
      <trkpt lat="43.04329" lon="1.23583">
        <ele>527.6</ele>
        <time>2024-06-23T11:45:12Z</time>
      </trkpt>
      <trkpt lat="43.04325" lon="1.23575">
        <ele>527.6</ele>
        <time>2024-06-23T11:45:13Z</time>
      </trkpt>
      <trkpt lat="43.04322" lon="1.23567">
        <ele>527.6</ele>
        <time>2024-06-23T11:45:14Z</time>
      </trkpt>
      <trkpt lat="43.04318" lon="1.2356">
        <ele>527</ele>
        <time>2024-06-23T11:45:15Z</time>
      </trkpt>
      <trkpt lat="43.04315" lon="1.23552">
        <ele>526.6</ele>
        <time>2024-06-23T11:45:16Z</time>
      </trkpt>
      <trkpt lat="43.04311" lon="1.23544">
        <ele>526.2</ele>
        <time>2024-06-23T11:45:17Z</time>
      </trkpt>
      <trkpt lat="43.04308" lon="1.23536">
        <ele>526</ele>
        <time>2024-06-23T11:45:18Z</time>
      </trkpt>
      <trkpt lat="43.04304" lon="1.23528">
        <ele>526</ele>
        <time>2024-06-23T11:45:19Z</time>
      </trkpt>
      <trkpt lat="43.04301" lon="1.2352">
        <ele>525.6</ele>
        <time>2024-06-23T11:45:20Z</time>
      </trkpt>
      <trkpt lat="43.04299" lon="1.23512">
        <ele>525.6</ele>
        <time>2024-06-23T11:45:21Z</time>
      </trkpt>
      <trkpt lat="43.04296" lon="1.23503">
        <ele>525.6</ele>
        <time>2024-06-23T11:45:22Z</time>
      </trkpt>
      <trkpt lat="43.04295" lon="1.23494">
        <ele>525.6</ele>
        <time>2024-06-23T11:45:23Z</time>
      </trkpt>
      <trkpt lat="43.04294" lon="1.23485">
        <ele>525.6</ele>
        <time>2024-06-23T11:45:24Z</time>
      </trkpt>
      <trkpt lat="43.04295" lon="1.23476">
        <ele>525</ele>
        <time>2024-06-23T11:45:25Z</time>
      </trkpt>
      <trkpt lat="43.04296" lon="1.23467">
        <ele>525</ele>
        <time>2024-06-23T11:45:26Z</time>
      </trkpt>
      <trkpt lat="43.043" lon="1.23459">
        <ele>525</ele>
        <time>2024-06-23T11:45:27Z</time>
      </trkpt>
      <trkpt lat="43.04304" lon="1.23451">
        <ele>525</ele>
        <time>2024-06-23T11:45:28Z</time>
      </trkpt>
      <trkpt lat="43.04307" lon="1.23443">
        <ele>524.8</ele>
        <time>2024-06-23T11:45:29Z</time>
      </trkpt>
      <trkpt lat="43.04312" lon="1.23436">
        <ele>524.8</ele>
        <time>2024-06-23T11:45:30Z</time>
      </trkpt>
      <trkpt lat="43.04315" lon="1.23428">
        <ele>524.6</ele>
        <time>2024-06-23T11:45:31Z</time>
      </trkpt>
      <trkpt lat="43.04316" lon="1.23419">
        <ele>524.6</ele>
        <time>2024-06-23T11:45:32Z</time>
      </trkpt>
      <trkpt lat="43.04316" lon="1.23411">
        <ele>524.6</ele>
        <time>2024-06-23T11:45:33Z</time>
      </trkpt>
      <trkpt lat="43.04313" lon="1.23404">
        <ele>524</ele>
        <time>2024-06-23T11:45:34Z</time>
      </trkpt>
      <trkpt lat="43.04309" lon="1.23397">
        <ele>524.6</ele>
        <time>2024-06-23T11:45:35Z</time>
      </trkpt>
      <trkpt lat="43.04305" lon="1.23392">
        <ele>525.2</ele>
        <time>2024-06-23T11:45:36Z</time>
      </trkpt>
      <trkpt lat="43.043" lon="1.23387">
        <ele>525.2</ele>
        <time>2024-06-23T11:45:37Z</time>
      </trkpt>
      <trkpt lat="43.04296" lon="1.23382">
        <ele>525.8</ele>
        <time>2024-06-23T11:45:38Z</time>
      </trkpt>
      <trkpt lat="43.04291" lon="1.23379">
        <ele>525.8</ele>
        <time>2024-06-23T11:45:39Z</time>
      </trkpt>
      <trkpt lat="43.04287" lon="1.23375">
        <ele>526.2</ele>
        <time>2024-06-23T11:45:40Z</time>
      </trkpt>
      <trkpt lat="43.04282" lon="1.23372">
        <ele>526.4</ele>
        <time>2024-06-23T11:45:41Z</time>
      </trkpt>
      <trkpt lat="43.04278" lon="1.23368">
        <ele>526.8</ele>
        <time>2024-06-23T11:45:42Z</time>
      </trkpt>
      <trkpt lat="43.04274" lon="1.23364">
        <ele>526.8</ele>
        <time>2024-06-23T11:45:43Z</time>
      </trkpt>
      <trkpt lat="43.0427" lon="1.23359">
        <ele>527.4</ele>
        <time>2024-06-23T11:45:44Z</time>
      </trkpt>
      <trkpt lat="43.04265" lon="1.23356">
        <ele>527.8</ele>
        <time>2024-06-23T11:45:45Z</time>
      </trkpt>
      <trkpt lat="43.04261" lon="1.23352">
        <ele>527.8</ele>
        <time>2024-06-23T11:45:46Z</time>
      </trkpt>
      <trkpt lat="43.04257" lon="1.23348">
        <ele>528</ele>
        <time>2024-06-23T11:45:47Z</time>
      </trkpt>
      <trkpt lat="43.04252" lon="1.23345">
        <ele>528</ele>
        <time>2024-06-23T11:45:48Z</time>
      </trkpt>
      <trkpt lat="43.04248" lon="1.2334">
        <ele>528</ele>
        <time>2024-06-23T11:45:49Z</time>
      </trkpt>
      <trkpt lat="43.04244" lon="1.23336">
        <ele>528</ele>
        <time>2024-06-23T11:45:50Z</time>
      </trkpt>
      <trkpt lat="43.0424" lon="1.23332">
        <ele>528</ele>
        <time>2024-06-23T11:45:51Z</time>
      </trkpt>
      <trkpt lat="43.04237" lon="1.23327">
        <ele>527.6</ele>
        <time>2024-06-23T11:45:52Z</time>
      </trkpt>
      <trkpt lat="43.04233" lon="1.23321">
        <ele>527.2</ele>
        <time>2024-06-23T11:45:53Z</time>
      </trkpt>
      <trkpt lat="43.0423" lon="1.23315">
        <ele>526.8</ele>
        <time>2024-06-23T11:45:54Z</time>
      </trkpt>
      <trkpt lat="43.04226" lon="1.2331">
        <ele>526.8</ele>
        <time>2024-06-23T11:45:55Z</time>
      </trkpt>
      <trkpt lat="43.04224" lon="1.23303">
        <ele>527.2</ele>
        <time>2024-06-23T11:45:56Z</time>
      </trkpt>
      <trkpt lat="43.0422" lon="1.23297">
        <ele>526.8</ele>
        <time>2024-06-23T11:45:57Z</time>
      </trkpt>
      <trkpt lat="43.04216" lon="1.2329">
        <ele>526.2</ele>
        <time>2024-06-23T11:45:58Z</time>
      </trkpt>
      <trkpt lat="43.04212" lon="1.23284">
        <ele>526.2</ele>
        <time>2024-06-23T11:45:59Z</time>
      </trkpt>
      <trkpt lat="43.04208" lon="1.23277">
        <ele>525.8</ele>
        <time>2024-06-23T11:46:00Z</time>
      </trkpt>
      <trkpt lat="43.04204" lon="1.23271">
        <ele>525.6</ele>
        <time>2024-06-23T11:46:01Z</time>
      </trkpt>
      <trkpt lat="43.04199" lon="1.23265">
        <ele>525.2</ele>
        <time>2024-06-23T11:46:02Z</time>
      </trkpt>
      <trkpt lat="43.04189" lon="1.23251">
        <ele>524.8</ele>
        <time>2024-06-23T11:46:03Z</time>
      </trkpt>
      <trkpt lat="43.04183" lon="1.23244">
        <ele>524.2</ele>
        <time>2024-06-23T11:46:04Z</time>
      </trkpt>
      <trkpt lat="43.04178" lon="1.23238">
        <ele>523.2</ele>
        <time>2024-06-23T11:46:05Z</time>
      </trkpt>
      <trkpt lat="43.04172" lon="1.23232">
        <ele>522.6</ele>
        <time>2024-06-23T11:46:06Z</time>
      </trkpt>
      <trkpt lat="43.04165" lon="1.23225">
        <ele>522.6</ele>
        <time>2024-06-23T11:46:07Z</time>
      </trkpt>
      <trkpt lat="43.04158" lon="1.2322">
        <ele>522</ele>
        <time>2024-06-23T11:46:08Z</time>
      </trkpt>
      <trkpt lat="43.04151" lon="1.23215">
        <ele>521.6</ele>
        <time>2024-06-23T11:46:09Z</time>
      </trkpt>
      <trkpt lat="43.04142" lon="1.23211">
        <ele>521</ele>
        <time>2024-06-23T11:46:10Z</time>
      </trkpt>
      <trkpt lat="43.04133" lon="1.23207">
        <ele>520.4</ele>
        <time>2024-06-23T11:46:11Z</time>
      </trkpt>
      <trkpt lat="43.04124" lon="1.23205">
        <ele>519.8</ele>
        <time>2024-06-23T11:46:12Z</time>
      </trkpt>
      <trkpt lat="43.04115" lon="1.23205">
        <ele>519.2</ele>
        <time>2024-06-23T11:46:13Z</time>
      </trkpt>
      <trkpt lat="43.04105" lon="1.23204">
        <ele>518.4</ele>
        <time>2024-06-23T11:46:14Z</time>
      </trkpt>
      <trkpt lat="43.04096" lon="1.23204">
        <ele>518</ele>
        <time>2024-06-23T11:46:15Z</time>
      </trkpt>
      <trkpt lat="43.04086" lon="1.23204">
        <ele>517.4</ele>
        <time>2024-06-23T11:46:16Z</time>
      </trkpt>
      <trkpt lat="43.04077" lon="1.23205">
        <ele>517</ele>
        <time>2024-06-23T11:46:17Z</time>
      </trkpt>
      <trkpt lat="43.04068" lon="1.23205">
        <ele>517</ele>
        <time>2024-06-23T11:46:18Z</time>
      </trkpt>
      <trkpt lat="43.04059" lon="1.23204">
        <ele>516.6</ele>
        <time>2024-06-23T11:46:19Z</time>
      </trkpt>
      <trkpt lat="43.0405" lon="1.23203">
        <ele>516.2</ele>
        <time>2024-06-23T11:46:20Z</time>
      </trkpt>
      <trkpt lat="43.04041" lon="1.232">
        <ele>516</ele>
        <time>2024-06-23T11:46:21Z</time>
      </trkpt>
      <trkpt lat="43.04033" lon="1.23195">
        <ele>515.6</ele>
        <time>2024-06-23T11:46:22Z</time>
      </trkpt>
      <trkpt lat="43.04027" lon="1.2319">
        <ele>515.6</ele>
        <time>2024-06-23T11:46:23Z</time>
      </trkpt>
      <trkpt lat="43.04021" lon="1.23184">
        <ele>515.6</ele>
        <time>2024-06-23T11:46:24Z</time>
      </trkpt>
      <trkpt lat="43.04016" lon="1.23177">
        <ele>515.2</ele>
        <time>2024-06-23T11:46:25Z</time>
      </trkpt>
      <trkpt lat="43.04012" lon="1.2317">
        <ele>515.2</ele>
        <time>2024-06-23T11:46:26Z</time>
      </trkpt>
      <trkpt lat="43.04008" lon="1.23163">
        <ele>515.2</ele>
        <time>2024-06-23T11:46:27Z</time>
      </trkpt>
      <trkpt lat="43.04004" lon="1.23155">
        <ele>515.2</ele>
        <time>2024-06-23T11:46:28Z</time>
      </trkpt>
      <trkpt lat="43.04" lon="1.23146">
        <ele>515</ele>
        <time>2024-06-23T11:46:29Z</time>
      </trkpt>
      <trkpt lat="43.03998" lon="1.23137">
        <ele>515</ele>
        <time>2024-06-23T11:46:30Z</time>
      </trkpt>
      <trkpt lat="43.03995" lon="1.23128">
        <ele>515</ele>
        <time>2024-06-23T11:46:31Z</time>
      </trkpt>
      <trkpt lat="43.03993" lon="1.23119">
        <ele>515</ele>
        <time>2024-06-23T11:46:32Z</time>
      </trkpt>
      <trkpt lat="43.0399" lon="1.23111">
        <ele>514.8</ele>
        <time>2024-06-23T11:46:33Z</time>
      </trkpt>
      <trkpt lat="43.03987" lon="1.23103">
        <ele>514.6</ele>
        <time>2024-06-23T11:46:34Z</time>
      </trkpt>
      <trkpt lat="43.03984" lon="1.23097">
        <ele>514.8</ele>
        <time>2024-06-23T11:46:35Z</time>
      </trkpt>
      <trkpt lat="43.03981" lon="1.23092">
        <ele>514.8</ele>
        <time>2024-06-23T11:46:36Z</time>
      </trkpt>
      <trkpt lat="43.03977" lon="1.23088">
        <ele>515.2</ele>
        <time>2024-06-23T11:46:37Z</time>
      </trkpt>
      <trkpt lat="43.03973" lon="1.23084">
        <ele>515.2</ele>
        <time>2024-06-23T11:46:38Z</time>
      </trkpt>
      <trkpt lat="43.03969" lon="1.2308">
        <ele>515.6</ele>
        <time>2024-06-23T11:46:39Z</time>
      </trkpt>
      <trkpt lat="43.03964" lon="1.23077">
        <ele>515.8</ele>
        <time>2024-06-23T11:46:40Z</time>
      </trkpt>
      <trkpt lat="43.0396" lon="1.23075">
        <ele>515.8</ele>
        <time>2024-06-23T11:46:41Z</time>
      </trkpt>
      <trkpt lat="43.03956" lon="1.23073">
        <ele>516.4</ele>
        <time>2024-06-23T11:46:42Z</time>
      </trkpt>
      <trkpt lat="43.03952" lon="1.23071">
        <ele>516.8</ele>
        <time>2024-06-23T11:46:43Z</time>
      </trkpt>
      <trkpt lat="43.03948" lon="1.23069">
        <ele>516.8</ele>
        <time>2024-06-23T11:46:44Z</time>
      </trkpt>
      <trkpt lat="43.03945" lon="1.23067">
        <ele>517.2</ele>
        <time>2024-06-23T11:46:45Z</time>
      </trkpt>
      <trkpt lat="43.03942" lon="1.23063">
        <ele>517.4</ele>
        <time>2024-06-23T11:46:46Z</time>
      </trkpt>
      <trkpt lat="43.03939" lon="1.23059">
        <ele>517.4</ele>
        <time>2024-06-23T11:46:47Z</time>
      </trkpt>
      <trkpt lat="43.03935" lon="1.23056">
        <ele>518.2</ele>
        <time>2024-06-23T11:46:48Z</time>
      </trkpt>
      <trkpt lat="43.03931" lon="1.23052">
        <ele>518.6</ele>
        <time>2024-06-23T11:46:49Z</time>
      </trkpt>
      <trkpt lat="43.03928" lon="1.23048">
        <ele>519</ele>
        <time>2024-06-23T11:46:50Z</time>
      </trkpt>
      <trkpt lat="43.03925" lon="1.23044">
        <ele>519.2</ele>
        <time>2024-06-23T11:46:51Z</time>
      </trkpt>
      <trkpt lat="43.03922" lon="1.2304">
        <ele>519.6</ele>
        <time>2024-06-23T11:46:52Z</time>
      </trkpt>
      <trkpt lat="43.03919" lon="1.23036">
        <ele>519.8</ele>
        <time>2024-06-23T11:46:53Z</time>
      </trkpt>
      <trkpt lat="43.03917" lon="1.2303">
        <ele>520.2</ele>
        <time>2024-06-23T11:46:54Z</time>
      </trkpt>
      <trkpt lat="43.03915" lon="1.23025">
        <ele>520.4</ele>
        <time>2024-06-23T11:46:55Z</time>
      </trkpt>
      <trkpt lat="43.03912" lon="1.2302">
        <ele>520.4</ele>
        <time>2024-06-23T11:46:56Z</time>
      </trkpt>
      <trkpt lat="43.0391" lon="1.23014">
        <ele>520.4</ele>
        <time>2024-06-23T11:46:57Z</time>
      </trkpt>
      <trkpt lat="43.03907" lon="1.23008">
        <ele>520.8</ele>
        <time>2024-06-23T11:46:58Z</time>
      </trkpt>
      <trkpt lat="43.03905" lon="1.23002">
        <ele>520.8</ele>
        <time>2024-06-23T11:46:59Z</time>
      </trkpt>
      <trkpt lat="43.03902" lon="1.22997">
        <ele>521</ele>
        <time>2024-06-23T11:47:00Z</time>
      </trkpt>
      <trkpt lat="43.03899" lon="1.22991">
        <ele>521.4</ele>
        <time>2024-06-23T11:47:01Z</time>
      </trkpt>
      <trkpt lat="43.03896" lon="1.22986">
        <ele>521.2</ele>
        <time>2024-06-23T11:47:02Z</time>
      </trkpt>
      <trkpt lat="43.03893" lon="1.2298">
        <ele>521</ele>
        <time>2024-06-23T11:47:03Z</time>
      </trkpt>
      <trkpt lat="43.0389" lon="1.22975">
        <ele>520.4</ele>
        <time>2024-06-23T11:47:04Z</time>
      </trkpt>
      <trkpt lat="43.03887" lon="1.2297">
        <ele>520.4</ele>
        <time>2024-06-23T11:47:05Z</time>
      </trkpt>
      <trkpt lat="43.03883" lon="1.22965">
        <ele>520.4</ele>
        <time>2024-06-23T11:47:06Z</time>
      </trkpt>
      <trkpt lat="43.03879" lon="1.2296">
        <ele>520.8</ele>
        <time>2024-06-23T11:47:07Z</time>
      </trkpt>
      <trkpt lat="43.03875" lon="1.22956">
        <ele>520.8</ele>
        <time>2024-06-23T11:47:08Z</time>
      </trkpt>
      <trkpt lat="43.03871" lon="1.22951">
        <ele>520.8</ele>
        <time>2024-06-23T11:47:09Z</time>
      </trkpt>
      <trkpt lat="43.03867" lon="1.22947">
        <ele>521.2</ele>
        <time>2024-06-23T11:47:10Z</time>
      </trkpt>
      <trkpt lat="43.03863" lon="1.22944">
        <ele>521.2</ele>
        <time>2024-06-23T11:47:11Z</time>
      </trkpt>
      <trkpt lat="43.03858" lon="1.22941">
        <ele>521.2</ele>
        <time>2024-06-23T11:47:12Z</time>
      </trkpt>
      <trkpt lat="43.03853" lon="1.22938">
        <ele>521.2</ele>
        <time>2024-06-23T11:47:13Z</time>
      </trkpt>
      <trkpt lat="43.03848" lon="1.22935">
        <ele>520.8</ele>
        <time>2024-06-23T11:47:14Z</time>
      </trkpt>
      <trkpt lat="43.03843" lon="1.22933">
        <ele>520.8</ele>
        <time>2024-06-23T11:47:15Z</time>
      </trkpt>
      <trkpt lat="43.03837" lon="1.22929">
        <ele>520.4</ele>
        <time>2024-06-23T11:47:16Z</time>
      </trkpt>
      <trkpt lat="43.03832" lon="1.22925">
        <ele>520.2</ele>
        <time>2024-06-23T11:47:17Z</time>
      </trkpt>
      <trkpt lat="43.03826" lon="1.2292">
        <ele>520</ele>
        <time>2024-06-23T11:47:18Z</time>
      </trkpt>
      <trkpt lat="43.03821" lon="1.22915">
        <ele>519.6</ele>
        <time>2024-06-23T11:47:19Z</time>
      </trkpt>
      <trkpt lat="43.03815" lon="1.2291">
        <ele>519.2</ele>
        <time>2024-06-23T11:47:20Z</time>
      </trkpt>
      <trkpt lat="43.0381" lon="1.22904">
        <ele>519</ele>
        <time>2024-06-23T11:47:21Z</time>
      </trkpt>
      <trkpt lat="43.03804" lon="1.22897">
        <ele>518.6</ele>
        <time>2024-06-23T11:47:22Z</time>
      </trkpt>
      <trkpt lat="43.03797" lon="1.2289">
        <ele>518.2</ele>
        <time>2024-06-23T11:47:23Z</time>
      </trkpt>
      <trkpt lat="43.03791" lon="1.22885">
        <ele>517.8</ele>
        <time>2024-06-23T11:47:24Z</time>
      </trkpt>
      <trkpt lat="43.03784" lon="1.22879">
        <ele>517.2</ele>
        <time>2024-06-23T11:47:25Z</time>
      </trkpt>
      <trkpt lat="43.03778" lon="1.22873">
        <ele>516.8</ele>
        <time>2024-06-23T11:47:26Z</time>
      </trkpt>
      <trkpt lat="43.03771" lon="1.22868">
        <ele>516.8</ele>
        <time>2024-06-23T11:47:27Z</time>
      </trkpt>
      <trkpt lat="43.03764" lon="1.22862">
        <ele>516.8</ele>
        <time>2024-06-23T11:47:28Z</time>
      </trkpt>
      <trkpt lat="43.03758" lon="1.22856">
        <ele>516.2</ele>
        <time>2024-06-23T11:47:29Z</time>
      </trkpt>
      <trkpt lat="43.03751" lon="1.22851">
        <ele>516.2</ele>
        <time>2024-06-23T11:47:30Z</time>
      </trkpt>
      <trkpt lat="43.03745" lon="1.22846">
        <ele>515.8</ele>
        <time>2024-06-23T11:47:31Z</time>
      </trkpt>
      <trkpt lat="43.03739" lon="1.2284">
        <ele>515.4</ele>
        <time>2024-06-23T11:47:32Z</time>
      </trkpt>
      <trkpt lat="43.03733" lon="1.22835">
        <ele>515.4</ele>
        <time>2024-06-23T11:47:33Z</time>
      </trkpt>
      <trkpt lat="43.03727" lon="1.22828">
        <ele>515.8</ele>
        <time>2024-06-23T11:47:34Z</time>
      </trkpt>
      <trkpt lat="43.03722" lon="1.22822">
        <ele>515.8</ele>
        <time>2024-06-23T11:47:35Z</time>
      </trkpt>
      <trkpt lat="43.03717" lon="1.22816">
        <ele>515.4</ele>
        <time>2024-06-23T11:47:36Z</time>
      </trkpt>
      <trkpt lat="43.03712" lon="1.22809">
        <ele>515.4</ele>
        <time>2024-06-23T11:47:37Z</time>
      </trkpt>
      <trkpt lat="43.03707" lon="1.22802">
        <ele>514.8</ele>
        <time>2024-06-23T11:47:38Z</time>
      </trkpt>
      <trkpt lat="43.03703" lon="1.22795">
        <ele>514.6</ele>
        <time>2024-06-23T11:47:39Z</time>
      </trkpt>
      <trkpt lat="43.03698" lon="1.22789">
        <ele>514.6</ele>
        <time>2024-06-23T11:47:40Z</time>
      </trkpt>
      <trkpt lat="43.03695" lon="1.22783">
        <ele>514.6</ele>
        <time>2024-06-23T11:47:41Z</time>
      </trkpt>
      <trkpt lat="43.03691" lon="1.22777">
        <ele>514.6</ele>
        <time>2024-06-23T11:47:42Z</time>
      </trkpt>
      <trkpt lat="43.03688" lon="1.22771">
        <ele>514.6</ele>
        <time>2024-06-23T11:47:43Z</time>
      </trkpt>
      <trkpt lat="43.03685" lon="1.22763">
        <ele>514.6</ele>
        <time>2024-06-23T11:47:44Z</time>
      </trkpt>
      <trkpt lat="43.03683" lon="1.22754">
        <ele>514</ele>
        <time>2024-06-23T11:47:45Z</time>
      </trkpt>
      <trkpt lat="43.0368" lon="1.22747">
        <ele>513.8</ele>
        <time>2024-06-23T11:47:46Z</time>
      </trkpt>
      <trkpt lat="43.03677" lon="1.22737">
        <ele>513.4</ele>
        <time>2024-06-23T11:47:47Z</time>
      </trkpt>
      <trkpt lat="43.03675" lon="1.22728">
        <ele>513.4</ele>
        <time>2024-06-23T11:47:48Z</time>
      </trkpt>
      <trkpt lat="43.03674" lon="1.22719">
        <ele>513.2</ele>
        <time>2024-06-23T11:47:49Z</time>
      </trkpt>
      <trkpt lat="43.03672" lon="1.22709">
        <ele>512.8</ele>
        <time>2024-06-23T11:47:50Z</time>
      </trkpt>
      <trkpt lat="43.03671" lon="1.22699">
        <ele>512.6</ele>
        <time>2024-06-23T11:47:51Z</time>
      </trkpt>
      <trkpt lat="43.0367" lon="1.2269">
        <ele>512.4</ele>
        <time>2024-06-23T11:47:52Z</time>
      </trkpt>
      <trkpt lat="43.03669" lon="1.2268">
        <ele>512</ele>
        <time>2024-06-23T11:47:53Z</time>
      </trkpt>
      <trkpt lat="43.03669" lon="1.22669">
        <ele>511.6</ele>
        <time>2024-06-23T11:47:54Z</time>
      </trkpt>
      <trkpt lat="43.03669" lon="1.22659">
        <ele>511.2</ele>
        <time>2024-06-23T11:47:55Z</time>
      </trkpt>
      <trkpt lat="43.0367" lon="1.22649">
        <ele>511</ele>
        <time>2024-06-23T11:47:56Z</time>
      </trkpt>
      <trkpt lat="43.03671" lon="1.22639">
        <ele>511</ele>
        <time>2024-06-23T11:47:57Z</time>
      </trkpt>
      <trkpt lat="43.03674" lon="1.22629">
        <ele>510.6</ele>
        <time>2024-06-23T11:47:58Z</time>
      </trkpt>
      <trkpt lat="43.03676" lon="1.22619">
        <ele>510.2</ele>
        <time>2024-06-23T11:47:59Z</time>
      </trkpt>
      <trkpt lat="43.03678" lon="1.22608">
        <ele>509.6</ele>
        <time>2024-06-23T11:48:00Z</time>
      </trkpt>
      <trkpt lat="43.03679" lon="1.22597">
        <ele>509.6</ele>
        <time>2024-06-23T11:48:01Z</time>
      </trkpt>
      <trkpt lat="43.03679" lon="1.22586">
        <ele>509</ele>
        <time>2024-06-23T11:48:02Z</time>
      </trkpt>
      <trkpt lat="43.03679" lon="1.22575">
        <ele>508.4</ele>
        <time>2024-06-23T11:48:03Z</time>
      </trkpt>
      <trkpt lat="43.03679" lon="1.22564">
        <ele>508.4</ele>
        <time>2024-06-23T11:48:04Z</time>
      </trkpt>
      <trkpt lat="43.03679" lon="1.22553">
        <ele>508</ele>
        <time>2024-06-23T11:48:05Z</time>
      </trkpt>
      <trkpt lat="43.03679" lon="1.22541">
        <ele>507.6</ele>
        <time>2024-06-23T11:48:06Z</time>
      </trkpt>
      <trkpt lat="43.0368" lon="1.22531">
        <ele>507.6</ele>
        <time>2024-06-23T11:48:07Z</time>
      </trkpt>
      <trkpt lat="43.03681" lon="1.2252">
        <ele>507.2</ele>
        <time>2024-06-23T11:48:08Z</time>
      </trkpt>
      <trkpt lat="43.03684" lon="1.22509">
        <ele>507</ele>
        <time>2024-06-23T11:48:09Z</time>
      </trkpt>
      <trkpt lat="43.03685" lon="1.22498">
        <ele>506.4</ele>
        <time>2024-06-23T11:48:10Z</time>
      </trkpt>
      <trkpt lat="43.03687" lon="1.22486">
        <ele>506.4</ele>
        <time>2024-06-23T11:48:11Z</time>
      </trkpt>
      <trkpt lat="43.03689" lon="1.22475">
        <ele>505.6</ele>
        <time>2024-06-23T11:48:12Z</time>
      </trkpt>
      <trkpt lat="43.0369" lon="1.22464">
        <ele>505.6</ele>
        <time>2024-06-23T11:48:13Z</time>
      </trkpt>
      <trkpt lat="43.03692" lon="1.22453">
        <ele>504.6</ele>
        <time>2024-06-23T11:48:14Z</time>
      </trkpt>
      <trkpt lat="43.03694" lon="1.22441">
        <ele>504.2</ele>
        <time>2024-06-23T11:48:15Z</time>
      </trkpt>
      <trkpt lat="43.03697" lon="1.2243">
        <ele>504.2</ele>
        <time>2024-06-23T11:48:16Z</time>
      </trkpt>
      <trkpt lat="43.037" lon="1.2242">
        <ele>503.8</ele>
        <time>2024-06-23T11:48:17Z</time>
      </trkpt>
      <trkpt lat="43.03703" lon="1.2241">
        <ele>503.4</ele>
        <time>2024-06-23T11:48:18Z</time>
      </trkpt>
      <trkpt lat="43.03707" lon="1.22399">
        <ele>502.8</ele>
        <time>2024-06-23T11:48:19Z</time>
      </trkpt>
      <trkpt lat="43.03712" lon="1.22389">
        <ele>502.2</ele>
        <time>2024-06-23T11:48:20Z</time>
      </trkpt>
      <trkpt lat="43.03717" lon="1.22379">
        <ele>501.8</ele>
        <time>2024-06-23T11:48:21Z</time>
      </trkpt>
      <trkpt lat="43.03722" lon="1.2237">
        <ele>501</ele>
        <time>2024-06-23T11:48:22Z</time>
      </trkpt>
      <trkpt lat="43.03727" lon="1.22362">
        <ele>501</ele>
        <time>2024-06-23T11:48:23Z</time>
      </trkpt>
      <trkpt lat="43.03732" lon="1.22354">
        <ele>500.6</ele>
        <time>2024-06-23T11:48:24Z</time>
      </trkpt>
      <trkpt lat="43.03739" lon="1.22346">
        <ele>500.2</ele>
        <time>2024-06-23T11:48:25Z</time>
      </trkpt>
      <trkpt lat="43.03744" lon="1.22337">
        <ele>500</ele>
        <time>2024-06-23T11:48:26Z</time>
      </trkpt>
      <trkpt lat="43.0375" lon="1.2233">
        <ele>500</ele>
        <time>2024-06-23T11:48:27Z</time>
      </trkpt>
      <trkpt lat="43.03755" lon="1.22322">
        <ele>499.6</ele>
        <time>2024-06-23T11:48:28Z</time>
      </trkpt>
      <trkpt lat="43.03761" lon="1.22315">
        <ele>499.6</ele>
        <time>2024-06-23T11:48:29Z</time>
      </trkpt>
      <trkpt lat="43.03766" lon="1.22308">
        <ele>499</ele>
        <time>2024-06-23T11:48:30Z</time>
      </trkpt>
      <trkpt lat="43.03766" lon="1.22308">
        <ele>499</ele>
        <time>2024-06-23T11:48:31Z</time>
      </trkpt>
      <trkpt lat="43.03772" lon="1.223">
        <ele>498.6</ele>
        <time>2024-06-23T11:48:32Z</time>
      </trkpt>
      <trkpt lat="43.03777" lon="1.22294">
        <ele>498.4</ele>
        <time>2024-06-23T11:48:33Z</time>
      </trkpt>
      <trkpt lat="43.03783" lon="1.22286">
        <ele>498</ele>
        <time>2024-06-23T11:48:34Z</time>
      </trkpt>
      <trkpt lat="43.03788" lon="1.22279">
        <ele>497.8</ele>
        <time>2024-06-23T11:48:35Z</time>
      </trkpt>
      <trkpt lat="43.03794" lon="1.22271">
        <ele>497.8</ele>
        <time>2024-06-23T11:48:36Z</time>
      </trkpt>
      <trkpt lat="43.03799" lon="1.22263">
        <ele>497.4</ele>
        <time>2024-06-23T11:48:37Z</time>
      </trkpt>
      <trkpt lat="43.03805" lon="1.22256">
        <ele>497.4</ele>
        <time>2024-06-23T11:48:38Z</time>
      </trkpt>
      <trkpt lat="43.0381" lon="1.22249">
        <ele>497.2</ele>
        <time>2024-06-23T11:48:39Z</time>
      </trkpt>
      <trkpt lat="43.03815" lon="1.22242">
        <ele>497</ele>
        <time>2024-06-23T11:48:40Z</time>
      </trkpt>
      <trkpt lat="43.03821" lon="1.22235">
        <ele>496.8</ele>
        <time>2024-06-23T11:48:41Z</time>
      </trkpt>
      <trkpt lat="43.03826" lon="1.22227">
        <ele>496.6</ele>
        <time>2024-06-23T11:48:42Z</time>
      </trkpt>
      <trkpt lat="43.03831" lon="1.2222">
        <ele>496.6</ele>
        <time>2024-06-23T11:48:43Z</time>
      </trkpt>
      <trkpt lat="43.03836" lon="1.22213">
        <ele>496.6</ele>
        <time>2024-06-23T11:48:44Z</time>
      </trkpt>
      <trkpt lat="43.03841" lon="1.22205">
        <ele>496.6</ele>
        <time>2024-06-23T11:48:45Z</time>
      </trkpt>
      <trkpt lat="43.03844" lon="1.22198">
        <ele>496.2</ele>
        <time>2024-06-23T11:48:46Z</time>
      </trkpt>
      <trkpt lat="43.03847" lon="1.22189">
        <ele>496.2</ele>
        <time>2024-06-23T11:48:47Z</time>
      </trkpt>
      <trkpt lat="43.03848" lon="1.22182">
        <ele>496</ele>
        <time>2024-06-23T11:48:48Z</time>
      </trkpt>
      <trkpt lat="43.03843" lon="1.22174">
        <ele>496</ele>
        <time>2024-06-23T11:48:49Z</time>
      </trkpt>
      <trkpt lat="43.03839" lon="1.22168">
        <ele>496</ele>
        <time>2024-06-23T11:48:50Z</time>
      </trkpt>
      <trkpt lat="43.03834" lon="1.22165">
        <ele>496</ele>
        <time>2024-06-23T11:48:51Z</time>
      </trkpt>
      <trkpt lat="43.03828" lon="1.22164">
        <ele>496</ele>
        <time>2024-06-23T11:48:52Z</time>
      </trkpt>
      <trkpt lat="43.03821" lon="1.22162">
        <ele>496</ele>
        <time>2024-06-23T11:48:53Z</time>
      </trkpt>
      <trkpt lat="43.03815" lon="1.22162">
        <ele>496.2</ele>
        <time>2024-06-23T11:48:54Z</time>
      </trkpt>
      <trkpt lat="43.03809" lon="1.22161">
        <ele>495.8</ele>
        <time>2024-06-23T11:48:55Z</time>
      </trkpt>
      <trkpt lat="43.03802" lon="1.22162">
        <ele>495.8</ele>
        <time>2024-06-23T11:48:56Z</time>
      </trkpt>
      <trkpt lat="43.03795" lon="1.22163">
        <ele>495.8</ele>
        <time>2024-06-23T11:48:57Z</time>
      </trkpt>
      <trkpt lat="43.03789" lon="1.22164">
        <ele>495.6</ele>
        <time>2024-06-23T11:48:58Z</time>
      </trkpt>
      <trkpt lat="43.03783" lon="1.22165">
        <ele>495.6</ele>
        <time>2024-06-23T11:48:59Z</time>
      </trkpt>
      <trkpt lat="43.03777" lon="1.22164">
        <ele>495.6</ele>
        <time>2024-06-23T11:49:00Z</time>
      </trkpt>
      <trkpt lat="43.03771" lon="1.22165">
        <ele>495.8</ele>
        <time>2024-06-23T11:49:01Z</time>
      </trkpt>
      <trkpt lat="43.03765" lon="1.22168">
        <ele>496.2</ele>
        <time>2024-06-23T11:49:02Z</time>
      </trkpt>
      <trkpt lat="43.03759" lon="1.22169">
        <ele>496.2</ele>
        <time>2024-06-23T11:49:03Z</time>
      </trkpt>
      <trkpt lat="43.03753" lon="1.22171">
        <ele>496.6</ele>
        <time>2024-06-23T11:49:04Z</time>
      </trkpt>
      <trkpt lat="43.03747" lon="1.22172">
        <ele>496.6</ele>
        <time>2024-06-23T11:49:05Z</time>
      </trkpt>
      <trkpt lat="43.03741" lon="1.22173">
        <ele>496.2</ele>
        <time>2024-06-23T11:49:06Z</time>
      </trkpt>
      <trkpt lat="43.03734" lon="1.22174">
        <ele>496.2</ele>
        <time>2024-06-23T11:49:07Z</time>
      </trkpt>
      <trkpt lat="43.03727" lon="1.22175">
        <ele>496</ele>
        <time>2024-06-23T11:49:08Z</time>
      </trkpt>
      <trkpt lat="43.03721" lon="1.22172">
        <ele>495.6</ele>
        <time>2024-06-23T11:49:09Z</time>
      </trkpt>
      <trkpt lat="43.03715" lon="1.22167">
        <ele>495.6</ele>
        <time>2024-06-23T11:49:10Z</time>
      </trkpt>
      <trkpt lat="43.03711" lon="1.22161">
        <ele>495.2</ele>
        <time>2024-06-23T11:49:11Z</time>
      </trkpt>
      <trkpt lat="43.03708" lon="1.22154">
        <ele>495.4</ele>
        <time>2024-06-23T11:49:12Z</time>
      </trkpt>
      <trkpt lat="43.03706" lon="1.22146">
        <ele>495.4</ele>
        <time>2024-06-23T11:49:13Z</time>
      </trkpt>
      <trkpt lat="43.03705" lon="1.22138">
        <ele>495.2</ele>
        <time>2024-06-23T11:49:14Z</time>
      </trkpt>
      <trkpt lat="43.03704" lon="1.22129">
        <ele>495.2</ele>
        <time>2024-06-23T11:49:15Z</time>
      </trkpt>
      <trkpt lat="43.03704" lon="1.22121">
        <ele>495.2</ele>
        <time>2024-06-23T11:49:16Z</time>
      </trkpt>
      <trkpt lat="43.03703" lon="1.22113">
        <ele>495.2</ele>
        <time>2024-06-23T11:49:17Z</time>
      </trkpt>
      <trkpt lat="43.03702" lon="1.22105">
        <ele>495.2</ele>
        <time>2024-06-23T11:49:18Z</time>
      </trkpt>
      <trkpt lat="43.037" lon="1.22097">
        <ele>495.2</ele>
        <time>2024-06-23T11:49:19Z</time>
      </trkpt>
      <trkpt lat="43.03698" lon="1.2209">
        <ele>495.2</ele>
        <time>2024-06-23T11:49:20Z</time>
      </trkpt>
      <trkpt lat="43.03694" lon="1.22082">
        <ele>495.4</ele>
        <time>2024-06-23T11:49:21Z</time>
      </trkpt>
      <trkpt lat="43.03691" lon="1.22076">
        <ele>495.4</ele>
        <time>2024-06-23T11:49:22Z</time>
      </trkpt>
      <trkpt lat="43.03687" lon="1.2207">
        <ele>495.4</ele>
        <time>2024-06-23T11:49:23Z</time>
      </trkpt>
      <trkpt lat="43.03682" lon="1.22064">
        <ele>495.2</ele>
        <time>2024-06-23T11:49:24Z</time>
      </trkpt>
      <trkpt lat="43.03676" lon="1.22059">
        <ele>495.2</ele>
        <time>2024-06-23T11:49:25Z</time>
      </trkpt>
      <trkpt lat="43.03671" lon="1.22054">
        <ele>495.4</ele>
        <time>2024-06-23T11:49:26Z</time>
      </trkpt>
      <trkpt lat="43.03666" lon="1.22049">
        <ele>495.4</ele>
        <time>2024-06-23T11:49:27Z</time>
      </trkpt>
      <trkpt lat="43.03662" lon="1.22044">
        <ele>495.4</ele>
        <time>2024-06-23T11:49:28Z</time>
      </trkpt>
      <trkpt lat="43.03658" lon="1.22038">
        <ele>495.4</ele>
        <time>2024-06-23T11:49:29Z</time>
      </trkpt>
      <trkpt lat="43.03653" lon="1.22032">
        <ele>495.2</ele>
        <time>2024-06-23T11:49:30Z</time>
      </trkpt>
      <trkpt lat="43.03648" lon="1.22025">
        <ele>495.2</ele>
        <time>2024-06-23T11:49:31Z</time>
      </trkpt>
      <trkpt lat="43.03643" lon="1.2202">
        <ele>495.2</ele>
        <time>2024-06-23T11:49:32Z</time>
      </trkpt>
      <trkpt lat="43.03639" lon="1.22016">
        <ele>495.2</ele>
        <time>2024-06-23T11:49:33Z</time>
      </trkpt>
      <trkpt lat="43.03634" lon="1.22012">
        <ele>495.2</ele>
        <time>2024-06-23T11:49:34Z</time>
      </trkpt>
      <trkpt lat="43.03628" lon="1.22008">
        <ele>495.2</ele>
        <time>2024-06-23T11:49:35Z</time>
      </trkpt>
      <trkpt lat="43.03622" lon="1.22005">
        <ele>495.2</ele>
        <time>2024-06-23T11:49:36Z</time>
      </trkpt>
      <trkpt lat="43.03616" lon="1.22002">
        <ele>495.2</ele>
        <time>2024-06-23T11:49:37Z</time>
      </trkpt>
      <trkpt lat="43.03611" lon="1.22">
        <ele>495.2</ele>
        <time>2024-06-23T11:49:38Z</time>
      </trkpt>
      <trkpt lat="43.03605" lon="1.21998">
        <ele>495.4</ele>
        <time>2024-06-23T11:49:39Z</time>
      </trkpt>
      <trkpt lat="43.03599" lon="1.21997">
        <ele>495.4</ele>
        <time>2024-06-23T11:49:40Z</time>
      </trkpt>
      <trkpt lat="43.03593" lon="1.21995">
        <ele>495.4</ele>
        <time>2024-06-23T11:49:41Z</time>
      </trkpt>
      <trkpt lat="43.03587" lon="1.21995">
        <ele>495.4</ele>
        <time>2024-06-23T11:49:42Z</time>
      </trkpt>
      <trkpt lat="43.03581" lon="1.21994">
        <ele>495.4</ele>
        <time>2024-06-23T11:49:43Z</time>
      </trkpt>
      <trkpt lat="43.03575" lon="1.21992">
        <ele>495.4</ele>
        <time>2024-06-23T11:49:44Z</time>
      </trkpt>
      <trkpt lat="43.03569" lon="1.2199">
        <ele>495</ele>
        <time>2024-06-23T11:49:45Z</time>
      </trkpt>
      <trkpt lat="43.03563" lon="1.21989">
        <ele>495</ele>
        <time>2024-06-23T11:49:46Z</time>
      </trkpt>
      <trkpt lat="43.03557" lon="1.21986">
        <ele>495</ele>
        <time>2024-06-23T11:49:47Z</time>
      </trkpt>
      <trkpt lat="43.03552" lon="1.21983">
        <ele>495</ele>
        <time>2024-06-23T11:49:48Z</time>
      </trkpt>
      <trkpt lat="43.03547" lon="1.21979">
        <ele>495</ele>
        <time>2024-06-23T11:49:49Z</time>
      </trkpt>
      <trkpt lat="43.03542" lon="1.21975">
        <ele>494.8</ele>
        <time>2024-06-23T11:49:50Z</time>
      </trkpt>
      <trkpt lat="43.03536" lon="1.21972">
        <ele>494.8</ele>
        <time>2024-06-23T11:49:51Z</time>
      </trkpt>
      <trkpt lat="43.03531" lon="1.21968">
        <ele>495</ele>
        <time>2024-06-23T11:49:52Z</time>
      </trkpt>
      <trkpt lat="43.03527" lon="1.21963">
        <ele>495.2</ele>
        <time>2024-06-23T11:49:53Z</time>
      </trkpt>
      <trkpt lat="43.03522" lon="1.21958">
        <ele>495.2</ele>
        <time>2024-06-23T11:49:54Z</time>
      </trkpt>
      <trkpt lat="43.03519" lon="1.2195">
        <ele>495</ele>
        <time>2024-06-23T11:49:55Z</time>
      </trkpt>
      <trkpt lat="43.03517" lon="1.21943">
        <ele>495</ele>
        <time>2024-06-23T11:49:56Z</time>
      </trkpt>
      <trkpt lat="43.03517" lon="1.21936">
        <ele>495</ele>
        <time>2024-06-23T11:49:57Z</time>
      </trkpt>
      <trkpt lat="43.03519" lon="1.21929">
        <ele>494.8</ele>
        <time>2024-06-23T11:49:58Z</time>
      </trkpt>
      <trkpt lat="43.03521" lon="1.21922">
        <ele>494.8</ele>
        <time>2024-06-23T11:49:59Z</time>
      </trkpt>
      <trkpt lat="43.03525" lon="1.21916">
        <ele>494.8</ele>
        <time>2024-06-23T11:50:00Z</time>
      </trkpt>
      <trkpt lat="43.03529" lon="1.21909">
        <ele>494.8</ele>
        <time>2024-06-23T11:50:01Z</time>
      </trkpt>
      <trkpt lat="43.03532" lon="1.21903">
        <ele>495</ele>
        <time>2024-06-23T11:50:02Z</time>
      </trkpt>
      <trkpt lat="43.03536" lon="1.21897">
        <ele>495</ele>
        <time>2024-06-23T11:50:03Z</time>
      </trkpt>
      <trkpt lat="43.0354" lon="1.21891">
        <ele>495</ele>
        <time>2024-06-23T11:50:04Z</time>
      </trkpt>
      <trkpt lat="43.03544" lon="1.21885">
        <ele>495</ele>
        <time>2024-06-23T11:50:05Z</time>
      </trkpt>
      <trkpt lat="43.03548" lon="1.21878">
        <ele>495</ele>
        <time>2024-06-23T11:50:06Z</time>
      </trkpt>
      <trkpt lat="43.03551" lon="1.21872">
        <ele>494.4</ele>
        <time>2024-06-23T11:50:07Z</time>
      </trkpt>
      <trkpt lat="43.03555" lon="1.21866">
        <ele>494.8</ele>
        <time>2024-06-23T11:50:08Z</time>
      </trkpt>
      <trkpt lat="43.03559" lon="1.2186">
        <ele>494.4</ele>
        <time>2024-06-23T11:50:09Z</time>
      </trkpt>
      <trkpt lat="43.03563" lon="1.21855">
        <ele>494</ele>
        <time>2024-06-23T11:50:10Z</time>
      </trkpt>
      <trkpt lat="43.03565" lon="1.21846">
        <ele>493.8</ele>
        <time>2024-06-23T11:50:11Z</time>
      </trkpt>
      <trkpt lat="43.03567" lon="1.21838">
        <ele>493.8</ele>
        <time>2024-06-23T11:50:12Z</time>
      </trkpt>
      <trkpt lat="43.03564" lon="1.21829">
        <ele>493.4</ele>
        <time>2024-06-23T11:50:13Z</time>
      </trkpt>
      <trkpt lat="43.0356" lon="1.21822">
        <ele>493.2</ele>
        <time>2024-06-23T11:50:14Z</time>
      </trkpt>
      <trkpt lat="43.03555" lon="1.21819">
        <ele>493.2</ele>
        <time>2024-06-23T11:50:15Z</time>
      </trkpt>
      <trkpt lat="43.03543" lon="1.21819">
        <ele>493.2</ele>
        <time>2024-06-23T11:50:16Z</time>
      </trkpt>
      <trkpt lat="43.03538" lon="1.21821">
        <ele>493.2</ele>
        <time>2024-06-23T11:50:17Z</time>
      </trkpt>
      <trkpt lat="43.03532" lon="1.21824">
        <ele>493</ele>
        <time>2024-06-23T11:50:18Z</time>
      </trkpt>
      <trkpt lat="43.03527" lon="1.21826">
        <ele>493</ele>
        <time>2024-06-23T11:50:19Z</time>
      </trkpt>
      <trkpt lat="43.03522" lon="1.21829">
        <ele>493</ele>
        <time>2024-06-23T11:50:20Z</time>
      </trkpt>
      <trkpt lat="43.03517" lon="1.21832">
        <ele>493.2</ele>
        <time>2024-06-23T11:50:21Z</time>
      </trkpt>
      <trkpt lat="43.03512" lon="1.21836">
        <ele>493.2</ele>
        <time>2024-06-23T11:50:22Z</time>
      </trkpt>
      <trkpt lat="43.03507" lon="1.21839">
        <ele>493</ele>
        <time>2024-06-23T11:50:23Z</time>
      </trkpt>
      <trkpt lat="43.03502" lon="1.21842">
        <ele>493</ele>
        <time>2024-06-23T11:50:24Z</time>
      </trkpt>
      <trkpt lat="43.03497" lon="1.21844">
        <ele>493</ele>
        <time>2024-06-23T11:50:25Z</time>
      </trkpt>
      <trkpt lat="43.03492" lon="1.21846">
        <ele>493</ele>
        <time>2024-06-23T11:50:26Z</time>
      </trkpt>
      <trkpt lat="43.03488" lon="1.21848">
        <ele>493.4</ele>
        <time>2024-06-23T11:50:27Z</time>
      </trkpt>
      <trkpt lat="43.03483" lon="1.21848">
        <ele>493.4</ele>
        <time>2024-06-23T11:50:28Z</time>
      </trkpt>
      <trkpt lat="43.03478" lon="1.21849">
        <ele>493.6</ele>
        <time>2024-06-23T11:50:29Z</time>
      </trkpt>
      <trkpt lat="43.03472" lon="1.21849">
        <ele>494</ele>
        <time>2024-06-23T11:50:30Z</time>
      </trkpt>
      <trkpt lat="43.03467" lon="1.21849">
        <ele>493.6</ele>
        <time>2024-06-23T11:50:31Z</time>
      </trkpt>
      <trkpt lat="43.03461" lon="1.21851">
        <ele>493.6</ele>
        <time>2024-06-23T11:50:32Z</time>
      </trkpt>
      <trkpt lat="43.03456" lon="1.21853">
        <ele>494</ele>
        <time>2024-06-23T11:50:33Z</time>
      </trkpt>
      <trkpt lat="43.0345" lon="1.21856">
        <ele>494.4</ele>
        <time>2024-06-23T11:50:34Z</time>
      </trkpt>
      <trkpt lat="43.03445" lon="1.2186">
        <ele>494.4</ele>
        <time>2024-06-23T11:50:35Z</time>
      </trkpt>
      <trkpt lat="43.03441" lon="1.21863">
        <ele>494</ele>
        <time>2024-06-23T11:50:36Z</time>
      </trkpt>
      <trkpt lat="43.03437" lon="1.21868">
        <ele>494</ele>
        <time>2024-06-23T11:50:37Z</time>
      </trkpt>
      <trkpt lat="43.03433" lon="1.21871">
        <ele>494</ele>
        <time>2024-06-23T11:50:38Z</time>
      </trkpt>
      <trkpt lat="43.03428" lon="1.21874">
        <ele>494</ele>
        <time>2024-06-23T11:50:39Z</time>
      </trkpt>
      <trkpt lat="43.03422" lon="1.21876">
        <ele>494</ele>
        <time>2024-06-23T11:50:40Z</time>
      </trkpt>
      <trkpt lat="43.03416" lon="1.21877">
        <ele>494</ele>
        <time>2024-06-23T11:50:41Z</time>
      </trkpt>
      <trkpt lat="43.0341" lon="1.21875">
        <ele>494</ele>
        <time>2024-06-23T11:50:42Z</time>
      </trkpt>
      <trkpt lat="43.03404" lon="1.21873">
        <ele>493.8</ele>
        <time>2024-06-23T11:50:43Z</time>
      </trkpt>
      <trkpt lat="43.03399" lon="1.21868">
        <ele>493.8</ele>
        <time>2024-06-23T11:50:44Z</time>
      </trkpt>
      <trkpt lat="43.03394" lon="1.21863">
        <ele>493.8</ele>
        <time>2024-06-23T11:50:45Z</time>
      </trkpt>
      <trkpt lat="43.03389" lon="1.21861">
        <ele>493.6</ele>
        <time>2024-06-23T11:50:46Z</time>
      </trkpt>
      <trkpt lat="43.03383" lon="1.21857">
        <ele>493.6</ele>
        <time>2024-06-23T11:50:47Z</time>
      </trkpt>
      <trkpt lat="43.03378" lon="1.21855">
        <ele>493.6</ele>
        <time>2024-06-23T11:50:48Z</time>
      </trkpt>
      <trkpt lat="43.03372" lon="1.21855">
        <ele>493.6</ele>
        <time>2024-06-23T11:50:49Z</time>
      </trkpt>
      <trkpt lat="43.03367" lon="1.21853">
        <ele>493.6</ele>
        <time>2024-06-23T11:50:50Z</time>
      </trkpt>
      <trkpt lat="43.03361" lon="1.21854">
        <ele>493.6</ele>
        <time>2024-06-23T11:50:51Z</time>
      </trkpt>
      <trkpt lat="43.03355" lon="1.21852">
        <ele>493.6</ele>
        <time>2024-06-23T11:50:52Z</time>
      </trkpt>
      <trkpt lat="43.03349" lon="1.21851">
        <ele>493.6</ele>
        <time>2024-06-23T11:50:53Z</time>
      </trkpt>
      <trkpt lat="43.03344" lon="1.21848">
        <ele>493.2</ele>
        <time>2024-06-23T11:50:54Z</time>
      </trkpt>
      <trkpt lat="43.03338" lon="1.21845">
        <ele>493.2</ele>
        <time>2024-06-23T11:50:55Z</time>
      </trkpt>
      <trkpt lat="43.03333" lon="1.21841">
        <ele>493.2</ele>
        <time>2024-06-23T11:50:56Z</time>
      </trkpt>
      <trkpt lat="43.03327" lon="1.21837">
        <ele>493.2</ele>
        <time>2024-06-23T11:50:57Z</time>
      </trkpt>
      <trkpt lat="43.03321" lon="1.21833">
        <ele>493.6</ele>
        <time>2024-06-23T11:50:58Z</time>
      </trkpt>
      <trkpt lat="43.03316" lon="1.2183">
        <ele>493.6</ele>
        <time>2024-06-23T11:50:59Z</time>
      </trkpt>
      <trkpt lat="43.0331" lon="1.21827">
        <ele>493.6</ele>
        <time>2024-06-23T11:51:00Z</time>
      </trkpt>
      <trkpt lat="43.03305" lon="1.21822">
        <ele>493.6</ele>
        <time>2024-06-23T11:51:01Z</time>
      </trkpt>
      <trkpt lat="43.033" lon="1.21819">
        <ele>493.6</ele>
        <time>2024-06-23T11:51:02Z</time>
      </trkpt>
      <trkpt lat="43.03295" lon="1.21813">
        <ele>493.6</ele>
        <time>2024-06-23T11:51:03Z</time>
      </trkpt>
      <trkpt lat="43.0329" lon="1.21808">
        <ele>493.6</ele>
        <time>2024-06-23T11:51:04Z</time>
      </trkpt>
      <trkpt lat="43.03286" lon="1.21802">
        <ele>493.6</ele>
        <time>2024-06-23T11:51:05Z</time>
      </trkpt>
      <trkpt lat="43.03282" lon="1.21796">
        <ele>493.6</ele>
        <time>2024-06-23T11:51:06Z</time>
      </trkpt>
      <trkpt lat="43.03278" lon="1.2179">
        <ele>493.4</ele>
        <time>2024-06-23T11:51:07Z</time>
      </trkpt>
      <trkpt lat="43.03275" lon="1.21782">
        <ele>493.4</ele>
        <time>2024-06-23T11:51:08Z</time>
      </trkpt>
      <trkpt lat="43.03273" lon="1.21774">
        <ele>493.4</ele>
        <time>2024-06-23T11:51:09Z</time>
      </trkpt>
      <trkpt lat="43.03272" lon="1.21766">
        <ele>493</ele>
        <time>2024-06-23T11:51:10Z</time>
      </trkpt>
      <trkpt lat="43.03272" lon="1.21757">
        <ele>493</ele>
        <time>2024-06-23T11:51:11Z</time>
      </trkpt>
      <trkpt lat="43.03272" lon="1.21749">
        <ele>493</ele>
        <time>2024-06-23T11:51:12Z</time>
      </trkpt>
      <trkpt lat="43.03273" lon="1.2174">
        <ele>493</ele>
        <time>2024-06-23T11:51:13Z</time>
      </trkpt>
      <trkpt lat="43.03274" lon="1.21733">
        <ele>493</ele>
        <time>2024-06-23T11:51:14Z</time>
      </trkpt>
      <trkpt lat="43.03275" lon="1.21724">
        <ele>492.8</ele>
        <time>2024-06-23T11:51:15Z</time>
      </trkpt>
      <trkpt lat="43.03276" lon="1.21716">
        <ele>492.8</ele>
        <time>2024-06-23T11:51:16Z</time>
      </trkpt>
      <trkpt lat="43.03277" lon="1.21708">
        <ele>492.4</ele>
        <time>2024-06-23T11:51:17Z</time>
      </trkpt>
      <trkpt lat="43.03278" lon="1.21702">
        <ele>492.6</ele>
        <time>2024-06-23T11:51:18Z</time>
      </trkpt>
      <trkpt lat="43.0328" lon="1.21693">
        <ele>492.6</ele>
        <time>2024-06-23T11:51:19Z</time>
      </trkpt>
      <trkpt lat="43.03281" lon="1.21685">
        <ele>492.8</ele>
        <time>2024-06-23T11:51:20Z</time>
      </trkpt>
      <trkpt lat="43.03282" lon="1.21677">
        <ele>492.8</ele>
        <time>2024-06-23T11:51:21Z</time>
      </trkpt>
      <trkpt lat="43.03283" lon="1.21669">
        <ele>492.8</ele>
        <time>2024-06-23T11:51:22Z</time>
      </trkpt>
      <trkpt lat="43.03284" lon="1.21662">
        <ele>492.8</ele>
        <time>2024-06-23T11:51:23Z</time>
      </trkpt>
      <trkpt lat="43.03286" lon="1.21655">
        <ele>492.8</ele>
        <time>2024-06-23T11:51:24Z</time>
      </trkpt>
      <trkpt lat="43.03287" lon="1.21647">
        <ele>492.8</ele>
        <time>2024-06-23T11:51:25Z</time>
      </trkpt>
      <trkpt lat="43.03288" lon="1.21639">
        <ele>492.8</ele>
        <time>2024-06-23T11:51:26Z</time>
      </trkpt>
      <trkpt lat="43.0329" lon="1.21632">
        <ele>492.8</ele>
        <time>2024-06-23T11:51:27Z</time>
      </trkpt>
      <trkpt lat="43.03291" lon="1.21625">
        <ele>492.8</ele>
        <time>2024-06-23T11:51:28Z</time>
      </trkpt>
      <trkpt lat="43.03293" lon="1.21618">
        <ele>493.2</ele>
        <time>2024-06-23T11:51:29Z</time>
      </trkpt>
      <trkpt lat="43.03295" lon="1.21611">
        <ele>493</ele>
        <time>2024-06-23T11:51:30Z</time>
      </trkpt>
      <trkpt lat="43.03297" lon="1.21603">
        <ele>493</ele>
        <time>2024-06-23T11:51:31Z</time>
      </trkpt>
      <trkpt lat="43.03298" lon="1.21596">
        <ele>493</ele>
        <time>2024-06-23T11:51:32Z</time>
      </trkpt>
      <trkpt lat="43.033" lon="1.21589">
        <ele>493</ele>
        <time>2024-06-23T11:51:33Z</time>
      </trkpt>
      <trkpt lat="43.03302" lon="1.21582">
        <ele>493</ele>
        <time>2024-06-23T11:51:34Z</time>
      </trkpt>
      <trkpt lat="43.03303" lon="1.21575">
        <ele>493</ele>
        <time>2024-06-23T11:51:35Z</time>
      </trkpt>
      <trkpt lat="43.03306" lon="1.21569">
        <ele>493</ele>
        <time>2024-06-23T11:51:36Z</time>
      </trkpt>
      <trkpt lat="43.03308" lon="1.21561">
        <ele>493</ele>
        <time>2024-06-23T11:51:37Z</time>
      </trkpt>
      <trkpt lat="43.0331" lon="1.21554">
        <ele>492.8</ele>
        <time>2024-06-23T11:51:38Z</time>
      </trkpt>
      <trkpt lat="43.03312" lon="1.21546">
        <ele>492.8</ele>
        <time>2024-06-23T11:51:39Z</time>
      </trkpt>
      <trkpt lat="43.03314" lon="1.21538">
        <ele>492.8</ele>
        <time>2024-06-23T11:51:40Z</time>
      </trkpt>
      <trkpt lat="43.03317" lon="1.21531">
        <ele>492.8</ele>
        <time>2024-06-23T11:51:41Z</time>
      </trkpt>
      <trkpt lat="43.03319" lon="1.21523">
        <ele>492.8</ele>
        <time>2024-06-23T11:51:42Z</time>
      </trkpt>
      <trkpt lat="43.03323" lon="1.21517">
        <ele>492.8</ele>
        <time>2024-06-23T11:51:43Z</time>
      </trkpt>
      <trkpt lat="43.03326" lon="1.2151">
        <ele>492.2</ele>
        <time>2024-06-23T11:51:44Z</time>
      </trkpt>
      <trkpt lat="43.0333" lon="1.21504">
        <ele>492.2</ele>
        <time>2024-06-23T11:51:45Z</time>
      </trkpt>
      <trkpt lat="43.03334" lon="1.21498">
        <ele>492</ele>
        <time>2024-06-23T11:51:46Z</time>
      </trkpt>
      <trkpt lat="43.03338" lon="1.21491">
        <ele>492</ele>
        <time>2024-06-23T11:51:47Z</time>
      </trkpt>
      <trkpt lat="43.03341" lon="1.21484">
        <ele>491.8</ele>
        <time>2024-06-23T11:51:48Z</time>
      </trkpt>
      <trkpt lat="43.03341" lon="1.21475">
        <ele>491.8</ele>
        <time>2024-06-23T11:51:49Z</time>
      </trkpt>
      <trkpt lat="43.0334" lon="1.21467">
        <ele>491.8</ele>
        <time>2024-06-23T11:51:50Z</time>
      </trkpt>
      <trkpt lat="43.03337" lon="1.2146">
        <ele>491.4</ele>
        <time>2024-06-23T11:51:51Z</time>
      </trkpt>
      <trkpt lat="43.03334" lon="1.21454">
        <ele>491.2</ele>
        <time>2024-06-23T11:51:52Z</time>
      </trkpt>
      <trkpt lat="43.03332" lon="1.21447">
        <ele>491.2</ele>
        <time>2024-06-23T11:51:53Z</time>
      </trkpt>
      <trkpt lat="43.0333" lon="1.2144">
        <ele>491.4</ele>
        <time>2024-06-23T11:51:54Z</time>
      </trkpt>
      <trkpt lat="43.03329" lon="1.21432">
        <ele>491.4</ele>
        <time>2024-06-23T11:51:55Z</time>
      </trkpt>
      <trkpt lat="43.0333" lon="1.21424">
        <ele>491.8</ele>
        <time>2024-06-23T11:51:56Z</time>
      </trkpt>
      <trkpt lat="43.03331" lon="1.21416">
        <ele>492</ele>
        <time>2024-06-23T11:51:57Z</time>
      </trkpt>
      <trkpt lat="43.03332" lon="1.21409">
        <ele>492</ele>
        <time>2024-06-23T11:51:58Z</time>
      </trkpt>
      <trkpt lat="43.03334" lon="1.21401">
        <ele>492</ele>
        <time>2024-06-23T11:51:59Z</time>
      </trkpt>
      <trkpt lat="43.03335" lon="1.21393">
        <ele>491.8</ele>
        <time>2024-06-23T11:52:00Z</time>
      </trkpt>
      <trkpt lat="43.03337" lon="1.21386">
        <ele>491.8</ele>
        <time>2024-06-23T11:52:01Z</time>
      </trkpt>
      <trkpt lat="43.03339" lon="1.21378">
        <ele>491.8</ele>
        <time>2024-06-23T11:52:02Z</time>
      </trkpt>
      <trkpt lat="43.0334" lon="1.2137">
        <ele>491.8</ele>
        <time>2024-06-23T11:52:03Z</time>
      </trkpt>
      <trkpt lat="43.03342" lon="1.21362">
        <ele>491</ele>
        <time>2024-06-23T11:52:04Z</time>
      </trkpt>
      <trkpt lat="43.03343" lon="1.21354">
        <ele>491.4</ele>
        <time>2024-06-23T11:52:05Z</time>
      </trkpt>
      <trkpt lat="43.03345" lon="1.21347">
        <ele>491.4</ele>
        <time>2024-06-23T11:52:06Z</time>
      </trkpt>
      <trkpt lat="43.03347" lon="1.21338">
        <ele>491.4</ele>
        <time>2024-06-23T11:52:07Z</time>
      </trkpt>
      <trkpt lat="43.03348" lon="1.21331">
        <ele>491.4</ele>
        <time>2024-06-23T11:52:08Z</time>
      </trkpt>
      <trkpt lat="43.0335" lon="1.21322">
        <ele>491</ele>
        <time>2024-06-23T11:52:09Z</time>
      </trkpt>
      <trkpt lat="43.03351" lon="1.21314">
        <ele>491</ele>
        <time>2024-06-23T11:52:10Z</time>
      </trkpt>
      <trkpt lat="43.03352" lon="1.21306">
        <ele>491</ele>
        <time>2024-06-23T11:52:11Z</time>
      </trkpt>
      <trkpt lat="43.03353" lon="1.21298">
        <ele>491</ele>
        <time>2024-06-23T11:52:12Z</time>
      </trkpt>
      <trkpt lat="43.03352" lon="1.21289">
        <ele>490.4</ele>
        <time>2024-06-23T11:52:13Z</time>
      </trkpt>
      <trkpt lat="43.03351" lon="1.21281">
        <ele>490.4</ele>
        <time>2024-06-23T11:52:14Z</time>
      </trkpt>
      <trkpt lat="43.0335" lon="1.21273">
        <ele>490.4</ele>
        <time>2024-06-23T11:52:15Z</time>
      </trkpt>
      <trkpt lat="43.03349" lon="1.21264">
        <ele>490.4</ele>
        <time>2024-06-23T11:52:16Z</time>
      </trkpt>
      <trkpt lat="43.03348" lon="1.21256">
        <ele>490.8</ele>
        <time>2024-06-23T11:52:17Z</time>
      </trkpt>
      <trkpt lat="43.03347" lon="1.21248">
        <ele>490</ele>
        <time>2024-06-23T11:52:18Z</time>
      </trkpt>
      <trkpt lat="43.03347" lon="1.21239">
        <ele>489.8</ele>
        <time>2024-06-23T11:52:19Z</time>
      </trkpt>
      <trkpt lat="43.03346" lon="1.21231">
        <ele>489.8</ele>
        <time>2024-06-23T11:52:20Z</time>
      </trkpt>
      <trkpt lat="43.03345" lon="1.21222">
        <ele>490</ele>
        <time>2024-06-23T11:52:21Z</time>
      </trkpt>
      <trkpt lat="43.03344" lon="1.21213">
        <ele>489.8</ele>
        <time>2024-06-23T11:52:22Z</time>
      </trkpt>
      <trkpt lat="43.03343" lon="1.21205">
        <ele>489.8</ele>
        <time>2024-06-23T11:52:23Z</time>
      </trkpt>
      <trkpt lat="43.03342" lon="1.21196">
        <ele>489.8</ele>
        <time>2024-06-23T11:52:24Z</time>
      </trkpt>
      <trkpt lat="43.03341" lon="1.21188">
        <ele>489.4</ele>
        <time>2024-06-23T11:52:25Z</time>
      </trkpt>
      <trkpt lat="43.0334" lon="1.2118">
        <ele>489.4</ele>
        <time>2024-06-23T11:52:26Z</time>
      </trkpt>
      <trkpt lat="43.03339" lon="1.21172">
        <ele>489.2</ele>
        <time>2024-06-23T11:52:27Z</time>
      </trkpt>
      <trkpt lat="43.03339" lon="1.21163">
        <ele>489.2</ele>
        <time>2024-06-23T11:52:28Z</time>
      </trkpt>
      <trkpt lat="43.0334" lon="1.21154">
        <ele>488.8</ele>
        <time>2024-06-23T11:52:29Z</time>
      </trkpt>
      <trkpt lat="43.03342" lon="1.21146">
        <ele>488.8</ele>
        <time>2024-06-23T11:52:30Z</time>
      </trkpt>
      <trkpt lat="43.03345" lon="1.21137">
        <ele>488.8</ele>
        <time>2024-06-23T11:52:31Z</time>
      </trkpt>
      <trkpt lat="43.0335" lon="1.2113">
        <ele>488.4</ele>
        <time>2024-06-23T11:52:32Z</time>
      </trkpt>
      <trkpt lat="43.03354" lon="1.21122">
        <ele>488.2</ele>
        <time>2024-06-23T11:52:33Z</time>
      </trkpt>
      <trkpt lat="43.03359" lon="1.21116">
        <ele>487.8</ele>
        <time>2024-06-23T11:52:34Z</time>
      </trkpt>
      <trkpt lat="43.03364" lon="1.21109">
        <ele>487.6</ele>
        <time>2024-06-23T11:52:35Z</time>
      </trkpt>
      <trkpt lat="43.03369" lon="1.21102">
        <ele>487.6</ele>
        <time>2024-06-23T11:52:36Z</time>
      </trkpt>
      <trkpt lat="43.03374" lon="1.21095">
        <ele>486.8</ele>
        <time>2024-06-23T11:52:37Z</time>
      </trkpt>
      <trkpt lat="43.03379" lon="1.21087">
        <ele>486.8</ele>
        <time>2024-06-23T11:52:38Z</time>
      </trkpt>
      <trkpt lat="43.03385" lon="1.2108">
        <ele>486.2</ele>
        <time>2024-06-23T11:52:39Z</time>
      </trkpt>
      <trkpt lat="43.0339" lon="1.21073">
        <ele>485.6</ele>
        <time>2024-06-23T11:52:40Z</time>
      </trkpt>
      <trkpt lat="43.03395" lon="1.21066">
        <ele>485.2</ele>
        <time>2024-06-23T11:52:41Z</time>
      </trkpt>
      <trkpt lat="43.03401" lon="1.21058">
        <ele>485.2</ele>
        <time>2024-06-23T11:52:42Z</time>
      </trkpt>
      <trkpt lat="43.03405" lon="1.2105">
        <ele>484.8</ele>
        <time>2024-06-23T11:52:43Z</time>
      </trkpt>
      <trkpt lat="43.03409" lon="1.2104">
        <ele>484.4</ele>
        <time>2024-06-23T11:52:44Z</time>
      </trkpt>
      <trkpt lat="43.03411" lon="1.21031">
        <ele>484.4</ele>
        <time>2024-06-23T11:52:45Z</time>
      </trkpt>
      <trkpt lat="43.03411" lon="1.21021">
        <ele>484</ele>
        <time>2024-06-23T11:52:46Z</time>
      </trkpt>
      <trkpt lat="43.03408" lon="1.21013">
        <ele>484</ele>
        <time>2024-06-23T11:52:47Z</time>
      </trkpt>
      <trkpt lat="43.03405" lon="1.21005">
        <ele>484</ele>
        <time>2024-06-23T11:52:48Z</time>
      </trkpt>
      <trkpt lat="43.03402" lon="1.20997">
        <ele>484</ele>
        <time>2024-06-23T11:52:49Z</time>
      </trkpt>
      <trkpt lat="43.03398" lon="1.20991">
        <ele>484</ele>
        <time>2024-06-23T11:52:50Z</time>
      </trkpt>
      <trkpt lat="43.03395" lon="1.20984">
        <ele>484.4</ele>
        <time>2024-06-23T11:52:51Z</time>
      </trkpt>
      <trkpt lat="43.03391" lon="1.20978">
        <ele>484.4</ele>
        <time>2024-06-23T11:52:52Z</time>
      </trkpt>
      <trkpt lat="43.03389" lon="1.20971">
        <ele>484.4</ele>
        <time>2024-06-23T11:52:53Z</time>
      </trkpt>
      <trkpt lat="43.03386" lon="1.20964">
        <ele>484.4</ele>
        <time>2024-06-23T11:52:54Z</time>
      </trkpt>
      <trkpt lat="43.03386" lon="1.20964">
        <ele>484.6</ele>
        <time>2024-06-23T11:52:55Z</time>
      </trkpt>
      <trkpt lat="43.03384" lon="1.20956">
        <ele>484.6</ele>
        <time>2024-06-23T11:52:56Z</time>
      </trkpt>
      <trkpt lat="43.03382" lon="1.20949">
        <ele>484.6</ele>
        <time>2024-06-23T11:52:57Z</time>
      </trkpt>
      <trkpt lat="43.03381" lon="1.20941">
        <ele>484.6</ele>
        <time>2024-06-23T11:52:58Z</time>
      </trkpt>
      <trkpt lat="43.03379" lon="1.20926">
        <ele>484.6</ele>
        <time>2024-06-23T11:52:59Z</time>
      </trkpt>
      <trkpt lat="43.03378" lon="1.2092">
        <ele>484.6</ele>
        <time>2024-06-23T11:53:00Z</time>
      </trkpt>
      <trkpt lat="43.03377" lon="1.20907">
        <ele>484.6</ele>
        <time>2024-06-23T11:53:01Z</time>
      </trkpt>
      <trkpt lat="43.03377" lon="1.20899">
        <ele>484.6</ele>
        <time>2024-06-23T11:53:02Z</time>
      </trkpt>
      <trkpt lat="43.03378" lon="1.2089">
        <ele>484.6</ele>
        <time>2024-06-23T11:53:03Z</time>
      </trkpt>
      <trkpt lat="43.0338" lon="1.20882">
        <ele>484.6</ele>
        <time>2024-06-23T11:53:04Z</time>
      </trkpt>
      <trkpt lat="43.03382" lon="1.20874">
        <ele>484.6</ele>
        <time>2024-06-23T11:53:05Z</time>
      </trkpt>
      <trkpt lat="43.03385" lon="1.20867">
        <ele>484.4</ele>
        <time>2024-06-23T11:53:06Z</time>
      </trkpt>
      <trkpt lat="43.03387" lon="1.20859">
        <ele>484.4</ele>
        <time>2024-06-23T11:53:07Z</time>
      </trkpt>
      <trkpt lat="43.0339" lon="1.20852">
        <ele>484.4</ele>
        <time>2024-06-23T11:53:08Z</time>
      </trkpt>
      <trkpt lat="43.03393" lon="1.20845">
        <ele>484.4</ele>
        <time>2024-06-23T11:53:09Z</time>
      </trkpt>
      <trkpt lat="43.03395" lon="1.20837">
        <ele>484.4</ele>
        <time>2024-06-23T11:53:10Z</time>
      </trkpt>
      <trkpt lat="43.03398" lon="1.20829">
        <ele>484.2</ele>
        <time>2024-06-23T11:53:11Z</time>
      </trkpt>
      <trkpt lat="43.034" lon="1.20821">
        <ele>483.8</ele>
        <time>2024-06-23T11:53:12Z</time>
      </trkpt>
      <trkpt lat="43.03403" lon="1.20813">
        <ele>483.8</ele>
        <time>2024-06-23T11:53:13Z</time>
      </trkpt>
      <trkpt lat="43.03405" lon="1.20805">
        <ele>483.8</ele>
        <time>2024-06-23T11:53:14Z</time>
      </trkpt>
      <trkpt lat="43.03406" lon="1.20797">
        <ele>483.8</ele>
        <time>2024-06-23T11:53:15Z</time>
      </trkpt>
      <trkpt lat="43.03407" lon="1.20789">
        <ele>483.8</ele>
        <time>2024-06-23T11:53:16Z</time>
      </trkpt>
      <trkpt lat="43.03407" lon="1.20781">
        <ele>483.8</ele>
        <time>2024-06-23T11:53:17Z</time>
      </trkpt>
      <trkpt lat="43.03406" lon="1.20773">
        <ele>483.8</ele>
        <time>2024-06-23T11:53:18Z</time>
      </trkpt>
      <trkpt lat="43.03406" lon="1.20765">
        <ele>483.6</ele>
        <time>2024-06-23T11:53:19Z</time>
      </trkpt>
      <trkpt lat="43.03404" lon="1.20757">
        <ele>483.6</ele>
        <time>2024-06-23T11:53:20Z</time>
      </trkpt>
      <trkpt lat="43.03401" lon="1.20751">
        <ele>483.4</ele>
        <time>2024-06-23T11:53:21Z</time>
      </trkpt>
      <trkpt lat="43.03397" lon="1.20744">
        <ele>483.4</ele>
        <time>2024-06-23T11:53:22Z</time>
      </trkpt>
      <trkpt lat="43.03394" lon="1.20739">
        <ele>483.4</ele>
        <time>2024-06-23T11:53:23Z</time>
      </trkpt>
      <trkpt lat="43.03389" lon="1.20734">
        <ele>483.4</ele>
        <time>2024-06-23T11:53:24Z</time>
      </trkpt>
      <trkpt lat="43.03385" lon="1.20728">
        <ele>483.2</ele>
        <time>2024-06-23T11:53:25Z</time>
      </trkpt>
      <trkpt lat="43.0338" lon="1.20723">
        <ele>483.2</ele>
        <time>2024-06-23T11:53:26Z</time>
      </trkpt>
      <trkpt lat="43.03376" lon="1.20718">
        <ele>483.2</ele>
        <time>2024-06-23T11:53:27Z</time>
      </trkpt>
      <trkpt lat="43.03372" lon="1.20711">
        <ele>482.6</ele>
        <time>2024-06-23T11:53:28Z</time>
      </trkpt>
      <trkpt lat="43.03368" lon="1.20705">
        <ele>482.6</ele>
        <time>2024-06-23T11:53:29Z</time>
      </trkpt>
      <trkpt lat="43.03365" lon="1.20698">
        <ele>482.6</ele>
        <time>2024-06-23T11:53:30Z</time>
      </trkpt>
      <trkpt lat="43.03361" lon="1.20692">
        <ele>482.6</ele>
        <time>2024-06-23T11:53:31Z</time>
      </trkpt>
      <trkpt lat="43.03358" lon="1.20686">
        <ele>483</ele>
        <time>2024-06-23T11:53:32Z</time>
      </trkpt>
      <trkpt lat="43.03355" lon="1.20679">
        <ele>483</ele>
        <time>2024-06-23T11:53:33Z</time>
      </trkpt>
      <trkpt lat="43.03352" lon="1.20672">
        <ele>483</ele>
        <time>2024-06-23T11:53:34Z</time>
      </trkpt>
      <trkpt lat="43.03349" lon="1.20665">
        <ele>483</ele>
        <time>2024-06-23T11:53:35Z</time>
      </trkpt>
      <trkpt lat="43.03346" lon="1.20658">
        <ele>483</ele>
        <time>2024-06-23T11:53:36Z</time>
      </trkpt>
      <trkpt lat="43.03343" lon="1.20652">
        <ele>483.4</ele>
        <time>2024-06-23T11:53:37Z</time>
      </trkpt>
      <trkpt lat="43.03341" lon="1.20646">
        <ele>483.4</ele>
        <time>2024-06-23T11:53:38Z</time>
      </trkpt>
      <trkpt lat="43.03338" lon="1.20641">
        <ele>483.8</ele>
        <time>2024-06-23T11:53:39Z</time>
      </trkpt>
      <trkpt lat="43.03336" lon="1.20635">
        <ele>484</ele>
        <time>2024-06-23T11:53:40Z</time>
      </trkpt>
      <trkpt lat="43.03334" lon="1.2063">
        <ele>484.4</ele>
        <time>2024-06-23T11:53:41Z</time>
      </trkpt>
      <trkpt lat="43.03332" lon="1.20626">
        <ele>484.4</ele>
        <time>2024-06-23T11:53:42Z</time>
      </trkpt>
      <trkpt lat="43.03329" lon="1.20622">
        <ele>485</ele>
        <time>2024-06-23T11:53:43Z</time>
      </trkpt>
      <trkpt lat="43.03327" lon="1.20617">
        <ele>485.2</ele>
        <time>2024-06-23T11:53:44Z</time>
      </trkpt>
      <trkpt lat="43.03326" lon="1.20612">
        <ele>485.4</ele>
        <time>2024-06-23T11:53:45Z</time>
      </trkpt>
      <trkpt lat="43.03324" lon="1.20606">
        <ele>485.6</ele>
        <time>2024-06-23T11:53:46Z</time>
      </trkpt>
      <trkpt lat="43.03321" lon="1.20602">
        <ele>485.6</ele>
        <time>2024-06-23T11:53:47Z</time>
      </trkpt>
      <trkpt lat="43.03319" lon="1.20596">
        <ele>485.6</ele>
        <time>2024-06-23T11:53:48Z</time>
      </trkpt>
      <trkpt lat="43.03317" lon="1.20591">
        <ele>486.4</ele>
        <time>2024-06-23T11:53:49Z</time>
      </trkpt>
      <trkpt lat="43.03314" lon="1.20586">
        <ele>486.8</ele>
        <time>2024-06-23T11:53:50Z</time>
      </trkpt>
      <trkpt lat="43.03312" lon="1.2058">
        <ele>487.2</ele>
        <time>2024-06-23T11:53:51Z</time>
      </trkpt>
      <trkpt lat="43.03311" lon="1.20575">
        <ele>487.2</ele>
        <time>2024-06-23T11:53:52Z</time>
      </trkpt>
      <trkpt lat="43.03309" lon="1.2057">
        <ele>487.2</ele>
        <time>2024-06-23T11:53:53Z</time>
      </trkpt>
      <trkpt lat="43.03307" lon="1.20564">
        <ele>487.2</ele>
        <time>2024-06-23T11:53:54Z</time>
      </trkpt>
      <trkpt lat="43.03305" lon="1.20557">
        <ele>487.6</ele>
        <time>2024-06-23T11:53:55Z</time>
      </trkpt>
      <trkpt lat="43.03304" lon="1.20551">
        <ele>488</ele>
        <time>2024-06-23T11:53:56Z</time>
      </trkpt>
      <trkpt lat="43.03303" lon="1.20546">
        <ele>488</ele>
        <time>2024-06-23T11:53:57Z</time>
      </trkpt>
      <trkpt lat="43.03302" lon="1.2054">
        <ele>488</ele>
        <time>2024-06-23T11:53:58Z</time>
      </trkpt>
      <trkpt lat="43.03302" lon="1.20534">
        <ele>488.2</ele>
        <time>2024-06-23T11:53:59Z</time>
      </trkpt>
      <trkpt lat="43.03301" lon="1.20528">
        <ele>488.2</ele>
        <time>2024-06-23T11:54:00Z</time>
      </trkpt>
      <trkpt lat="43.033" lon="1.20522">
        <ele>488.2</ele>
        <time>2024-06-23T11:54:01Z</time>
      </trkpt>
      <trkpt lat="43.033" lon="1.20517">
        <ele>488.4</ele>
        <time>2024-06-23T11:54:02Z</time>
      </trkpt>
      <trkpt lat="43.03298" lon="1.20511">
        <ele>488.6</ele>
        <time>2024-06-23T11:54:03Z</time>
      </trkpt>
      <trkpt lat="43.03296" lon="1.20506">
        <ele>489</ele>
        <time>2024-06-23T11:54:04Z</time>
      </trkpt>
      <trkpt lat="43.03294" lon="1.205">
        <ele>489</ele>
        <time>2024-06-23T11:54:05Z</time>
      </trkpt>
      <trkpt lat="43.03292" lon="1.20495">
        <ele>489.2</ele>
        <time>2024-06-23T11:54:06Z</time>
      </trkpt>
      <trkpt lat="43.03289" lon="1.2049">
        <ele>489.6</ele>
        <time>2024-06-23T11:54:07Z</time>
      </trkpt>
      <trkpt lat="43.03286" lon="1.20486">
        <ele>489.6</ele>
        <time>2024-06-23T11:54:08Z</time>
      </trkpt>
      <trkpt lat="43.03283" lon="1.20483">
        <ele>489.8</ele>
        <time>2024-06-23T11:54:09Z</time>
      </trkpt>
      <trkpt lat="43.0328" lon="1.20481">
        <ele>489.8</ele>
        <time>2024-06-23T11:54:10Z</time>
      </trkpt>
      <trkpt lat="43.03276" lon="1.20476">
        <ele>489.8</ele>
        <time>2024-06-23T11:54:11Z</time>
      </trkpt>
      <trkpt lat="43.03272" lon="1.20474">
        <ele>490</ele>
        <time>2024-06-23T11:54:12Z</time>
      </trkpt>
      <trkpt lat="43.03267" lon="1.20472">
        <ele>489.8</ele>
        <time>2024-06-23T11:54:13Z</time>
      </trkpt>
      <trkpt lat="43.03263" lon="1.2047">
        <ele>489.8</ele>
        <time>2024-06-23T11:54:14Z</time>
      </trkpt>
      <trkpt lat="43.03259" lon="1.20468">
        <ele>490.2</ele>
        <time>2024-06-23T11:54:15Z</time>
      </trkpt>
      <trkpt lat="43.03255" lon="1.20466">
        <ele>490</ele>
        <time>2024-06-23T11:54:16Z</time>
      </trkpt>
      <trkpt lat="43.0325" lon="1.20465">
        <ele>490.2</ele>
        <time>2024-06-23T11:54:17Z</time>
      </trkpt>
      <trkpt lat="43.03245" lon="1.20464">
        <ele>490.2</ele>
        <time>2024-06-23T11:54:18Z</time>
      </trkpt>
      <trkpt lat="43.0324" lon="1.20464">
        <ele>490.2</ele>
        <time>2024-06-23T11:54:19Z</time>
      </trkpt>
      <trkpt lat="43.03236" lon="1.20464">
        <ele>490.4</ele>
        <time>2024-06-23T11:54:20Z</time>
      </trkpt>
      <trkpt lat="43.03231" lon="1.20464">
        <ele>490.4</ele>
        <time>2024-06-23T11:54:21Z</time>
      </trkpt>
      <trkpt lat="43.03226" lon="1.20465">
        <ele>490.8</ele>
        <time>2024-06-23T11:54:22Z</time>
      </trkpt>
      <trkpt lat="43.03221" lon="1.20466">
        <ele>490.8</ele>
        <time>2024-06-23T11:54:23Z</time>
      </trkpt>
      <trkpt lat="43.03216" lon="1.20468">
        <ele>490.4</ele>
        <time>2024-06-23T11:54:24Z</time>
      </trkpt>
      <trkpt lat="43.03212" lon="1.20471">
        <ele>490.4</ele>
        <time>2024-06-23T11:54:25Z</time>
      </trkpt>
      <trkpt lat="43.03207" lon="1.20475">
        <ele>490.4</ele>
        <time>2024-06-23T11:54:26Z</time>
      </trkpt>
      <trkpt lat="43.03203" lon="1.20481">
        <ele>490.4</ele>
        <time>2024-06-23T11:54:27Z</time>
      </trkpt>
      <trkpt lat="43.032" lon="1.20487">
        <ele>490.4</ele>
        <time>2024-06-23T11:54:28Z</time>
      </trkpt>
      <trkpt lat="43.03197" lon="1.20493">
        <ele>490.4</ele>
        <time>2024-06-23T11:54:29Z</time>
      </trkpt>
      <trkpt lat="43.03194" lon="1.20499">
        <ele>490.4</ele>
        <time>2024-06-23T11:54:30Z</time>
      </trkpt>
      <trkpt lat="43.03191" lon="1.20504">
        <ele>491</ele>
        <time>2024-06-23T11:54:31Z</time>
      </trkpt>
      <trkpt lat="43.03187" lon="1.20509">
        <ele>490.8</ele>
        <time>2024-06-23T11:54:32Z</time>
      </trkpt>
      <trkpt lat="43.03183" lon="1.20511">
        <ele>491</ele>
        <time>2024-06-23T11:54:33Z</time>
      </trkpt>
      <trkpt lat="43.03178" lon="1.20512">
        <ele>491.2</ele>
        <time>2024-06-23T11:54:34Z</time>
      </trkpt>
      <trkpt lat="43.03172" lon="1.20511">
        <ele>491.2</ele>
        <time>2024-06-23T11:54:35Z</time>
      </trkpt>
      <trkpt lat="43.03168" lon="1.20508">
        <ele>491</ele>
        <time>2024-06-23T11:54:36Z</time>
      </trkpt>
      <trkpt lat="43.03163" lon="1.20505">
        <ele>490.8</ele>
        <time>2024-06-23T11:54:37Z</time>
      </trkpt>
      <trkpt lat="43.03158" lon="1.20501">
        <ele>491</ele>
        <time>2024-06-23T11:54:38Z</time>
      </trkpt>
      <trkpt lat="43.03153" lon="1.20497">
        <ele>491</ele>
        <time>2024-06-23T11:54:39Z</time>
      </trkpt>
      <trkpt lat="43.03147" lon="1.20493">
        <ele>491</ele>
        <time>2024-06-23T11:54:40Z</time>
      </trkpt>
      <trkpt lat="43.03143" lon="1.20489">
        <ele>491</ele>
        <time>2024-06-23T11:54:41Z</time>
      </trkpt>
      <trkpt lat="43.03138" lon="1.20485">
        <ele>491</ele>
        <time>2024-06-23T11:54:42Z</time>
      </trkpt>
      <trkpt lat="43.03133" lon="1.20481">
        <ele>491</ele>
        <time>2024-06-23T11:54:43Z</time>
      </trkpt>
      <trkpt lat="43.03128" lon="1.20478">
        <ele>491</ele>
        <time>2024-06-23T11:54:44Z</time>
      </trkpt>
      <trkpt lat="43.03124" lon="1.20475">
        <ele>491</ele>
        <time>2024-06-23T11:54:45Z</time>
      </trkpt>
      <trkpt lat="43.03119" lon="1.20472">
        <ele>491</ele>
        <time>2024-06-23T11:54:46Z</time>
      </trkpt>
      <trkpt lat="43.03114" lon="1.20469">
        <ele>490.8</ele>
        <time>2024-06-23T11:54:47Z</time>
      </trkpt>
      <trkpt lat="43.0311" lon="1.20466">
        <ele>490.8</ele>
        <time>2024-06-23T11:54:48Z</time>
      </trkpt>
      <trkpt lat="43.03105" lon="1.20463">
        <ele>491.2</ele>
        <time>2024-06-23T11:54:49Z</time>
      </trkpt>
      <trkpt lat="43.031" lon="1.20461">
        <ele>491.2</ele>
        <time>2024-06-23T11:54:50Z</time>
      </trkpt>
      <trkpt lat="43.03095" lon="1.20459">
        <ele>491.6</ele>
        <time>2024-06-23T11:54:51Z</time>
      </trkpt>
      <trkpt lat="43.03091" lon="1.20458">
        <ele>492.2</ele>
        <time>2024-06-23T11:54:52Z</time>
      </trkpt>
      <trkpt lat="43.03086" lon="1.20457">
        <ele>492.2</ele>
        <time>2024-06-23T11:54:53Z</time>
      </trkpt>
      <trkpt lat="43.03081" lon="1.20455">
        <ele>492.2</ele>
        <time>2024-06-23T11:54:54Z</time>
      </trkpt>
      <trkpt lat="43.03077" lon="1.20454">
        <ele>492.2</ele>
        <time>2024-06-23T11:54:55Z</time>
      </trkpt>
      <trkpt lat="43.03072" lon="1.20453">
        <ele>492.4</ele>
        <time>2024-06-23T11:54:56Z</time>
      </trkpt>
      <trkpt lat="43.03068" lon="1.20453">
        <ele>492.8</ele>
        <time>2024-06-23T11:54:57Z</time>
      </trkpt>
      <trkpt lat="43.03063" lon="1.20451">
        <ele>493.2</ele>
        <time>2024-06-23T11:54:58Z</time>
      </trkpt>
      <trkpt lat="43.03059" lon="1.2045">
        <ele>493.4</ele>
        <time>2024-06-23T11:54:59Z</time>
      </trkpt>
      <trkpt lat="43.03054" lon="1.20449">
        <ele>493.4</ele>
        <time>2024-06-23T11:55:00Z</time>
      </trkpt>
      <trkpt lat="43.0305" lon="1.20448">
        <ele>493.6</ele>
        <time>2024-06-23T11:55:01Z</time>
      </trkpt>
      <trkpt lat="43.03046" lon="1.20446">
        <ele>493.6</ele>
        <time>2024-06-23T11:55:02Z</time>
      </trkpt>
      <trkpt lat="43.03042" lon="1.20445">
        <ele>493.6</ele>
        <time>2024-06-23T11:55:03Z</time>
      </trkpt>
      <trkpt lat="43.03038" lon="1.20443">
        <ele>494.2</ele>
        <time>2024-06-23T11:55:04Z</time>
      </trkpt>
      <trkpt lat="43.03034" lon="1.20442">
        <ele>494.2</ele>
        <time>2024-06-23T11:55:05Z</time>
      </trkpt>
      <trkpt lat="43.03031" lon="1.2044">
        <ele>494.2</ele>
        <time>2024-06-23T11:55:06Z</time>
      </trkpt>
      <trkpt lat="43.03026" lon="1.2044">
        <ele>494.8</ele>
        <time>2024-06-23T11:55:07Z</time>
      </trkpt>
      <trkpt lat="43.03023" lon="1.20439">
        <ele>495.2</ele>
        <time>2024-06-23T11:55:08Z</time>
      </trkpt>
      <trkpt lat="43.03019" lon="1.20437">
        <ele>495.2</ele>
        <time>2024-06-23T11:55:09Z</time>
      </trkpt>
      <trkpt lat="43.03015" lon="1.20436">
        <ele>495.4</ele>
        <time>2024-06-23T11:55:10Z</time>
      </trkpt>
      <trkpt lat="43.03012" lon="1.20435">
        <ele>495.8</ele>
        <time>2024-06-23T11:55:11Z</time>
      </trkpt>
      <trkpt lat="43.03008" lon="1.20434">
        <ele>495.8</ele>
        <time>2024-06-23T11:55:12Z</time>
      </trkpt>
      <trkpt lat="43.03004" lon="1.20433">
        <ele>496.2</ele>
        <time>2024-06-23T11:55:13Z</time>
      </trkpt>
      <trkpt lat="43.03" lon="1.20433">
        <ele>496.6</ele>
        <time>2024-06-23T11:55:14Z</time>
      </trkpt>
      <trkpt lat="43.02996" lon="1.20432">
        <ele>496.6</ele>
        <time>2024-06-23T11:55:15Z</time>
      </trkpt>
      <trkpt lat="43.02992" lon="1.20431">
        <ele>496.8</ele>
        <time>2024-06-23T11:55:16Z</time>
      </trkpt>
      <trkpt lat="43.02988" lon="1.2043">
        <ele>496.8</ele>
        <time>2024-06-23T11:55:17Z</time>
      </trkpt>
      <trkpt lat="43.02984" lon="1.20428">
        <ele>497.2</ele>
        <time>2024-06-23T11:55:18Z</time>
      </trkpt>
      <trkpt lat="43.0298" lon="1.20427">
        <ele>497.2</ele>
        <time>2024-06-23T11:55:19Z</time>
      </trkpt>
      <trkpt lat="43.02976" lon="1.20425">
        <ele>497.2</ele>
        <time>2024-06-23T11:55:20Z</time>
      </trkpt>
      <trkpt lat="43.02972" lon="1.20424">
        <ele>497.2</ele>
        <time>2024-06-23T11:55:21Z</time>
      </trkpt>
      <trkpt lat="43.02967" lon="1.20422">
        <ele>497.2</ele>
        <time>2024-06-23T11:55:22Z</time>
      </trkpt>
      <trkpt lat="43.02963" lon="1.2042">
        <ele>497.2</ele>
        <time>2024-06-23T11:55:23Z</time>
      </trkpt>
      <trkpt lat="43.02959" lon="1.20418">
        <ele>497.4</ele>
        <time>2024-06-23T11:55:24Z</time>
      </trkpt>
      <trkpt lat="43.02954" lon="1.20416">
        <ele>498.2</ele>
        <time>2024-06-23T11:55:25Z</time>
      </trkpt>
      <trkpt lat="43.0295" lon="1.20414">
        <ele>498.2</ele>
        <time>2024-06-23T11:55:26Z</time>
      </trkpt>
      <trkpt lat="43.02946" lon="1.20412">
        <ele>497.8</ele>
        <time>2024-06-23T11:55:27Z</time>
      </trkpt>
      <trkpt lat="43.02941" lon="1.2041">
        <ele>497.8</ele>
        <time>2024-06-23T11:55:28Z</time>
      </trkpt>
      <trkpt lat="43.02937" lon="1.20408">
        <ele>497.8</ele>
        <time>2024-06-23T11:55:29Z</time>
      </trkpt>
      <trkpt lat="43.02933" lon="1.20407">
        <ele>497.8</ele>
        <time>2024-06-23T11:55:30Z</time>
      </trkpt>
      <trkpt lat="43.02929" lon="1.20405">
        <ele>497.8</ele>
        <time>2024-06-23T11:55:31Z</time>
      </trkpt>
      <trkpt lat="43.02925" lon="1.20403">
        <ele>497.8</ele>
        <time>2024-06-23T11:55:32Z</time>
      </trkpt>
      <trkpt lat="43.02921" lon="1.204">
        <ele>497.8</ele>
        <time>2024-06-23T11:55:33Z</time>
      </trkpt>
      <trkpt lat="43.02917" lon="1.20398">
        <ele>497.8</ele>
        <time>2024-06-23T11:55:34Z</time>
      </trkpt>
      <trkpt lat="43.02914" lon="1.20396">
        <ele>497.8</ele>
        <time>2024-06-23T11:55:35Z</time>
      </trkpt>
      <trkpt lat="43.0291" lon="1.20394">
        <ele>497.8</ele>
        <time>2024-06-23T11:55:36Z</time>
      </trkpt>
      <trkpt lat="43.02906" lon="1.20392">
        <ele>497.8</ele>
        <time>2024-06-23T11:55:37Z</time>
      </trkpt>
      <trkpt lat="43.02902" lon="1.2039">
        <ele>498.6</ele>
        <time>2024-06-23T11:55:38Z</time>
      </trkpt>
      <trkpt lat="43.02899" lon="1.20389">
        <ele>498.6</ele>
        <time>2024-06-23T11:55:39Z</time>
      </trkpt>
      <trkpt lat="43.02895" lon="1.20386">
        <ele>499.4</ele>
        <time>2024-06-23T11:55:40Z</time>
      </trkpt>
      <trkpt lat="43.02891" lon="1.20385">
        <ele>499.4</ele>
        <time>2024-06-23T11:55:41Z</time>
      </trkpt>
      <trkpt lat="43.02887" lon="1.20383">
        <ele>499.8</ele>
        <time>2024-06-23T11:55:42Z</time>
      </trkpt>
      <trkpt lat="43.02883" lon="1.2038">
        <ele>500.2</ele>
        <time>2024-06-23T11:55:43Z</time>
      </trkpt>
      <trkpt lat="43.02879" lon="1.20378">
        <ele>500</ele>
        <time>2024-06-23T11:55:44Z</time>
      </trkpt>
      <trkpt lat="43.02874" lon="1.20376">
        <ele>500</ele>
        <time>2024-06-23T11:55:45Z</time>
      </trkpt>
      <trkpt lat="43.0287" lon="1.20373">
        <ele>500</ele>
        <time>2024-06-23T11:55:46Z</time>
      </trkpt>
      <trkpt lat="43.02866" lon="1.20372">
        <ele>500</ele>
        <time>2024-06-23T11:55:47Z</time>
      </trkpt>
      <trkpt lat="43.02862" lon="1.20369">
        <ele>500.4</ele>
        <time>2024-06-23T11:55:48Z</time>
      </trkpt>
      <trkpt lat="43.02858" lon="1.20368">
        <ele>500.6</ele>
        <time>2024-06-23T11:55:49Z</time>
      </trkpt>
      <trkpt lat="43.02854" lon="1.20366">
        <ele>500.6</ele>
        <time>2024-06-23T11:55:50Z</time>
      </trkpt>
      <trkpt lat="43.0285" lon="1.20363">
        <ele>501</ele>
        <time>2024-06-23T11:55:51Z</time>
      </trkpt>
      <trkpt lat="43.02846" lon="1.20362">
        <ele>501</ele>
        <time>2024-06-23T11:55:52Z</time>
      </trkpt>
      <trkpt lat="43.02842" lon="1.20361">
        <ele>501.2</ele>
        <time>2024-06-23T11:55:53Z</time>
      </trkpt>
      <trkpt lat="43.02838" lon="1.20361">
        <ele>501.2</ele>
        <time>2024-06-23T11:55:54Z</time>
      </trkpt>
      <trkpt lat="43.02834" lon="1.20361">
        <ele>501.6</ele>
        <time>2024-06-23T11:55:55Z</time>
      </trkpt>
      <trkpt lat="43.02831" lon="1.20361">
        <ele>501.6</ele>
        <time>2024-06-23T11:55:56Z</time>
      </trkpt>
      <trkpt lat="43.02826" lon="1.20361">
        <ele>501.6</ele>
        <time>2024-06-23T11:55:57Z</time>
      </trkpt>
      <trkpt lat="43.02822" lon="1.2036">
        <ele>501.6</ele>
        <time>2024-06-23T11:55:58Z</time>
      </trkpt>
      <trkpt lat="43.02818" lon="1.2036">
        <ele>501.6</ele>
        <time>2024-06-23T11:55:59Z</time>
      </trkpt>
      <trkpt lat="43.02812" lon="1.2036">
        <ele>502.2</ele>
        <time>2024-06-23T11:56:00Z</time>
      </trkpt>
      <trkpt lat="43.02808" lon="1.2036">
        <ele>502.2</ele>
        <time>2024-06-23T11:56:01Z</time>
      </trkpt>
      <trkpt lat="43.02804" lon="1.20359">
        <ele>502.2</ele>
        <time>2024-06-23T11:56:02Z</time>
      </trkpt>
      <trkpt lat="43.028" lon="1.20358">
        <ele>502.2</ele>
        <time>2024-06-23T11:56:03Z</time>
      </trkpt>
      <trkpt lat="43.02795" lon="1.20357">
        <ele>502.4</ele>
        <time>2024-06-23T11:56:04Z</time>
      </trkpt>
      <trkpt lat="43.0279" lon="1.20355">
        <ele>502.4</ele>
        <time>2024-06-23T11:56:05Z</time>
      </trkpt>
      <trkpt lat="43.02786" lon="1.20353">
        <ele>502.6</ele>
        <time>2024-06-23T11:56:06Z</time>
      </trkpt>
      <trkpt lat="43.02782" lon="1.20351">
        <ele>502.8</ele>
        <time>2024-06-23T11:56:07Z</time>
      </trkpt>
      <trkpt lat="43.02778" lon="1.2035">
        <ele>503</ele>
        <time>2024-06-23T11:56:08Z</time>
      </trkpt>
      <trkpt lat="43.02773" lon="1.20348">
        <ele>503</ele>
        <time>2024-06-23T11:56:09Z</time>
      </trkpt>
      <trkpt lat="43.02769" lon="1.20346">
        <ele>502.8</ele>
        <time>2024-06-23T11:56:10Z</time>
      </trkpt>
      <trkpt lat="43.02765" lon="1.20344">
        <ele>503.4</ele>
        <time>2024-06-23T11:56:11Z</time>
      </trkpt>
      <trkpt lat="43.0276" lon="1.20341">
        <ele>503.6</ele>
        <time>2024-06-23T11:56:12Z</time>
      </trkpt>
      <trkpt lat="43.0276" lon="1.20341">
        <ele>503.6</ele>
        <time>2024-06-23T11:56:13Z</time>
      </trkpt>
      <trkpt lat="43.02757" lon="1.20338">
        <ele>503.6</ele>
        <time>2024-06-23T11:56:14Z</time>
      </trkpt>
      <trkpt lat="43.02753" lon="1.20335">
        <ele>503.6</ele>
        <time>2024-06-23T11:56:15Z</time>
      </trkpt>
      <trkpt lat="43.02749" lon="1.20331">
        <ele>503.6</ele>
        <time>2024-06-23T11:56:16Z</time>
      </trkpt>
      <trkpt lat="43.02746" lon="1.20327">
        <ele>503.6</ele>
        <time>2024-06-23T11:56:17Z</time>
      </trkpt>
      <trkpt lat="43.02743" lon="1.20322">
        <ele>504</ele>
        <time>2024-06-23T11:56:18Z</time>
      </trkpt>
      <trkpt lat="43.02741" lon="1.20317">
        <ele>504</ele>
        <time>2024-06-23T11:56:19Z</time>
      </trkpt>
      <trkpt lat="43.02739" lon="1.20312">
        <ele>504</ele>
        <time>2024-06-23T11:56:20Z</time>
      </trkpt>
      <trkpt lat="43.02738" lon="1.20306">
        <ele>504.4</ele>
        <time>2024-06-23T11:56:21Z</time>
      </trkpt>
      <trkpt lat="43.02736" lon="1.203">
        <ele>504</ele>
        <time>2024-06-23T11:56:22Z</time>
      </trkpt>
      <trkpt lat="43.02735" lon="1.20294">
        <ele>504</ele>
        <time>2024-06-23T11:56:23Z</time>
      </trkpt>
      <trkpt lat="43.02734" lon="1.20288">
        <ele>504</ele>
        <time>2024-06-23T11:56:24Z</time>
      </trkpt>
      <trkpt lat="43.02732" lon="1.20282">
        <ele>504</ele>
        <time>2024-06-23T11:56:25Z</time>
      </trkpt>
      <trkpt lat="43.02729" lon="1.20277">
        <ele>504</ele>
        <time>2024-06-23T11:56:26Z</time>
      </trkpt>
      <trkpt lat="43.02725" lon="1.20273">
        <ele>504</ele>
        <time>2024-06-23T11:56:27Z</time>
      </trkpt>
      <trkpt lat="43.02721" lon="1.2027">
        <ele>504.2</ele>
        <time>2024-06-23T11:56:28Z</time>
      </trkpt>
      <trkpt lat="43.02717" lon="1.20268">
        <ele>504.6</ele>
        <time>2024-06-23T11:56:29Z</time>
      </trkpt>
      <trkpt lat="43.02712" lon="1.20267">
        <ele>504.4</ele>
        <time>2024-06-23T11:56:30Z</time>
      </trkpt>
      <trkpt lat="43.02707" lon="1.20265">
        <ele>504.4</ele>
        <time>2024-06-23T11:56:31Z</time>
      </trkpt>
      <trkpt lat="43.02703" lon="1.20265">
        <ele>504.4</ele>
        <time>2024-06-23T11:56:32Z</time>
      </trkpt>
      <trkpt lat="43.02698" lon="1.20264">
        <ele>504.4</ele>
        <time>2024-06-23T11:56:33Z</time>
      </trkpt>
      <trkpt lat="43.02693" lon="1.20264">
        <ele>504.8</ele>
        <time>2024-06-23T11:56:34Z</time>
      </trkpt>
      <trkpt lat="43.02689" lon="1.20264">
        <ele>504.8</ele>
        <time>2024-06-23T11:56:35Z</time>
      </trkpt>
      <trkpt lat="43.02684" lon="1.20265">
        <ele>505.2</ele>
        <time>2024-06-23T11:56:36Z</time>
      </trkpt>
      <trkpt lat="43.0268" lon="1.20266">
        <ele>505</ele>
        <time>2024-06-23T11:56:37Z</time>
      </trkpt>
      <trkpt lat="43.02676" lon="1.20268">
        <ele>505</ele>
        <time>2024-06-23T11:56:38Z</time>
      </trkpt>
      <trkpt lat="43.02672" lon="1.20269">
        <ele>505.6</ele>
        <time>2024-06-23T11:56:39Z</time>
      </trkpt>
      <trkpt lat="43.02668" lon="1.20271">
        <ele>505.8</ele>
        <time>2024-06-23T11:56:40Z</time>
      </trkpt>
      <trkpt lat="43.02664" lon="1.20274">
        <ele>506.2</ele>
        <time>2024-06-23T11:56:41Z</time>
      </trkpt>
      <trkpt lat="43.02661" lon="1.20276">
        <ele>506.4</ele>
        <time>2024-06-23T11:56:42Z</time>
      </trkpt>
      <trkpt lat="43.02657" lon="1.20278">
        <ele>506.8</ele>
        <time>2024-06-23T11:56:43Z</time>
      </trkpt>
      <trkpt lat="43.02654" lon="1.2028">
        <ele>506.8</ele>
        <time>2024-06-23T11:56:44Z</time>
      </trkpt>
      <trkpt lat="43.02651" lon="1.20281">
        <ele>507</ele>
        <time>2024-06-23T11:56:45Z</time>
      </trkpt>
      <trkpt lat="43.02648" lon="1.20283">
        <ele>507</ele>
        <time>2024-06-23T11:56:46Z</time>
      </trkpt>
      <trkpt lat="43.02645" lon="1.20285">
        <ele>507.4</ele>
        <time>2024-06-23T11:56:47Z</time>
      </trkpt>
      <trkpt lat="43.02642" lon="1.20286">
        <ele>507.6</ele>
        <time>2024-06-23T11:56:48Z</time>
      </trkpt>
      <trkpt lat="43.02639" lon="1.20287">
        <ele>508</ele>
        <time>2024-06-23T11:56:49Z</time>
      </trkpt>
      <trkpt lat="43.02635" lon="1.20287">
        <ele>508.2</ele>
        <time>2024-06-23T11:56:50Z</time>
      </trkpt>
      <trkpt lat="43.02632" lon="1.20287">
        <ele>508.2</ele>
        <time>2024-06-23T11:56:51Z</time>
      </trkpt>
      <trkpt lat="43.02629" lon="1.20286">
        <ele>508.6</ele>
        <time>2024-06-23T11:56:52Z</time>
      </trkpt>
      <trkpt lat="43.02625" lon="1.20284">
        <ele>509</ele>
        <time>2024-06-23T11:56:53Z</time>
      </trkpt>
      <trkpt lat="43.02622" lon="1.20282">
        <ele>509.2</ele>
        <time>2024-06-23T11:56:54Z</time>
      </trkpt>
      <trkpt lat="43.02619" lon="1.2028">
        <ele>509.2</ele>
        <time>2024-06-23T11:56:55Z</time>
      </trkpt>
      <trkpt lat="43.02616" lon="1.20277">
        <ele>509.6</ele>
        <time>2024-06-23T11:56:56Z</time>
      </trkpt>
      <trkpt lat="43.02614" lon="1.20274">
        <ele>509.8</ele>
        <time>2024-06-23T11:56:57Z</time>
      </trkpt>
      <trkpt lat="43.02611" lon="1.20271">
        <ele>510</ele>
        <time>2024-06-23T11:56:58Z</time>
      </trkpt>
      <trkpt lat="43.02609" lon="1.20267">
        <ele>510.2</ele>
        <time>2024-06-23T11:56:59Z</time>
      </trkpt>
      <trkpt lat="43.02606" lon="1.20264">
        <ele>510.6</ele>
        <time>2024-06-23T11:57:00Z</time>
      </trkpt>
      <trkpt lat="43.02604" lon="1.20261">
        <ele>510.8</ele>
        <time>2024-06-23T11:57:01Z</time>
      </trkpt>
      <trkpt lat="43.02602" lon="1.20257">
        <ele>511.2</ele>
        <time>2024-06-23T11:57:02Z</time>
      </trkpt>
      <trkpt lat="43.026" lon="1.20254">
        <ele>511.2</ele>
        <time>2024-06-23T11:57:03Z</time>
      </trkpt>
      <trkpt lat="43.02598" lon="1.20251">
        <ele>511.4</ele>
        <time>2024-06-23T11:57:04Z</time>
      </trkpt>
      <trkpt lat="43.02595" lon="1.20248">
        <ele>511.4</ele>
        <time>2024-06-23T11:57:05Z</time>
      </trkpt>
      <trkpt lat="43.02593" lon="1.20245">
        <ele>512</ele>
        <time>2024-06-23T11:57:06Z</time>
      </trkpt>
      <trkpt lat="43.02591" lon="1.20243">
        <ele>512</ele>
        <time>2024-06-23T11:57:07Z</time>
      </trkpt>
      <trkpt lat="43.0259" lon="1.2024">
        <ele>512.4</ele>
        <time>2024-06-23T11:57:08Z</time>
      </trkpt>
      <trkpt lat="43.02588" lon="1.20237">
        <ele>512.8</ele>
        <time>2024-06-23T11:57:09Z</time>
      </trkpt>
      <trkpt lat="43.02586" lon="1.20233">
        <ele>513</ele>
        <time>2024-06-23T11:57:10Z</time>
      </trkpt>
      <trkpt lat="43.02584" lon="1.2023">
        <ele>513</ele>
        <time>2024-06-23T11:57:11Z</time>
      </trkpt>
      <trkpt lat="43.02582" lon="1.20226">
        <ele>513.4</ele>
        <time>2024-06-23T11:57:12Z</time>
      </trkpt>
      <trkpt lat="43.0258" lon="1.20223">
        <ele>513.4</ele>
        <time>2024-06-23T11:57:13Z</time>
      </trkpt>
      <trkpt lat="43.02578" lon="1.20219">
        <ele>513.8</ele>
        <time>2024-06-23T11:57:14Z</time>
      </trkpt>
      <trkpt lat="43.02576" lon="1.20215">
        <ele>514</ele>
        <time>2024-06-23T11:57:15Z</time>
      </trkpt>
      <trkpt lat="43.02575" lon="1.20211">
        <ele>514</ele>
        <time>2024-06-23T11:57:16Z</time>
      </trkpt>
      <trkpt lat="43.02573" lon="1.20206">
        <ele>514.4</ele>
        <time>2024-06-23T11:57:17Z</time>
      </trkpt>
      <trkpt lat="43.02571" lon="1.20202">
        <ele>514.4</ele>
        <time>2024-06-23T11:57:18Z</time>
      </trkpt>
      <trkpt lat="43.0257" lon="1.20198">
        <ele>514.6</ele>
        <time>2024-06-23T11:57:19Z</time>
      </trkpt>
      <trkpt lat="43.02569" lon="1.20193">
        <ele>514.6</ele>
        <time>2024-06-23T11:57:20Z</time>
      </trkpt>
      <trkpt lat="43.02568" lon="1.20189">
        <ele>514.6</ele>
        <time>2024-06-23T11:57:21Z</time>
      </trkpt>
      <trkpt lat="43.02567" lon="1.20184">
        <ele>514.8</ele>
        <time>2024-06-23T11:57:22Z</time>
      </trkpt>
      <trkpt lat="43.02566" lon="1.2018">
        <ele>515.2</ele>
        <time>2024-06-23T11:57:23Z</time>
      </trkpt>
      <trkpt lat="43.02565" lon="1.20175">
        <ele>515.4</ele>
        <time>2024-06-23T11:57:24Z</time>
      </trkpt>
      <trkpt lat="43.02563" lon="1.20171">
        <ele>515.4</ele>
        <time>2024-06-23T11:57:25Z</time>
      </trkpt>
      <trkpt lat="43.02562" lon="1.20167">
        <ele>515.6</ele>
        <time>2024-06-23T11:57:26Z</time>
      </trkpt>
      <trkpt lat="43.02561" lon="1.20163">
        <ele>516</ele>
        <time>2024-06-23T11:57:27Z</time>
      </trkpt>
      <trkpt lat="43.0256" lon="1.20159">
        <ele>516</ele>
        <time>2024-06-23T11:57:28Z</time>
      </trkpt>
      <trkpt lat="43.02559" lon="1.20155">
        <ele>516</ele>
        <time>2024-06-23T11:57:29Z</time>
      </trkpt>
      <trkpt lat="43.02558" lon="1.2015">
        <ele>516</ele>
        <time>2024-06-23T11:57:30Z</time>
      </trkpt>
      <trkpt lat="43.02557" lon="1.20146">
        <ele>516.2</ele>
        <time>2024-06-23T11:57:31Z</time>
      </trkpt>
      <trkpt lat="43.02556" lon="1.20141">
        <ele>516.2</ele>
        <time>2024-06-23T11:57:32Z</time>
      </trkpt>
      <trkpt lat="43.02555" lon="1.20136">
        <ele>516.6</ele>
        <time>2024-06-23T11:57:33Z</time>
      </trkpt>
      <trkpt lat="43.02554" lon="1.20132">
        <ele>516.6</ele>
        <time>2024-06-23T11:57:34Z</time>
      </trkpt>
      <trkpt lat="43.02553" lon="1.20127">
        <ele>516.6</ele>
        <time>2024-06-23T11:57:35Z</time>
      </trkpt>
      <trkpt lat="43.02552" lon="1.20123">
        <ele>517</ele>
        <time>2024-06-23T11:57:36Z</time>
      </trkpt>
      <trkpt lat="43.02551" lon="1.20118">
        <ele>517</ele>
        <time>2024-06-23T11:57:37Z</time>
      </trkpt>
      <trkpt lat="43.0255" lon="1.20114">
        <ele>517.4</ele>
        <time>2024-06-23T11:57:38Z</time>
      </trkpt>
      <trkpt lat="43.02549" lon="1.2011">
        <ele>517.4</ele>
        <time>2024-06-23T11:57:39Z</time>
      </trkpt>
      <trkpt lat="43.02548" lon="1.20105">
        <ele>517.4</ele>
        <time>2024-06-23T11:57:40Z</time>
      </trkpt>
      <trkpt lat="43.02546" lon="1.201">
        <ele>517.8</ele>
        <time>2024-06-23T11:57:41Z</time>
      </trkpt>
      <trkpt lat="43.02545" lon="1.20095">
        <ele>517.8</ele>
        <time>2024-06-23T11:57:42Z</time>
      </trkpt>
      <trkpt lat="43.02544" lon="1.20091">
        <ele>517.8</ele>
        <time>2024-06-23T11:57:43Z</time>
      </trkpt>
      <trkpt lat="43.02543" lon="1.20086">
        <ele>518</ele>
        <time>2024-06-23T11:57:44Z</time>
      </trkpt>
      <trkpt lat="43.02542" lon="1.20081">
        <ele>518.4</ele>
        <time>2024-06-23T11:57:45Z</time>
      </trkpt>
      <trkpt lat="43.0254" lon="1.20076">
        <ele>518.4</ele>
        <time>2024-06-23T11:57:46Z</time>
      </trkpt>
      <trkpt lat="43.02539" lon="1.20072">
        <ele>518.4</ele>
        <time>2024-06-23T11:57:47Z</time>
      </trkpt>
      <trkpt lat="43.02538" lon="1.20067">
        <ele>518.4</ele>
        <time>2024-06-23T11:57:48Z</time>
      </trkpt>
      <trkpt lat="43.02537" lon="1.20062">
        <ele>518.4</ele>
        <time>2024-06-23T11:57:49Z</time>
      </trkpt>
      <trkpt lat="43.02536" lon="1.20058">
        <ele>518.4</ele>
        <time>2024-06-23T11:57:50Z</time>
      </trkpt>
      <trkpt lat="43.02535" lon="1.20053">
        <ele>518.4</ele>
        <time>2024-06-23T11:57:51Z</time>
      </trkpt>
      <trkpt lat="43.02533" lon="1.20049">
        <ele>518.6</ele>
        <time>2024-06-23T11:57:52Z</time>
      </trkpt>
      <trkpt lat="43.02533" lon="1.20044">
        <ele>518.6</ele>
        <time>2024-06-23T11:57:53Z</time>
      </trkpt>
      <trkpt lat="43.02532" lon="1.20039">
        <ele>519</ele>
        <time>2024-06-23T11:57:54Z</time>
      </trkpt>
      <trkpt lat="43.0253" lon="1.20034">
        <ele>519</ele>
        <time>2024-06-23T11:57:55Z</time>
      </trkpt>
      <trkpt lat="43.02529" lon="1.2003">
        <ele>519</ele>
        <time>2024-06-23T11:57:56Z</time>
      </trkpt>
      <trkpt lat="43.02527" lon="1.20025">
        <ele>519</ele>
        <time>2024-06-23T11:57:57Z</time>
      </trkpt>
      <trkpt lat="43.02526" lon="1.20021">
        <ele>519.6</ele>
        <time>2024-06-23T11:57:58Z</time>
      </trkpt>
      <trkpt lat="43.02525" lon="1.20016">
        <ele>519.6</ele>
        <time>2024-06-23T11:57:59Z</time>
      </trkpt>
      <trkpt lat="43.02524" lon="1.20011">
        <ele>519.6</ele>
        <time>2024-06-23T11:58:00Z</time>
      </trkpt>
      <trkpt lat="43.02523" lon="1.20007">
        <ele>520</ele>
        <time>2024-06-23T11:58:01Z</time>
      </trkpt>
      <trkpt lat="43.02522" lon="1.20002">
        <ele>520</ele>
        <time>2024-06-23T11:58:02Z</time>
      </trkpt>
      <trkpt lat="43.02521" lon="1.19998">
        <ele>520</ele>
        <time>2024-06-23T11:58:03Z</time>
      </trkpt>
      <trkpt lat="43.0252" lon="1.19994">
        <ele>520.4</ele>
        <time>2024-06-23T11:58:04Z</time>
      </trkpt>
      <trkpt lat="43.02519" lon="1.19989">
        <ele>520.8</ele>
        <time>2024-06-23T11:58:05Z</time>
      </trkpt>
      <trkpt lat="43.02518" lon="1.19984">
        <ele>520.8</ele>
        <time>2024-06-23T11:58:06Z</time>
      </trkpt>
      <trkpt lat="43.02517" lon="1.1998">
        <ele>520.8</ele>
        <time>2024-06-23T11:58:07Z</time>
      </trkpt>
      <trkpt lat="43.02516" lon="1.19975">
        <ele>520.8</ele>
        <time>2024-06-23T11:58:08Z</time>
      </trkpt>
      <trkpt lat="43.02515" lon="1.1997">
        <ele>520.8</ele>
        <time>2024-06-23T11:58:09Z</time>
      </trkpt>
      <trkpt lat="43.02513" lon="1.19966">
        <ele>520.8</ele>
        <time>2024-06-23T11:58:10Z</time>
      </trkpt>
      <trkpt lat="43.02512" lon="1.19961">
        <ele>521</ele>
        <time>2024-06-23T11:58:11Z</time>
      </trkpt>
      <trkpt lat="43.02511" lon="1.19956">
        <ele>521</ele>
        <time>2024-06-23T11:58:12Z</time>
      </trkpt>
      <trkpt lat="43.0251" lon="1.19951">
        <ele>521</ele>
        <time>2024-06-23T11:58:13Z</time>
      </trkpt>
      <trkpt lat="43.02509" lon="1.19947">
        <ele>521.6</ele>
        <time>2024-06-23T11:58:14Z</time>
      </trkpt>
      <trkpt lat="43.02508" lon="1.19942">
        <ele>521.6</ele>
        <time>2024-06-23T11:58:15Z</time>
      </trkpt>
      <trkpt lat="43.02507" lon="1.19938">
        <ele>522.2</ele>
        <time>2024-06-23T11:58:16Z</time>
      </trkpt>
      <trkpt lat="43.02506" lon="1.19934">
        <ele>522.2</ele>
        <time>2024-06-23T11:58:17Z</time>
      </trkpt>
      <trkpt lat="43.02505" lon="1.19929">
        <ele>522.2</ele>
        <time>2024-06-23T11:58:18Z</time>
      </trkpt>
      <trkpt lat="43.02504" lon="1.19925">
        <ele>522.2</ele>
        <time>2024-06-23T11:58:19Z</time>
      </trkpt>
      <trkpt lat="43.02503" lon="1.1992">
        <ele>522.2</ele>
        <time>2024-06-23T11:58:20Z</time>
      </trkpt>
      <trkpt lat="43.02501" lon="1.19916">
        <ele>522.8</ele>
        <time>2024-06-23T11:58:21Z</time>
      </trkpt>
      <trkpt lat="43.025" lon="1.19911">
        <ele>522.6</ele>
        <time>2024-06-23T11:58:22Z</time>
      </trkpt>
      <trkpt lat="43.02499" lon="1.19906">
        <ele>522.8</ele>
        <time>2024-06-23T11:58:23Z</time>
      </trkpt>
      <trkpt lat="43.02498" lon="1.19902">
        <ele>523</ele>
        <time>2024-06-23T11:58:24Z</time>
      </trkpt>
      <trkpt lat="43.02497" lon="1.19897">
        <ele>523.2</ele>
        <time>2024-06-23T11:58:25Z</time>
      </trkpt>
      <trkpt lat="43.02496" lon="1.19893">
        <ele>523.2</ele>
        <time>2024-06-23T11:58:26Z</time>
      </trkpt>
      <trkpt lat="43.02495" lon="1.19888">
        <ele>523.2</ele>
        <time>2024-06-23T11:58:27Z</time>
      </trkpt>
      <trkpt lat="43.02494" lon="1.19883">
        <ele>523.2</ele>
        <time>2024-06-23T11:58:28Z</time>
      </trkpt>
      <trkpt lat="43.02493" lon="1.19879">
        <ele>523.2</ele>
        <time>2024-06-23T11:58:29Z</time>
      </trkpt>
      <trkpt lat="43.02491" lon="1.19874">
        <ele>523.8</ele>
        <time>2024-06-23T11:58:30Z</time>
      </trkpt>
      <trkpt lat="43.0249" lon="1.1987">
        <ele>523.8</ele>
        <time>2024-06-23T11:58:31Z</time>
      </trkpt>
      <trkpt lat="43.02489" lon="1.19866">
        <ele>524</ele>
        <time>2024-06-23T11:58:32Z</time>
      </trkpt>
      <trkpt lat="43.02487" lon="1.19862">
        <ele>524</ele>
        <time>2024-06-23T11:58:33Z</time>
      </trkpt>
      <trkpt lat="43.02485" lon="1.19858">
        <ele>524.4</ele>
        <time>2024-06-23T11:58:34Z</time>
      </trkpt>
      <trkpt lat="43.02483" lon="1.19854">
        <ele>524.4</ele>
        <time>2024-06-23T11:58:35Z</time>
      </trkpt>
      <trkpt lat="43.0248" lon="1.1985">
        <ele>525</ele>
        <time>2024-06-23T11:58:36Z</time>
      </trkpt>
      <trkpt lat="43.02477" lon="1.19846">
        <ele>525.2</ele>
        <time>2024-06-23T11:58:37Z</time>
      </trkpt>
      <trkpt lat="43.02475" lon="1.19843">
        <ele>525.6</ele>
        <time>2024-06-23T11:58:38Z</time>
      </trkpt>
      <trkpt lat="43.02472" lon="1.19839">
        <ele>525.6</ele>
        <time>2024-06-23T11:58:39Z</time>
      </trkpt>
      <trkpt lat="43.0247" lon="1.19836">
        <ele>525.6</ele>
        <time>2024-06-23T11:58:40Z</time>
      </trkpt>
      <trkpt lat="43.02467" lon="1.19832">
        <ele>525.6</ele>
        <time>2024-06-23T11:58:41Z</time>
      </trkpt>
      <trkpt lat="43.02465" lon="1.19828">
        <ele>525.6</ele>
        <time>2024-06-23T11:58:42Z</time>
      </trkpt>
      <trkpt lat="43.02462" lon="1.19824">
        <ele>525.6</ele>
        <time>2024-06-23T11:58:43Z</time>
      </trkpt>
      <trkpt lat="43.02459" lon="1.1982">
        <ele>525.6</ele>
        <time>2024-06-23T11:58:44Z</time>
      </trkpt>
      <trkpt lat="43.02456" lon="1.19817">
        <ele>525.4</ele>
        <time>2024-06-23T11:58:45Z</time>
      </trkpt>
      <trkpt lat="43.02454" lon="1.19814">
        <ele>525.2</ele>
        <time>2024-06-23T11:58:46Z</time>
      </trkpt>
      <trkpt lat="43.02451" lon="1.1981">
        <ele>525.4</ele>
        <time>2024-06-23T11:58:47Z</time>
      </trkpt>
      <trkpt lat="43.02449" lon="1.19807">
        <ele>525.4</ele>
        <time>2024-06-23T11:58:48Z</time>
      </trkpt>
      <trkpt lat="43.02446" lon="1.19803">
        <ele>525.8</ele>
        <time>2024-06-23T11:58:49Z</time>
      </trkpt>
      <trkpt lat="43.02444" lon="1.19799">
        <ele>526</ele>
        <time>2024-06-23T11:58:50Z</time>
      </trkpt>
      <trkpt lat="43.02441" lon="1.19796">
        <ele>526</ele>
        <time>2024-06-23T11:58:51Z</time>
      </trkpt>
      <trkpt lat="43.02439" lon="1.19793">
        <ele>526.2</ele>
        <time>2024-06-23T11:58:52Z</time>
      </trkpt>
      <trkpt lat="43.02436" lon="1.1979">
        <ele>526.2</ele>
        <time>2024-06-23T11:58:53Z</time>
      </trkpt>
      <trkpt lat="43.02434" lon="1.19787">
        <ele>526.6</ele>
        <time>2024-06-23T11:58:54Z</time>
      </trkpt>
      <trkpt lat="43.02432" lon="1.19783">
        <ele>526.2</ele>
        <time>2024-06-23T11:58:55Z</time>
      </trkpt>
      <trkpt lat="43.0243" lon="1.1978">
        <ele>526</ele>
        <time>2024-06-23T11:58:56Z</time>
      </trkpt>
      <trkpt lat="43.02427" lon="1.19776">
        <ele>526</ele>
        <time>2024-06-23T11:58:57Z</time>
      </trkpt>
      <trkpt lat="43.02425" lon="1.19772">
        <ele>526</ele>
        <time>2024-06-23T11:58:58Z</time>
      </trkpt>
      <trkpt lat="43.02422" lon="1.19769">
        <ele>526.2</ele>
        <time>2024-06-23T11:58:59Z</time>
      </trkpt>
      <trkpt lat="43.0242" lon="1.19766">
        <ele>526.2</ele>
        <time>2024-06-23T11:59:00Z</time>
      </trkpt>
      <trkpt lat="43.02417" lon="1.19763">
        <ele>525.8</ele>
        <time>2024-06-23T11:59:01Z</time>
      </trkpt>
      <trkpt lat="43.02414" lon="1.19759">
        <ele>526.2</ele>
        <time>2024-06-23T11:59:02Z</time>
      </trkpt>
      <trkpt lat="43.02411" lon="1.19755">
        <ele>526.4</ele>
        <time>2024-06-23T11:59:03Z</time>
      </trkpt>
      <trkpt lat="43.02409" lon="1.19752">
        <ele>526.8</ele>
        <time>2024-06-23T11:59:04Z</time>
      </trkpt>
      <trkpt lat="43.02406" lon="1.19748">
        <ele>526.4</ele>
        <time>2024-06-23T11:59:05Z</time>
      </trkpt>
      <trkpt lat="43.02404" lon="1.19745">
        <ele>526.8</ele>
        <time>2024-06-23T11:59:06Z</time>
      </trkpt>
      <trkpt lat="43.02401" lon="1.19741">
        <ele>526.8</ele>
        <time>2024-06-23T11:59:07Z</time>
      </trkpt>
      <trkpt lat="43.02399" lon="1.19737">
        <ele>526.8</ele>
        <time>2024-06-23T11:59:08Z</time>
      </trkpt>
      <trkpt lat="43.02396" lon="1.19733">
        <ele>527</ele>
        <time>2024-06-23T11:59:09Z</time>
      </trkpt>
      <trkpt lat="43.02394" lon="1.19729">
        <ele>527</ele>
        <time>2024-06-23T11:59:10Z</time>
      </trkpt>
      <trkpt lat="43.02391" lon="1.19725">
        <ele>527</ele>
        <time>2024-06-23T11:59:11Z</time>
      </trkpt>
      <trkpt lat="43.02388" lon="1.19721">
        <ele>527</ele>
        <time>2024-06-23T11:59:12Z</time>
      </trkpt>
      <trkpt lat="43.02385" lon="1.19718">
        <ele>527.4</ele>
        <time>2024-06-23T11:59:13Z</time>
      </trkpt>
      <trkpt lat="43.02382" lon="1.19714">
        <ele>527.6</ele>
        <time>2024-06-23T11:59:14Z</time>
      </trkpt>
      <trkpt lat="43.02378" lon="1.19711">
        <ele>527.6</ele>
        <time>2024-06-23T11:59:15Z</time>
      </trkpt>
      <trkpt lat="43.02375" lon="1.19708">
        <ele>527.8</ele>
        <time>2024-06-23T11:59:16Z</time>
      </trkpt>
      <trkpt lat="43.02372" lon="1.19706">
        <ele>527.8</ele>
        <time>2024-06-23T11:59:17Z</time>
      </trkpt>
      <trkpt lat="43.02368" lon="1.19703">
        <ele>528</ele>
        <time>2024-06-23T11:59:18Z</time>
      </trkpt>
      <trkpt lat="43.02365" lon="1.19701">
        <ele>528</ele>
        <time>2024-06-23T11:59:19Z</time>
      </trkpt>
      <trkpt lat="43.02362" lon="1.19698">
        <ele>528</ele>
        <time>2024-06-23T11:59:20Z</time>
      </trkpt>
      <trkpt lat="43.02359" lon="1.19695">
        <ele>528</ele>
        <time>2024-06-23T11:59:21Z</time>
      </trkpt>
      <trkpt lat="43.02356" lon="1.19691">
        <ele>528.4</ele>
        <time>2024-06-23T11:59:22Z</time>
      </trkpt>
      <trkpt lat="43.02352" lon="1.19688">
        <ele>528.4</ele>
        <time>2024-06-23T11:59:23Z</time>
      </trkpt>
      <trkpt lat="43.02348" lon="1.19684">
        <ele>528.4</ele>
        <time>2024-06-23T11:59:24Z</time>
      </trkpt>
      <trkpt lat="43.02344" lon="1.19681">
        <ele>528.4</ele>
        <time>2024-06-23T11:59:25Z</time>
      </trkpt>
      <trkpt lat="43.0234" lon="1.19677">
        <ele>528.4</ele>
        <time>2024-06-23T11:59:26Z</time>
      </trkpt>
      <trkpt lat="43.02336" lon="1.19673">
        <ele>528.4</ele>
        <time>2024-06-23T11:59:27Z</time>
      </trkpt>
      <trkpt lat="43.02332" lon="1.1967">
        <ele>528.4</ele>
        <time>2024-06-23T11:59:28Z</time>
      </trkpt>
      <trkpt lat="43.02327" lon="1.19666">
        <ele>528.2</ele>
        <time>2024-06-23T11:59:29Z</time>
      </trkpt>
      <trkpt lat="43.02322" lon="1.19662">
        <ele>528.2</ele>
        <time>2024-06-23T11:59:30Z</time>
      </trkpt>
      <trkpt lat="43.02317" lon="1.19658">
        <ele>528</ele>
        <time>2024-06-23T11:59:31Z</time>
      </trkpt>
      <trkpt lat="43.02313" lon="1.19654">
        <ele>527.6</ele>
        <time>2024-06-23T11:59:32Z</time>
      </trkpt>
      <trkpt lat="43.02309" lon="1.19651">
        <ele>527.6</ele>
        <time>2024-06-23T11:59:33Z</time>
      </trkpt>
      <trkpt lat="43.02305" lon="1.19647">
        <ele>527.6</ele>
        <time>2024-06-23T11:59:34Z</time>
      </trkpt>
      <trkpt lat="43.023" lon="1.19645">
        <ele>527.6</ele>
        <time>2024-06-23T11:59:35Z</time>
      </trkpt>
      <trkpt lat="43.02295" lon="1.19642">
        <ele>527.6</ele>
        <time>2024-06-23T11:59:36Z</time>
      </trkpt>
      <trkpt lat="43.02291" lon="1.1964">
        <ele>527.6</ele>
        <time>2024-06-23T11:59:37Z</time>
      </trkpt>
      <trkpt lat="43.02287" lon="1.19637">
        <ele>527.6</ele>
        <time>2024-06-23T11:59:38Z</time>
      </trkpt>
      <trkpt lat="43.02282" lon="1.19635">
        <ele>527.4</ele>
        <time>2024-06-23T11:59:39Z</time>
      </trkpt>
      <trkpt lat="43.02277" lon="1.19634">
        <ele>527.4</ele>
        <time>2024-06-23T11:59:40Z</time>
      </trkpt>
      <trkpt lat="43.02272" lon="1.19632">
        <ele>526.8</ele>
        <time>2024-06-23T11:59:41Z</time>
      </trkpt>
      <trkpt lat="43.02266" lon="1.19631">
        <ele>526.4</ele>
        <time>2024-06-23T11:59:42Z</time>
      </trkpt>
      <trkpt lat="43.0226" lon="1.19632">
        <ele>526</ele>
        <time>2024-06-23T11:59:43Z</time>
      </trkpt>
      <trkpt lat="43.02253" lon="1.19633">
        <ele>525.6</ele>
        <time>2024-06-23T11:59:44Z</time>
      </trkpt>
      <trkpt lat="43.02246" lon="1.19635">
        <ele>525.2</ele>
        <time>2024-06-23T11:59:45Z</time>
      </trkpt>
      <trkpt lat="43.02239" lon="1.19636">
        <ele>524.8</ele>
        <time>2024-06-23T11:59:46Z</time>
      </trkpt>
      <trkpt lat="43.02232" lon="1.19637">
        <ele>524.6</ele>
        <time>2024-06-23T11:59:47Z</time>
      </trkpt>
      <trkpt lat="43.02224" lon="1.19638">
        <ele>524.2</ele>
        <time>2024-06-23T11:59:48Z</time>
      </trkpt>
      <trkpt lat="43.02218" lon="1.19638">
        <ele>524</ele>
        <time>2024-06-23T11:59:49Z</time>
      </trkpt>
      <trkpt lat="43.02211" lon="1.19635">
        <ele>523.6</ele>
        <time>2024-06-23T11:59:50Z</time>
      </trkpt>
      <trkpt lat="43.02205" lon="1.19634">
        <ele>523.4</ele>
        <time>2024-06-23T11:59:51Z</time>
      </trkpt>
      <trkpt lat="43.02199" lon="1.19633">
        <ele>523</ele>
        <time>2024-06-23T11:59:52Z</time>
      </trkpt>
      <trkpt lat="43.0219" lon="1.19629">
        <ele>523</ele>
        <time>2024-06-23T11:59:53Z</time>
      </trkpt>
      <trkpt lat="43.02184" lon="1.19627">
        <ele>523</ele>
        <time>2024-06-23T11:59:54Z</time>
      </trkpt>
      <trkpt lat="43.02176" lon="1.19625">
        <ele>522.6</ele>
        <time>2024-06-23T11:59:55Z</time>
      </trkpt>
      <trkpt lat="43.02169" lon="1.19624">
        <ele>522.6</ele>
        <time>2024-06-23T11:59:56Z</time>
      </trkpt>
      <trkpt lat="43.02162" lon="1.19623">
        <ele>522.2</ele>
        <time>2024-06-23T11:59:57Z</time>
      </trkpt>
      <trkpt lat="43.02156" lon="1.19623">
        <ele>522.6</ele>
        <time>2024-06-23T11:59:58Z</time>
      </trkpt>
      <trkpt lat="43.0215" lon="1.19625">
        <ele>522.6</ele>
        <time>2024-06-23T11:59:59Z</time>
      </trkpt>
      <trkpt lat="43.02144" lon="1.19628">
        <ele>522.8</ele>
        <time>2024-06-23T12:00:00Z</time>
      </trkpt>
      <trkpt lat="43.02137" lon="1.1963">
        <ele>522.8</ele>
        <time>2024-06-23T12:00:01Z</time>
      </trkpt>
      <trkpt lat="43.02131" lon="1.19633">
        <ele>522.8</ele>
        <time>2024-06-23T12:00:02Z</time>
      </trkpt>
      <trkpt lat="43.02125" lon="1.19636">
        <ele>522.8</ele>
        <time>2024-06-23T12:00:03Z</time>
      </trkpt>
      <trkpt lat="43.0212" lon="1.1964">
        <ele>522.4</ele>
        <time>2024-06-23T12:00:04Z</time>
      </trkpt>
      <trkpt lat="43.02115" lon="1.19644">
        <ele>522.4</ele>
        <time>2024-06-23T12:00:05Z</time>
      </trkpt>
      <trkpt lat="43.02109" lon="1.19647">
        <ele>522.8</ele>
        <time>2024-06-23T12:00:06Z</time>
      </trkpt>
      <trkpt lat="43.02104" lon="1.19651">
        <ele>523.2</ele>
        <time>2024-06-23T12:00:07Z</time>
      </trkpt>
      <trkpt lat="43.02099" lon="1.19654">
        <ele>523.4</ele>
        <time>2024-06-23T12:00:08Z</time>
      </trkpt>
      <trkpt lat="43.02094" lon="1.19657">
        <ele>523.4</ele>
        <time>2024-06-23T12:00:09Z</time>
      </trkpt>
      <trkpt lat="43.0209" lon="1.1966">
        <ele>523.4</ele>
        <time>2024-06-23T12:00:10Z</time>
      </trkpt>
      <trkpt lat="43.02085" lon="1.19664">
        <ele>523.8</ele>
        <time>2024-06-23T12:00:11Z</time>
      </trkpt>
      <trkpt lat="43.02081" lon="1.19665">
        <ele>524</ele>
        <time>2024-06-23T12:00:12Z</time>
      </trkpt>
      <trkpt lat="43.02076" lon="1.19667">
        <ele>524.2</ele>
        <time>2024-06-23T12:00:13Z</time>
      </trkpt>
      <trkpt lat="43.02072" lon="1.19669">
        <ele>524.2</ele>
        <time>2024-06-23T12:00:14Z</time>
      </trkpt>
      <trkpt lat="43.02067" lon="1.19669">
        <ele>524.2</ele>
        <time>2024-06-23T12:00:15Z</time>
      </trkpt>
      <trkpt lat="43.02062" lon="1.1967">
        <ele>524.4</ele>
        <time>2024-06-23T12:00:16Z</time>
      </trkpt>
      <trkpt lat="43.02056" lon="1.19669">
        <ele>524.4</ele>
        <time>2024-06-23T12:00:17Z</time>
      </trkpt>
      <trkpt lat="43.0205" lon="1.19669">
        <ele>524.8</ele>
        <time>2024-06-23T12:00:18Z</time>
      </trkpt>
      <trkpt lat="43.02045" lon="1.19669">
        <ele>524.8</ele>
        <time>2024-06-23T12:00:19Z</time>
      </trkpt>
      <trkpt lat="43.0204" lon="1.1967">
        <ele>525</ele>
        <time>2024-06-23T12:00:20Z</time>
      </trkpt>
      <trkpt lat="43.02034" lon="1.1967">
        <ele>525</ele>
        <time>2024-06-23T12:00:21Z</time>
      </trkpt>
      <trkpt lat="43.02028" lon="1.1967">
        <ele>525</ele>
        <time>2024-06-23T12:00:22Z</time>
      </trkpt>
      <trkpt lat="43.02022" lon="1.19672">
        <ele>524.6</ele>
        <time>2024-06-23T12:00:23Z</time>
      </trkpt>
      <trkpt lat="43.0201" lon="1.19677">
        <ele>524.6</ele>
        <time>2024-06-23T12:00:24Z</time>
      </trkpt>
      <trkpt lat="43.02005" lon="1.1968">
        <ele>524.6</ele>
        <time>2024-06-23T12:00:25Z</time>
      </trkpt>
      <trkpt lat="43.02" lon="1.19684">
        <ele>524.8</ele>
        <time>2024-06-23T12:00:26Z</time>
      </trkpt>
      <trkpt lat="43.01995" lon="1.19688">
        <ele>524.8</ele>
        <time>2024-06-23T12:00:27Z</time>
      </trkpt>
      <trkpt lat="43.0199" lon="1.19692">
        <ele>525.2</ele>
        <time>2024-06-23T12:00:28Z</time>
      </trkpt>
      <trkpt lat="43.01986" lon="1.19697">
        <ele>525.2</ele>
        <time>2024-06-23T12:00:29Z</time>
      </trkpt>
      <trkpt lat="43.01982" lon="1.19701">
        <ele>525.2</ele>
        <time>2024-06-23T12:00:30Z</time>
      </trkpt>
      <trkpt lat="43.01978" lon="1.19704">
        <ele>525.6</ele>
        <time>2024-06-23T12:00:31Z</time>
      </trkpt>
      <trkpt lat="43.01975" lon="1.19708">
        <ele>525.6</ele>
        <time>2024-06-23T12:00:32Z</time>
      </trkpt>
      <trkpt lat="43.01972" lon="1.19713">
        <ele>525.6</ele>
        <time>2024-06-23T12:00:33Z</time>
      </trkpt>
      <trkpt lat="43.01968" lon="1.19717">
        <ele>525.8</ele>
        <time>2024-06-23T12:00:34Z</time>
      </trkpt>
      <trkpt lat="43.01966" lon="1.19722">
        <ele>526</ele>
        <time>2024-06-23T12:00:35Z</time>
      </trkpt>
      <trkpt lat="43.01963" lon="1.19727">
        <ele>526.4</ele>
        <time>2024-06-23T12:00:36Z</time>
      </trkpt>
      <trkpt lat="43.01961" lon="1.19731">
        <ele>526.4</ele>
        <time>2024-06-23T12:00:37Z</time>
      </trkpt>
      <trkpt lat="43.01957" lon="1.19736">
        <ele>526.6</ele>
        <time>2024-06-23T12:00:38Z</time>
      </trkpt>
      <trkpt lat="43.01954" lon="1.1974">
        <ele>527.2</ele>
        <time>2024-06-23T12:00:39Z</time>
      </trkpt>
      <trkpt lat="43.01952" lon="1.19745">
        <ele>527.2</ele>
        <time>2024-06-23T12:00:40Z</time>
      </trkpt>
      <trkpt lat="43.01949" lon="1.19751">
        <ele>527.2</ele>
        <time>2024-06-23T12:00:41Z</time>
      </trkpt>
      <trkpt lat="43.01947" lon="1.19756">
        <ele>527.6</ele>
        <time>2024-06-23T12:00:42Z</time>
      </trkpt>
      <trkpt lat="43.01944" lon="1.1976">
        <ele>528.2</ele>
        <time>2024-06-23T12:00:43Z</time>
      </trkpt>
      <trkpt lat="43.01942" lon="1.19765">
        <ele>528.2</ele>
        <time>2024-06-23T12:00:44Z</time>
      </trkpt>
      <trkpt lat="43.01939" lon="1.19769">
        <ele>528.6</ele>
        <time>2024-06-23T12:00:45Z</time>
      </trkpt>
      <trkpt lat="43.01937" lon="1.19774">
        <ele>529</ele>
        <time>2024-06-23T12:00:46Z</time>
      </trkpt>
      <trkpt lat="43.01935" lon="1.19779">
        <ele>529.2</ele>
        <time>2024-06-23T12:00:47Z</time>
      </trkpt>
      <trkpt lat="43.01933" lon="1.19784">
        <ele>529.2</ele>
        <time>2024-06-23T12:00:48Z</time>
      </trkpt>
      <trkpt lat="43.0193" lon="1.19789">
        <ele>529.6</ele>
        <time>2024-06-23T12:00:49Z</time>
      </trkpt>
      <trkpt lat="43.01928" lon="1.19793">
        <ele>529.6</ele>
        <time>2024-06-23T12:00:50Z</time>
      </trkpt>
      <trkpt lat="43.01925" lon="1.19797">
        <ele>529.8</ele>
        <time>2024-06-23T12:00:51Z</time>
      </trkpt>
      <trkpt lat="43.01924" lon="1.19801">
        <ele>530.4</ele>
        <time>2024-06-23T12:00:52Z</time>
      </trkpt>
      <trkpt lat="43.01922" lon="1.19805">
        <ele>530.8</ele>
        <time>2024-06-23T12:00:53Z</time>
      </trkpt>
      <trkpt lat="43.01919" lon="1.19808">
        <ele>531</ele>
        <time>2024-06-23T12:00:54Z</time>
      </trkpt>
      <trkpt lat="43.01917" lon="1.19812">
        <ele>531</ele>
        <time>2024-06-23T12:00:55Z</time>
      </trkpt>
      <trkpt lat="43.01916" lon="1.19815">
        <ele>531.4</ele>
        <time>2024-06-23T12:00:56Z</time>
      </trkpt>
      <trkpt lat="43.01914" lon="1.19819">
        <ele>531.4</ele>
        <time>2024-06-23T12:00:57Z</time>
      </trkpt>
      <trkpt lat="43.01912" lon="1.19823">
        <ele>531.4</ele>
        <time>2024-06-23T12:00:58Z</time>
      </trkpt>
      <trkpt lat="43.0191" lon="1.19827">
        <ele>531.8</ele>
        <time>2024-06-23T12:00:59Z</time>
      </trkpt>
      <trkpt lat="43.01907" lon="1.1983">
        <ele>531.8</ele>
        <time>2024-06-23T12:01:00Z</time>
      </trkpt>
      <trkpt lat="43.01904" lon="1.19833">
        <ele>532.2</ele>
        <time>2024-06-23T12:01:01Z</time>
      </trkpt>
      <trkpt lat="43.01901" lon="1.19836">
        <ele>532.4</ele>
        <time>2024-06-23T12:01:02Z</time>
      </trkpt>
      <trkpt lat="43.01898" lon="1.19838">
        <ele>532.4</ele>
        <time>2024-06-23T12:01:03Z</time>
      </trkpt>
      <trkpt lat="43.01894" lon="1.1984">
        <ele>532.8</ele>
        <time>2024-06-23T12:01:04Z</time>
      </trkpt>
      <trkpt lat="43.01891" lon="1.19841">
        <ele>533.2</ele>
        <time>2024-06-23T12:01:05Z</time>
      </trkpt>
      <trkpt lat="43.01887" lon="1.19842">
        <ele>533.2</ele>
        <time>2024-06-23T12:01:06Z</time>
      </trkpt>
      <trkpt lat="43.01883" lon="1.19843">
        <ele>533.6</ele>
        <time>2024-06-23T12:01:07Z</time>
      </trkpt>
      <trkpt lat="43.0188" lon="1.19843">
        <ele>533.6</ele>
        <time>2024-06-23T12:01:08Z</time>
      </trkpt>
      <trkpt lat="43.01877" lon="1.19844">
        <ele>534</ele>
        <time>2024-06-23T12:01:09Z</time>
      </trkpt>
      <trkpt lat="43.01874" lon="1.19843">
        <ele>534.2</ele>
        <time>2024-06-23T12:01:10Z</time>
      </trkpt>
      <trkpt lat="43.01871" lon="1.19843">
        <ele>534.6</ele>
        <time>2024-06-23T12:01:11Z</time>
      </trkpt>
      <trkpt lat="43.01868" lon="1.19843">
        <ele>534.6</ele>
        <time>2024-06-23T12:01:12Z</time>
      </trkpt>
      <trkpt lat="43.01865" lon="1.19843">
        <ele>534.8</ele>
        <time>2024-06-23T12:01:13Z</time>
      </trkpt>
      <trkpt lat="43.01862" lon="1.19844">
        <ele>534.8</ele>
        <time>2024-06-23T12:01:14Z</time>
      </trkpt>
      <trkpt lat="43.01859" lon="1.19845">
        <ele>535</ele>
        <time>2024-06-23T12:01:15Z</time>
      </trkpt>
      <trkpt lat="43.01856" lon="1.19846">
        <ele>535</ele>
        <time>2024-06-23T12:01:16Z</time>
      </trkpt>
      <trkpt lat="43.01853" lon="1.19847">
        <ele>535</ele>
        <time>2024-06-23T12:01:17Z</time>
      </trkpt>
      <trkpt lat="43.0185" lon="1.19848">
        <ele>535</ele>
        <time>2024-06-23T12:01:18Z</time>
      </trkpt>
      <trkpt lat="43.01848" lon="1.19849">
        <ele>535</ele>
        <time>2024-06-23T12:01:19Z</time>
      </trkpt>
      <trkpt lat="43.01845" lon="1.1985">
        <ele>535.2</ele>
        <time>2024-06-23T12:01:20Z</time>
      </trkpt>
      <trkpt lat="43.01843" lon="1.1985">
        <ele>535.2</ele>
        <time>2024-06-23T12:01:21Z</time>
      </trkpt>
      <trkpt lat="43.01842" lon="1.19849">
        <ele>535.6</ele>
        <time>2024-06-23T12:01:22Z</time>
      </trkpt>
      <trkpt lat="43.01842" lon="1.19849">
        <ele>535.6</ele>
        <time>2024-06-23T12:01:23Z</time>
      </trkpt>
      <trkpt lat="43.01842" lon="1.19849">
        <ele>535.6</ele>
        <time>2024-06-23T12:01:24Z</time>
      </trkpt>
      <trkpt lat="43.01842" lon="1.19849">
        <ele>535.6</ele>
        <time>2024-06-23T12:01:25Z</time>
      </trkpt>
      <trkpt lat="43.01841" lon="1.19852">
        <ele>537</ele>
        <time>2024-06-23T12:04:53Z</time>
      </trkpt>
      <trkpt lat="43.0184" lon="1.19854">
        <ele>537</ele>
        <time>2024-06-23T12:04:54Z</time>
      </trkpt>
      <trkpt lat="43.0184" lon="1.19857">
        <ele>537</ele>
        <time>2024-06-23T12:04:55Z</time>
      </trkpt>
      <trkpt lat="43.01839" lon="1.19859">
        <ele>537</ele>
        <time>2024-06-23T12:04:56Z</time>
      </trkpt>
      <trkpt lat="43.01838" lon="1.19861">
        <ele>537</ele>
        <time>2024-06-23T12:04:57Z</time>
      </trkpt>
      <trkpt lat="43.01836" lon="1.19863">
        <ele>537</ele>
        <time>2024-06-23T12:04:58Z</time>
      </trkpt>
      <trkpt lat="43.01834" lon="1.19865">
        <ele>537</ele>
        <time>2024-06-23T12:04:59Z</time>
      </trkpt>
      <trkpt lat="43.01831" lon="1.19868">
        <ele>537</ele>
        <time>2024-06-23T12:05:00Z</time>
      </trkpt>
      <trkpt lat="43.01828" lon="1.19871">
        <ele>536.6</ele>
        <time>2024-06-23T12:05:01Z</time>
      </trkpt>
      <trkpt lat="43.01826" lon="1.19874">
        <ele>536.6</ele>
        <time>2024-06-23T12:05:02Z</time>
      </trkpt>
      <trkpt lat="43.01822" lon="1.19877">
        <ele>536.6</ele>
        <time>2024-06-23T12:05:03Z</time>
      </trkpt>
      <trkpt lat="43.01819" lon="1.1988">
        <ele>536.6</ele>
        <time>2024-06-23T12:05:04Z</time>
      </trkpt>
      <trkpt lat="43.01815" lon="1.19884">
        <ele>536.6</ele>
        <time>2024-06-23T12:05:05Z</time>
      </trkpt>
      <trkpt lat="43.01811" lon="1.19889">
        <ele>536.6</ele>
        <time>2024-06-23T12:05:06Z</time>
      </trkpt>
      <trkpt lat="43.01807" lon="1.19893">
        <ele>536.4</ele>
        <time>2024-06-23T12:05:07Z</time>
      </trkpt>
      <trkpt lat="43.01803" lon="1.19898">
        <ele>536.4</ele>
        <time>2024-06-23T12:05:08Z</time>
      </trkpt>
      <trkpt lat="43.01798" lon="1.19902">
        <ele>536</ele>
        <time>2024-06-23T12:05:09Z</time>
      </trkpt>
      <trkpt lat="43.01794" lon="1.19908">
        <ele>535.6</ele>
        <time>2024-06-23T12:05:10Z</time>
      </trkpt>
      <trkpt lat="43.01789" lon="1.19913">
        <ele>535.6</ele>
        <time>2024-06-23T12:05:11Z</time>
      </trkpt>
      <trkpt lat="43.01785" lon="1.1992">
        <ele>535.4</ele>
        <time>2024-06-23T12:05:12Z</time>
      </trkpt>
      <trkpt lat="43.01781" lon="1.19926">
        <ele>535.4</ele>
        <time>2024-06-23T12:05:13Z</time>
      </trkpt>
      <trkpt lat="43.01778" lon="1.19933">
        <ele>535.2</ele>
        <time>2024-06-23T12:05:14Z</time>
      </trkpt>
      <trkpt lat="43.01774" lon="1.19941">
        <ele>535.2</ele>
        <time>2024-06-23T12:05:15Z</time>
      </trkpt>
      <trkpt lat="43.01771" lon="1.19948">
        <ele>534.6</ele>
        <time>2024-06-23T12:05:16Z</time>
      </trkpt>
      <trkpt lat="43.01767" lon="1.19956">
        <ele>534</ele>
        <time>2024-06-23T12:05:17Z</time>
      </trkpt>
      <trkpt lat="43.01762" lon="1.19964">
        <ele>533.6</ele>
        <time>2024-06-23T12:05:18Z</time>
      </trkpt>
      <trkpt lat="43.01759" lon="1.19973">
        <ele>533.2</ele>
        <time>2024-06-23T12:05:19Z</time>
      </trkpt>
      <trkpt lat="43.01755" lon="1.19981">
        <ele>533</ele>
        <time>2024-06-23T12:05:20Z</time>
      </trkpt>
      <trkpt lat="43.01751" lon="1.1999">
        <ele>532.4</ele>
        <time>2024-06-23T12:05:21Z</time>
      </trkpt>
      <trkpt lat="43.01747" lon="1.2">
        <ele>532</ele>
        <time>2024-06-23T12:05:22Z</time>
      </trkpt>
      <trkpt lat="43.01744" lon="1.20009">
        <ele>531.6</ele>
        <time>2024-06-23T12:05:23Z</time>
      </trkpt>
      <trkpt lat="43.01739" lon="1.20019">
        <ele>531.2</ele>
        <time>2024-06-23T12:05:24Z</time>
      </trkpt>
      <trkpt lat="43.01735" lon="1.20029">
        <ele>530.6</ele>
        <time>2024-06-23T12:05:25Z</time>
      </trkpt>
      <trkpt lat="43.01731" lon="1.20039">
        <ele>530.2</ele>
        <time>2024-06-23T12:05:26Z</time>
      </trkpt>
      <trkpt lat="43.01726" lon="1.2005">
        <ele>529.6</ele>
        <time>2024-06-23T12:05:27Z</time>
      </trkpt>
      <trkpt lat="43.01721" lon="1.2006">
        <ele>528.8</ele>
        <time>2024-06-23T12:05:28Z</time>
      </trkpt>
      <trkpt lat="43.01716" lon="1.2007">
        <ele>528</ele>
        <time>2024-06-23T12:05:29Z</time>
      </trkpt>
      <trkpt lat="43.01703" lon="1.20088">
        <ele>527.4</ele>
        <time>2024-06-23T12:05:30Z</time>
      </trkpt>
      <trkpt lat="43.01696" lon="1.20097">
        <ele>527</ele>
        <time>2024-06-23T12:05:31Z</time>
      </trkpt>
      <trkpt lat="43.01689" lon="1.20107">
        <ele>526.6</ele>
        <time>2024-06-23T12:05:32Z</time>
      </trkpt>
      <trkpt lat="43.01682" lon="1.20115">
        <ele>525.8</ele>
        <time>2024-06-23T12:05:33Z</time>
      </trkpt>
      <trkpt lat="43.01677" lon="1.20122">
        <ele>525.4</ele>
        <time>2024-06-23T12:05:34Z</time>
      </trkpt>
      <trkpt lat="43.01671" lon="1.20126">
        <ele>524.8</ele>
        <time>2024-06-23T12:05:35Z</time>
      </trkpt>
      <trkpt lat="43.01665" lon="1.20126">
        <ele>524.4</ele>
        <time>2024-06-23T12:05:36Z</time>
      </trkpt>
      <trkpt lat="43.0166" lon="1.20122">
        <ele>523.8</ele>
        <time>2024-06-23T12:05:37Z</time>
      </trkpt>
      <trkpt lat="43.01657" lon="1.20117">
        <ele>523.4</ele>
        <time>2024-06-23T12:05:38Z</time>
      </trkpt>
      <trkpt lat="43.01656" lon="1.20109">
        <ele>523</ele>
        <time>2024-06-23T12:05:39Z</time>
      </trkpt>
      <trkpt lat="43.01657" lon="1.20102">
        <ele>522.6</ele>
        <time>2024-06-23T12:05:40Z</time>
      </trkpt>
      <trkpt lat="43.01659" lon="1.20094">
        <ele>522.6</ele>
        <time>2024-06-23T12:05:41Z</time>
      </trkpt>
      <trkpt lat="43.01662" lon="1.20086">
        <ele>522.4</ele>
        <time>2024-06-23T12:05:42Z</time>
      </trkpt>
      <trkpt lat="43.01664" lon="1.20078">
        <ele>521.8</ele>
        <time>2024-06-23T12:05:43Z</time>
      </trkpt>
      <trkpt lat="43.01665" lon="1.2007">
        <ele>521.2</ele>
        <time>2024-06-23T12:05:44Z</time>
      </trkpt>
      <trkpt lat="43.01665" lon="1.2006">
        <ele>520.6</ele>
        <time>2024-06-23T12:05:45Z</time>
      </trkpt>
      <trkpt lat="43.01665" lon="1.20051">
        <ele>520.6</ele>
        <time>2024-06-23T12:05:46Z</time>
      </trkpt>
      <trkpt lat="43.01664" lon="1.20041">
        <ele>520</ele>
        <time>2024-06-23T12:05:47Z</time>
      </trkpt>
      <trkpt lat="43.01661" lon="1.20031">
        <ele>519.6</ele>
        <time>2024-06-23T12:05:48Z</time>
      </trkpt>
      <trkpt lat="43.01657" lon="1.20022">
        <ele>519.2</ele>
        <time>2024-06-23T12:05:49Z</time>
      </trkpt>
      <trkpt lat="43.01653" lon="1.20013">
        <ele>518.4</ele>
        <time>2024-06-23T12:05:50Z</time>
      </trkpt>
      <trkpt lat="43.01648" lon="1.20004">
        <ele>517.4</ele>
        <time>2024-06-23T12:05:51Z</time>
      </trkpt>
      <trkpt lat="43.01642" lon="1.19995">
        <ele>517</ele>
        <time>2024-06-23T12:05:52Z</time>
      </trkpt>
      <trkpt lat="43.01636" lon="1.19987">
        <ele>516</ele>
        <time>2024-06-23T12:05:53Z</time>
      </trkpt>
      <trkpt lat="43.01629" lon="1.19979">
        <ele>515.8</ele>
        <time>2024-06-23T12:05:54Z</time>
      </trkpt>
      <trkpt lat="43.01623" lon="1.19972">
        <ele>515.4</ele>
        <time>2024-06-23T12:05:55Z</time>
      </trkpt>
      <trkpt lat="43.01616" lon="1.19965">
        <ele>515</ele>
        <time>2024-06-23T12:05:56Z</time>
      </trkpt>
      <trkpt lat="43.01608" lon="1.19959">
        <ele>514.6</ele>
        <time>2024-06-23T12:05:57Z</time>
      </trkpt>
      <trkpt lat="43.016" lon="1.19954">
        <ele>514.2</ele>
        <time>2024-06-23T12:05:58Z</time>
      </trkpt>
      <trkpt lat="43.01591" lon="1.19953">
        <ele>513.8</ele>
        <time>2024-06-23T12:05:59Z</time>
      </trkpt>
      <trkpt lat="43.01583" lon="1.19952">
        <ele>513.4</ele>
        <time>2024-06-23T12:06:00Z</time>
      </trkpt>
      <trkpt lat="43.01575" lon="1.19953">
        <ele>513</ele>
        <time>2024-06-23T12:06:01Z</time>
      </trkpt>
      <trkpt lat="43.01567" lon="1.19955">
        <ele>512.6</ele>
        <time>2024-06-23T12:06:02Z</time>
      </trkpt>
      <trkpt lat="43.01558" lon="1.19958">
        <ele>512.6</ele>
        <time>2024-06-23T12:06:03Z</time>
      </trkpt>
      <trkpt lat="43.0155" lon="1.19961">
        <ele>512.2</ele>
        <time>2024-06-23T12:06:04Z</time>
      </trkpt>
      <trkpt lat="43.01542" lon="1.19963">
        <ele>512</ele>
        <time>2024-06-23T12:06:05Z</time>
      </trkpt>
      <trkpt lat="43.01534" lon="1.19965">
        <ele>512</ele>
        <time>2024-06-23T12:06:06Z</time>
      </trkpt>
      <trkpt lat="43.01526" lon="1.19964">
        <ele>511.4</ele>
        <time>2024-06-23T12:06:07Z</time>
      </trkpt>
      <trkpt lat="43.01519" lon="1.1996">
        <ele>511.4</ele>
        <time>2024-06-23T12:06:08Z</time>
      </trkpt>
      <trkpt lat="43.01511" lon="1.19955">
        <ele>511.4</ele>
        <time>2024-06-23T12:06:09Z</time>
      </trkpt>
      <trkpt lat="43.01505" lon="1.19948">
        <ele>511</ele>
        <time>2024-06-23T12:06:10Z</time>
      </trkpt>
      <trkpt lat="43.01498" lon="1.19941">
        <ele>510.8</ele>
        <time>2024-06-23T12:06:11Z</time>
      </trkpt>
      <trkpt lat="43.01493" lon="1.19935">
        <ele>510.8</ele>
        <time>2024-06-23T12:06:12Z</time>
      </trkpt>
      <trkpt lat="43.01487" lon="1.19927">
        <ele>510.4</ele>
        <time>2024-06-23T12:06:13Z</time>
      </trkpt>
      <trkpt lat="43.01482" lon="1.19918">
        <ele>510.4</ele>
        <time>2024-06-23T12:06:14Z</time>
      </trkpt>
      <trkpt lat="43.01477" lon="1.1991">
        <ele>510</ele>
        <time>2024-06-23T12:06:15Z</time>
      </trkpt>
      <trkpt lat="43.01473" lon="1.19902">
        <ele>509.8</ele>
        <time>2024-06-23T12:06:16Z</time>
      </trkpt>
      <trkpt lat="43.01469" lon="1.19892">
        <ele>509.8</ele>
        <time>2024-06-23T12:06:17Z</time>
      </trkpt>
      <trkpt lat="43.01465" lon="1.19884">
        <ele>509.2</ele>
        <time>2024-06-23T12:06:18Z</time>
      </trkpt>
      <trkpt lat="43.01463" lon="1.19874">
        <ele>508.8</ele>
        <time>2024-06-23T12:06:19Z</time>
      </trkpt>
      <trkpt lat="43.01459" lon="1.19864">
        <ele>508.6</ele>
        <time>2024-06-23T12:06:20Z</time>
      </trkpt>
      <trkpt lat="43.01457" lon="1.19855">
        <ele>508.6</ele>
        <time>2024-06-23T12:06:21Z</time>
      </trkpt>
      <trkpt lat="43.01454" lon="1.19845">
        <ele>508</ele>
        <time>2024-06-23T12:06:22Z</time>
      </trkpt>
      <trkpt lat="43.01452" lon="1.19835">
        <ele>507.6</ele>
        <time>2024-06-23T12:06:23Z</time>
      </trkpt>
      <trkpt lat="43.0145" lon="1.19825">
        <ele>507.6</ele>
        <time>2024-06-23T12:06:24Z</time>
      </trkpt>
      <trkpt lat="43.0145" lon="1.19814">
        <ele>507.2</ele>
        <time>2024-06-23T12:06:25Z</time>
      </trkpt>
      <trkpt lat="43.01449" lon="1.19804">
        <ele>506.6</ele>
        <time>2024-06-23T12:06:26Z</time>
      </trkpt>
      <trkpt lat="43.01448" lon="1.19793">
        <ele>506.2</ele>
        <time>2024-06-23T12:06:27Z</time>
      </trkpt>
      <trkpt lat="43.01449" lon="1.19783">
        <ele>506.2</ele>
        <time>2024-06-23T12:06:28Z</time>
      </trkpt>
      <trkpt lat="43.01449" lon="1.19772">
        <ele>506</ele>
        <time>2024-06-23T12:06:29Z</time>
      </trkpt>
      <trkpt lat="43.01451" lon="1.19762">
        <ele>506</ele>
        <time>2024-06-23T12:06:30Z</time>
      </trkpt>
      <trkpt lat="43.01452" lon="1.19751">
        <ele>506</ele>
        <time>2024-06-23T12:06:31Z</time>
      </trkpt>
      <trkpt lat="43.01454" lon="1.1974">
        <ele>505.6</ele>
        <time>2024-06-23T12:06:32Z</time>
      </trkpt>
      <trkpt lat="43.01457" lon="1.19731">
        <ele>505.4</ele>
        <time>2024-06-23T12:06:33Z</time>
      </trkpt>
      <trkpt lat="43.0146" lon="1.19721">
        <ele>505.2</ele>
        <time>2024-06-23T12:06:34Z</time>
      </trkpt>
      <trkpt lat="43.01463" lon="1.19712">
        <ele>505.2</ele>
        <time>2024-06-23T12:06:35Z</time>
      </trkpt>
      <trkpt lat="43.01468" lon="1.19704">
        <ele>505.2</ele>
        <time>2024-06-23T12:06:36Z</time>
      </trkpt>
      <trkpt lat="43.01472" lon="1.19695">
        <ele>505</ele>
        <time>2024-06-23T12:06:37Z</time>
      </trkpt>
      <trkpt lat="43.01476" lon="1.19687">
        <ele>505</ele>
        <time>2024-06-23T12:06:38Z</time>
      </trkpt>
      <trkpt lat="43.01482" lon="1.19682">
        <ele>505</ele>
        <time>2024-06-23T12:06:39Z</time>
      </trkpt>
      <trkpt lat="43.01487" lon="1.19674">
        <ele>505</ele>
        <time>2024-06-23T12:06:40Z</time>
      </trkpt>
      <trkpt lat="43.01492" lon="1.19667">
        <ele>504.8</ele>
        <time>2024-06-23T12:06:41Z</time>
      </trkpt>
      <trkpt lat="43.01498" lon="1.19662">
        <ele>504.4</ele>
        <time>2024-06-23T12:06:42Z</time>
      </trkpt>
      <trkpt lat="43.01503" lon="1.19655">
        <ele>504.4</ele>
        <time>2024-06-23T12:06:43Z</time>
      </trkpt>
      <trkpt lat="43.01509" lon="1.1965">
        <ele>503.8</ele>
        <time>2024-06-23T12:06:44Z</time>
      </trkpt>
      <trkpt lat="43.01514" lon="1.19644">
        <ele>503.6</ele>
        <time>2024-06-23T12:06:45Z</time>
      </trkpt>
      <trkpt lat="43.0152" lon="1.19639">
        <ele>503.6</ele>
        <time>2024-06-23T12:06:46Z</time>
      </trkpt>
      <trkpt lat="43.01526" lon="1.19633">
        <ele>503.6</ele>
        <time>2024-06-23T12:06:47Z</time>
      </trkpt>
      <trkpt lat="43.01532" lon="1.19628">
        <ele>503.6</ele>
        <time>2024-06-23T12:06:48Z</time>
      </trkpt>
      <trkpt lat="43.01538" lon="1.19623">
        <ele>503.6</ele>
        <time>2024-06-23T12:06:49Z</time>
      </trkpt>
      <trkpt lat="43.01544" lon="1.19618">
        <ele>503.2</ele>
        <time>2024-06-23T12:06:50Z</time>
      </trkpt>
      <trkpt lat="43.01551" lon="1.19614">
        <ele>503.2</ele>
        <time>2024-06-23T12:06:51Z</time>
      </trkpt>
      <trkpt lat="43.01556" lon="1.1961">
        <ele>503.2</ele>
        <time>2024-06-23T12:06:52Z</time>
      </trkpt>
      <trkpt lat="43.01563" lon="1.19605">
        <ele>502.8</ele>
        <time>2024-06-23T12:06:53Z</time>
      </trkpt>
      <trkpt lat="43.01569" lon="1.19601">
        <ele>502.8</ele>
        <time>2024-06-23T12:06:54Z</time>
      </trkpt>
      <trkpt lat="43.01575" lon="1.19595">
        <ele>502.8</ele>
        <time>2024-06-23T12:06:55Z</time>
      </trkpt>
      <trkpt lat="43.01581" lon="1.19589">
        <ele>502.4</ele>
        <time>2024-06-23T12:06:56Z</time>
      </trkpt>
      <trkpt lat="43.01584" lon="1.19581">
        <ele>502.4</ele>
        <time>2024-06-23T12:06:57Z</time>
      </trkpt>
      <trkpt lat="43.01586" lon="1.19571">
        <ele>502.4</ele>
        <time>2024-06-23T12:06:58Z</time>
      </trkpt>
      <trkpt lat="43.01586" lon="1.19562">
        <ele>502.4</ele>
        <time>2024-06-23T12:06:59Z</time>
      </trkpt>
      <trkpt lat="43.01584" lon="1.19552">
        <ele>502</ele>
        <time>2024-06-23T12:07:00Z</time>
      </trkpt>
      <trkpt lat="43.01581" lon="1.19543">
        <ele>502</ele>
        <time>2024-06-23T12:07:01Z</time>
      </trkpt>
      <trkpt lat="43.01577" lon="1.19535">
        <ele>502</ele>
        <time>2024-06-23T12:07:02Z</time>
      </trkpt>
      <trkpt lat="43.01571" lon="1.19528">
        <ele>501.8</ele>
        <time>2024-06-23T12:07:03Z</time>
      </trkpt>
      <trkpt lat="43.01565" lon="1.19522">
        <ele>501.4</ele>
        <time>2024-06-23T12:07:04Z</time>
      </trkpt>
      <trkpt lat="43.01558" lon="1.19518">
        <ele>501.2</ele>
        <time>2024-06-23T12:07:05Z</time>
      </trkpt>
      <trkpt lat="43.0155" lon="1.19516">
        <ele>501</ele>
        <time>2024-06-23T12:07:06Z</time>
      </trkpt>
      <trkpt lat="43.01542" lon="1.19514">
        <ele>501</ele>
        <time>2024-06-23T12:07:07Z</time>
      </trkpt>
      <trkpt lat="43.01534" lon="1.19514">
        <ele>500.4</ele>
        <time>2024-06-23T12:07:08Z</time>
      </trkpt>
      <trkpt lat="43.01526" lon="1.19516">
        <ele>500</ele>
        <time>2024-06-23T12:07:09Z</time>
      </trkpt>
      <trkpt lat="43.01518" lon="1.19517">
        <ele>499.8</ele>
        <time>2024-06-23T12:07:10Z</time>
      </trkpt>
      <trkpt lat="43.0151" lon="1.19519">
        <ele>499.4</ele>
        <time>2024-06-23T12:07:11Z</time>
      </trkpt>
      <trkpt lat="43.01503" lon="1.19521">
        <ele>498.8</ele>
        <time>2024-06-23T12:07:12Z</time>
      </trkpt>
      <trkpt lat="43.01494" lon="1.19522">
        <ele>498.6</ele>
        <time>2024-06-23T12:07:13Z</time>
      </trkpt>
      <trkpt lat="43.01486" lon="1.19521">
        <ele>498</ele>
        <time>2024-06-23T12:07:14Z</time>
      </trkpt>
      <trkpt lat="43.01479" lon="1.19521">
        <ele>497.8</ele>
        <time>2024-06-23T12:07:15Z</time>
      </trkpt>
      <trkpt lat="43.0147" lon="1.19519">
        <ele>497</ele>
        <time>2024-06-23T12:07:16Z</time>
      </trkpt>
      <trkpt lat="43.01463" lon="1.19518">
        <ele>496.6</ele>
        <time>2024-06-23T12:07:17Z</time>
      </trkpt>
      <trkpt lat="43.01454" lon="1.19517">
        <ele>496.6</ele>
        <time>2024-06-23T12:07:18Z</time>
      </trkpt>
      <trkpt lat="43.01447" lon="1.19514">
        <ele>496.4</ele>
        <time>2024-06-23T12:07:19Z</time>
      </trkpt>
      <trkpt lat="43.01438" lon="1.19512">
        <ele>495.6</ele>
        <time>2024-06-23T12:07:20Z</time>
      </trkpt>
      <trkpt lat="43.0143" lon="1.1951">
        <ele>495.6</ele>
        <time>2024-06-23T12:07:21Z</time>
      </trkpt>
      <trkpt lat="43.01423" lon="1.19508">
        <ele>495.6</ele>
        <time>2024-06-23T12:07:22Z</time>
      </trkpt>
      <trkpt lat="43.01415" lon="1.19503">
        <ele>495</ele>
        <time>2024-06-23T12:07:23Z</time>
      </trkpt>
      <trkpt lat="43.01407" lon="1.195">
        <ele>494.6</ele>
        <time>2024-06-23T12:07:24Z</time>
      </trkpt>
      <trkpt lat="43.014" lon="1.19493">
        <ele>494.6</ele>
        <time>2024-06-23T12:07:25Z</time>
      </trkpt>
      <trkpt lat="43.01393" lon="1.19487">
        <ele>494</ele>
        <time>2024-06-23T12:07:26Z</time>
      </trkpt>
      <trkpt lat="43.01386" lon="1.1948">
        <ele>493.6</ele>
        <time>2024-06-23T12:07:27Z</time>
      </trkpt>
      <trkpt lat="43.01379" lon="1.19474">
        <ele>493.2</ele>
        <time>2024-06-23T12:07:28Z</time>
      </trkpt>
      <trkpt lat="43.01372" lon="1.19467">
        <ele>493.2</ele>
        <time>2024-06-23T12:07:29Z</time>
      </trkpt>
      <trkpt lat="43.01365" lon="1.1946">
        <ele>493.2</ele>
        <time>2024-06-23T12:07:30Z</time>
      </trkpt>
      <trkpt lat="43.01359" lon="1.19453">
        <ele>492.4</ele>
        <time>2024-06-23T12:07:31Z</time>
      </trkpt>
      <trkpt lat="43.01352" lon="1.19445">
        <ele>492.2</ele>
        <time>2024-06-23T12:07:32Z</time>
      </trkpt>
      <trkpt lat="43.01346" lon="1.19439">
        <ele>491.8</ele>
        <time>2024-06-23T12:07:33Z</time>
      </trkpt>
      <trkpt lat="43.01339" lon="1.19432">
        <ele>491.8</ele>
        <time>2024-06-23T12:07:34Z</time>
      </trkpt>
      <trkpt lat="43.01333" lon="1.19425">
        <ele>491.4</ele>
        <time>2024-06-23T12:07:35Z</time>
      </trkpt>
      <trkpt lat="43.01326" lon="1.19418">
        <ele>491</ele>
        <time>2024-06-23T12:07:36Z</time>
      </trkpt>
      <trkpt lat="43.0132" lon="1.19411">
        <ele>490.4</ele>
        <time>2024-06-23T12:07:37Z</time>
      </trkpt>
      <trkpt lat="43.01314" lon="1.19404">
        <ele>490</ele>
        <time>2024-06-23T12:07:38Z</time>
      </trkpt>
      <trkpt lat="43.01307" lon="1.19397">
        <ele>489.8</ele>
        <time>2024-06-23T12:07:39Z</time>
      </trkpt>
      <trkpt lat="43.01301" lon="1.1939">
        <ele>489.4</ele>
        <time>2024-06-23T12:07:40Z</time>
      </trkpt>
      <trkpt lat="43.01295" lon="1.19384">
        <ele>489</ele>
        <time>2024-06-23T12:07:41Z</time>
      </trkpt>
      <trkpt lat="43.01289" lon="1.19377">
        <ele>489</ele>
        <time>2024-06-23T12:07:42Z</time>
      </trkpt>
      <trkpt lat="43.01284" lon="1.1937">
        <ele>488.4</ele>
        <time>2024-06-23T12:07:43Z</time>
      </trkpt>
      <trkpt lat="43.01277" lon="1.19363">
        <ele>488.2</ele>
        <time>2024-06-23T12:07:44Z</time>
      </trkpt>
      <trkpt lat="43.01271" lon="1.19356">
        <ele>488</ele>
        <time>2024-06-23T12:07:45Z</time>
      </trkpt>
      <trkpt lat="43.01264" lon="1.19349">
        <ele>488</ele>
        <time>2024-06-23T12:07:46Z</time>
      </trkpt>
      <trkpt lat="43.01258" lon="1.19341">
        <ele>487.6</ele>
        <time>2024-06-23T12:07:47Z</time>
      </trkpt>
      <trkpt lat="43.01253" lon="1.19331">
        <ele>487.2</ele>
        <time>2024-06-23T12:07:48Z</time>
      </trkpt>
      <trkpt lat="43.01249" lon="1.19321">
        <ele>486.8</ele>
        <time>2024-06-23T12:07:49Z</time>
      </trkpt>
      <trkpt lat="43.01248" lon="1.1931">
        <ele>486.4</ele>
        <time>2024-06-23T12:07:50Z</time>
      </trkpt>
      <trkpt lat="43.01246" lon="1.19299">
        <ele>486.2</ele>
        <time>2024-06-23T12:07:51Z</time>
      </trkpt>
      <trkpt lat="43.01247" lon="1.19288">
        <ele>486.2</ele>
        <time>2024-06-23T12:07:52Z</time>
      </trkpt>
      <trkpt lat="43.01248" lon="1.19276">
        <ele>486</ele>
        <time>2024-06-23T12:07:53Z</time>
      </trkpt>
      <trkpt lat="43.01248" lon="1.19265">
        <ele>485.8</ele>
        <time>2024-06-23T12:07:54Z</time>
      </trkpt>
      <trkpt lat="43.01248" lon="1.19253">
        <ele>485.4</ele>
        <time>2024-06-23T12:07:55Z</time>
      </trkpt>
      <trkpt lat="43.01249" lon="1.19243">
        <ele>485.4</ele>
        <time>2024-06-23T12:07:56Z</time>
      </trkpt>
      <trkpt lat="43.01249" lon="1.19232">
        <ele>485</ele>
        <time>2024-06-23T12:07:57Z</time>
      </trkpt>
      <trkpt lat="43.0125" lon="1.19222">
        <ele>484.8</ele>
        <time>2024-06-23T12:07:58Z</time>
      </trkpt>
      <trkpt lat="43.0125" lon="1.19217">
        <ele>484.4</ele>
        <time>2024-06-23T12:07:59Z</time>
      </trkpt>
      <trkpt lat="43.0125" lon="1.19211">
        <ele>484.2</ele>
        <time>2024-06-23T12:08:00Z</time>
      </trkpt>
      <trkpt lat="43.0125" lon="1.19206">
        <ele>483.6</ele>
        <time>2024-06-23T12:08:01Z</time>
      </trkpt>
      <trkpt lat="43.0125" lon="1.19191">
        <ele>483.6</ele>
        <time>2024-06-23T12:08:02Z</time>
      </trkpt>
      <trkpt lat="43.01249" lon="1.19181">
        <ele>483.6</ele>
        <time>2024-06-23T12:08:03Z</time>
      </trkpt>
      <trkpt lat="43.01245" lon="1.19162">
        <ele>483</ele>
        <time>2024-06-23T12:08:04Z</time>
      </trkpt>
      <trkpt lat="43.01242" lon="1.1915">
        <ele>483</ele>
        <time>2024-06-23T12:08:05Z</time>
      </trkpt>
      <trkpt lat="43.01239" lon="1.19139">
        <ele>482.6</ele>
        <time>2024-06-23T12:08:06Z</time>
      </trkpt>
      <trkpt lat="43.01236" lon="1.19129">
        <ele>482.4</ele>
        <time>2024-06-23T12:08:07Z</time>
      </trkpt>
      <trkpt lat="43.01234" lon="1.1912">
        <ele>482.2</ele>
        <time>2024-06-23T12:08:08Z</time>
      </trkpt>
      <trkpt lat="43.01231" lon="1.19111">
        <ele>481.4</ele>
        <time>2024-06-23T12:08:09Z</time>
      </trkpt>
      <trkpt lat="43.01229" lon="1.19099">
        <ele>481</ele>
        <time>2024-06-23T12:08:10Z</time>
      </trkpt>
      <trkpt lat="43.01226" lon="1.19089">
        <ele>480.8</ele>
        <time>2024-06-23T12:08:11Z</time>
      </trkpt>
      <trkpt lat="43.01221" lon="1.1908">
        <ele>480.6</ele>
        <time>2024-06-23T12:08:12Z</time>
      </trkpt>
      <trkpt lat="43.01216" lon="1.19069">
        <ele>480</ele>
        <time>2024-06-23T12:08:13Z</time>
      </trkpt>
      <trkpt lat="43.01213" lon="1.1906">
        <ele>479.6</ele>
        <time>2024-06-23T12:08:14Z</time>
      </trkpt>
      <trkpt lat="43.01208" lon="1.19053">
        <ele>479.2</ele>
        <time>2024-06-23T12:08:15Z</time>
      </trkpt>
      <trkpt lat="43.01202" lon="1.19044">
        <ele>479</ele>
        <time>2024-06-23T12:08:16Z</time>
      </trkpt>
      <trkpt lat="43.01194" lon="1.19037">
        <ele>478.6</ele>
        <time>2024-06-23T12:08:17Z</time>
      </trkpt>
      <trkpt lat="43.01189" lon="1.19028">
        <ele>478.6</ele>
        <time>2024-06-23T12:08:18Z</time>
      </trkpt>
      <trkpt lat="43.01182" lon="1.1902">
        <ele>478.2</ele>
        <time>2024-06-23T12:08:19Z</time>
      </trkpt>
      <trkpt lat="43.01176" lon="1.19013">
        <ele>478</ele>
        <time>2024-06-23T12:08:20Z</time>
      </trkpt>
      <trkpt lat="43.01171" lon="1.19004">
        <ele>477.4</ele>
        <time>2024-06-23T12:08:21Z</time>
      </trkpt>
      <trkpt lat="43.01165" lon="1.18997">
        <ele>477</ele>
        <time>2024-06-23T12:08:22Z</time>
      </trkpt>
      <trkpt lat="43.01159" lon="1.1899">
        <ele>476.4</ele>
        <time>2024-06-23T12:08:23Z</time>
      </trkpt>
      <trkpt lat="43.01152" lon="1.18983">
        <ele>476.2</ele>
        <time>2024-06-23T12:08:24Z</time>
      </trkpt>
      <trkpt lat="43.01145" lon="1.18977">
        <ele>475.8</ele>
        <time>2024-06-23T12:08:25Z</time>
      </trkpt>
      <trkpt lat="43.01139" lon="1.18969">
        <ele>475.6</ele>
        <time>2024-06-23T12:08:26Z</time>
      </trkpt>
      <trkpt lat="43.01133" lon="1.18961">
        <ele>475</ele>
        <time>2024-06-23T12:08:27Z</time>
      </trkpt>
      <trkpt lat="43.01126" lon="1.18953">
        <ele>474.4</ele>
        <time>2024-06-23T12:08:28Z</time>
      </trkpt>
      <trkpt lat="43.01122" lon="1.18942">
        <ele>474.2</ele>
        <time>2024-06-23T12:08:29Z</time>
      </trkpt>
      <trkpt lat="43.01116" lon="1.18934">
        <ele>474</ele>
        <time>2024-06-23T12:08:30Z</time>
      </trkpt>
      <trkpt lat="43.01111" lon="1.18924">
        <ele>473.6</ele>
        <time>2024-06-23T12:08:31Z</time>
      </trkpt>
      <trkpt lat="43.01105" lon="1.18915">
        <ele>473.2</ele>
        <time>2024-06-23T12:08:32Z</time>
      </trkpt>
      <trkpt lat="43.01101" lon="1.18906">
        <ele>472.8</ele>
        <time>2024-06-23T12:08:33Z</time>
      </trkpt>
      <trkpt lat="43.01096" lon="1.18896">
        <ele>472.4</ele>
        <time>2024-06-23T12:08:34Z</time>
      </trkpt>
      <trkpt lat="43.01093" lon="1.18886">
        <ele>472.2</ele>
        <time>2024-06-23T12:08:35Z</time>
      </trkpt>
      <trkpt lat="43.01088" lon="1.18875">
        <ele>471.8</ele>
        <time>2024-06-23T12:08:36Z</time>
      </trkpt>
      <trkpt lat="43.01083" lon="1.18865">
        <ele>471.4</ele>
        <time>2024-06-23T12:08:37Z</time>
      </trkpt>
      <trkpt lat="43.01079" lon="1.18855">
        <ele>471.4</ele>
        <time>2024-06-23T12:08:38Z</time>
      </trkpt>
      <trkpt lat="43.01075" lon="1.18844">
        <ele>471.4</ele>
        <time>2024-06-23T12:08:39Z</time>
      </trkpt>
      <trkpt lat="43.0107" lon="1.18835">
        <ele>470.6</ele>
        <time>2024-06-23T12:08:40Z</time>
      </trkpt>
      <trkpt lat="43.01066" lon="1.18824">
        <ele>470.2</ele>
        <time>2024-06-23T12:08:41Z</time>
      </trkpt>
      <trkpt lat="43.01061" lon="1.18814">
        <ele>469.8</ele>
        <time>2024-06-23T12:08:42Z</time>
      </trkpt>
      <trkpt lat="43.01056" lon="1.18803">
        <ele>469.4</ele>
        <time>2024-06-23T12:08:43Z</time>
      </trkpt>
      <trkpt lat="43.01052" lon="1.18792">
        <ele>469</ele>
        <time>2024-06-23T12:08:44Z</time>
      </trkpt>
      <trkpt lat="43.01048" lon="1.18782">
        <ele>468.4</ele>
        <time>2024-06-23T12:08:45Z</time>
      </trkpt>
      <trkpt lat="43.01045" lon="1.1877">
        <ele>468</ele>
        <time>2024-06-23T12:08:46Z</time>
      </trkpt>
      <trkpt lat="43.01043" lon="1.18758">
        <ele>467.8</ele>
        <time>2024-06-23T12:08:47Z</time>
      </trkpt>
      <trkpt lat="43.01041" lon="1.18746">
        <ele>467.4</ele>
        <time>2024-06-23T12:08:48Z</time>
      </trkpt>
      <trkpt lat="43.01041" lon="1.18735">
        <ele>467</ele>
        <time>2024-06-23T12:08:49Z</time>
      </trkpt>
      <trkpt lat="43.01041" lon="1.18724">
        <ele>466.8</ele>
        <time>2024-06-23T12:08:50Z</time>
      </trkpt>
      <trkpt lat="43.01041" lon="1.18712">
        <ele>466.6</ele>
        <time>2024-06-23T12:08:51Z</time>
      </trkpt>
      <trkpt lat="43.0104" lon="1.18701">
        <ele>466.6</ele>
        <time>2024-06-23T12:08:52Z</time>
      </trkpt>
      <trkpt lat="43.0104" lon="1.1869">
        <ele>466.6</ele>
        <time>2024-06-23T12:08:53Z</time>
      </trkpt>
      <trkpt lat="43.0104" lon="1.18679">
        <ele>466</ele>
        <time>2024-06-23T12:08:54Z</time>
      </trkpt>
      <trkpt lat="43.0104" lon="1.18667">
        <ele>466</ele>
        <time>2024-06-23T12:08:55Z</time>
      </trkpt>
      <trkpt lat="43.0104" lon="1.18656">
        <ele>465.4</ele>
        <time>2024-06-23T12:08:56Z</time>
      </trkpt>
      <trkpt lat="43.0104" lon="1.18646">
        <ele>465.4</ele>
        <time>2024-06-23T12:08:57Z</time>
      </trkpt>
      <trkpt lat="43.0104" lon="1.18636">
        <ele>465.4</ele>
        <time>2024-06-23T12:08:58Z</time>
      </trkpt>
      <trkpt lat="43.0104" lon="1.18625">
        <ele>465.4</ele>
        <time>2024-06-23T12:08:59Z</time>
      </trkpt>
      <trkpt lat="43.01041" lon="1.18616">
        <ele>465.2</ele>
        <time>2024-06-23T12:09:00Z</time>
      </trkpt>
      <trkpt lat="43.01041" lon="1.18606">
        <ele>465.2</ele>
        <time>2024-06-23T12:09:01Z</time>
      </trkpt>
      <trkpt lat="43.01042" lon="1.18596">
        <ele>465.2</ele>
        <time>2024-06-23T12:09:02Z</time>
      </trkpt>
      <trkpt lat="43.01041" lon="1.18586">
        <ele>465.2</ele>
        <time>2024-06-23T12:09:03Z</time>
      </trkpt>
      <trkpt lat="43.01041" lon="1.18577">
        <ele>464.8</ele>
        <time>2024-06-23T12:09:04Z</time>
      </trkpt>
      <trkpt lat="43.01041" lon="1.18567">
        <ele>464.8</ele>
        <time>2024-06-23T12:09:05Z</time>
      </trkpt>
      <trkpt lat="43.01041" lon="1.18558">
        <ele>464.8</ele>
        <time>2024-06-23T12:09:06Z</time>
      </trkpt>
      <trkpt lat="43.01041" lon="1.18549">
        <ele>464.8</ele>
        <time>2024-06-23T12:09:07Z</time>
      </trkpt>
      <trkpt lat="43.01041" lon="1.18539">
        <ele>464.6</ele>
        <time>2024-06-23T12:09:08Z</time>
      </trkpt>
      <trkpt lat="43.01041" lon="1.1853">
        <ele>464.6</ele>
        <time>2024-06-23T12:09:09Z</time>
      </trkpt>
      <trkpt lat="43.01041" lon="1.18521">
        <ele>464.4</ele>
        <time>2024-06-23T12:09:10Z</time>
      </trkpt>
      <trkpt lat="43.01041" lon="1.18512">
        <ele>464.4</ele>
        <time>2024-06-23T12:09:11Z</time>
      </trkpt>
      <trkpt lat="43.01041" lon="1.18503">
        <ele>464</ele>
        <time>2024-06-23T12:09:12Z</time>
      </trkpt>
      <trkpt lat="43.01041" lon="1.18493">
        <ele>463.6</ele>
        <time>2024-06-23T12:09:13Z</time>
      </trkpt>
      <trkpt lat="43.01041" lon="1.18484">
        <ele>463.4</ele>
        <time>2024-06-23T12:09:14Z</time>
      </trkpt>
      <trkpt lat="43.01041" lon="1.18476">
        <ele>463.8</ele>
        <time>2024-06-23T12:09:15Z</time>
      </trkpt>
      <trkpt lat="43.0104" lon="1.18466">
        <ele>463.6</ele>
        <time>2024-06-23T12:09:16Z</time>
      </trkpt>
      <trkpt lat="43.0104" lon="1.18458">
        <ele>463.6</ele>
        <time>2024-06-23T12:09:17Z</time>
      </trkpt>
      <trkpt lat="43.0104" lon="1.18449">
        <ele>463.6</ele>
        <time>2024-06-23T12:09:18Z</time>
      </trkpt>
      <trkpt lat="43.01038" lon="1.1844">
        <ele>463.2</ele>
        <time>2024-06-23T12:09:19Z</time>
      </trkpt>
      <trkpt lat="43.01036" lon="1.18431">
        <ele>463.2</ele>
        <time>2024-06-23T12:09:20Z</time>
      </trkpt>
      <trkpt lat="43.01033" lon="1.18423">
        <ele>463.4</ele>
        <time>2024-06-23T12:09:21Z</time>
      </trkpt>
      <trkpt lat="43.0103" lon="1.18416">
        <ele>463.4</ele>
        <time>2024-06-23T12:09:22Z</time>
      </trkpt>
      <trkpt lat="43.01026" lon="1.18409">
        <ele>463.6</ele>
        <time>2024-06-23T12:09:23Z</time>
      </trkpt>
      <trkpt lat="43.01022" lon="1.18403">
        <ele>464</ele>
        <time>2024-06-23T12:09:24Z</time>
      </trkpt>
      <trkpt lat="43.01018" lon="1.18397">
        <ele>463.6</ele>
        <time>2024-06-23T12:09:25Z</time>
      </trkpt>
      <trkpt lat="43.01013" lon="1.18392">
        <ele>463.6</ele>
        <time>2024-06-23T12:09:26Z</time>
      </trkpt>
      <trkpt lat="43.01009" lon="1.18385">
        <ele>463.6</ele>
        <time>2024-06-23T12:09:27Z</time>
      </trkpt>
      <trkpt lat="43.01004" lon="1.18379">
        <ele>463.6</ele>
        <time>2024-06-23T12:09:28Z</time>
      </trkpt>
      <trkpt lat="43.00999" lon="1.18373">
        <ele>463.8</ele>
        <time>2024-06-23T12:09:29Z</time>
      </trkpt>
      <trkpt lat="43.00995" lon="1.18367">
        <ele>463.2</ele>
        <time>2024-06-23T12:09:30Z</time>
      </trkpt>
      <trkpt lat="43.0099" lon="1.18361">
        <ele>463.6</ele>
        <time>2024-06-23T12:09:31Z</time>
      </trkpt>
      <trkpt lat="43.00984" lon="1.18356">
        <ele>463.6</ele>
        <time>2024-06-23T12:09:32Z</time>
      </trkpt>
      <trkpt lat="43.0098" lon="1.18351">
        <ele>463.8</ele>
        <time>2024-06-23T12:09:33Z</time>
      </trkpt>
      <trkpt lat="43.00974" lon="1.18347">
        <ele>463.8</ele>
        <time>2024-06-23T12:09:34Z</time>
      </trkpt>
      <trkpt lat="43.00969" lon="1.18342">
        <ele>464.2</ele>
        <time>2024-06-23T12:09:35Z</time>
      </trkpt>
      <trkpt lat="43.00963" lon="1.18339">
        <ele>463.6</ele>
        <time>2024-06-23T12:09:36Z</time>
      </trkpt>
      <trkpt lat="43.00957" lon="1.18336">
        <ele>463.6</ele>
        <time>2024-06-23T12:09:37Z</time>
      </trkpt>
      <trkpt lat="43.00952" lon="1.18333">
        <ele>463.8</ele>
        <time>2024-06-23T12:09:38Z</time>
      </trkpt>
      <trkpt lat="43.00946" lon="1.1833">
        <ele>464.4</ele>
        <time>2024-06-23T12:09:39Z</time>
      </trkpt>
      <trkpt lat="43.00941" lon="1.18328">
        <ele>464.6</ele>
        <time>2024-06-23T12:09:40Z</time>
      </trkpt>
      <trkpt lat="43.00936" lon="1.18325">
        <ele>464.6</ele>
        <time>2024-06-23T12:09:41Z</time>
      </trkpt>
      <trkpt lat="43.00932" lon="1.18322">
        <ele>464.6</ele>
        <time>2024-06-23T12:09:42Z</time>
      </trkpt>
      <trkpt lat="43.00928" lon="1.18319">
        <ele>464.6</ele>
        <time>2024-06-23T12:09:43Z</time>
      </trkpt>
      <trkpt lat="43.00925" lon="1.18317">
        <ele>465</ele>
        <time>2024-06-23T12:09:44Z</time>
      </trkpt>
      <trkpt lat="43.00921" lon="1.18314">
        <ele>465</ele>
        <time>2024-06-23T12:09:45Z</time>
      </trkpt>
      <trkpt lat="43.00916" lon="1.18313">
        <ele>465</ele>
        <time>2024-06-23T12:09:46Z</time>
      </trkpt>
      <trkpt lat="43.00912" lon="1.18312">
        <ele>465</ele>
        <time>2024-06-23T12:09:47Z</time>
      </trkpt>
      <trkpt lat="43.00906" lon="1.1831">
        <ele>465</ele>
        <time>2024-06-23T12:09:48Z</time>
      </trkpt>
      <trkpt lat="43.00901" lon="1.18308">
        <ele>465</ele>
        <time>2024-06-23T12:09:49Z</time>
      </trkpt>
      <trkpt lat="43.00895" lon="1.18307">
        <ele>465</ele>
        <time>2024-06-23T12:09:50Z</time>
      </trkpt>
      <trkpt lat="43.0089" lon="1.18305">
        <ele>465</ele>
        <time>2024-06-23T12:09:51Z</time>
      </trkpt>
      <trkpt lat="43.00884" lon="1.18302">
        <ele>465</ele>
        <time>2024-06-23T12:09:52Z</time>
      </trkpt>
      <trkpt lat="43.00879" lon="1.183">
        <ele>465</ele>
        <time>2024-06-23T12:09:53Z</time>
      </trkpt>
      <trkpt lat="43.00873" lon="1.18297">
        <ele>464.8</ele>
        <time>2024-06-23T12:09:54Z</time>
      </trkpt>
      <trkpt lat="43.00867" lon="1.18294">
        <ele>464.8</ele>
        <time>2024-06-23T12:09:55Z</time>
      </trkpt>
      <trkpt lat="43.00861" lon="1.18292">
        <ele>464.6</ele>
        <time>2024-06-23T12:09:56Z</time>
      </trkpt>
      <trkpt lat="43.00855" lon="1.18289">
        <ele>464.6</ele>
        <time>2024-06-23T12:09:57Z</time>
      </trkpt>
      <trkpt lat="43.0085" lon="1.18286">
        <ele>464.6</ele>
        <time>2024-06-23T12:09:58Z</time>
      </trkpt>
      <trkpt lat="43.00844" lon="1.18284">
        <ele>464.6</ele>
        <time>2024-06-23T12:09:59Z</time>
      </trkpt>
      <trkpt lat="43.00838" lon="1.18281">
        <ele>464.6</ele>
        <time>2024-06-23T12:10:00Z</time>
      </trkpt>
      <trkpt lat="43.00832" lon="1.18279">
        <ele>464.2</ele>
        <time>2024-06-23T12:10:01Z</time>
      </trkpt>
      <trkpt lat="43.00826" lon="1.18276">
        <ele>464.2</ele>
        <time>2024-06-23T12:10:02Z</time>
      </trkpt>
      <trkpt lat="43.00819" lon="1.18273">
        <ele>464.2</ele>
        <time>2024-06-23T12:10:03Z</time>
      </trkpt>
      <trkpt lat="43.00813" lon="1.18271">
        <ele>464.2</ele>
        <time>2024-06-23T12:10:04Z</time>
      </trkpt>
      <trkpt lat="43.00807" lon="1.18268">
        <ele>464.2</ele>
        <time>2024-06-23T12:10:05Z</time>
      </trkpt>
      <trkpt lat="43.008" lon="1.18266">
        <ele>463.8</ele>
        <time>2024-06-23T12:10:06Z</time>
      </trkpt>
      <trkpt lat="43.00794" lon="1.18263">
        <ele>463.6</ele>
        <time>2024-06-23T12:10:07Z</time>
      </trkpt>
      <trkpt lat="43.00788" lon="1.18261">
        <ele>463.6</ele>
        <time>2024-06-23T12:10:08Z</time>
      </trkpt>
      <trkpt lat="43.00781" lon="1.18259">
        <ele>463.4</ele>
        <time>2024-06-23T12:10:09Z</time>
      </trkpt>
      <trkpt lat="43.00774" lon="1.18256">
        <ele>463.4</ele>
        <time>2024-06-23T12:10:10Z</time>
      </trkpt>
      <trkpt lat="43.00768" lon="1.18253">
        <ele>463</ele>
        <time>2024-06-23T12:10:11Z</time>
      </trkpt>
      <trkpt lat="43.00762" lon="1.1825">
        <ele>463</ele>
        <time>2024-06-23T12:10:12Z</time>
      </trkpt>
      <trkpt lat="43.00755" lon="1.18247">
        <ele>463</ele>
        <time>2024-06-23T12:10:13Z</time>
      </trkpt>
      <trkpt lat="43.00748" lon="1.18245">
        <ele>463</ele>
        <time>2024-06-23T12:10:14Z</time>
      </trkpt>
      <trkpt lat="43.00742" lon="1.18242">
        <ele>463</ele>
        <time>2024-06-23T12:10:15Z</time>
      </trkpt>
      <trkpt lat="43.00735" lon="1.18239">
        <ele>462.6</ele>
        <time>2024-06-23T12:10:16Z</time>
      </trkpt>
      <trkpt lat="43.00728" lon="1.18237">
        <ele>462.6</ele>
        <time>2024-06-23T12:10:17Z</time>
      </trkpt>
      <trkpt lat="43.00722" lon="1.18235">
        <ele>462.4</ele>
        <time>2024-06-23T12:10:18Z</time>
      </trkpt>
      <trkpt lat="43.00715" lon="1.18231">
        <ele>462.4</ele>
        <time>2024-06-23T12:10:19Z</time>
      </trkpt>
      <trkpt lat="43.00708" lon="1.18228">
        <ele>462.4</ele>
        <time>2024-06-23T12:10:20Z</time>
      </trkpt>
      <trkpt lat="43.00701" lon="1.18225">
        <ele>462.4</ele>
        <time>2024-06-23T12:10:21Z</time>
      </trkpt>
      <trkpt lat="43.00696" lon="1.18222">
        <ele>462.4</ele>
        <time>2024-06-23T12:10:22Z</time>
      </trkpt>
      <trkpt lat="43.00689" lon="1.1822">
        <ele>462.4</ele>
        <time>2024-06-23T12:10:23Z</time>
      </trkpt>
      <trkpt lat="43.00683" lon="1.18217">
        <ele>462.4</ele>
        <time>2024-06-23T12:10:24Z</time>
      </trkpt>
      <trkpt lat="43.00677" lon="1.18214">
        <ele>462.4</ele>
        <time>2024-06-23T12:10:25Z</time>
      </trkpt>
      <trkpt lat="43.00672" lon="1.18211">
        <ele>462.4</ele>
        <time>2024-06-23T12:10:26Z</time>
      </trkpt>
      <trkpt lat="43.00666" lon="1.18209">
        <ele>462.2</ele>
        <time>2024-06-23T12:10:27Z</time>
      </trkpt>
      <trkpt lat="43.00661" lon="1.18207">
        <ele>461.8</ele>
        <time>2024-06-23T12:10:28Z</time>
      </trkpt>
      <trkpt lat="43.00655" lon="1.18205">
        <ele>462</ele>
        <time>2024-06-23T12:10:29Z</time>
      </trkpt>
      <trkpt lat="43.0065" lon="1.18203">
        <ele>462.2</ele>
        <time>2024-06-23T12:10:30Z</time>
      </trkpt>
      <trkpt lat="43.00645" lon="1.18201">
        <ele>462.6</ele>
        <time>2024-06-23T12:10:31Z</time>
      </trkpt>
      <trkpt lat="43.0064" lon="1.18199">
        <ele>463</ele>
        <time>2024-06-23T12:10:32Z</time>
      </trkpt>
      <trkpt lat="43.00636" lon="1.18196">
        <ele>463</ele>
        <time>2024-06-23T12:10:33Z</time>
      </trkpt>
      <trkpt lat="43.00631" lon="1.18193">
        <ele>463.2</ele>
        <time>2024-06-23T12:10:34Z</time>
      </trkpt>
      <trkpt lat="43.00627" lon="1.18189">
        <ele>463.4</ele>
        <time>2024-06-23T12:10:35Z</time>
      </trkpt>
      <trkpt lat="43.00622" lon="1.18185">
        <ele>463.6</ele>
        <time>2024-06-23T12:10:36Z</time>
      </trkpt>
      <trkpt lat="43.00618" lon="1.18181">
        <ele>463.6</ele>
        <time>2024-06-23T12:10:37Z</time>
      </trkpt>
      <trkpt lat="43.00614" lon="1.18175">
        <ele>463.6</ele>
        <time>2024-06-23T12:10:38Z</time>
      </trkpt>
      <trkpt lat="43.00611" lon="1.18169">
        <ele>464</ele>
        <time>2024-06-23T12:10:39Z</time>
      </trkpt>
      <trkpt lat="43.00608" lon="1.18163">
        <ele>464</ele>
        <time>2024-06-23T12:10:40Z</time>
      </trkpt>
      <trkpt lat="43.00605" lon="1.18155">
        <ele>464</ele>
        <time>2024-06-23T12:10:41Z</time>
      </trkpt>
      <trkpt lat="43.00604" lon="1.18147">
        <ele>464.2</ele>
        <time>2024-06-23T12:10:42Z</time>
      </trkpt>
      <trkpt lat="43.00603" lon="1.18139">
        <ele>464.6</ele>
        <time>2024-06-23T12:10:43Z</time>
      </trkpt>
      <trkpt lat="43.00602" lon="1.18131">
        <ele>464.8</ele>
        <time>2024-06-23T12:10:44Z</time>
      </trkpt>
      <trkpt lat="43.00601" lon="1.18123">
        <ele>464.8</ele>
        <time>2024-06-23T12:10:45Z</time>
      </trkpt>
      <trkpt lat="43.00601" lon="1.18116">
        <ele>465</ele>
        <time>2024-06-23T12:10:46Z</time>
      </trkpt>
      <trkpt lat="43.00601" lon="1.18109">
        <ele>465</ele>
        <time>2024-06-23T12:10:47Z</time>
      </trkpt>
      <trkpt lat="43.00601" lon="1.18102">
        <ele>465.6</ele>
        <time>2024-06-23T12:10:48Z</time>
      </trkpt>
      <trkpt lat="43.00601" lon="1.18097">
        <ele>465.6</ele>
        <time>2024-06-23T12:10:49Z</time>
      </trkpt>
      <trkpt lat="43.00601" lon="1.18091">
        <ele>465.8</ele>
        <time>2024-06-23T12:10:50Z</time>
      </trkpt>
      <trkpt lat="43.00601" lon="1.18084">
        <ele>465.8</ele>
        <time>2024-06-23T12:10:51Z</time>
      </trkpt>
      <trkpt lat="43.006" lon="1.18078">
        <ele>466.2</ele>
        <time>2024-06-23T12:10:52Z</time>
      </trkpt>
      <trkpt lat="43.006" lon="1.18071">
        <ele>466.2</ele>
        <time>2024-06-23T12:10:53Z</time>
      </trkpt>
      <trkpt lat="43.006" lon="1.18064">
        <ele>466.6</ele>
        <time>2024-06-23T12:10:54Z</time>
      </trkpt>
      <trkpt lat="43.006" lon="1.18058">
        <ele>466.6</ele>
        <time>2024-06-23T12:10:55Z</time>
      </trkpt>
      <trkpt lat="43.006" lon="1.18051">
        <ele>466.8</ele>
        <time>2024-06-23T12:10:56Z</time>
      </trkpt>
      <trkpt lat="43.006" lon="1.18044">
        <ele>466.8</ele>
        <time>2024-06-23T12:10:57Z</time>
      </trkpt>
      <trkpt lat="43.00599" lon="1.18038">
        <ele>466.8</ele>
        <time>2024-06-23T12:10:58Z</time>
      </trkpt>
      <trkpt lat="43.00599" lon="1.18031">
        <ele>466.8</ele>
        <time>2024-06-23T12:10:59Z</time>
      </trkpt>
      <trkpt lat="43.00599" lon="1.18024">
        <ele>467</ele>
        <time>2024-06-23T12:11:00Z</time>
      </trkpt>
      <trkpt lat="43.00599" lon="1.18017">
        <ele>467.4</ele>
        <time>2024-06-23T12:11:01Z</time>
      </trkpt>
      <trkpt lat="43.00599" lon="1.18011">
        <ele>467.4</ele>
        <time>2024-06-23T12:11:02Z</time>
      </trkpt>
      <trkpt lat="43.00599" lon="1.18004">
        <ele>467.4</ele>
        <time>2024-06-23T12:11:03Z</time>
      </trkpt>
      <trkpt lat="43.00599" lon="1.17998">
        <ele>467.4</ele>
        <time>2024-06-23T12:11:04Z</time>
      </trkpt>
      <trkpt lat="43.00599" lon="1.17991">
        <ele>467.4</ele>
        <time>2024-06-23T12:11:05Z</time>
      </trkpt>
      <trkpt lat="43.00599" lon="1.17984">
        <ele>467.4</ele>
        <time>2024-06-23T12:11:06Z</time>
      </trkpt>
      <trkpt lat="43.00599" lon="1.17978">
        <ele>467.6</ele>
        <time>2024-06-23T12:11:07Z</time>
      </trkpt>
      <trkpt lat="43.00598" lon="1.17971">
        <ele>467.6</ele>
        <time>2024-06-23T12:11:08Z</time>
      </trkpt>
      <trkpt lat="43.00598" lon="1.17965">
        <ele>467.6</ele>
        <time>2024-06-23T12:11:09Z</time>
      </trkpt>
      <trkpt lat="43.00598" lon="1.17959">
        <ele>467.8</ele>
        <time>2024-06-23T12:11:10Z</time>
      </trkpt>
      <trkpt lat="43.00598" lon="1.17952">
        <ele>467.8</ele>
        <time>2024-06-23T12:11:11Z</time>
      </trkpt>
      <trkpt lat="43.00597" lon="1.17946">
        <ele>467.8</ele>
        <time>2024-06-23T12:11:12Z</time>
      </trkpt>
      <trkpt lat="43.00597" lon="1.17939">
        <ele>468.2</ele>
        <time>2024-06-23T12:11:13Z</time>
      </trkpt>
      <trkpt lat="43.00596" lon="1.17932">
        <ele>468.2</ele>
        <time>2024-06-23T12:11:14Z</time>
      </trkpt>
      <trkpt lat="43.00595" lon="1.17926">
        <ele>468.4</ele>
        <time>2024-06-23T12:11:15Z</time>
      </trkpt>
      <trkpt lat="43.00595" lon="1.17919">
        <ele>468.4</ele>
        <time>2024-06-23T12:11:16Z</time>
      </trkpt>
      <trkpt lat="43.00595" lon="1.17912">
        <ele>468.4</ele>
        <time>2024-06-23T12:11:17Z</time>
      </trkpt>
      <trkpt lat="43.00595" lon="1.17906">
        <ele>468.6</ele>
        <time>2024-06-23T12:11:18Z</time>
      </trkpt>
      <trkpt lat="43.00595" lon="1.179">
        <ele>468.8</ele>
        <time>2024-06-23T12:11:19Z</time>
      </trkpt>
      <trkpt lat="43.00594" lon="1.17893">
        <ele>468.8</ele>
        <time>2024-06-23T12:11:20Z</time>
      </trkpt>
      <trkpt lat="43.00594" lon="1.17887">
        <ele>469.2</ele>
        <time>2024-06-23T12:11:21Z</time>
      </trkpt>
      <trkpt lat="43.00593" lon="1.17881">
        <ele>469.2</ele>
        <time>2024-06-23T12:11:22Z</time>
      </trkpt>
      <trkpt lat="43.00593" lon="1.17875">
        <ele>469.4</ele>
        <time>2024-06-23T12:11:23Z</time>
      </trkpt>
      <trkpt lat="43.00592" lon="1.17869">
        <ele>469.4</ele>
        <time>2024-06-23T12:11:24Z</time>
      </trkpt>
      <trkpt lat="43.00592" lon="1.17869">
        <ele>469.8</ele>
        <time>2024-06-23T12:11:25Z</time>
      </trkpt>
      <trkpt lat="43.00592" lon="1.17863">
        <ele>469.8</ele>
        <time>2024-06-23T12:11:26Z</time>
      </trkpt>
      <trkpt lat="43.00592" lon="1.17858">
        <ele>470</ele>
        <time>2024-06-23T12:11:27Z</time>
      </trkpt>
      <trkpt lat="43.00591" lon="1.17852">
        <ele>470.2</ele>
        <time>2024-06-23T12:11:28Z</time>
      </trkpt>
      <trkpt lat="43.00591" lon="1.17846">
        <ele>470.2</ele>
        <time>2024-06-23T12:11:29Z</time>
      </trkpt>
      <trkpt lat="43.00591" lon="1.1784">
        <ele>470.2</ele>
        <time>2024-06-23T12:11:30Z</time>
      </trkpt>
      <trkpt lat="43.0059" lon="1.17834">
        <ele>470.2</ele>
        <time>2024-06-23T12:11:31Z</time>
      </trkpt>
      <trkpt lat="43.0059" lon="1.17828">
        <ele>470.4</ele>
        <time>2024-06-23T12:11:32Z</time>
      </trkpt>
      <trkpt lat="43.0059" lon="1.17822">
        <ele>470.4</ele>
        <time>2024-06-23T12:11:33Z</time>
      </trkpt>
      <trkpt lat="43.00589" lon="1.17816">
        <ele>470.8</ele>
        <time>2024-06-23T12:11:34Z</time>
      </trkpt>
      <trkpt lat="43.0059" lon="1.1781">
        <ele>471.2</ele>
        <time>2024-06-23T12:11:35Z</time>
      </trkpt>
      <trkpt lat="43.00589" lon="1.17804">
        <ele>471.2</ele>
        <time>2024-06-23T12:11:36Z</time>
      </trkpt>
      <trkpt lat="43.00588" lon="1.17799">
        <ele>471.2</ele>
        <time>2024-06-23T12:11:37Z</time>
      </trkpt>
      <trkpt lat="43.00588" lon="1.17793">
        <ele>471.4</ele>
        <time>2024-06-23T12:11:38Z</time>
      </trkpt>
      <trkpt lat="43.00588" lon="1.17787">
        <ele>471.4</ele>
        <time>2024-06-23T12:11:39Z</time>
      </trkpt>
      <trkpt lat="43.00587" lon="1.17781">
        <ele>471.8</ele>
        <time>2024-06-23T12:11:40Z</time>
      </trkpt>
      <trkpt lat="43.00587" lon="1.17776">
        <ele>472</ele>
        <time>2024-06-23T12:11:41Z</time>
      </trkpt>
      <trkpt lat="43.00586" lon="1.1777">
        <ele>472.4</ele>
        <time>2024-06-23T12:11:42Z</time>
      </trkpt>
      <trkpt lat="43.00586" lon="1.17764">
        <ele>472.4</ele>
        <time>2024-06-23T12:11:43Z</time>
      </trkpt>
      <trkpt lat="43.00585" lon="1.17758">
        <ele>472.8</ele>
        <time>2024-06-23T12:11:44Z</time>
      </trkpt>
      <trkpt lat="43.00584" lon="1.17752">
        <ele>472.8</ele>
        <time>2024-06-23T12:11:45Z</time>
      </trkpt>
      <trkpt lat="43.00584" lon="1.17746">
        <ele>472.8</ele>
        <time>2024-06-23T12:11:46Z</time>
      </trkpt>
      <trkpt lat="43.00583" lon="1.17741">
        <ele>473.2</ele>
        <time>2024-06-23T12:11:47Z</time>
      </trkpt>
      <trkpt lat="43.00582" lon="1.17735">
        <ele>473.4</ele>
        <time>2024-06-23T12:11:48Z</time>
      </trkpt>
      <trkpt lat="43.00581" lon="1.17729">
        <ele>473.8</ele>
        <time>2024-06-23T12:11:49Z</time>
      </trkpt>
      <trkpt lat="43.0058" lon="1.17723">
        <ele>473.8</ele>
        <time>2024-06-23T12:11:50Z</time>
      </trkpt>
      <trkpt lat="43.00579" lon="1.17718">
        <ele>474</ele>
        <time>2024-06-23T12:11:51Z</time>
      </trkpt>
      <trkpt lat="43.00577" lon="1.17712">
        <ele>474</ele>
        <time>2024-06-23T12:11:52Z</time>
      </trkpt>
      <trkpt lat="43.00575" lon="1.17707">
        <ele>474</ele>
        <time>2024-06-23T12:11:53Z</time>
      </trkpt>
      <trkpt lat="43.00574" lon="1.17701">
        <ele>474.2</ele>
        <time>2024-06-23T12:11:54Z</time>
      </trkpt>
      <trkpt lat="43.00572" lon="1.17695">
        <ele>474.2</ele>
        <time>2024-06-23T12:11:55Z</time>
      </trkpt>
      <trkpt lat="43.0057" lon="1.17689">
        <ele>474.6</ele>
        <time>2024-06-23T12:11:56Z</time>
      </trkpt>
      <trkpt lat="43.00569" lon="1.17684">
        <ele>474.8</ele>
        <time>2024-06-23T12:11:57Z</time>
      </trkpt>
      <trkpt lat="43.00567" lon="1.17678">
        <ele>474.8</ele>
        <time>2024-06-23T12:11:58Z</time>
      </trkpt>
      <trkpt lat="43.00565" lon="1.17673">
        <ele>474.8</ele>
        <time>2024-06-23T12:11:59Z</time>
      </trkpt>
      <trkpt lat="43.00563" lon="1.17667">
        <ele>474.8</ele>
        <time>2024-06-23T12:12:00Z</time>
      </trkpt>
      <trkpt lat="43.00561" lon="1.17662">
        <ele>474.8</ele>
        <time>2024-06-23T12:12:01Z</time>
      </trkpt>
      <trkpt lat="43.0056" lon="1.17656">
        <ele>475</ele>
        <time>2024-06-23T12:12:02Z</time>
      </trkpt>
      <trkpt lat="43.00558" lon="1.1765">
        <ele>475.2</ele>
        <time>2024-06-23T12:12:03Z</time>
      </trkpt>
      <trkpt lat="43.00557" lon="1.17644">
        <ele>475.2</ele>
        <time>2024-06-23T12:12:04Z</time>
      </trkpt>
      <trkpt lat="43.00555" lon="1.17638">
        <ele>475.2</ele>
        <time>2024-06-23T12:12:05Z</time>
      </trkpt>
      <trkpt lat="43.00553" lon="1.17631">
        <ele>475.4</ele>
        <time>2024-06-23T12:12:06Z</time>
      </trkpt>
      <trkpt lat="43.00552" lon="1.17626">
        <ele>475.4</ele>
        <time>2024-06-23T12:12:07Z</time>
      </trkpt>
      <trkpt lat="43.0055" lon="1.17621">
        <ele>475.4</ele>
        <time>2024-06-23T12:12:08Z</time>
      </trkpt>
      <trkpt lat="43.00548" lon="1.17615">
        <ele>475.4</ele>
        <time>2024-06-23T12:12:09Z</time>
      </trkpt>
      <trkpt lat="43.00545" lon="1.17609">
        <ele>475.8</ele>
        <time>2024-06-23T12:12:10Z</time>
      </trkpt>
      <trkpt lat="43.00543" lon="1.17603">
        <ele>475.2</ele>
        <time>2024-06-23T12:12:11Z</time>
      </trkpt>
      <trkpt lat="43.0054" lon="1.17596">
        <ele>475.2</ele>
        <time>2024-06-23T12:12:12Z</time>
      </trkpt>
      <trkpt lat="43.00539" lon="1.1759">
        <ele>475.2</ele>
        <time>2024-06-23T12:12:13Z</time>
      </trkpt>
      <trkpt lat="43.00537" lon="1.17584">
        <ele>475.8</ele>
        <time>2024-06-23T12:12:14Z</time>
      </trkpt>
      <trkpt lat="43.00536" lon="1.17577">
        <ele>475.8</ele>
        <time>2024-06-23T12:12:15Z</time>
      </trkpt>
      <trkpt lat="43.00534" lon="1.17571">
        <ele>475.8</ele>
        <time>2024-06-23T12:12:16Z</time>
      </trkpt>
      <trkpt lat="43.00532" lon="1.17565">
        <ele>475.8</ele>
        <time>2024-06-23T12:12:17Z</time>
      </trkpt>
      <trkpt lat="43.0053" lon="1.17558">
        <ele>475.8</ele>
        <time>2024-06-23T12:12:18Z</time>
      </trkpt>
      <trkpt lat="43.00529" lon="1.17554">
        <ele>475.8</ele>
        <time>2024-06-23T12:12:19Z</time>
      </trkpt>
      <trkpt lat="43.00527" lon="1.17547">
        <ele>475.8</ele>
        <time>2024-06-23T12:12:20Z</time>
      </trkpt>
      <trkpt lat="43.00526" lon="1.17543">
        <ele>476.2</ele>
        <time>2024-06-23T12:12:21Z</time>
      </trkpt>
      <trkpt lat="43.00524" lon="1.17537">
        <ele>476.4</ele>
        <time>2024-06-23T12:12:22Z</time>
      </trkpt>
      <trkpt lat="43.00523" lon="1.17532">
        <ele>476.8</ele>
        <time>2024-06-23T12:12:23Z</time>
      </trkpt>
      <trkpt lat="43.00522" lon="1.17527">
        <ele>477</ele>
        <time>2024-06-23T12:12:24Z</time>
      </trkpt>
      <trkpt lat="43.0052" lon="1.17522">
        <ele>477.4</ele>
        <time>2024-06-23T12:12:25Z</time>
      </trkpt>
      <trkpt lat="43.00518" lon="1.17517">
        <ele>477.8</ele>
        <time>2024-06-23T12:12:26Z</time>
      </trkpt>
      <trkpt lat="43.00516" lon="1.17513">
        <ele>478.2</ele>
        <time>2024-06-23T12:12:27Z</time>
      </trkpt>
      <trkpt lat="43.00514" lon="1.17509">
        <ele>478.2</ele>
        <time>2024-06-23T12:12:28Z</time>
      </trkpt>
      <trkpt lat="43.00512" lon="1.17505">
        <ele>478.2</ele>
        <time>2024-06-23T12:12:29Z</time>
      </trkpt>
      <trkpt lat="43.0051" lon="1.17501">
        <ele>478.2</ele>
        <time>2024-06-23T12:12:30Z</time>
      </trkpt>
      <trkpt lat="43.00507" lon="1.17495">
        <ele>478.6</ele>
        <time>2024-06-23T12:12:31Z</time>
      </trkpt>
      <trkpt lat="43.00504" lon="1.17491">
        <ele>478.6</ele>
        <time>2024-06-23T12:12:32Z</time>
      </trkpt>
      <trkpt lat="43.00502" lon="1.17487">
        <ele>479</ele>
        <time>2024-06-23T12:12:33Z</time>
      </trkpt>
      <trkpt lat="43.005" lon="1.17483">
        <ele>479</ele>
        <time>2024-06-23T12:12:34Z</time>
      </trkpt>
      <trkpt lat="43.00497" lon="1.17479">
        <ele>479.4</ele>
        <time>2024-06-23T12:12:35Z</time>
      </trkpt>
      <trkpt lat="43.00495" lon="1.17476">
        <ele>479.4</ele>
        <time>2024-06-23T12:12:36Z</time>
      </trkpt>
      <trkpt lat="43.00492" lon="1.17472">
        <ele>479.4</ele>
        <time>2024-06-23T12:12:37Z</time>
      </trkpt>
      <trkpt lat="43.00489" lon="1.17469">
        <ele>479.8</ele>
        <time>2024-06-23T12:12:38Z</time>
      </trkpt>
      <trkpt lat="43.00487" lon="1.17465">
        <ele>480</ele>
        <time>2024-06-23T12:12:39Z</time>
      </trkpt>
      <trkpt lat="43.00484" lon="1.17461">
        <ele>480</ele>
        <time>2024-06-23T12:12:40Z</time>
      </trkpt>
      <trkpt lat="43.00482" lon="1.17459">
        <ele>480.4</ele>
        <time>2024-06-23T12:12:41Z</time>
      </trkpt>
      <trkpt lat="43.00479" lon="1.17455">
        <ele>480.6</ele>
        <time>2024-06-23T12:12:42Z</time>
      </trkpt>
      <trkpt lat="43.00476" lon="1.17451">
        <ele>480.6</ele>
        <time>2024-06-23T12:12:43Z</time>
      </trkpt>
      <trkpt lat="43.00473" lon="1.17447">
        <ele>481</ele>
        <time>2024-06-23T12:12:44Z</time>
      </trkpt>
      <trkpt lat="43.0047" lon="1.17444">
        <ele>481</ele>
        <time>2024-06-23T12:12:45Z</time>
      </trkpt>
      <trkpt lat="43.00468" lon="1.17441">
        <ele>481.2</ele>
        <time>2024-06-23T12:12:46Z</time>
      </trkpt>
      <trkpt lat="43.00465" lon="1.17439">
        <ele>481.4</ele>
        <time>2024-06-23T12:12:47Z</time>
      </trkpt>
      <trkpt lat="43.00462" lon="1.17436">
        <ele>481.6</ele>
        <time>2024-06-23T12:12:48Z</time>
      </trkpt>
      <trkpt lat="43.0046" lon="1.17433">
        <ele>482</ele>
        <time>2024-06-23T12:12:49Z</time>
      </trkpt>
      <trkpt lat="43.00459" lon="1.17431">
        <ele>482.2</ele>
        <time>2024-06-23T12:12:50Z</time>
      </trkpt>
      <trkpt lat="43.00456" lon="1.17429">
        <ele>482.4</ele>
        <time>2024-06-23T12:12:51Z</time>
      </trkpt>
      <trkpt lat="43.00454" lon="1.17427">
        <ele>482.8</ele>
        <time>2024-06-23T12:12:52Z</time>
      </trkpt>
      <trkpt lat="43.00451" lon="1.17426">
        <ele>482.8</ele>
        <time>2024-06-23T12:12:53Z</time>
      </trkpt>
      <trkpt lat="43.00449" lon="1.17424">
        <ele>483.2</ele>
        <time>2024-06-23T12:12:54Z</time>
      </trkpt>
      <trkpt lat="43.00446" lon="1.17422">
        <ele>483.2</ele>
        <time>2024-06-23T12:12:55Z</time>
      </trkpt>
      <trkpt lat="43.00443" lon="1.1742">
        <ele>483.2</ele>
        <time>2024-06-23T12:12:56Z</time>
      </trkpt>
      <trkpt lat="43.0044" lon="1.17419">
        <ele>483.2</ele>
        <time>2024-06-23T12:12:57Z</time>
      </trkpt>
      <trkpt lat="43.00437" lon="1.17418">
        <ele>483.2</ele>
        <time>2024-06-23T12:12:58Z</time>
      </trkpt>
      <trkpt lat="43.00433" lon="1.17416">
        <ele>483.2</ele>
        <time>2024-06-23T12:12:59Z</time>
      </trkpt>
      <trkpt lat="43.00429" lon="1.17414">
        <ele>483.2</ele>
        <time>2024-06-23T12:13:00Z</time>
      </trkpt>
      <trkpt lat="43.00426" lon="1.1741">
        <ele>482.8</ele>
        <time>2024-06-23T12:13:01Z</time>
      </trkpt>
      <trkpt lat="43.00422" lon="1.17407">
        <ele>482.2</ele>
        <time>2024-06-23T12:13:02Z</time>
      </trkpt>
      <trkpt lat="43.00418" lon="1.17403">
        <ele>482.6</ele>
        <time>2024-06-23T12:13:03Z</time>
      </trkpt>
      <trkpt lat="43.00415" lon="1.17398">
        <ele>482.2</ele>
        <time>2024-06-23T12:13:04Z</time>
      </trkpt>
      <trkpt lat="43.00411" lon="1.17394">
        <ele>482.2</ele>
        <time>2024-06-23T12:13:05Z</time>
      </trkpt>
      <trkpt lat="43.00409" lon="1.17393">
        <ele>482.2</ele>
        <time>2024-06-23T12:13:06Z</time>
      </trkpt>
      <trkpt lat="43.00406" lon="1.17389">
        <ele>481.8</ele>
        <time>2024-06-23T12:13:07Z</time>
      </trkpt>
      <trkpt lat="43.00403" lon="1.17387">
        <ele>481.8</ele>
        <time>2024-06-23T12:13:08Z</time>
      </trkpt>
      <trkpt lat="43.00399" lon="1.17384">
        <ele>481.8</ele>
        <time>2024-06-23T12:13:09Z</time>
      </trkpt>
      <trkpt lat="43.00396" lon="1.17382">
        <ele>481.4</ele>
        <time>2024-06-23T12:13:10Z</time>
      </trkpt>
      <trkpt lat="43.00393" lon="1.17378">
        <ele>481</ele>
        <time>2024-06-23T12:13:11Z</time>
      </trkpt>
      <trkpt lat="43.00389" lon="1.17376">
        <ele>481</ele>
        <time>2024-06-23T12:13:12Z</time>
      </trkpt>
      <trkpt lat="43.00386" lon="1.17373">
        <ele>481</ele>
        <time>2024-06-23T12:13:13Z</time>
      </trkpt>
      <trkpt lat="43.00382" lon="1.17369">
        <ele>480.8</ele>
        <time>2024-06-23T12:13:14Z</time>
      </trkpt>
      <trkpt lat="43.00378" lon="1.17365">
        <ele>480.6</ele>
        <time>2024-06-23T12:13:15Z</time>
      </trkpt>
      <trkpt lat="43.00374" lon="1.17362">
        <ele>480</ele>
        <time>2024-06-23T12:13:16Z</time>
      </trkpt>
      <trkpt lat="43.0037" lon="1.17359">
        <ele>479.6</ele>
        <time>2024-06-23T12:13:17Z</time>
      </trkpt>
      <trkpt lat="43.00366" lon="1.17355">
        <ele>478.8</ele>
        <time>2024-06-23T12:13:18Z</time>
      </trkpt>
      <trkpt lat="43.00362" lon="1.17351">
        <ele>478.4</ele>
        <time>2024-06-23T12:13:19Z</time>
      </trkpt>
      <trkpt lat="43.00358" lon="1.17347">
        <ele>477.8</ele>
        <time>2024-06-23T12:13:20Z</time>
      </trkpt>
      <trkpt lat="43.00354" lon="1.17344">
        <ele>477.2</ele>
        <time>2024-06-23T12:13:21Z</time>
      </trkpt>
      <trkpt lat="43.00353" lon="1.17342">
        <ele>476.6</ele>
        <time>2024-06-23T12:13:22Z</time>
      </trkpt>
      <trkpt lat="43.00349" lon="1.17338">
        <ele>476.4</ele>
        <time>2024-06-23T12:13:23Z</time>
      </trkpt>
      <trkpt lat="43.00346" lon="1.17336">
        <ele>475.8</ele>
        <time>2024-06-23T12:13:24Z</time>
      </trkpt>
      <trkpt lat="43.00343" lon="1.17335">
        <ele>475.4</ele>
        <time>2024-06-23T12:13:25Z</time>
      </trkpt>
      <trkpt lat="43.0034" lon="1.17334">
        <ele>475.4</ele>
        <time>2024-06-23T12:13:26Z</time>
      </trkpt>
      <trkpt lat="43.00337" lon="1.17333">
        <ele>474.4</ele>
        <time>2024-06-23T12:13:27Z</time>
      </trkpt>
      <trkpt lat="43.00335" lon="1.17331">
        <ele>474.2</ele>
        <time>2024-06-23T12:13:28Z</time>
      </trkpt>
      <trkpt lat="43.00332" lon="1.17328">
        <ele>472.6</ele>
        <time>2024-06-23T12:13:29Z</time>
      </trkpt>
      <trkpt lat="43.0033" lon="1.17327">
        <ele>472.6</ele>
        <time>2024-06-23T12:13:30Z</time>
      </trkpt>
      <trkpt lat="43.00327" lon="1.17324">
        <ele>472.6</ele>
        <time>2024-06-23T12:13:31Z</time>
      </trkpt>
      <trkpt lat="43.00325" lon="1.17321">
        <ele>472.6</ele>
        <time>2024-06-23T12:13:32Z</time>
      </trkpt>
      <trkpt lat="43.00322" lon="1.17318">
        <ele>472</ele>
        <time>2024-06-23T12:13:33Z</time>
      </trkpt>
      <trkpt lat="43.00318" lon="1.17315">
        <ele>472</ele>
        <time>2024-06-23T12:13:34Z</time>
      </trkpt>
      <trkpt lat="43.00315" lon="1.17312">
        <ele>472</ele>
        <time>2024-06-23T12:13:35Z</time>
      </trkpt>
      <trkpt lat="43.00311" lon="1.17309">
        <ele>472</ele>
        <time>2024-06-23T12:13:36Z</time>
      </trkpt>
      <trkpt lat="43.00308" lon="1.17307">
        <ele>472</ele>
        <time>2024-06-23T12:13:37Z</time>
      </trkpt>
      <trkpt lat="43.00304" lon="1.17304">
        <ele>472</ele>
        <time>2024-06-23T12:13:38Z</time>
      </trkpt>
      <trkpt lat="43.00302" lon="1.17303">
        <ele>472</ele>
        <time>2024-06-23T12:13:39Z</time>
      </trkpt>
      <trkpt lat="43.00299" lon="1.17301">
        <ele>472</ele>
        <time>2024-06-23T12:13:40Z</time>
      </trkpt>
      <trkpt lat="43.00296" lon="1.17299">
        <ele>472</ele>
        <time>2024-06-23T12:13:41Z</time>
      </trkpt>
      <trkpt lat="43.00294" lon="1.17295">
        <ele>471.8</ele>
        <time>2024-06-23T12:13:42Z</time>
      </trkpt>
      <trkpt lat="43.00292" lon="1.1729">
        <ele>471.8</ele>
        <time>2024-06-23T12:13:43Z</time>
      </trkpt>
      <trkpt lat="43.0029" lon="1.17285">
        <ele>471.6</ele>
        <time>2024-06-23T12:13:44Z</time>
      </trkpt>
      <trkpt lat="43.00288" lon="1.17278">
        <ele>471.6</ele>
        <time>2024-06-23T12:13:45Z</time>
      </trkpt>
      <trkpt lat="43.00286" lon="1.17272">
        <ele>471.2</ele>
        <time>2024-06-23T12:13:46Z</time>
      </trkpt>
      <trkpt lat="43.00284" lon="1.17265">
        <ele>471.2</ele>
        <time>2024-06-23T12:13:47Z</time>
      </trkpt>
      <trkpt lat="43.00282" lon="1.17259">
        <ele>471.2</ele>
        <time>2024-06-23T12:13:48Z</time>
      </trkpt>
      <trkpt lat="43.0028" lon="1.17252">
        <ele>470.8</ele>
        <time>2024-06-23T12:13:49Z</time>
      </trkpt>
      <trkpt lat="43.00278" lon="1.17244">
        <ele>470.8</ele>
        <time>2024-06-23T12:13:50Z</time>
      </trkpt>
      <trkpt lat="43.00276" lon="1.17237">
        <ele>470.6</ele>
        <time>2024-06-23T12:13:51Z</time>
      </trkpt>
      <trkpt lat="43.00274" lon="1.17229">
        <ele>470.4</ele>
        <time>2024-06-23T12:13:52Z</time>
      </trkpt>
      <trkpt lat="43.00272" lon="1.17221">
        <ele>470.2</ele>
        <time>2024-06-23T12:13:53Z</time>
      </trkpt>
      <trkpt lat="43.0027" lon="1.17212">
        <ele>470.2</ele>
        <time>2024-06-23T12:13:54Z</time>
      </trkpt>
      <trkpt lat="43.00269" lon="1.17204">
        <ele>470.2</ele>
        <time>2024-06-23T12:13:55Z</time>
      </trkpt>
      <trkpt lat="43.00268" lon="1.17195">
        <ele>469.8</ele>
        <time>2024-06-23T12:13:56Z</time>
      </trkpt>
      <trkpt lat="43.00267" lon="1.17186">
        <ele>469.2</ele>
        <time>2024-06-23T12:13:57Z</time>
      </trkpt>
      <trkpt lat="43.00267" lon="1.17176">
        <ele>469.2</ele>
        <time>2024-06-23T12:13:58Z</time>
      </trkpt>
      <trkpt lat="43.00267" lon="1.17167">
        <ele>469.2</ele>
        <time>2024-06-23T12:13:59Z</time>
      </trkpt>
      <trkpt lat="43.00268" lon="1.17158">
        <ele>468.8</ele>
        <time>2024-06-23T12:14:00Z</time>
      </trkpt>
      <trkpt lat="43.00268" lon="1.17148">
        <ele>468.4</ele>
        <time>2024-06-23T12:14:01Z</time>
      </trkpt>
      <trkpt lat="43.00269" lon="1.17139">
        <ele>468.2</ele>
        <time>2024-06-23T12:14:02Z</time>
      </trkpt>
      <trkpt lat="43.0027" lon="1.1713">
        <ele>467.8</ele>
        <time>2024-06-23T12:14:03Z</time>
      </trkpt>
      <trkpt lat="43.00272" lon="1.1712">
        <ele>467.6</ele>
        <time>2024-06-23T12:14:04Z</time>
      </trkpt>
      <trkpt lat="43.00273" lon="1.17111">
        <ele>467.6</ele>
        <time>2024-06-23T12:14:05Z</time>
      </trkpt>
      <trkpt lat="43.00275" lon="1.17102">
        <ele>467.6</ele>
        <time>2024-06-23T12:14:06Z</time>
      </trkpt>
      <trkpt lat="43.00277" lon="1.17093">
        <ele>467.2</ele>
        <time>2024-06-23T12:14:07Z</time>
      </trkpt>
      <trkpt lat="43.0028" lon="1.17083">
        <ele>466.6</ele>
        <time>2024-06-23T12:14:08Z</time>
      </trkpt>
      <trkpt lat="43.00281" lon="1.17074">
        <ele>466.2</ele>
        <time>2024-06-23T12:14:09Z</time>
      </trkpt>
      <trkpt lat="43.00283" lon="1.17065">
        <ele>466.2</ele>
        <time>2024-06-23T12:14:10Z</time>
      </trkpt>
      <trkpt lat="43.00285" lon="1.17055">
        <ele>465.8</ele>
        <time>2024-06-23T12:14:11Z</time>
      </trkpt>
      <trkpt lat="43.00286" lon="1.17046">
        <ele>466.2</ele>
        <time>2024-06-23T12:14:12Z</time>
      </trkpt>
      <trkpt lat="43.00287" lon="1.17037">
        <ele>466.2</ele>
        <time>2024-06-23T12:14:13Z</time>
      </trkpt>
      <trkpt lat="43.00288" lon="1.17027">
        <ele>466.2</ele>
        <time>2024-06-23T12:14:14Z</time>
      </trkpt>
      <trkpt lat="43.00288" lon="1.17018">
        <ele>465.6</ele>
        <time>2024-06-23T12:14:15Z</time>
      </trkpt>
      <trkpt lat="43.00287" lon="1.17009">
        <ele>465.6</ele>
        <time>2024-06-23T12:14:16Z</time>
      </trkpt>
      <trkpt lat="43.00286" lon="1.16999">
        <ele>465.2</ele>
        <time>2024-06-23T12:14:17Z</time>
      </trkpt>
      <trkpt lat="43.00283" lon="1.1699">
        <ele>465</ele>
        <time>2024-06-23T12:14:18Z</time>
      </trkpt>
      <trkpt lat="43.00281" lon="1.16981">
        <ele>464.8</ele>
        <time>2024-06-23T12:14:19Z</time>
      </trkpt>
      <trkpt lat="43.00277" lon="1.16972">
        <ele>464.8</ele>
        <time>2024-06-23T12:14:20Z</time>
      </trkpt>
      <trkpt lat="43.00273" lon="1.16964">
        <ele>464.2</ele>
        <time>2024-06-23T12:14:21Z</time>
      </trkpt>
      <trkpt lat="43.00269" lon="1.16955">
        <ele>463.8</ele>
        <time>2024-06-23T12:14:22Z</time>
      </trkpt>
      <trkpt lat="43.00264" lon="1.16948">
        <ele>464</ele>
        <time>2024-06-23T12:14:23Z</time>
      </trkpt>
      <trkpt lat="43.0026" lon="1.1694">
        <ele>464</ele>
        <time>2024-06-23T12:14:24Z</time>
      </trkpt>
      <trkpt lat="43.00256" lon="1.16932">
        <ele>463.4</ele>
        <time>2024-06-23T12:14:25Z</time>
      </trkpt>
      <trkpt lat="43.00251" lon="1.16925">
        <ele>463.4</ele>
        <time>2024-06-23T12:14:26Z</time>
      </trkpt>
      <trkpt lat="43.00248" lon="1.16915">
        <ele>463.2</ele>
        <time>2024-06-23T12:14:27Z</time>
      </trkpt>
      <trkpt lat="43.00247" lon="1.16905">
        <ele>462.8</ele>
        <time>2024-06-23T12:14:28Z</time>
      </trkpt>
      <trkpt lat="43.00247" lon="1.16895">
        <ele>462</ele>
        <time>2024-06-23T12:14:29Z</time>
      </trkpt>
      <trkpt lat="43.00247" lon="1.16884">
        <ele>461.8</ele>
        <time>2024-06-23T12:14:30Z</time>
      </trkpt>
      <trkpt lat="43.00248" lon="1.16874">
        <ele>461.4</ele>
        <time>2024-06-23T12:14:31Z</time>
      </trkpt>
      <trkpt lat="43.00248" lon="1.16863">
        <ele>460.8</ele>
        <time>2024-06-23T12:14:32Z</time>
      </trkpt>
      <trkpt lat="43.00248" lon="1.16851">
        <ele>460.4</ele>
        <time>2024-06-23T12:14:33Z</time>
      </trkpt>
      <trkpt lat="43.00248" lon="1.1684">
        <ele>460</ele>
        <time>2024-06-23T12:14:34Z</time>
      </trkpt>
      <trkpt lat="43.00248" lon="1.16828">
        <ele>459.4</ele>
        <time>2024-06-23T12:14:35Z</time>
      </trkpt>
      <trkpt lat="43.00247" lon="1.16816">
        <ele>459</ele>
        <time>2024-06-23T12:14:36Z</time>
      </trkpt>
      <trkpt lat="43.00247" lon="1.16804">
        <ele>458</ele>
        <time>2024-06-23T12:14:37Z</time>
      </trkpt>
      <trkpt lat="43.00246" lon="1.16791">
        <ele>457.6</ele>
        <time>2024-06-23T12:14:38Z</time>
      </trkpt>
      <trkpt lat="43.00245" lon="1.16778">
        <ele>457.2</ele>
        <time>2024-06-23T12:14:39Z</time>
      </trkpt>
      <trkpt lat="43.00244" lon="1.16765">
        <ele>456.6</ele>
        <time>2024-06-23T12:14:40Z</time>
      </trkpt>
      <trkpt lat="43.00243" lon="1.16753">
        <ele>455.8</ele>
        <time>2024-06-23T12:14:41Z</time>
      </trkpt>
      <trkpt lat="43.00242" lon="1.1674">
        <ele>455.4</ele>
        <time>2024-06-23T12:14:42Z</time>
      </trkpt>
      <trkpt lat="43.00241" lon="1.16726">
        <ele>455</ele>
        <time>2024-06-23T12:14:43Z</time>
      </trkpt>
      <trkpt lat="43.0024" lon="1.16714">
        <ele>454</ele>
        <time>2024-06-23T12:14:44Z</time>
      </trkpt>
      <trkpt lat="43.00239" lon="1.16701">
        <ele>453.2</ele>
        <time>2024-06-23T12:14:45Z</time>
      </trkpt>
      <trkpt lat="43.00237" lon="1.16687">
        <ele>452.8</ele>
        <time>2024-06-23T12:14:46Z</time>
      </trkpt>
      <trkpt lat="43.00236" lon="1.16674">
        <ele>452.4</ele>
        <time>2024-06-23T12:14:47Z</time>
      </trkpt>
      <trkpt lat="43.00235" lon="1.16661">
        <ele>452</ele>
        <time>2024-06-23T12:14:48Z</time>
      </trkpt>
      <trkpt lat="43.00233" lon="1.16647">
        <ele>451.4</ele>
        <time>2024-06-23T12:14:49Z</time>
      </trkpt>
      <trkpt lat="43.00233" lon="1.16634">
        <ele>450.8</ele>
        <time>2024-06-23T12:14:50Z</time>
      </trkpt>
      <trkpt lat="43.00231" lon="1.1662">
        <ele>450.4</ele>
        <time>2024-06-23T12:14:51Z</time>
      </trkpt>
      <trkpt lat="43.0023" lon="1.16607">
        <ele>449.8</ele>
        <time>2024-06-23T12:14:52Z</time>
      </trkpt>
      <trkpt lat="43.00229" lon="1.16593">
        <ele>449.4</ele>
        <time>2024-06-23T12:14:53Z</time>
      </trkpt>
      <trkpt lat="43.00228" lon="1.16579">
        <ele>448.8</ele>
        <time>2024-06-23T12:14:54Z</time>
      </trkpt>
      <trkpt lat="43.00227" lon="1.16565">
        <ele>448.4</ele>
        <time>2024-06-23T12:14:55Z</time>
      </trkpt>
      <trkpt lat="43.00225" lon="1.16551">
        <ele>447.6</ele>
        <time>2024-06-23T12:14:56Z</time>
      </trkpt>
      <trkpt lat="43.00224" lon="1.16536">
        <ele>447.6</ele>
        <time>2024-06-23T12:14:57Z</time>
      </trkpt>
      <trkpt lat="43.00223" lon="1.16522">
        <ele>446.4</ele>
        <time>2024-06-23T12:14:58Z</time>
      </trkpt>
      <trkpt lat="43.00221" lon="1.16507">
        <ele>445.4</ele>
        <time>2024-06-23T12:14:59Z</time>
      </trkpt>
      <trkpt lat="43.0022" lon="1.16493">
        <ele>444.8</ele>
        <time>2024-06-23T12:15:00Z</time>
      </trkpt>
      <trkpt lat="43.00218" lon="1.16478">
        <ele>444.2</ele>
        <time>2024-06-23T12:15:01Z</time>
      </trkpt>
      <trkpt lat="43.00217" lon="1.16465">
        <ele>443.8</ele>
        <time>2024-06-23T12:15:02Z</time>
      </trkpt>
      <trkpt lat="43.00216" lon="1.16452">
        <ele>443.6</ele>
        <time>2024-06-23T12:15:03Z</time>
      </trkpt>
      <trkpt lat="43.00216" lon="1.16439">
        <ele>443.2</ele>
        <time>2024-06-23T12:15:04Z</time>
      </trkpt>
      <trkpt lat="43.00216" lon="1.16427">
        <ele>443.4</ele>
        <time>2024-06-23T12:15:05Z</time>
      </trkpt>
      <trkpt lat="43.00217" lon="1.16417">
        <ele>443.4</ele>
        <time>2024-06-23T12:15:06Z</time>
      </trkpt>
      <trkpt lat="43.00219" lon="1.16409">
        <ele>443.8</ele>
        <time>2024-06-23T12:15:07Z</time>
      </trkpt>
      <trkpt lat="43.0022" lon="1.16401">
        <ele>444.2</ele>
        <time>2024-06-23T12:15:08Z</time>
      </trkpt>
      <trkpt lat="43.00222" lon="1.16394">
        <ele>444.6</ele>
        <time>2024-06-23T12:15:09Z</time>
      </trkpt>
      <trkpt lat="43.00223" lon="1.16387">
        <ele>445</ele>
        <time>2024-06-23T12:15:10Z</time>
      </trkpt>
      <trkpt lat="43.00224" lon="1.16381">
        <ele>445.6</ele>
        <time>2024-06-23T12:15:11Z</time>
      </trkpt>
      <trkpt lat="43.00224" lon="1.16375">
        <ele>446</ele>
        <time>2024-06-23T12:15:12Z</time>
      </trkpt>
      <trkpt lat="43.00225" lon="1.16371">
        <ele>446.8</ele>
        <time>2024-06-23T12:15:13Z</time>
      </trkpt>
      <trkpt lat="43.00226" lon="1.16367">
        <ele>447</ele>
        <time>2024-06-23T12:15:14Z</time>
      </trkpt>
      <trkpt lat="43.00227" lon="1.16362">
        <ele>447.4</ele>
        <time>2024-06-23T12:15:15Z</time>
      </trkpt>
      <trkpt lat="43.00228" lon="1.16355">
        <ele>447.4</ele>
        <time>2024-06-23T12:15:16Z</time>
      </trkpt>
      <trkpt lat="43.00228" lon="1.16351">
        <ele>448</ele>
        <time>2024-06-23T12:15:17Z</time>
      </trkpt>
      <trkpt lat="43.00227" lon="1.16345">
        <ele>448.4</ele>
        <time>2024-06-23T12:15:18Z</time>
      </trkpt>
      <trkpt lat="43.00227" lon="1.1634">
        <ele>448.6</ele>
        <time>2024-06-23T12:15:19Z</time>
      </trkpt>
      <trkpt lat="43.00227" lon="1.16335">
        <ele>449</ele>
        <time>2024-06-23T12:15:20Z</time>
      </trkpt>
      <trkpt lat="43.00226" lon="1.1633">
        <ele>449.2</ele>
        <time>2024-06-23T12:15:21Z</time>
      </trkpt>
      <trkpt lat="43.00226" lon="1.16325">
        <ele>449.8</ele>
        <time>2024-06-23T12:15:22Z</time>
      </trkpt>
      <trkpt lat="43.00225" lon="1.16321">
        <ele>450</ele>
        <time>2024-06-23T12:15:23Z</time>
      </trkpt>
      <trkpt lat="43.00225" lon="1.16317">
        <ele>450.2</ele>
        <time>2024-06-23T12:15:24Z</time>
      </trkpt>
      <trkpt lat="43.00225" lon="1.16313">
        <ele>450.6</ele>
        <time>2024-06-23T12:15:25Z</time>
      </trkpt>
      <trkpt lat="43.00224" lon="1.16308">
        <ele>450.8</ele>
        <time>2024-06-23T12:15:26Z</time>
      </trkpt>
      <trkpt lat="43.00223" lon="1.16303">
        <ele>451.2</ele>
        <time>2024-06-23T12:15:27Z</time>
      </trkpt>
      <trkpt lat="43.00222" lon="1.16298">
        <ele>451.2</ele>
        <time>2024-06-23T12:15:28Z</time>
      </trkpt>
      <trkpt lat="43.00221" lon="1.16293">
        <ele>451.6</ele>
        <time>2024-06-23T12:15:29Z</time>
      </trkpt>
      <trkpt lat="43.0022" lon="1.16289">
        <ele>452</ele>
        <time>2024-06-23T12:15:30Z</time>
      </trkpt>
      <trkpt lat="43.00219" lon="1.16285">
        <ele>452.4</ele>
        <time>2024-06-23T12:15:31Z</time>
      </trkpt>
      <trkpt lat="43.00218" lon="1.16281">
        <ele>452.6</ele>
        <time>2024-06-23T12:15:32Z</time>
      </trkpt>
      <trkpt lat="43.00217" lon="1.16276">
        <ele>452.6</ele>
        <time>2024-06-23T12:15:33Z</time>
      </trkpt>
      <trkpt lat="43.00216" lon="1.16272">
        <ele>453.2</ele>
        <time>2024-06-23T12:15:34Z</time>
      </trkpt>
      <trkpt lat="43.00215" lon="1.16267">
        <ele>453.6</ele>
        <time>2024-06-23T12:15:35Z</time>
      </trkpt>
      <trkpt lat="43.00215" lon="1.16263">
        <ele>453.8</ele>
        <time>2024-06-23T12:15:36Z</time>
      </trkpt>
      <trkpt lat="43.00215" lon="1.16258">
        <ele>454</ele>
        <time>2024-06-23T12:15:37Z</time>
      </trkpt>
      <trkpt lat="43.00214" lon="1.16254">
        <ele>454.4</ele>
        <time>2024-06-23T12:15:38Z</time>
      </trkpt>
      <trkpt lat="43.00214" lon="1.1625">
        <ele>454.4</ele>
        <time>2024-06-23T12:15:39Z</time>
      </trkpt>
      <trkpt lat="43.00212" lon="1.16243">
        <ele>454.8</ele>
        <time>2024-06-23T12:15:40Z</time>
      </trkpt>
      <trkpt lat="43.00212" lon="1.16239">
        <ele>454.8</ele>
        <time>2024-06-23T12:15:41Z</time>
      </trkpt>
      <trkpt lat="43.00211" lon="1.16234">
        <ele>455.2</ele>
        <time>2024-06-23T12:15:42Z</time>
      </trkpt>
      <trkpt lat="43.00211" lon="1.1623">
        <ele>455.4</ele>
        <time>2024-06-23T12:15:43Z</time>
      </trkpt>
      <trkpt lat="43.0021" lon="1.16226">
        <ele>455.6</ele>
        <time>2024-06-23T12:15:44Z</time>
      </trkpt>
      <trkpt lat="43.0021" lon="1.16222">
        <ele>455.8</ele>
        <time>2024-06-23T12:15:45Z</time>
      </trkpt>
      <trkpt lat="43.0021" lon="1.16218">
        <ele>456</ele>
        <time>2024-06-23T12:15:46Z</time>
      </trkpt>
      <trkpt lat="43.00209" lon="1.16214">
        <ele>456.4</ele>
        <time>2024-06-23T12:15:47Z</time>
      </trkpt>
      <trkpt lat="43.00209" lon="1.1621">
        <ele>456.4</ele>
        <time>2024-06-23T12:15:48Z</time>
      </trkpt>
      <trkpt lat="43.00208" lon="1.16206">
        <ele>456.8</ele>
        <time>2024-06-23T12:15:49Z</time>
      </trkpt>
      <trkpt lat="43.00208" lon="1.16203">
        <ele>456.8</ele>
        <time>2024-06-23T12:15:50Z</time>
      </trkpt>
      <trkpt lat="43.00207" lon="1.16199">
        <ele>457.2</ele>
        <time>2024-06-23T12:15:51Z</time>
      </trkpt>
      <trkpt lat="43.00207" lon="1.16195">
        <ele>457.6</ele>
        <time>2024-06-23T12:15:52Z</time>
      </trkpt>
      <trkpt lat="43.00207" lon="1.16192">
        <ele>458</ele>
        <time>2024-06-23T12:15:53Z</time>
      </trkpt>
      <trkpt lat="43.00206" lon="1.16188">
        <ele>458</ele>
        <time>2024-06-23T12:15:54Z</time>
      </trkpt>
      <trkpt lat="43.00205" lon="1.16184">
        <ele>458.4</ele>
        <time>2024-06-23T12:15:55Z</time>
      </trkpt>
      <trkpt lat="43.00205" lon="1.1618">
        <ele>458.8</ele>
        <time>2024-06-23T12:15:56Z</time>
      </trkpt>
      <trkpt lat="43.00204" lon="1.16177">
        <ele>458.8</ele>
        <time>2024-06-23T12:15:57Z</time>
      </trkpt>
      <trkpt lat="43.00203" lon="1.16174">
        <ele>459.2</ele>
        <time>2024-06-23T12:15:58Z</time>
      </trkpt>
      <trkpt lat="43.00203" lon="1.1617">
        <ele>459.6</ele>
        <time>2024-06-23T12:15:59Z</time>
      </trkpt>
      <trkpt lat="43.00202" lon="1.16167">
        <ele>459.6</ele>
        <time>2024-06-23T12:16:00Z</time>
      </trkpt>
      <trkpt lat="43.00201" lon="1.16163">
        <ele>459.6</ele>
        <time>2024-06-23T12:16:01Z</time>
      </trkpt>
      <trkpt lat="43.00201" lon="1.16159">
        <ele>459.6</ele>
        <time>2024-06-23T12:16:02Z</time>
      </trkpt>
      <trkpt lat="43.002" lon="1.16156">
        <ele>460</ele>
        <time>2024-06-23T12:16:03Z</time>
      </trkpt>
      <trkpt lat="43.002" lon="1.16152">
        <ele>460.2</ele>
        <time>2024-06-23T12:16:04Z</time>
      </trkpt>
      <trkpt lat="43.00199" lon="1.16149">
        <ele>460.4</ele>
        <time>2024-06-23T12:16:05Z</time>
      </trkpt>
      <trkpt lat="43.00198" lon="1.16145">
        <ele>460.6</ele>
        <time>2024-06-23T12:16:06Z</time>
      </trkpt>
      <trkpt lat="43.00198" lon="1.16141">
        <ele>461</ele>
        <time>2024-06-23T12:16:07Z</time>
      </trkpt>
      <trkpt lat="43.00197" lon="1.16138">
        <ele>461.2</ele>
        <time>2024-06-23T12:16:08Z</time>
      </trkpt>
      <trkpt lat="43.00197" lon="1.16135">
        <ele>461.4</ele>
        <time>2024-06-23T12:16:09Z</time>
      </trkpt>
      <trkpt lat="43.00196" lon="1.16131">
        <ele>461.4</ele>
        <time>2024-06-23T12:16:10Z</time>
      </trkpt>
      <trkpt lat="43.00195" lon="1.16128">
        <ele>461.4</ele>
        <time>2024-06-23T12:16:11Z</time>
      </trkpt>
      <trkpt lat="43.00194" lon="1.16124">
        <ele>461.8</ele>
        <time>2024-06-23T12:16:12Z</time>
      </trkpt>
      <trkpt lat="43.00194" lon="1.1612">
        <ele>461.8</ele>
        <time>2024-06-23T12:16:13Z</time>
      </trkpt>
      <trkpt lat="43.00194" lon="1.16117">
        <ele>462.4</ele>
        <time>2024-06-23T12:16:14Z</time>
      </trkpt>
      <trkpt lat="43.00193" lon="1.16113">
        <ele>463</ele>
        <time>2024-06-23T12:16:15Z</time>
      </trkpt>
      <trkpt lat="43.00193" lon="1.1611">
        <ele>463.2</ele>
        <time>2024-06-23T12:16:16Z</time>
      </trkpt>
      <trkpt lat="43.00192" lon="1.16106">
        <ele>463.6</ele>
        <time>2024-06-23T12:16:17Z</time>
      </trkpt>
      <trkpt lat="43.00192" lon="1.16102">
        <ele>463.6</ele>
        <time>2024-06-23T12:16:18Z</time>
      </trkpt>
      <trkpt lat="43.00191" lon="1.16099">
        <ele>463.8</ele>
        <time>2024-06-23T12:16:19Z</time>
      </trkpt>
      <trkpt lat="43.00191" lon="1.16095">
        <ele>464.2</ele>
        <time>2024-06-23T12:16:20Z</time>
      </trkpt>
      <trkpt lat="43.00191" lon="1.16092">
        <ele>464.6</ele>
        <time>2024-06-23T12:16:21Z</time>
      </trkpt>
      <trkpt lat="43.0019" lon="1.16089">
        <ele>464.8</ele>
        <time>2024-06-23T12:16:22Z</time>
      </trkpt>
      <trkpt lat="43.00189" lon="1.16085">
        <ele>465.2</ele>
        <time>2024-06-23T12:16:23Z</time>
      </trkpt>
      <trkpt lat="43.00188" lon="1.16082">
        <ele>465.4</ele>
        <time>2024-06-23T12:16:24Z</time>
      </trkpt>
      <trkpt lat="43.00188" lon="1.16078">
        <ele>465.6</ele>
        <time>2024-06-23T12:16:25Z</time>
      </trkpt>
      <trkpt lat="43.00188" lon="1.16075">
        <ele>466</ele>
        <time>2024-06-23T12:16:26Z</time>
      </trkpt>
      <trkpt lat="43.00188" lon="1.16071">
        <ele>466.4</ele>
        <time>2024-06-23T12:16:27Z</time>
      </trkpt>
      <trkpt lat="43.00188" lon="1.16067">
        <ele>466.6</ele>
        <time>2024-06-23T12:16:28Z</time>
      </trkpt>
      <trkpt lat="43.00187" lon="1.16063">
        <ele>466.8</ele>
        <time>2024-06-23T12:16:29Z</time>
      </trkpt>
      <trkpt lat="43.00186" lon="1.1606">
        <ele>466.8</ele>
        <time>2024-06-23T12:16:30Z</time>
      </trkpt>
      <trkpt lat="43.00186" lon="1.16056">
        <ele>467.2</ele>
        <time>2024-06-23T12:16:31Z</time>
      </trkpt>
      <trkpt lat="43.00186" lon="1.16052">
        <ele>467.2</ele>
        <time>2024-06-23T12:16:32Z</time>
      </trkpt>
      <trkpt lat="43.00185" lon="1.16049">
        <ele>467.6</ele>
        <time>2024-06-23T12:16:33Z</time>
      </trkpt>
      <trkpt lat="43.00185" lon="1.16046">
        <ele>467.6</ele>
        <time>2024-06-23T12:16:34Z</time>
      </trkpt>
      <trkpt lat="43.00185" lon="1.16042">
        <ele>468</ele>
        <time>2024-06-23T12:16:35Z</time>
      </trkpt>
      <trkpt lat="43.00184" lon="1.16039">
        <ele>468</ele>
        <time>2024-06-23T12:16:36Z</time>
      </trkpt>
      <trkpt lat="43.00182" lon="1.16036">
        <ele>468.4</ele>
        <time>2024-06-23T12:16:37Z</time>
      </trkpt>
      <trkpt lat="43.00181" lon="1.16032">
        <ele>468.6</ele>
        <time>2024-06-23T12:16:38Z</time>
      </trkpt>
      <trkpt lat="43.00181" lon="1.16029">
        <ele>468.6</ele>
        <time>2024-06-23T12:16:39Z</time>
      </trkpt>
      <trkpt lat="43.00181" lon="1.16025">
        <ele>469</ele>
        <time>2024-06-23T12:16:40Z</time>
      </trkpt>
      <trkpt lat="43.00181" lon="1.16022">
        <ele>469</ele>
        <time>2024-06-23T12:16:41Z</time>
      </trkpt>
      <trkpt lat="43.0018" lon="1.16018">
        <ele>469.4</ele>
        <time>2024-06-23T12:16:42Z</time>
      </trkpt>
      <trkpt lat="43.0018" lon="1.16015">
        <ele>469.4</ele>
        <time>2024-06-23T12:16:43Z</time>
      </trkpt>
      <trkpt lat="43.00179" lon="1.16012">
        <ele>469.8</ele>
        <time>2024-06-23T12:16:44Z</time>
      </trkpt>
      <trkpt lat="43.00178" lon="1.16008">
        <ele>469.8</ele>
        <time>2024-06-23T12:16:45Z</time>
      </trkpt>
      <trkpt lat="43.00177" lon="1.16005">
        <ele>470.2</ele>
        <time>2024-06-23T12:16:46Z</time>
      </trkpt>
      <trkpt lat="43.00176" lon="1.16001">
        <ele>470.2</ele>
        <time>2024-06-23T12:16:47Z</time>
      </trkpt>
      <trkpt lat="43.00176" lon="1.15998">
        <ele>470.4</ele>
        <time>2024-06-23T12:16:48Z</time>
      </trkpt>
      <trkpt lat="43.00176" lon="1.15994">
        <ele>470.6</ele>
        <time>2024-06-23T12:16:49Z</time>
      </trkpt>
      <trkpt lat="43.00175" lon="1.15991">
        <ele>470.8</ele>
        <time>2024-06-23T12:16:50Z</time>
      </trkpt>
      <trkpt lat="43.00175" lon="1.15987">
        <ele>471</ele>
        <time>2024-06-23T12:16:51Z</time>
      </trkpt>
      <trkpt lat="43.00174" lon="1.15984">
        <ele>471</ele>
        <time>2024-06-23T12:16:52Z</time>
      </trkpt>
      <trkpt lat="43.00173" lon="1.15981">
        <ele>471.2</ele>
        <time>2024-06-23T12:16:53Z</time>
      </trkpt>
      <trkpt lat="43.00172" lon="1.15977">
        <ele>471.6</ele>
        <time>2024-06-23T12:16:54Z</time>
      </trkpt>
      <trkpt lat="43.00171" lon="1.15974">
        <ele>471.8</ele>
        <time>2024-06-23T12:16:55Z</time>
      </trkpt>
      <trkpt lat="43.00171" lon="1.1597">
        <ele>471.8</ele>
        <time>2024-06-23T12:16:56Z</time>
      </trkpt>
      <trkpt lat="43.00171" lon="1.15966">
        <ele>472.2</ele>
        <time>2024-06-23T12:16:57Z</time>
      </trkpt>
      <trkpt lat="43.0017" lon="1.15963">
        <ele>472.6</ele>
        <time>2024-06-23T12:16:58Z</time>
      </trkpt>
      <trkpt lat="43.0017" lon="1.15959">
        <ele>472.6</ele>
        <time>2024-06-23T12:16:59Z</time>
      </trkpt>
      <trkpt lat="43.00169" lon="1.15956">
        <ele>473</ele>
        <time>2024-06-23T12:17:00Z</time>
      </trkpt>
      <trkpt lat="43.00169" lon="1.15953">
        <ele>473</ele>
        <time>2024-06-23T12:17:01Z</time>
      </trkpt>
      <trkpt lat="43.00169" lon="1.1595">
        <ele>473.2</ele>
        <time>2024-06-23T12:17:02Z</time>
      </trkpt>
      <trkpt lat="43.00169" lon="1.15948">
        <ele>473.6</ele>
        <time>2024-06-23T12:17:03Z</time>
      </trkpt>
      <trkpt lat="43.00168" lon="1.15945">
        <ele>474</ele>
        <time>2024-06-23T12:17:04Z</time>
      </trkpt>
      <trkpt lat="43.00168" lon="1.15943">
        <ele>474.2</ele>
        <time>2024-06-23T12:17:05Z</time>
      </trkpt>
      <trkpt lat="43.00167" lon="1.15941">
        <ele>474.2</ele>
        <time>2024-06-23T12:17:06Z</time>
      </trkpt>
      <trkpt lat="43.00166" lon="1.15938">
        <ele>474.6</ele>
        <time>2024-06-23T12:17:07Z</time>
      </trkpt>
      <trkpt lat="43.00165" lon="1.15936">
        <ele>474.6</ele>
        <time>2024-06-23T12:17:08Z</time>
      </trkpt>
      <trkpt lat="43.00165" lon="1.15932">
        <ele>474.6</ele>
        <time>2024-06-23T12:17:09Z</time>
      </trkpt>
      <trkpt lat="43.00165" lon="1.15928">
        <ele>474.6</ele>
        <time>2024-06-23T12:17:10Z</time>
      </trkpt>
      <trkpt lat="43.00165" lon="1.15925">
        <ele>474.8</ele>
        <time>2024-06-23T12:17:11Z</time>
      </trkpt>
      <trkpt lat="43.00165" lon="1.15921">
        <ele>475</ele>
        <time>2024-06-23T12:17:12Z</time>
      </trkpt>
      <trkpt lat="43.00164" lon="1.15918">
        <ele>475.4</ele>
        <time>2024-06-23T12:17:13Z</time>
      </trkpt>
      <trkpt lat="43.00164" lon="1.15915">
        <ele>475.6</ele>
        <time>2024-06-23T12:17:14Z</time>
      </trkpt>
      <trkpt lat="43.00163" lon="1.15911">
        <ele>475.8</ele>
        <time>2024-06-23T12:17:15Z</time>
      </trkpt>
      <trkpt lat="43.00162" lon="1.15908">
        <ele>475.8</ele>
        <time>2024-06-23T12:17:16Z</time>
      </trkpt>
      <trkpt lat="43.00162" lon="1.15905">
        <ele>476.2</ele>
        <time>2024-06-23T12:17:17Z</time>
      </trkpt>
      <trkpt lat="43.00161" lon="1.15902">
        <ele>476.2</ele>
        <time>2024-06-23T12:17:18Z</time>
      </trkpt>
      <trkpt lat="43.00161" lon="1.15898">
        <ele>476.4</ele>
        <time>2024-06-23T12:17:19Z</time>
      </trkpt>
      <trkpt lat="43.0016" lon="1.15895">
        <ele>476.8</ele>
        <time>2024-06-23T12:17:20Z</time>
      </trkpt>
      <trkpt lat="43.0016" lon="1.15891">
        <ele>477</ele>
        <time>2024-06-23T12:17:21Z</time>
      </trkpt>
      <trkpt lat="43.00159" lon="1.15887">
        <ele>477.4</ele>
        <time>2024-06-23T12:17:22Z</time>
      </trkpt>
      <trkpt lat="43.00158" lon="1.15883">
        <ele>477.8</ele>
        <time>2024-06-23T12:17:23Z</time>
      </trkpt>
      <trkpt lat="43.00157" lon="1.15879">
        <ele>477.8</ele>
        <time>2024-06-23T12:17:24Z</time>
      </trkpt>
      <trkpt lat="43.00156" lon="1.15875">
        <ele>478</ele>
        <time>2024-06-23T12:17:25Z</time>
      </trkpt>
      <trkpt lat="43.00156" lon="1.15871">
        <ele>478</ele>
        <time>2024-06-23T12:17:26Z</time>
      </trkpt>
      <trkpt lat="43.00156" lon="1.15867">
        <ele>478.4</ele>
        <time>2024-06-23T12:17:27Z</time>
      </trkpt>
      <trkpt lat="43.00155" lon="1.15863">
        <ele>478.4</ele>
        <time>2024-06-23T12:17:28Z</time>
      </trkpt>
      <trkpt lat="43.00155" lon="1.15859">
        <ele>478.6</ele>
        <time>2024-06-23T12:17:29Z</time>
      </trkpt>
      <trkpt lat="43.00154" lon="1.15855">
        <ele>478.6</ele>
        <time>2024-06-23T12:17:30Z</time>
      </trkpt>
      <trkpt lat="43.00153" lon="1.15851">
        <ele>479</ele>
        <time>2024-06-23T12:17:31Z</time>
      </trkpt>
      <trkpt lat="43.00153" lon="1.15847">
        <ele>479.4</ele>
        <time>2024-06-23T12:17:32Z</time>
      </trkpt>
      <trkpt lat="43.00152" lon="1.15843">
        <ele>479.6</ele>
        <time>2024-06-23T12:17:33Z</time>
      </trkpt>
      <trkpt lat="43.00152" lon="1.1584">
        <ele>480</ele>
        <time>2024-06-23T12:17:34Z</time>
      </trkpt>
      <trkpt lat="43.00151" lon="1.15836">
        <ele>480.2</ele>
        <time>2024-06-23T12:17:35Z</time>
      </trkpt>
      <trkpt lat="43.00151" lon="1.15833">
        <ele>480.6</ele>
        <time>2024-06-23T12:17:36Z</time>
      </trkpt>
      <trkpt lat="43.00151" lon="1.15829">
        <ele>480.8</ele>
        <time>2024-06-23T12:17:37Z</time>
      </trkpt>
      <trkpt lat="43.0015" lon="1.15826">
        <ele>480.8</ele>
        <time>2024-06-23T12:17:38Z</time>
      </trkpt>
      <trkpt lat="43.0015" lon="1.15823">
        <ele>481.2</ele>
        <time>2024-06-23T12:17:39Z</time>
      </trkpt>
      <trkpt lat="43.00149" lon="1.15819">
        <ele>481.2</ele>
        <time>2024-06-23T12:17:40Z</time>
      </trkpt>
      <trkpt lat="43.00149" lon="1.15816">
        <ele>481.6</ele>
        <time>2024-06-23T12:17:41Z</time>
      </trkpt>
      <trkpt lat="43.00148" lon="1.15812">
        <ele>481.6</ele>
        <time>2024-06-23T12:17:42Z</time>
      </trkpt>
      <trkpt lat="43.00147" lon="1.15809">
        <ele>482.2</ele>
        <time>2024-06-23T12:17:43Z</time>
      </trkpt>
      <trkpt lat="43.00147" lon="1.15805">
        <ele>482.2</ele>
        <time>2024-06-23T12:17:44Z</time>
      </trkpt>
      <trkpt lat="43.00147" lon="1.15802">
        <ele>482.4</ele>
        <time>2024-06-23T12:17:45Z</time>
      </trkpt>
      <trkpt lat="43.00146" lon="1.15799">
        <ele>482.4</ele>
        <time>2024-06-23T12:17:46Z</time>
      </trkpt>
      <trkpt lat="43.00146" lon="1.15795">
        <ele>482.8</ele>
        <time>2024-06-23T12:17:47Z</time>
      </trkpt>
      <trkpt lat="43.00145" lon="1.15792">
        <ele>483</ele>
        <time>2024-06-23T12:17:48Z</time>
      </trkpt>
      <trkpt lat="43.00144" lon="1.15789">
        <ele>483</ele>
        <time>2024-06-23T12:17:49Z</time>
      </trkpt>
      <trkpt lat="43.00144" lon="1.15785">
        <ele>483.4</ele>
        <time>2024-06-23T12:17:50Z</time>
      </trkpt>
      <trkpt lat="43.00143" lon="1.15782">
        <ele>483.6</ele>
        <time>2024-06-23T12:17:51Z</time>
      </trkpt>
      <trkpt lat="43.00143" lon="1.15778">
        <ele>484</ele>
        <time>2024-06-23T12:17:52Z</time>
      </trkpt>
      <trkpt lat="43.00143" lon="1.15774">
        <ele>484.4</ele>
        <time>2024-06-23T12:17:53Z</time>
      </trkpt>
      <trkpt lat="43.00142" lon="1.1577">
        <ele>484.6</ele>
        <time>2024-06-23T12:17:54Z</time>
      </trkpt>
      <trkpt lat="43.00141" lon="1.15767">
        <ele>484.6</ele>
        <time>2024-06-23T12:17:55Z</time>
      </trkpt>
      <trkpt lat="43.00141" lon="1.15763">
        <ele>485</ele>
        <time>2024-06-23T12:17:56Z</time>
      </trkpt>
      <trkpt lat="43.0014" lon="1.1576">
        <ele>485.2</ele>
        <time>2024-06-23T12:17:57Z</time>
      </trkpt>
      <trkpt lat="43.00139" lon="1.15756">
        <ele>485.6</ele>
        <time>2024-06-23T12:17:58Z</time>
      </trkpt>
      <trkpt lat="43.00139" lon="1.15752">
        <ele>485.6</ele>
        <time>2024-06-23T12:17:59Z</time>
      </trkpt>
      <trkpt lat="43.00138" lon="1.15749">
        <ele>485.8</ele>
        <time>2024-06-23T12:18:00Z</time>
      </trkpt>
      <trkpt lat="43.00137" lon="1.15746">
        <ele>485.8</ele>
        <time>2024-06-23T12:18:01Z</time>
      </trkpt>
      <trkpt lat="43.00136" lon="1.15742">
        <ele>486.2</ele>
        <time>2024-06-23T12:18:02Z</time>
      </trkpt>
      <trkpt lat="43.00136" lon="1.15738">
        <ele>486.2</ele>
        <time>2024-06-23T12:18:03Z</time>
      </trkpt>
      <trkpt lat="43.00136" lon="1.15735">
        <ele>486.4</ele>
        <time>2024-06-23T12:18:04Z</time>
      </trkpt>
      <trkpt lat="43.00135" lon="1.15731">
        <ele>486.4</ele>
        <time>2024-06-23T12:18:05Z</time>
      </trkpt>
      <trkpt lat="43.00135" lon="1.15728">
        <ele>486.8</ele>
        <time>2024-06-23T12:18:06Z</time>
      </trkpt>
      <trkpt lat="43.00135" lon="1.15724">
        <ele>486.8</ele>
        <time>2024-06-23T12:18:07Z</time>
      </trkpt>
      <trkpt lat="43.00134" lon="1.1572">
        <ele>486.8</ele>
        <time>2024-06-23T12:18:08Z</time>
      </trkpt>
      <trkpt lat="43.00133" lon="1.15716">
        <ele>487</ele>
        <time>2024-06-23T12:18:09Z</time>
      </trkpt>
      <trkpt lat="43.00132" lon="1.15711">
        <ele>487</ele>
        <time>2024-06-23T12:18:10Z</time>
      </trkpt>
      <trkpt lat="43.00131" lon="1.15706">
        <ele>487</ele>
        <time>2024-06-23T12:18:11Z</time>
      </trkpt>
      <trkpt lat="43.00131" lon="1.15701">
        <ele>487</ele>
        <time>2024-06-23T12:18:12Z</time>
      </trkpt>
      <trkpt lat="43.00131" lon="1.15696">
        <ele>487</ele>
        <time>2024-06-23T12:18:13Z</time>
      </trkpt>
      <trkpt lat="43.00131" lon="1.15691">
        <ele>487</ele>
        <time>2024-06-23T12:18:14Z</time>
      </trkpt>
      <trkpt lat="43.00131" lon="1.15686">
        <ele>487</ele>
        <time>2024-06-23T12:18:15Z</time>
      </trkpt>
      <trkpt lat="43.00131" lon="1.1568">
        <ele>487.2</ele>
        <time>2024-06-23T12:18:16Z</time>
      </trkpt>
      <trkpt lat="43.00131" lon="1.15674">
        <ele>487.2</ele>
        <time>2024-06-23T12:18:17Z</time>
      </trkpt>
      <trkpt lat="43.00131" lon="1.15669">
        <ele>487.2</ele>
        <time>2024-06-23T12:18:18Z</time>
      </trkpt>
      <trkpt lat="43.00131" lon="1.15669">
        <ele>487.2</ele>
        <time>2024-06-23T12:18:19Z</time>
      </trkpt>
      <trkpt lat="43.00132" lon="1.15663">
        <ele>487.2</ele>
        <time>2024-06-23T12:18:20Z</time>
      </trkpt>
      <trkpt lat="43.00133" lon="1.15656">
        <ele>487.2</ele>
        <time>2024-06-23T12:18:21Z</time>
      </trkpt>
      <trkpt lat="43.00133" lon="1.1565">
        <ele>487.2</ele>
        <time>2024-06-23T12:18:22Z</time>
      </trkpt>
      <trkpt lat="43.00134" lon="1.15643">
        <ele>487.2</ele>
        <time>2024-06-23T12:18:23Z</time>
      </trkpt>
      <trkpt lat="43.00135" lon="1.15636">
        <ele>487.2</ele>
        <time>2024-06-23T12:18:24Z</time>
      </trkpt>
      <trkpt lat="43.00135" lon="1.15628">
        <ele>487</ele>
        <time>2024-06-23T12:18:25Z</time>
      </trkpt>
      <trkpt lat="43.00136" lon="1.15621">
        <ele>487</ele>
        <time>2024-06-23T12:18:26Z</time>
      </trkpt>
      <trkpt lat="43.00137" lon="1.15614">
        <ele>487</ele>
        <time>2024-06-23T12:18:27Z</time>
      </trkpt>
      <trkpt lat="43.00138" lon="1.15606">
        <ele>486.6</ele>
        <time>2024-06-23T12:18:28Z</time>
      </trkpt>
      <trkpt lat="43.00138" lon="1.15598">
        <ele>486.6</ele>
        <time>2024-06-23T12:18:29Z</time>
      </trkpt>
      <trkpt lat="43.00137" lon="1.1559">
        <ele>486.8</ele>
        <time>2024-06-23T12:18:30Z</time>
      </trkpt>
      <trkpt lat="43.00136" lon="1.15582">
        <ele>486.8</ele>
        <time>2024-06-23T12:18:31Z</time>
      </trkpt>
      <trkpt lat="43.00135" lon="1.15574">
        <ele>486.8</ele>
        <time>2024-06-23T12:18:32Z</time>
      </trkpt>
      <trkpt lat="43.00133" lon="1.15567">
        <ele>487</ele>
        <time>2024-06-23T12:18:33Z</time>
      </trkpt>
      <trkpt lat="43.00131" lon="1.15561">
        <ele>487</ele>
        <time>2024-06-23T12:18:34Z</time>
      </trkpt>
      <trkpt lat="43.00128" lon="1.15554">
        <ele>487</ele>
        <time>2024-06-23T12:18:35Z</time>
      </trkpt>
      <trkpt lat="43.00126" lon="1.15547">
        <ele>487</ele>
        <time>2024-06-23T12:18:36Z</time>
      </trkpt>
      <trkpt lat="43.00123" lon="1.15541">
        <ele>487.2</ele>
        <time>2024-06-23T12:18:37Z</time>
      </trkpt>
      <trkpt lat="43.0012" lon="1.15535">
        <ele>487.2</ele>
        <time>2024-06-23T12:18:38Z</time>
      </trkpt>
      <trkpt lat="43.00117" lon="1.15529">
        <ele>487.4</ele>
        <time>2024-06-23T12:18:39Z</time>
      </trkpt>
      <trkpt lat="43.00114" lon="1.15525">
        <ele>487.4</ele>
        <time>2024-06-23T12:18:40Z</time>
      </trkpt>
      <trkpt lat="43.00111" lon="1.1552">
        <ele>487.4</ele>
        <time>2024-06-23T12:18:41Z</time>
      </trkpt>
      <trkpt lat="43.00108" lon="1.15515">
        <ele>488</ele>
        <time>2024-06-23T12:18:42Z</time>
      </trkpt>
      <trkpt lat="43.00105" lon="1.1551">
        <ele>488.4</ele>
        <time>2024-06-23T12:18:43Z</time>
      </trkpt>
      <trkpt lat="43.00104" lon="1.15505">
        <ele>488.6</ele>
        <time>2024-06-23T12:18:44Z</time>
      </trkpt>
      <trkpt lat="43.00101" lon="1.155">
        <ele>488.6</ele>
        <time>2024-06-23T12:18:45Z</time>
      </trkpt>
      <trkpt lat="43.00099" lon="1.15495">
        <ele>489</ele>
        <time>2024-06-23T12:18:46Z</time>
      </trkpt>
      <trkpt lat="43.00098" lon="1.15489">
        <ele>489</ele>
        <time>2024-06-23T12:18:47Z</time>
      </trkpt>
      <trkpt lat="43.00097" lon="1.15483">
        <ele>489.6</ele>
        <time>2024-06-23T12:18:48Z</time>
      </trkpt>
      <trkpt lat="43.00095" lon="1.15478">
        <ele>489.8</ele>
        <time>2024-06-23T12:18:49Z</time>
      </trkpt>
      <trkpt lat="43.00095" lon="1.15472">
        <ele>490</ele>
        <time>2024-06-23T12:18:50Z</time>
      </trkpt>
      <trkpt lat="43.00094" lon="1.15467">
        <ele>490.4</ele>
        <time>2024-06-23T12:18:51Z</time>
      </trkpt>
      <trkpt lat="43.00093" lon="1.15461">
        <ele>490.6</ele>
        <time>2024-06-23T12:18:52Z</time>
      </trkpt>
      <trkpt lat="43.00093" lon="1.15456">
        <ele>490.6</ele>
        <time>2024-06-23T12:18:53Z</time>
      </trkpt>
      <trkpt lat="43.00092" lon="1.1545">
        <ele>491</ele>
        <time>2024-06-23T12:18:54Z</time>
      </trkpt>
      <trkpt lat="43.00092" lon="1.15444">
        <ele>491</ele>
        <time>2024-06-23T12:18:55Z</time>
      </trkpt>
      <trkpt lat="43.00091" lon="1.15438">
        <ele>491.4</ele>
        <time>2024-06-23T12:18:56Z</time>
      </trkpt>
      <trkpt lat="43.00091" lon="1.15432">
        <ele>491.6</ele>
        <time>2024-06-23T12:18:57Z</time>
      </trkpt>
      <trkpt lat="43.0009" lon="1.15426">
        <ele>491.6</ele>
        <time>2024-06-23T12:18:58Z</time>
      </trkpt>
      <trkpt lat="43.0009" lon="1.15419">
        <ele>491.6</ele>
        <time>2024-06-23T12:18:59Z</time>
      </trkpt>
      <trkpt lat="43.00089" lon="1.15413">
        <ele>491.8</ele>
        <time>2024-06-23T12:19:00Z</time>
      </trkpt>
      <trkpt lat="43.00089" lon="1.15407">
        <ele>491.8</ele>
        <time>2024-06-23T12:19:01Z</time>
      </trkpt>
      <trkpt lat="43.00088" lon="1.15401">
        <ele>491.8</ele>
        <time>2024-06-23T12:19:02Z</time>
      </trkpt>
      <trkpt lat="43.00087" lon="1.15395">
        <ele>492</ele>
        <time>2024-06-23T12:19:03Z</time>
      </trkpt>
      <trkpt lat="43.00086" lon="1.15389">
        <ele>492</ele>
        <time>2024-06-23T12:19:04Z</time>
      </trkpt>
      <trkpt lat="43.00086" lon="1.15383">
        <ele>492</ele>
        <time>2024-06-23T12:19:05Z</time>
      </trkpt>
      <trkpt lat="43.00085" lon="1.15378">
        <ele>492.2</ele>
        <time>2024-06-23T12:19:06Z</time>
      </trkpt>
      <trkpt lat="43.00085" lon="1.15371">
        <ele>492.2</ele>
        <time>2024-06-23T12:19:07Z</time>
      </trkpt>
      <trkpt lat="43.00084" lon="1.15365">
        <ele>492.6</ele>
        <time>2024-06-23T12:19:08Z</time>
      </trkpt>
      <trkpt lat="43.00084" lon="1.15359">
        <ele>492.6</ele>
        <time>2024-06-23T12:19:09Z</time>
      </trkpt>
      <trkpt lat="43.00084" lon="1.15352">
        <ele>492.6</ele>
        <time>2024-06-23T12:19:10Z</time>
      </trkpt>
      <trkpt lat="43.00084" lon="1.15346">
        <ele>492.6</ele>
        <time>2024-06-23T12:19:11Z</time>
      </trkpt>
      <trkpt lat="43.00084" lon="1.15339">
        <ele>492.8</ele>
        <time>2024-06-23T12:19:12Z</time>
      </trkpt>
      <trkpt lat="43.00084" lon="1.15333">
        <ele>493</ele>
        <time>2024-06-23T12:19:13Z</time>
      </trkpt>
      <trkpt lat="43.00084" lon="1.15326">
        <ele>493</ele>
        <time>2024-06-23T12:19:14Z</time>
      </trkpt>
      <trkpt lat="43.00084" lon="1.1532">
        <ele>493</ele>
        <time>2024-06-23T12:19:15Z</time>
      </trkpt>
      <trkpt lat="43.00084" lon="1.15313">
        <ele>493</ele>
        <time>2024-06-23T12:19:16Z</time>
      </trkpt>
      <trkpt lat="43.00084" lon="1.15307">
        <ele>493.4</ele>
        <time>2024-06-23T12:19:17Z</time>
      </trkpt>
      <trkpt lat="43.00085" lon="1.153">
        <ele>493.4</ele>
        <time>2024-06-23T12:19:18Z</time>
      </trkpt>
      <trkpt lat="43.00085" lon="1.15295">
        <ele>493.6</ele>
        <time>2024-06-23T12:19:19Z</time>
      </trkpt>
      <trkpt lat="43.00085" lon="1.15288">
        <ele>493.6</ele>
        <time>2024-06-23T12:19:20Z</time>
      </trkpt>
      <trkpt lat="43.00086" lon="1.15282">
        <ele>493.6</ele>
        <time>2024-06-23T12:19:21Z</time>
      </trkpt>
      <trkpt lat="43.00086" lon="1.15275">
        <ele>493.6</ele>
        <time>2024-06-23T12:19:22Z</time>
      </trkpt>
      <trkpt lat="43.00085" lon="1.15269">
        <ele>493.6</ele>
        <time>2024-06-23T12:19:23Z</time>
      </trkpt>
      <trkpt lat="43.00086" lon="1.15262">
        <ele>493.6</ele>
        <time>2024-06-23T12:19:24Z</time>
      </trkpt>
      <trkpt lat="43.00087" lon="1.15256">
        <ele>493.6</ele>
        <time>2024-06-23T12:19:25Z</time>
      </trkpt>
      <trkpt lat="43.00087" lon="1.15249">
        <ele>493.6</ele>
        <time>2024-06-23T12:19:26Z</time>
      </trkpt>
      <trkpt lat="43.00087" lon="1.15242">
        <ele>493.6</ele>
        <time>2024-06-23T12:19:27Z</time>
      </trkpt>
      <trkpt lat="43.00088" lon="1.15235">
        <ele>493.6</ele>
        <time>2024-06-23T12:19:28Z</time>
      </trkpt>
      <trkpt lat="43.00088" lon="1.15228">
        <ele>493.6</ele>
        <time>2024-06-23T12:19:29Z</time>
      </trkpt>
      <trkpt lat="43.00088" lon="1.15221">
        <ele>493.6</ele>
        <time>2024-06-23T12:19:30Z</time>
      </trkpt>
      <trkpt lat="43.00089" lon="1.15215">
        <ele>493.6</ele>
        <time>2024-06-23T12:19:31Z</time>
      </trkpt>
      <trkpt lat="43.00089" lon="1.15208">
        <ele>494</ele>
        <time>2024-06-23T12:19:32Z</time>
      </trkpt>
      <trkpt lat="43.00089" lon="1.15201">
        <ele>494</ele>
        <time>2024-06-23T12:19:33Z</time>
      </trkpt>
      <trkpt lat="43.0009" lon="1.15195">
        <ele>494</ele>
        <time>2024-06-23T12:19:34Z</time>
      </trkpt>
      <trkpt lat="43.0009" lon="1.1519">
        <ele>494</ele>
        <time>2024-06-23T12:19:35Z</time>
      </trkpt>
      <trkpt lat="43.00091" lon="1.15182">
        <ele>494</ele>
        <time>2024-06-23T12:19:36Z</time>
      </trkpt>
      <trkpt lat="43.0009" lon="1.15176">
        <ele>494.2</ele>
        <time>2024-06-23T12:19:37Z</time>
      </trkpt>
      <trkpt lat="43.00091" lon="1.15169">
        <ele>494.2</ele>
        <time>2024-06-23T12:19:38Z</time>
      </trkpt>
      <trkpt lat="43.00092" lon="1.15162">
        <ele>494.2</ele>
        <time>2024-06-23T12:19:39Z</time>
      </trkpt>
      <trkpt lat="43.00092" lon="1.15155">
        <ele>494.2</ele>
        <time>2024-06-23T12:19:40Z</time>
      </trkpt>
      <trkpt lat="43.00093" lon="1.15149">
        <ele>494.2</ele>
        <time>2024-06-23T12:19:41Z</time>
      </trkpt>
      <trkpt lat="43.00093" lon="1.15142">
        <ele>494.2</ele>
        <time>2024-06-23T12:19:42Z</time>
      </trkpt>
      <trkpt lat="43.00093" lon="1.15134">
        <ele>494.2</ele>
        <time>2024-06-23T12:19:43Z</time>
      </trkpt>
      <trkpt lat="43.00093" lon="1.15128">
        <ele>494.2</ele>
        <time>2024-06-23T12:19:44Z</time>
      </trkpt>
      <trkpt lat="43.00094" lon="1.1512">
        <ele>494.2</ele>
        <time>2024-06-23T12:19:45Z</time>
      </trkpt>
      <trkpt lat="43.00094" lon="1.15113">
        <ele>494.2</ele>
        <time>2024-06-23T12:19:46Z</time>
      </trkpt>
      <trkpt lat="43.00095" lon="1.15107">
        <ele>494.2</ele>
        <time>2024-06-23T12:19:47Z</time>
      </trkpt>
      <trkpt lat="43.00095" lon="1.15099">
        <ele>494.2</ele>
        <time>2024-06-23T12:19:48Z</time>
      </trkpt>
      <trkpt lat="43.00096" lon="1.15091">
        <ele>494</ele>
        <time>2024-06-23T12:19:49Z</time>
      </trkpt>
      <trkpt lat="43.00097" lon="1.15083">
        <ele>494</ele>
        <time>2024-06-23T12:19:50Z</time>
      </trkpt>
      <trkpt lat="43.00098" lon="1.15075">
        <ele>494</ele>
        <time>2024-06-23T12:19:51Z</time>
      </trkpt>
      <trkpt lat="43.00099" lon="1.15067">
        <ele>493.8</ele>
        <time>2024-06-23T12:19:52Z</time>
      </trkpt>
      <trkpt lat="43.00099" lon="1.15058">
        <ele>493.6</ele>
        <time>2024-06-23T12:19:53Z</time>
      </trkpt>
      <trkpt lat="43.001" lon="1.15049">
        <ele>493.4</ele>
        <time>2024-06-23T12:19:54Z</time>
      </trkpt>
      <trkpt lat="43.00101" lon="1.1504">
        <ele>493</ele>
        <time>2024-06-23T12:19:55Z</time>
      </trkpt>
      <trkpt lat="43.00102" lon="1.15031">
        <ele>493</ele>
        <time>2024-06-23T12:19:56Z</time>
      </trkpt>
      <trkpt lat="43.00103" lon="1.15022">
        <ele>492.8</ele>
        <time>2024-06-23T12:19:57Z</time>
      </trkpt>
      <trkpt lat="43.00106" lon="1.15003">
        <ele>492.4</ele>
        <time>2024-06-23T12:19:58Z</time>
      </trkpt>
      <trkpt lat="43.00106" lon="1.14992">
        <ele>492</ele>
        <time>2024-06-23T12:19:59Z</time>
      </trkpt>
      <trkpt lat="43.00107" lon="1.14981">
        <ele>492</ele>
        <time>2024-06-23T12:20:00Z</time>
      </trkpt>
      <trkpt lat="43.00108" lon="1.14971">
        <ele>491.6</ele>
        <time>2024-06-23T12:20:01Z</time>
      </trkpt>
      <trkpt lat="43.00108" lon="1.14961">
        <ele>491.2</ele>
        <time>2024-06-23T12:20:02Z</time>
      </trkpt>
      <trkpt lat="43.00111" lon="1.14951">
        <ele>491.2</ele>
        <time>2024-06-23T12:20:03Z</time>
      </trkpt>
      <trkpt lat="43.00111" lon="1.1494">
        <ele>490.6</ele>
        <time>2024-06-23T12:20:04Z</time>
      </trkpt>
      <trkpt lat="43.00111" lon="1.14929">
        <ele>490.2</ele>
        <time>2024-06-23T12:20:05Z</time>
      </trkpt>
      <trkpt lat="43.00112" lon="1.14917">
        <ele>489.8</ele>
        <time>2024-06-23T12:20:06Z</time>
      </trkpt>
      <trkpt lat="43.00112" lon="1.14904">
        <ele>489.2</ele>
        <time>2024-06-23T12:20:07Z</time>
      </trkpt>
      <trkpt lat="43.00112" lon="1.14891">
        <ele>488.4</ele>
        <time>2024-06-23T12:20:08Z</time>
      </trkpt>
      <trkpt lat="43.00112" lon="1.14878">
        <ele>487.8</ele>
        <time>2024-06-23T12:20:09Z</time>
      </trkpt>
      <trkpt lat="43.00112" lon="1.14865">
        <ele>487</ele>
        <time>2024-06-23T12:20:10Z</time>
      </trkpt>
      <trkpt lat="43.00113" lon="1.14852">
        <ele>486.8</ele>
        <time>2024-06-23T12:20:11Z</time>
      </trkpt>
      <trkpt lat="43.00114" lon="1.14839">
        <ele>486.2</ele>
        <time>2024-06-23T12:20:12Z</time>
      </trkpt>
      <trkpt lat="43.00115" lon="1.14825">
        <ele>485.6</ele>
        <time>2024-06-23T12:20:13Z</time>
      </trkpt>
      <trkpt lat="43.00116" lon="1.14812">
        <ele>485</ele>
        <time>2024-06-23T12:20:14Z</time>
      </trkpt>
      <trkpt lat="43.00116" lon="1.14799">
        <ele>484.2</ele>
        <time>2024-06-23T12:20:15Z</time>
      </trkpt>
      <trkpt lat="43.00116" lon="1.14785">
        <ele>483.6</ele>
        <time>2024-06-23T12:20:16Z</time>
      </trkpt>
      <trkpt lat="43.00116" lon="1.14772">
        <ele>482.8</ele>
        <time>2024-06-23T12:20:17Z</time>
      </trkpt>
      <trkpt lat="43.00116" lon="1.14759">
        <ele>482.6</ele>
        <time>2024-06-23T12:20:18Z</time>
      </trkpt>
      <trkpt lat="43.00116" lon="1.14746">
        <ele>481.8</ele>
        <time>2024-06-23T12:20:19Z</time>
      </trkpt>
      <trkpt lat="43.00114" lon="1.14735">
        <ele>481</ele>
        <time>2024-06-23T12:20:20Z</time>
      </trkpt>
      <trkpt lat="43.00115" lon="1.14722">
        <ele>480.8</ele>
        <time>2024-06-23T12:20:21Z</time>
      </trkpt>
      <trkpt lat="43.00115" lon="1.14711">
        <ele>480.4</ele>
        <time>2024-06-23T12:20:22Z</time>
      </trkpt>
      <trkpt lat="43.00115" lon="1.14699">
        <ele>480.6</ele>
        <time>2024-06-23T12:20:23Z</time>
      </trkpt>
      <trkpt lat="43.00114" lon="1.14689">
        <ele>480.6</ele>
        <time>2024-06-23T12:20:24Z</time>
      </trkpt>
      <trkpt lat="43.00115" lon="1.14678">
        <ele>480.8</ele>
        <time>2024-06-23T12:20:25Z</time>
      </trkpt>
      <trkpt lat="43.00115" lon="1.14668">
        <ele>480.8</ele>
        <time>2024-06-23T12:20:26Z</time>
      </trkpt>
      <trkpt lat="43.00116" lon="1.14659">
        <ele>480.8</ele>
        <time>2024-06-23T12:20:27Z</time>
      </trkpt>
      <trkpt lat="43.00116" lon="1.1465">
        <ele>480.8</ele>
        <time>2024-06-23T12:20:28Z</time>
      </trkpt>
      <trkpt lat="43.00118" lon="1.14641">
        <ele>480.8</ele>
        <time>2024-06-23T12:20:29Z</time>
      </trkpt>
      <trkpt lat="43.0012" lon="1.14632">
        <ele>480.8</ele>
        <time>2024-06-23T12:20:30Z</time>
      </trkpt>
      <trkpt lat="43.00123" lon="1.14623">
        <ele>480.8</ele>
        <time>2024-06-23T12:20:31Z</time>
      </trkpt>
      <trkpt lat="43.00125" lon="1.14614">
        <ele>480.8</ele>
        <time>2024-06-23T12:20:32Z</time>
      </trkpt>
      <trkpt lat="43.00127" lon="1.14605">
        <ele>480.6</ele>
        <time>2024-06-23T12:20:33Z</time>
      </trkpt>
      <trkpt lat="43.00129" lon="1.14596">
        <ele>480.6</ele>
        <time>2024-06-23T12:20:34Z</time>
      </trkpt>
      <trkpt lat="43.00131" lon="1.14586">
        <ele>480.6</ele>
        <time>2024-06-23T12:20:35Z</time>
      </trkpt>
      <trkpt lat="43.00133" lon="1.14577">
        <ele>480.2</ele>
        <time>2024-06-23T12:20:36Z</time>
      </trkpt>
      <trkpt lat="43.00135" lon="1.14568">
        <ele>480.2</ele>
        <time>2024-06-23T12:20:37Z</time>
      </trkpt>
      <trkpt lat="43.00135" lon="1.14557">
        <ele>479.4</ele>
        <time>2024-06-23T12:20:38Z</time>
      </trkpt>
      <trkpt lat="43.00135" lon="1.14546">
        <ele>479</ele>
        <time>2024-06-23T12:20:39Z</time>
      </trkpt>
      <trkpt lat="43.00135" lon="1.14534">
        <ele>478.6</ele>
        <time>2024-06-23T12:20:40Z</time>
      </trkpt>
      <trkpt lat="43.00134" lon="1.14521">
        <ele>477.8</ele>
        <time>2024-06-23T12:20:41Z</time>
      </trkpt>
      <trkpt lat="43.00132" lon="1.14507">
        <ele>477.2</ele>
        <time>2024-06-23T12:20:42Z</time>
      </trkpt>
      <trkpt lat="43.00132" lon="1.14492">
        <ele>476.4</ele>
        <time>2024-06-23T12:20:43Z</time>
      </trkpt>
      <trkpt lat="43.00132" lon="1.14477">
        <ele>475.2</ele>
        <time>2024-06-23T12:20:44Z</time>
      </trkpt>
      <trkpt lat="43.00133" lon="1.1446">
        <ele>474</ele>
        <time>2024-06-23T12:20:45Z</time>
      </trkpt>
      <trkpt lat="43.00135" lon="1.14444">
        <ele>473.2</ele>
        <time>2024-06-23T12:20:46Z</time>
      </trkpt>
      <trkpt lat="43.00136" lon="1.14427">
        <ele>472</ele>
        <time>2024-06-23T12:20:47Z</time>
      </trkpt>
      <trkpt lat="43.00137" lon="1.14409">
        <ele>470.2</ele>
        <time>2024-06-23T12:20:48Z</time>
      </trkpt>
      <trkpt lat="43.00138" lon="1.14392">
        <ele>469</ele>
        <time>2024-06-23T12:20:49Z</time>
      </trkpt>
      <trkpt lat="43.0014" lon="1.14375">
        <ele>468</ele>
        <time>2024-06-23T12:20:50Z</time>
      </trkpt>
      <trkpt lat="43.00141" lon="1.14357">
        <ele>466.8</ele>
        <time>2024-06-23T12:20:51Z</time>
      </trkpt>
      <trkpt lat="43.00143" lon="1.1434">
        <ele>465.8</ele>
        <time>2024-06-23T12:20:52Z</time>
      </trkpt>
      <trkpt lat="43.00146" lon="1.14323">
        <ele>464.6</ele>
        <time>2024-06-23T12:20:53Z</time>
      </trkpt>
      <trkpt lat="43.00149" lon="1.14306">
        <ele>463.6</ele>
        <time>2024-06-23T12:20:54Z</time>
      </trkpt>
      <trkpt lat="43.00152" lon="1.14288">
        <ele>462.4</ele>
        <time>2024-06-23T12:20:55Z</time>
      </trkpt>
      <trkpt lat="43.00156" lon="1.1427">
        <ele>460.8</ele>
        <time>2024-06-23T12:20:56Z</time>
      </trkpt>
      <trkpt lat="43.00159" lon="1.14253">
        <ele>459.4</ele>
        <time>2024-06-23T12:20:57Z</time>
      </trkpt>
      <trkpt lat="43.00164" lon="1.14236">
        <ele>458</ele>
        <time>2024-06-23T12:20:58Z</time>
      </trkpt>
      <trkpt lat="43.0017" lon="1.14221">
        <ele>456.6</ele>
        <time>2024-06-23T12:20:59Z</time>
      </trkpt>
      <trkpt lat="43.00174" lon="1.14207">
        <ele>455.4</ele>
        <time>2024-06-23T12:21:00Z</time>
      </trkpt>
      <trkpt lat="43.00177" lon="1.14192">
        <ele>454.2</ele>
        <time>2024-06-23T12:21:01Z</time>
      </trkpt>
      <trkpt lat="43.00177" lon="1.14178">
        <ele>453.4</ele>
        <time>2024-06-23T12:21:02Z</time>
      </trkpt>
      <trkpt lat="43.00175" lon="1.14165">
        <ele>452.8</ele>
        <time>2024-06-23T12:21:03Z</time>
      </trkpt>
      <trkpt lat="43.00174" lon="1.14151">
        <ele>452.4</ele>
        <time>2024-06-23T12:21:04Z</time>
      </trkpt>
      <trkpt lat="43.00175" lon="1.14137">
        <ele>451</ele>
        <time>2024-06-23T12:21:05Z</time>
      </trkpt>
      <trkpt lat="43.00175" lon="1.14124">
        <ele>450.6</ele>
        <time>2024-06-23T12:21:06Z</time>
      </trkpt>
      <trkpt lat="43.00176" lon="1.14111">
        <ele>450.4</ele>
        <time>2024-06-23T12:21:07Z</time>
      </trkpt>
      <trkpt lat="43.00177" lon="1.14098">
        <ele>449.8</ele>
        <time>2024-06-23T12:21:08Z</time>
      </trkpt>
      <trkpt lat="43.0018" lon="1.14086">
        <ele>449</ele>
        <time>2024-06-23T12:21:09Z</time>
      </trkpt>
      <trkpt lat="43.00184" lon="1.14075">
        <ele>448.4</ele>
        <time>2024-06-23T12:21:10Z</time>
      </trkpt>
      <trkpt lat="43.0019" lon="1.14064">
        <ele>447.6</ele>
        <time>2024-06-23T12:21:11Z</time>
      </trkpt>
      <trkpt lat="43.00195" lon="1.14053">
        <ele>447.2</ele>
        <time>2024-06-23T12:21:12Z</time>
      </trkpt>
      <trkpt lat="43.00201" lon="1.14042">
        <ele>446</ele>
        <time>2024-06-23T12:21:13Z</time>
      </trkpt>
      <trkpt lat="43.00206" lon="1.14032">
        <ele>446.2</ele>
        <time>2024-06-23T12:21:14Z</time>
      </trkpt>
      <trkpt lat="43.00209" lon="1.14021">
        <ele>446</ele>
        <time>2024-06-23T12:21:15Z</time>
      </trkpt>
      <trkpt lat="43.00212" lon="1.1401">
        <ele>446</ele>
        <time>2024-06-23T12:21:16Z</time>
      </trkpt>
      <trkpt lat="43.00215" lon="1.13999">
        <ele>445.6</ele>
        <time>2024-06-23T12:21:17Z</time>
      </trkpt>
      <trkpt lat="43.00218" lon="1.13989">
        <ele>445.4</ele>
        <time>2024-06-23T12:21:18Z</time>
      </trkpt>
      <trkpt lat="43.00221" lon="1.13978">
        <ele>445.4</ele>
        <time>2024-06-23T12:21:19Z</time>
      </trkpt>
      <trkpt lat="43.00223" lon="1.13968">
        <ele>445.4</ele>
        <time>2024-06-23T12:21:20Z</time>
      </trkpt>
      <trkpt lat="43.00223" lon="1.13958">
        <ele>445.6</ele>
        <time>2024-06-23T12:21:21Z</time>
      </trkpt>
      <trkpt lat="43.00222" lon="1.13948">
        <ele>445.6</ele>
        <time>2024-06-23T12:21:22Z</time>
      </trkpt>
      <trkpt lat="43.00221" lon="1.13939">
        <ele>445</ele>
        <time>2024-06-23T12:21:23Z</time>
      </trkpt>
      <trkpt lat="43.00219" lon="1.1393">
        <ele>445</ele>
        <time>2024-06-23T12:21:24Z</time>
      </trkpt>
      <trkpt lat="43.00217" lon="1.13923">
        <ele>445</ele>
        <time>2024-06-23T12:21:25Z</time>
      </trkpt>
      <trkpt lat="43.00215" lon="1.13916">
        <ele>445</ele>
        <time>2024-06-23T12:21:26Z</time>
      </trkpt>
      <trkpt lat="43.00213" lon="1.1391">
        <ele>445.4</ele>
        <time>2024-06-23T12:21:27Z</time>
      </trkpt>
      <trkpt lat="43.00211" lon="1.13904">
        <ele>445.8</ele>
        <time>2024-06-23T12:21:28Z</time>
      </trkpt>
      <trkpt lat="43.00209" lon="1.13899">
        <ele>446</ele>
        <time>2024-06-23T12:21:29Z</time>
      </trkpt>
      <trkpt lat="43.00207" lon="1.13894">
        <ele>446.4</ele>
        <time>2024-06-23T12:21:30Z</time>
      </trkpt>
      <trkpt lat="43.00204" lon="1.13889">
        <ele>446.6</ele>
        <time>2024-06-23T12:21:31Z</time>
      </trkpt>
      <trkpt lat="43.00202" lon="1.13885">
        <ele>446.8</ele>
        <time>2024-06-23T12:21:32Z</time>
      </trkpt>
      <trkpt lat="43.00201" lon="1.1388">
        <ele>447</ele>
        <time>2024-06-23T12:21:33Z</time>
      </trkpt>
      <trkpt lat="43.00199" lon="1.13875">
        <ele>447</ele>
        <time>2024-06-23T12:21:34Z</time>
      </trkpt>
      <trkpt lat="43.00198" lon="1.1387">
        <ele>447.4</ele>
        <time>2024-06-23T12:21:35Z</time>
      </trkpt>
      <trkpt lat="43.00197" lon="1.13863">
        <ele>447.8</ele>
        <time>2024-06-23T12:21:36Z</time>
      </trkpt>
      <trkpt lat="43.00196" lon="1.13858">
        <ele>448.2</ele>
        <time>2024-06-23T12:21:37Z</time>
      </trkpt>
      <trkpt lat="43.00195" lon="1.13853">
        <ele>448.8</ele>
        <time>2024-06-23T12:21:38Z</time>
      </trkpt>
      <trkpt lat="43.00194" lon="1.13848">
        <ele>449.2</ele>
        <time>2024-06-23T12:21:39Z</time>
      </trkpt>
      <trkpt lat="43.00193" lon="1.13843">
        <ele>449.2</ele>
        <time>2024-06-23T12:21:40Z</time>
      </trkpt>
      <trkpt lat="43.00193" lon="1.13838">
        <ele>450</ele>
        <time>2024-06-23T12:21:41Z</time>
      </trkpt>
      <trkpt lat="43.00192" lon="1.13834">
        <ele>450</ele>
        <time>2024-06-23T12:21:42Z</time>
      </trkpt>
      <trkpt lat="43.00193" lon="1.13829">
        <ele>450.2</ele>
        <time>2024-06-23T12:21:43Z</time>
      </trkpt>
      <trkpt lat="43.00192" lon="1.13825">
        <ele>450.2</ele>
        <time>2024-06-23T12:21:44Z</time>
      </trkpt>
      <trkpt lat="43.00192" lon="1.13821">
        <ele>450.6</ele>
        <time>2024-06-23T12:21:45Z</time>
      </trkpt>
      <trkpt lat="43.00191" lon="1.13816">
        <ele>450.6</ele>
        <time>2024-06-23T12:21:46Z</time>
      </trkpt>
      <trkpt lat="43.0019" lon="1.13811">
        <ele>451</ele>
        <time>2024-06-23T12:21:47Z</time>
      </trkpt>
      <trkpt lat="43.0019" lon="1.13806">
        <ele>451.2</ele>
        <time>2024-06-23T12:21:48Z</time>
      </trkpt>
      <trkpt lat="43.00189" lon="1.13803">
        <ele>451.4</ele>
        <time>2024-06-23T12:21:49Z</time>
      </trkpt>
      <trkpt lat="43.00189" lon="1.13799">
        <ele>451.8</ele>
        <time>2024-06-23T12:21:50Z</time>
      </trkpt>
      <trkpt lat="43.00188" lon="1.13796">
        <ele>451.8</ele>
        <time>2024-06-23T12:21:51Z</time>
      </trkpt>
      <trkpt lat="43.00186" lon="1.13793">
        <ele>451.8</ele>
        <time>2024-06-23T12:21:52Z</time>
      </trkpt>
      <trkpt lat="43.00183" lon="1.13789">
        <ele>451.8</ele>
        <time>2024-06-23T12:21:53Z</time>
      </trkpt>
      <trkpt lat="43.00177" lon="1.13787">
        <ele>451.8</ele>
        <time>2024-06-23T12:21:54Z</time>
      </trkpt>
      <trkpt lat="43.00174" lon="1.13784">
        <ele>451.4</ele>
        <time>2024-06-23T12:21:55Z</time>
      </trkpt>
      <trkpt lat="43.00172" lon="1.1378">
        <ele>451.4</ele>
        <time>2024-06-23T12:21:56Z</time>
      </trkpt>
      <trkpt lat="43.00172" lon="1.13774">
        <ele>451</ele>
        <time>2024-06-23T12:21:57Z</time>
      </trkpt>
      <trkpt lat="43.00172" lon="1.13769">
        <ele>450.8</ele>
        <time>2024-06-23T12:21:58Z</time>
      </trkpt>
      <trkpt lat="43.00174" lon="1.13764">
        <ele>450.6</ele>
        <time>2024-06-23T12:21:59Z</time>
      </trkpt>
      <trkpt lat="43.00175" lon="1.13759">
        <ele>450.2</ele>
        <time>2024-06-23T12:22:00Z</time>
      </trkpt>
      <trkpt lat="43.00176" lon="1.13754">
        <ele>450.2</ele>
        <time>2024-06-23T12:22:01Z</time>
      </trkpt>
      <trkpt lat="43.00176" lon="1.1375">
        <ele>450.6</ele>
        <time>2024-06-23T12:22:02Z</time>
      </trkpt>
      <trkpt lat="43.00176" lon="1.13746">
        <ele>450.6</ele>
        <time>2024-06-23T12:22:03Z</time>
      </trkpt>
      <trkpt lat="43.00175" lon="1.13742">
        <ele>450.8</ele>
        <time>2024-06-23T12:22:04Z</time>
      </trkpt>
      <trkpt lat="43.00175" lon="1.13738">
        <ele>450.8</ele>
        <time>2024-06-23T12:22:05Z</time>
      </trkpt>
      <trkpt lat="43.00173" lon="1.13734">
        <ele>450.8</ele>
        <time>2024-06-23T12:22:06Z</time>
      </trkpt>
      <trkpt lat="43.0017" lon="1.13729">
        <ele>450.8</ele>
        <time>2024-06-23T12:22:07Z</time>
      </trkpt>
      <trkpt lat="43.00168" lon="1.13726">
        <ele>450.8</ele>
        <time>2024-06-23T12:22:08Z</time>
      </trkpt>
      <trkpt lat="43.00165" lon="1.13722">
        <ele>450.8</ele>
        <time>2024-06-23T12:22:09Z</time>
      </trkpt>
      <trkpt lat="43.00163" lon="1.13719">
        <ele>450.8</ele>
        <time>2024-06-23T12:22:10Z</time>
      </trkpt>
      <trkpt lat="43.00161" lon="1.13716">
        <ele>450.8</ele>
        <time>2024-06-23T12:22:11Z</time>
      </trkpt>
      <trkpt lat="43.00159" lon="1.13712">
        <ele>450.8</ele>
        <time>2024-06-23T12:22:12Z</time>
      </trkpt>
      <trkpt lat="43.00157" lon="1.13708">
        <ele>450.6</ele>
        <time>2024-06-23T12:22:13Z</time>
      </trkpt>
      <trkpt lat="43.00155" lon="1.13704">
        <ele>450.2</ele>
        <time>2024-06-23T12:22:14Z</time>
      </trkpt>
      <trkpt lat="43.00153" lon="1.137">
        <ele>449.6</ele>
        <time>2024-06-23T12:22:15Z</time>
      </trkpt>
      <trkpt lat="43.00152" lon="1.13694">
        <ele>449.2</ele>
        <time>2024-06-23T12:22:16Z</time>
      </trkpt>
      <trkpt lat="43.00152" lon="1.13688">
        <ele>448.4</ele>
        <time>2024-06-23T12:22:17Z</time>
      </trkpt>
      <trkpt lat="43.00152" lon="1.13683">
        <ele>448.4</ele>
        <time>2024-06-23T12:22:18Z</time>
      </trkpt>
      <trkpt lat="43.00153" lon="1.13674">
        <ele>447.8</ele>
        <time>2024-06-23T12:22:19Z</time>
      </trkpt>
      <trkpt lat="43.00153" lon="1.13667">
        <ele>447.2</ele>
        <time>2024-06-23T12:22:20Z</time>
      </trkpt>
      <trkpt lat="43.00152" lon="1.1366">
        <ele>446.8</ele>
        <time>2024-06-23T12:22:21Z</time>
      </trkpt>
      <trkpt lat="43.00153" lon="1.13655">
        <ele>446.2</ele>
        <time>2024-06-23T12:22:22Z</time>
      </trkpt>
      <trkpt lat="43.00154" lon="1.1365">
        <ele>445.8</ele>
        <time>2024-06-23T12:22:23Z</time>
      </trkpt>
      <trkpt lat="43.00153" lon="1.13643">
        <ele>445.8</ele>
        <time>2024-06-23T12:22:24Z</time>
      </trkpt>
      <trkpt lat="43.00154" lon="1.13638">
        <ele>445.4</ele>
        <time>2024-06-23T12:22:25Z</time>
      </trkpt>
      <trkpt lat="43.00155" lon="1.13633">
        <ele>444.8</ele>
        <time>2024-06-23T12:22:26Z</time>
      </trkpt>
      <trkpt lat="43.00155" lon="1.13628">
        <ele>444.6</ele>
        <time>2024-06-23T12:22:27Z</time>
      </trkpt>
      <trkpt lat="43.00155" lon="1.13623">
        <ele>444.2</ele>
        <time>2024-06-23T12:22:28Z</time>
      </trkpt>
      <trkpt lat="43.00158" lon="1.13619">
        <ele>444</ele>
        <time>2024-06-23T12:22:29Z</time>
      </trkpt>
      <trkpt lat="43.0016" lon="1.13617">
        <ele>443.4</ele>
        <time>2024-06-23T12:22:30Z</time>
      </trkpt>
      <trkpt lat="43.00161" lon="1.13614">
        <ele>443.2</ele>
        <time>2024-06-23T12:22:31Z</time>
      </trkpt>
      <trkpt lat="43.00161" lon="1.13614">
        <ele>443</ele>
        <time>2024-06-23T12:22:32Z</time>
      </trkpt>
      <trkpt lat="43.00161" lon="1.13612">
        <ele>442.6</ele>
        <time>2024-06-23T12:22:33Z</time>
      </trkpt>
      <trkpt lat="43.00161" lon="1.1361">
        <ele>442.4</ele>
        <time>2024-06-23T12:22:34Z</time>
      </trkpt>
      <trkpt lat="43.00161" lon="1.13609">
        <ele>442</ele>
        <time>2024-06-23T12:22:35Z</time>
      </trkpt>
      <trkpt lat="43.00161" lon="1.13607">
        <ele>441.6</ele>
        <time>2024-06-23T12:22:36Z</time>
      </trkpt>
      <trkpt lat="43.0016" lon="1.13605">
        <ele>441.4</ele>
        <time>2024-06-23T12:22:37Z</time>
      </trkpt>
      <trkpt lat="43.00158" lon="1.13604">
        <ele>441</ele>
        <time>2024-06-23T12:22:38Z</time>
      </trkpt>
      <trkpt lat="43.00157" lon="1.13604">
        <ele>440.8</ele>
        <time>2024-06-23T12:22:39Z</time>
      </trkpt>
      <trkpt lat="43.00157" lon="1.13604">
        <ele>440.4</ele>
        <time>2024-06-23T12:22:40Z</time>
      </trkpt>
      <trkpt lat="43.00157" lon="1.13604">
        <ele>440.4</ele>
        <time>2024-06-23T12:22:41Z</time>
      </trkpt>
      <trkpt lat="43.00156" lon="1.13604">
        <ele>440</ele>
        <time>2024-06-23T12:22:42Z</time>
      </trkpt>
      <trkpt lat="43.00154" lon="1.13603">
        <ele>439.6</ele>
        <time>2024-06-23T12:22:43Z</time>
      </trkpt>
      <trkpt lat="43.00152" lon="1.13601">
        <ele>439.4</ele>
        <time>2024-06-23T12:22:44Z</time>
      </trkpt>
      <trkpt lat="43.00149" lon="1.136">
        <ele>439.2</ele>
        <time>2024-06-23T12:22:45Z</time>
      </trkpt>
      <trkpt lat="43.00146" lon="1.13598">
        <ele>438.8</ele>
        <time>2024-06-23T12:22:46Z</time>
      </trkpt>
      <trkpt lat="43.00144" lon="1.13596">
        <ele>438.4</ele>
        <time>2024-06-23T12:22:47Z</time>
      </trkpt>
      <trkpt lat="43.00141" lon="1.13595">
        <ele>438</ele>
        <time>2024-06-23T12:22:48Z</time>
      </trkpt>
      <trkpt lat="43.00138" lon="1.13594">
        <ele>437.6</ele>
        <time>2024-06-23T12:22:49Z</time>
      </trkpt>
      <trkpt lat="43.00134" lon="1.13594">
        <ele>437</ele>
        <time>2024-06-23T12:22:50Z</time>
      </trkpt>
      <trkpt lat="43.00129" lon="1.13594">
        <ele>436.4</ele>
        <time>2024-06-23T12:22:51Z</time>
      </trkpt>
      <trkpt lat="43.00125" lon="1.13592">
        <ele>435.6</ele>
        <time>2024-06-23T12:22:52Z</time>
      </trkpt>
      <trkpt lat="43.00121" lon="1.13591">
        <ele>435</ele>
        <time>2024-06-23T12:22:53Z</time>
      </trkpt>
      <trkpt lat="43.00116" lon="1.13589">
        <ele>434.2</ele>
        <time>2024-06-23T12:22:54Z</time>
      </trkpt>
      <trkpt lat="43.00113" lon="1.13591">
        <ele>434.2</ele>
        <time>2024-06-23T12:22:55Z</time>
      </trkpt>
      <trkpt lat="43.0011" lon="1.1359">
        <ele>433.8</ele>
        <time>2024-06-23T12:22:56Z</time>
      </trkpt>
      <trkpt lat="43.00106" lon="1.13589">
        <ele>433</ele>
        <time>2024-06-23T12:22:57Z</time>
      </trkpt>
      <trkpt lat="43.00101" lon="1.13588">
        <ele>432.2</ele>
        <time>2024-06-23T12:22:58Z</time>
      </trkpt>
      <trkpt lat="43.00093" lon="1.13586">
        <ele>431.4</ele>
        <time>2024-06-23T12:22:59Z</time>
      </trkpt>
      <trkpt lat="43.00088" lon="1.13585">
        <ele>430.6</ele>
        <time>2024-06-23T12:23:00Z</time>
      </trkpt>
      <trkpt lat="43.00085" lon="1.13584">
        <ele>429.6</ele>
        <time>2024-06-23T12:23:01Z</time>
      </trkpt>
      <trkpt lat="43.0008" lon="1.13583">
        <ele>428.8</ele>
        <time>2024-06-23T12:23:02Z</time>
      </trkpt>
      <trkpt lat="43.00078" lon="1.13582">
        <ele>428</ele>
        <time>2024-06-23T12:23:03Z</time>
      </trkpt>
      <trkpt lat="43.00074" lon="1.13581">
        <ele>427</ele>
        <time>2024-06-23T12:23:04Z</time>
      </trkpt>
      <trkpt lat="43.0007" lon="1.1358">
        <ele>426.2</ele>
        <time>2024-06-23T12:23:05Z</time>
      </trkpt>
      <trkpt lat="43.00065" lon="1.1358">
        <ele>424.6</ele>
        <time>2024-06-23T12:23:06Z</time>
      </trkpt>
      <trkpt lat="43.00061" lon="1.13579">
        <ele>423.4</ele>
        <time>2024-06-23T12:23:07Z</time>
      </trkpt>
      <trkpt lat="43.00057" lon="1.13578">
        <ele>422.6</ele>
        <time>2024-06-23T12:23:08Z</time>
      </trkpt>
      <trkpt lat="43.00054" lon="1.13577">
        <ele>421.6</ele>
        <time>2024-06-23T12:23:09Z</time>
      </trkpt>
      <trkpt lat="43.00049" lon="1.13577">
        <ele>421</ele>
        <time>2024-06-23T12:23:10Z</time>
      </trkpt>
      <trkpt lat="43.00046" lon="1.13576">
        <ele>420</ele>
        <time>2024-06-23T12:23:11Z</time>
      </trkpt>
      <trkpt lat="43.00043" lon="1.13577">
        <ele>419.2</ele>
        <time>2024-06-23T12:23:12Z</time>
      </trkpt>
      <trkpt lat="43.0004" lon="1.13577">
        <ele>418.8</ele>
        <time>2024-06-23T12:23:13Z</time>
      </trkpt>
      <trkpt lat="43.00037" lon="1.13578">
        <ele>418</ele>
        <time>2024-06-23T12:23:14Z</time>
      </trkpt>
      <trkpt lat="43.00034" lon="1.13578">
        <ele>417.4</ele>
        <time>2024-06-23T12:23:15Z</time>
      </trkpt>
      <trkpt lat="43.00031" lon="1.13577">
        <ele>416.8</ele>
        <time>2024-06-23T12:23:16Z</time>
      </trkpt>
      <trkpt lat="43.00029" lon="1.13576">
        <ele>416</ele>
        <time>2024-06-23T12:23:17Z</time>
      </trkpt>
      <trkpt lat="43.00027" lon="1.13575">
        <ele>415.4</ele>
        <time>2024-06-23T12:23:18Z</time>
      </trkpt>
      <trkpt lat="43.00027" lon="1.13574">
        <ele>415</ele>
        <time>2024-06-23T12:23:19Z</time>
      </trkpt>
      <trkpt lat="43.00027" lon="1.13572">
        <ele>414.4</ele>
        <time>2024-06-23T12:23:20Z</time>
      </trkpt>
      <trkpt lat="43.00027" lon="1.13567">
        <ele>414.2</ele>
        <time>2024-06-23T12:23:21Z</time>
      </trkpt>
      <trkpt lat="43.00028" lon="1.13563">
        <ele>413.8</ele>
        <time>2024-06-23T12:23:22Z</time>
      </trkpt>
      <trkpt lat="43.00029" lon="1.13557">
        <ele>413.4</ele>
        <time>2024-06-23T12:23:23Z</time>
      </trkpt>
      <trkpt lat="43.00033" lon="1.1355">
        <ele>413.4</ele>
        <time>2024-06-23T12:23:24Z</time>
      </trkpt>
      <trkpt lat="43.00034" lon="1.13544">
        <ele>413</ele>
        <time>2024-06-23T12:23:25Z</time>
      </trkpt>
      <trkpt lat="43.00037" lon="1.13537">
        <ele>412.6</ele>
        <time>2024-06-23T12:23:26Z</time>
      </trkpt>
      <trkpt lat="43.00041" lon="1.13532">
        <ele>412.6</ele>
        <time>2024-06-23T12:23:27Z</time>
      </trkpt>
      <trkpt lat="43.00045" lon="1.13524">
        <ele>411.8</ele>
        <time>2024-06-23T12:23:28Z</time>
      </trkpt>
      <trkpt lat="43.00048" lon="1.13519">
        <ele>411.8</ele>
        <time>2024-06-23T12:23:29Z</time>
      </trkpt>
      <trkpt lat="43.00052" lon="1.13514">
        <ele>411.2</ele>
        <time>2024-06-23T12:23:30Z</time>
      </trkpt>
      <trkpt lat="43.00057" lon="1.1351">
        <ele>411</ele>
        <time>2024-06-23T12:23:31Z</time>
      </trkpt>
      <trkpt lat="43.00061" lon="1.13509">
        <ele>410.6</ele>
        <time>2024-06-23T12:23:32Z</time>
      </trkpt>
      <trkpt lat="43.00065" lon="1.13508">
        <ele>410.4</ele>
        <time>2024-06-23T12:23:33Z</time>
      </trkpt>
      <trkpt lat="43.00069" lon="1.13508">
        <ele>410</ele>
        <time>2024-06-23T12:23:34Z</time>
      </trkpt>
      <trkpt lat="43.00072" lon="1.13507">
        <ele>410</ele>
        <time>2024-06-23T12:23:35Z</time>
      </trkpt>
      <trkpt lat="43.00074" lon="1.13507">
        <ele>409.6</ele>
        <time>2024-06-23T12:23:36Z</time>
      </trkpt>
      <trkpt lat="43.00076" lon="1.13506">
        <ele>409.6</ele>
        <time>2024-06-23T12:23:37Z</time>
      </trkpt>
      <trkpt lat="43.00078" lon="1.13504">
        <ele>409.4</ele>
        <time>2024-06-23T12:23:38Z</time>
      </trkpt>
      <trkpt lat="43.00077" lon="1.13502">
        <ele>409.4</ele>
        <time>2024-06-23T12:23:39Z</time>
      </trkpt>
      <trkpt lat="43.00075" lon="1.13501">
        <ele>409.4</ele>
        <time>2024-06-23T12:23:40Z</time>
      </trkpt>
      <trkpt lat="43.00072" lon="1.135">
        <ele>409.4</ele>
        <time>2024-06-23T12:23:41Z</time>
      </trkpt>
      <trkpt lat="43.0007" lon="1.135">
        <ele>409.4</ele>
        <time>2024-06-23T12:23:42Z</time>
      </trkpt>
      <trkpt lat="43.00067" lon="1.13501">
        <ele>409.4</ele>
        <time>2024-06-23T12:23:43Z</time>
      </trkpt>
      <trkpt lat="43.00064" lon="1.13501">
        <ele>409.4</ele>
        <time>2024-06-23T12:23:44Z</time>
      </trkpt>
      <trkpt lat="43.00061" lon="1.13501">
        <ele>409.4</ele>
        <time>2024-06-23T12:23:45Z</time>
      </trkpt>
      <trkpt lat="43.00059" lon="1.13501">
        <ele>409.6</ele>
        <time>2024-06-23T12:23:46Z</time>
      </trkpt>
      <trkpt lat="43.00056" lon="1.13501">
        <ele>409.6</ele>
        <time>2024-06-23T12:23:47Z</time>
      </trkpt>
      <trkpt lat="43.00053" lon="1.13501">
        <ele>409.6</ele>
        <time>2024-06-23T12:23:48Z</time>
      </trkpt>
      <trkpt lat="43.00051" lon="1.13501">
        <ele>409.8</ele>
        <time>2024-06-23T12:23:49Z</time>
      </trkpt>
      <trkpt lat="43.00048" lon="1.135">
        <ele>409.8</ele>
        <time>2024-06-23T12:23:50Z</time>
      </trkpt>
      <trkpt lat="43.00045" lon="1.13496">
        <ele>409.8</ele>
        <time>2024-06-23T12:23:51Z</time>
      </trkpt>
      <trkpt lat="43.00043" lon="1.13492">
        <ele>409.8</ele>
        <time>2024-06-23T12:23:52Z</time>
      </trkpt>
      <trkpt lat="43.00042" lon="1.13487">
        <ele>409.8</ele>
        <time>2024-06-23T12:23:53Z</time>
      </trkpt>
      <trkpt lat="43.00042" lon="1.13482">
        <ele>410</ele>
        <time>2024-06-23T12:23:54Z</time>
      </trkpt>
      <trkpt lat="43.00041" lon="1.13477">
        <ele>410</ele>
        <time>2024-06-23T12:23:55Z</time>
      </trkpt>
      <trkpt lat="43.00039" lon="1.13472">
        <ele>410.4</ele>
        <time>2024-06-23T12:23:56Z</time>
      </trkpt>
      <trkpt lat="43.00038" lon="1.13467">
        <ele>410.4</ele>
        <time>2024-06-23T12:23:57Z</time>
      </trkpt>
      <trkpt lat="43.00037" lon="1.13461">
        <ele>410.4</ele>
        <time>2024-06-23T12:23:58Z</time>
      </trkpt>
      <trkpt lat="43.00035" lon="1.13456">
        <ele>410</ele>
        <time>2024-06-23T12:23:59Z</time>
      </trkpt>
      <trkpt lat="43.00035" lon="1.13451">
        <ele>410</ele>
        <time>2024-06-23T12:24:00Z</time>
      </trkpt>
      <trkpt lat="43.00035" lon="1.13446">
        <ele>410</ele>
        <time>2024-06-23T12:24:01Z</time>
      </trkpt>
      <trkpt lat="43.00037" lon="1.13442">
        <ele>409.6</ele>
        <time>2024-06-23T12:24:02Z</time>
      </trkpt>
      <trkpt lat="43.00041" lon="1.13439">
        <ele>409.4</ele>
        <time>2024-06-23T12:24:03Z</time>
      </trkpt>
      <trkpt lat="43.00045" lon="1.13438">
        <ele>409.4</ele>
        <time>2024-06-23T12:24:04Z</time>
      </trkpt>
      <trkpt lat="43.00052" lon="1.13438">
        <ele>409.8</ele>
        <time>2024-06-23T12:24:05Z</time>
      </trkpt>
      <trkpt lat="43.00056" lon="1.13436">
        <ele>409.8</ele>
        <time>2024-06-23T12:24:06Z</time>
      </trkpt>
      <trkpt lat="43.0006" lon="1.13434">
        <ele>409.8</ele>
        <time>2024-06-23T12:24:07Z</time>
      </trkpt>
      <trkpt lat="43.00065" lon="1.13432">
        <ele>409.8</ele>
        <time>2024-06-23T12:24:08Z</time>
      </trkpt>
      <trkpt lat="43.00069" lon="1.1343">
        <ele>409.8</ele>
        <time>2024-06-23T12:24:09Z</time>
      </trkpt>
      <trkpt lat="43.00074" lon="1.13428">
        <ele>409.8</ele>
        <time>2024-06-23T12:24:10Z</time>
      </trkpt>
      <trkpt lat="43.00078" lon="1.13427">
        <ele>409.4</ele>
        <time>2024-06-23T12:24:11Z</time>
      </trkpt>
      <trkpt lat="43.00083" lon="1.13426">
        <ele>409.4</ele>
        <time>2024-06-23T12:24:12Z</time>
      </trkpt>
      <trkpt lat="43.00087" lon="1.13424">
        <ele>409.2</ele>
        <time>2024-06-23T12:24:13Z</time>
      </trkpt>
      <trkpt lat="43.00092" lon="1.13421">
        <ele>409.2</ele>
        <time>2024-06-23T12:24:14Z</time>
      </trkpt>
      <trkpt lat="43.00097" lon="1.13419">
        <ele>409</ele>
        <time>2024-06-23T12:24:15Z</time>
      </trkpt>
      <trkpt lat="43.00102" lon="1.13416">
        <ele>409</ele>
        <time>2024-06-23T12:24:16Z</time>
      </trkpt>
      <trkpt lat="43.00107" lon="1.13414">
        <ele>408.6</ele>
        <time>2024-06-23T12:24:17Z</time>
      </trkpt>
      <trkpt lat="43.00112" lon="1.13412">
        <ele>408.4</ele>
        <time>2024-06-23T12:24:18Z</time>
      </trkpt>
      <trkpt lat="43.00117" lon="1.1341">
        <ele>408.4</ele>
        <time>2024-06-23T12:24:19Z</time>
      </trkpt>
      <trkpt lat="43.00123" lon="1.13407">
        <ele>408</ele>
        <time>2024-06-23T12:24:20Z</time>
      </trkpt>
      <trkpt lat="43.00128" lon="1.13403">
        <ele>407.6</ele>
        <time>2024-06-23T12:24:21Z</time>
      </trkpt>
      <trkpt lat="43.00133" lon="1.134">
        <ele>407.6</ele>
        <time>2024-06-23T12:24:22Z</time>
      </trkpt>
      <trkpt lat="43.00139" lon="1.13397">
        <ele>407.4</ele>
        <time>2024-06-23T12:24:23Z</time>
      </trkpt>
      <trkpt lat="43.00143" lon="1.13393">
        <ele>407</ele>
        <time>2024-06-23T12:24:24Z</time>
      </trkpt>
      <trkpt lat="43.0015" lon="1.13388">
        <ele>406.4</ele>
        <time>2024-06-23T12:24:25Z</time>
      </trkpt>
      <trkpt lat="43.00155" lon="1.13384">
        <ele>406.4</ele>
        <time>2024-06-23T12:24:26Z</time>
      </trkpt>
      <trkpt lat="43.00161" lon="1.1338">
        <ele>406.4</ele>
        <time>2024-06-23T12:24:27Z</time>
      </trkpt>
      <trkpt lat="43.00167" lon="1.13376">
        <ele>406.4</ele>
        <time>2024-06-23T12:24:28Z</time>
      </trkpt>
      <trkpt lat="43.00172" lon="1.13372">
        <ele>406.2</ele>
        <time>2024-06-23T12:24:29Z</time>
      </trkpt>
      <trkpt lat="43.00178" lon="1.13366">
        <ele>406.2</ele>
        <time>2024-06-23T12:24:30Z</time>
      </trkpt>
      <trkpt lat="43.00183" lon="1.1336">
        <ele>405.6</ele>
        <time>2024-06-23T12:24:31Z</time>
      </trkpt>
      <trkpt lat="43.00188" lon="1.13354">
        <ele>405.2</ele>
        <time>2024-06-23T12:24:32Z</time>
      </trkpt>
      <trkpt lat="43.00192" lon="1.13347">
        <ele>404.6</ele>
        <time>2024-06-23T12:24:33Z</time>
      </trkpt>
      <trkpt lat="43.00198" lon="1.13341">
        <ele>404.6</ele>
        <time>2024-06-23T12:24:34Z</time>
      </trkpt>
      <trkpt lat="43.00202" lon="1.13333">
        <ele>404.6</ele>
        <time>2024-06-23T12:24:35Z</time>
      </trkpt>
      <trkpt lat="43.00206" lon="1.13326">
        <ele>404.2</ele>
        <time>2024-06-23T12:24:36Z</time>
      </trkpt>
      <trkpt lat="43.00211" lon="1.1332">
        <ele>404.2</ele>
        <time>2024-06-23T12:24:37Z</time>
      </trkpt>
      <trkpt lat="43.00217" lon="1.13314">
        <ele>404</ele>
        <time>2024-06-23T12:24:38Z</time>
      </trkpt>
      <trkpt lat="43.00221" lon="1.13308">
        <ele>404</ele>
        <time>2024-06-23T12:24:39Z</time>
      </trkpt>
      <trkpt lat="43.00227" lon="1.13302">
        <ele>404</ele>
        <time>2024-06-23T12:24:40Z</time>
      </trkpt>
      <trkpt lat="43.00232" lon="1.13297">
        <ele>404</ele>
        <time>2024-06-23T12:24:41Z</time>
      </trkpt>
      <trkpt lat="43.00237" lon="1.13291">
        <ele>403.8</ele>
        <time>2024-06-23T12:24:42Z</time>
      </trkpt>
      <trkpt lat="43.00243" lon="1.13284">
        <ele>403.8</ele>
        <time>2024-06-23T12:24:43Z</time>
      </trkpt>
      <trkpt lat="43.00248" lon="1.13279">
        <ele>403.8</ele>
        <time>2024-06-23T12:24:44Z</time>
      </trkpt>
      <trkpt lat="43.00253" lon="1.13273">
        <ele>403.6</ele>
        <time>2024-06-23T12:24:45Z</time>
      </trkpt>
      <trkpt lat="43.00258" lon="1.13267">
        <ele>403.6</ele>
        <time>2024-06-23T12:24:46Z</time>
      </trkpt>
      <trkpt lat="43.00264" lon="1.13262">
        <ele>403</ele>
        <time>2024-06-23T12:24:47Z</time>
      </trkpt>
      <trkpt lat="43.00269" lon="1.13255">
        <ele>403</ele>
        <time>2024-06-23T12:24:48Z</time>
      </trkpt>
      <trkpt lat="43.00274" lon="1.13249">
        <ele>403</ele>
        <time>2024-06-23T12:24:49Z</time>
      </trkpt>
      <trkpt lat="43.00278" lon="1.13242">
        <ele>402.8</ele>
        <time>2024-06-23T12:24:50Z</time>
      </trkpt>
      <trkpt lat="43.00283" lon="1.13236">
        <ele>402.6</ele>
        <time>2024-06-23T12:24:51Z</time>
      </trkpt>
      <trkpt lat="43.00287" lon="1.13231">
        <ele>402.6</ele>
        <time>2024-06-23T12:24:52Z</time>
      </trkpt>
      <trkpt lat="43.00291" lon="1.13224">
        <ele>402.6</ele>
        <time>2024-06-23T12:24:53Z</time>
      </trkpt>
      <trkpt lat="43.00294" lon="1.13217">
        <ele>402.4</ele>
        <time>2024-06-23T12:24:54Z</time>
      </trkpt>
      <trkpt lat="43.00298" lon="1.13212">
        <ele>402.6</ele>
        <time>2024-06-23T12:24:55Z</time>
      </trkpt>
      <trkpt lat="43.003" lon="1.13208">
        <ele>402.8</ele>
        <time>2024-06-23T12:24:56Z</time>
      </trkpt>
      <trkpt lat="43.00303" lon="1.13205">
        <ele>402.8</ele>
        <time>2024-06-23T12:24:57Z</time>
      </trkpt>
      <trkpt lat="43.00305" lon="1.13203">
        <ele>403.2</ele>
        <time>2024-06-23T12:24:58Z</time>
      </trkpt>
      <trkpt lat="43.00305" lon="1.13201">
        <ele>403.2</ele>
        <time>2024-06-23T12:24:59Z</time>
      </trkpt>
      <trkpt lat="43.00306" lon="1.132">
        <ele>403.2</ele>
        <time>2024-06-23T12:25:00Z</time>
      </trkpt>
      <trkpt lat="43.00308" lon="1.13196">
        <ele>403.2</ele>
        <time>2024-06-23T12:25:01Z</time>
      </trkpt>
      <trkpt lat="43.00311" lon="1.13192">
        <ele>403.2</ele>
        <time>2024-06-23T12:25:02Z</time>
      </trkpt>
      <trkpt lat="43.00314" lon="1.13187">
        <ele>402.8</ele>
        <time>2024-06-23T12:25:03Z</time>
      </trkpt>
      <trkpt lat="43.00317" lon="1.13184">
        <ele>403</ele>
        <time>2024-06-23T12:25:04Z</time>
      </trkpt>
      <trkpt lat="43.00319" lon="1.13181">
        <ele>403.4</ele>
        <time>2024-06-23T12:25:05Z</time>
      </trkpt>
      <trkpt lat="43.00323" lon="1.13178">
        <ele>403.6</ele>
        <time>2024-06-23T12:25:06Z</time>
      </trkpt>
      <trkpt lat="43.00325" lon="1.13174">
        <ele>403.6</ele>
        <time>2024-06-23T12:25:07Z</time>
      </trkpt>
      <trkpt lat="43.00328" lon="1.13171">
        <ele>403.6</ele>
        <time>2024-06-23T12:25:08Z</time>
      </trkpt>
      <trkpt lat="43.00331" lon="1.13167">
        <ele>404</ele>
        <time>2024-06-23T12:25:09Z</time>
      </trkpt>
      <trkpt lat="43.00334" lon="1.13164">
        <ele>404.2</ele>
        <time>2024-06-23T12:25:10Z</time>
      </trkpt>
      <trkpt lat="43.00337" lon="1.1316">
        <ele>404.4</ele>
        <time>2024-06-23T12:25:11Z</time>
      </trkpt>
      <trkpt lat="43.00339" lon="1.13157">
        <ele>404.6</ele>
        <time>2024-06-23T12:25:12Z</time>
      </trkpt>
      <trkpt lat="43.00342" lon="1.13153">
        <ele>404.6</ele>
        <time>2024-06-23T12:25:13Z</time>
      </trkpt>
      <trkpt lat="43.00345" lon="1.13149">
        <ele>405</ele>
        <time>2024-06-23T12:25:14Z</time>
      </trkpt>
      <trkpt lat="43.00349" lon="1.13146">
        <ele>405.4</ele>
        <time>2024-06-23T12:25:15Z</time>
      </trkpt>
      <trkpt lat="43.00352" lon="1.13143">
        <ele>405.4</ele>
        <time>2024-06-23T12:25:16Z</time>
      </trkpt>
      <trkpt lat="43.00355" lon="1.13139">
        <ele>405.6</ele>
        <time>2024-06-23T12:25:17Z</time>
      </trkpt>
      <trkpt lat="43.00358" lon="1.13135">
        <ele>406</ele>
        <time>2024-06-23T12:25:18Z</time>
      </trkpt>
      <trkpt lat="43.00361" lon="1.13131">
        <ele>406</ele>
        <time>2024-06-23T12:25:19Z</time>
      </trkpt>
      <trkpt lat="43.00364" lon="1.13128">
        <ele>406.4</ele>
        <time>2024-06-23T12:25:20Z</time>
      </trkpt>
      <trkpt lat="43.00368" lon="1.13124">
        <ele>406.4</ele>
        <time>2024-06-23T12:25:21Z</time>
      </trkpt>
      <trkpt lat="43.00371" lon="1.13121">
        <ele>406.6</ele>
        <time>2024-06-23T12:25:22Z</time>
      </trkpt>
      <trkpt lat="43.00374" lon="1.13117">
        <ele>407</ele>
        <time>2024-06-23T12:25:23Z</time>
      </trkpt>
      <trkpt lat="43.00377" lon="1.13114">
        <ele>407</ele>
        <time>2024-06-23T12:25:24Z</time>
      </trkpt>
      <trkpt lat="43.0038" lon="1.1311">
        <ele>407</ele>
        <time>2024-06-23T12:25:25Z</time>
      </trkpt>
      <trkpt lat="43.00383" lon="1.13106">
        <ele>407</ele>
        <time>2024-06-23T12:25:26Z</time>
      </trkpt>
      <trkpt lat="43.00385" lon="1.13102">
        <ele>407.2</ele>
        <time>2024-06-23T12:25:27Z</time>
      </trkpt>
      <trkpt lat="43.00388" lon="1.13097">
        <ele>407.2</ele>
        <time>2024-06-23T12:25:28Z</time>
      </trkpt>
      <trkpt lat="43.00392" lon="1.13093">
        <ele>407.4</ele>
        <time>2024-06-23T12:25:29Z</time>
      </trkpt>
      <trkpt lat="43.00395" lon="1.1309">
        <ele>407.4</ele>
        <time>2024-06-23T12:25:30Z</time>
      </trkpt>
      <trkpt lat="43.004" lon="1.13087">
        <ele>407.2</ele>
        <time>2024-06-23T12:25:31Z</time>
      </trkpt>
      <trkpt lat="43.00403" lon="1.13084">
        <ele>407.2</ele>
        <time>2024-06-23T12:25:32Z</time>
      </trkpt>
      <trkpt lat="43.00407" lon="1.13079">
        <ele>407</ele>
        <time>2024-06-23T12:25:33Z</time>
      </trkpt>
      <trkpt lat="43.00412" lon="1.13076">
        <ele>406.8</ele>
        <time>2024-06-23T12:25:34Z</time>
      </trkpt>
      <trkpt lat="43.00416" lon="1.13073">
        <ele>407</ele>
        <time>2024-06-23T12:25:35Z</time>
      </trkpt>
      <trkpt lat="43.0042" lon="1.13069">
        <ele>407</ele>
        <time>2024-06-23T12:25:36Z</time>
      </trkpt>
      <trkpt lat="43.00425" lon="1.13065">
        <ele>407</ele>
        <time>2024-06-23T12:25:37Z</time>
      </trkpt>
      <trkpt lat="43.00429" lon="1.13061">
        <ele>406.8</ele>
        <time>2024-06-23T12:25:38Z</time>
      </trkpt>
      <trkpt lat="43.00433" lon="1.13057">
        <ele>406.8</ele>
        <time>2024-06-23T12:25:39Z</time>
      </trkpt>
      <trkpt lat="43.00437" lon="1.13053">
        <ele>406.8</ele>
        <time>2024-06-23T12:25:40Z</time>
      </trkpt>
      <trkpt lat="43.00442" lon="1.13049">
        <ele>406.8</ele>
        <time>2024-06-23T12:25:41Z</time>
      </trkpt>
      <trkpt lat="43.00447" lon="1.13045">
        <ele>406.8</ele>
        <time>2024-06-23T12:25:42Z</time>
      </trkpt>
      <trkpt lat="43.00451" lon="1.1304">
        <ele>406.6</ele>
        <time>2024-06-23T12:25:43Z</time>
      </trkpt>
      <trkpt lat="43.00455" lon="1.13036">
        <ele>406.8</ele>
        <time>2024-06-23T12:25:44Z</time>
      </trkpt>
      <trkpt lat="43.0046" lon="1.13033">
        <ele>406.8</ele>
        <time>2024-06-23T12:25:45Z</time>
      </trkpt>
      <trkpt lat="43.00464" lon="1.13028">
        <ele>406.4</ele>
        <time>2024-06-23T12:25:46Z</time>
      </trkpt>
      <trkpt lat="43.00469" lon="1.13024">
        <ele>406.4</ele>
        <time>2024-06-23T12:25:47Z</time>
      </trkpt>
      <trkpt lat="43.00474" lon="1.1302">
        <ele>406.4</ele>
        <time>2024-06-23T12:25:48Z</time>
      </trkpt>
      <trkpt lat="43.00478" lon="1.13015">
        <ele>406.4</ele>
        <time>2024-06-23T12:25:49Z</time>
      </trkpt>
      <trkpt lat="43.00483" lon="1.13011">
        <ele>406.4</ele>
        <time>2024-06-23T12:25:50Z</time>
      </trkpt>
      <trkpt lat="43.00487" lon="1.13007">
        <ele>406.4</ele>
        <time>2024-06-23T12:25:51Z</time>
      </trkpt>
      <trkpt lat="43.00492" lon="1.13003">
        <ele>406.4</ele>
        <time>2024-06-23T12:25:52Z</time>
      </trkpt>
      <trkpt lat="43.00497" lon="1.12999">
        <ele>406.2</ele>
        <time>2024-06-23T12:25:53Z</time>
      </trkpt>
      <trkpt lat="43.00501" lon="1.12995">
        <ele>406.2</ele>
        <time>2024-06-23T12:25:54Z</time>
      </trkpt>
      <trkpt lat="43.00506" lon="1.1299">
        <ele>406.2</ele>
        <time>2024-06-23T12:25:55Z</time>
      </trkpt>
      <trkpt lat="43.0051" lon="1.12985">
        <ele>406.2</ele>
        <time>2024-06-23T12:25:56Z</time>
      </trkpt>
      <trkpt lat="43.00515" lon="1.12981">
        <ele>405.6</ele>
        <time>2024-06-23T12:25:57Z</time>
      </trkpt>
      <trkpt lat="43.00519" lon="1.12976">
        <ele>405.8</ele>
        <time>2024-06-23T12:25:58Z</time>
      </trkpt>
      <trkpt lat="43.00523" lon="1.12972">
        <ele>406.2</ele>
        <time>2024-06-23T12:25:59Z</time>
      </trkpt>
      <trkpt lat="43.00528" lon="1.12968">
        <ele>406.2</ele>
        <time>2024-06-23T12:26:00Z</time>
      </trkpt>
      <trkpt lat="43.00532" lon="1.12964">
        <ele>406.2</ele>
        <time>2024-06-23T12:26:01Z</time>
      </trkpt>
      <trkpt lat="43.00537" lon="1.12959">
        <ele>406.6</ele>
        <time>2024-06-23T12:26:02Z</time>
      </trkpt>
      <trkpt lat="43.00542" lon="1.12955">
        <ele>406.6</ele>
        <time>2024-06-23T12:26:03Z</time>
      </trkpt>
      <trkpt lat="43.00546" lon="1.1295">
        <ele>406.8</ele>
        <time>2024-06-23T12:26:04Z</time>
      </trkpt>
      <trkpt lat="43.0055" lon="1.12946">
        <ele>406.4</ele>
        <time>2024-06-23T12:26:05Z</time>
      </trkpt>
      <trkpt lat="43.00554" lon="1.12942">
        <ele>406.4</ele>
        <time>2024-06-23T12:26:06Z</time>
      </trkpt>
      <trkpt lat="43.00559" lon="1.12938">
        <ele>406</ele>
        <time>2024-06-23T12:26:07Z</time>
      </trkpt>
      <trkpt lat="43.00563" lon="1.12934">
        <ele>406</ele>
        <time>2024-06-23T12:26:08Z</time>
      </trkpt>
      <trkpt lat="43.00568" lon="1.1293">
        <ele>406</ele>
        <time>2024-06-23T12:26:09Z</time>
      </trkpt>
      <trkpt lat="43.00572" lon="1.12926">
        <ele>406</ele>
        <time>2024-06-23T12:26:10Z</time>
      </trkpt>
      <trkpt lat="43.00576" lon="1.12922">
        <ele>406</ele>
        <time>2024-06-23T12:26:11Z</time>
      </trkpt>
      <trkpt lat="43.00581" lon="1.12918">
        <ele>405.8</ele>
        <time>2024-06-23T12:26:12Z</time>
      </trkpt>
      <trkpt lat="43.00585" lon="1.12914">
        <ele>405.8</ele>
        <time>2024-06-23T12:26:13Z</time>
      </trkpt>
      <trkpt lat="43.0059" lon="1.1291">
        <ele>405.8</ele>
        <time>2024-06-23T12:26:14Z</time>
      </trkpt>
      <trkpt lat="43.00595" lon="1.12906">
        <ele>405.8</ele>
        <time>2024-06-23T12:26:15Z</time>
      </trkpt>
      <trkpt lat="43.00599" lon="1.12901">
        <ele>405.8</ele>
        <time>2024-06-23T12:26:16Z</time>
      </trkpt>
      <trkpt lat="43.00603" lon="1.12897">
        <ele>405.8</ele>
        <time>2024-06-23T12:26:17Z</time>
      </trkpt>
      <trkpt lat="43.00608" lon="1.12893">
        <ele>405.8</ele>
        <time>2024-06-23T12:26:18Z</time>
      </trkpt>
      <trkpt lat="43.00612" lon="1.12888">
        <ele>405.8</ele>
        <time>2024-06-23T12:26:19Z</time>
      </trkpt>
      <trkpt lat="43.00616" lon="1.12883">
        <ele>405.8</ele>
        <time>2024-06-23T12:26:20Z</time>
      </trkpt>
      <trkpt lat="43.0062" lon="1.12879">
        <ele>406.2</ele>
        <time>2024-06-23T12:26:21Z</time>
      </trkpt>
      <trkpt lat="43.00622" lon="1.12873">
        <ele>406.2</ele>
        <time>2024-06-23T12:26:22Z</time>
      </trkpt>
      <trkpt lat="43.00623" lon="1.12867">
        <ele>406.4</ele>
        <time>2024-06-23T12:26:23Z</time>
      </trkpt>
      <trkpt lat="43.00622" lon="1.12862">
        <ele>406.4</ele>
        <time>2024-06-23T12:26:24Z</time>
      </trkpt>
      <trkpt lat="43.00621" lon="1.12856">
        <ele>406.4</ele>
        <time>2024-06-23T12:26:25Z</time>
      </trkpt>
      <trkpt lat="43.00619" lon="1.12851">
        <ele>406.4</ele>
        <time>2024-06-23T12:26:26Z</time>
      </trkpt>
      <trkpt lat="43.00618" lon="1.12847">
        <ele>406.6</ele>
        <time>2024-06-23T12:26:27Z</time>
      </trkpt>
      <trkpt lat="43.00618" lon="1.12843">
        <ele>406.6</ele>
        <time>2024-06-23T12:26:28Z</time>
      </trkpt>
      <trkpt lat="43.0062" lon="1.12839">
        <ele>407</ele>
        <time>2024-06-23T12:26:29Z</time>
      </trkpt>
      <trkpt lat="43.00622" lon="1.12837">
        <ele>407.2</ele>
        <time>2024-06-23T12:26:30Z</time>
      </trkpt>
      <trkpt lat="43.00624" lon="1.12835">
        <ele>407.4</ele>
        <time>2024-06-23T12:26:31Z</time>
      </trkpt>
      <trkpt lat="43.00627" lon="1.12835">
        <ele>407.4</ele>
        <time>2024-06-23T12:26:32Z</time>
      </trkpt>
      <trkpt lat="43.0063" lon="1.12838">
        <ele>407.4</ele>
        <time>2024-06-23T12:26:33Z</time>
      </trkpt>
      <trkpt lat="43.00632" lon="1.12841">
        <ele>407.4</ele>
        <time>2024-06-23T12:26:34Z</time>
      </trkpt>
      <trkpt lat="43.00635" lon="1.12844">
        <ele>407.4</ele>
        <time>2024-06-23T12:26:35Z</time>
      </trkpt>
      <trkpt lat="43.0064" lon="1.12846">
        <ele>407.2</ele>
        <time>2024-06-23T12:26:36Z</time>
      </trkpt>
      <trkpt lat="43.00646" lon="1.12847">
        <ele>406.8</ele>
        <time>2024-06-23T12:26:37Z</time>
      </trkpt>
      <trkpt lat="43.00652" lon="1.12845">
        <ele>406.4</ele>
        <time>2024-06-23T12:26:38Z</time>
      </trkpt>
      <trkpt lat="43.00657" lon="1.12841">
        <ele>406</ele>
        <time>2024-06-23T12:26:39Z</time>
      </trkpt>
      <trkpt lat="43.00663" lon="1.12838">
        <ele>405.6</ele>
        <time>2024-06-23T12:26:40Z</time>
      </trkpt>
      <trkpt lat="43.00668" lon="1.12833">
        <ele>405.4</ele>
        <time>2024-06-23T12:26:41Z</time>
      </trkpt>
      <trkpt lat="43.00672" lon="1.12829">
        <ele>405.4</ele>
        <time>2024-06-23T12:26:42Z</time>
      </trkpt>
      <trkpt lat="43.00677" lon="1.12824">
        <ele>405</ele>
        <time>2024-06-23T12:26:43Z</time>
      </trkpt>
      <trkpt lat="43.00683" lon="1.1282">
        <ele>404.6</ele>
        <time>2024-06-23T12:26:44Z</time>
      </trkpt>
      <trkpt lat="43.00688" lon="1.12816">
        <ele>404.6</ele>
        <time>2024-06-23T12:26:45Z</time>
      </trkpt>
      <trkpt lat="43.00692" lon="1.12811">
        <ele>404.6</ele>
        <time>2024-06-23T12:26:46Z</time>
      </trkpt>
      <trkpt lat="43.00697" lon="1.12807">
        <ele>404.6</ele>
        <time>2024-06-23T12:26:47Z</time>
      </trkpt>
      <trkpt lat="43.00702" lon="1.12802">
        <ele>404.6</ele>
        <time>2024-06-23T12:26:48Z</time>
      </trkpt>
      <trkpt lat="43.00707" lon="1.12797">
        <ele>404.6</ele>
        <time>2024-06-23T12:26:49Z</time>
      </trkpt>
      <trkpt lat="43.00711" lon="1.12792">
        <ele>404.4</ele>
        <time>2024-06-23T12:26:50Z</time>
      </trkpt>
      <trkpt lat="43.00715" lon="1.12787">
        <ele>404.4</ele>
        <time>2024-06-23T12:26:51Z</time>
      </trkpt>
      <trkpt lat="43.00719" lon="1.12782">
        <ele>404.2</ele>
        <time>2024-06-23T12:26:52Z</time>
      </trkpt>
      <trkpt lat="43.00724" lon="1.12777">
        <ele>404.2</ele>
        <time>2024-06-23T12:26:53Z</time>
      </trkpt>
      <trkpt lat="43.00727" lon="1.12771">
        <ele>404.2</ele>
        <time>2024-06-23T12:26:54Z</time>
      </trkpt>
      <trkpt lat="43.00732" lon="1.12766">
        <ele>403.8</ele>
        <time>2024-06-23T12:26:55Z</time>
      </trkpt>
      <trkpt lat="43.00736" lon="1.1276">
        <ele>403.4</ele>
        <time>2024-06-23T12:26:56Z</time>
      </trkpt>
      <trkpt lat="43.0074" lon="1.12755">
        <ele>403.4</ele>
        <time>2024-06-23T12:26:57Z</time>
      </trkpt>
      <trkpt lat="43.00744" lon="1.12749">
        <ele>403.4</ele>
        <time>2024-06-23T12:26:58Z</time>
      </trkpt>
      <trkpt lat="43.00748" lon="1.12743">
        <ele>403.8</ele>
        <time>2024-06-23T12:26:59Z</time>
      </trkpt>
      <trkpt lat="43.00753" lon="1.12739">
        <ele>403.8</ele>
        <time>2024-06-23T12:27:00Z</time>
      </trkpt>
      <trkpt lat="43.00758" lon="1.12733">
        <ele>403.8</ele>
        <time>2024-06-23T12:27:01Z</time>
      </trkpt>
      <trkpt lat="43.00762" lon="1.12727">
        <ele>403.8</ele>
        <time>2024-06-23T12:27:02Z</time>
      </trkpt>
      <trkpt lat="43.00766" lon="1.12721">
        <ele>403.8</ele>
        <time>2024-06-23T12:27:03Z</time>
      </trkpt>
      <trkpt lat="43.00771" lon="1.12715">
        <ele>403.8</ele>
        <time>2024-06-23T12:27:04Z</time>
      </trkpt>
      <trkpt lat="43.00776" lon="1.12709">
        <ele>403.8</ele>
        <time>2024-06-23T12:27:05Z</time>
      </trkpt>
      <trkpt lat="43.0078" lon="1.12702">
        <ele>403.8</ele>
        <time>2024-06-23T12:27:06Z</time>
      </trkpt>
      <trkpt lat="43.00784" lon="1.12696">
        <ele>403.4</ele>
        <time>2024-06-23T12:27:07Z</time>
      </trkpt>
      <trkpt lat="43.00789" lon="1.12691">
        <ele>403.4</ele>
        <time>2024-06-23T12:27:08Z</time>
      </trkpt>
      <trkpt lat="43.00792" lon="1.12684">
        <ele>403.4</ele>
        <time>2024-06-23T12:27:09Z</time>
      </trkpt>
      <trkpt lat="43.00797" lon="1.12678">
        <ele>403.4</ele>
        <time>2024-06-23T12:27:10Z</time>
      </trkpt>
      <trkpt lat="43.00801" lon="1.12672">
        <ele>403.4</ele>
        <time>2024-06-23T12:27:11Z</time>
      </trkpt>
      <trkpt lat="43.00806" lon="1.12665">
        <ele>403.8</ele>
        <time>2024-06-23T12:27:12Z</time>
      </trkpt>
      <trkpt lat="43.0081" lon="1.12659">
        <ele>403.8</ele>
        <time>2024-06-23T12:27:13Z</time>
      </trkpt>
      <trkpt lat="43.00814" lon="1.12653">
        <ele>403.4</ele>
        <time>2024-06-23T12:27:14Z</time>
      </trkpt>
      <trkpt lat="43.00817" lon="1.12646">
        <ele>403.2</ele>
        <time>2024-06-23T12:27:15Z</time>
      </trkpt>
      <trkpt lat="43.00822" lon="1.1264">
        <ele>403.2</ele>
        <time>2024-06-23T12:27:16Z</time>
      </trkpt>
      <trkpt lat="43.00826" lon="1.12633">
        <ele>403.2</ele>
        <time>2024-06-23T12:27:17Z</time>
      </trkpt>
      <trkpt lat="43.00829" lon="1.12626">
        <ele>403.2</ele>
        <time>2024-06-23T12:27:18Z</time>
      </trkpt>
      <trkpt lat="43.00833" lon="1.1262">
        <ele>403.2</ele>
        <time>2024-06-23T12:27:19Z</time>
      </trkpt>
      <trkpt lat="43.00836" lon="1.12613">
        <ele>403.2</ele>
        <time>2024-06-23T12:27:20Z</time>
      </trkpt>
      <trkpt lat="43.0084" lon="1.12606">
        <ele>402.8</ele>
        <time>2024-06-23T12:27:21Z</time>
      </trkpt>
      <trkpt lat="43.00844" lon="1.126">
        <ele>402.8</ele>
        <time>2024-06-23T12:27:22Z</time>
      </trkpt>
      <trkpt lat="43.00848" lon="1.12593">
        <ele>402.8</ele>
        <time>2024-06-23T12:27:23Z</time>
      </trkpt>
      <trkpt lat="43.00851" lon="1.12586">
        <ele>403</ele>
        <time>2024-06-23T12:27:24Z</time>
      </trkpt>
      <trkpt lat="43.00855" lon="1.12579">
        <ele>402.4</ele>
        <time>2024-06-23T12:27:25Z</time>
      </trkpt>
      <trkpt lat="43.00858" lon="1.12572">
        <ele>402.4</ele>
        <time>2024-06-23T12:27:26Z</time>
      </trkpt>
      <trkpt lat="43.00861" lon="1.12565">
        <ele>402.4</ele>
        <time>2024-06-23T12:27:27Z</time>
      </trkpt>
      <trkpt lat="43.00865" lon="1.12558">
        <ele>402.4</ele>
        <time>2024-06-23T12:27:28Z</time>
      </trkpt>
      <trkpt lat="43.00868" lon="1.1255">
        <ele>402.4</ele>
        <time>2024-06-23T12:27:29Z</time>
      </trkpt>
      <trkpt lat="43.00871" lon="1.12543">
        <ele>402.4</ele>
        <time>2024-06-23T12:27:30Z</time>
      </trkpt>
      <trkpt lat="43.00874" lon="1.12536">
        <ele>402.4</ele>
        <time>2024-06-23T12:27:31Z</time>
      </trkpt>
      <trkpt lat="43.00878" lon="1.12529">
        <ele>402.4</ele>
        <time>2024-06-23T12:27:32Z</time>
      </trkpt>
      <trkpt lat="43.00882" lon="1.12523">
        <ele>401.8</ele>
        <time>2024-06-23T12:27:33Z</time>
      </trkpt>
      <trkpt lat="43.00885" lon="1.12516">
        <ele>401.8</ele>
        <time>2024-06-23T12:27:34Z</time>
      </trkpt>
      <trkpt lat="43.00889" lon="1.1251">
        <ele>401.6</ele>
        <time>2024-06-23T12:27:35Z</time>
      </trkpt>
      <trkpt lat="43.00892" lon="1.12502">
        <ele>401.6</ele>
        <time>2024-06-23T12:27:36Z</time>
      </trkpt>
      <trkpt lat="43.00894" lon="1.12495">
        <ele>401.4</ele>
        <time>2024-06-23T12:27:37Z</time>
      </trkpt>
      <trkpt lat="43.00897" lon="1.12488">
        <ele>401.4</ele>
        <time>2024-06-23T12:27:38Z</time>
      </trkpt>
      <trkpt lat="43.009" lon="1.1248">
        <ele>401.4</ele>
        <time>2024-06-23T12:27:39Z</time>
      </trkpt>
      <trkpt lat="43.00904" lon="1.12473">
        <ele>401</ele>
        <time>2024-06-23T12:27:40Z</time>
      </trkpt>
      <trkpt lat="43.00906" lon="1.12466">
        <ele>401</ele>
        <time>2024-06-23T12:27:41Z</time>
      </trkpt>
      <trkpt lat="43.00909" lon="1.12459">
        <ele>400.8</ele>
        <time>2024-06-23T12:27:42Z</time>
      </trkpt>
      <trkpt lat="43.00912" lon="1.12452">
        <ele>400.8</ele>
        <time>2024-06-23T12:27:43Z</time>
      </trkpt>
      <trkpt lat="43.00915" lon="1.12445">
        <ele>401</ele>
        <time>2024-06-23T12:27:44Z</time>
      </trkpt>
      <trkpt lat="43.00918" lon="1.12437">
        <ele>401</ele>
        <time>2024-06-23T12:27:45Z</time>
      </trkpt>
      <trkpt lat="43.00921" lon="1.1243">
        <ele>401</ele>
        <time>2024-06-23T12:27:46Z</time>
      </trkpt>
      <trkpt lat="43.00923" lon="1.12422">
        <ele>401</ele>
        <time>2024-06-23T12:27:47Z</time>
      </trkpt>
      <trkpt lat="43.00926" lon="1.12415">
        <ele>401</ele>
        <time>2024-06-23T12:27:48Z</time>
      </trkpt>
      <trkpt lat="43.00929" lon="1.12407">
        <ele>401</ele>
        <time>2024-06-23T12:27:49Z</time>
      </trkpt>
      <trkpt lat="43.00932" lon="1.124">
        <ele>401</ele>
        <time>2024-06-23T12:27:50Z</time>
      </trkpt>
      <trkpt lat="43.00934" lon="1.12393">
        <ele>401</ele>
        <time>2024-06-23T12:27:51Z</time>
      </trkpt>
      <trkpt lat="43.00937" lon="1.12386">
        <ele>401</ele>
        <time>2024-06-23T12:27:52Z</time>
      </trkpt>
      <trkpt lat="43.0094" lon="1.12379">
        <ele>401</ele>
        <time>2024-06-23T12:27:53Z</time>
      </trkpt>
      <trkpt lat="43.00943" lon="1.12373">
        <ele>401</ele>
        <time>2024-06-23T12:27:54Z</time>
      </trkpt>
      <trkpt lat="43.00945" lon="1.12366">
        <ele>401</ele>
        <time>2024-06-23T12:27:55Z</time>
      </trkpt>
      <trkpt lat="43.00948" lon="1.12359">
        <ele>401</ele>
        <time>2024-06-23T12:27:56Z</time>
      </trkpt>
      <trkpt lat="43.00951" lon="1.12352">
        <ele>400.8</ele>
        <time>2024-06-23T12:27:57Z</time>
      </trkpt>
      <trkpt lat="43.00953" lon="1.12346">
        <ele>400.8</ele>
        <time>2024-06-23T12:27:58Z</time>
      </trkpt>
      <trkpt lat="43.00956" lon="1.12339">
        <ele>400.8</ele>
        <time>2024-06-23T12:27:59Z</time>
      </trkpt>
      <trkpt lat="43.00959" lon="1.12332">
        <ele>400.8</ele>
        <time>2024-06-23T12:28:00Z</time>
      </trkpt>
      <trkpt lat="43.00962" lon="1.12325">
        <ele>400.8</ele>
        <time>2024-06-23T12:28:01Z</time>
      </trkpt>
      <trkpt lat="43.00964" lon="1.12319">
        <ele>400.8</ele>
        <time>2024-06-23T12:28:02Z</time>
      </trkpt>
      <trkpt lat="43.00965" lon="1.12313">
        <ele>400.8</ele>
        <time>2024-06-23T12:28:03Z</time>
      </trkpt>
      <trkpt lat="43.00968" lon="1.12307">
        <ele>400.8</ele>
        <time>2024-06-23T12:28:04Z</time>
      </trkpt>
      <trkpt lat="43.00969" lon="1.123">
        <ele>400.8</ele>
        <time>2024-06-23T12:28:05Z</time>
      </trkpt>
      <trkpt lat="43.00971" lon="1.12293">
        <ele>400.8</ele>
        <time>2024-06-23T12:28:06Z</time>
      </trkpt>
      <trkpt lat="43.00973" lon="1.12286">
        <ele>400.8</ele>
        <time>2024-06-23T12:28:07Z</time>
      </trkpt>
      <trkpt lat="43.00974" lon="1.1228">
        <ele>400.8</ele>
        <time>2024-06-23T12:28:08Z</time>
      </trkpt>
      <trkpt lat="43.00976" lon="1.12273">
        <ele>400.8</ele>
        <time>2024-06-23T12:28:09Z</time>
      </trkpt>
      <trkpt lat="43.00977" lon="1.12266">
        <ele>400.4</ele>
        <time>2024-06-23T12:28:10Z</time>
      </trkpt>
      <trkpt lat="43.00978" lon="1.12259">
        <ele>400.2</ele>
        <time>2024-06-23T12:28:11Z</time>
      </trkpt>
      <trkpt lat="43.00979" lon="1.12253">
        <ele>400.4</ele>
        <time>2024-06-23T12:28:12Z</time>
      </trkpt>
      <trkpt lat="43.0098" lon="1.12246">
        <ele>400.4</ele>
        <time>2024-06-23T12:28:13Z</time>
      </trkpt>
      <trkpt lat="43.00982" lon="1.12239">
        <ele>400.2</ele>
        <time>2024-06-23T12:28:14Z</time>
      </trkpt>
      <trkpt lat="43.00983" lon="1.12233">
        <ele>400.2</ele>
        <time>2024-06-23T12:28:15Z</time>
      </trkpt>
      <trkpt lat="43.00984" lon="1.12226">
        <ele>400.2</ele>
        <time>2024-06-23T12:28:16Z</time>
      </trkpt>
      <trkpt lat="43.00986" lon="1.12219">
        <ele>400.2</ele>
        <time>2024-06-23T12:28:17Z</time>
      </trkpt>
      <trkpt lat="43.00986" lon="1.12212">
        <ele>400.2</ele>
        <time>2024-06-23T12:28:18Z</time>
      </trkpt>
      <trkpt lat="43.00986" lon="1.12205">
        <ele>400.2</ele>
        <time>2024-06-23T12:28:19Z</time>
      </trkpt>
      <trkpt lat="43.00987" lon="1.12199">
        <ele>400.2</ele>
        <time>2024-06-23T12:28:20Z</time>
      </trkpt>
      <trkpt lat="43.00987" lon="1.12192">
        <ele>400.2</ele>
        <time>2024-06-23T12:28:21Z</time>
      </trkpt>
      <trkpt lat="43.00987" lon="1.12186">
        <ele>400.2</ele>
        <time>2024-06-23T12:28:22Z</time>
      </trkpt>
      <trkpt lat="43.00987" lon="1.12179">
        <ele>400.2</ele>
        <time>2024-06-23T12:28:23Z</time>
      </trkpt>
      <trkpt lat="43.00987" lon="1.12172">
        <ele>400</ele>
        <time>2024-06-23T12:28:24Z</time>
      </trkpt>
      <trkpt lat="43.00987" lon="1.12166">
        <ele>400</ele>
        <time>2024-06-23T12:28:25Z</time>
      </trkpt>
      <trkpt lat="43.00987" lon="1.1216">
        <ele>400</ele>
        <time>2024-06-23T12:28:26Z</time>
      </trkpt>
      <trkpt lat="43.00987" lon="1.12153">
        <ele>400</ele>
        <time>2024-06-23T12:28:27Z</time>
      </trkpt>
      <trkpt lat="43.0099" lon="1.12148">
        <ele>400</ele>
        <time>2024-06-23T12:28:28Z</time>
      </trkpt>
      <trkpt lat="43.00993" lon="1.12144">
        <ele>399.4</ele>
        <time>2024-06-23T12:28:29Z</time>
      </trkpt>
      <trkpt lat="43.00995" lon="1.12138">
        <ele>399.4</ele>
        <time>2024-06-23T12:28:30Z</time>
      </trkpt>
      <trkpt lat="43.00999" lon="1.12134">
        <ele>399.4</ele>
        <time>2024-06-23T12:28:31Z</time>
      </trkpt>
      <trkpt lat="43.01003" lon="1.12129">
        <ele>399.6</ele>
        <time>2024-06-23T12:28:32Z</time>
      </trkpt>
      <trkpt lat="43.01006" lon="1.12125">
        <ele>399.6</ele>
        <time>2024-06-23T12:28:33Z</time>
      </trkpt>
      <trkpt lat="43.01009" lon="1.1212">
        <ele>399.6</ele>
        <time>2024-06-23T12:28:34Z</time>
      </trkpt>
      <trkpt lat="43.01013" lon="1.12116">
        <ele>399.4</ele>
        <time>2024-06-23T12:28:35Z</time>
      </trkpt>
      <trkpt lat="43.01016" lon="1.12112">
        <ele>399.6</ele>
        <time>2024-06-23T12:28:36Z</time>
      </trkpt>
      <trkpt lat="43.01018" lon="1.12109">
        <ele>399.4</ele>
        <time>2024-06-23T12:28:37Z</time>
      </trkpt>
      <trkpt lat="43.01019" lon="1.12106">
        <ele>399.4</ele>
        <time>2024-06-23T12:28:38Z</time>
      </trkpt>
      <trkpt lat="43.01021" lon="1.12105">
        <ele>399.4</ele>
        <time>2024-06-23T12:28:39Z</time>
      </trkpt>
      <trkpt lat="43.01021" lon="1.12105">
        <ele>399.4</ele>
        <time>2024-06-23T12:28:40Z</time>
      </trkpt>
      <trkpt lat="43.01021" lon="1.12105">
        <ele>399.4</ele>
        <time>2024-06-23T12:28:41Z</time>
      </trkpt>
    </trkseg>
  </trk>
</gpx>